<?xml version="1.0" encoding="UTF-8" standalone="no" ?>
<gpx xmlns="http://www.topografix.com/GPX/1/1" xmlns:xsi="http://www.w3.org/2001/XMLSchema-instance" xsi:schemaLocation="http://www.topografix.com/GPX/1/1 http://www.topografix.com/GPX/1/1/gpx.xsd" version="1.1" creator="VisuGPX - https://www.visugpx.com">
  <metadata>
    <name>23-05-31</name>
    <desc><![CDATA[ADV]]></desc>
  </metadata>
  <trk>
    <name><![CDATA[23-05-31]]></name>
    <trkseg>
      <trkpt lat="45.8805" lon="5.15055">
        <ele>225</ele>
        <time>2023-05-31T05:58:28.000Z</time>
      </trkpt>
      <trkpt lat="45.88056" lon="5.15018">
        <ele>224</ele>
        <time>2023-05-31T05:58:36.000Z</time>
      </trkpt>
      <trkpt lat="45.88059" lon="5.15005">
        <ele>224</ele>
        <time>2023-05-31T05:58:39.000Z</time>
      </trkpt>
      <trkpt lat="45.88062" lon="5.14998">
        <ele>224</ele>
        <time>2023-05-31T05:58:41.000Z</time>
      </trkpt>
      <trkpt lat="45.88064" lon="5.14995">
        <ele>224</ele>
        <time>2023-05-31T05:58:43.000Z</time>
      </trkpt>
      <trkpt lat="45.88065" lon="5.14994">
        <ele>224</ele>
        <time>2023-05-31T05:58:45.000Z</time>
      </trkpt>
      <trkpt lat="45.88075" lon="5.14991">
        <ele>224</ele>
        <time>2023-05-31T05:58:50.000Z</time>
      </trkpt>
      <trkpt lat="45.88095" lon="5.14986">
        <ele>224.19999694824</ele>
        <time>2023-05-31T05:58:55.000Z</time>
      </trkpt>
      <trkpt lat="45.88121" lon="5.1498">
        <ele>224.39999389648</ele>
        <time>2023-05-31T05:59:01.000Z</time>
      </trkpt>
      <trkpt lat="45.88129" lon="5.14976">
        <ele>224.60000610352</ele>
        <time>2023-05-31T05:59:03.000Z</time>
      </trkpt>
      <trkpt lat="45.88146" lon="5.14969">
        <ele>225.39999389648</ele>
        <time>2023-05-31T05:59:07.000Z</time>
      </trkpt>
      <trkpt lat="45.88163" lon="5.14965">
        <ele>226</ele>
        <time>2023-05-31T05:59:11.000Z</time>
      </trkpt>
      <trkpt lat="45.88175" lon="5.14966">
        <ele>226.60000610352</ele>
        <time>2023-05-31T05:59:14.000Z</time>
      </trkpt>
      <trkpt lat="45.88187" lon="5.14968">
        <ele>227.19999694824</ele>
        <time>2023-05-31T05:59:17.000Z</time>
      </trkpt>
      <trkpt lat="45.88192" lon="5.14969">
        <ele>227.39999389648</ele>
        <time>2023-05-31T05:59:18.000Z</time>
      </trkpt>
      <trkpt lat="45.88197" lon="5.14971">
        <ele>227.60000610352</ele>
        <time>2023-05-31T05:59:19.000Z</time>
      </trkpt>
      <trkpt lat="45.88202" lon="5.14972">
        <ele>227.80000305176</ele>
        <time>2023-05-31T05:59:20.000Z</time>
      </trkpt>
      <trkpt lat="45.88209" lon="5.14973">
        <ele>228.19999694824</ele>
        <time>2023-05-31T05:59:22.000Z</time>
      </trkpt>
      <trkpt lat="45.88214" lon="5.14973">
        <ele>228.19999694824</ele>
        <time>2023-05-31T05:59:23.000Z</time>
      </trkpt>
      <trkpt lat="45.8822" lon="5.14974">
        <ele>228.39999389648</ele>
        <time>2023-05-31T05:59:24.000Z</time>
      </trkpt>
      <trkpt lat="45.88228" lon="5.14978">
        <ele>228.60000610352</ele>
        <time>2023-05-31T05:59:26.000Z</time>
      </trkpt>
      <trkpt lat="45.88231" lon="5.14981">
        <ele>228.60000610352</ele>
        <time>2023-05-31T05:59:27.000Z</time>
      </trkpt>
      <trkpt lat="45.8824" lon="5.14988">
        <ele>228.80000305176</ele>
        <time>2023-05-31T05:59:29.000Z</time>
      </trkpt>
      <trkpt lat="45.88251" lon="5.14998">
        <ele>229</ele>
        <time>2023-05-31T05:59:32.000Z</time>
      </trkpt>
      <trkpt lat="45.8826" lon="5.15004">
        <ele>229.39999389648</ele>
        <time>2023-05-31T05:59:34.000Z</time>
      </trkpt>
      <trkpt lat="45.88269" lon="5.1501">
        <ele>229.80000305176</ele>
        <time>2023-05-31T05:59:36.000Z</time>
      </trkpt>
      <trkpt lat="45.88299" lon="5.15027">
        <ele>230.60000610352</ele>
        <time>2023-05-31T05:59:43.000Z</time>
      </trkpt>
      <trkpt lat="45.88309" lon="5.15033">
        <ele>231</ele>
        <time>2023-05-31T05:59:45.000Z</time>
      </trkpt>
      <trkpt lat="45.88337" lon="5.15051">
        <ele>231.19999694824</ele>
        <time>2023-05-31T05:59:51.000Z</time>
      </trkpt>
      <trkpt lat="45.88386" lon="5.15087">
        <ele>231.60000610352</ele>
        <time>2023-05-31T06:00:02.000Z</time>
      </trkpt>
      <trkpt lat="45.88391" lon="5.1509">
        <ele>231.60000610352</ele>
        <time>2023-05-31T06:00:03.000Z</time>
      </trkpt>
      <trkpt lat="45.88424" lon="5.15101">
        <ele>231.80000305176</ele>
        <time>2023-05-31T06:00:10.000Z</time>
      </trkpt>
      <trkpt lat="45.88428" lon="5.15103">
        <ele>232</ele>
        <time>2023-05-31T06:00:11.000Z</time>
      </trkpt>
      <trkpt lat="45.88453" lon="5.15112">
        <ele>232.39999389648</ele>
        <time>2023-05-31T06:00:16.000Z</time>
      </trkpt>
      <trkpt lat="45.88482" lon="5.15123">
        <ele>232.60000610352</ele>
        <time>2023-05-31T06:00:22.000Z</time>
      </trkpt>
      <trkpt lat="45.88501" lon="5.15131">
        <ele>232.60000610352</ele>
        <time>2023-05-31T06:00:26.000Z</time>
      </trkpt>
      <trkpt lat="45.88519" lon="5.15138">
        <ele>233</ele>
        <time>2023-05-31T06:00:30.000Z</time>
      </trkpt>
      <trkpt lat="45.88538" lon="5.15144">
        <ele>233.39999389648</ele>
        <time>2023-05-31T06:00:34.000Z</time>
      </trkpt>
      <trkpt lat="45.88569" lon="5.1516">
        <ele>234</ele>
        <time>2023-05-31T06:00:41.000Z</time>
      </trkpt>
      <trkpt lat="45.88574" lon="5.15163">
        <ele>234.19999694824</ele>
        <time>2023-05-31T06:00:42.000Z</time>
      </trkpt>
      <trkpt lat="45.88578" lon="5.15167">
        <ele>234.39999389648</ele>
        <time>2023-05-31T06:00:43.000Z</time>
      </trkpt>
      <trkpt lat="45.886" lon="5.15191">
        <ele>235.19999694824</ele>
        <time>2023-05-31T06:00:49.000Z</time>
      </trkpt>
      <trkpt lat="45.88631" lon="5.15225">
        <ele>236.19999694824</ele>
        <time>2023-05-31T06:00:57.000Z</time>
      </trkpt>
      <trkpt lat="45.88639" lon="5.15234">
        <ele>236.39999389648</ele>
        <time>2023-05-31T06:00:59.000Z</time>
      </trkpt>
      <trkpt lat="45.8867" lon="5.15276">
        <ele>237.39999389648</ele>
        <time>2023-05-31T06:01:08.000Z</time>
      </trkpt>
      <trkpt lat="45.88698" lon="5.15322">
        <ele>238.60000610352</ele>
        <time>2023-05-31T06:01:17.000Z</time>
      </trkpt>
      <trkpt lat="45.88702" lon="5.15327">
        <ele>238.60000610352</ele>
        <time>2023-05-31T06:01:18.000Z</time>
      </trkpt>
      <trkpt lat="45.88724" lon="5.15355">
        <ele>239.39999389648</ele>
        <time>2023-05-31T06:01:24.000Z</time>
      </trkpt>
      <trkpt lat="45.88732" lon="5.15364">
        <ele>239.60000610352</ele>
        <time>2023-05-31T06:01:26.000Z</time>
      </trkpt>
      <trkpt lat="45.88739" lon="5.15372">
        <ele>239.80000305176</ele>
        <time>2023-05-31T06:01:28.000Z</time>
      </trkpt>
      <trkpt lat="45.88766" lon="5.15403">
        <ele>240.60000610352</ele>
        <time>2023-05-31T06:01:35.000Z</time>
      </trkpt>
      <trkpt lat="45.88769" lon="5.15408">
        <ele>240.80000305176</ele>
        <time>2023-05-31T06:01:36.000Z</time>
      </trkpt>
      <trkpt lat="45.88793" lon="5.15445">
        <ele>241.60000610352</ele>
        <time>2023-05-31T06:01:43.000Z</time>
      </trkpt>
      <trkpt lat="45.88797" lon="5.1545">
        <ele>241.80000305176</ele>
        <time>2023-05-31T06:01:44.000Z</time>
      </trkpt>
      <trkpt lat="45.88827" lon="5.15504">
        <ele>242.39999389648</ele>
        <time>2023-05-31T06:01:53.000Z</time>
      </trkpt>
      <trkpt lat="45.88836" lon="5.15522">
        <ele>242.39999389648</ele>
        <time>2023-05-31T06:01:56.000Z</time>
      </trkpt>
      <trkpt lat="45.88845" lon="5.15542">
        <ele>242.39999389648</ele>
        <time>2023-05-31T06:01:59.000Z</time>
      </trkpt>
      <trkpt lat="45.88868" lon="5.15585">
        <ele>242.39999389648</ele>
        <time>2023-05-31T06:02:06.000Z</time>
      </trkpt>
      <trkpt lat="45.88898" lon="5.15636">
        <ele>241.80000305176</ele>
        <time>2023-05-31T06:02:14.000Z</time>
      </trkpt>
      <trkpt lat="45.88903" lon="5.15643">
        <ele>241.80000305176</ele>
        <time>2023-05-31T06:02:15.000Z</time>
      </trkpt>
      <trkpt lat="45.88919" lon="5.15667">
        <ele>241.60000610352</ele>
        <time>2023-05-31T06:02:19.000Z</time>
      </trkpt>
      <trkpt lat="45.88923" lon="5.15673">
        <ele>241.60000610352</ele>
        <time>2023-05-31T06:02:20.000Z</time>
      </trkpt>
      <trkpt lat="45.88927" lon="5.15679">
        <ele>241.60000610352</ele>
        <time>2023-05-31T06:02:21.000Z</time>
      </trkpt>
      <trkpt lat="45.88934" lon="5.15691">
        <ele>241.60000610352</ele>
        <time>2023-05-31T06:02:23.000Z</time>
      </trkpt>
      <trkpt lat="45.88942" lon="5.15709">
        <ele>241.80000305176</ele>
        <time>2023-05-31T06:02:26.000Z</time>
      </trkpt>
      <trkpt lat="45.88949" lon="5.15719">
        <ele>242</ele>
        <time>2023-05-31T06:02:28.000Z</time>
      </trkpt>
      <trkpt lat="45.88958" lon="5.15723">
        <ele>242.39999389648</ele>
        <time>2023-05-31T06:02:30.000Z</time>
      </trkpt>
      <trkpt lat="45.88962" lon="5.15723">
        <ele>242.80000305176</ele>
        <time>2023-05-31T06:02:31.000Z</time>
      </trkpt>
      <trkpt lat="45.88987" lon="5.15717">
        <ele>243.80000305176</ele>
        <time>2023-05-31T06:02:36.000Z</time>
      </trkpt>
      <trkpt lat="45.88991" lon="5.15719">
        <ele>243.80000305176</ele>
        <time>2023-05-31T06:02:37.000Z</time>
      </trkpt>
      <trkpt lat="45.88995" lon="5.15723">
        <ele>244</ele>
        <time>2023-05-31T06:02:38.000Z</time>
      </trkpt>
      <trkpt lat="45.89001" lon="5.15735">
        <ele>244.39999389648</ele>
        <time>2023-05-31T06:02:40.000Z</time>
      </trkpt>
      <trkpt lat="45.89009" lon="5.15754">
        <ele>244.80000305176</ele>
        <time>2023-05-31T06:02:43.000Z</time>
      </trkpt>
      <trkpt lat="45.89031" lon="5.15797">
        <ele>245.60000610352</ele>
        <time>2023-05-31T06:02:50.000Z</time>
      </trkpt>
      <trkpt lat="45.89038" lon="5.1581">
        <ele>246</ele>
        <time>2023-05-31T06:02:52.000Z</time>
      </trkpt>
      <trkpt lat="45.89055" lon="5.15849">
        <ele>246.39999389648</ele>
        <time>2023-05-31T06:02:58.000Z</time>
      </trkpt>
      <trkpt lat="45.89065" lon="5.15893">
        <ele>246.60000610352</ele>
        <time>2023-05-31T06:03:04.000Z</time>
      </trkpt>
      <trkpt lat="45.89074" lon="5.15954">
        <ele>246.80000305176</ele>
        <time>2023-05-31T06:03:11.000Z</time>
      </trkpt>
      <trkpt lat="45.89084" lon="5.16022">
        <ele>246.19999694824</ele>
        <time>2023-05-31T06:03:19.000Z</time>
      </trkpt>
      <trkpt lat="45.89093" lon="5.16091">
        <ele>245.19999694824</ele>
        <time>2023-05-31T06:03:26.000Z</time>
      </trkpt>
      <trkpt lat="45.89095" lon="5.16102">
        <ele>245</ele>
        <time>2023-05-31T06:03:27.000Z</time>
      </trkpt>
      <trkpt lat="45.89102" lon="5.16119">
        <ele>244.39999389648</ele>
        <time>2023-05-31T06:03:29.000Z</time>
      </trkpt>
      <trkpt lat="45.89107" lon="5.16128">
        <ele>244</ele>
        <time>2023-05-31T06:03:30.000Z</time>
      </trkpt>
      <trkpt lat="45.89123" lon="5.16155">
        <ele>243</ele>
        <time>2023-05-31T06:03:33.000Z</time>
      </trkpt>
      <trkpt lat="45.89142" lon="5.16187">
        <ele>242.60000610352</ele>
        <time>2023-05-31T06:03:37.000Z</time>
      </trkpt>
      <trkpt lat="45.89163" lon="5.16226">
        <ele>242</ele>
        <time>2023-05-31T06:03:42.000Z</time>
      </trkpt>
      <trkpt lat="45.89171" lon="5.16241">
        <ele>241.80000305176</ele>
        <time>2023-05-31T06:03:44.000Z</time>
      </trkpt>
      <trkpt lat="45.89197" lon="5.16291">
        <ele>241.60000610352</ele>
        <time>2023-05-31T06:03:51.000Z</time>
      </trkpt>
      <trkpt lat="45.89201" lon="5.16298">
        <ele>241.80000305176</ele>
        <time>2023-05-31T06:03:52.000Z</time>
      </trkpt>
      <trkpt lat="45.8922" lon="5.16332">
        <ele>242</ele>
        <time>2023-05-31T06:03:57.000Z</time>
      </trkpt>
      <trkpt lat="45.89236" lon="5.16361">
        <ele>242.19999694824</ele>
        <time>2023-05-31T06:04:01.000Z</time>
      </trkpt>
      <trkpt lat="45.89248" lon="5.16379">
        <ele>242.80000305176</ele>
        <time>2023-05-31T06:04:04.000Z</time>
      </trkpt>
      <trkpt lat="45.89258" lon="5.16391">
        <ele>242.80000305176</ele>
        <time>2023-05-31T06:04:06.000Z</time>
      </trkpt>
      <trkpt lat="45.89269" lon="5.16396">
        <ele>243</ele>
        <time>2023-05-31T06:04:08.000Z</time>
      </trkpt>
      <trkpt lat="45.89275" lon="5.16397">
        <ele>243</ele>
        <time>2023-05-31T06:04:09.000Z</time>
      </trkpt>
      <trkpt lat="45.89292" lon="5.164">
        <ele>243.39999389648</ele>
        <time>2023-05-31T06:04:12.000Z</time>
      </trkpt>
      <trkpt lat="45.89316" lon="5.16405">
        <ele>244.19999694824</ele>
        <time>2023-05-31T06:04:16.000Z</time>
      </trkpt>
      <trkpt lat="45.89325" lon="5.16411">
        <ele>244.60000610352</ele>
        <time>2023-05-31T06:04:18.000Z</time>
      </trkpt>
      <trkpt lat="45.89335" lon="5.16422">
        <ele>245.19999694824</ele>
        <time>2023-05-31T06:04:20.000Z</time>
      </trkpt>
      <trkpt lat="45.8934" lon="5.16426">
        <ele>245.60000610352</ele>
        <time>2023-05-31T06:04:21.000Z</time>
      </trkpt>
      <trkpt lat="45.89347" lon="5.16434">
        <ele>246</ele>
        <time>2023-05-31T06:04:23.000Z</time>
      </trkpt>
      <trkpt lat="45.8935" lon="5.16441">
        <ele>246.19999694824</ele>
        <time>2023-05-31T06:04:24.000Z</time>
      </trkpt>
      <trkpt lat="45.89369" lon="5.16482">
        <ele>246.80000305176</ele>
        <time>2023-05-31T06:04:29.000Z</time>
      </trkpt>
      <trkpt lat="45.89372" lon="5.1649">
        <ele>246.80000305176</ele>
        <time>2023-05-31T06:04:30.000Z</time>
      </trkpt>
      <trkpt lat="45.89389" lon="5.16541">
        <ele>246.60000610352</ele>
        <time>2023-05-31T06:04:36.000Z</time>
      </trkpt>
      <trkpt lat="45.89404" lon="5.16597">
        <ele>245.39999389648</ele>
        <time>2023-05-31T06:04:42.000Z</time>
      </trkpt>
      <trkpt lat="45.89407" lon="5.16607">
        <ele>245.19999694824</ele>
        <time>2023-05-31T06:04:43.000Z</time>
      </trkpt>
      <trkpt lat="45.89409" lon="5.16616">
        <ele>245</ele>
        <time>2023-05-31T06:04:44.000Z</time>
      </trkpt>
      <trkpt lat="45.89416" lon="5.16652">
        <ele>244.39999389648</ele>
        <time>2023-05-31T06:04:48.000Z</time>
      </trkpt>
      <trkpt lat="45.89424" lon="5.16697">
        <ele>244.19999694824</ele>
        <time>2023-05-31T06:04:53.000Z</time>
      </trkpt>
      <trkpt lat="45.8943" lon="5.16711">
        <ele>244.19999694824</ele>
        <time>2023-05-31T06:04:55.000Z</time>
      </trkpt>
      <trkpt lat="45.89438" lon="5.16729">
        <ele>244</ele>
        <time>2023-05-31T06:04:57.000Z</time>
      </trkpt>
      <trkpt lat="45.89463" lon="5.16774">
        <ele>243.39999389648</ele>
        <time>2023-05-31T06:05:03.000Z</time>
      </trkpt>
      <trkpt lat="45.89494" lon="5.16836">
        <ele>243.60000610352</ele>
        <time>2023-05-31T06:05:12.000Z</time>
      </trkpt>
      <trkpt lat="45.89522" lon="5.16895">
        <ele>244.19999694824</ele>
        <time>2023-05-31T06:05:20.000Z</time>
      </trkpt>
      <trkpt lat="45.89551" lon="5.1694">
        <ele>244</ele>
        <time>2023-05-31T06:05:27.000Z</time>
      </trkpt>
      <trkpt lat="45.89586" lon="5.16996">
        <ele>243.39999389648</ele>
        <time>2023-05-31T06:05:35.000Z</time>
      </trkpt>
      <trkpt lat="45.89605" lon="5.17033">
        <ele>243.19999694824</ele>
        <time>2023-05-31T06:05:40.000Z</time>
      </trkpt>
      <trkpt lat="45.8961" lon="5.17049">
        <ele>243.39999389648</ele>
        <time>2023-05-31T06:05:42.000Z</time>
      </trkpt>
      <trkpt lat="45.89625" lon="5.17103">
        <ele>243.80000305176</ele>
        <time>2023-05-31T06:05:49.000Z</time>
      </trkpt>
      <trkpt lat="45.89644" lon="5.17156">
        <ele>244.19999694824</ele>
        <time>2023-05-31T06:05:56.000Z</time>
      </trkpt>
      <trkpt lat="45.89674" lon="5.17206">
        <ele>245</ele>
        <time>2023-05-31T06:06:04.000Z</time>
      </trkpt>
      <trkpt lat="45.89716" lon="5.17267">
        <ele>245.60000610352</ele>
        <time>2023-05-31T06:06:14.000Z</time>
      </trkpt>
      <trkpt lat="45.89754" lon="5.17324">
        <ele>245.80000305176</ele>
        <time>2023-05-31T06:06:23.000Z</time>
      </trkpt>
      <trkpt lat="45.89767" lon="5.17343">
        <ele>245.80000305176</ele>
        <time>2023-05-31T06:06:26.000Z</time>
      </trkpt>
      <trkpt lat="45.89787" lon="5.17374">
        <ele>246.19999694824</ele>
        <time>2023-05-31T06:06:31.000Z</time>
      </trkpt>
      <trkpt lat="45.89798" lon="5.17392">
        <ele>246.39999389648</ele>
        <time>2023-05-31T06:06:34.000Z</time>
      </trkpt>
      <trkpt lat="45.89822" lon="5.17427">
        <ele>247.19999694824</ele>
        <time>2023-05-31T06:06:40.000Z</time>
      </trkpt>
      <trkpt lat="45.89834" lon="5.17444">
        <ele>247.80000305176</ele>
        <time>2023-05-31T06:06:43.000Z</time>
      </trkpt>
      <trkpt lat="45.89847" lon="5.1746">
        <ele>248.19999694824</ele>
        <time>2023-05-31T06:06:46.000Z</time>
      </trkpt>
      <trkpt lat="45.89873" lon="5.17488">
        <ele>249.19999694824</ele>
        <time>2023-05-31T06:06:52.000Z</time>
      </trkpt>
      <trkpt lat="45.89883" lon="5.17497">
        <ele>249.39999389648</ele>
        <time>2023-05-31T06:06:54.000Z</time>
      </trkpt>
      <trkpt lat="45.8992" lon="5.17531">
        <ele>250</ele>
        <time>2023-05-31T06:07:02.000Z</time>
      </trkpt>
      <trkpt lat="45.89955" lon="5.17575">
        <ele>249.80000305176</ele>
        <time>2023-05-31T06:07:10.000Z</time>
      </trkpt>
      <trkpt lat="45.89986" lon="5.17626">
        <ele>250.19999694824</ele>
        <time>2023-05-31T06:07:18.000Z</time>
      </trkpt>
      <trkpt lat="45.90024" lon="5.17692">
        <ele>250.19999694824</ele>
        <time>2023-05-31T06:07:28.000Z</time>
      </trkpt>
      <trkpt lat="45.90036" lon="5.17713">
        <ele>250</ele>
        <time>2023-05-31T06:07:31.000Z</time>
      </trkpt>
      <trkpt lat="45.90068" lon="5.17777">
        <ele>248.80000305176</ele>
        <time>2023-05-31T06:07:39.000Z</time>
      </trkpt>
      <trkpt lat="45.90075" lon="5.17797">
        <ele>248.19999694824</ele>
        <time>2023-05-31T06:07:41.000Z</time>
      </trkpt>
      <trkpt lat="45.90088" lon="5.1784">
        <ele>247</ele>
        <time>2023-05-31T06:07:45.000Z</time>
      </trkpt>
      <trkpt lat="45.90097" lon="5.17859">
        <ele>246</ele>
        <time>2023-05-31T06:07:47.000Z</time>
      </trkpt>
      <trkpt lat="45.90107" lon="5.17874">
        <ele>245</ele>
        <time>2023-05-31T06:07:49.000Z</time>
      </trkpt>
      <trkpt lat="45.90112" lon="5.1788">
        <ele>244.60000610352</ele>
        <time>2023-05-31T06:07:50.000Z</time>
      </trkpt>
      <trkpt lat="45.9012" lon="5.17887">
        <ele>244</ele>
        <time>2023-05-31T06:07:52.000Z</time>
      </trkpt>
      <trkpt lat="45.90129" lon="5.17892">
        <ele>243.39999389648</ele>
        <time>2023-05-31T06:07:55.000Z</time>
      </trkpt>
      <trkpt lat="45.90131" lon="5.17895">
        <ele>243.19999694824</ele>
        <time>2023-05-31T06:07:56.000Z</time>
      </trkpt>
      <trkpt lat="45.90135" lon="5.17904">
        <ele>242.60000610352</ele>
        <time>2023-05-31T06:07:58.000Z</time>
      </trkpt>
      <trkpt lat="45.90136" lon="5.17911">
        <ele>242.39999389648</ele>
        <time>2023-05-31T06:07:59.000Z</time>
      </trkpt>
      <trkpt lat="45.90138" lon="5.17918">
        <ele>242.39999389648</ele>
        <time>2023-05-31T06:08:00.000Z</time>
      </trkpt>
      <trkpt lat="45.90152" lon="5.1798">
        <ele>242.19999694824</ele>
        <time>2023-05-31T06:08:08.000Z</time>
      </trkpt>
      <trkpt lat="45.90165" lon="5.18042">
        <ele>242</ele>
        <time>2023-05-31T06:08:15.000Z</time>
      </trkpt>
      <trkpt lat="45.90167" lon="5.18102">
        <ele>241.39999389648</ele>
        <time>2023-05-31T06:08:21.000Z</time>
      </trkpt>
      <trkpt lat="45.90169" lon="5.18178">
        <ele>241</ele>
        <time>2023-05-31T06:08:29.000Z</time>
      </trkpt>
      <trkpt lat="45.90171" lon="5.18199">
        <ele>240.39999389648</ele>
        <time>2023-05-31T06:08:31.000Z</time>
      </trkpt>
      <trkpt lat="45.90174" lon="5.18248">
        <ele>239.19999694824</ele>
        <time>2023-05-31T06:08:35.000Z</time>
      </trkpt>
      <trkpt lat="45.90176" lon="5.18283">
        <ele>237.80000305176</ele>
        <time>2023-05-31T06:08:38.000Z</time>
      </trkpt>
      <trkpt lat="45.90177" lon="5.18319">
        <ele>236.80000305176</ele>
        <time>2023-05-31T06:08:41.000Z</time>
      </trkpt>
      <trkpt lat="45.90178" lon="5.18332">
        <ele>236.39999389648</ele>
        <time>2023-05-31T06:08:42.000Z</time>
      </trkpt>
      <trkpt lat="45.90177" lon="5.18345">
        <ele>236</ele>
        <time>2023-05-31T06:08:43.000Z</time>
      </trkpt>
      <trkpt lat="45.90175" lon="5.18358">
        <ele>235.19999694824</ele>
        <time>2023-05-31T06:08:44.000Z</time>
      </trkpt>
      <trkpt lat="45.90172" lon="5.18372">
        <ele>234.60000610352</ele>
        <time>2023-05-31T06:08:45.000Z</time>
      </trkpt>
      <trkpt lat="45.90165" lon="5.18398">
        <ele>234</ele>
        <time>2023-05-31T06:08:47.000Z</time>
      </trkpt>
      <trkpt lat="45.90154" lon="5.18425">
        <ele>232.80000305176</ele>
        <time>2023-05-31T06:08:49.000Z</time>
      </trkpt>
      <trkpt lat="45.90149" lon="5.18438">
        <ele>232</ele>
        <time>2023-05-31T06:08:50.000Z</time>
      </trkpt>
      <trkpt lat="45.90142" lon="5.1845">
        <ele>231.60000610352</ele>
        <time>2023-05-31T06:08:51.000Z</time>
      </trkpt>
      <trkpt lat="45.9013" lon="5.18475">
        <ele>230.39999389648</ele>
        <time>2023-05-31T06:08:53.000Z</time>
      </trkpt>
      <trkpt lat="45.90121" lon="5.18497">
        <ele>228.80000305176</ele>
        <time>2023-05-31T06:08:55.000Z</time>
      </trkpt>
      <trkpt lat="45.9011" lon="5.18525">
        <ele>227.19999694824</ele>
        <time>2023-05-31T06:08:57.000Z</time>
      </trkpt>
      <trkpt lat="45.901" lon="5.1855">
        <ele>225.80000305176</ele>
        <time>2023-05-31T06:08:59.000Z</time>
      </trkpt>
      <trkpt lat="45.90091" lon="5.18572">
        <ele>224.39999389648</ele>
        <time>2023-05-31T06:09:01.000Z</time>
      </trkpt>
      <trkpt lat="45.9008" lon="5.18597">
        <ele>223.19999694824</ele>
        <time>2023-05-31T06:09:03.000Z</time>
      </trkpt>
      <trkpt lat="45.90076" lon="5.18608">
        <ele>222.60000610352</ele>
        <time>2023-05-31T06:09:04.000Z</time>
      </trkpt>
      <trkpt lat="45.90068" lon="5.18629">
        <ele>221.80000305176</ele>
        <time>2023-05-31T06:09:06.000Z</time>
      </trkpt>
      <trkpt lat="45.90055" lon="5.1866">
        <ele>220.39999389648</ele>
        <time>2023-05-31T06:09:09.000Z</time>
      </trkpt>
      <trkpt lat="45.90047" lon="5.1868">
        <ele>220</ele>
        <time>2023-05-31T06:09:11.000Z</time>
      </trkpt>
      <trkpt lat="45.90031" lon="5.18718">
        <ele>219.19999694824</ele>
        <time>2023-05-31T06:09:15.000Z</time>
      </trkpt>
      <trkpt lat="45.90023" lon="5.18733">
        <ele>219</ele>
        <time>2023-05-31T06:09:17.000Z</time>
      </trkpt>
      <trkpt lat="45.90005" lon="5.1876">
        <ele>218.39999389648</ele>
        <time>2023-05-31T06:09:22.000Z</time>
      </trkpt>
      <trkpt lat="45.89997" lon="5.18769">
        <ele>218.39999389648</ele>
        <time>2023-05-31T06:09:26.000Z</time>
      </trkpt>
      <trkpt lat="45.89995" lon="5.18773">
        <ele>218.19999694824</ele>
        <time>2023-05-31T06:09:30.000Z</time>
      </trkpt>
      <trkpt lat="45.89995" lon="5.18773">
        <ele>218.19999694824</ele>
        <time>2023-05-31T06:09:31.000Z</time>
      </trkpt>
      <trkpt lat="45.89993" lon="5.18779">
        <ele>218.19999694824</ele>
        <time>2023-05-31T06:09:37.000Z</time>
      </trkpt>
      <trkpt lat="45.89996" lon="5.1879">
        <ele>218.19999694824</ele>
        <time>2023-05-31T06:09:39.000Z</time>
      </trkpt>
      <trkpt lat="45.90009" lon="5.18805">
        <ele>218.19999694824</ele>
        <time>2023-05-31T06:09:42.000Z</time>
      </trkpt>
      <trkpt lat="45.90043" lon="5.18845">
        <ele>218.39999389648</ele>
        <time>2023-05-31T06:09:49.000Z</time>
      </trkpt>
      <trkpt lat="45.90079" lon="5.18889">
        <ele>218.19999694824</ele>
        <time>2023-05-31T06:09:56.000Z</time>
      </trkpt>
      <trkpt lat="45.9012" lon="5.18939">
        <ele>217.80000305176</ele>
        <time>2023-05-31T06:10:04.000Z</time>
      </trkpt>
      <trkpt lat="45.90125" lon="5.18946">
        <ele>217.80000305176</ele>
        <time>2023-05-31T06:10:05.000Z</time>
      </trkpt>
      <trkpt lat="45.90133" lon="5.18961">
        <ele>217.80000305176</ele>
        <time>2023-05-31T06:10:07.000Z</time>
      </trkpt>
      <trkpt lat="45.90135" lon="5.18969">
        <ele>217.80000305176</ele>
        <time>2023-05-31T06:10:08.000Z</time>
      </trkpt>
      <trkpt lat="45.90133" lon="5.18975">
        <ele>217.80000305176</ele>
        <time>2023-05-31T06:10:09.000Z</time>
      </trkpt>
      <trkpt lat="45.90129" lon="5.18992">
        <ele>217.80000305176</ele>
        <time>2023-05-31T06:10:11.000Z</time>
      </trkpt>
      <trkpt lat="45.90132" lon="5.19011">
        <ele>218</ele>
        <time>2023-05-31T06:10:13.000Z</time>
      </trkpt>
      <trkpt lat="45.9013" lon="5.19029">
        <ele>217.80000305176</ele>
        <time>2023-05-31T06:10:15.000Z</time>
      </trkpt>
      <trkpt lat="45.90124" lon="5.19044">
        <ele>217.80000305176</ele>
        <time>2023-05-31T06:10:17.000Z</time>
      </trkpt>
      <trkpt lat="45.9012" lon="5.19051">
        <ele>217.80000305176</ele>
        <time>2023-05-31T06:10:18.000Z</time>
      </trkpt>
      <trkpt lat="45.90092" lon="5.19094">
        <ele>217.39999389648</ele>
        <time>2023-05-31T06:10:24.000Z</time>
      </trkpt>
      <trkpt lat="45.90088" lon="5.19112">
        <ele>217.19999694824</ele>
        <time>2023-05-31T06:10:26.000Z</time>
      </trkpt>
      <trkpt lat="45.90088" lon="5.19122">
        <ele>217.19999694824</ele>
        <time>2023-05-31T06:10:27.000Z</time>
      </trkpt>
      <trkpt lat="45.90089" lon="5.19132">
        <ele>217.19999694824</ele>
        <time>2023-05-31T06:10:28.000Z</time>
      </trkpt>
      <trkpt lat="45.90094" lon="5.19151">
        <ele>217.19999694824</ele>
        <time>2023-05-31T06:10:30.000Z</time>
      </trkpt>
      <trkpt lat="45.90097" lon="5.19161">
        <ele>217.19999694824</ele>
        <time>2023-05-31T06:10:31.000Z</time>
      </trkpt>
      <trkpt lat="45.901" lon="5.1917">
        <ele>217</ele>
        <time>2023-05-31T06:10:32.000Z</time>
      </trkpt>
      <trkpt lat="45.90125" lon="5.1923">
        <ele>216.80000305176</ele>
        <time>2023-05-31T06:10:39.000Z</time>
      </trkpt>
      <trkpt lat="45.9015" lon="5.19283">
        <ele>216.39999389648</ele>
        <time>2023-05-31T06:10:46.000Z</time>
      </trkpt>
      <trkpt lat="45.90154" lon="5.1929">
        <ele>216.39999389648</ele>
        <time>2023-05-31T06:10:47.000Z</time>
      </trkpt>
      <trkpt lat="45.90164" lon="5.193">
        <ele>216.60000610352</ele>
        <time>2023-05-31T06:10:49.000Z</time>
      </trkpt>
      <trkpt lat="45.90192" lon="5.19316">
        <ele>217.19999694824</ele>
        <time>2023-05-31T06:10:54.000Z</time>
      </trkpt>
      <trkpt lat="45.90207" lon="5.19335">
        <ele>217.39999389648</ele>
        <time>2023-05-31T06:10:57.000Z</time>
      </trkpt>
      <trkpt lat="45.90216" lon="5.19355">
        <ele>217.19999694824</ele>
        <time>2023-05-31T06:11:00.000Z</time>
      </trkpt>
      <trkpt lat="45.90217" lon="5.1936">
        <ele>217.19999694824</ele>
        <time>2023-05-31T06:11:01.000Z</time>
      </trkpt>
      <trkpt lat="45.9022" lon="5.19365">
        <ele>217.19999694824</ele>
        <time>2023-05-31T06:11:02.000Z</time>
      </trkpt>
      <trkpt lat="45.90229" lon="5.19388">
        <ele>217.19999694824</ele>
        <time>2023-05-31T06:11:06.000Z</time>
      </trkpt>
      <trkpt lat="45.90231" lon="5.19394">
        <ele>217</ele>
        <time>2023-05-31T06:11:07.000Z</time>
      </trkpt>
      <trkpt lat="45.90231" lon="5.19404">
        <ele>217</ele>
        <time>2023-05-31T06:11:09.000Z</time>
      </trkpt>
      <trkpt lat="45.90229" lon="5.19409">
        <ele>217</ele>
        <time>2023-05-31T06:11:10.000Z</time>
      </trkpt>
      <trkpt lat="45.90228" lon="5.19415">
        <ele>217</ele>
        <time>2023-05-31T06:11:11.000Z</time>
      </trkpt>
      <trkpt lat="45.90229" lon="5.19427">
        <ele>217</ele>
        <time>2023-05-31T06:11:13.000Z</time>
      </trkpt>
      <trkpt lat="45.90241" lon="5.1946">
        <ele>216.80000305176</ele>
        <time>2023-05-31T06:11:18.000Z</time>
      </trkpt>
      <trkpt lat="45.9026" lon="5.19512">
        <ele>217.19999694824</ele>
        <time>2023-05-31T06:11:25.000Z</time>
      </trkpt>
      <trkpt lat="45.90288" lon="5.19586">
        <ele>217.39999389648</ele>
        <time>2023-05-31T06:11:35.000Z</time>
      </trkpt>
      <trkpt lat="45.90296" lon="5.19608">
        <ele>217.19999694824</ele>
        <time>2023-05-31T06:11:38.000Z</time>
      </trkpt>
      <trkpt lat="45.90302" lon="5.1963">
        <ele>217.19999694824</ele>
        <time>2023-05-31T06:11:41.000Z</time>
      </trkpt>
      <trkpt lat="45.90308" lon="5.19641">
        <ele>217.19999694824</ele>
        <time>2023-05-31T06:11:43.000Z</time>
      </trkpt>
      <trkpt lat="45.90312" lon="5.19646">
        <ele>217.19999694824</ele>
        <time>2023-05-31T06:11:44.000Z</time>
      </trkpt>
      <trkpt lat="45.90315" lon="5.19652">
        <ele>217.19999694824</ele>
        <time>2023-05-31T06:11:45.000Z</time>
      </trkpt>
      <trkpt lat="45.90318" lon="5.19668">
        <ele>217.19999694824</ele>
        <time>2023-05-31T06:11:47.000Z</time>
      </trkpt>
      <trkpt lat="45.90337" lon="5.19739">
        <ele>217.39999389648</ele>
        <time>2023-05-31T06:11:56.000Z</time>
      </trkpt>
      <trkpt lat="45.90351" lon="5.19783">
        <ele>217.60000610352</ele>
        <time>2023-05-31T06:12:02.000Z</time>
      </trkpt>
      <trkpt lat="45.90355" lon="5.1979">
        <ele>217.60000610352</ele>
        <time>2023-05-31T06:12:03.000Z</time>
      </trkpt>
      <trkpt lat="45.90366" lon="5.19809">
        <ele>217.80000305176</ele>
        <time>2023-05-31T06:12:06.000Z</time>
      </trkpt>
      <trkpt lat="45.9037" lon="5.19815">
        <ele>217.80000305176</ele>
        <time>2023-05-31T06:12:07.000Z</time>
      </trkpt>
      <trkpt lat="45.90374" lon="5.19821">
        <ele>217.80000305176</ele>
        <time>2023-05-31T06:12:08.000Z</time>
      </trkpt>
      <trkpt lat="45.90385" lon="5.19828">
        <ele>218</ele>
        <time>2023-05-31T06:12:10.000Z</time>
      </trkpt>
      <trkpt lat="45.90391" lon="5.19829">
        <ele>218</ele>
        <time>2023-05-31T06:12:11.000Z</time>
      </trkpt>
      <trkpt lat="45.90402" lon="5.1983">
        <ele>218.19999694824</ele>
        <time>2023-05-31T06:12:13.000Z</time>
      </trkpt>
      <trkpt lat="45.9041" lon="5.19838">
        <ele>218.19999694824</ele>
        <time>2023-05-31T06:12:15.000Z</time>
      </trkpt>
      <trkpt lat="45.90408" lon="5.19852">
        <ele>218.19999694824</ele>
        <time>2023-05-31T06:12:17.000Z</time>
      </trkpt>
      <trkpt lat="45.90392" lon="5.19877">
        <ele>217.80000305176</ele>
        <time>2023-05-31T06:12:20.000Z</time>
      </trkpt>
      <trkpt lat="45.90366" lon="5.19915">
        <ele>216.60000610352</ele>
        <time>2023-05-31T06:12:24.000Z</time>
      </trkpt>
      <trkpt lat="45.90342" lon="5.19943">
        <ele>215.80000305176</ele>
        <time>2023-05-31T06:12:28.000Z</time>
      </trkpt>
      <trkpt lat="45.90332" lon="5.19955">
        <ele>215.80000305176</ele>
        <time>2023-05-31T06:12:30.000Z</time>
      </trkpt>
      <trkpt lat="45.90315" lon="5.19969">
        <ele>216.19999694824</ele>
        <time>2023-05-31T06:12:33.000Z</time>
      </trkpt>
      <trkpt lat="45.9027" lon="5.2">
        <ele>217.39999389648</ele>
        <time>2023-05-31T06:12:41.000Z</time>
      </trkpt>
      <trkpt lat="45.90253" lon="5.20005">
        <ele>217.19999694824</ele>
        <time>2023-05-31T06:12:45.000Z</time>
      </trkpt>
      <trkpt lat="45.90246" lon="5.20002">
        <ele>217</ele>
        <time>2023-05-31T06:12:47.000Z</time>
      </trkpt>
      <trkpt lat="45.90235" lon="5.19999">
        <ele>217</ele>
        <time>2023-05-31T06:12:49.000Z</time>
      </trkpt>
      <trkpt lat="45.90223" lon="5.20006">
        <ele>217</ele>
        <time>2023-05-31T06:12:51.000Z</time>
      </trkpt>
      <trkpt lat="45.90218" lon="5.20022">
        <ele>217</ele>
        <time>2023-05-31T06:12:53.000Z</time>
      </trkpt>
      <trkpt lat="45.90222" lon="5.2004">
        <ele>217</ele>
        <time>2023-05-31T06:12:55.000Z</time>
      </trkpt>
      <trkpt lat="45.90227" lon="5.20046">
        <ele>217</ele>
        <time>2023-05-31T06:12:56.000Z</time>
      </trkpt>
      <trkpt lat="45.90232" lon="5.20049">
        <ele>217</ele>
        <time>2023-05-31T06:12:57.000Z</time>
      </trkpt>
      <trkpt lat="45.90238" lon="5.2005">
        <ele>217</ele>
        <time>2023-05-31T06:12:58.000Z</time>
      </trkpt>
      <trkpt lat="45.90244" lon="5.20047">
        <ele>217</ele>
        <time>2023-05-31T06:12:59.000Z</time>
      </trkpt>
      <trkpt lat="45.90254" lon="5.20035">
        <ele>217.19999694824</ele>
        <time>2023-05-31T06:13:01.000Z</time>
      </trkpt>
      <trkpt lat="45.90262" lon="5.20021">
        <ele>217.19999694824</ele>
        <time>2023-05-31T06:13:03.000Z</time>
      </trkpt>
      <trkpt lat="45.90273" lon="5.20011">
        <ele>217</ele>
        <time>2023-05-31T06:13:05.000Z</time>
      </trkpt>
      <trkpt lat="45.90278" lon="5.20007">
        <ele>217</ele>
        <time>2023-05-31T06:13:06.000Z</time>
      </trkpt>
      <trkpt lat="45.90301" lon="5.19993">
        <ele>217.19999694824</ele>
        <time>2023-05-31T06:13:10.000Z</time>
      </trkpt>
      <trkpt lat="45.90317" lon="5.1998">
        <ele>217.19999694824</ele>
        <time>2023-05-31T06:13:13.000Z</time>
      </trkpt>
      <trkpt lat="45.90332" lon="5.19964">
        <ele>217.39999389648</ele>
        <time>2023-05-31T06:13:16.000Z</time>
      </trkpt>
      <trkpt lat="45.90345" lon="5.19946">
        <ele>217.60000610352</ele>
        <time>2023-05-31T06:13:19.000Z</time>
      </trkpt>
      <trkpt lat="45.9037" lon="5.19912">
        <ele>217.39999389648</ele>
        <time>2023-05-31T06:13:24.000Z</time>
      </trkpt>
      <trkpt lat="45.90382" lon="5.19895">
        <ele>217.19999694824</ele>
        <time>2023-05-31T06:13:26.000Z</time>
      </trkpt>
      <trkpt lat="45.90393" lon="5.19879">
        <ele>216.39999389648</ele>
        <time>2023-05-31T06:13:28.000Z</time>
      </trkpt>
      <trkpt lat="45.90412" lon="5.19853">
        <ele>216</ele>
        <time>2023-05-31T06:13:32.000Z</time>
      </trkpt>
      <trkpt lat="45.90429" lon="5.19827">
        <ele>216.80000305176</ele>
        <time>2023-05-31T06:13:37.000Z</time>
      </trkpt>
      <trkpt lat="45.90432" lon="5.19821">
        <ele>217.19999694824</ele>
        <time>2023-05-31T06:13:38.000Z</time>
      </trkpt>
      <trkpt lat="45.90434" lon="5.19815">
        <ele>217.60000610352</ele>
        <time>2023-05-31T06:13:39.000Z</time>
      </trkpt>
      <trkpt lat="45.9044" lon="5.19803">
        <ele>218.60000610352</ele>
        <time>2023-05-31T06:13:41.000Z</time>
      </trkpt>
      <trkpt lat="45.90443" lon="5.19798">
        <ele>218.60000610352</ele>
        <time>2023-05-31T06:13:42.000Z</time>
      </trkpt>
      <trkpt lat="45.90447" lon="5.19794">
        <ele>219</ele>
        <time>2023-05-31T06:13:43.000Z</time>
      </trkpt>
      <trkpt lat="45.90457" lon="5.19789">
        <ele>219.60000610352</ele>
        <time>2023-05-31T06:13:45.000Z</time>
      </trkpt>
      <trkpt lat="45.90461" lon="5.19788">
        <ele>219.80000305176</ele>
        <time>2023-05-31T06:13:46.000Z</time>
      </trkpt>
      <trkpt lat="45.90466" lon="5.19789">
        <ele>220</ele>
        <time>2023-05-31T06:13:47.000Z</time>
      </trkpt>
      <trkpt lat="45.90472" lon="5.19797">
        <ele>220.60000610352</ele>
        <time>2023-05-31T06:13:49.000Z</time>
      </trkpt>
      <trkpt lat="45.90474" lon="5.19803">
        <ele>221</ele>
        <time>2023-05-31T06:13:50.000Z</time>
      </trkpt>
      <trkpt lat="45.90475" lon="5.19809">
        <ele>221.19999694824</ele>
        <time>2023-05-31T06:13:51.000Z</time>
      </trkpt>
      <trkpt lat="45.90477" lon="5.19822">
        <ele>221.60000610352</ele>
        <time>2023-05-31T06:13:53.000Z</time>
      </trkpt>
      <trkpt lat="45.90478" lon="5.19839">
        <ele>222</ele>
        <time>2023-05-31T06:13:55.000Z</time>
      </trkpt>
      <trkpt lat="45.9048" lon="5.19873">
        <ele>222.60000610352</ele>
        <time>2023-05-31T06:13:59.000Z</time>
      </trkpt>
      <trkpt lat="45.90482" lon="5.19899">
        <ele>223.19999694824</ele>
        <time>2023-05-31T06:14:02.000Z</time>
      </trkpt>
      <trkpt lat="45.90484" lon="5.19952">
        <ele>223.39999389648</ele>
        <time>2023-05-31T06:14:08.000Z</time>
      </trkpt>
      <trkpt lat="45.90489" lon="5.20039">
        <ele>222.80000305176</ele>
        <time>2023-05-31T06:14:17.000Z</time>
      </trkpt>
      <trkpt lat="45.90492" lon="5.20088">
        <ele>222</ele>
        <time>2023-05-31T06:14:22.000Z</time>
      </trkpt>
      <trkpt lat="45.90494" lon="5.20101">
        <ele>221.60000610352</ele>
        <time>2023-05-31T06:14:23.000Z</time>
      </trkpt>
      <trkpt lat="45.90497" lon="5.20121">
        <ele>221.19999694824</ele>
        <time>2023-05-31T06:14:25.000Z</time>
      </trkpt>
      <trkpt lat="45.90501" lon="5.20141">
        <ele>220.80000305176</ele>
        <time>2023-05-31T06:14:27.000Z</time>
      </trkpt>
      <trkpt lat="45.90515" lon="5.202">
        <ele>220</ele>
        <time>2023-05-31T06:14:33.000Z</time>
      </trkpt>
      <trkpt lat="45.90531" lon="5.20236">
        <ele>219.80000305176</ele>
        <time>2023-05-31T06:14:37.000Z</time>
      </trkpt>
      <trkpt lat="45.90535" lon="5.20243">
        <ele>219.60000610352</ele>
        <time>2023-05-31T06:14:38.000Z</time>
      </trkpt>
      <trkpt lat="45.90559" lon="5.2029">
        <ele>219.60000610352</ele>
        <time>2023-05-31T06:14:44.000Z</time>
      </trkpt>
      <trkpt lat="45.90596" lon="5.20357">
        <ele>219.60000610352</ele>
        <time>2023-05-31T06:14:53.000Z</time>
      </trkpt>
      <trkpt lat="45.90599" lon="5.20364">
        <ele>219.60000610352</ele>
        <time>2023-05-31T06:14:54.000Z</time>
      </trkpt>
      <trkpt lat="45.90634" lon="5.20428">
        <ele>219.60000610352</ele>
        <time>2023-05-31T06:15:03.000Z</time>
      </trkpt>
      <trkpt lat="45.90669" lon="5.20497">
        <ele>219.39999389648</ele>
        <time>2023-05-31T06:15:12.000Z</time>
      </trkpt>
      <trkpt lat="45.90675" lon="5.20511">
        <ele>219.19999694824</ele>
        <time>2023-05-31T06:15:14.000Z</time>
      </trkpt>
      <trkpt lat="45.90704" lon="5.20583">
        <ele>219.19999694824</ele>
        <time>2023-05-31T06:15:23.000Z</time>
      </trkpt>
      <trkpt lat="45.90712" lon="5.20601">
        <ele>219.19999694824</ele>
        <time>2023-05-31T06:15:25.000Z</time>
      </trkpt>
      <trkpt lat="45.90741" lon="5.20677">
        <ele>218.80000305176</ele>
        <time>2023-05-31T06:15:34.000Z</time>
      </trkpt>
      <trkpt lat="45.90745" lon="5.20687">
        <ele>218.80000305176</ele>
        <time>2023-05-31T06:15:35.000Z</time>
      </trkpt>
      <trkpt lat="45.9075" lon="5.20705">
        <ele>218.80000305176</ele>
        <time>2023-05-31T06:15:37.000Z</time>
      </trkpt>
      <trkpt lat="45.9077" lon="5.20756">
        <ele>218.19999694824</ele>
        <time>2023-05-31T06:15:43.000Z</time>
      </trkpt>
      <trkpt lat="45.90799" lon="5.20829">
        <ele>218.80000305176</ele>
        <time>2023-05-31T06:15:52.000Z</time>
      </trkpt>
      <trkpt lat="45.90802" lon="5.20837">
        <ele>218.80000305176</ele>
        <time>2023-05-31T06:15:53.000Z</time>
      </trkpt>
      <trkpt lat="45.90828" lon="5.20905">
        <ele>219.39999389648</ele>
        <time>2023-05-31T06:16:02.000Z</time>
      </trkpt>
      <trkpt lat="45.90831" lon="5.20913">
        <ele>219.39999389648</ele>
        <time>2023-05-31T06:16:03.000Z</time>
      </trkpt>
      <trkpt lat="45.90846" lon="5.2095">
        <ele>219.80000305176</ele>
        <time>2023-05-31T06:16:08.000Z</time>
      </trkpt>
      <trkpt lat="45.90861" lon="5.20989">
        <ele>220</ele>
        <time>2023-05-31T06:16:13.000Z</time>
      </trkpt>
      <trkpt lat="45.90889" lon="5.2106">
        <ele>220.19999694824</ele>
        <time>2023-05-31T06:16:22.000Z</time>
      </trkpt>
      <trkpt lat="45.90893" lon="5.21068">
        <ele>220</ele>
        <time>2023-05-31T06:16:23.000Z</time>
      </trkpt>
      <trkpt lat="45.9092" lon="5.2114">
        <ele>220</ele>
        <time>2023-05-31T06:16:32.000Z</time>
      </trkpt>
      <trkpt lat="45.90926" lon="5.21155">
        <ele>220</ele>
        <time>2023-05-31T06:16:34.000Z</time>
      </trkpt>
      <trkpt lat="45.90954" lon="5.21226">
        <ele>220.19999694824</ele>
        <time>2023-05-31T06:16:43.000Z</time>
      </trkpt>
      <trkpt lat="45.90963" lon="5.21249">
        <ele>220.39999389648</ele>
        <time>2023-05-31T06:16:46.000Z</time>
      </trkpt>
      <trkpt lat="45.90981" lon="5.21294">
        <ele>220.80000305176</ele>
        <time>2023-05-31T06:16:52.000Z</time>
      </trkpt>
      <trkpt lat="45.90996" lon="5.21334">
        <ele>221.19999694824</ele>
        <time>2023-05-31T06:16:57.000Z</time>
      </trkpt>
      <trkpt lat="45.91022" lon="5.21401">
        <ele>221</ele>
        <time>2023-05-31T06:17:05.000Z</time>
      </trkpt>
      <trkpt lat="45.91032" lon="5.21426">
        <ele>220.60000610352</ele>
        <time>2023-05-31T06:17:08.000Z</time>
      </trkpt>
      <trkpt lat="45.91043" lon="5.21448">
        <ele>220.39999389648</ele>
        <time>2023-05-31T06:17:11.000Z</time>
      </trkpt>
      <trkpt lat="45.91072" lon="5.21483">
        <ele>220.19999694824</ele>
        <time>2023-05-31T06:17:17.000Z</time>
      </trkpt>
      <trkpt lat="45.91111" lon="5.21519">
        <ele>220</ele>
        <time>2023-05-31T06:17:24.000Z</time>
      </trkpt>
      <trkpt lat="45.91116" lon="5.21524">
        <ele>220</ele>
        <time>2023-05-31T06:17:25.000Z</time>
      </trkpt>
      <trkpt lat="45.91128" lon="5.21544">
        <ele>220.19999694824</ele>
        <time>2023-05-31T06:17:28.000Z</time>
      </trkpt>
      <trkpt lat="45.91133" lon="5.2156">
        <ele>220.19999694824</ele>
        <time>2023-05-31T06:17:30.000Z</time>
      </trkpt>
      <trkpt lat="45.91133" lon="5.21569">
        <ele>220.19999694824</ele>
        <time>2023-05-31T06:17:31.000Z</time>
      </trkpt>
      <trkpt lat="45.91131" lon="5.21577">
        <ele>220.19999694824</ele>
        <time>2023-05-31T06:17:32.000Z</time>
      </trkpt>
      <trkpt lat="45.91123" lon="5.2159">
        <ele>220.39999389648</ele>
        <time>2023-05-31T06:17:34.000Z</time>
      </trkpt>
      <trkpt lat="45.91111" lon="5.21597">
        <ele>220.60000610352</ele>
        <time>2023-05-31T06:17:36.000Z</time>
      </trkpt>
      <trkpt lat="45.91104" lon="5.21599">
        <ele>220.80000305176</ele>
        <time>2023-05-31T06:17:37.000Z</time>
      </trkpt>
      <trkpt lat="45.91098" lon="5.21599">
        <ele>220.80000305176</ele>
        <time>2023-05-31T06:17:38.000Z</time>
      </trkpt>
      <trkpt lat="45.91086" lon="5.21594">
        <ele>221.19999694824</ele>
        <time>2023-05-31T06:17:40.000Z</time>
      </trkpt>
      <trkpt lat="45.91077" lon="5.21582">
        <ele>221.39999389648</ele>
        <time>2023-05-31T06:17:42.000Z</time>
      </trkpt>
      <trkpt lat="45.91074" lon="5.21575">
        <ele>221.39999389648</ele>
        <time>2023-05-31T06:17:43.000Z</time>
      </trkpt>
      <trkpt lat="45.91071" lon="5.21567">
        <ele>221.80000305176</ele>
        <time>2023-05-31T06:17:44.000Z</time>
      </trkpt>
      <trkpt lat="45.91069" lon="5.21559">
        <ele>222</ele>
        <time>2023-05-31T06:17:45.000Z</time>
      </trkpt>
      <trkpt lat="45.91064" lon="5.21535">
        <ele>222.60000610352</ele>
        <time>2023-05-31T06:17:48.000Z</time>
      </trkpt>
      <trkpt lat="45.91062" lon="5.21528">
        <ele>223.19999694824</ele>
        <time>2023-05-31T06:17:49.000Z</time>
      </trkpt>
      <trkpt lat="45.91057" lon="5.21513">
        <ele>223.39999389648</ele>
        <time>2023-05-31T06:17:51.000Z</time>
      </trkpt>
      <trkpt lat="45.91051" lon="5.215">
        <ele>224</ele>
        <time>2023-05-31T06:17:53.000Z</time>
      </trkpt>
      <trkpt lat="45.91048" lon="5.21494">
        <ele>224.39999389648</ele>
        <time>2023-05-31T06:17:54.000Z</time>
      </trkpt>
      <trkpt lat="45.91044" lon="5.21489">
        <ele>224.60000610352</ele>
        <time>2023-05-31T06:17:55.000Z</time>
      </trkpt>
      <trkpt lat="45.91029" lon="5.21477">
        <ele>225.19999694824</ele>
        <time>2023-05-31T06:17:58.000Z</time>
      </trkpt>
      <trkpt lat="45.91018" lon="5.21472">
        <ele>225.39999389648</ele>
        <time>2023-05-31T06:18:00.000Z</time>
      </trkpt>
      <trkpt lat="45.90995" lon="5.21467">
        <ele>226.19999694824</ele>
        <time>2023-05-31T06:18:04.000Z</time>
      </trkpt>
      <trkpt lat="45.90971" lon="5.21463">
        <ele>226.60000610352</ele>
        <time>2023-05-31T06:18:08.000Z</time>
      </trkpt>
      <trkpt lat="45.90926" lon="5.21456">
        <ele>226.80000305176</ele>
        <time>2023-05-31T06:18:15.000Z</time>
      </trkpt>
      <trkpt lat="45.90885" lon="5.21456">
        <ele>226.19999694824</ele>
        <time>2023-05-31T06:18:21.000Z</time>
      </trkpt>
      <trkpt lat="45.90863" lon="5.21464">
        <ele>225.39999389648</ele>
        <time>2023-05-31T06:18:24.000Z</time>
      </trkpt>
      <trkpt lat="45.90855" lon="5.21468">
        <ele>225.19999694824</ele>
        <time>2023-05-31T06:18:25.000Z</time>
      </trkpt>
      <trkpt lat="45.90831" lon="5.21483">
        <ele>224.39999389648</ele>
        <time>2023-05-31T06:18:28.000Z</time>
      </trkpt>
      <trkpt lat="45.90805" lon="5.21498">
        <ele>222.80000305176</ele>
        <time>2023-05-31T06:18:31.000Z</time>
      </trkpt>
      <trkpt lat="45.90789" lon="5.21508">
        <ele>221.39999389648</ele>
        <time>2023-05-31T06:18:33.000Z</time>
      </trkpt>
      <trkpt lat="45.90765" lon="5.21522">
        <ele>220.39999389648</ele>
        <time>2023-05-31T06:18:36.000Z</time>
      </trkpt>
      <trkpt lat="45.90727" lon="5.21546">
        <ele>219.39999389648</ele>
        <time>2023-05-31T06:18:41.000Z</time>
      </trkpt>
      <trkpt lat="45.90673" lon="5.21574">
        <ele>218.39999389648</ele>
        <time>2023-05-31T06:18:48.000Z</time>
      </trkpt>
      <trkpt lat="45.90665" lon="5.21578">
        <ele>218.19999694824</ele>
        <time>2023-05-31T06:18:49.000Z</time>
      </trkpt>
      <trkpt lat="45.90614" lon="5.21593">
        <ele>217.19999694824</ele>
        <time>2023-05-31T06:18:56.000Z</time>
      </trkpt>
      <trkpt lat="45.90601" lon="5.21591">
        <ele>217.19999694824</ele>
        <time>2023-05-31T06:18:58.000Z</time>
      </trkpt>
      <trkpt lat="45.90595" lon="5.21588">
        <ele>217.19999694824</ele>
        <time>2023-05-31T06:18:59.000Z</time>
      </trkpt>
      <trkpt lat="45.90589" lon="5.21587">
        <ele>217</ele>
        <time>2023-05-31T06:19:00.000Z</time>
      </trkpt>
      <trkpt lat="45.90577" lon="5.21591">
        <ele>217</ele>
        <time>2023-05-31T06:19:02.000Z</time>
      </trkpt>
      <trkpt lat="45.9057" lon="5.21604">
        <ele>217</ele>
        <time>2023-05-31T06:19:04.000Z</time>
      </trkpt>
      <trkpt lat="45.90569" lon="5.21612">
        <ele>217</ele>
        <time>2023-05-31T06:19:05.000Z</time>
      </trkpt>
      <trkpt lat="45.9057" lon="5.2162">
        <ele>217</ele>
        <time>2023-05-31T06:19:06.000Z</time>
      </trkpt>
      <trkpt lat="45.90576" lon="5.21635">
        <ele>216.80000305176</ele>
        <time>2023-05-31T06:19:08.000Z</time>
      </trkpt>
      <trkpt lat="45.90582" lon="5.21652">
        <ele>216.80000305176</ele>
        <time>2023-05-31T06:19:10.000Z</time>
      </trkpt>
      <trkpt lat="45.90585" lon="5.21672">
        <ele>216.60000610352</ele>
        <time>2023-05-31T06:19:12.000Z</time>
      </trkpt>
      <trkpt lat="45.90591" lon="5.21742">
        <ele>216.80000305176</ele>
        <time>2023-05-31T06:19:19.000Z</time>
      </trkpt>
      <trkpt lat="45.90596" lon="5.21821">
        <ele>217.39999389648</ele>
        <time>2023-05-31T06:19:27.000Z</time>
      </trkpt>
      <trkpt lat="45.90598" lon="5.21841">
        <ele>217.39999389648</ele>
        <time>2023-05-31T06:19:29.000Z</time>
      </trkpt>
      <trkpt lat="45.90603" lon="5.21923">
        <ele>217.39999389648</ele>
        <time>2023-05-31T06:19:37.000Z</time>
      </trkpt>
      <trkpt lat="45.90605" lon="5.21954">
        <ele>217</ele>
        <time>2023-05-31T06:19:40.000Z</time>
      </trkpt>
      <trkpt lat="45.90608" lon="5.22013">
        <ele>216.80000305176</ele>
        <time>2023-05-31T06:19:46.000Z</time>
      </trkpt>
      <trkpt lat="45.90611" lon="5.22091">
        <ele>217</ele>
        <time>2023-05-31T06:19:54.000Z</time>
      </trkpt>
      <trkpt lat="45.90616" lon="5.22168">
        <ele>217.39999389648</ele>
        <time>2023-05-31T06:20:02.000Z</time>
      </trkpt>
      <trkpt lat="45.90617" lon="5.22177">
        <ele>217.39999389648</ele>
        <time>2023-05-31T06:20:03.000Z</time>
      </trkpt>
      <trkpt lat="45.90622" lon="5.22255">
        <ele>217.80000305176</ele>
        <time>2023-05-31T06:20:11.000Z</time>
      </trkpt>
      <trkpt lat="45.90629" lon="5.22338">
        <ele>218</ele>
        <time>2023-05-31T06:20:19.000Z</time>
      </trkpt>
      <trkpt lat="45.90631" lon="5.22359">
        <ele>218</ele>
        <time>2023-05-31T06:20:21.000Z</time>
      </trkpt>
      <trkpt lat="45.90636" lon="5.22455">
        <ele>218</ele>
        <time>2023-05-31T06:20:29.000Z</time>
      </trkpt>
      <trkpt lat="45.90639" lon="5.22498">
        <ele>218</ele>
        <time>2023-05-31T06:20:33.000Z</time>
      </trkpt>
      <trkpt lat="45.90643" lon="5.22574">
        <ele>217.80000305176</ele>
        <time>2023-05-31T06:20:40.000Z</time>
      </trkpt>
      <trkpt lat="45.90649" lon="5.22661">
        <ele>218</ele>
        <time>2023-05-31T06:20:48.000Z</time>
      </trkpt>
      <trkpt lat="45.90652" lon="5.22716">
        <ele>218.19999694824</ele>
        <time>2023-05-31T06:20:53.000Z</time>
      </trkpt>
      <trkpt lat="45.90653" lon="5.22727">
        <ele>218.19999694824</ele>
        <time>2023-05-31T06:20:54.000Z</time>
      </trkpt>
      <trkpt lat="45.90659" lon="5.22812">
        <ele>218.39999389648</ele>
        <time>2023-05-31T06:21:02.000Z</time>
      </trkpt>
      <trkpt lat="45.90661" lon="5.22834">
        <ele>218.39999389648</ele>
        <time>2023-05-31T06:21:04.000Z</time>
      </trkpt>
      <trkpt lat="45.90667" lon="5.22921">
        <ele>218.39999389648</ele>
        <time>2023-05-31T06:21:12.000Z</time>
      </trkpt>
      <trkpt lat="45.90668" lon="5.22943">
        <ele>218.39999389648</ele>
        <time>2023-05-31T06:21:14.000Z</time>
      </trkpt>
      <trkpt lat="45.90674" lon="5.23031">
        <ele>218.60000610352</ele>
        <time>2023-05-31T06:21:22.000Z</time>
      </trkpt>
      <trkpt lat="45.90675" lon="5.23051">
        <ele>218.39999389648</ele>
        <time>2023-05-31T06:21:24.000Z</time>
      </trkpt>
      <trkpt lat="45.90678" lon="5.23114">
        <ele>218.19999694824</ele>
        <time>2023-05-31T06:21:31.000Z</time>
      </trkpt>
      <trkpt lat="45.90683" lon="5.23198">
        <ele>218</ele>
        <time>2023-05-31T06:21:38.000Z</time>
      </trkpt>
      <trkpt lat="45.90684" lon="5.23207">
        <ele>218</ele>
        <time>2023-05-31T06:21:39.000Z</time>
      </trkpt>
      <trkpt lat="45.90687" lon="5.23264">
        <ele>217.80000305176</ele>
        <time>2023-05-31T06:21:45.000Z</time>
      </trkpt>
      <trkpt lat="45.90693" lon="5.23345">
        <ele>217.80000305176</ele>
        <time>2023-05-31T06:21:53.000Z</time>
      </trkpt>
      <trkpt lat="45.90694" lon="5.23355">
        <ele>217.80000305176</ele>
        <time>2023-05-31T06:21:54.000Z</time>
      </trkpt>
      <trkpt lat="45.90698" lon="5.23438">
        <ele>218</ele>
        <time>2023-05-31T06:22:02.000Z</time>
      </trkpt>
      <trkpt lat="45.907" lon="5.23469">
        <ele>218</ele>
        <time>2023-05-31T06:22:05.000Z</time>
      </trkpt>
      <trkpt lat="45.90702" lon="5.23522">
        <ele>218</ele>
        <time>2023-05-31T06:22:11.000Z</time>
      </trkpt>
      <trkpt lat="45.90703" lon="5.23571">
        <ele>218</ele>
        <time>2023-05-31T06:22:16.000Z</time>
      </trkpt>
      <trkpt lat="45.90709" lon="5.23659">
        <ele>218.60000610352</ele>
        <time>2023-05-31T06:22:25.000Z</time>
      </trkpt>
      <trkpt lat="45.9071" lon="5.23677">
        <ele>219.19999694824</ele>
        <time>2023-05-31T06:22:27.000Z</time>
      </trkpt>
      <trkpt lat="45.90712" lon="5.23716">
        <ele>220.39999389648</ele>
        <time>2023-05-31T06:22:31.000Z</time>
      </trkpt>
      <trkpt lat="45.90713" lon="5.23745">
        <ele>220.80000305176</ele>
        <time>2023-05-31T06:22:34.000Z</time>
      </trkpt>
      <trkpt lat="45.90716" lon="5.23783">
        <ele>221.60000610352</ele>
        <time>2023-05-31T06:22:38.000Z</time>
      </trkpt>
      <trkpt lat="45.90719" lon="5.23839">
        <ele>222.60000610352</ele>
        <time>2023-05-31T06:22:44.000Z</time>
      </trkpt>
      <trkpt lat="45.9072" lon="5.23848">
        <ele>222.80000305176</ele>
        <time>2023-05-31T06:22:45.000Z</time>
      </trkpt>
      <trkpt lat="45.90725" lon="5.23928">
        <ele>222.80000305176</ele>
        <time>2023-05-31T06:22:53.000Z</time>
      </trkpt>
      <trkpt lat="45.90726" lon="5.23938">
        <ele>222.80000305176</ele>
        <time>2023-05-31T06:22:54.000Z</time>
      </trkpt>
      <trkpt lat="45.90731" lon="5.24027">
        <ele>221.80000305176</ele>
        <time>2023-05-31T06:23:02.000Z</time>
      </trkpt>
      <trkpt lat="45.90732" lon="5.24049">
        <ele>221.60000610352</ele>
        <time>2023-05-31T06:23:04.000Z</time>
      </trkpt>
      <trkpt lat="45.90735" lon="5.24097">
        <ele>220.19999694824</ele>
        <time>2023-05-31T06:23:09.000Z</time>
      </trkpt>
      <trkpt lat="45.90738" lon="5.24126">
        <ele>219</ele>
        <time>2023-05-31T06:23:13.000Z</time>
      </trkpt>
      <trkpt lat="45.90738" lon="5.24131">
        <ele>218.80000305176</ele>
        <time>2023-05-31T06:23:14.000Z</time>
      </trkpt>
      <trkpt lat="45.90741" lon="5.24149">
        <ele>218</ele>
        <time>2023-05-31T06:23:18.000Z</time>
      </trkpt>
      <trkpt lat="45.90741" lon="5.24154">
        <ele>217.80000305176</ele>
        <time>2023-05-31T06:23:20.000Z</time>
      </trkpt>
      <trkpt lat="45.90741" lon="5.24154">
        <ele>217.39999389648</ele>
        <time>2023-05-31T06:23:22.000Z</time>
      </trkpt>
      <trkpt lat="45.90741" lon="5.24162">
        <ele>216.60000610352</ele>
        <time>2023-05-31T06:23:31.000Z</time>
      </trkpt>
      <trkpt lat="45.90737" lon="5.24176">
        <ele>216.39999389648</ele>
        <time>2023-05-31T06:23:34.000Z</time>
      </trkpt>
      <trkpt lat="45.90734" lon="5.2418">
        <ele>216.39999389648</ele>
        <time>2023-05-31T06:23:35.000Z</time>
      </trkpt>
      <trkpt lat="45.9073" lon="5.24184">
        <ele>216.39999389648</ele>
        <time>2023-05-31T06:23:36.000Z</time>
      </trkpt>
      <trkpt lat="45.90705" lon="5.24201">
        <ele>216</ele>
        <time>2023-05-31T06:23:41.000Z</time>
      </trkpt>
      <trkpt lat="45.90665" lon="5.24233">
        <ele>216</ele>
        <time>2023-05-31T06:23:49.000Z</time>
      </trkpt>
      <trkpt lat="45.90628" lon="5.24274">
        <ele>216.19999694824</ele>
        <time>2023-05-31T06:23:57.000Z</time>
      </trkpt>
      <trkpt lat="45.90584" lon="5.24327">
        <ele>216.39999389648</ele>
        <time>2023-05-31T06:24:07.000Z</time>
      </trkpt>
      <trkpt lat="45.90542" lon="5.24379">
        <ele>216.80000305176</ele>
        <time>2023-05-31T06:24:16.000Z</time>
      </trkpt>
      <trkpt lat="45.90533" lon="5.24391">
        <ele>216.60000610352</ele>
        <time>2023-05-31T06:24:18.000Z</time>
      </trkpt>
      <trkpt lat="45.90522" lon="5.24404">
        <ele>216.60000610352</ele>
        <time>2023-05-31T06:24:20.000Z</time>
      </trkpt>
      <trkpt lat="45.90503" lon="5.24427">
        <ele>216.60000610352</ele>
        <time>2023-05-31T06:24:24.000Z</time>
      </trkpt>
      <trkpt lat="45.90503" lon="5.24427">
        <ele>216.60000610352</ele>
        <time>2023-05-31T06:24:25.000Z</time>
      </trkpt>
      <trkpt lat="45.9047" lon="5.24469">
        <ele>216.60000610352</ele>
        <time>2023-05-31T06:24:30.000Z</time>
      </trkpt>
      <trkpt lat="45.90444" lon="5.24497">
        <ele>216.80000305176</ele>
        <time>2023-05-31T06:24:34.000Z</time>
      </trkpt>
      <trkpt lat="45.90438" lon="5.24504">
        <ele>216.80000305176</ele>
        <time>2023-05-31T06:24:35.000Z</time>
      </trkpt>
      <trkpt lat="45.90392" lon="5.24554">
        <ele>216.60000610352</ele>
        <time>2023-05-31T06:24:42.000Z</time>
      </trkpt>
      <trkpt lat="45.90386" lon="5.24561">
        <ele>216.39999389648</ele>
        <time>2023-05-31T06:24:43.000Z</time>
      </trkpt>
      <trkpt lat="45.90352" lon="5.24593">
        <ele>215.80000305176</ele>
        <time>2023-05-31T06:24:48.000Z</time>
      </trkpt>
      <trkpt lat="45.90324" lon="5.24618">
        <ele>215.19999694824</ele>
        <time>2023-05-31T06:24:52.000Z</time>
      </trkpt>
      <trkpt lat="45.90304" lon="5.24637">
        <ele>214.60000610352</ele>
        <time>2023-05-31T06:24:55.000Z</time>
      </trkpt>
      <trkpt lat="45.90259" lon="5.24684">
        <ele>214</ele>
        <time>2023-05-31T06:25:02.000Z</time>
      </trkpt>
      <trkpt lat="45.90213" lon="5.24733">
        <ele>214</ele>
        <time>2023-05-31T06:25:10.000Z</time>
      </trkpt>
      <trkpt lat="45.90169" lon="5.24783">
        <ele>215</ele>
        <time>2023-05-31T06:25:18.000Z</time>
      </trkpt>
      <trkpt lat="45.90132" lon="5.24823">
        <ele>215.80000305176</ele>
        <time>2023-05-31T06:25:25.000Z</time>
      </trkpt>
      <trkpt lat="45.90128" lon="5.24827">
        <ele>216</ele>
        <time>2023-05-31T06:25:26.000Z</time>
      </trkpt>
      <trkpt lat="45.90107" lon="5.24849">
        <ele>217</ele>
        <time>2023-05-31T06:25:31.000Z</time>
      </trkpt>
      <trkpt lat="45.90094" lon="5.24864">
        <ele>217.39999389648</ele>
        <time>2023-05-31T06:25:33.000Z</time>
      </trkpt>
      <trkpt lat="45.90078" lon="5.2488">
        <ele>218</ele>
        <time>2023-05-31T06:25:36.000Z</time>
      </trkpt>
      <trkpt lat="45.90039" lon="5.2492">
        <ele>219.19999694824</ele>
        <time>2023-05-31T06:25:44.000Z</time>
      </trkpt>
      <trkpt lat="45.90006" lon="5.24954">
        <ele>220.39999389648</ele>
        <time>2023-05-31T06:25:51.000Z</time>
      </trkpt>
      <trkpt lat="45.89998" lon="5.24961">
        <ele>220.80000305176</ele>
        <time>2023-05-31T06:25:53.000Z</time>
      </trkpt>
      <trkpt lat="45.89976" lon="5.24985">
        <ele>221.39999389648</ele>
        <time>2023-05-31T06:25:58.000Z</time>
      </trkpt>
      <trkpt lat="45.89967" lon="5.24995">
        <ele>221.80000305176</ele>
        <time>2023-05-31T06:26:00.000Z</time>
      </trkpt>
      <trkpt lat="45.8996" lon="5.25005">
        <ele>222.39999389648</ele>
        <time>2023-05-31T06:26:03.000Z</time>
      </trkpt>
      <trkpt lat="45.89942" lon="5.2503">
        <ele>223.19999694824</ele>
        <time>2023-05-31T06:26:07.000Z</time>
      </trkpt>
      <trkpt lat="45.8994" lon="5.25035">
        <ele>223.60000610352</ele>
        <time>2023-05-31T06:26:08.000Z</time>
      </trkpt>
      <trkpt lat="45.89927" lon="5.25055">
        <ele>224.80000305176</ele>
        <time>2023-05-31T06:26:12.000Z</time>
      </trkpt>
      <trkpt lat="45.89922" lon="5.25062">
        <ele>225</ele>
        <time>2023-05-31T06:26:14.000Z</time>
      </trkpt>
      <trkpt lat="45.89919" lon="5.25066">
        <ele>225.19999694824</ele>
        <time>2023-05-31T06:26:15.000Z</time>
      </trkpt>
      <trkpt lat="45.89914" lon="5.25074">
        <ele>226</ele>
        <time>2023-05-31T06:26:17.000Z</time>
      </trkpt>
      <trkpt lat="45.8991" lon="5.25082">
        <ele>226.80000305176</ele>
        <time>2023-05-31T06:26:19.000Z</time>
      </trkpt>
      <trkpt lat="45.89904" lon="5.25092">
        <ele>227.19999694824</ele>
        <time>2023-05-31T06:26:21.000Z</time>
      </trkpt>
      <trkpt lat="45.89896" lon="5.25107">
        <ele>228.39999389648</ele>
        <time>2023-05-31T06:26:25.000Z</time>
      </trkpt>
      <trkpt lat="45.89893" lon="5.25112">
        <ele>228.39999389648</ele>
        <time>2023-05-31T06:26:26.000Z</time>
      </trkpt>
      <trkpt lat="45.89886" lon="5.25122">
        <ele>229</ele>
        <time>2023-05-31T06:26:28.000Z</time>
      </trkpt>
      <trkpt lat="45.89883" lon="5.25127">
        <ele>229.39999389648</ele>
        <time>2023-05-31T06:26:29.000Z</time>
      </trkpt>
      <trkpt lat="45.8988" lon="5.25131">
        <ele>229.60000610352</ele>
        <time>2023-05-31T06:26:30.000Z</time>
      </trkpt>
      <trkpt lat="45.89861" lon="5.25158">
        <ele>230.39999389648</ele>
        <time>2023-05-31T06:26:35.000Z</time>
      </trkpt>
      <trkpt lat="45.89857" lon="5.25163">
        <ele>230.80000305176</ele>
        <time>2023-05-31T06:26:36.000Z</time>
      </trkpt>
      <trkpt lat="45.89846" lon="5.25175">
        <ele>231.80000305176</ele>
        <time>2023-05-31T06:26:39.000Z</time>
      </trkpt>
      <trkpt lat="45.89829" lon="5.2519">
        <ele>233</ele>
        <time>2023-05-31T06:26:43.000Z</time>
      </trkpt>
      <trkpt lat="45.89821" lon="5.25197">
        <ele>233.39999389648</ele>
        <time>2023-05-31T06:26:45.000Z</time>
      </trkpt>
      <trkpt lat="45.89809" lon="5.25204">
        <ele>234.19999694824</ele>
        <time>2023-05-31T06:26:48.000Z</time>
      </trkpt>
      <trkpt lat="45.89797" lon="5.25211">
        <ele>235.19999694824</ele>
        <time>2023-05-31T06:26:51.000Z</time>
      </trkpt>
      <trkpt lat="45.89779" lon="5.25218">
        <ele>236.39999389648</ele>
        <time>2023-05-31T06:26:55.000Z</time>
      </trkpt>
      <trkpt lat="45.89762" lon="5.25226">
        <ele>237.19999694824</ele>
        <time>2023-05-31T06:26:59.000Z</time>
      </trkpt>
      <trkpt lat="45.89748" lon="5.25231">
        <ele>237.60000610352</ele>
        <time>2023-05-31T06:27:02.000Z</time>
      </trkpt>
      <trkpt lat="45.89743" lon="5.25234">
        <ele>238.39999389648</ele>
        <time>2023-05-31T06:27:04.000Z</time>
      </trkpt>
      <trkpt lat="45.89734" lon="5.2524">
        <ele>238.60000610352</ele>
        <time>2023-05-31T06:27:05.000Z</time>
      </trkpt>
      <trkpt lat="45.89725" lon="5.25246">
        <ele>239.19999694824</ele>
        <time>2023-05-31T06:27:07.000Z</time>
      </trkpt>
      <trkpt lat="45.89722" lon="5.25248">
        <ele>239.39999389648</ele>
        <time>2023-05-31T06:27:08.000Z</time>
      </trkpt>
      <trkpt lat="45.89718" lon="5.25251">
        <ele>239.60000610352</ele>
        <time>2023-05-31T06:27:09.000Z</time>
      </trkpt>
      <trkpt lat="45.8971" lon="5.25258">
        <ele>240.19999694824</ele>
        <time>2023-05-31T06:27:11.000Z</time>
      </trkpt>
      <trkpt lat="45.89707" lon="5.25261">
        <ele>240.39999389648</ele>
        <time>2023-05-31T06:27:12.000Z</time>
      </trkpt>
      <trkpt lat="45.89684" lon="5.25284">
        <ele>241.60000610352</ele>
        <time>2023-05-31T06:27:18.000Z</time>
      </trkpt>
      <trkpt lat="45.8968" lon="5.25289">
        <ele>241.80000305176</ele>
        <time>2023-05-31T06:27:19.000Z</time>
      </trkpt>
      <trkpt lat="45.89675" lon="5.25292">
        <ele>242.19999694824</ele>
        <time>2023-05-31T06:27:20.000Z</time>
      </trkpt>
      <trkpt lat="45.89671" lon="5.25296">
        <ele>242.19999694824</ele>
        <time>2023-05-31T06:27:21.000Z</time>
      </trkpt>
      <trkpt lat="45.89665" lon="5.25303">
        <ele>242.39999389648</ele>
        <time>2023-05-31T06:27:23.000Z</time>
      </trkpt>
      <trkpt lat="45.89661" lon="5.25307">
        <ele>242.60000610352</ele>
        <time>2023-05-31T06:27:24.000Z</time>
      </trkpt>
      <trkpt lat="45.89655" lon="5.25312">
        <ele>242.80000305176</ele>
        <time>2023-05-31T06:27:25.000Z</time>
      </trkpt>
      <trkpt lat="45.89643" lon="5.25326">
        <ele>243.19999694824</ele>
        <time>2023-05-31T06:27:28.000Z</time>
      </trkpt>
      <trkpt lat="45.89627" lon="5.25343">
        <ele>243.80000305176</ele>
        <time>2023-05-31T06:27:31.000Z</time>
      </trkpt>
      <trkpt lat="45.89624" lon="5.25347">
        <ele>244</ele>
        <time>2023-05-31T06:27:32.000Z</time>
      </trkpt>
      <trkpt lat="45.89619" lon="5.25351">
        <ele>244</ele>
        <time>2023-05-31T06:27:34.000Z</time>
      </trkpt>
      <trkpt lat="45.89595" lon="5.25377">
        <ele>244</ele>
        <time>2023-05-31T06:27:38.000Z</time>
      </trkpt>
      <trkpt lat="45.89591" lon="5.25381">
        <ele>244</ele>
        <time>2023-05-31T06:27:39.000Z</time>
      </trkpt>
      <trkpt lat="45.89582" lon="5.25389">
        <ele>244</ele>
        <time>2023-05-31T06:27:40.000Z</time>
      </trkpt>
      <trkpt lat="45.89568" lon="5.254">
        <ele>244</ele>
        <time>2023-05-31T06:27:42.000Z</time>
      </trkpt>
      <trkpt lat="45.89561" lon="5.25404">
        <ele>244</ele>
        <time>2023-05-31T06:27:43.000Z</time>
      </trkpt>
      <trkpt lat="45.89554" lon="5.2541">
        <ele>244</ele>
        <time>2023-05-31T06:27:44.000Z</time>
      </trkpt>
      <trkpt lat="45.89533" lon="5.2543">
        <ele>243.39999389648</ele>
        <time>2023-05-31T06:27:48.000Z</time>
      </trkpt>
      <trkpt lat="45.89519" lon="5.2544">
        <ele>242.60000610352</ele>
        <time>2023-05-31T06:27:50.000Z</time>
      </trkpt>
      <trkpt lat="45.89493" lon="5.2546">
        <ele>241.60000610352</ele>
        <time>2023-05-31T06:27:54.000Z</time>
      </trkpt>
      <trkpt lat="45.89474" lon="5.25477">
        <ele>240.80000305176</ele>
        <time>2023-05-31T06:27:57.000Z</time>
      </trkpt>
      <trkpt lat="45.89467" lon="5.25482">
        <ele>240.39999389648</ele>
        <time>2023-05-31T06:27:58.000Z</time>
      </trkpt>
      <trkpt lat="45.89435" lon="5.25504">
        <ele>239.80000305176</ele>
        <time>2023-05-31T06:28:03.000Z</time>
      </trkpt>
      <trkpt lat="45.89391" lon="5.25521">
        <ele>239.80000305176</ele>
        <time>2023-05-31T06:28:10.000Z</time>
      </trkpt>
      <trkpt lat="45.89343" lon="5.25521">
        <ele>240.19999694824</ele>
        <time>2023-05-31T06:28:18.000Z</time>
      </trkpt>
      <trkpt lat="45.89294" lon="5.25519">
        <ele>240.60000610352</ele>
        <time>2023-05-31T06:28:26.000Z</time>
      </trkpt>
      <trkpt lat="45.89288" lon="5.2552">
        <ele>240.60000610352</ele>
        <time>2023-05-31T06:28:27.000Z</time>
      </trkpt>
      <trkpt lat="45.89278" lon="5.25524">
        <ele>241.39999389648</ele>
        <time>2023-05-31T06:28:29.000Z</time>
      </trkpt>
      <trkpt lat="45.89272" lon="5.2553">
        <ele>240.60000610352</ele>
        <time>2023-05-31T06:28:30.000Z</time>
      </trkpt>
      <trkpt lat="45.89268" lon="5.25536">
        <ele>240.39999389648</ele>
        <time>2023-05-31T06:28:31.000Z</time>
      </trkpt>
      <trkpt lat="45.89262" lon="5.25551">
        <ele>240.19999694824</ele>
        <time>2023-05-31T06:28:33.000Z</time>
      </trkpt>
      <trkpt lat="45.89259" lon="5.2556">
        <ele>240</ele>
        <time>2023-05-31T06:28:34.000Z</time>
      </trkpt>
      <trkpt lat="45.89249" lon="5.25588">
        <ele>239.39999389648</ele>
        <time>2023-05-31T06:28:37.000Z</time>
      </trkpt>
      <trkpt lat="45.89241" lon="5.25611">
        <ele>238.80000305176</ele>
        <time>2023-05-31T06:28:39.000Z</time>
      </trkpt>
      <trkpt lat="45.89234" lon="5.25633">
        <ele>238</ele>
        <time>2023-05-31T06:28:41.000Z</time>
      </trkpt>
      <trkpt lat="45.89225" lon="5.25664">
        <ele>236.80000305176</ele>
        <time>2023-05-31T06:28:44.000Z</time>
      </trkpt>
      <trkpt lat="45.89222" lon="5.25675">
        <ele>236.19999694824</ele>
        <time>2023-05-31T06:28:45.000Z</time>
      </trkpt>
      <trkpt lat="45.89218" lon="5.25689">
        <ele>235.60000610352</ele>
        <time>2023-05-31T06:28:46.000Z</time>
      </trkpt>
      <trkpt lat="45.89207" lon="5.25735">
        <ele>234.19999694824</ele>
        <time>2023-05-31T06:28:50.000Z</time>
      </trkpt>
      <trkpt lat="45.89196" lon="5.25779">
        <ele>233.19999694824</ele>
        <time>2023-05-31T06:28:54.000Z</time>
      </trkpt>
      <trkpt lat="45.8919" lon="5.25804">
        <ele>232.39999389648</ele>
        <time>2023-05-31T06:28:56.000Z</time>
      </trkpt>
      <trkpt lat="45.89186" lon="5.25824">
        <ele>231.80000305176</ele>
        <time>2023-05-31T06:28:58.000Z</time>
      </trkpt>
      <trkpt lat="45.89176" lon="5.25866">
        <ele>230.80000305176</ele>
        <time>2023-05-31T06:29:02.000Z</time>
      </trkpt>
      <trkpt lat="45.89174" lon="5.25876">
        <ele>230.60000610352</ele>
        <time>2023-05-31T06:29:03.000Z</time>
      </trkpt>
      <trkpt lat="45.89168" lon="5.25898">
        <ele>229.60000610352</ele>
        <time>2023-05-31T06:29:05.000Z</time>
      </trkpt>
      <trkpt lat="45.89153" lon="5.25959">
        <ele>229</ele>
        <time>2023-05-31T06:29:11.000Z</time>
      </trkpt>
      <trkpt lat="45.89139" lon="5.26017">
        <ele>228.39999389648</ele>
        <time>2023-05-31T06:29:17.000Z</time>
      </trkpt>
      <trkpt lat="45.89129" lon="5.26058">
        <ele>228.39999389648</ele>
        <time>2023-05-31T06:29:21.000Z</time>
      </trkpt>
      <trkpt lat="45.89113" lon="5.26134">
        <ele>228.60000610352</ele>
        <time>2023-05-31T06:29:29.000Z</time>
      </trkpt>
      <trkpt lat="45.89099" lon="5.2621">
        <ele>228.60000610352</ele>
        <time>2023-05-31T06:29:37.000Z</time>
      </trkpt>
      <trkpt lat="45.89093" lon="5.26242">
        <ele>228.39999389648</ele>
        <time>2023-05-31T06:29:40.000Z</time>
      </trkpt>
      <trkpt lat="45.89079" lon="5.26323">
        <ele>228</ele>
        <time>2023-05-31T06:29:48.000Z</time>
      </trkpt>
      <trkpt lat="45.89077" lon="5.26333">
        <ele>228</ele>
        <time>2023-05-31T06:29:49.000Z</time>
      </trkpt>
      <trkpt lat="45.89065" lon="5.26394">
        <ele>227.39999389648</ele>
        <time>2023-05-31T06:29:55.000Z</time>
      </trkpt>
      <trkpt lat="45.89054" lon="5.26458">
        <ele>226.60000610352</ele>
        <time>2023-05-31T06:30:01.000Z</time>
      </trkpt>
      <trkpt lat="45.89051" lon="5.26477">
        <ele>226.39999389648</ele>
        <time>2023-05-31T06:30:03.000Z</time>
      </trkpt>
      <trkpt lat="45.8904" lon="5.26543">
        <ele>225.39999389648</ele>
        <time>2023-05-31T06:30:09.000Z</time>
      </trkpt>
      <trkpt lat="45.89035" lon="5.26578">
        <ele>225</ele>
        <time>2023-05-31T06:30:12.000Z</time>
      </trkpt>
      <trkpt lat="45.89029" lon="5.26623">
        <ele>224</ele>
        <time>2023-05-31T06:30:16.000Z</time>
      </trkpt>
      <trkpt lat="45.89023" lon="5.26669">
        <ele>223.39999389648</ele>
        <time>2023-05-31T06:30:20.000Z</time>
      </trkpt>
      <trkpt lat="45.89021" lon="5.2668">
        <ele>223.19999694824</ele>
        <time>2023-05-31T06:30:21.000Z</time>
      </trkpt>
      <trkpt lat="45.89013" lon="5.2676">
        <ele>222.19999694824</ele>
        <time>2023-05-31T06:30:28.000Z</time>
      </trkpt>
      <trkpt lat="45.89014" lon="5.2684">
        <ele>221.19999694824</ele>
        <time>2023-05-31T06:30:35.000Z</time>
      </trkpt>
      <trkpt lat="45.89014" lon="5.26851">
        <ele>221.19999694824</ele>
        <time>2023-05-31T06:30:36.000Z</time>
      </trkpt>
      <trkpt lat="45.89018" lon="5.26931">
        <ele>221</ele>
        <time>2023-05-31T06:30:43.000Z</time>
      </trkpt>
      <trkpt lat="45.89018" lon="5.26939">
        <ele>221</ele>
        <time>2023-05-31T06:30:44.000Z</time>
      </trkpt>
      <trkpt lat="45.89023" lon="5.27023">
        <ele>221</ele>
        <time>2023-05-31T06:30:52.000Z</time>
      </trkpt>
      <trkpt lat="45.89024" lon="5.27043">
        <ele>221</ele>
        <time>2023-05-31T06:30:54.000Z</time>
      </trkpt>
      <trkpt lat="45.89032" lon="5.27124">
        <ele>221.19999694824</ele>
        <time>2023-05-31T06:31:02.000Z</time>
      </trkpt>
      <trkpt lat="45.89042" lon="5.27209">
        <ele>221.39999389648</ele>
        <time>2023-05-31T06:31:11.000Z</time>
      </trkpt>
      <trkpt lat="45.89043" lon="5.27218">
        <ele>221.80000305176</ele>
        <time>2023-05-31T06:31:12.000Z</time>
      </trkpt>
      <trkpt lat="45.8905" lon="5.27281">
        <ele>222.19999694824</ele>
        <time>2023-05-31T06:31:19.000Z</time>
      </trkpt>
      <trkpt lat="45.89053" lon="5.27308">
        <ele>222.39999389648</ele>
        <time>2023-05-31T06:31:22.000Z</time>
      </trkpt>
      <trkpt lat="45.89063" lon="5.27384">
        <ele>223</ele>
        <time>2023-05-31T06:31:31.000Z</time>
      </trkpt>
      <trkpt lat="45.89064" lon="5.27392">
        <ele>223.19999694824</ele>
        <time>2023-05-31T06:31:32.000Z</time>
      </trkpt>
      <trkpt lat="45.89065" lon="5.274">
        <ele>223.39999389648</ele>
        <time>2023-05-31T06:31:33.000Z</time>
      </trkpt>
      <trkpt lat="45.8907" lon="5.2744">
        <ele>224.39999389648</ele>
        <time>2023-05-31T06:31:38.000Z</time>
      </trkpt>
      <trkpt lat="45.89072" lon="5.27456">
        <ele>224.60000610352</ele>
        <time>2023-05-31T06:31:40.000Z</time>
      </trkpt>
      <trkpt lat="45.89078" lon="5.27504">
        <ele>225.39999389648</ele>
        <time>2023-05-31T06:31:46.000Z</time>
      </trkpt>
      <trkpt lat="45.8908" lon="5.27553">
        <ele>225.80000305176</ele>
        <time>2023-05-31T06:31:52.000Z</time>
      </trkpt>
      <trkpt lat="45.89073" lon="5.27624">
        <ele>226.19999694824</ele>
        <time>2023-05-31T06:32:00.000Z</time>
      </trkpt>
      <trkpt lat="45.89062" lon="5.27698">
        <ele>225.39999389648</ele>
        <time>2023-05-31T06:32:08.000Z</time>
      </trkpt>
      <trkpt lat="45.89056" lon="5.27724">
        <ele>225</ele>
        <time>2023-05-31T06:32:11.000Z</time>
      </trkpt>
      <trkpt lat="45.89047" lon="5.27749">
        <ele>224.60000610352</ele>
        <time>2023-05-31T06:32:14.000Z</time>
      </trkpt>
      <trkpt lat="45.89044" lon="5.27755">
        <ele>224.60000610352</ele>
        <time>2023-05-31T06:32:15.000Z</time>
      </trkpt>
      <trkpt lat="45.89033" lon="5.27763">
        <ele>224.39999389648</ele>
        <time>2023-05-31T06:32:17.000Z</time>
      </trkpt>
      <trkpt lat="45.89013" lon="5.27765">
        <ele>224.19999694824</ele>
        <time>2023-05-31T06:32:20.000Z</time>
      </trkpt>
      <trkpt lat="45.89" lon="5.27764">
        <ele>224</ele>
        <time>2023-05-31T06:32:22.000Z</time>
      </trkpt>
      <trkpt lat="45.88947" lon="5.27767">
        <ele>224</ele>
        <time>2023-05-31T06:32:31.000Z</time>
      </trkpt>
      <trkpt lat="45.88929" lon="5.27772">
        <ele>224</ele>
        <time>2023-05-31T06:32:34.000Z</time>
      </trkpt>
      <trkpt lat="45.8892" lon="5.27781">
        <ele>224</ele>
        <time>2023-05-31T06:32:36.000Z</time>
      </trkpt>
      <trkpt lat="45.88913" lon="5.27791">
        <ele>224</ele>
        <time>2023-05-31T06:32:38.000Z</time>
      </trkpt>
      <trkpt lat="45.8891" lon="5.27804">
        <ele>224.19999694824</ele>
        <time>2023-05-31T06:32:40.000Z</time>
      </trkpt>
      <trkpt lat="45.88909" lon="5.27836">
        <ele>224.19999694824</ele>
        <time>2023-05-31T06:32:44.000Z</time>
      </trkpt>
      <trkpt lat="45.889" lon="5.27866">
        <ele>223.60000610352</ele>
        <time>2023-05-31T06:32:48.000Z</time>
      </trkpt>
      <trkpt lat="45.88894" lon="5.27882">
        <ele>223.19999694824</ele>
        <time>2023-05-31T06:32:50.000Z</time>
      </trkpt>
      <trkpt lat="45.8889" lon="5.2789">
        <ele>223</ele>
        <time>2023-05-31T06:32:51.000Z</time>
      </trkpt>
      <trkpt lat="45.88881" lon="5.27911">
        <ele>222.60000610352</ele>
        <time>2023-05-31T06:32:54.000Z</time>
      </trkpt>
      <trkpt lat="45.8886" lon="5.27956">
        <ele>222</ele>
        <time>2023-05-31T06:33:00.000Z</time>
      </trkpt>
      <trkpt lat="45.88852" lon="5.27968">
        <ele>222</ele>
        <time>2023-05-31T06:33:02.000Z</time>
      </trkpt>
      <trkpt lat="45.88843" lon="5.2798">
        <ele>222</ele>
        <time>2023-05-31T06:33:04.000Z</time>
      </trkpt>
      <trkpt lat="45.88814" lon="5.28017">
        <ele>221.60000610352</ele>
        <time>2023-05-31T06:33:10.000Z</time>
      </trkpt>
      <trkpt lat="45.88774" lon="5.28066">
        <ele>221.60000610352</ele>
        <time>2023-05-31T06:33:18.000Z</time>
      </trkpt>
      <trkpt lat="45.88732" lon="5.28126">
        <ele>221</ele>
        <time>2023-05-31T06:33:27.000Z</time>
      </trkpt>
      <trkpt lat="45.88727" lon="5.28134">
        <ele>220.80000305176</ele>
        <time>2023-05-31T06:33:28.000Z</time>
      </trkpt>
      <trkpt lat="45.88701" lon="5.28185">
        <ele>220.39999389648</ele>
        <time>2023-05-31T06:33:35.000Z</time>
      </trkpt>
      <trkpt lat="45.88669" lon="5.28253">
        <ele>219.80000305176</ele>
        <time>2023-05-31T06:33:42.000Z</time>
      </trkpt>
      <trkpt lat="45.88661" lon="5.28269">
        <ele>219.60000610352</ele>
        <time>2023-05-31T06:33:44.000Z</time>
      </trkpt>
      <trkpt lat="45.88631" lon="5.28336">
        <ele>219.39999389648</ele>
        <time>2023-05-31T06:33:52.000Z</time>
      </trkpt>
      <trkpt lat="45.88627" lon="5.28344">
        <ele>219.39999389648</ele>
        <time>2023-05-31T06:33:53.000Z</time>
      </trkpt>
      <trkpt lat="45.88612" lon="5.28399">
        <ele>218.80000305176</ele>
        <time>2023-05-31T06:33:59.000Z</time>
      </trkpt>
      <trkpt lat="45.8861" lon="5.28409">
        <ele>218.80000305176</ele>
        <time>2023-05-31T06:34:00.000Z</time>
      </trkpt>
      <trkpt lat="45.88609" lon="5.28429">
        <ele>218.60000610352</ele>
        <time>2023-05-31T06:34:02.000Z</time>
      </trkpt>
      <trkpt lat="45.88608" lon="5.28449">
        <ele>218.39999389648</ele>
        <time>2023-05-31T06:34:04.000Z</time>
      </trkpt>
      <trkpt lat="45.88605" lon="5.28489">
        <ele>217.60000610352</ele>
        <time>2023-05-31T06:34:08.000Z</time>
      </trkpt>
      <trkpt lat="45.88602" lon="5.2855">
        <ele>217</ele>
        <time>2023-05-31T06:34:14.000Z</time>
      </trkpt>
      <trkpt lat="45.88597" lon="5.28629">
        <ele>216.60000610352</ele>
        <time>2023-05-31T06:34:22.000Z</time>
      </trkpt>
      <trkpt lat="45.88594" lon="5.28666">
        <ele>216.80000305176</ele>
        <time>2023-05-31T06:34:26.000Z</time>
      </trkpt>
      <trkpt lat="45.88592" lon="5.28695">
        <ele>217</ele>
        <time>2023-05-31T06:34:29.000Z</time>
      </trkpt>
      <trkpt lat="45.88586" lon="5.28731">
        <ele>217.19999694824</ele>
        <time>2023-05-31T06:34:33.000Z</time>
      </trkpt>
      <trkpt lat="45.88568" lon="5.28804">
        <ele>217.39999389648</ele>
        <time>2023-05-31T06:34:41.000Z</time>
      </trkpt>
      <trkpt lat="45.88557" lon="5.2885">
        <ele>217.39999389648</ele>
        <time>2023-05-31T06:34:46.000Z</time>
      </trkpt>
      <trkpt lat="45.88536" lon="5.2893">
        <ele>217.19999694824</ele>
        <time>2023-05-31T06:34:55.000Z</time>
      </trkpt>
      <trkpt lat="45.88527" lon="5.28965">
        <ele>217.19999694824</ele>
        <time>2023-05-31T06:34:59.000Z</time>
      </trkpt>
      <trkpt lat="45.88509" lon="5.29046">
        <ele>217.19999694824</ele>
        <time>2023-05-31T06:35:08.000Z</time>
      </trkpt>
      <trkpt lat="45.88497" lon="5.29093">
        <ele>217</ele>
        <time>2023-05-31T06:35:13.000Z</time>
      </trkpt>
      <trkpt lat="45.88481" lon="5.29159">
        <ele>216.39999389648</ele>
        <time>2023-05-31T06:35:20.000Z</time>
      </trkpt>
      <trkpt lat="45.88466" lon="5.29215">
        <ele>216.39999389648</ele>
        <time>2023-05-31T06:35:26.000Z</time>
      </trkpt>
      <trkpt lat="45.88447" lon="5.29297">
        <ele>216.39999389648</ele>
        <time>2023-05-31T06:35:35.000Z</time>
      </trkpt>
      <trkpt lat="45.8844" lon="5.29326">
        <ele>216.39999389648</ele>
        <time>2023-05-31T06:35:38.000Z</time>
      </trkpt>
      <trkpt lat="45.88422" lon="5.29401">
        <ele>216.39999389648</ele>
        <time>2023-05-31T06:35:46.000Z</time>
      </trkpt>
      <trkpt lat="45.88403" lon="5.29475">
        <ele>216</ele>
        <time>2023-05-31T06:35:54.000Z</time>
      </trkpt>
      <trkpt lat="45.88394" lon="5.29516">
        <ele>215.60000610352</ele>
        <time>2023-05-31T06:35:58.000Z</time>
      </trkpt>
      <trkpt lat="45.88389" lon="5.29535">
        <ele>215.39999389648</ele>
        <time>2023-05-31T06:36:00.000Z</time>
      </trkpt>
      <trkpt lat="45.88369" lon="5.29615">
        <ele>215</ele>
        <time>2023-05-31T06:36:08.000Z</time>
      </trkpt>
      <trkpt lat="45.88362" lon="5.29644">
        <ele>214.80000305176</ele>
        <time>2023-05-31T06:36:11.000Z</time>
      </trkpt>
      <trkpt lat="45.88343" lon="5.29719">
        <ele>214.60000610352</ele>
        <time>2023-05-31T06:36:19.000Z</time>
      </trkpt>
      <trkpt lat="45.88336" lon="5.29747">
        <ele>214.60000610352</ele>
        <time>2023-05-31T06:36:22.000Z</time>
      </trkpt>
      <trkpt lat="45.88317" lon="5.29823">
        <ele>214.60000610352</ele>
        <time>2023-05-31T06:36:30.000Z</time>
      </trkpt>
      <trkpt lat="45.88306" lon="5.29869">
        <ele>214.80000305176</ele>
        <time>2023-05-31T06:36:35.000Z</time>
      </trkpt>
      <trkpt lat="45.88287" lon="5.29944">
        <ele>214.80000305176</ele>
        <time>2023-05-31T06:36:43.000Z</time>
      </trkpt>
      <trkpt lat="45.88282" lon="5.29962">
        <ele>214.80000305176</ele>
        <time>2023-05-31T06:36:45.000Z</time>
      </trkpt>
      <trkpt lat="45.88263" lon="5.30034">
        <ele>214.80000305176</ele>
        <time>2023-05-31T06:36:53.000Z</time>
      </trkpt>
      <trkpt lat="45.88244" lon="5.30108">
        <ele>214.80000305176</ele>
        <time>2023-05-31T06:37:01.000Z</time>
      </trkpt>
      <trkpt lat="45.88242" lon="5.30117">
        <ele>214.80000305176</ele>
        <time>2023-05-31T06:37:02.000Z</time>
      </trkpt>
      <trkpt lat="45.88225" lon="5.3018">
        <ele>214.39999389648</ele>
        <time>2023-05-31T06:37:09.000Z</time>
      </trkpt>
      <trkpt lat="45.88208" lon="5.3026">
        <ele>214</ele>
        <time>2023-05-31T06:37:17.000Z</time>
      </trkpt>
      <trkpt lat="45.88191" lon="5.30337">
        <ele>213.60000610352</ele>
        <time>2023-05-31T06:37:25.000Z</time>
      </trkpt>
      <trkpt lat="45.88185" lon="5.30364">
        <ele>213.60000610352</ele>
        <time>2023-05-31T06:37:28.000Z</time>
      </trkpt>
      <trkpt lat="45.8817" lon="5.30422">
        <ele>213.19999694824</ele>
        <time>2023-05-31T06:37:34.000Z</time>
      </trkpt>
      <trkpt lat="45.88161" lon="5.3046">
        <ele>213</ele>
        <time>2023-05-31T06:37:38.000Z</time>
      </trkpt>
      <trkpt lat="45.88141" lon="5.30539">
        <ele>212.80000305176</ele>
        <time>2023-05-31T06:37:46.000Z</time>
      </trkpt>
      <trkpt lat="45.88139" lon="5.30548">
        <ele>212.80000305176</ele>
        <time>2023-05-31T06:37:47.000Z</time>
      </trkpt>
      <trkpt lat="45.88121" lon="5.30623">
        <ele>212.39999389648</ele>
        <time>2023-05-31T06:37:55.000Z</time>
      </trkpt>
      <trkpt lat="45.88115" lon="5.30645">
        <ele>212.39999389648</ele>
        <time>2023-05-31T06:37:57.000Z</time>
      </trkpt>
      <trkpt lat="45.88106" lon="5.30681">
        <ele>212.19999694824</ele>
        <time>2023-05-31T06:38:01.000Z</time>
      </trkpt>
      <trkpt lat="45.88098" lon="5.30708">
        <ele>212</ele>
        <time>2023-05-31T06:38:04.000Z</time>
      </trkpt>
      <trkpt lat="45.88078" lon="5.3079">
        <ele>211.19999694824</ele>
        <time>2023-05-31T06:38:12.000Z</time>
      </trkpt>
      <trkpt lat="45.88077" lon="5.30798">
        <ele>211.19999694824</ele>
        <time>2023-05-31T06:38:13.000Z</time>
      </trkpt>
      <trkpt lat="45.88075" lon="5.30809">
        <ele>211</ele>
        <time>2023-05-31T06:38:14.000Z</time>
      </trkpt>
      <trkpt lat="45.88069" lon="5.30895">
        <ele>210.60000610352</ele>
        <time>2023-05-31T06:38:22.000Z</time>
      </trkpt>
      <trkpt lat="45.88068" lon="5.30906">
        <ele>210.39999389648</ele>
        <time>2023-05-31T06:38:23.000Z</time>
      </trkpt>
      <trkpt lat="45.88064" lon="5.3099">
        <ele>210</ele>
        <time>2023-05-31T06:38:31.000Z</time>
      </trkpt>
      <trkpt lat="45.88064" lon="5.31">
        <ele>210</ele>
        <time>2023-05-31T06:38:32.000Z</time>
      </trkpt>
      <trkpt lat="45.8806" lon="5.31082">
        <ele>209.60000610352</ele>
        <time>2023-05-31T06:38:40.000Z</time>
      </trkpt>
      <trkpt lat="45.88059" lon="5.31133">
        <ele>209.60000610352</ele>
        <time>2023-05-31T06:38:45.000Z</time>
      </trkpt>
      <trkpt lat="45.88062" lon="5.31211">
        <ele>210</ele>
        <time>2023-05-31T06:38:53.000Z</time>
      </trkpt>
      <trkpt lat="45.88074" lon="5.31277">
        <ele>210</ele>
        <time>2023-05-31T06:39:00.000Z</time>
      </trkpt>
      <trkpt lat="45.88092" lon="5.31332">
        <ele>210.19999694824</ele>
        <time>2023-05-31T06:39:06.000Z</time>
      </trkpt>
      <trkpt lat="45.88116" lon="5.31403">
        <ele>210.60000610352</ele>
        <time>2023-05-31T06:39:14.000Z</time>
      </trkpt>
      <trkpt lat="45.88123" lon="5.31421">
        <ele>210.60000610352</ele>
        <time>2023-05-31T06:39:16.000Z</time>
      </trkpt>
      <trkpt lat="45.88149" lon="5.31488">
        <ele>210.60000610352</ele>
        <time>2023-05-31T06:39:24.000Z</time>
      </trkpt>
      <trkpt lat="45.88157" lon="5.31506">
        <ele>210.60000610352</ele>
        <time>2023-05-31T06:39:26.000Z</time>
      </trkpt>
      <trkpt lat="45.8819" lon="5.31578">
        <ele>210.60000610352</ele>
        <time>2023-05-31T06:39:35.000Z</time>
      </trkpt>
      <trkpt lat="45.88198" lon="5.31594">
        <ele>210.60000610352</ele>
        <time>2023-05-31T06:39:37.000Z</time>
      </trkpt>
      <trkpt lat="45.88227" lon="5.31642">
        <ele>210.80000305176</ele>
        <time>2023-05-31T06:39:44.000Z</time>
      </trkpt>
      <trkpt lat="45.88267" lon="5.317">
        <ele>210.80000305176</ele>
        <time>2023-05-31T06:39:53.000Z</time>
      </trkpt>
      <trkpt lat="45.88309" lon="5.31758">
        <ele>211</ele>
        <time>2023-05-31T06:40:02.000Z</time>
      </trkpt>
      <trkpt lat="45.88336" lon="5.31796">
        <ele>211.19999694824</ele>
        <time>2023-05-31T06:40:08.000Z</time>
      </trkpt>
      <trkpt lat="45.8836" lon="5.31829">
        <ele>211.39999389648</ele>
        <time>2023-05-31T06:40:13.000Z</time>
      </trkpt>
      <trkpt lat="45.88364" lon="5.31837">
        <ele>211.60000610352</ele>
        <time>2023-05-31T06:40:14.000Z</time>
      </trkpt>
      <trkpt lat="45.88368" lon="5.31844">
        <ele>211.60000610352</ele>
        <time>2023-05-31T06:40:15.000Z</time>
      </trkpt>
      <trkpt lat="45.88375" lon="5.3187">
        <ele>212</ele>
        <time>2023-05-31T06:40:18.000Z</time>
      </trkpt>
      <trkpt lat="45.88376" lon="5.31878">
        <ele>212.19999694824</ele>
        <time>2023-05-31T06:40:19.000Z</time>
      </trkpt>
      <trkpt lat="45.88389" lon="5.31931">
        <ele>213.19999694824</ele>
        <time>2023-05-31T06:40:25.000Z</time>
      </trkpt>
      <trkpt lat="45.8839" lon="5.31939">
        <ele>213.39999389648</ele>
        <time>2023-05-31T06:40:26.000Z</time>
      </trkpt>
      <trkpt lat="45.88403" lon="5.31988">
        <ele>213.60000610352</ele>
        <time>2023-05-31T06:40:31.000Z</time>
      </trkpt>
      <trkpt lat="45.88427" lon="5.32047">
        <ele>212.80000305176</ele>
        <time>2023-05-31T06:40:37.000Z</time>
      </trkpt>
      <trkpt lat="45.88444" lon="5.32085">
        <ele>212.39999389648</ele>
        <time>2023-05-31T06:40:41.000Z</time>
      </trkpt>
      <trkpt lat="45.8846" lon="5.32121">
        <ele>212</ele>
        <time>2023-05-31T06:40:45.000Z</time>
      </trkpt>
      <trkpt lat="45.88493" lon="5.32192">
        <ele>211.80000305176</ele>
        <time>2023-05-31T06:40:53.000Z</time>
      </trkpt>
      <trkpt lat="45.88523" lon="5.32259">
        <ele>211.80000305176</ele>
        <time>2023-05-31T06:41:01.000Z</time>
      </trkpt>
      <trkpt lat="45.88527" lon="5.3227">
        <ele>211.80000305176</ele>
        <time>2023-05-31T06:41:02.000Z</time>
      </trkpt>
      <trkpt lat="45.88552" lon="5.32339">
        <ele>212.60000610352</ele>
        <time>2023-05-31T06:41:10.000Z</time>
      </trkpt>
      <trkpt lat="45.88578" lon="5.32414">
        <ele>213.19999694824</ele>
        <time>2023-05-31T06:41:18.000Z</time>
      </trkpt>
      <trkpt lat="45.88608" lon="5.32479">
        <ele>213.39999389648</ele>
        <time>2023-05-31T06:41:25.000Z</time>
      </trkpt>
      <trkpt lat="45.88613" lon="5.32488">
        <ele>213.39999389648</ele>
        <time>2023-05-31T06:41:26.000Z</time>
      </trkpt>
      <trkpt lat="45.88621" lon="5.32504">
        <ele>213.39999389648</ele>
        <time>2023-05-31T06:41:28.000Z</time>
      </trkpt>
      <trkpt lat="45.88652" lon="5.32567">
        <ele>213.39999389648</ele>
        <time>2023-05-31T06:41:35.000Z</time>
      </trkpt>
      <trkpt lat="45.88682" lon="5.3264">
        <ele>213</ele>
        <time>2023-05-31T06:41:43.000Z</time>
      </trkpt>
      <trkpt lat="45.88693" lon="5.32669">
        <ele>212.80000305176</ele>
        <time>2023-05-31T06:41:46.000Z</time>
      </trkpt>
      <trkpt lat="45.88723" lon="5.32738">
        <ele>212.80000305176</ele>
        <time>2023-05-31T06:41:54.000Z</time>
      </trkpt>
      <trkpt lat="45.88731" lon="5.32755">
        <ele>213</ele>
        <time>2023-05-31T06:41:56.000Z</time>
      </trkpt>
      <trkpt lat="45.88762" lon="5.32807">
        <ele>213</ele>
        <time>2023-05-31T06:42:03.000Z</time>
      </trkpt>
      <trkpt lat="45.88808" lon="5.32859">
        <ele>212.39999389648</ele>
        <time>2023-05-31T06:42:11.000Z</time>
      </trkpt>
      <trkpt lat="45.88827" lon="5.32879">
        <ele>212.19999694824</ele>
        <time>2023-05-31T06:42:14.000Z</time>
      </trkpt>
      <trkpt lat="45.88834" lon="5.32894">
        <ele>212.19999694824</ele>
        <time>2023-05-31T06:42:16.000Z</time>
      </trkpt>
      <trkpt lat="45.88837" lon="5.32914">
        <ele>212.19999694824</ele>
        <time>2023-05-31T06:42:18.000Z</time>
      </trkpt>
      <trkpt lat="45.88837" lon="5.32926">
        <ele>212</ele>
        <time>2023-05-31T06:42:19.000Z</time>
      </trkpt>
      <trkpt lat="45.88835" lon="5.32944">
        <ele>212</ele>
        <time>2023-05-31T06:42:21.000Z</time>
      </trkpt>
      <trkpt lat="45.8883" lon="5.32974">
        <ele>212</ele>
        <time>2023-05-31T06:42:24.000Z</time>
      </trkpt>
      <trkpt lat="45.88829" lon="5.33016">
        <ele>212.39999389648</ele>
        <time>2023-05-31T06:42:29.000Z</time>
      </trkpt>
      <trkpt lat="45.88833" lon="5.33072">
        <ele>213.39999389648</ele>
        <time>2023-05-31T06:42:36.000Z</time>
      </trkpt>
      <trkpt lat="45.88841" lon="5.3311">
        <ele>214.60000610352</ele>
        <time>2023-05-31T06:42:41.000Z</time>
      </trkpt>
      <trkpt lat="45.88849" lon="5.33139">
        <ele>215.39999389648</ele>
        <time>2023-05-31T06:42:45.000Z</time>
      </trkpt>
      <trkpt lat="45.88855" lon="5.33163">
        <ele>215.80000305176</ele>
        <time>2023-05-31T06:42:48.000Z</time>
      </trkpt>
      <trkpt lat="45.88868" lon="5.33215">
        <ele>216.39999389648</ele>
        <time>2023-05-31T06:42:55.000Z</time>
      </trkpt>
      <trkpt lat="45.88881" lon="5.33264">
        <ele>216.80000305176</ele>
        <time>2023-05-31T06:43:01.000Z</time>
      </trkpt>
      <trkpt lat="45.88885" lon="5.33287">
        <ele>217</ele>
        <time>2023-05-31T06:43:04.000Z</time>
      </trkpt>
      <trkpt lat="45.88885" lon="5.33329">
        <ele>217.39999389648</ele>
        <time>2023-05-31T06:43:09.000Z</time>
      </trkpt>
      <trkpt lat="45.88881" lon="5.3335">
        <ele>217.80000305176</ele>
        <time>2023-05-31T06:43:12.000Z</time>
      </trkpt>
      <trkpt lat="45.88879" lon="5.33357">
        <ele>217.80000305176</ele>
        <time>2023-05-31T06:43:13.000Z</time>
      </trkpt>
      <trkpt lat="45.88876" lon="5.33365">
        <ele>218</ele>
        <time>2023-05-31T06:43:14.000Z</time>
      </trkpt>
      <trkpt lat="45.88869" lon="5.33383">
        <ele>218.80000305176</ele>
        <time>2023-05-31T06:43:17.000Z</time>
      </trkpt>
      <trkpt lat="45.88856" lon="5.33411">
        <ele>220</ele>
        <time>2023-05-31T06:43:21.000Z</time>
      </trkpt>
      <trkpt lat="45.88836" lon="5.33446">
        <ele>220.19999694824</ele>
        <time>2023-05-31T06:43:26.000Z</time>
      </trkpt>
      <trkpt lat="45.88807" lon="5.33496">
        <ele>219.60000610352</ele>
        <time>2023-05-31T06:43:33.000Z</time>
      </trkpt>
      <trkpt lat="45.88781" lon="5.33544">
        <ele>219</ele>
        <time>2023-05-31T06:43:39.000Z</time>
      </trkpt>
      <trkpt lat="45.88773" lon="5.3356">
        <ele>218.80000305176</ele>
        <time>2023-05-31T06:43:42.000Z</time>
      </trkpt>
      <trkpt lat="45.88751" lon="5.33622">
        <ele>218.39999389648</ele>
        <time>2023-05-31T06:43:48.000Z</time>
      </trkpt>
      <trkpt lat="45.8874" lon="5.33671">
        <ele>218.19999694824</ele>
        <time>2023-05-31T06:43:53.000Z</time>
      </trkpt>
      <trkpt lat="45.88736" lon="5.33683">
        <ele>217.80000305176</ele>
        <time>2023-05-31T06:43:55.000Z</time>
      </trkpt>
      <trkpt lat="45.88718" lon="5.33724">
        <ele>217</ele>
        <time>2023-05-31T06:43:58.000Z</time>
      </trkpt>
      <trkpt lat="45.88718" lon="5.33724">
        <ele>216.39999389648</ele>
        <time>2023-05-31T06:43:59.000Z</time>
      </trkpt>
      <trkpt lat="45.88708" lon="5.33743">
        <ele>216.19999694824</ele>
        <time>2023-05-31T06:44:00.000Z</time>
      </trkpt>
      <trkpt lat="45.88702" lon="5.33753">
        <ele>215.39999389648</ele>
        <time>2023-05-31T06:44:02.000Z</time>
      </trkpt>
      <trkpt lat="45.88681" lon="5.33792">
        <ele>214.19999694824</ele>
        <time>2023-05-31T06:44:05.000Z</time>
      </trkpt>
      <trkpt lat="45.88672" lon="5.3381">
        <ele>213.80000305176</ele>
        <time>2023-05-31T06:44:07.000Z</time>
      </trkpt>
      <trkpt lat="45.88672" lon="5.3381">
        <ele>213.39999389648</ele>
        <time>2023-05-31T06:44:08.000Z</time>
      </trkpt>
      <trkpt lat="45.88668" lon="5.33823">
        <ele>213</ele>
        <time>2023-05-31T06:44:09.000Z</time>
      </trkpt>
      <trkpt lat="45.88656" lon="5.33853">
        <ele>212.60000610352</ele>
        <time>2023-05-31T06:44:12.000Z</time>
      </trkpt>
      <trkpt lat="45.88641" lon="5.33893">
        <ele>212</ele>
        <time>2023-05-31T06:44:16.000Z</time>
      </trkpt>
      <trkpt lat="45.88637" lon="5.33903">
        <ele>211.80000305176</ele>
        <time>2023-05-31T06:44:17.000Z</time>
      </trkpt>
      <trkpt lat="45.8861" lon="5.33979">
        <ele>211</ele>
        <time>2023-05-31T06:44:24.000Z</time>
      </trkpt>
      <trkpt lat="45.88605" lon="5.33991">
        <ele>210.60000610352</ele>
        <time>2023-05-31T06:44:25.000Z</time>
      </trkpt>
      <trkpt lat="45.88599" lon="5.34008">
        <ele>210</ele>
        <time>2023-05-31T06:44:28.000Z</time>
      </trkpt>
      <trkpt lat="45.88584" lon="5.34048">
        <ele>209.60000610352</ele>
        <time>2023-05-31T06:44:32.000Z</time>
      </trkpt>
      <trkpt lat="45.8856" lon="5.34114">
        <ele>209.19999694824</ele>
        <time>2023-05-31T06:44:38.000Z</time>
      </trkpt>
      <trkpt lat="45.88547" lon="5.34174">
        <ele>208.39999389648</ele>
        <time>2023-05-31T06:44:44.000Z</time>
      </trkpt>
      <trkpt lat="45.88545" lon="5.34184">
        <ele>208</ele>
        <time>2023-05-31T06:44:45.000Z</time>
      </trkpt>
      <trkpt lat="45.88537" lon="5.34227">
        <ele>207.19999694824</ele>
        <time>2023-05-31T06:44:49.000Z</time>
      </trkpt>
      <trkpt lat="45.88532" lon="5.34269">
        <ele>206.39999389648</ele>
        <time>2023-05-31T06:44:53.000Z</time>
      </trkpt>
      <trkpt lat="45.88531" lon="5.3428">
        <ele>206</ele>
        <time>2023-05-31T06:44:54.000Z</time>
      </trkpt>
      <trkpt lat="45.88524" lon="5.34334">
        <ele>205</ele>
        <time>2023-05-31T06:44:59.000Z</time>
      </trkpt>
      <trkpt lat="45.88518" lon="5.34389">
        <ele>204.39999389648</ele>
        <time>2023-05-31T06:45:04.000Z</time>
      </trkpt>
      <trkpt lat="45.88515" lon="5.34409">
        <ele>204</ele>
        <time>2023-05-31T06:45:06.000Z</time>
      </trkpt>
      <trkpt lat="45.88511" lon="5.34421">
        <ele>203.80000305176</ele>
        <time>2023-05-31T06:45:07.000Z</time>
      </trkpt>
      <trkpt lat="45.88507" lon="5.3443">
        <ele>203.80000305176</ele>
        <time>2023-05-31T06:45:08.000Z</time>
      </trkpt>
      <trkpt lat="45.88503" lon="5.34436">
        <ele>203.60000610352</ele>
        <time>2023-05-31T06:45:09.000Z</time>
      </trkpt>
      <trkpt lat="45.88485" lon="5.34455">
        <ele>203</ele>
        <time>2023-05-31T06:45:12.000Z</time>
      </trkpt>
      <trkpt lat="45.88458" lon="5.34479">
        <ele>201.80000305176</ele>
        <time>2023-05-31T06:45:16.000Z</time>
      </trkpt>
      <trkpt lat="45.88434" lon="5.345">
        <ele>201.19999694824</ele>
        <time>2023-05-31T06:45:20.000Z</time>
      </trkpt>
      <trkpt lat="45.88413" lon="5.34519">
        <ele>200.60000610352</ele>
        <time>2023-05-31T06:45:25.000Z</time>
      </trkpt>
      <trkpt lat="45.8841" lon="5.34522">
        <ele>200.60000610352</ele>
        <time>2023-05-31T06:45:28.000Z</time>
      </trkpt>
      <trkpt lat="45.8841" lon="5.34522">
        <ele>200.60000610352</ele>
        <time>2023-05-31T06:45:29.000Z</time>
      </trkpt>
      <trkpt lat="45.88406" lon="5.34527">
        <ele>200.60000610352</ele>
        <time>2023-05-31T06:45:34.000Z</time>
      </trkpt>
      <trkpt lat="45.88405" lon="5.34531">
        <ele>200.60000610352</ele>
        <time>2023-05-31T06:45:35.000Z</time>
      </trkpt>
      <trkpt lat="45.88405" lon="5.34536">
        <ele>200.60000610352</ele>
        <time>2023-05-31T06:45:36.000Z</time>
      </trkpt>
      <trkpt lat="45.88409" lon="5.34548">
        <ele>200.60000610352</ele>
        <time>2023-05-31T06:45:38.000Z</time>
      </trkpt>
      <trkpt lat="45.88426" lon="5.34586">
        <ele>200.80000305176</ele>
        <time>2023-05-31T06:45:43.000Z</time>
      </trkpt>
      <trkpt lat="45.88452" lon="5.34637">
        <ele>201</ele>
        <time>2023-05-31T06:45:49.000Z</time>
      </trkpt>
      <trkpt lat="45.88468" lon="5.34671">
        <ele>201.19999694824</ele>
        <time>2023-05-31T06:45:53.000Z</time>
      </trkpt>
      <trkpt lat="45.8847" lon="5.34681">
        <ele>201.19999694824</ele>
        <time>2023-05-31T06:45:54.000Z</time>
      </trkpt>
      <trkpt lat="45.8847" lon="5.34691">
        <ele>201.39999389648</ele>
        <time>2023-05-31T06:45:55.000Z</time>
      </trkpt>
      <trkpt lat="45.88468" lon="5.34711">
        <ele>201.39999389648</ele>
        <time>2023-05-31T06:45:57.000Z</time>
      </trkpt>
      <trkpt lat="45.88468" lon="5.34721">
        <ele>201.39999389648</ele>
        <time>2023-05-31T06:45:58.000Z</time>
      </trkpt>
      <trkpt lat="45.88472" lon="5.3474">
        <ele>201.60000610352</ele>
        <time>2023-05-31T06:46:00.000Z</time>
      </trkpt>
      <trkpt lat="45.88482" lon="5.34756">
        <ele>201.60000610352</ele>
        <time>2023-05-31T06:46:02.000Z</time>
      </trkpt>
      <trkpt lat="45.88487" lon="5.34764">
        <ele>201.60000610352</ele>
        <time>2023-05-31T06:46:03.000Z</time>
      </trkpt>
      <trkpt lat="45.88491" lon="5.34774">
        <ele>201.60000610352</ele>
        <time>2023-05-31T06:46:04.000Z</time>
      </trkpt>
      <trkpt lat="45.88495" lon="5.34795">
        <ele>201.60000610352</ele>
        <time>2023-05-31T06:46:06.000Z</time>
      </trkpt>
      <trkpt lat="45.88501" lon="5.34878">
        <ele>201.19999694824</ele>
        <time>2023-05-31T06:46:13.000Z</time>
      </trkpt>
      <trkpt lat="45.88501" lon="5.34889">
        <ele>201</ele>
        <time>2023-05-31T06:46:14.000Z</time>
      </trkpt>
      <trkpt lat="45.88504" lon="5.34975">
        <ele>200.19999694824</ele>
        <time>2023-05-31T06:46:22.000Z</time>
      </trkpt>
      <trkpt lat="45.88506" lon="5.34986">
        <ele>200.19999694824</ele>
        <time>2023-05-31T06:46:23.000Z</time>
      </trkpt>
      <trkpt lat="45.88507" lon="5.35005">
        <ele>200</ele>
        <time>2023-05-31T06:46:25.000Z</time>
      </trkpt>
      <trkpt lat="45.88517" lon="5.35067">
        <ele>199.60000610352</ele>
        <time>2023-05-31T06:46:31.000Z</time>
      </trkpt>
      <trkpt lat="45.88531" lon="5.3512">
        <ele>198.60000610352</ele>
        <time>2023-05-31T06:46:36.000Z</time>
      </trkpt>
      <trkpt lat="45.88535" lon="5.35132">
        <ele>198.39999389648</ele>
        <time>2023-05-31T06:46:37.000Z</time>
      </trkpt>
      <trkpt lat="45.88538" lon="5.35142">
        <ele>198.19999694824</ele>
        <time>2023-05-31T06:46:38.000Z</time>
      </trkpt>
      <trkpt lat="45.88546" lon="5.3517">
        <ele>197.80000305176</ele>
        <time>2023-05-31T06:46:41.000Z</time>
      </trkpt>
      <trkpt lat="45.88552" lon="5.35191">
        <ele>197.39999389648</ele>
        <time>2023-05-31T06:46:43.000Z</time>
      </trkpt>
      <trkpt lat="45.88566" lon="5.35233">
        <ele>197</ele>
        <time>2023-05-31T06:46:48.000Z</time>
      </trkpt>
      <trkpt lat="45.88575" lon="5.35268">
        <ele>196.80000305176</ele>
        <time>2023-05-31T06:46:53.000Z</time>
      </trkpt>
      <trkpt lat="45.88574" lon="5.35274">
        <ele>196.80000305176</ele>
        <time>2023-05-31T06:46:54.000Z</time>
      </trkpt>
      <trkpt lat="45.88568" lon="5.35281">
        <ele>196.80000305176</ele>
        <time>2023-05-31T06:46:56.000Z</time>
      </trkpt>
      <trkpt lat="45.88562" lon="5.35291">
        <ele>196.80000305176</ele>
        <time>2023-05-31T06:46:58.000Z</time>
      </trkpt>
      <trkpt lat="45.88558" lon="5.35295">
        <ele>196.80000305176</ele>
        <time>2023-05-31T06:47:01.000Z</time>
      </trkpt>
      <trkpt lat="45.88558" lon="5.35295">
        <ele>196.80000305176</ele>
        <time>2023-05-31T06:47:03.000Z</time>
      </trkpt>
      <trkpt lat="45.88556" lon="5.35304">
        <ele>196.19999694824</ele>
        <time>2023-05-31T06:51:53.000Z</time>
      </trkpt>
      <trkpt lat="45.88555" lon="5.35308">
        <ele>196.19999694824</ele>
        <time>2023-05-31T06:51:54.000Z</time>
      </trkpt>
      <trkpt lat="45.88547" lon="5.35332">
        <ele>196.19999694824</ele>
        <time>2023-05-31T06:51:59.000Z</time>
      </trkpt>
      <trkpt lat="45.88532" lon="5.35365">
        <ele>196.80000305176</ele>
        <time>2023-05-31T06:52:05.000Z</time>
      </trkpt>
      <trkpt lat="45.88508" lon="5.35406">
        <ele>197.19999694824</ele>
        <time>2023-05-31T06:52:13.000Z</time>
      </trkpt>
      <trkpt lat="45.88504" lon="5.35411">
        <ele>197.39999389648</ele>
        <time>2023-05-31T06:52:14.000Z</time>
      </trkpt>
      <trkpt lat="45.88501" lon="5.35416">
        <ele>197.39999389648</ele>
        <time>2023-05-31T06:52:15.000Z</time>
      </trkpt>
      <trkpt lat="45.88483" lon="5.35432">
        <ele>197.39999389648</ele>
        <time>2023-05-31T06:52:19.000Z</time>
      </trkpt>
      <trkpt lat="45.88478" lon="5.35436">
        <ele>197.19999694824</ele>
        <time>2023-05-31T06:52:20.000Z</time>
      </trkpt>
      <trkpt lat="45.8846" lon="5.3546">
        <ele>197</ele>
        <time>2023-05-31T06:52:24.000Z</time>
      </trkpt>
      <trkpt lat="45.88425" lon="5.35508">
        <ele>196.60000610352</ele>
        <time>2023-05-31T06:52:32.000Z</time>
      </trkpt>
      <trkpt lat="45.88417" lon="5.35516">
        <ele>196.60000610352</ele>
        <time>2023-05-31T06:52:34.000Z</time>
      </trkpt>
      <trkpt lat="45.88404" lon="5.35527">
        <ele>196.60000610352</ele>
        <time>2023-05-31T06:52:37.000Z</time>
      </trkpt>
      <trkpt lat="45.88367" lon="5.35562">
        <ele>196.60000610352</ele>
        <time>2023-05-31T06:52:45.000Z</time>
      </trkpt>
      <trkpt lat="45.88357" lon="5.35572">
        <ele>196.60000610352</ele>
        <time>2023-05-31T06:52:47.000Z</time>
      </trkpt>
      <trkpt lat="45.88336" lon="5.35596">
        <ele>196.39999389648</ele>
        <time>2023-05-31T06:52:52.000Z</time>
      </trkpt>
      <trkpt lat="45.88318" lon="5.35619">
        <ele>196.19999694824</ele>
        <time>2023-05-31T06:52:56.000Z</time>
      </trkpt>
      <trkpt lat="45.88302" lon="5.35643">
        <ele>196.19999694824</ele>
        <time>2023-05-31T06:53:00.000Z</time>
      </trkpt>
      <trkpt lat="45.88263" lon="5.35706">
        <ele>196</ele>
        <time>2023-05-31T06:53:10.000Z</time>
      </trkpt>
      <trkpt lat="45.88259" lon="5.35712">
        <ele>196</ele>
        <time>2023-05-31T06:53:11.000Z</time>
      </trkpt>
      <trkpt lat="45.88244" lon="5.35734">
        <ele>196</ele>
        <time>2023-05-31T06:53:15.000Z</time>
      </trkpt>
      <trkpt lat="45.88234" lon="5.35752">
        <ele>196.19999694824</ele>
        <time>2023-05-31T06:53:18.000Z</time>
      </trkpt>
      <trkpt lat="45.88217" lon="5.35792">
        <ele>196.39999389648</ele>
        <time>2023-05-31T06:53:24.000Z</time>
      </trkpt>
      <trkpt lat="45.88215" lon="5.35799">
        <ele>196.39999389648</ele>
        <time>2023-05-31T06:53:25.000Z</time>
      </trkpt>
      <trkpt lat="45.88198" lon="5.35845">
        <ele>196.60000610352</ele>
        <time>2023-05-31T06:53:31.000Z</time>
      </trkpt>
      <trkpt lat="45.8818" lon="5.35911">
        <ele>196.80000305176</ele>
        <time>2023-05-31T06:53:40.000Z</time>
      </trkpt>
      <trkpt lat="45.88172" lon="5.35939">
        <ele>197</ele>
        <time>2023-05-31T06:53:44.000Z</time>
      </trkpt>
      <trkpt lat="45.88165" lon="5.35953">
        <ele>197.19999694824</ele>
        <time>2023-05-31T06:53:46.000Z</time>
      </trkpt>
      <trkpt lat="45.88134" lon="5.36025">
        <ele>196.80000305176</ele>
        <time>2023-05-31T06:53:56.000Z</time>
      </trkpt>
      <trkpt lat="45.88131" lon="5.36033">
        <ele>196.80000305176</ele>
        <time>2023-05-31T06:53:57.000Z</time>
      </trkpt>
      <trkpt lat="45.88112" lon="5.36092">
        <ele>196.39999389648</ele>
        <time>2023-05-31T06:54:05.000Z</time>
      </trkpt>
      <trkpt lat="45.88089" lon="5.36168">
        <ele>196.39999389648</ele>
        <time>2023-05-31T06:54:15.000Z</time>
      </trkpt>
      <trkpt lat="45.88081" lon="5.3619">
        <ele>196.39999389648</ele>
        <time>2023-05-31T06:54:18.000Z</time>
      </trkpt>
      <trkpt lat="45.88057" lon="5.36257">
        <ele>196.19999694824</ele>
        <time>2023-05-31T06:54:27.000Z</time>
      </trkpt>
      <trkpt lat="45.88026" lon="5.36317">
        <ele>196.19999694824</ele>
        <time>2023-05-31T06:54:36.000Z</time>
      </trkpt>
      <trkpt lat="45.87993" lon="5.36374">
        <ele>196.19999694824</ele>
        <time>2023-05-31T06:54:45.000Z</time>
      </trkpt>
      <trkpt lat="45.87955" lon="5.36438">
        <ele>196.39999389648</ele>
        <time>2023-05-31T06:54:55.000Z</time>
      </trkpt>
      <trkpt lat="45.87915" lon="5.36491">
        <ele>196.39999389648</ele>
        <time>2023-05-31T06:55:04.000Z</time>
      </trkpt>
      <trkpt lat="45.87877" lon="5.36533">
        <ele>196.39999389648</ele>
        <time>2023-05-31T06:55:12.000Z</time>
      </trkpt>
      <trkpt lat="45.87863" lon="5.36548">
        <ele>196.19999694824</ele>
        <time>2023-05-31T06:55:15.000Z</time>
      </trkpt>
      <trkpt lat="45.8782" lon="5.36598">
        <ele>196.19999694824</ele>
        <time>2023-05-31T06:55:24.000Z</time>
      </trkpt>
      <trkpt lat="45.87782" lon="5.36651">
        <ele>196.39999389648</ele>
        <time>2023-05-31T06:55:33.000Z</time>
      </trkpt>
      <trkpt lat="45.87758" lon="5.367">
        <ele>196.60000610352</ele>
        <time>2023-05-31T06:55:40.000Z</time>
      </trkpt>
      <trkpt lat="45.87728" lon="5.36766">
        <ele>196.60000610352</ele>
        <time>2023-05-31T06:55:49.000Z</time>
      </trkpt>
      <trkpt lat="45.87701" lon="5.36833">
        <ele>196.60000610352</ele>
        <time>2023-05-31T06:55:58.000Z</time>
      </trkpt>
      <trkpt lat="45.87699" lon="5.36841">
        <ele>196.60000610352</ele>
        <time>2023-05-31T06:55:59.000Z</time>
      </trkpt>
      <trkpt lat="45.87677" lon="5.36914">
        <ele>196.60000610352</ele>
        <time>2023-05-31T06:56:08.000Z</time>
      </trkpt>
      <trkpt lat="45.87664" lon="5.36981">
        <ele>196.39999389648</ele>
        <time>2023-05-31T06:56:16.000Z</time>
      </trkpt>
      <trkpt lat="45.87656" lon="5.37016">
        <ele>196.39999389648</ele>
        <time>2023-05-31T06:56:20.000Z</time>
      </trkpt>
      <trkpt lat="45.87651" lon="5.37032">
        <ele>196.39999389648</ele>
        <time>2023-05-31T06:56:22.000Z</time>
      </trkpt>
      <trkpt lat="45.8763" lon="5.37073">
        <ele>196.39999389648</ele>
        <time>2023-05-31T06:56:28.000Z</time>
      </trkpt>
      <trkpt lat="45.87619" lon="5.37093">
        <ele>196.39999389648</ele>
        <time>2023-05-31T06:56:31.000Z</time>
      </trkpt>
      <trkpt lat="45.87602" lon="5.37117">
        <ele>196.60000610352</ele>
        <time>2023-05-31T06:56:35.000Z</time>
      </trkpt>
      <trkpt lat="45.87564" lon="5.37165">
        <ele>196.80000305176</ele>
        <time>2023-05-31T06:56:44.000Z</time>
      </trkpt>
      <trkpt lat="45.87531" lon="5.3721">
        <ele>197</ele>
        <time>2023-05-31T06:56:52.000Z</time>
      </trkpt>
      <trkpt lat="45.87494" lon="5.37266">
        <ele>196.80000305176</ele>
        <time>2023-05-31T06:57:01.000Z</time>
      </trkpt>
      <trkpt lat="45.87461" lon="5.37313">
        <ele>197</ele>
        <time>2023-05-31T06:57:09.000Z</time>
      </trkpt>
      <trkpt lat="45.87433" lon="5.37351">
        <ele>197</ele>
        <time>2023-05-31T06:57:15.000Z</time>
      </trkpt>
      <trkpt lat="45.8741" lon="5.3739">
        <ele>196.80000305176</ele>
        <time>2023-05-31T06:57:21.000Z</time>
      </trkpt>
      <trkpt lat="45.87397" lon="5.37413">
        <ele>196.80000305176</ele>
        <time>2023-05-31T06:57:24.000Z</time>
      </trkpt>
      <trkpt lat="45.87388" lon="5.37425">
        <ele>196.80000305176</ele>
        <time>2023-05-31T06:57:26.000Z</time>
      </trkpt>
      <trkpt lat="45.87368" lon="5.3745">
        <ele>196.80000305176</ele>
        <time>2023-05-31T06:57:30.000Z</time>
      </trkpt>
      <trkpt lat="45.87327" lon="5.375">
        <ele>196.60000610352</ele>
        <time>2023-05-31T06:57:39.000Z</time>
      </trkpt>
      <trkpt lat="45.87299" lon="5.37537">
        <ele>196.60000610352</ele>
        <time>2023-05-31T06:57:45.000Z</time>
      </trkpt>
      <trkpt lat="45.87263" lon="5.37585">
        <ele>196.60000610352</ele>
        <time>2023-05-31T06:57:53.000Z</time>
      </trkpt>
      <trkpt lat="45.87221" lon="5.37625">
        <ele>196.60000610352</ele>
        <time>2023-05-31T06:58:01.000Z</time>
      </trkpt>
      <trkpt lat="45.87198" lon="5.37654">
        <ele>196.60000610352</ele>
        <time>2023-05-31T06:58:06.000Z</time>
      </trkpt>
      <trkpt lat="45.87189" lon="5.37667">
        <ele>196.60000610352</ele>
        <time>2023-05-31T06:58:08.000Z</time>
      </trkpt>
      <trkpt lat="45.87171" lon="5.37699">
        <ele>196.39999389648</ele>
        <time>2023-05-31T06:58:13.000Z</time>
      </trkpt>
      <trkpt lat="45.87144" lon="5.37739">
        <ele>196.80000305176</ele>
        <time>2023-05-31T06:58:19.000Z</time>
      </trkpt>
      <trkpt lat="45.87113" lon="5.3779">
        <ele>196.60000610352</ele>
        <time>2023-05-31T06:58:27.000Z</time>
      </trkpt>
      <trkpt lat="45.87076" lon="5.37852">
        <ele>196.60000610352</ele>
        <time>2023-05-31T06:58:36.000Z</time>
      </trkpt>
      <trkpt lat="45.87072" lon="5.37858">
        <ele>196.80000305176</ele>
        <time>2023-05-31T06:58:37.000Z</time>
      </trkpt>
      <trkpt lat="45.87041" lon="5.37913">
        <ele>196.80000305176</ele>
        <time>2023-05-31T06:58:45.000Z</time>
      </trkpt>
      <trkpt lat="45.87039" lon="5.37919">
        <ele>196.80000305176</ele>
        <time>2023-05-31T06:58:46.000Z</time>
      </trkpt>
      <trkpt lat="45.87036" lon="5.37929">
        <ele>196.80000305176</ele>
        <time>2023-05-31T06:58:47.000Z</time>
      </trkpt>
      <trkpt lat="45.87029" lon="5.37963">
        <ele>197</ele>
        <time>2023-05-31T06:58:51.000Z</time>
      </trkpt>
      <trkpt lat="45.87027" lon="5.37969">
        <ele>197</ele>
        <time>2023-05-31T06:58:52.000Z</time>
      </trkpt>
      <trkpt lat="45.87015" lon="5.37999">
        <ele>197.19999694824</ele>
        <time>2023-05-31T06:58:56.000Z</time>
      </trkpt>
      <trkpt lat="45.87006" lon="5.38022">
        <ele>197.39999389648</ele>
        <time>2023-05-31T06:58:59.000Z</time>
      </trkpt>
      <trkpt lat="45.86993" lon="5.38064">
        <ele>197.39999389648</ele>
        <time>2023-05-31T06:59:04.000Z</time>
      </trkpt>
      <trkpt lat="45.86985" lon="5.38087">
        <ele>197.39999389648</ele>
        <time>2023-05-31T06:59:07.000Z</time>
      </trkpt>
      <trkpt lat="45.86959" lon="5.38156">
        <ele>197.39999389648</ele>
        <time>2023-05-31T06:59:16.000Z</time>
      </trkpt>
      <trkpt lat="45.8693" lon="5.38223">
        <ele>197.80000305176</ele>
        <time>2023-05-31T06:59:25.000Z</time>
      </trkpt>
      <trkpt lat="45.869" lon="5.3829">
        <ele>197.60000610352</ele>
        <time>2023-05-31T06:59:34.000Z</time>
      </trkpt>
      <trkpt lat="45.86894" lon="5.38304">
        <ele>197.60000610352</ele>
        <time>2023-05-31T06:59:36.000Z</time>
      </trkpt>
      <trkpt lat="45.86869" lon="5.38346">
        <ele>197.80000305176</ele>
        <time>2023-05-31T06:59:42.000Z</time>
      </trkpt>
      <trkpt lat="45.8686" lon="5.38357">
        <ele>198</ele>
        <time>2023-05-31T06:59:44.000Z</time>
      </trkpt>
      <trkpt lat="45.8685" lon="5.38368">
        <ele>198</ele>
        <time>2023-05-31T06:59:46.000Z</time>
      </trkpt>
      <trkpt lat="45.86806" lon="5.38403">
        <ele>197.60000610352</ele>
        <time>2023-05-31T06:59:54.000Z</time>
      </trkpt>
      <trkpt lat="45.86755" lon="5.38436">
        <ele>197.39999389648</ele>
        <time>2023-05-31T07:00:03.000Z</time>
      </trkpt>
      <trkpt lat="45.8675" lon="5.3844">
        <ele>197.39999389648</ele>
        <time>2023-05-31T07:00:04.000Z</time>
      </trkpt>
      <trkpt lat="45.86699" lon="5.38471">
        <ele>197.19999694824</ele>
        <time>2023-05-31T07:00:13.000Z</time>
      </trkpt>
      <trkpt lat="45.86687" lon="5.38481">
        <ele>197.19999694824</ele>
        <time>2023-05-31T07:00:15.000Z</time>
      </trkpt>
      <trkpt lat="45.86679" lon="5.3849">
        <ele>197.39999389648</ele>
        <time>2023-05-31T07:00:17.000Z</time>
      </trkpt>
      <trkpt lat="45.8666" lon="5.38513">
        <ele>197.39999389648</ele>
        <time>2023-05-31T07:00:21.000Z</time>
      </trkpt>
      <trkpt lat="45.86655" lon="5.38519">
        <ele>197.39999389648</ele>
        <time>2023-05-31T07:00:22.000Z</time>
      </trkpt>
      <trkpt lat="45.86639" lon="5.38545">
        <ele>197.39999389648</ele>
        <time>2023-05-31T07:00:26.000Z</time>
      </trkpt>
      <trkpt lat="45.8662" lon="5.38589">
        <ele>197.39999389648</ele>
        <time>2023-05-31T07:00:32.000Z</time>
      </trkpt>
      <trkpt lat="45.86617" lon="5.38597">
        <ele>197.39999389648</ele>
        <time>2023-05-31T07:00:33.000Z</time>
      </trkpt>
      <trkpt lat="45.86606" lon="5.38644">
        <ele>197.80000305176</ele>
        <time>2023-05-31T07:00:39.000Z</time>
      </trkpt>
      <trkpt lat="45.86604" lon="5.38652">
        <ele>197.80000305176</ele>
        <time>2023-05-31T07:00:40.000Z</time>
      </trkpt>
      <trkpt lat="45.86603" lon="5.38658">
        <ele>197.80000305176</ele>
        <time>2023-05-31T07:00:41.000Z</time>
      </trkpt>
      <trkpt lat="45.86596" lon="5.38684">
        <ele>197.80000305176</ele>
        <time>2023-05-31T07:00:44.000Z</time>
      </trkpt>
      <trkpt lat="45.86592" lon="5.38694">
        <ele>198</ele>
        <time>2023-05-31T07:00:45.000Z</time>
      </trkpt>
      <trkpt lat="45.86567" lon="5.38758">
        <ele>197.80000305176</ele>
        <time>2023-05-31T07:00:53.000Z</time>
      </trkpt>
      <trkpt lat="45.8654" lon="5.38814">
        <ele>197.80000305176</ele>
        <time>2023-05-31T07:01:01.000Z</time>
      </trkpt>
      <trkpt lat="45.86518" lon="5.38867">
        <ele>197.80000305176</ele>
        <time>2023-05-31T07:01:08.000Z</time>
      </trkpt>
      <trkpt lat="45.86516" lon="5.38876">
        <ele>197.60000610352</ele>
        <time>2023-05-31T07:01:09.000Z</time>
      </trkpt>
      <trkpt lat="45.86506" lon="5.38928">
        <ele>197.80000305176</ele>
        <time>2023-05-31T07:01:15.000Z</time>
      </trkpt>
      <trkpt lat="45.86486" lon="5.38988">
        <ele>197.80000305176</ele>
        <time>2023-05-31T07:01:23.000Z</time>
      </trkpt>
      <trkpt lat="45.86463" lon="5.39026">
        <ele>198.19999694824</ele>
        <time>2023-05-31T07:01:29.000Z</time>
      </trkpt>
      <trkpt lat="45.8645" lon="5.39043">
        <ele>198.19999694824</ele>
        <time>2023-05-31T07:01:32.000Z</time>
      </trkpt>
      <trkpt lat="45.86428" lon="5.3907">
        <ele>198.39999389648</ele>
        <time>2023-05-31T07:01:37.000Z</time>
      </trkpt>
      <trkpt lat="45.86399" lon="5.39114">
        <ele>198.39999389648</ele>
        <time>2023-05-31T07:01:44.000Z</time>
      </trkpt>
      <trkpt lat="45.86368" lon="5.39181">
        <ele>198.39999389648</ele>
        <time>2023-05-31T07:01:53.000Z</time>
      </trkpt>
      <trkpt lat="45.86337" lon="5.39245">
        <ele>198.39999389648</ele>
        <time>2023-05-31T07:02:02.000Z</time>
      </trkpt>
      <trkpt lat="45.86309" lon="5.39311">
        <ele>198.60000610352</ele>
        <time>2023-05-31T07:02:11.000Z</time>
      </trkpt>
      <trkpt lat="45.86306" lon="5.39318">
        <ele>198.60000610352</ele>
        <time>2023-05-31T07:02:12.000Z</time>
      </trkpt>
      <trkpt lat="45.86286" lon="5.39372">
        <ele>198.60000610352</ele>
        <time>2023-05-31T07:02:19.000Z</time>
      </trkpt>
      <trkpt lat="45.86269" lon="5.39428">
        <ele>198.80000305176</ele>
        <time>2023-05-31T07:02:26.000Z</time>
      </trkpt>
      <trkpt lat="45.86252" lon="5.3947">
        <ele>198.80000305176</ele>
        <time>2023-05-31T07:02:32.000Z</time>
      </trkpt>
      <trkpt lat="45.86225" lon="5.39541">
        <ele>199</ele>
        <time>2023-05-31T07:02:41.000Z</time>
      </trkpt>
      <trkpt lat="45.8622" lon="5.39555">
        <ele>199</ele>
        <time>2023-05-31T07:02:43.000Z</time>
      </trkpt>
      <trkpt lat="45.86218" lon="5.39563">
        <ele>199</ele>
        <time>2023-05-31T07:02:44.000Z</time>
      </trkpt>
      <trkpt lat="45.86214" lon="5.39588">
        <ele>198.80000305176</ele>
        <time>2023-05-31T07:02:47.000Z</time>
      </trkpt>
      <trkpt lat="45.86207" lon="5.39604">
        <ele>198.80000305176</ele>
        <time>2023-05-31T07:02:49.000Z</time>
      </trkpt>
      <trkpt lat="45.86183" lon="5.3965">
        <ele>198.80000305176</ele>
        <time>2023-05-31T07:02:56.000Z</time>
      </trkpt>
      <trkpt lat="45.86165" lon="5.39702">
        <ele>199</ele>
        <time>2023-05-31T07:03:03.000Z</time>
      </trkpt>
      <trkpt lat="45.86139" lon="5.3976">
        <ele>199</ele>
        <time>2023-05-31T07:03:11.000Z</time>
      </trkpt>
      <trkpt lat="45.8611" lon="5.3983">
        <ele>198.80000305176</ele>
        <time>2023-05-31T07:03:20.000Z</time>
      </trkpt>
      <trkpt lat="45.86107" lon="5.39837">
        <ele>198.80000305176</ele>
        <time>2023-05-31T07:03:21.000Z</time>
      </trkpt>
      <trkpt lat="45.86082" lon="5.39894">
        <ele>199</ele>
        <time>2023-05-31T07:03:29.000Z</time>
      </trkpt>
      <trkpt lat="45.86052" lon="5.39963">
        <ele>198.60000610352</ele>
        <time>2023-05-31T07:03:38.000Z</time>
      </trkpt>
      <trkpt lat="45.86049" lon="5.39971">
        <ele>198.60000610352</ele>
        <time>2023-05-31T07:03:39.000Z</time>
      </trkpt>
      <trkpt lat="45.86021" lon="5.40043">
        <ele>197.19999694824</ele>
        <time>2023-05-31T07:03:48.000Z</time>
      </trkpt>
      <trkpt lat="45.85988" lon="5.4011">
        <ele>196.80000305176</ele>
        <time>2023-05-31T07:03:57.000Z</time>
      </trkpt>
      <trkpt lat="45.85974" lon="5.40136">
        <ele>196.80000305176</ele>
        <time>2023-05-31T07:04:01.000Z</time>
      </trkpt>
      <trkpt lat="45.85956" lon="5.40163">
        <ele>196.60000610352</ele>
        <time>2023-05-31T07:04:05.000Z</time>
      </trkpt>
      <trkpt lat="45.85928" lon="5.40206">
        <ele>196.60000610352</ele>
        <time>2023-05-31T07:04:12.000Z</time>
      </trkpt>
      <trkpt lat="45.85889" lon="5.40263">
        <ele>196.80000305176</ele>
        <time>2023-05-31T07:04:21.000Z</time>
      </trkpt>
      <trkpt lat="45.8585" lon="5.40318">
        <ele>196.80000305176</ele>
        <time>2023-05-31T07:04:30.000Z</time>
      </trkpt>
      <trkpt lat="45.85846" lon="5.40324">
        <ele>196.80000305176</ele>
        <time>2023-05-31T07:04:31.000Z</time>
      </trkpt>
      <trkpt lat="45.85808" lon="5.4038">
        <ele>197</ele>
        <time>2023-05-31T07:04:40.000Z</time>
      </trkpt>
      <trkpt lat="45.85804" lon="5.40386">
        <ele>197</ele>
        <time>2023-05-31T07:04:41.000Z</time>
      </trkpt>
      <trkpt lat="45.85768" lon="5.40439">
        <ele>197.19999694824</ele>
        <time>2023-05-31T07:04:50.000Z</time>
      </trkpt>
      <trkpt lat="45.85729" lon="5.40496">
        <ele>197.19999694824</ele>
        <time>2023-05-31T07:04:59.000Z</time>
      </trkpt>
      <trkpt lat="45.85688" lon="5.40555">
        <ele>197.39999389648</ele>
        <time>2023-05-31T07:05:09.000Z</time>
      </trkpt>
      <trkpt lat="45.85662" lon="5.40591">
        <ele>197.60000610352</ele>
        <time>2023-05-31T07:05:16.000Z</time>
      </trkpt>
      <trkpt lat="45.85658" lon="5.406">
        <ele>197.80000305176</ele>
        <time>2023-05-31T07:05:19.000Z</time>
      </trkpt>
      <trkpt lat="45.85658" lon="5.40603">
        <ele>198</ele>
        <time>2023-05-31T07:05:24.000Z</time>
      </trkpt>
      <trkpt lat="45.8566" lon="5.40605">
        <ele>198.39999389648</ele>
        <time>2023-05-31T07:05:28.000Z</time>
      </trkpt>
      <trkpt lat="45.8566" lon="5.40605">
        <ele>198.60000610352</ele>
        <time>2023-05-31T07:05:31.000Z</time>
      </trkpt>
      <trkpt lat="45.8566" lon="5.40606">
        <ele>199</ele>
        <time>2023-05-31T07:05:36.000Z</time>
      </trkpt>
      <trkpt lat="45.8566" lon="5.40606">
        <ele>199</ele>
        <time>2023-05-31T07:05:37.000Z</time>
      </trkpt>
      <trkpt lat="45.85658" lon="5.40611">
        <ele>199</ele>
        <time>2023-05-31T07:05:55.000Z</time>
      </trkpt>
      <trkpt lat="45.85657" lon="5.40616">
        <ele>199</ele>
        <time>2023-05-31T07:05:57.000Z</time>
      </trkpt>
      <trkpt lat="45.85647" lon="5.40632">
        <ele>199</ele>
        <time>2023-05-31T07:06:02.000Z</time>
      </trkpt>
      <trkpt lat="45.8563" lon="5.40655">
        <ele>199.19999694824</ele>
        <time>2023-05-31T07:06:08.000Z</time>
      </trkpt>
      <trkpt lat="45.85606" lon="5.4069">
        <ele>199</ele>
        <time>2023-05-31T07:06:16.000Z</time>
      </trkpt>
      <trkpt lat="45.85598" lon="5.40698">
        <ele>199.19999694824</ele>
        <time>2023-05-31T07:06:20.000Z</time>
      </trkpt>
      <trkpt lat="45.85586" lon="5.40706">
        <ele>199.19999694824</ele>
        <time>2023-05-31T07:06:25.000Z</time>
      </trkpt>
      <trkpt lat="45.8558" lon="5.40712">
        <ele>199.19999694824</ele>
        <time>2023-05-31T07:06:27.000Z</time>
      </trkpt>
      <trkpt lat="45.85572" lon="5.40718">
        <ele>199.19999694824</ele>
        <time>2023-05-31T07:06:29.000Z</time>
      </trkpt>
      <trkpt lat="45.85551" lon="5.40744">
        <ele>198.19999694824</ele>
        <time>2023-05-31T07:06:34.000Z</time>
      </trkpt>
      <trkpt lat="45.85515" lon="5.40787">
        <ele>197.80000305176</ele>
        <time>2023-05-31T07:06:42.000Z</time>
      </trkpt>
      <trkpt lat="45.8548" lon="5.40827">
        <ele>198</ele>
        <time>2023-05-31T07:06:50.000Z</time>
      </trkpt>
      <trkpt lat="45.85457" lon="5.40849">
        <ele>198.19999694824</ele>
        <time>2023-05-31T07:06:55.000Z</time>
      </trkpt>
      <trkpt lat="45.85448" lon="5.40855">
        <ele>198</ele>
        <time>2023-05-31T07:06:57.000Z</time>
      </trkpt>
      <trkpt lat="45.85436" lon="5.40864">
        <ele>198</ele>
        <time>2023-05-31T07:06:59.000Z</time>
      </trkpt>
      <trkpt lat="45.85422" lon="5.4088">
        <ele>198</ele>
        <time>2023-05-31T07:07:02.000Z</time>
      </trkpt>
      <trkpt lat="45.85399" lon="5.40913">
        <ele>197.80000305176</ele>
        <time>2023-05-31T07:07:08.000Z</time>
      </trkpt>
      <trkpt lat="45.85392" lon="5.40926">
        <ele>198</ele>
        <time>2023-05-31T07:07:10.000Z</time>
      </trkpt>
      <trkpt lat="45.85374" lon="5.40972">
        <ele>198.19999694824</ele>
        <time>2023-05-31T07:07:17.000Z</time>
      </trkpt>
      <trkpt lat="45.85355" lon="5.41023">
        <ele>198</ele>
        <time>2023-05-31T07:07:24.000Z</time>
      </trkpt>
      <trkpt lat="45.85335" lon="5.41095">
        <ele>197.80000305176</ele>
        <time>2023-05-31T07:07:34.000Z</time>
      </trkpt>
      <trkpt lat="45.8532" lon="5.41153">
        <ele>197.80000305176</ele>
        <time>2023-05-31T07:07:42.000Z</time>
      </trkpt>
      <trkpt lat="45.85303" lon="5.41227">
        <ele>197.80000305176</ele>
        <time>2023-05-31T07:07:52.000Z</time>
      </trkpt>
      <trkpt lat="45.85302" lon="5.41235">
        <ele>197.80000305176</ele>
        <time>2023-05-31T07:07:53.000Z</time>
      </trkpt>
      <trkpt lat="45.85285" lon="5.41309">
        <ele>197.80000305176</ele>
        <time>2023-05-31T07:08:03.000Z</time>
      </trkpt>
      <trkpt lat="45.85283" lon="5.41317">
        <ele>197.80000305176</ele>
        <time>2023-05-31T07:08:04.000Z</time>
      </trkpt>
      <trkpt lat="45.85263" lon="5.41372">
        <ele>198</ele>
        <time>2023-05-31T07:08:12.000Z</time>
      </trkpt>
      <trkpt lat="45.8526" lon="5.41379">
        <ele>198</ele>
        <time>2023-05-31T07:08:13.000Z</time>
      </trkpt>
      <trkpt lat="45.85244" lon="5.41419">
        <ele>199.19999694824</ele>
        <time>2023-05-31T07:08:19.000Z</time>
      </trkpt>
      <trkpt lat="45.85238" lon="5.41429">
        <ele>199.39999389648</ele>
        <time>2023-05-31T07:08:21.000Z</time>
      </trkpt>
      <trkpt lat="45.85204" lon="5.41471">
        <ele>199.80000305176</ele>
        <time>2023-05-31T07:08:29.000Z</time>
      </trkpt>
      <trkpt lat="45.85161" lon="5.41505">
        <ele>199.60000610352</ele>
        <time>2023-05-31T07:08:38.000Z</time>
      </trkpt>
      <trkpt lat="45.85116" lon="5.41539">
        <ele>199.39999389648</ele>
        <time>2023-05-31T07:08:47.000Z</time>
      </trkpt>
      <trkpt lat="45.85062" lon="5.41573">
        <ele>199.39999389648</ele>
        <time>2023-05-31T07:08:57.000Z</time>
      </trkpt>
      <trkpt lat="45.85012" lon="5.4161">
        <ele>199.80000305176</ele>
        <time>2023-05-31T07:09:07.000Z</time>
      </trkpt>
      <trkpt lat="45.85007" lon="5.41612">
        <ele>199.80000305176</ele>
        <time>2023-05-31T07:09:08.000Z</time>
      </trkpt>
      <trkpt lat="45.84964" lon="5.41632">
        <ele>200.19999694824</ele>
        <time>2023-05-31T07:09:16.000Z</time>
      </trkpt>
      <trkpt lat="45.84954" lon="5.41635">
        <ele>200.60000610352</ele>
        <time>2023-05-31T07:09:18.000Z</time>
      </trkpt>
      <trkpt lat="45.84949" lon="5.41636">
        <ele>200.80000305176</ele>
        <time>2023-05-31T07:09:19.000Z</time>
      </trkpt>
      <trkpt lat="45.84939" lon="5.41638">
        <ele>201.19999694824</ele>
        <time>2023-05-31T07:09:21.000Z</time>
      </trkpt>
      <trkpt lat="45.84934" lon="5.4164">
        <ele>201.39999389648</ele>
        <time>2023-05-31T07:09:22.000Z</time>
      </trkpt>
      <trkpt lat="45.84924" lon="5.41645">
        <ele>201.80000305176</ele>
        <time>2023-05-31T07:09:24.000Z</time>
      </trkpt>
      <trkpt lat="45.84919" lon="5.41647">
        <ele>201.80000305176</ele>
        <time>2023-05-31T07:09:25.000Z</time>
      </trkpt>
      <trkpt lat="45.84901" lon="5.4166">
        <ele>202.39999389648</ele>
        <time>2023-05-31T07:09:29.000Z</time>
      </trkpt>
      <trkpt lat="45.84896" lon="5.41663">
        <ele>202.39999389648</ele>
        <time>2023-05-31T07:09:30.000Z</time>
      </trkpt>
      <trkpt lat="45.84854" lon="5.41696">
        <ele>203</ele>
        <time>2023-05-31T07:09:39.000Z</time>
      </trkpt>
      <trkpt lat="45.84808" lon="5.41742">
        <ele>203</ele>
        <time>2023-05-31T07:09:49.000Z</time>
      </trkpt>
      <trkpt lat="45.84759" lon="5.41783">
        <ele>202.80000305176</ele>
        <time>2023-05-31T07:09:59.000Z</time>
      </trkpt>
      <trkpt lat="45.84712" lon="5.41811">
        <ele>202.80000305176</ele>
        <time>2023-05-31T07:10:08.000Z</time>
      </trkpt>
      <trkpt lat="45.84667" lon="5.41835">
        <ele>203.39999389648</ele>
        <time>2023-05-31T07:10:17.000Z</time>
      </trkpt>
      <trkpt lat="45.84652" lon="5.41846">
        <ele>203.39999389648</ele>
        <time>2023-05-31T07:10:20.000Z</time>
      </trkpt>
      <trkpt lat="45.84634" lon="5.41863">
        <ele>203.80000305176</ele>
        <time>2023-05-31T07:10:24.000Z</time>
      </trkpt>
      <trkpt lat="45.84595" lon="5.41899">
        <ele>204</ele>
        <time>2023-05-31T07:10:33.000Z</time>
      </trkpt>
      <trkpt lat="45.84585" lon="5.41901">
        <ele>204.19999694824</ele>
        <time>2023-05-31T07:10:35.000Z</time>
      </trkpt>
      <trkpt lat="45.84582" lon="5.41904">
        <ele>204.19999694824</ele>
        <time>2023-05-31T07:10:36.000Z</time>
      </trkpt>
      <trkpt lat="45.84575" lon="5.41911">
        <ele>204.19999694824</ele>
        <time>2023-05-31T07:10:38.000Z</time>
      </trkpt>
      <trkpt lat="45.84573" lon="5.41922">
        <ele>204.39999389648</ele>
        <time>2023-05-31T07:10:40.000Z</time>
      </trkpt>
      <trkpt lat="45.84574" lon="5.41936">
        <ele>204.80000305176</ele>
        <time>2023-05-31T07:10:42.000Z</time>
      </trkpt>
      <trkpt lat="45.84572" lon="5.41943">
        <ele>204.80000305176</ele>
        <time>2023-05-31T07:10:43.000Z</time>
      </trkpt>
      <trkpt lat="45.84569" lon="5.41949">
        <ele>204.80000305176</ele>
        <time>2023-05-31T07:10:44.000Z</time>
      </trkpt>
      <trkpt lat="45.84558" lon="5.41966">
        <ele>204.80000305176</ele>
        <time>2023-05-31T07:10:47.000Z</time>
      </trkpt>
      <trkpt lat="45.84524" lon="5.42036">
        <ele>205.19999694824</ele>
        <time>2023-05-31T07:10:58.000Z</time>
      </trkpt>
      <trkpt lat="45.84506" lon="5.42068">
        <ele>205.19999694824</ele>
        <time>2023-05-31T07:11:03.000Z</time>
      </trkpt>
      <trkpt lat="45.84499" lon="5.42079">
        <ele>205.19999694824</ele>
        <time>2023-05-31T07:11:05.000Z</time>
      </trkpt>
      <trkpt lat="45.84487" lon="5.42094">
        <ele>205.60000610352</ele>
        <time>2023-05-31T07:11:08.000Z</time>
      </trkpt>
      <trkpt lat="45.8447" lon="5.42112">
        <ele>206.19999694824</ele>
        <time>2023-05-31T07:11:12.000Z</time>
      </trkpt>
      <trkpt lat="45.84457" lon="5.42122">
        <ele>206.60000610352</ele>
        <time>2023-05-31T07:11:15.000Z</time>
      </trkpt>
      <trkpt lat="45.84452" lon="5.42126">
        <ele>207</ele>
        <time>2023-05-31T07:11:16.000Z</time>
      </trkpt>
      <trkpt lat="45.84439" lon="5.42133">
        <ele>207.60000610352</ele>
        <time>2023-05-31T07:11:19.000Z</time>
      </trkpt>
      <trkpt lat="45.84434" lon="5.42136">
        <ele>207.80000305176</ele>
        <time>2023-05-31T07:11:20.000Z</time>
      </trkpt>
      <trkpt lat="45.84425" lon="5.42141">
        <ele>208</ele>
        <time>2023-05-31T07:11:22.000Z</time>
      </trkpt>
      <trkpt lat="45.84406" lon="5.42148">
        <ele>208.80000305176</ele>
        <time>2023-05-31T07:11:26.000Z</time>
      </trkpt>
      <trkpt lat="45.84401" lon="5.42149">
        <ele>209</ele>
        <time>2023-05-31T07:11:27.000Z</time>
      </trkpt>
      <trkpt lat="45.84363" lon="5.4216">
        <ele>210</ele>
        <time>2023-05-31T07:11:35.000Z</time>
      </trkpt>
      <trkpt lat="45.84357" lon="5.42162">
        <ele>210</ele>
        <time>2023-05-31T07:11:36.000Z</time>
      </trkpt>
      <trkpt lat="45.84312" lon="5.42174">
        <ele>211.19999694824</ele>
        <time>2023-05-31T07:11:45.000Z</time>
      </trkpt>
      <trkpt lat="45.84307" lon="5.42175">
        <ele>211.39999389648</ele>
        <time>2023-05-31T07:11:46.000Z</time>
      </trkpt>
      <trkpt lat="45.84265" lon="5.42198">
        <ele>211.60000610352</ele>
        <time>2023-05-31T07:11:54.000Z</time>
      </trkpt>
      <trkpt lat="45.84216" lon="5.42232">
        <ele>211.39999389648</ele>
        <time>2023-05-31T07:12:03.000Z</time>
      </trkpt>
      <trkpt lat="45.8417" lon="5.42262">
        <ele>211</ele>
        <time>2023-05-31T07:12:11.000Z</time>
      </trkpt>
      <trkpt lat="45.84152" lon="5.42273">
        <ele>211</ele>
        <time>2023-05-31T07:12:14.000Z</time>
      </trkpt>
      <trkpt lat="45.84142" lon="5.4228">
        <ele>211</ele>
        <time>2023-05-31T07:12:16.000Z</time>
      </trkpt>
      <trkpt lat="45.84136" lon="5.42286">
        <ele>211</ele>
        <time>2023-05-31T07:12:17.000Z</time>
      </trkpt>
      <trkpt lat="45.84121" lon="5.42309">
        <ele>211</ele>
        <time>2023-05-31T07:12:21.000Z</time>
      </trkpt>
      <trkpt lat="45.84099" lon="5.42357">
        <ele>211.60000610352</ele>
        <time>2023-05-31T07:12:28.000Z</time>
      </trkpt>
      <trkpt lat="45.84087" lon="5.42383">
        <ele>212.19999694824</ele>
        <time>2023-05-31T07:12:32.000Z</time>
      </trkpt>
      <trkpt lat="45.84083" lon="5.42395">
        <ele>212.39999389648</ele>
        <time>2023-05-31T07:12:34.000Z</time>
      </trkpt>
      <trkpt lat="45.84079" lon="5.42411">
        <ele>212.60000610352</ele>
        <time>2023-05-31T07:12:36.000Z</time>
      </trkpt>
      <trkpt lat="45.84069" lon="5.42445">
        <ele>213.19999694824</ele>
        <time>2023-05-31T07:12:41.000Z</time>
      </trkpt>
      <trkpt lat="45.84064" lon="5.42464">
        <ele>213.60000610352</ele>
        <time>2023-05-31T07:12:44.000Z</time>
      </trkpt>
      <trkpt lat="45.84056" lon="5.42494">
        <ele>214.39999389648</ele>
        <time>2023-05-31T07:12:48.000Z</time>
      </trkpt>
      <trkpt lat="45.84044" lon="5.42534">
        <ele>215.39999389648</ele>
        <time>2023-05-31T07:12:54.000Z</time>
      </trkpt>
      <trkpt lat="45.84042" lon="5.42541">
        <ele>215.39999389648</ele>
        <time>2023-05-31T07:12:55.000Z</time>
      </trkpt>
      <trkpt lat="45.84023" lon="5.42601">
        <ele>216.19999694824</ele>
        <time>2023-05-31T07:13:03.000Z</time>
      </trkpt>
      <trkpt lat="45.83996" lon="5.42678">
        <ele>216.19999694824</ele>
        <time>2023-05-31T07:13:13.000Z</time>
      </trkpt>
      <trkpt lat="45.83974" lon="5.42748">
        <ele>216</ele>
        <time>2023-05-31T07:13:22.000Z</time>
      </trkpt>
      <trkpt lat="45.83952" lon="5.42819">
        <ele>215.80000305176</ele>
        <time>2023-05-31T07:13:31.000Z</time>
      </trkpt>
      <trkpt lat="45.83949" lon="5.42827">
        <ele>215.80000305176</ele>
        <time>2023-05-31T07:13:32.000Z</time>
      </trkpt>
      <trkpt lat="45.83925" lon="5.429">
        <ele>215.60000610352</ele>
        <time>2023-05-31T07:13:41.000Z</time>
      </trkpt>
      <trkpt lat="45.83901" lon="5.42973">
        <ele>215.39999389648</ele>
        <time>2023-05-31T07:13:50.000Z</time>
      </trkpt>
      <trkpt lat="45.83896" lon="5.42988">
        <ele>215.39999389648</ele>
        <time>2023-05-31T07:13:52.000Z</time>
      </trkpt>
      <trkpt lat="45.83871" lon="5.43061">
        <ele>215.19999694824</ele>
        <time>2023-05-31T07:14:01.000Z</time>
      </trkpt>
      <trkpt lat="45.83869" lon="5.43069">
        <ele>215.19999694824</ele>
        <time>2023-05-31T07:14:02.000Z</time>
      </trkpt>
      <trkpt lat="45.83845" lon="5.43142">
        <ele>215</ele>
        <time>2023-05-31T07:14:11.000Z</time>
      </trkpt>
      <trkpt lat="45.83843" lon="5.43148">
        <ele>214.80000305176</ele>
        <time>2023-05-31T07:14:12.000Z</time>
      </trkpt>
      <trkpt lat="45.83826" lon="5.432">
        <ele>214.39999389648</ele>
        <time>2023-05-31T07:14:18.000Z</time>
      </trkpt>
      <trkpt lat="45.83815" lon="5.43233">
        <ele>214</ele>
        <time>2023-05-31T07:14:22.000Z</time>
      </trkpt>
      <trkpt lat="45.83797" lon="5.43287">
        <ele>213.19999694824</ele>
        <time>2023-05-31T07:14:28.000Z</time>
      </trkpt>
      <trkpt lat="45.83783" lon="5.43331">
        <ele>212.80000305176</ele>
        <time>2023-05-31T07:14:33.000Z</time>
      </trkpt>
      <trkpt lat="45.83763" lon="5.43393">
        <ele>212</ele>
        <time>2023-05-31T07:14:40.000Z</time>
      </trkpt>
      <trkpt lat="45.83756" lon="5.43413">
        <ele>211.80000305176</ele>
        <time>2023-05-31T07:14:42.000Z</time>
      </trkpt>
      <trkpt lat="45.83741" lon="5.43458">
        <ele>211</ele>
        <time>2023-05-31T07:14:47.000Z</time>
      </trkpt>
      <trkpt lat="45.83729" lon="5.43494">
        <ele>210.19999694824</ele>
        <time>2023-05-31T07:14:51.000Z</time>
      </trkpt>
      <trkpt lat="45.83722" lon="5.43515">
        <ele>209.80000305176</ele>
        <time>2023-05-31T07:14:53.000Z</time>
      </trkpt>
      <trkpt lat="45.83697" lon="5.4359">
        <ele>208.60000610352</ele>
        <time>2023-05-31T07:15:01.000Z</time>
      </trkpt>
      <trkpt lat="45.83694" lon="5.436">
        <ele>208.39999389648</ele>
        <time>2023-05-31T07:15:02.000Z</time>
      </trkpt>
      <trkpt lat="45.83668" lon="5.43663">
        <ele>207.60000610352</ele>
        <time>2023-05-31T07:15:09.000Z</time>
      </trkpt>
      <trkpt lat="45.83645" lon="5.43696">
        <ele>206.60000610352</ele>
        <time>2023-05-31T07:15:13.000Z</time>
      </trkpt>
      <trkpt lat="45.8364" lon="5.43702">
        <ele>206.60000610352</ele>
        <time>2023-05-31T07:15:14.000Z</time>
      </trkpt>
      <trkpt lat="45.83601" lon="5.43741">
        <ele>205.60000610352</ele>
        <time>2023-05-31T07:15:20.000Z</time>
      </trkpt>
      <trkpt lat="45.83592" lon="5.43749">
        <ele>205.60000610352</ele>
        <time>2023-05-31T07:15:21.000Z</time>
      </trkpt>
      <trkpt lat="45.83563" lon="5.43776">
        <ele>204.39999389648</ele>
        <time>2023-05-31T07:15:25.000Z</time>
      </trkpt>
      <trkpt lat="45.83535" lon="5.43801">
        <ele>203.39999389648</ele>
        <time>2023-05-31T07:15:29.000Z</time>
      </trkpt>
      <trkpt lat="45.83527" lon="5.43807">
        <ele>203.19999694824</ele>
        <time>2023-05-31T07:15:30.000Z</time>
      </trkpt>
      <trkpt lat="45.83477" lon="5.43846">
        <ele>202.60000610352</ele>
        <time>2023-05-31T07:15:37.000Z</time>
      </trkpt>
      <trkpt lat="45.83431" lon="5.4388">
        <ele>203.19999694824</ele>
        <time>2023-05-31T07:15:44.000Z</time>
      </trkpt>
      <trkpt lat="45.83394" lon="5.43907">
        <ele>203.39999389648</ele>
        <time>2023-05-31T07:15:50.000Z</time>
      </trkpt>
      <trkpt lat="45.83347" lon="5.43931">
        <ele>203.60000610352</ele>
        <time>2023-05-31T07:15:57.000Z</time>
      </trkpt>
      <trkpt lat="45.8332" lon="5.43943">
        <ele>203.60000610352</ele>
        <time>2023-05-31T07:16:01.000Z</time>
      </trkpt>
      <trkpt lat="45.83306" lon="5.43947">
        <ele>203.60000610352</ele>
        <time>2023-05-31T07:16:03.000Z</time>
      </trkpt>
      <trkpt lat="45.83252" lon="5.43962">
        <ele>203.19999694824</ele>
        <time>2023-05-31T07:16:11.000Z</time>
      </trkpt>
      <trkpt lat="45.83226" lon="5.43969">
        <ele>203.19999694824</ele>
        <time>2023-05-31T07:16:15.000Z</time>
      </trkpt>
      <trkpt lat="45.8317" lon="5.43987">
        <ele>203</ele>
        <time>2023-05-31T07:16:24.000Z</time>
      </trkpt>
      <trkpt lat="45.83163" lon="5.43991">
        <ele>203</ele>
        <time>2023-05-31T07:16:25.000Z</time>
      </trkpt>
      <trkpt lat="45.83109" lon="5.4402">
        <ele>203.19999694824</ele>
        <time>2023-05-31T07:16:34.000Z</time>
      </trkpt>
      <trkpt lat="45.83058" lon="5.44058">
        <ele>203</ele>
        <time>2023-05-31T07:16:43.000Z</time>
      </trkpt>
      <trkpt lat="45.8301" lon="5.44101">
        <ele>203</ele>
        <time>2023-05-31T07:16:52.000Z</time>
      </trkpt>
      <trkpt lat="45.82969" lon="5.44139">
        <ele>203.19999694824</ele>
        <time>2023-05-31T07:17:00.000Z</time>
      </trkpt>
      <trkpt lat="45.82919" lon="5.44182">
        <ele>203.80000305176</ele>
        <time>2023-05-31T07:17:10.000Z</time>
      </trkpt>
      <trkpt lat="45.82914" lon="5.44187">
        <ele>203.80000305176</ele>
        <time>2023-05-31T07:17:11.000Z</time>
      </trkpt>
      <trkpt lat="45.82899" lon="5.442">
        <ele>204</ele>
        <time>2023-05-31T07:17:14.000Z</time>
      </trkpt>
      <trkpt lat="45.8287" lon="5.44225">
        <ele>204.19999694824</ele>
        <time>2023-05-31T07:17:20.000Z</time>
      </trkpt>
      <trkpt lat="45.82833" lon="5.44258">
        <ele>205</ele>
        <time>2023-05-31T07:17:28.000Z</time>
      </trkpt>
      <trkpt lat="45.82827" lon="5.44263">
        <ele>205.19999694824</ele>
        <time>2023-05-31T07:17:29.000Z</time>
      </trkpt>
      <trkpt lat="45.82794" lon="5.44291">
        <ele>206.19999694824</ele>
        <time>2023-05-31T07:17:36.000Z</time>
      </trkpt>
      <trkpt lat="45.82786" lon="5.44298">
        <ele>206.39999389648</ele>
        <time>2023-05-31T07:17:38.000Z</time>
      </trkpt>
      <trkpt lat="45.82741" lon="5.44337">
        <ele>207.19999694824</ele>
        <time>2023-05-31T07:17:47.000Z</time>
      </trkpt>
      <trkpt lat="45.82735" lon="5.44341">
        <ele>207.39999389648</ele>
        <time>2023-05-31T07:17:48.000Z</time>
      </trkpt>
      <trkpt lat="45.827" lon="5.44368">
        <ele>207.39999389648</ele>
        <time>2023-05-31T07:17:54.000Z</time>
      </trkpt>
      <trkpt lat="45.8265" lon="5.44396">
        <ele>207</ele>
        <time>2023-05-31T07:18:02.000Z</time>
      </trkpt>
      <trkpt lat="45.82595" lon="5.44424">
        <ele>206.19999694824</ele>
        <time>2023-05-31T07:18:10.000Z</time>
      </trkpt>
      <trkpt lat="45.82587" lon="5.44427">
        <ele>206</ele>
        <time>2023-05-31T07:18:11.000Z</time>
      </trkpt>
      <trkpt lat="45.82538" lon="5.44453">
        <ele>204.80000305176</ele>
        <time>2023-05-31T07:18:18.000Z</time>
      </trkpt>
      <trkpt lat="45.82531" lon="5.44456">
        <ele>204.60000610352</ele>
        <time>2023-05-31T07:18:19.000Z</time>
      </trkpt>
      <trkpt lat="45.8249" lon="5.44483">
        <ele>203.80000305176</ele>
        <time>2023-05-31T07:18:25.000Z</time>
      </trkpt>
      <trkpt lat="45.82485" lon="5.44487">
        <ele>203.60000610352</ele>
        <time>2023-05-31T07:18:26.000Z</time>
      </trkpt>
      <trkpt lat="45.82465" lon="5.44502">
        <ele>203.19999694824</ele>
        <time>2023-05-31T07:18:29.000Z</time>
      </trkpt>
      <trkpt lat="45.82453" lon="5.44512">
        <ele>203</ele>
        <time>2023-05-31T07:18:31.000Z</time>
      </trkpt>
      <trkpt lat="45.82418" lon="5.44542">
        <ele>202.80000305176</ele>
        <time>2023-05-31T07:18:37.000Z</time>
      </trkpt>
      <trkpt lat="45.82413" lon="5.44547">
        <ele>202.80000305176</ele>
        <time>2023-05-31T07:18:38.000Z</time>
      </trkpt>
      <trkpt lat="45.82379" lon="5.44577">
        <ele>202.80000305176</ele>
        <time>2023-05-31T07:18:44.000Z</time>
      </trkpt>
      <trkpt lat="45.82333" lon="5.44616">
        <ele>202.60000610352</ele>
        <time>2023-05-31T07:18:52.000Z</time>
      </trkpt>
      <trkpt lat="45.82283" lon="5.44656">
        <ele>202.60000610352</ele>
        <time>2023-05-31T07:19:01.000Z</time>
      </trkpt>
      <trkpt lat="45.82278" lon="5.4466">
        <ele>202.60000610352</ele>
        <time>2023-05-31T07:19:02.000Z</time>
      </trkpt>
      <trkpt lat="45.82271" lon="5.44666">
        <ele>202.60000610352</ele>
        <time>2023-05-31T07:19:03.000Z</time>
      </trkpt>
      <trkpt lat="45.82249" lon="5.44683">
        <ele>202.60000610352</ele>
        <time>2023-05-31T07:19:07.000Z</time>
      </trkpt>
      <trkpt lat="45.82244" lon="5.44688">
        <ele>202.60000610352</ele>
        <time>2023-05-31T07:19:08.000Z</time>
      </trkpt>
      <trkpt lat="45.82232" lon="5.44699">
        <ele>202.80000305176</ele>
        <time>2023-05-31T07:19:11.000Z</time>
      </trkpt>
      <trkpt lat="45.82195" lon="5.44718">
        <ele>202.80000305176</ele>
        <time>2023-05-31T07:19:16.000Z</time>
      </trkpt>
      <trkpt lat="45.82188" lon="5.44722">
        <ele>202.80000305176</ele>
        <time>2023-05-31T07:19:17.000Z</time>
      </trkpt>
      <trkpt lat="45.82174" lon="5.44727">
        <ele>203</ele>
        <time>2023-05-31T07:19:19.000Z</time>
      </trkpt>
      <trkpt lat="45.82152" lon="5.44734">
        <ele>203.60000610352</ele>
        <time>2023-05-31T07:19:23.000Z</time>
      </trkpt>
      <trkpt lat="45.8213" lon="5.44739">
        <ele>204.39999389648</ele>
        <time>2023-05-31T07:19:27.000Z</time>
      </trkpt>
      <trkpt lat="45.8211" lon="5.44746">
        <ele>205</ele>
        <time>2023-05-31T07:19:31.000Z</time>
      </trkpt>
      <trkpt lat="45.82092" lon="5.4475">
        <ele>205.60000610352</ele>
        <time>2023-05-31T07:19:34.000Z</time>
      </trkpt>
      <trkpt lat="45.82072" lon="5.44758">
        <ele>206.19999694824</ele>
        <time>2023-05-31T07:19:38.000Z</time>
      </trkpt>
      <trkpt lat="45.82062" lon="5.44761">
        <ele>206.60000610352</ele>
        <time>2023-05-31T07:19:40.000Z</time>
      </trkpt>
      <trkpt lat="45.82039" lon="5.44771">
        <ele>207.19999694824</ele>
        <time>2023-05-31T07:19:44.000Z</time>
      </trkpt>
      <trkpt lat="45.81989" lon="5.44797">
        <ele>207.60000610352</ele>
        <time>2023-05-31T07:19:53.000Z</time>
      </trkpt>
      <trkpt lat="45.8198" lon="5.44802">
        <ele>207.60000610352</ele>
        <time>2023-05-31T07:19:55.000Z</time>
      </trkpt>
      <trkpt lat="45.8195" lon="5.44818">
        <ele>208.39999389648</ele>
        <time>2023-05-31T07:20:01.000Z</time>
      </trkpt>
      <trkpt lat="45.81946" lon="5.4482">
        <ele>208.39999389648</ele>
        <time>2023-05-31T07:20:02.000Z</time>
      </trkpt>
      <trkpt lat="45.8192" lon="5.44833">
        <ele>209.39999389648</ele>
        <time>2023-05-31T07:20:07.000Z</time>
      </trkpt>
      <trkpt lat="45.81902" lon="5.44842">
        <ele>210.39999389648</ele>
        <time>2023-05-31T07:20:11.000Z</time>
      </trkpt>
      <trkpt lat="45.81897" lon="5.44845">
        <ele>210.39999389648</ele>
        <time>2023-05-31T07:20:12.000Z</time>
      </trkpt>
      <trkpt lat="45.81867" lon="5.44858">
        <ele>211.39999389648</ele>
        <time>2023-05-31T07:20:18.000Z</time>
      </trkpt>
      <trkpt lat="45.81862" lon="5.4486">
        <ele>211.39999389648</ele>
        <time>2023-05-31T07:20:19.000Z</time>
      </trkpt>
      <trkpt lat="45.81858" lon="5.44862">
        <ele>211.60000610352</ele>
        <time>2023-05-31T07:20:20.000Z</time>
      </trkpt>
      <trkpt lat="45.81817" lon="5.44879">
        <ele>212.19999694824</ele>
        <time>2023-05-31T07:20:28.000Z</time>
      </trkpt>
      <trkpt lat="45.81797" lon="5.44887">
        <ele>212.60000610352</ele>
        <time>2023-05-31T07:20:32.000Z</time>
      </trkpt>
      <trkpt lat="45.81771" lon="5.44896">
        <ele>213</ele>
        <time>2023-05-31T07:20:37.000Z</time>
      </trkpt>
      <trkpt lat="45.81724" lon="5.44913">
        <ele>213.80000305176</ele>
        <time>2023-05-31T07:20:46.000Z</time>
      </trkpt>
      <trkpt lat="45.81719" lon="5.44915">
        <ele>213.80000305176</ele>
        <time>2023-05-31T07:20:47.000Z</time>
      </trkpt>
      <trkpt lat="45.81672" lon="5.44933">
        <ele>214.60000610352</ele>
        <time>2023-05-31T07:20:56.000Z</time>
      </trkpt>
      <trkpt lat="45.81657" lon="5.4494">
        <ele>214.80000305176</ele>
        <time>2023-05-31T07:20:59.000Z</time>
      </trkpt>
      <trkpt lat="45.8162" lon="5.44959">
        <ele>215.39999389648</ele>
        <time>2023-05-31T07:21:06.000Z</time>
      </trkpt>
      <trkpt lat="45.8159" lon="5.44977">
        <ele>215.80000305176</ele>
        <time>2023-05-31T07:21:12.000Z</time>
      </trkpt>
      <trkpt lat="45.81575" lon="5.44985">
        <ele>216</ele>
        <time>2023-05-31T07:21:15.000Z</time>
      </trkpt>
      <trkpt lat="45.81535" lon="5.45008">
        <ele>216.80000305176</ele>
        <time>2023-05-31T07:21:23.000Z</time>
      </trkpt>
      <trkpt lat="45.81531" lon="5.45011">
        <ele>216.80000305176</ele>
        <time>2023-05-31T07:21:24.000Z</time>
      </trkpt>
      <trkpt lat="45.81496" lon="5.45032">
        <ele>217.60000610352</ele>
        <time>2023-05-31T07:21:31.000Z</time>
      </trkpt>
      <trkpt lat="45.81486" lon="5.45037">
        <ele>218</ele>
        <time>2023-05-31T07:21:33.000Z</time>
      </trkpt>
      <trkpt lat="45.81449" lon="5.45064">
        <ele>218.80000305176</ele>
        <time>2023-05-31T07:21:41.000Z</time>
      </trkpt>
      <trkpt lat="45.81441" lon="5.45071">
        <ele>219</ele>
        <time>2023-05-31T07:21:43.000Z</time>
      </trkpt>
      <trkpt lat="45.81409" lon="5.45099">
        <ele>220</ele>
        <time>2023-05-31T07:21:50.000Z</time>
      </trkpt>
      <trkpt lat="45.81404" lon="5.45103">
        <ele>220</ele>
        <time>2023-05-31T07:21:51.000Z</time>
      </trkpt>
      <trkpt lat="45.81377" lon="5.45126">
        <ele>220.80000305176</ele>
        <time>2023-05-31T07:21:57.000Z</time>
      </trkpt>
      <trkpt lat="45.81373" lon="5.45129">
        <ele>220.80000305176</ele>
        <time>2023-05-31T07:21:58.000Z</time>
      </trkpt>
      <trkpt lat="45.81363" lon="5.45136">
        <ele>221.19999694824</ele>
        <time>2023-05-31T07:22:00.000Z</time>
      </trkpt>
      <trkpt lat="45.81335" lon="5.45157">
        <ele>222.39999389648</ele>
        <time>2023-05-31T07:22:06.000Z</time>
      </trkpt>
      <trkpt lat="45.81302" lon="5.45178">
        <ele>223.39999389648</ele>
        <time>2023-05-31T07:22:13.000Z</time>
      </trkpt>
      <trkpt lat="45.81298" lon="5.45181">
        <ele>223.60000610352</ele>
        <time>2023-05-31T07:22:14.000Z</time>
      </trkpt>
      <trkpt lat="45.81264" lon="5.45198">
        <ele>224.39999389648</ele>
        <time>2023-05-31T07:22:21.000Z</time>
      </trkpt>
      <trkpt lat="45.81259" lon="5.45201">
        <ele>224.60000610352</ele>
        <time>2023-05-31T07:22:22.000Z</time>
      </trkpt>
      <trkpt lat="45.81231" lon="5.45212">
        <ele>225.39999389648</ele>
        <time>2023-05-31T07:22:28.000Z</time>
      </trkpt>
      <trkpt lat="45.81226" lon="5.45214">
        <ele>225.60000610352</ele>
        <time>2023-05-31T07:22:29.000Z</time>
      </trkpt>
      <trkpt lat="45.81216" lon="5.45218">
        <ele>226</ele>
        <time>2023-05-31T07:22:31.000Z</time>
      </trkpt>
      <trkpt lat="45.81193" lon="5.45231">
        <ele>226.60000610352</ele>
        <time>2023-05-31T07:22:36.000Z</time>
      </trkpt>
      <trkpt lat="45.81189" lon="5.45233">
        <ele>226.80000305176</ele>
        <time>2023-05-31T07:22:37.000Z</time>
      </trkpt>
      <trkpt lat="45.8115" lon="5.4525">
        <ele>227.60000610352</ele>
        <time>2023-05-31T07:22:45.000Z</time>
      </trkpt>
      <trkpt lat="45.81141" lon="5.45254">
        <ele>228</ele>
        <time>2023-05-31T07:22:47.000Z</time>
      </trkpt>
      <trkpt lat="45.81115" lon="5.45263">
        <ele>228.60000610352</ele>
        <time>2023-05-31T07:22:52.000Z</time>
      </trkpt>
      <trkpt lat="45.81099" lon="5.45268">
        <ele>228.80000305176</ele>
        <time>2023-05-31T07:22:55.000Z</time>
      </trkpt>
      <trkpt lat="45.81089" lon="5.45272">
        <ele>229</ele>
        <time>2023-05-31T07:22:57.000Z</time>
      </trkpt>
      <trkpt lat="45.81069" lon="5.45278">
        <ele>229.39999389648</ele>
        <time>2023-05-31T07:23:01.000Z</time>
      </trkpt>
      <trkpt lat="45.81065" lon="5.4528">
        <ele>229.60000610352</ele>
        <time>2023-05-31T07:23:02.000Z</time>
      </trkpt>
      <trkpt lat="45.81025" lon="5.45293">
        <ele>230.80000305176</ele>
        <time>2023-05-31T07:23:10.000Z</time>
      </trkpt>
      <trkpt lat="45.8102" lon="5.45294">
        <ele>230.80000305176</ele>
        <time>2023-05-31T07:23:11.000Z</time>
      </trkpt>
      <trkpt lat="45.8101" lon="5.45296">
        <ele>231</ele>
        <time>2023-05-31T07:23:13.000Z</time>
      </trkpt>
      <trkpt lat="45.8099" lon="5.45294">
        <ele>231.19999694824</ele>
        <time>2023-05-31T07:23:17.000Z</time>
      </trkpt>
      <trkpt lat="45.80978" lon="5.45291">
        <ele>231.39999389648</ele>
        <time>2023-05-31T07:23:19.000Z</time>
      </trkpt>
      <trkpt lat="45.80958" lon="5.45281">
        <ele>231.60000610352</ele>
        <time>2023-05-31T07:23:23.000Z</time>
      </trkpt>
      <trkpt lat="45.80952" lon="5.45278">
        <ele>231.60000610352</ele>
        <time>2023-05-31T07:23:24.000Z</time>
      </trkpt>
      <trkpt lat="45.80942" lon="5.45275">
        <ele>231.80000305176</ele>
        <time>2023-05-31T07:23:26.000Z</time>
      </trkpt>
      <trkpt lat="45.80926" lon="5.45272">
        <ele>232</ele>
        <time>2023-05-31T07:23:29.000Z</time>
      </trkpt>
      <trkpt lat="45.80917" lon="5.45272">
        <ele>232.19999694824</ele>
        <time>2023-05-31T07:23:31.000Z</time>
      </trkpt>
      <trkpt lat="45.80905" lon="5.45277">
        <ele>232.19999694824</ele>
        <time>2023-05-31T07:23:33.000Z</time>
      </trkpt>
      <trkpt lat="45.80901" lon="5.45279">
        <ele>232.39999389648</ele>
        <time>2023-05-31T07:23:34.000Z</time>
      </trkpt>
      <trkpt lat="45.80877" lon="5.45297">
        <ele>232.80000305176</ele>
        <time>2023-05-31T07:23:39.000Z</time>
      </trkpt>
      <trkpt lat="45.80871" lon="5.45301">
        <ele>232.80000305176</ele>
        <time>2023-05-31T07:23:40.000Z</time>
      </trkpt>
      <trkpt lat="45.80866" lon="5.45305">
        <ele>233</ele>
        <time>2023-05-31T07:23:41.000Z</time>
      </trkpt>
      <trkpt lat="45.80862" lon="5.45308">
        <ele>233</ele>
        <time>2023-05-31T07:23:42.000Z</time>
      </trkpt>
      <trkpt lat="45.80853" lon="5.45314">
        <ele>233.19999694824</ele>
        <time>2023-05-31T07:23:44.000Z</time>
      </trkpt>
      <trkpt lat="45.80841" lon="5.45321">
        <ele>233.39999389648</ele>
        <time>2023-05-31T07:23:46.000Z</time>
      </trkpt>
      <trkpt lat="45.80811" lon="5.45334">
        <ele>233.60000610352</ele>
        <time>2023-05-31T07:23:51.000Z</time>
      </trkpt>
      <trkpt lat="45.80804" lon="5.45335">
        <ele>233.60000610352</ele>
        <time>2023-05-31T07:23:52.000Z</time>
      </trkpt>
      <trkpt lat="45.80772" lon="5.4534">
        <ele>233.39999389648</ele>
        <time>2023-05-31T07:23:57.000Z</time>
      </trkpt>
      <trkpt lat="45.80754" lon="5.45345">
        <ele>232.80000305176</ele>
        <time>2023-05-31T07:24:01.000Z</time>
      </trkpt>
      <trkpt lat="45.80752" lon="5.45346">
        <ele>232.60000610352</ele>
        <time>2023-05-31T07:24:02.000Z</time>
      </trkpt>
      <trkpt lat="45.8075" lon="5.45353">
        <ele>232.39999389648</ele>
        <time>2023-05-31T07:24:04.000Z</time>
      </trkpt>
      <trkpt lat="45.80751" lon="5.45361">
        <ele>232.19999694824</ele>
        <time>2023-05-31T07:24:06.000Z</time>
      </trkpt>
      <trkpt lat="45.80752" lon="5.45363">
        <ele>232.19999694824</ele>
        <time>2023-05-31T07:24:08.000Z</time>
      </trkpt>
      <trkpt lat="45.80753" lon="5.45365">
        <ele>232</ele>
        <time>2023-05-31T07:24:10.000Z</time>
      </trkpt>
      <trkpt lat="45.80753" lon="5.45365">
        <ele>232</ele>
        <time>2023-05-31T07:24:11.000Z</time>
      </trkpt>
      <trkpt lat="45.80753" lon="5.45365">
        <ele>232</ele>
        <time>2023-05-31T07:24:15.000Z</time>
      </trkpt>
      <trkpt lat="45.80752" lon="5.45373">
        <ele>232.60000610352</ele>
        <time>2023-05-31T07:33:04.000Z</time>
      </trkpt>
      <trkpt lat="45.8075" lon="5.45382">
        <ele>232.60000610352</ele>
        <time>2023-05-31T07:33:08.000Z</time>
      </trkpt>
      <trkpt lat="45.80748" lon="5.45386">
        <ele>232.60000610352</ele>
        <time>2023-05-31T07:33:10.000Z</time>
      </trkpt>
      <trkpt lat="45.80734" lon="5.45398">
        <ele>232.80000305176</ele>
        <time>2023-05-31T07:33:16.000Z</time>
      </trkpt>
      <trkpt lat="45.80723" lon="5.45408">
        <ele>232.80000305176</ele>
        <time>2023-05-31T07:33:21.000Z</time>
      </trkpt>
      <trkpt lat="45.80717" lon="5.45402">
        <ele>233</ele>
        <time>2023-05-31T07:33:25.000Z</time>
      </trkpt>
      <trkpt lat="45.80713" lon="5.45394">
        <ele>233.19999694824</ele>
        <time>2023-05-31T07:33:28.000Z</time>
      </trkpt>
      <trkpt lat="45.8071" lon="5.45385">
        <ele>233.39999389648</ele>
        <time>2023-05-31T07:33:30.000Z</time>
      </trkpt>
      <trkpt lat="45.80702" lon="5.45369">
        <ele>233</ele>
        <time>2023-05-31T07:33:35.000Z</time>
      </trkpt>
      <trkpt lat="45.80701" lon="5.45365">
        <ele>232.80000305176</ele>
        <time>2023-05-31T07:33:37.000Z</time>
      </trkpt>
      <trkpt lat="45.80701" lon="5.45363">
        <ele>232.60000610352</ele>
        <time>2023-05-31T07:33:38.000Z</time>
      </trkpt>
      <trkpt lat="45.80699" lon="5.4536">
        <ele>232.19999694824</ele>
        <time>2023-05-31T07:33:40.000Z</time>
      </trkpt>
      <trkpt lat="45.80694" lon="5.45357">
        <ele>232</ele>
        <time>2023-05-31T07:33:42.000Z</time>
      </trkpt>
      <trkpt lat="45.80681" lon="5.45359">
        <ele>231.60000610352</ele>
        <time>2023-05-31T07:33:45.000Z</time>
      </trkpt>
      <trkpt lat="45.80671" lon="5.45363">
        <ele>231.60000610352</ele>
        <time>2023-05-31T07:33:47.000Z</time>
      </trkpt>
      <trkpt lat="45.8066" lon="5.45367">
        <ele>231.39999389648</ele>
        <time>2023-05-31T07:33:49.000Z</time>
      </trkpt>
      <trkpt lat="45.8065" lon="5.45371">
        <ele>231.19999694824</ele>
        <time>2023-05-31T07:33:51.000Z</time>
      </trkpt>
      <trkpt lat="45.80644" lon="5.45373">
        <ele>231.19999694824</ele>
        <time>2023-05-31T07:33:52.000Z</time>
      </trkpt>
      <trkpt lat="45.80622" lon="5.45382">
        <ele>231</ele>
        <time>2023-05-31T07:33:56.000Z</time>
      </trkpt>
      <trkpt lat="45.80599" lon="5.45391">
        <ele>231</ele>
        <time>2023-05-31T07:34:00.000Z</time>
      </trkpt>
      <trkpt lat="45.8059" lon="5.45392">
        <ele>230.80000305176</ele>
        <time>2023-05-31T07:34:02.000Z</time>
      </trkpt>
      <trkpt lat="45.80574" lon="5.45389">
        <ele>231</ele>
        <time>2023-05-31T07:34:05.000Z</time>
      </trkpt>
      <trkpt lat="45.80558" lon="5.45386">
        <ele>231</ele>
        <time>2023-05-31T07:34:08.000Z</time>
      </trkpt>
      <trkpt lat="45.80538" lon="5.45381">
        <ele>231.60000610352</ele>
        <time>2023-05-31T07:34:12.000Z</time>
      </trkpt>
      <trkpt lat="45.80527" lon="5.45383">
        <ele>232</ele>
        <time>2023-05-31T07:34:14.000Z</time>
      </trkpt>
      <trkpt lat="45.80512" lon="5.4539">
        <ele>232.39999389648</ele>
        <time>2023-05-31T07:34:17.000Z</time>
      </trkpt>
      <trkpt lat="45.80491" lon="5.45403">
        <ele>232.60000610352</ele>
        <time>2023-05-31T07:34:21.000Z</time>
      </trkpt>
      <trkpt lat="45.80474" lon="5.45411">
        <ele>232.80000305176</ele>
        <time>2023-05-31T07:34:24.000Z</time>
      </trkpt>
      <trkpt lat="45.80451" lon="5.45428">
        <ele>232.60000610352</ele>
        <time>2023-05-31T07:34:28.000Z</time>
      </trkpt>
      <trkpt lat="45.80417" lon="5.45457">
        <ele>232</ele>
        <time>2023-05-31T07:34:35.000Z</time>
      </trkpt>
      <trkpt lat="45.80383" lon="5.45494">
        <ele>231.60000610352</ele>
        <time>2023-05-31T07:34:42.000Z</time>
      </trkpt>
      <trkpt lat="45.80373" lon="5.45505">
        <ele>231.39999389648</ele>
        <time>2023-05-31T07:34:44.000Z</time>
      </trkpt>
      <trkpt lat="45.80347" lon="5.45525">
        <ele>230.80000305176</ele>
        <time>2023-05-31T07:34:49.000Z</time>
      </trkpt>
      <trkpt lat="45.80313" lon="5.45546">
        <ele>230.39999389648</ele>
        <time>2023-05-31T07:34:55.000Z</time>
      </trkpt>
      <trkpt lat="45.80307" lon="5.4555">
        <ele>230.19999694824</ele>
        <time>2023-05-31T07:34:56.000Z</time>
      </trkpt>
      <trkpt lat="45.80268" lon="5.45577">
        <ele>229.19999694824</ele>
        <time>2023-05-31T07:35:03.000Z</time>
      </trkpt>
      <trkpt lat="45.80246" lon="5.45592">
        <ele>228.60000610352</ele>
        <time>2023-05-31T07:35:07.000Z</time>
      </trkpt>
      <trkpt lat="45.80224" lon="5.45607">
        <ele>228.19999694824</ele>
        <time>2023-05-31T07:35:11.000Z</time>
      </trkpt>
      <trkpt lat="45.8019" lon="5.4563">
        <ele>227.39999389648</ele>
        <time>2023-05-31T07:35:17.000Z</time>
      </trkpt>
      <trkpt lat="45.80168" lon="5.45646">
        <ele>227</ele>
        <time>2023-05-31T07:35:21.000Z</time>
      </trkpt>
      <trkpt lat="45.80142" lon="5.45664">
        <ele>226.39999389648</ele>
        <time>2023-05-31T07:35:26.000Z</time>
      </trkpt>
      <trkpt lat="45.80107" lon="5.45685">
        <ele>226</ele>
        <time>2023-05-31T07:35:32.000Z</time>
      </trkpt>
      <trkpt lat="45.80096" lon="5.45691">
        <ele>225.80000305176</ele>
        <time>2023-05-31T07:35:34.000Z</time>
      </trkpt>
      <trkpt lat="45.8009" lon="5.45694">
        <ele>225.80000305176</ele>
        <time>2023-05-31T07:35:35.000Z</time>
      </trkpt>
      <trkpt lat="45.80038" lon="5.45719">
        <ele>225.60000610352</ele>
        <time>2023-05-31T07:35:44.000Z</time>
      </trkpt>
      <trkpt lat="45.79986" lon="5.45743">
        <ele>225.60000610352</ele>
        <time>2023-05-31T07:35:53.000Z</time>
      </trkpt>
      <trkpt lat="45.79981" lon="5.45746">
        <ele>225.80000305176</ele>
        <time>2023-05-31T07:35:54.000Z</time>
      </trkpt>
      <trkpt lat="45.7993" lon="5.45774">
        <ele>226.39999389648</ele>
        <time>2023-05-31T07:36:03.000Z</time>
      </trkpt>
      <trkpt lat="45.79913" lon="5.45784">
        <ele>226.60000610352</ele>
        <time>2023-05-31T07:36:06.000Z</time>
      </trkpt>
      <trkpt lat="45.79876" lon="5.45807">
        <ele>227</ele>
        <time>2023-05-31T07:36:13.000Z</time>
      </trkpt>
      <trkpt lat="45.79861" lon="5.45816">
        <ele>227.19999694824</ele>
        <time>2023-05-31T07:36:16.000Z</time>
      </trkpt>
      <trkpt lat="45.79826" lon="5.45825">
        <ele>227.60000610352</ele>
        <time>2023-05-31T07:36:22.000Z</time>
      </trkpt>
      <trkpt lat="45.79765" lon="5.45833">
        <ele>228</ele>
        <time>2023-05-31T07:36:32.000Z</time>
      </trkpt>
      <trkpt lat="45.79741" lon="5.45835">
        <ele>228</ele>
        <time>2023-05-31T07:36:36.000Z</time>
      </trkpt>
      <trkpt lat="45.79714" lon="5.45837">
        <ele>227.80000305176</ele>
        <time>2023-05-31T07:36:40.000Z</time>
      </trkpt>
      <trkpt lat="45.79678" lon="5.45849">
        <ele>226.80000305176</ele>
        <time>2023-05-31T07:36:45.000Z</time>
      </trkpt>
      <trkpt lat="45.79651" lon="5.45868">
        <ele>226</ele>
        <time>2023-05-31T07:36:49.000Z</time>
      </trkpt>
      <trkpt lat="45.7964" lon="5.45877">
        <ele>225.60000610352</ele>
        <time>2023-05-31T07:36:51.000Z</time>
      </trkpt>
      <trkpt lat="45.7962" lon="5.45891">
        <ele>224.80000305176</ele>
        <time>2023-05-31T07:36:54.000Z</time>
      </trkpt>
      <trkpt lat="45.79596" lon="5.45908">
        <ele>224.19999694824</ele>
        <time>2023-05-31T07:36:58.000Z</time>
      </trkpt>
      <trkpt lat="45.79591" lon="5.45913">
        <ele>224.19999694824</ele>
        <time>2023-05-31T07:36:59.000Z</time>
      </trkpt>
      <trkpt lat="45.7958" lon="5.45924">
        <ele>223.80000305176</ele>
        <time>2023-05-31T07:37:01.000Z</time>
      </trkpt>
      <trkpt lat="45.79575" lon="5.4593">
        <ele>223.80000305176</ele>
        <time>2023-05-31T07:37:02.000Z</time>
      </trkpt>
      <trkpt lat="45.79571" lon="5.45937">
        <ele>223.80000305176</ele>
        <time>2023-05-31T07:37:03.000Z</time>
      </trkpt>
      <trkpt lat="45.79545" lon="5.4599">
        <ele>223.19999694824</ele>
        <time>2023-05-31T07:37:10.000Z</time>
      </trkpt>
      <trkpt lat="45.79532" lon="5.46021">
        <ele>223</ele>
        <time>2023-05-31T07:37:14.000Z</time>
      </trkpt>
      <trkpt lat="45.79522" lon="5.46044">
        <ele>223</ele>
        <time>2023-05-31T07:37:17.000Z</time>
      </trkpt>
      <trkpt lat="45.79517" lon="5.46059">
        <ele>222.80000305176</ele>
        <time>2023-05-31T07:37:19.000Z</time>
      </trkpt>
      <trkpt lat="45.79507" lon="5.46091">
        <ele>222.80000305176</ele>
        <time>2023-05-31T07:37:23.000Z</time>
      </trkpt>
      <trkpt lat="45.79499" lon="5.46149">
        <ele>223.19999694824</ele>
        <time>2023-05-31T07:37:30.000Z</time>
      </trkpt>
      <trkpt lat="45.79497" lon="5.46155">
        <ele>223.19999694824</ele>
        <time>2023-05-31T07:37:31.000Z</time>
      </trkpt>
      <trkpt lat="45.79494" lon="5.46161">
        <ele>223.19999694824</ele>
        <time>2023-05-31T07:37:32.000Z</time>
      </trkpt>
      <trkpt lat="45.79485" lon="5.46171">
        <ele>223.39999389648</ele>
        <time>2023-05-31T07:37:34.000Z</time>
      </trkpt>
      <trkpt lat="45.79481" lon="5.46175">
        <ele>223.39999389648</ele>
        <time>2023-05-31T07:37:35.000Z</time>
      </trkpt>
      <trkpt lat="45.79475" lon="5.46177">
        <ele>223.39999389648</ele>
        <time>2023-05-31T07:37:36.000Z</time>
      </trkpt>
      <trkpt lat="45.79463" lon="5.46178">
        <ele>223.39999389648</ele>
        <time>2023-05-31T07:37:38.000Z</time>
      </trkpt>
      <trkpt lat="45.79457" lon="5.46177">
        <ele>223.60000610352</ele>
        <time>2023-05-31T07:37:39.000Z</time>
      </trkpt>
      <trkpt lat="45.79435" lon="5.46173">
        <ele>223.80000305176</ele>
        <time>2023-05-31T07:37:43.000Z</time>
      </trkpt>
      <trkpt lat="45.79429" lon="5.46172">
        <ele>223.80000305176</ele>
        <time>2023-05-31T07:37:44.000Z</time>
      </trkpt>
      <trkpt lat="45.79414" lon="5.46169">
        <ele>224.19999694824</ele>
        <time>2023-05-31T07:37:47.000Z</time>
      </trkpt>
      <trkpt lat="45.79396" lon="5.46163">
        <ele>225</ele>
        <time>2023-05-31T07:37:51.000Z</time>
      </trkpt>
      <trkpt lat="45.79391" lon="5.46161">
        <ele>225.19999694824</ele>
        <time>2023-05-31T07:37:52.000Z</time>
      </trkpt>
      <trkpt lat="45.79382" lon="5.46156">
        <ele>225.60000610352</ele>
        <time>2023-05-31T07:37:54.000Z</time>
      </trkpt>
      <trkpt lat="45.79374" lon="5.46151">
        <ele>226</ele>
        <time>2023-05-31T07:37:56.000Z</time>
      </trkpt>
      <trkpt lat="45.79353" lon="5.46136">
        <ele>227.60000610352</ele>
        <time>2023-05-31T07:38:01.000Z</time>
      </trkpt>
      <trkpt lat="45.79348" lon="5.46132">
        <ele>228</ele>
        <time>2023-05-31T07:38:02.000Z</time>
      </trkpt>
      <trkpt lat="45.79331" lon="5.4612">
        <ele>228.60000610352</ele>
        <time>2023-05-31T07:38:06.000Z</time>
      </trkpt>
      <trkpt lat="45.79311" lon="5.46112">
        <ele>229.19999694824</ele>
        <time>2023-05-31T07:38:10.000Z</time>
      </trkpt>
      <trkpt lat="45.79292" lon="5.46109">
        <ele>229.80000305176</ele>
        <time>2023-05-31T07:38:14.000Z</time>
      </trkpt>
      <trkpt lat="45.79276" lon="5.46109">
        <ele>230.19999694824</ele>
        <time>2023-05-31T07:38:17.000Z</time>
      </trkpt>
      <trkpt lat="45.7925" lon="5.46115">
        <ele>230.80000305176</ele>
        <time>2023-05-31T07:38:22.000Z</time>
      </trkpt>
      <trkpt lat="45.79234" lon="5.4612">
        <ele>231</ele>
        <time>2023-05-31T07:38:25.000Z</time>
      </trkpt>
      <trkpt lat="45.7919" lon="5.46143">
        <ele>230.80000305176</ele>
        <time>2023-05-31T07:38:33.000Z</time>
      </trkpt>
      <trkpt lat="45.79136" lon="5.46172">
        <ele>229.80000305176</ele>
        <time>2023-05-31T07:38:43.000Z</time>
      </trkpt>
      <trkpt lat="45.79129" lon="5.46176">
        <ele>229.60000610352</ele>
        <time>2023-05-31T07:38:44.000Z</time>
      </trkpt>
      <trkpt lat="45.79124" lon="5.46178">
        <ele>229.60000610352</ele>
        <time>2023-05-31T07:38:45.000Z</time>
      </trkpt>
      <trkpt lat="45.79073" lon="5.46206">
        <ele>228.60000610352</ele>
        <time>2023-05-31T07:38:54.000Z</time>
      </trkpt>
      <trkpt lat="45.79062" lon="5.46212">
        <ele>228.39999389648</ele>
        <time>2023-05-31T07:38:56.000Z</time>
      </trkpt>
      <trkpt lat="45.79011" lon="5.46241">
        <ele>227.60000610352</ele>
        <time>2023-05-31T07:39:05.000Z</time>
      </trkpt>
      <trkpt lat="45.78999" lon="5.46247">
        <ele>227.60000610352</ele>
        <time>2023-05-31T07:39:07.000Z</time>
      </trkpt>
      <trkpt lat="45.78964" lon="5.46266">
        <ele>227</ele>
        <time>2023-05-31T07:39:13.000Z</time>
      </trkpt>
      <trkpt lat="45.7894" lon="5.46279">
        <ele>226.19999694824</ele>
        <time>2023-05-31T07:39:17.000Z</time>
      </trkpt>
      <trkpt lat="45.78904" lon="5.463">
        <ele>225.60000610352</ele>
        <time>2023-05-31T07:39:23.000Z</time>
      </trkpt>
      <trkpt lat="45.78886" lon="5.46309">
        <ele>225.19999694824</ele>
        <time>2023-05-31T07:39:26.000Z</time>
      </trkpt>
      <trkpt lat="45.78833" lon="5.46339">
        <ele>224.60000610352</ele>
        <time>2023-05-31T07:39:35.000Z</time>
      </trkpt>
      <trkpt lat="45.78805" lon="5.4636">
        <ele>224.19999694824</ele>
        <time>2023-05-31T07:39:40.000Z</time>
      </trkpt>
      <trkpt lat="45.78794" lon="5.4637">
        <ele>223.80000305176</ele>
        <time>2023-05-31T07:39:42.000Z</time>
      </trkpt>
      <trkpt lat="45.78771" lon="5.4639">
        <ele>223</ele>
        <time>2023-05-31T07:39:46.000Z</time>
      </trkpt>
      <trkpt lat="45.78752" lon="5.46408">
        <ele>222.19999694824</ele>
        <time>2023-05-31T07:39:50.000Z</time>
      </trkpt>
      <trkpt lat="45.78744" lon="5.46416">
        <ele>222</ele>
        <time>2023-05-31T07:39:52.000Z</time>
      </trkpt>
      <trkpt lat="45.7873" lon="5.46426">
        <ele>221.60000610352</ele>
        <time>2023-05-31T07:39:56.000Z</time>
      </trkpt>
      <trkpt lat="45.78725" lon="5.46431">
        <ele>221</ele>
        <time>2023-05-31T07:40:00.000Z</time>
      </trkpt>
      <trkpt lat="45.78725" lon="5.46431">
        <ele>221</ele>
        <time>2023-05-31T07:40:01.000Z</time>
      </trkpt>
      <trkpt lat="45.78722" lon="5.46435">
        <ele>220.39999389648</ele>
        <time>2023-05-31T07:40:18.000Z</time>
      </trkpt>
      <trkpt lat="45.78718" lon="5.46441">
        <ele>220.39999389648</ele>
        <time>2023-05-31T07:40:20.000Z</time>
      </trkpt>
      <trkpt lat="45.78703" lon="5.46459">
        <ele>220.39999389648</ele>
        <time>2023-05-31T07:40:25.000Z</time>
      </trkpt>
      <trkpt lat="45.78677" lon="5.46484">
        <ele>220.39999389648</ele>
        <time>2023-05-31T07:40:31.000Z</time>
      </trkpt>
      <trkpt lat="45.78644" lon="5.46514">
        <ele>220.19999694824</ele>
        <time>2023-05-31T07:40:38.000Z</time>
      </trkpt>
      <trkpt lat="45.78608" lon="5.46545">
        <ele>220</ele>
        <time>2023-05-31T07:40:45.000Z</time>
      </trkpt>
      <trkpt lat="45.78561" lon="5.46585">
        <ele>219.80000305176</ele>
        <time>2023-05-31T07:40:54.000Z</time>
      </trkpt>
      <trkpt lat="45.78517" lon="5.46618">
        <ele>220</ele>
        <time>2023-05-31T07:41:03.000Z</time>
      </trkpt>
      <trkpt lat="45.78466" lon="5.46658">
        <ele>220.19999694824</ele>
        <time>2023-05-31T07:41:13.000Z</time>
      </trkpt>
      <trkpt lat="45.78417" lon="5.46694">
        <ele>219.80000305176</ele>
        <time>2023-05-31T07:41:22.000Z</time>
      </trkpt>
      <trkpt lat="45.78412" lon="5.46698">
        <ele>219.80000305176</ele>
        <time>2023-05-31T07:41:23.000Z</time>
      </trkpt>
      <trkpt lat="45.78359" lon="5.46739">
        <ele>219.39999389648</ele>
        <time>2023-05-31T07:41:33.000Z</time>
      </trkpt>
      <trkpt lat="45.78311" lon="5.46776">
        <ele>219.39999389648</ele>
        <time>2023-05-31T07:41:43.000Z</time>
      </trkpt>
      <trkpt lat="45.78259" lon="5.46814">
        <ele>219.19999694824</ele>
        <time>2023-05-31T07:41:53.000Z</time>
      </trkpt>
      <trkpt lat="45.78253" lon="5.4682">
        <ele>219.19999694824</ele>
        <time>2023-05-31T07:41:54.000Z</time>
      </trkpt>
      <trkpt lat="45.78202" lon="5.46859">
        <ele>218.39999389648</ele>
        <time>2023-05-31T07:42:03.000Z</time>
      </trkpt>
      <trkpt lat="45.78195" lon="5.46864">
        <ele>218</ele>
        <time>2023-05-31T07:42:04.000Z</time>
      </trkpt>
      <trkpt lat="45.78163" lon="5.46883">
        <ele>217</ele>
        <time>2023-05-31T07:42:09.000Z</time>
      </trkpt>
      <trkpt lat="45.7815" lon="5.4689">
        <ele>216.80000305176</ele>
        <time>2023-05-31T07:42:11.000Z</time>
      </trkpt>
      <trkpt lat="45.78116" lon="5.46904">
        <ele>216.39999389648</ele>
        <time>2023-05-31T07:42:17.000Z</time>
      </trkpt>
      <trkpt lat="45.78074" lon="5.46927">
        <ele>217.39999389648</ele>
        <time>2023-05-31T07:42:25.000Z</time>
      </trkpt>
      <trkpt lat="45.78031" lon="5.46956">
        <ele>218</ele>
        <time>2023-05-31T07:42:33.000Z</time>
      </trkpt>
      <trkpt lat="45.78025" lon="5.4696">
        <ele>218</ele>
        <time>2023-05-31T07:42:34.000Z</time>
      </trkpt>
      <trkpt lat="45.77998" lon="5.46979">
        <ele>219.19999694824</ele>
        <time>2023-05-31T07:42:40.000Z</time>
      </trkpt>
      <trkpt lat="45.77989" lon="5.46986">
        <ele>219.60000610352</ele>
        <time>2023-05-31T07:42:42.000Z</time>
      </trkpt>
      <trkpt lat="45.77967" lon="5.47005">
        <ele>220.19999694824</ele>
        <time>2023-05-31T07:42:47.000Z</time>
      </trkpt>
      <trkpt lat="45.77945" lon="5.47023">
        <ele>220.80000305176</ele>
        <time>2023-05-31T07:42:52.000Z</time>
      </trkpt>
      <trkpt lat="45.77926" lon="5.47038">
        <ele>221.39999389648</ele>
        <time>2023-05-31T07:42:56.000Z</time>
      </trkpt>
      <trkpt lat="45.77893" lon="5.47063">
        <ele>221.80000305176</ele>
        <time>2023-05-31T07:43:03.000Z</time>
      </trkpt>
      <trkpt lat="45.77869" lon="5.47079">
        <ele>222.39999389648</ele>
        <time>2023-05-31T07:43:08.000Z</time>
      </trkpt>
      <trkpt lat="45.77853" lon="5.47088">
        <ele>222.80000305176</ele>
        <time>2023-05-31T07:43:11.000Z</time>
      </trkpt>
      <trkpt lat="45.77801" lon="5.47113">
        <ele>223.39999389648</ele>
        <time>2023-05-31T07:43:21.000Z</time>
      </trkpt>
      <trkpt lat="45.77795" lon="5.47115">
        <ele>223.39999389648</ele>
        <time>2023-05-31T07:43:22.000Z</time>
      </trkpt>
      <trkpt lat="45.7779" lon="5.47118">
        <ele>223.60000610352</ele>
        <time>2023-05-31T07:43:23.000Z</time>
      </trkpt>
      <trkpt lat="45.77739" lon="5.47143">
        <ele>224.39999389648</ele>
        <time>2023-05-31T07:43:33.000Z</time>
      </trkpt>
      <trkpt lat="45.77694" lon="5.47175">
        <ele>224.60000610352</ele>
        <time>2023-05-31T07:43:42.000Z</time>
      </trkpt>
      <trkpt lat="45.77658" lon="5.47202">
        <ele>224.39999389648</ele>
        <time>2023-05-31T07:43:49.000Z</time>
      </trkpt>
      <trkpt lat="45.77631" lon="5.47222">
        <ele>224.39999389648</ele>
        <time>2023-05-31T07:43:54.000Z</time>
      </trkpt>
      <trkpt lat="45.77576" lon="5.47255">
        <ele>223.60000610352</ele>
        <time>2023-05-31T07:44:03.000Z</time>
      </trkpt>
      <trkpt lat="45.77568" lon="5.47259">
        <ele>223.60000610352</ele>
        <time>2023-05-31T07:44:04.000Z</time>
      </trkpt>
      <trkpt lat="45.77512" lon="5.47279">
        <ele>223</ele>
        <time>2023-05-31T07:44:13.000Z</time>
      </trkpt>
      <trkpt lat="45.77498" lon="5.47284">
        <ele>222.80000305176</ele>
        <time>2023-05-31T07:44:15.000Z</time>
      </trkpt>
      <trkpt lat="45.7746" lon="5.47302">
        <ele>222.60000610352</ele>
        <time>2023-05-31T07:44:21.000Z</time>
      </trkpt>
      <trkpt lat="45.77449" lon="5.47309">
        <ele>222.80000305176</ele>
        <time>2023-05-31T07:44:23.000Z</time>
      </trkpt>
      <trkpt lat="45.77399" lon="5.47352">
        <ele>222</ele>
        <time>2023-05-31T07:44:31.000Z</time>
      </trkpt>
      <trkpt lat="45.77386" lon="5.47364">
        <ele>221.80000305176</ele>
        <time>2023-05-31T07:44:33.000Z</time>
      </trkpt>
      <trkpt lat="45.77357" lon="5.4739">
        <ele>220.80000305176</ele>
        <time>2023-05-31T07:44:37.000Z</time>
      </trkpt>
      <trkpt lat="45.77349" lon="5.47395">
        <ele>220.60000610352</ele>
        <time>2023-05-31T07:44:38.000Z</time>
      </trkpt>
      <trkpt lat="45.77312" lon="5.47412">
        <ele>219</ele>
        <time>2023-05-31T07:44:42.000Z</time>
      </trkpt>
      <trkpt lat="45.77285" lon="5.47414">
        <ele>218</ele>
        <time>2023-05-31T07:44:45.000Z</time>
      </trkpt>
      <trkpt lat="45.77275" lon="5.47414">
        <ele>217.60000610352</ele>
        <time>2023-05-31T07:44:46.000Z</time>
      </trkpt>
      <trkpt lat="45.77265" lon="5.47414">
        <ele>217</ele>
        <time>2023-05-31T07:44:47.000Z</time>
      </trkpt>
      <trkpt lat="45.77236" lon="5.47412">
        <ele>215.80000305176</ele>
        <time>2023-05-31T07:44:50.000Z</time>
      </trkpt>
      <trkpt lat="45.77226" lon="5.47412">
        <ele>215.39999389648</ele>
        <time>2023-05-31T07:44:51.000Z</time>
      </trkpt>
      <trkpt lat="45.77197" lon="5.47412">
        <ele>214.60000610352</ele>
        <time>2023-05-31T07:44:54.000Z</time>
      </trkpt>
      <trkpt lat="45.77159" lon="5.47415">
        <ele>213.39999389648</ele>
        <time>2023-05-31T07:44:58.000Z</time>
      </trkpt>
      <trkpt lat="45.77151" lon="5.47417">
        <ele>213.19999694824</ele>
        <time>2023-05-31T07:44:59.000Z</time>
      </trkpt>
      <trkpt lat="45.77126" lon="5.47423">
        <ele>212</ele>
        <time>2023-05-31T07:45:02.000Z</time>
      </trkpt>
      <trkpt lat="45.77093" lon="5.47432">
        <ele>211.39999389648</ele>
        <time>2023-05-31T07:45:06.000Z</time>
      </trkpt>
      <trkpt lat="45.77047" lon="5.47448">
        <ele>211</ele>
        <time>2023-05-31T07:45:12.000Z</time>
      </trkpt>
      <trkpt lat="45.77033" lon="5.47453">
        <ele>210.80000305176</ele>
        <time>2023-05-31T07:45:14.000Z</time>
      </trkpt>
      <trkpt lat="45.76975" lon="5.47471">
        <ele>210.19999694824</ele>
        <time>2023-05-31T07:45:22.000Z</time>
      </trkpt>
      <trkpt lat="45.76941" lon="5.47489">
        <ele>210</ele>
        <time>2023-05-31T07:45:27.000Z</time>
      </trkpt>
      <trkpt lat="45.76921" lon="5.47501">
        <ele>209.80000305176</ele>
        <time>2023-05-31T07:45:30.000Z</time>
      </trkpt>
      <trkpt lat="45.76868" lon="5.47534">
        <ele>209.39999389648</ele>
        <time>2023-05-31T07:45:38.000Z</time>
      </trkpt>
      <trkpt lat="45.76835" lon="5.47553">
        <ele>209</ele>
        <time>2023-05-31T07:45:44.000Z</time>
      </trkpt>
      <trkpt lat="45.76807" lon="5.47566">
        <ele>209</ele>
        <time>2023-05-31T07:45:48.000Z</time>
      </trkpt>
      <trkpt lat="45.76767" lon="5.47582">
        <ele>208.39999389648</ele>
        <time>2023-05-31T07:45:54.000Z</time>
      </trkpt>
      <trkpt lat="45.76747" lon="5.4759">
        <ele>208</ele>
        <time>2023-05-31T07:45:57.000Z</time>
      </trkpt>
      <trkpt lat="45.76703" lon="5.4761">
        <ele>207.80000305176</ele>
        <time>2023-05-31T07:46:04.000Z</time>
      </trkpt>
      <trkpt lat="45.76655" lon="5.47643">
        <ele>207</ele>
        <time>2023-05-31T07:46:12.000Z</time>
      </trkpt>
      <trkpt lat="45.76624" lon="5.47679">
        <ele>206.80000305176</ele>
        <time>2023-05-31T07:46:18.000Z</time>
      </trkpt>
      <trkpt lat="45.76598" lon="5.47722">
        <ele>206.80000305176</ele>
        <time>2023-05-31T07:46:24.000Z</time>
      </trkpt>
      <trkpt lat="45.76593" lon="5.47729">
        <ele>206.80000305176</ele>
        <time>2023-05-31T07:46:25.000Z</time>
      </trkpt>
      <trkpt lat="45.76575" lon="5.47766">
        <ele>206.60000610352</ele>
        <time>2023-05-31T07:46:30.000Z</time>
      </trkpt>
      <trkpt lat="45.76549" lon="5.47838">
        <ele>206.60000610352</ele>
        <time>2023-05-31T07:46:39.000Z</time>
      </trkpt>
      <trkpt lat="45.76547" lon="5.47844">
        <ele>206.60000610352</ele>
        <time>2023-05-31T07:46:40.000Z</time>
      </trkpt>
      <trkpt lat="45.76539" lon="5.4786">
        <ele>206.80000305176</ele>
        <time>2023-05-31T07:46:42.000Z</time>
      </trkpt>
      <trkpt lat="45.76533" lon="5.47875">
        <ele>206.80000305176</ele>
        <time>2023-05-31T07:46:44.000Z</time>
      </trkpt>
      <trkpt lat="45.76509" lon="5.47933">
        <ele>207.19999694824</ele>
        <time>2023-05-31T07:46:52.000Z</time>
      </trkpt>
      <trkpt lat="45.76481" lon="5.47992">
        <ele>207.60000610352</ele>
        <time>2023-05-31T07:47:01.000Z</time>
      </trkpt>
      <trkpt lat="45.76477" lon="5.47999">
        <ele>207.60000610352</ele>
        <time>2023-05-31T07:47:02.000Z</time>
      </trkpt>
      <trkpt lat="45.76473" lon="5.48005">
        <ele>207.80000305176</ele>
        <time>2023-05-31T07:47:03.000Z</time>
      </trkpt>
      <trkpt lat="45.76465" lon="5.48023">
        <ele>208</ele>
        <time>2023-05-31T07:47:06.000Z</time>
      </trkpt>
      <trkpt lat="45.76462" lon="5.48029">
        <ele>208</ele>
        <time>2023-05-31T07:47:07.000Z</time>
      </trkpt>
      <trkpt lat="45.76448" lon="5.48055">
        <ele>208.80000305176</ele>
        <time>2023-05-31T07:47:12.000Z</time>
      </trkpt>
      <trkpt lat="45.76445" lon="5.4806">
        <ele>209</ele>
        <time>2023-05-31T07:47:13.000Z</time>
      </trkpt>
      <trkpt lat="45.76443" lon="5.48064">
        <ele>209</ele>
        <time>2023-05-31T07:47:14.000Z</time>
      </trkpt>
      <trkpt lat="45.76427" lon="5.4809">
        <ele>209.80000305176</ele>
        <time>2023-05-31T07:47:19.000Z</time>
      </trkpt>
      <trkpt lat="45.76417" lon="5.48106">
        <ele>210.19999694824</ele>
        <time>2023-05-31T07:47:22.000Z</time>
      </trkpt>
      <trkpt lat="45.764" lon="5.48134">
        <ele>211</ele>
        <time>2023-05-31T07:47:27.000Z</time>
      </trkpt>
      <trkpt lat="45.76386" lon="5.48155">
        <ele>211.39999389648</ele>
        <time>2023-05-31T07:47:31.000Z</time>
      </trkpt>
      <trkpt lat="45.76377" lon="5.48171">
        <ele>212</ele>
        <time>2023-05-31T07:47:34.000Z</time>
      </trkpt>
      <trkpt lat="45.76363" lon="5.48192">
        <ele>212.39999389648</ele>
        <time>2023-05-31T07:47:38.000Z</time>
      </trkpt>
      <trkpt lat="45.76359" lon="5.48197">
        <ele>212.60000610352</ele>
        <time>2023-05-31T07:47:39.000Z</time>
      </trkpt>
      <trkpt lat="45.76352" lon="5.48208">
        <ele>213</ele>
        <time>2023-05-31T07:47:41.000Z</time>
      </trkpt>
      <trkpt lat="45.76331" lon="5.48241">
        <ele>213.60000610352</ele>
        <time>2023-05-31T07:47:47.000Z</time>
      </trkpt>
      <trkpt lat="45.76323" lon="5.48257">
        <ele>214.19999694824</ele>
        <time>2023-05-31T07:47:50.000Z</time>
      </trkpt>
      <trkpt lat="45.76301" lon="5.48299">
        <ele>215.19999694824</ele>
        <time>2023-05-31T07:47:57.000Z</time>
      </trkpt>
      <trkpt lat="45.76298" lon="5.48305">
        <ele>215.19999694824</ele>
        <time>2023-05-31T07:47:58.000Z</time>
      </trkpt>
      <trkpt lat="45.76289" lon="5.48324">
        <ele>215.39999389648</ele>
        <time>2023-05-31T07:48:01.000Z</time>
      </trkpt>
      <trkpt lat="45.76275" lon="5.48355">
        <ele>215.60000610352</ele>
        <time>2023-05-31T07:48:06.000Z</time>
      </trkpt>
      <trkpt lat="45.76262" lon="5.48394">
        <ele>216.19999694824</ele>
        <time>2023-05-31T07:48:12.000Z</time>
      </trkpt>
      <trkpt lat="45.76256" lon="5.48413">
        <ele>216.60000610352</ele>
        <time>2023-05-31T07:48:15.000Z</time>
      </trkpt>
      <trkpt lat="45.7625" lon="5.48438">
        <ele>217.39999389648</ele>
        <time>2023-05-31T07:48:19.000Z</time>
      </trkpt>
      <trkpt lat="45.76244" lon="5.48463">
        <ele>218.19999694824</ele>
        <time>2023-05-31T07:48:23.000Z</time>
      </trkpt>
      <trkpt lat="45.76242" lon="5.48475">
        <ele>218.60000610352</ele>
        <time>2023-05-31T07:48:25.000Z</time>
      </trkpt>
      <trkpt lat="45.76237" lon="5.48497">
        <ele>219.60000610352</ele>
        <time>2023-05-31T07:48:29.000Z</time>
      </trkpt>
      <trkpt lat="45.76235" lon="5.48502">
        <ele>219.80000305176</ele>
        <time>2023-05-31T07:48:30.000Z</time>
      </trkpt>
      <trkpt lat="45.76231" lon="5.48529">
        <ele>221</ele>
        <time>2023-05-31T07:48:35.000Z</time>
      </trkpt>
      <trkpt lat="45.7623" lon="5.48534">
        <ele>221.39999389648</ele>
        <time>2023-05-31T07:48:36.000Z</time>
      </trkpt>
      <trkpt lat="45.76226" lon="5.48551">
        <ele>222.39999389648</ele>
        <time>2023-05-31T07:48:39.000Z</time>
      </trkpt>
      <trkpt lat="45.76225" lon="5.48556">
        <ele>222.60000610352</ele>
        <time>2023-05-31T07:48:40.000Z</time>
      </trkpt>
      <trkpt lat="45.7622" lon="5.48579">
        <ele>223.39999389648</ele>
        <time>2023-05-31T07:48:44.000Z</time>
      </trkpt>
      <trkpt lat="45.76218" lon="5.48584">
        <ele>223.60000610352</ele>
        <time>2023-05-31T07:48:45.000Z</time>
      </trkpt>
      <trkpt lat="45.76213" lon="5.48606">
        <ele>224.39999389648</ele>
        <time>2023-05-31T07:48:49.000Z</time>
      </trkpt>
      <trkpt lat="45.76206" lon="5.48638">
        <ele>225.60000610352</ele>
        <time>2023-05-31T07:48:55.000Z</time>
      </trkpt>
      <trkpt lat="45.76196" lon="5.48676">
        <ele>226.60000610352</ele>
        <time>2023-05-31T07:49:02.000Z</time>
      </trkpt>
      <trkpt lat="45.76195" lon="5.48682">
        <ele>226.80000305176</ele>
        <time>2023-05-31T07:49:03.000Z</time>
      </trkpt>
      <trkpt lat="45.76186" lon="5.48712">
        <ele>227.80000305176</ele>
        <time>2023-05-31T07:49:08.000Z</time>
      </trkpt>
      <trkpt lat="45.76181" lon="5.4873">
        <ele>228</ele>
        <time>2023-05-31T07:49:11.000Z</time>
      </trkpt>
      <trkpt lat="45.76157" lon="5.48794">
        <ele>228.80000305176</ele>
        <time>2023-05-31T07:49:21.000Z</time>
      </trkpt>
      <trkpt lat="45.7615" lon="5.48813">
        <ele>228.80000305176</ele>
        <time>2023-05-31T07:49:24.000Z</time>
      </trkpt>
      <trkpt lat="45.76133" lon="5.4885">
        <ele>229</ele>
        <time>2023-05-31T07:49:30.000Z</time>
      </trkpt>
      <trkpt lat="45.76131" lon="5.48856">
        <ele>229</ele>
        <time>2023-05-31T07:49:31.000Z</time>
      </trkpt>
      <trkpt lat="45.76098" lon="5.48924">
        <ele>229.39999389648</ele>
        <time>2023-05-31T07:49:42.000Z</time>
      </trkpt>
      <trkpt lat="45.76089" lon="5.48944">
        <ele>229.60000610352</ele>
        <time>2023-05-31T07:49:45.000Z</time>
      </trkpt>
      <trkpt lat="45.76059" lon="5.4901">
        <ele>230</ele>
        <time>2023-05-31T07:49:55.000Z</time>
      </trkpt>
      <trkpt lat="45.76034" lon="5.49067">
        <ele>230.19999694824</ele>
        <time>2023-05-31T07:50:04.000Z</time>
      </trkpt>
      <trkpt lat="45.76" lon="5.49127">
        <ele>231</ele>
        <time>2023-05-31T07:50:14.000Z</time>
      </trkpt>
      <trkpt lat="45.75976" lon="5.49179">
        <ele>231.39999389648</ele>
        <time>2023-05-31T07:50:22.000Z</time>
      </trkpt>
      <trkpt lat="45.75965" lon="5.4923">
        <ele>231.80000305176</ele>
        <time>2023-05-31T07:50:29.000Z</time>
      </trkpt>
      <trkpt lat="45.75964" lon="5.49238">
        <ele>232</ele>
        <time>2023-05-31T07:50:30.000Z</time>
      </trkpt>
      <trkpt lat="45.75962" lon="5.4926">
        <ele>232</ele>
        <time>2023-05-31T07:50:33.000Z</time>
      </trkpt>
      <trkpt lat="45.75959" lon="5.49299">
        <ele>232.39999389648</ele>
        <time>2023-05-31T07:50:38.000Z</time>
      </trkpt>
      <trkpt lat="45.75954" lon="5.49372">
        <ele>232.80000305176</ele>
        <time>2023-05-31T07:50:47.000Z</time>
      </trkpt>
      <trkpt lat="45.75943" lon="5.49441">
        <ele>232.80000305176</ele>
        <time>2023-05-31T07:50:56.000Z</time>
      </trkpt>
      <trkpt lat="45.75941" lon="5.4945">
        <ele>232.60000610352</ele>
        <time>2023-05-31T07:50:57.000Z</time>
      </trkpt>
      <trkpt lat="45.75932" lon="5.49477">
        <ele>232.80000305176</ele>
        <time>2023-05-31T07:51:01.000Z</time>
      </trkpt>
      <trkpt lat="45.75928" lon="5.49484">
        <ele>233</ele>
        <time>2023-05-31T07:51:02.000Z</time>
      </trkpt>
      <trkpt lat="45.75903" lon="5.49527">
        <ele>233.60000610352</ele>
        <time>2023-05-31T07:51:09.000Z</time>
      </trkpt>
      <trkpt lat="45.75875" lon="5.49567">
        <ele>233.80000305176</ele>
        <time>2023-05-31T07:51:16.000Z</time>
      </trkpt>
      <trkpt lat="45.75867" lon="5.49578">
        <ele>234</ele>
        <time>2023-05-31T07:51:18.000Z</time>
      </trkpt>
      <trkpt lat="45.75829" lon="5.49621">
        <ele>234.19999694824</ele>
        <time>2023-05-31T07:51:27.000Z</time>
      </trkpt>
      <trkpt lat="45.75795" lon="5.49658">
        <ele>234</ele>
        <time>2023-05-31T07:51:34.000Z</time>
      </trkpt>
      <trkpt lat="45.75775" lon="5.49677">
        <ele>234</ele>
        <time>2023-05-31T07:51:38.000Z</time>
      </trkpt>
      <trkpt lat="45.75765" lon="5.49686">
        <ele>233.80000305176</ele>
        <time>2023-05-31T07:51:40.000Z</time>
      </trkpt>
      <trkpt lat="45.75724" lon="5.4972">
        <ele>234</ele>
        <time>2023-05-31T07:51:48.000Z</time>
      </trkpt>
      <trkpt lat="45.75685" lon="5.49751">
        <ele>234</ele>
        <time>2023-05-31T07:51:55.000Z</time>
      </trkpt>
      <trkpt lat="45.75642" lon="5.49781">
        <ele>234.19999694824</ele>
        <time>2023-05-31T07:52:03.000Z</time>
      </trkpt>
      <trkpt lat="45.75597" lon="5.49812">
        <ele>234</ele>
        <time>2023-05-31T07:52:12.000Z</time>
      </trkpt>
      <trkpt lat="45.75543" lon="5.49841">
        <ele>234.19999694824</ele>
        <time>2023-05-31T07:52:22.000Z</time>
      </trkpt>
      <trkpt lat="45.75533" lon="5.49846">
        <ele>234.19999694824</ele>
        <time>2023-05-31T07:52:24.000Z</time>
      </trkpt>
      <trkpt lat="45.7549" lon="5.49863">
        <ele>234.60000610352</ele>
        <time>2023-05-31T07:52:32.000Z</time>
      </trkpt>
      <trkpt lat="45.75472" lon="5.49869">
        <ele>234.60000610352</ele>
        <time>2023-05-31T07:52:35.000Z</time>
      </trkpt>
      <trkpt lat="45.75428" lon="5.49885">
        <ele>235.39999389648</ele>
        <time>2023-05-31T07:52:43.000Z</time>
      </trkpt>
      <trkpt lat="45.75412" lon="5.49892">
        <ele>235.60000610352</ele>
        <time>2023-05-31T07:52:46.000Z</time>
      </trkpt>
      <trkpt lat="45.7537" lon="5.49917">
        <ele>236.19999694824</ele>
        <time>2023-05-31T07:52:54.000Z</time>
      </trkpt>
      <trkpt lat="45.75351" lon="5.49933">
        <ele>236</ele>
        <time>2023-05-31T07:52:58.000Z</time>
      </trkpt>
      <trkpt lat="45.75341" lon="5.49942">
        <ele>236</ele>
        <time>2023-05-31T07:53:00.000Z</time>
      </trkpt>
      <trkpt lat="45.7531" lon="5.49976">
        <ele>235.39999389648</ele>
        <time>2023-05-31T07:53:07.000Z</time>
      </trkpt>
      <trkpt lat="45.75282" lon="5.50016">
        <ele>234.60000610352</ele>
        <time>2023-05-31T07:53:13.000Z</time>
      </trkpt>
      <trkpt lat="45.75265" lon="5.50036">
        <ele>234</ele>
        <time>2023-05-31T07:53:16.000Z</time>
      </trkpt>
      <trkpt lat="45.75254" lon="5.5005">
        <ele>233.60000610352</ele>
        <time>2023-05-31T07:53:18.000Z</time>
      </trkpt>
      <trkpt lat="45.75248" lon="5.50055">
        <ele>233.39999389648</ele>
        <time>2023-05-31T07:53:19.000Z</time>
      </trkpt>
      <trkpt lat="45.75238" lon="5.50068">
        <ele>232.80000305176</ele>
        <time>2023-05-31T07:53:21.000Z</time>
      </trkpt>
      <trkpt lat="45.75216" lon="5.50095">
        <ele>232</ele>
        <time>2023-05-31T07:53:25.000Z</time>
      </trkpt>
      <trkpt lat="45.75207" lon="5.50107">
        <ele>231.60000610352</ele>
        <time>2023-05-31T07:53:27.000Z</time>
      </trkpt>
      <trkpt lat="45.7517" lon="5.50152">
        <ele>230.80000305176</ele>
        <time>2023-05-31T07:53:34.000Z</time>
      </trkpt>
      <trkpt lat="45.7513" lon="5.50201">
        <ele>230.80000305176</ele>
        <time>2023-05-31T07:53:43.000Z</time>
      </trkpt>
      <trkpt lat="45.75088" lon="5.50251">
        <ele>231.39999389648</ele>
        <time>2023-05-31T07:53:53.000Z</time>
      </trkpt>
      <trkpt lat="45.75057" lon="5.50292">
        <ele>232</ele>
        <time>2023-05-31T07:54:01.000Z</time>
      </trkpt>
      <trkpt lat="45.75027" lon="5.50328">
        <ele>232.60000610352</ele>
        <time>2023-05-31T07:54:08.000Z</time>
      </trkpt>
      <trkpt lat="45.75019" lon="5.50339">
        <ele>232.80000305176</ele>
        <time>2023-05-31T07:54:10.000Z</time>
      </trkpt>
      <trkpt lat="45.74992" lon="5.50373">
        <ele>233.80000305176</ele>
        <time>2023-05-31T07:54:17.000Z</time>
      </trkpt>
      <trkpt lat="45.74988" lon="5.50377">
        <ele>234</ele>
        <time>2023-05-31T07:54:18.000Z</time>
      </trkpt>
      <trkpt lat="45.74958" lon="5.50414">
        <ele>235</ele>
        <time>2023-05-31T07:54:26.000Z</time>
      </trkpt>
      <trkpt lat="45.74951" lon="5.50424">
        <ele>235.19999694824</ele>
        <time>2023-05-31T07:54:28.000Z</time>
      </trkpt>
      <trkpt lat="45.74939" lon="5.50438">
        <ele>235.60000610352</ele>
        <time>2023-05-31T07:54:31.000Z</time>
      </trkpt>
      <trkpt lat="45.74932" lon="5.50448">
        <ele>236.19999694824</ele>
        <time>2023-05-31T07:54:33.000Z</time>
      </trkpt>
      <trkpt lat="45.74921" lon="5.50462">
        <ele>236.60000610352</ele>
        <time>2023-05-31T07:54:36.000Z</time>
      </trkpt>
      <trkpt lat="45.74909" lon="5.50475">
        <ele>237.19999694824</ele>
        <time>2023-05-31T07:54:39.000Z</time>
      </trkpt>
      <trkpt lat="45.74888" lon="5.50497">
        <ele>238</ele>
        <time>2023-05-31T07:54:44.000Z</time>
      </trkpt>
      <trkpt lat="45.74842" lon="5.50542">
        <ele>238.19999694824</ele>
        <time>2023-05-31T07:54:54.000Z</time>
      </trkpt>
      <trkpt lat="45.74837" lon="5.50547">
        <ele>238.19999694824</ele>
        <time>2023-05-31T07:54:55.000Z</time>
      </trkpt>
      <trkpt lat="45.74789" lon="5.50586">
        <ele>237.80000305176</ele>
        <time>2023-05-31T07:55:04.000Z</time>
      </trkpt>
      <trkpt lat="45.7474" lon="5.5062">
        <ele>236.60000610352</ele>
        <time>2023-05-31T07:55:12.000Z</time>
      </trkpt>
      <trkpt lat="45.7471" lon="5.50642">
        <ele>236.19999694824</ele>
        <time>2023-05-31T07:55:17.000Z</time>
      </trkpt>
      <trkpt lat="45.74692" lon="5.50655">
        <ele>235.80000305176</ele>
        <time>2023-05-31T07:55:20.000Z</time>
      </trkpt>
      <trkpt lat="45.74654" lon="5.5069">
        <ele>235.39999389648</ele>
        <time>2023-05-31T07:55:27.000Z</time>
      </trkpt>
      <trkpt lat="45.74606" lon="5.50736">
        <ele>235.39999389648</ele>
        <time>2023-05-31T07:55:36.000Z</time>
      </trkpt>
      <trkpt lat="45.74602" lon="5.5074">
        <ele>235.39999389648</ele>
        <time>2023-05-31T07:55:37.000Z</time>
      </trkpt>
      <trkpt lat="45.74552" lon="5.50781">
        <ele>235.80000305176</ele>
        <time>2023-05-31T07:55:46.000Z</time>
      </trkpt>
      <trkpt lat="45.74506" lon="5.50814">
        <ele>236</ele>
        <time>2023-05-31T07:55:54.000Z</time>
      </trkpt>
      <trkpt lat="45.74455" lon="5.50852">
        <ele>236.39999389648</ele>
        <time>2023-05-31T07:56:03.000Z</time>
      </trkpt>
      <trkpt lat="45.7441" lon="5.50898">
        <ele>237.19999694824</ele>
        <time>2023-05-31T07:56:12.000Z</time>
      </trkpt>
      <trkpt lat="45.74405" lon="5.50902">
        <ele>237.19999694824</ele>
        <time>2023-05-31T07:56:13.000Z</time>
      </trkpt>
      <trkpt lat="45.74383" lon="5.50927">
        <ele>237.60000610352</ele>
        <time>2023-05-31T07:56:18.000Z</time>
      </trkpt>
      <trkpt lat="45.7437" lon="5.50942">
        <ele>237.80000305176</ele>
        <time>2023-05-31T07:56:21.000Z</time>
      </trkpt>
      <trkpt lat="45.74361" lon="5.50951">
        <ele>238.19999694824</ele>
        <time>2023-05-31T07:56:23.000Z</time>
      </trkpt>
      <trkpt lat="45.74325" lon="5.50992">
        <ele>239</ele>
        <time>2023-05-31T07:56:31.000Z</time>
      </trkpt>
      <trkpt lat="45.7428" lon="5.5104">
        <ele>239.19999694824</ele>
        <time>2023-05-31T07:56:40.000Z</time>
      </trkpt>
      <trkpt lat="45.74269" lon="5.51051">
        <ele>239</ele>
        <time>2023-05-31T07:56:42.000Z</time>
      </trkpt>
      <trkpt lat="45.7423" lon="5.51086">
        <ele>238</ele>
        <time>2023-05-31T07:56:49.000Z</time>
      </trkpt>
      <trkpt lat="45.74202" lon="5.51112">
        <ele>237</ele>
        <time>2023-05-31T07:56:53.000Z</time>
      </trkpt>
      <trkpt lat="45.74181" lon="5.51132">
        <ele>236.19999694824</ele>
        <time>2023-05-31T07:56:56.000Z</time>
      </trkpt>
      <trkpt lat="45.74166" lon="5.51145">
        <ele>235.60000610352</ele>
        <time>2023-05-31T07:56:58.000Z</time>
      </trkpt>
      <trkpt lat="45.74137" lon="5.51172">
        <ele>234.19999694824</ele>
        <time>2023-05-31T07:57:02.000Z</time>
      </trkpt>
      <trkpt lat="45.7413" lon="5.5118">
        <ele>233.60000610352</ele>
        <time>2023-05-31T07:57:03.000Z</time>
      </trkpt>
      <trkpt lat="45.74123" lon="5.51189">
        <ele>233.19999694824</ele>
        <time>2023-05-31T07:57:04.000Z</time>
      </trkpt>
      <trkpt lat="45.74103" lon="5.51217">
        <ele>231.80000305176</ele>
        <time>2023-05-31T07:57:07.000Z</time>
      </trkpt>
      <trkpt lat="45.74097" lon="5.51227">
        <ele>231.60000610352</ele>
        <time>2023-05-31T07:57:08.000Z</time>
      </trkpt>
      <trkpt lat="45.7408" lon="5.51258">
        <ele>230.80000305176</ele>
        <time>2023-05-31T07:57:11.000Z</time>
      </trkpt>
      <trkpt lat="45.74061" lon="5.5129">
        <ele>229.60000610352</ele>
        <time>2023-05-31T07:57:14.000Z</time>
      </trkpt>
      <trkpt lat="45.74055" lon="5.513">
        <ele>229.19999694824</ele>
        <time>2023-05-31T07:57:15.000Z</time>
      </trkpt>
      <trkpt lat="45.74041" lon="5.51319">
        <ele>228.60000610352</ele>
        <time>2023-05-31T07:57:17.000Z</time>
      </trkpt>
      <trkpt lat="45.74016" lon="5.51357">
        <ele>227.19999694824</ele>
        <time>2023-05-31T07:57:21.000Z</time>
      </trkpt>
      <trkpt lat="45.73996" lon="5.5139">
        <ele>226.19999694824</ele>
        <time>2023-05-31T07:57:24.000Z</time>
      </trkpt>
      <trkpt lat="45.7398" lon="5.51419">
        <ele>225</ele>
        <time>2023-05-31T07:57:27.000Z</time>
      </trkpt>
      <trkpt lat="45.73962" lon="5.51451">
        <ele>223.80000305176</ele>
        <time>2023-05-31T07:57:30.000Z</time>
      </trkpt>
      <trkpt lat="45.7394" lon="5.51488">
        <ele>222.60000610352</ele>
        <time>2023-05-31T07:57:34.000Z</time>
      </trkpt>
      <trkpt lat="45.73924" lon="5.51512">
        <ele>222</ele>
        <time>2023-05-31T07:57:37.000Z</time>
      </trkpt>
      <trkpt lat="45.73901" lon="5.51545">
        <ele>221.60000610352</ele>
        <time>2023-05-31T07:57:41.000Z</time>
      </trkpt>
      <trkpt lat="45.73885" lon="5.51568">
        <ele>221.60000610352</ele>
        <time>2023-05-31T07:57:44.000Z</time>
      </trkpt>
      <trkpt lat="45.73849" lon="5.5161">
        <ele>221.19999694824</ele>
        <time>2023-05-31T07:57:50.000Z</time>
      </trkpt>
      <trkpt lat="45.73813" lon="5.51631">
        <ele>220.80000305176</ele>
        <time>2023-05-31T07:57:55.000Z</time>
      </trkpt>
      <trkpt lat="45.73806" lon="5.51634">
        <ele>220.60000610352</ele>
        <time>2023-05-31T07:57:56.000Z</time>
      </trkpt>
      <trkpt lat="45.73777" lon="5.5164">
        <ele>220.19999694824</ele>
        <time>2023-05-31T07:58:00.000Z</time>
      </trkpt>
      <trkpt lat="45.73719" lon="5.51646">
        <ele>220</ele>
        <time>2023-05-31T07:58:08.000Z</time>
      </trkpt>
      <trkpt lat="45.73705" lon="5.51648">
        <ele>220</ele>
        <time>2023-05-31T07:58:10.000Z</time>
      </trkpt>
      <trkpt lat="45.73666" lon="5.51664">
        <ele>220.60000610352</ele>
        <time>2023-05-31T07:58:16.000Z</time>
      </trkpt>
      <trkpt lat="45.7363" lon="5.51694">
        <ele>220.60000610352</ele>
        <time>2023-05-31T07:58:22.000Z</time>
      </trkpt>
      <trkpt lat="45.73603" lon="5.51733">
        <ele>220.39999389648</ele>
        <time>2023-05-31T07:58:27.000Z</time>
      </trkpt>
      <trkpt lat="45.73578" lon="5.51789">
        <ele>219.80000305176</ele>
        <time>2023-05-31T07:58:33.000Z</time>
      </trkpt>
      <trkpt lat="45.73574" lon="5.51798">
        <ele>219.39999389648</ele>
        <time>2023-05-31T07:58:34.000Z</time>
      </trkpt>
      <trkpt lat="45.73549" lon="5.51851">
        <ele>218.80000305176</ele>
        <time>2023-05-31T07:58:40.000Z</time>
      </trkpt>
      <trkpt lat="45.73524" lon="5.51882">
        <ele>218.39999389648</ele>
        <time>2023-05-31T07:58:44.000Z</time>
      </trkpt>
      <trkpt lat="45.73517" lon="5.51888">
        <ele>218.19999694824</ele>
        <time>2023-05-31T07:58:45.000Z</time>
      </trkpt>
      <trkpt lat="45.73481" lon="5.51921">
        <ele>217.19999694824</ele>
        <time>2023-05-31T07:58:50.000Z</time>
      </trkpt>
      <trkpt lat="45.73459" lon="5.51943">
        <ele>216</ele>
        <time>2023-05-31T07:58:53.000Z</time>
      </trkpt>
      <trkpt lat="45.73451" lon="5.5195">
        <ele>216</ele>
        <time>2023-05-31T07:58:54.000Z</time>
      </trkpt>
      <trkpt lat="45.73429" lon="5.51976">
        <ele>214.80000305176</ele>
        <time>2023-05-31T07:58:57.000Z</time>
      </trkpt>
      <trkpt lat="45.73407" lon="5.52003">
        <ele>213.19999694824</ele>
        <time>2023-05-31T07:59:00.000Z</time>
      </trkpt>
      <trkpt lat="45.734" lon="5.52012">
        <ele>212.80000305176</ele>
        <time>2023-05-31T07:59:01.000Z</time>
      </trkpt>
      <trkpt lat="45.7338" lon="5.52037">
        <ele>212</ele>
        <time>2023-05-31T07:59:04.000Z</time>
      </trkpt>
      <trkpt lat="45.73356" lon="5.52072">
        <ele>211.19999694824</ele>
        <time>2023-05-31T07:59:08.000Z</time>
      </trkpt>
      <trkpt lat="45.7335" lon="5.5208">
        <ele>211</ele>
        <time>2023-05-31T07:59:09.000Z</time>
      </trkpt>
      <trkpt lat="45.73312" lon="5.52135">
        <ele>210.60000610352</ele>
        <time>2023-05-31T07:59:16.000Z</time>
      </trkpt>
      <trkpt lat="45.73275" lon="5.52203">
        <ele>210.39999389648</ele>
        <time>2023-05-31T07:59:24.000Z</time>
      </trkpt>
      <trkpt lat="45.73243" lon="5.52277">
        <ele>210.60000610352</ele>
        <time>2023-05-31T07:59:33.000Z</time>
      </trkpt>
      <trkpt lat="45.73217" lon="5.52319">
        <ele>211.39999389648</ele>
        <time>2023-05-31T07:59:39.000Z</time>
      </trkpt>
      <trkpt lat="45.73194" lon="5.52353">
        <ele>212</ele>
        <time>2023-05-31T07:59:44.000Z</time>
      </trkpt>
      <trkpt lat="45.73171" lon="5.5239">
        <ele>212</ele>
        <time>2023-05-31T07:59:49.000Z</time>
      </trkpt>
      <trkpt lat="45.73147" lon="5.52443">
        <ele>212</ele>
        <time>2023-05-31T07:59:55.000Z</time>
      </trkpt>
      <trkpt lat="45.73119" lon="5.525">
        <ele>210.80000305176</ele>
        <time>2023-05-31T08:00:01.000Z</time>
      </trkpt>
      <trkpt lat="45.73082" lon="5.52565">
        <ele>210.19999694824</ele>
        <time>2023-05-31T08:00:09.000Z</time>
      </trkpt>
      <trkpt lat="45.73073" lon="5.5258">
        <ele>210.39999389648</ele>
        <time>2023-05-31T08:00:11.000Z</time>
      </trkpt>
      <trkpt lat="45.73038" lon="5.52641">
        <ele>210.60000610352</ele>
        <time>2023-05-31T08:00:19.000Z</time>
      </trkpt>
      <trkpt lat="45.73004" lon="5.52701">
        <ele>210.80000305176</ele>
        <time>2023-05-31T08:00:27.000Z</time>
      </trkpt>
      <trkpt lat="45.73" lon="5.52709">
        <ele>210.80000305176</ele>
        <time>2023-05-31T08:00:28.000Z</time>
      </trkpt>
      <trkpt lat="45.72969" lon="5.52767">
        <ele>211.19999694824</ele>
        <time>2023-05-31T08:00:36.000Z</time>
      </trkpt>
      <trkpt lat="45.72949" lon="5.52805">
        <ele>211.80000305176</ele>
        <time>2023-05-31T08:00:41.000Z</time>
      </trkpt>
      <trkpt lat="45.72935" lon="5.52833">
        <ele>211.80000305176</ele>
        <time>2023-05-31T08:00:45.000Z</time>
      </trkpt>
      <trkpt lat="45.72899" lon="5.52888">
        <ele>212.19999694824</ele>
        <time>2023-05-31T08:00:53.000Z</time>
      </trkpt>
      <trkpt lat="45.72859" lon="5.5294">
        <ele>212.39999389648</ele>
        <time>2023-05-31T08:01:01.000Z</time>
      </trkpt>
      <trkpt lat="45.72846" lon="5.52958">
        <ele>212.39999389648</ele>
        <time>2023-05-31T08:01:04.000Z</time>
      </trkpt>
      <trkpt lat="45.7281" lon="5.53016">
        <ele>212.60000610352</ele>
        <time>2023-05-31T08:01:12.000Z</time>
      </trkpt>
      <trkpt lat="45.72803" lon="5.53029">
        <ele>212.60000610352</ele>
        <time>2023-05-31T08:01:14.000Z</time>
      </trkpt>
      <trkpt lat="45.72798" lon="5.53036">
        <ele>212.80000305176</ele>
        <time>2023-05-31T08:01:15.000Z</time>
      </trkpt>
      <trkpt lat="45.72761" lon="5.53094">
        <ele>213.60000610352</ele>
        <time>2023-05-31T08:01:24.000Z</time>
      </trkpt>
      <trkpt lat="45.72757" lon="5.531">
        <ele>214</ele>
        <time>2023-05-31T08:01:25.000Z</time>
      </trkpt>
      <trkpt lat="45.72734" lon="5.53133">
        <ele>214.80000305176</ele>
        <time>2023-05-31T08:01:31.000Z</time>
      </trkpt>
      <trkpt lat="45.72729" lon="5.53138">
        <ele>215.19999694824</ele>
        <time>2023-05-31T08:01:32.000Z</time>
      </trkpt>
      <trkpt lat="45.72712" lon="5.53156">
        <ele>215.80000305176</ele>
        <time>2023-05-31T08:01:36.000Z</time>
      </trkpt>
      <trkpt lat="45.72698" lon="5.53165">
        <ele>216</ele>
        <time>2023-05-31T08:01:39.000Z</time>
      </trkpt>
      <trkpt lat="45.72693" lon="5.53168">
        <ele>216.39999389648</ele>
        <time>2023-05-31T08:01:40.000Z</time>
      </trkpt>
      <trkpt lat="45.72672" lon="5.53176">
        <ele>217.39999389648</ele>
        <time>2023-05-31T08:01:44.000Z</time>
      </trkpt>
      <trkpt lat="45.72667" lon="5.53178">
        <ele>217.80000305176</ele>
        <time>2023-05-31T08:01:45.000Z</time>
      </trkpt>
      <trkpt lat="45.72637" lon="5.53186">
        <ele>218.80000305176</ele>
        <time>2023-05-31T08:01:51.000Z</time>
      </trkpt>
      <trkpt lat="45.72611" lon="5.53194">
        <ele>219.60000610352</ele>
        <time>2023-05-31T08:01:56.000Z</time>
      </trkpt>
      <trkpt lat="45.72596" lon="5.53199">
        <ele>220</ele>
        <time>2023-05-31T08:01:59.000Z</time>
      </trkpt>
      <trkpt lat="45.72568" lon="5.53211">
        <ele>220.60000610352</ele>
        <time>2023-05-31T08:02:04.000Z</time>
      </trkpt>
      <trkpt lat="45.72559" lon="5.53216">
        <ele>221</ele>
        <time>2023-05-31T08:02:06.000Z</time>
      </trkpt>
      <trkpt lat="45.72524" lon="5.53236">
        <ele>222.19999694824</ele>
        <time>2023-05-31T08:02:13.000Z</time>
      </trkpt>
      <trkpt lat="45.72519" lon="5.53239">
        <ele>222.39999389648</ele>
        <time>2023-05-31T08:02:14.000Z</time>
      </trkpt>
      <trkpt lat="45.7251" lon="5.53245">
        <ele>222.60000610352</ele>
        <time>2023-05-31T08:02:16.000Z</time>
      </trkpt>
      <trkpt lat="45.72487" lon="5.53262">
        <ele>223.39999389648</ele>
        <time>2023-05-31T08:02:21.000Z</time>
      </trkpt>
      <trkpt lat="45.72473" lon="5.53272">
        <ele>223.80000305176</ele>
        <time>2023-05-31T08:02:24.000Z</time>
      </trkpt>
      <trkpt lat="45.72451" lon="5.53291">
        <ele>224.60000610352</ele>
        <time>2023-05-31T08:02:29.000Z</time>
      </trkpt>
      <trkpt lat="45.72431" lon="5.53313">
        <ele>225.39999389648</ele>
        <time>2023-05-31T08:02:34.000Z</time>
      </trkpt>
      <trkpt lat="45.72427" lon="5.53317">
        <ele>225.60000610352</ele>
        <time>2023-05-31T08:02:35.000Z</time>
      </trkpt>
      <trkpt lat="45.72395" lon="5.53354">
        <ele>226.80000305176</ele>
        <time>2023-05-31T08:02:43.000Z</time>
      </trkpt>
      <trkpt lat="45.72378" lon="5.53374">
        <ele>227.19999694824</ele>
        <time>2023-05-31T08:02:47.000Z</time>
      </trkpt>
      <trkpt lat="45.72357" lon="5.53404">
        <ele>227.80000305176</ele>
        <time>2023-05-31T08:02:53.000Z</time>
      </trkpt>
      <trkpt lat="45.72344" lon="5.53426">
        <ele>228.39999389648</ele>
        <time>2023-05-31T08:02:57.000Z</time>
      </trkpt>
      <trkpt lat="45.72332" lon="5.53449">
        <ele>228.80000305176</ele>
        <time>2023-05-31T08:03:01.000Z</time>
      </trkpt>
      <trkpt lat="45.7232" lon="5.53477">
        <ele>229.60000610352</ele>
        <time>2023-05-31T08:03:06.000Z</time>
      </trkpt>
      <trkpt lat="45.72318" lon="5.53483">
        <ele>230</ele>
        <time>2023-05-31T08:03:07.000Z</time>
      </trkpt>
      <trkpt lat="45.72302" lon="5.53517">
        <ele>231</ele>
        <time>2023-05-31T08:03:13.000Z</time>
      </trkpt>
      <trkpt lat="45.72296" lon="5.53527">
        <ele>231.39999389648</ele>
        <time>2023-05-31T08:03:15.000Z</time>
      </trkpt>
      <trkpt lat="45.72281" lon="5.53555">
        <ele>232.19999694824</ele>
        <time>2023-05-31T08:03:20.000Z</time>
      </trkpt>
      <trkpt lat="45.72261" lon="5.53586">
        <ele>233.19999694824</ele>
        <time>2023-05-31T08:03:26.000Z</time>
      </trkpt>
      <trkpt lat="45.72228" lon="5.53632">
        <ele>234.39999389648</ele>
        <time>2023-05-31T08:03:35.000Z</time>
      </trkpt>
      <trkpt lat="45.72226" lon="5.53637">
        <ele>234.39999389648</ele>
        <time>2023-05-31T08:03:36.000Z</time>
      </trkpt>
      <trkpt lat="45.72199" lon="5.53681">
        <ele>235.39999389648</ele>
        <time>2023-05-31T08:03:44.000Z</time>
      </trkpt>
      <trkpt lat="45.72186" lon="5.53704">
        <ele>235.60000610352</ele>
        <time>2023-05-31T08:03:48.000Z</time>
      </trkpt>
      <trkpt lat="45.72154" lon="5.53762">
        <ele>236.19999694824</ele>
        <time>2023-05-31T08:03:57.000Z</time>
      </trkpt>
      <trkpt lat="45.7212" lon="5.53825">
        <ele>236.19999694824</ele>
        <time>2023-05-31T08:04:06.000Z</time>
      </trkpt>
      <trkpt lat="45.72116" lon="5.53832">
        <ele>236.19999694824</ele>
        <time>2023-05-31T08:04:07.000Z</time>
      </trkpt>
      <trkpt lat="45.72082" lon="5.539">
        <ele>235.60000610352</ele>
        <time>2023-05-31T08:04:16.000Z</time>
      </trkpt>
      <trkpt lat="45.72078" lon="5.53908">
        <ele>235.60000610352</ele>
        <time>2023-05-31T08:04:17.000Z</time>
      </trkpt>
      <trkpt lat="45.72047" lon="5.53979">
        <ele>235.39999389648</ele>
        <time>2023-05-31T08:04:26.000Z</time>
      </trkpt>
      <trkpt lat="45.72013" lon="5.54051">
        <ele>234.80000305176</ele>
        <time>2023-05-31T08:04:35.000Z</time>
      </trkpt>
      <trkpt lat="45.72008" lon="5.54059">
        <ele>234.60000610352</ele>
        <time>2023-05-31T08:04:36.000Z</time>
      </trkpt>
      <trkpt lat="45.71985" lon="5.54089">
        <ele>234.19999694824</ele>
        <time>2023-05-31T08:04:40.000Z</time>
      </trkpt>
      <trkpt lat="45.71964" lon="5.54109">
        <ele>233.39999389648</ele>
        <time>2023-05-31T08:04:43.000Z</time>
      </trkpt>
      <trkpt lat="45.7195" lon="5.5412">
        <ele>233</ele>
        <time>2023-05-31T08:04:45.000Z</time>
      </trkpt>
      <trkpt lat="45.71934" lon="5.54132">
        <ele>232.19999694824</ele>
        <time>2023-05-31T08:04:47.000Z</time>
      </trkpt>
      <trkpt lat="45.71899" lon="5.54155">
        <ele>231</ele>
        <time>2023-05-31T08:04:51.000Z</time>
      </trkpt>
      <trkpt lat="45.71871" lon="5.54174">
        <ele>230</ele>
        <time>2023-05-31T08:04:54.000Z</time>
      </trkpt>
      <trkpt lat="45.71842" lon="5.54194">
        <ele>228.39999389648</ele>
        <time>2023-05-31T08:04:57.000Z</time>
      </trkpt>
      <trkpt lat="45.71822" lon="5.54207">
        <ele>227.19999694824</ele>
        <time>2023-05-31T08:04:59.000Z</time>
      </trkpt>
      <trkpt lat="45.71803" lon="5.5422">
        <ele>226.39999389648</ele>
        <time>2023-05-31T08:05:01.000Z</time>
      </trkpt>
      <trkpt lat="45.71784" lon="5.54234">
        <ele>225.19999694824</ele>
        <time>2023-05-31T08:05:03.000Z</time>
      </trkpt>
      <trkpt lat="45.71757" lon="5.54256">
        <ele>224.19999694824</ele>
        <time>2023-05-31T08:05:06.000Z</time>
      </trkpt>
      <trkpt lat="45.71732" lon="5.5428">
        <ele>222.39999389648</ele>
        <time>2023-05-31T08:05:09.000Z</time>
      </trkpt>
      <trkpt lat="45.71708" lon="5.54306">
        <ele>221.39999389648</ele>
        <time>2023-05-31T08:05:12.000Z</time>
      </trkpt>
      <trkpt lat="45.71693" lon="5.54324">
        <ele>220.60000610352</ele>
        <time>2023-05-31T08:05:14.000Z</time>
      </trkpt>
      <trkpt lat="45.71685" lon="5.54333">
        <ele>220</ele>
        <time>2023-05-31T08:05:15.000Z</time>
      </trkpt>
      <trkpt lat="45.71666" lon="5.54364">
        <ele>218.80000305176</ele>
        <time>2023-05-31T08:05:18.000Z</time>
      </trkpt>
      <trkpt lat="45.71647" lon="5.54399">
        <ele>217.39999389648</ele>
        <time>2023-05-31T08:05:21.000Z</time>
      </trkpt>
      <trkpt lat="45.71628" lon="5.54434">
        <ele>216.39999389648</ele>
        <time>2023-05-31T08:05:24.000Z</time>
      </trkpt>
      <trkpt lat="45.71617" lon="5.54458">
        <ele>215</ele>
        <time>2023-05-31T08:05:26.000Z</time>
      </trkpt>
      <trkpt lat="45.71612" lon="5.5447">
        <ele>214.39999389648</ele>
        <time>2023-05-31T08:05:27.000Z</time>
      </trkpt>
      <trkpt lat="45.71607" lon="5.54483">
        <ele>213.80000305176</ele>
        <time>2023-05-31T08:05:28.000Z</time>
      </trkpt>
      <trkpt lat="45.7159" lon="5.54533">
        <ele>212</ele>
        <time>2023-05-31T08:05:32.000Z</time>
      </trkpt>
      <trkpt lat="45.71586" lon="5.54545">
        <ele>211.80000305176</ele>
        <time>2023-05-31T08:05:33.000Z</time>
      </trkpt>
      <trkpt lat="45.71577" lon="5.54569">
        <ele>210.80000305176</ele>
        <time>2023-05-31T08:05:35.000Z</time>
      </trkpt>
      <trkpt lat="45.71555" lon="5.54612">
        <ele>209.60000610352</ele>
        <time>2023-05-31T08:05:39.000Z</time>
      </trkpt>
      <trkpt lat="45.71527" lon="5.54655">
        <ele>209.39999389648</ele>
        <time>2023-05-31T08:05:44.000Z</time>
      </trkpt>
      <trkpt lat="45.71485" lon="5.5471">
        <ele>209.39999389648</ele>
        <time>2023-05-31T08:05:51.000Z</time>
      </trkpt>
      <trkpt lat="45.71456" lon="5.54748">
        <ele>209.39999389648</ele>
        <time>2023-05-31T08:05:56.000Z</time>
      </trkpt>
      <trkpt lat="45.71411" lon="5.54801">
        <ele>209</ele>
        <time>2023-05-31T08:06:03.000Z</time>
      </trkpt>
      <trkpt lat="45.71393" lon="5.54823">
        <ele>208.60000610352</ele>
        <time>2023-05-31T08:06:06.000Z</time>
      </trkpt>
      <trkpt lat="45.71355" lon="5.54872">
        <ele>208.19999694824</ele>
        <time>2023-05-31T08:06:13.000Z</time>
      </trkpt>
      <trkpt lat="45.71336" lon="5.54899">
        <ele>208.19999694824</ele>
        <time>2023-05-31T08:06:17.000Z</time>
      </trkpt>
      <trkpt lat="45.71332" lon="5.54907">
        <ele>208.19999694824</ele>
        <time>2023-05-31T08:06:18.000Z</time>
      </trkpt>
      <trkpt lat="45.71325" lon="5.54922">
        <ele>208.39999389648</ele>
        <time>2023-05-31T08:06:20.000Z</time>
      </trkpt>
      <trkpt lat="45.71318" lon="5.54948">
        <ele>209</ele>
        <time>2023-05-31T08:06:23.000Z</time>
      </trkpt>
      <trkpt lat="45.71305" lon="5.55006">
        <ele>209.39999389648</ele>
        <time>2023-05-31T08:06:29.000Z</time>
      </trkpt>
      <trkpt lat="45.71302" lon="5.55015">
        <ele>209.39999389648</ele>
        <time>2023-05-31T08:06:30.000Z</time>
      </trkpt>
      <trkpt lat="45.71289" lon="5.55057">
        <ele>209.19999694824</ele>
        <time>2023-05-31T08:06:35.000Z</time>
      </trkpt>
      <trkpt lat="45.71277" lon="5.55105">
        <ele>209</ele>
        <time>2023-05-31T08:06:40.000Z</time>
      </trkpt>
      <trkpt lat="45.71275" lon="5.55124">
        <ele>209</ele>
        <time>2023-05-31T08:06:42.000Z</time>
      </trkpt>
      <trkpt lat="45.71274" lon="5.5515">
        <ele>209</ele>
        <time>2023-05-31T08:06:45.000Z</time>
      </trkpt>
      <trkpt lat="45.71269" lon="5.5517">
        <ele>209</ele>
        <time>2023-05-31T08:06:47.000Z</time>
      </trkpt>
      <trkpt lat="45.71244" lon="5.55216">
        <ele>208.80000305176</ele>
        <time>2023-05-31T08:06:53.000Z</time>
      </trkpt>
      <trkpt lat="45.71207" lon="5.55278">
        <ele>208.19999694824</ele>
        <time>2023-05-31T08:07:01.000Z</time>
      </trkpt>
      <trkpt lat="45.71181" lon="5.55323">
        <ele>208</ele>
        <time>2023-05-31T08:07:07.000Z</time>
      </trkpt>
      <trkpt lat="45.71176" lon="5.55328">
        <ele>208</ele>
        <time>2023-05-31T08:07:08.000Z</time>
      </trkpt>
      <trkpt lat="45.71171" lon="5.55333">
        <ele>208.19999694824</ele>
        <time>2023-05-31T08:07:09.000Z</time>
      </trkpt>
      <trkpt lat="45.71148" lon="5.55349">
        <ele>208.39999389648</ele>
        <time>2023-05-31T08:07:13.000Z</time>
      </trkpt>
      <trkpt lat="45.71127" lon="5.55364">
        <ele>208.60000610352</ele>
        <time>2023-05-31T08:07:17.000Z</time>
      </trkpt>
      <trkpt lat="45.71109" lon="5.55375">
        <ele>208.80000305176</ele>
        <time>2023-05-31T08:07:20.000Z</time>
      </trkpt>
      <trkpt lat="45.71099" lon="5.55382">
        <ele>209</ele>
        <time>2023-05-31T08:07:22.000Z</time>
      </trkpt>
      <trkpt lat="45.71076" lon="5.55401">
        <ele>209.19999694824</ele>
        <time>2023-05-31T08:07:26.000Z</time>
      </trkpt>
      <trkpt lat="45.71067" lon="5.55414">
        <ele>209.19999694824</ele>
        <time>2023-05-31T08:07:28.000Z</time>
      </trkpt>
      <trkpt lat="45.71059" lon="5.5543">
        <ele>209</ele>
        <time>2023-05-31T08:07:30.000Z</time>
      </trkpt>
      <trkpt lat="45.71042" lon="5.55469">
        <ele>209</ele>
        <time>2023-05-31T08:07:35.000Z</time>
      </trkpt>
      <trkpt lat="45.71039" lon="5.55477">
        <ele>209</ele>
        <time>2023-05-31T08:07:36.000Z</time>
      </trkpt>
      <trkpt lat="45.71035" lon="5.55492">
        <ele>209</ele>
        <time>2023-05-31T08:07:38.000Z</time>
      </trkpt>
      <trkpt lat="45.71032" lon="5.55521">
        <ele>209.39999389648</ele>
        <time>2023-05-31T08:07:41.000Z</time>
      </trkpt>
      <trkpt lat="45.71031" lon="5.55545">
        <ele>209.39999389648</ele>
        <time>2023-05-31T08:07:44.000Z</time>
      </trkpt>
      <trkpt lat="45.71029" lon="5.55572">
        <ele>209.80000305176</ele>
        <time>2023-05-31T08:07:47.000Z</time>
      </trkpt>
      <trkpt lat="45.71028" lon="5.55579">
        <ele>210</ele>
        <time>2023-05-31T08:07:48.000Z</time>
      </trkpt>
      <trkpt lat="45.7102" lon="5.55631">
        <ele>210.80000305176</ele>
        <time>2023-05-31T08:07:54.000Z</time>
      </trkpt>
      <trkpt lat="45.71" lon="5.5571">
        <ele>210.80000305176</ele>
        <time>2023-05-31T08:08:03.000Z</time>
      </trkpt>
      <trkpt lat="45.70999" lon="5.55717">
        <ele>210.80000305176</ele>
        <time>2023-05-31T08:08:04.000Z</time>
      </trkpt>
      <trkpt lat="45.70978" lon="5.55798">
        <ele>210.39999389648</ele>
        <time>2023-05-31T08:08:13.000Z</time>
      </trkpt>
      <trkpt lat="45.70976" lon="5.55807">
        <ele>210.39999389648</ele>
        <time>2023-05-31T08:08:14.000Z</time>
      </trkpt>
      <trkpt lat="45.70956" lon="5.55884">
        <ele>210.60000610352</ele>
        <time>2023-05-31T08:08:23.000Z</time>
      </trkpt>
      <trkpt lat="45.70952" lon="5.559">
        <ele>210.80000305176</ele>
        <time>2023-05-31T08:08:25.000Z</time>
      </trkpt>
      <trkpt lat="45.70946" lon="5.55923">
        <ele>211</ele>
        <time>2023-05-31T08:08:28.000Z</time>
      </trkpt>
      <trkpt lat="45.70933" lon="5.55973">
        <ele>211.60000610352</ele>
        <time>2023-05-31T08:08:34.000Z</time>
      </trkpt>
      <trkpt lat="45.70913" lon="5.56053">
        <ele>212</ele>
        <time>2023-05-31T08:08:44.000Z</time>
      </trkpt>
      <trkpt lat="45.70896" lon="5.5612">
        <ele>213</ele>
        <time>2023-05-31T08:08:53.000Z</time>
      </trkpt>
      <trkpt lat="45.70893" lon="5.56129">
        <ele>213.39999389648</ele>
        <time>2023-05-31T08:08:54.000Z</time>
      </trkpt>
      <trkpt lat="45.70876" lon="5.56191">
        <ele>214.39999389648</ele>
        <time>2023-05-31T08:09:03.000Z</time>
      </trkpt>
      <trkpt lat="45.70866" lon="5.56232">
        <ele>215.39999389648</ele>
        <time>2023-05-31T08:09:09.000Z</time>
      </trkpt>
      <trkpt lat="45.70862" lon="5.56246">
        <ele>216</ele>
        <time>2023-05-31T08:09:11.000Z</time>
      </trkpt>
      <trkpt lat="45.70858" lon="5.56258">
        <ele>216.60000610352</ele>
        <time>2023-05-31T08:09:13.000Z</time>
      </trkpt>
      <trkpt lat="45.70851" lon="5.56284">
        <ele>217.60000610352</ele>
        <time>2023-05-31T08:09:17.000Z</time>
      </trkpt>
      <trkpt lat="45.70848" lon="5.56294">
        <ele>217.80000305176</ele>
        <time>2023-05-31T08:09:19.000Z</time>
      </trkpt>
      <trkpt lat="45.70845" lon="5.56307">
        <ele>218.19999694824</ele>
        <time>2023-05-31T08:09:21.000Z</time>
      </trkpt>
      <trkpt lat="45.70842" lon="5.56319">
        <ele>218.80000305176</ele>
        <time>2023-05-31T08:09:23.000Z</time>
      </trkpt>
      <trkpt lat="45.7084" lon="5.5633">
        <ele>219.19999694824</ele>
        <time>2023-05-31T08:09:25.000Z</time>
      </trkpt>
      <trkpt lat="45.70837" lon="5.56344">
        <ele>219.80000305176</ele>
        <time>2023-05-31T08:09:27.000Z</time>
      </trkpt>
      <trkpt lat="45.70833" lon="5.56368">
        <ele>221</ele>
        <time>2023-05-31T08:09:31.000Z</time>
      </trkpt>
      <trkpt lat="45.70829" lon="5.56401">
        <ele>222</ele>
        <time>2023-05-31T08:09:36.000Z</time>
      </trkpt>
      <trkpt lat="45.70828" lon="5.56409">
        <ele>222.19999694824</ele>
        <time>2023-05-31T08:09:37.000Z</time>
      </trkpt>
      <trkpt lat="45.70828" lon="5.56422">
        <ele>222.60000610352</ele>
        <time>2023-05-31T08:09:39.000Z</time>
      </trkpt>
      <trkpt lat="45.70828" lon="5.5644">
        <ele>223</ele>
        <time>2023-05-31T08:09:42.000Z</time>
      </trkpt>
      <trkpt lat="45.7083" lon="5.56466">
        <ele>223.60000610352</ele>
        <time>2023-05-31T08:09:46.000Z</time>
      </trkpt>
      <trkpt lat="45.70833" lon="5.56488">
        <ele>224.19999694824</ele>
        <time>2023-05-31T08:09:49.000Z</time>
      </trkpt>
      <trkpt lat="45.70836" lon="5.5653">
        <ele>224.80000305176</ele>
        <time>2023-05-31T08:09:55.000Z</time>
      </trkpt>
      <trkpt lat="45.70833" lon="5.56582">
        <ele>225.19999694824</ele>
        <time>2023-05-31T08:10:02.000Z</time>
      </trkpt>
      <trkpt lat="45.70832" lon="5.56591">
        <ele>225.19999694824</ele>
        <time>2023-05-31T08:10:03.000Z</time>
      </trkpt>
      <trkpt lat="45.70823" lon="5.56663">
        <ele>225.39999389648</ele>
        <time>2023-05-31T08:10:12.000Z</time>
      </trkpt>
      <trkpt lat="45.70822" lon="5.56671">
        <ele>225.39999389648</ele>
        <time>2023-05-31T08:10:13.000Z</time>
      </trkpt>
      <trkpt lat="45.7081" lon="5.56751">
        <ele>225.80000305176</ele>
        <time>2023-05-31T08:10:23.000Z</time>
      </trkpt>
      <trkpt lat="45.70808" lon="5.56768">
        <ele>226</ele>
        <time>2023-05-31T08:10:25.000Z</time>
      </trkpt>
      <trkpt lat="45.708" lon="5.5684">
        <ele>226.19999694824</ele>
        <time>2023-05-31T08:10:34.000Z</time>
      </trkpt>
      <trkpt lat="45.708" lon="5.56887">
        <ele>226.39999389648</ele>
        <time>2023-05-31T08:10:40.000Z</time>
      </trkpt>
      <trkpt lat="45.70801" lon="5.56905">
        <ele>226.60000610352</ele>
        <time>2023-05-31T08:10:42.000Z</time>
      </trkpt>
      <trkpt lat="45.70809" lon="5.56968">
        <ele>227.19999694824</ele>
        <time>2023-05-31T08:10:50.000Z</time>
      </trkpt>
      <trkpt lat="45.70817" lon="5.57014">
        <ele>227.60000610352</ele>
        <time>2023-05-31T08:10:56.000Z</time>
      </trkpt>
      <trkpt lat="45.70819" lon="5.57022">
        <ele>227.60000610352</ele>
        <time>2023-05-31T08:10:57.000Z</time>
      </trkpt>
      <trkpt lat="45.70821" lon="5.5703">
        <ele>227.60000610352</ele>
        <time>2023-05-31T08:10:58.000Z</time>
      </trkpt>
      <trkpt lat="45.70829" lon="5.57077">
        <ele>228</ele>
        <time>2023-05-31T08:11:04.000Z</time>
      </trkpt>
      <trkpt lat="45.7083" lon="5.57085">
        <ele>228.19999694824</ele>
        <time>2023-05-31T08:11:05.000Z</time>
      </trkpt>
      <trkpt lat="45.7083" lon="5.57117">
        <ele>228.19999694824</ele>
        <time>2023-05-31T08:11:09.000Z</time>
      </trkpt>
      <trkpt lat="45.70829" lon="5.57125">
        <ele>228.19999694824</ele>
        <time>2023-05-31T08:11:10.000Z</time>
      </trkpt>
      <trkpt lat="45.70818" lon="5.57164">
        <ele>228.80000305176</ele>
        <time>2023-05-31T08:11:15.000Z</time>
      </trkpt>
      <trkpt lat="45.70815" lon="5.5717">
        <ele>228.80000305176</ele>
        <time>2023-05-31T08:11:16.000Z</time>
      </trkpt>
      <trkpt lat="45.70808" lon="5.57183">
        <ele>228.80000305176</ele>
        <time>2023-05-31T08:11:18.000Z</time>
      </trkpt>
      <trkpt lat="45.7079" lon="5.57206">
        <ele>229</ele>
        <time>2023-05-31T08:11:22.000Z</time>
      </trkpt>
      <trkpt lat="45.70745" lon="5.57258">
        <ele>228.80000305176</ele>
        <time>2023-05-31T08:11:31.000Z</time>
      </trkpt>
      <trkpt lat="45.70708" lon="5.57314">
        <ele>228.39999389648</ele>
        <time>2023-05-31T08:11:39.000Z</time>
      </trkpt>
      <trkpt lat="45.70669" lon="5.5737">
        <ele>227.60000610352</ele>
        <time>2023-05-31T08:11:47.000Z</time>
      </trkpt>
      <trkpt lat="45.70624" lon="5.5741">
        <ele>226.80000305176</ele>
        <time>2023-05-31T08:11:54.000Z</time>
      </trkpt>
      <trkpt lat="45.70617" lon="5.57415">
        <ele>226.60000610352</ele>
        <time>2023-05-31T08:11:55.000Z</time>
      </trkpt>
      <trkpt lat="45.70581" lon="5.57441">
        <ele>225.39999389648</ele>
        <time>2023-05-31T08:12:00.000Z</time>
      </trkpt>
      <trkpt lat="45.70574" lon="5.57448">
        <ele>225</ele>
        <time>2023-05-31T08:12:01.000Z</time>
      </trkpt>
      <trkpt lat="45.70553" lon="5.57467">
        <ele>224.19999694824</ele>
        <time>2023-05-31T08:12:04.000Z</time>
      </trkpt>
      <trkpt lat="45.7052" lon="5.57498">
        <ele>223</ele>
        <time>2023-05-31T08:12:09.000Z</time>
      </trkpt>
      <trkpt lat="45.70508" lon="5.57511">
        <ele>222.80000305176</ele>
        <time>2023-05-31T08:12:11.000Z</time>
      </trkpt>
      <trkpt lat="45.70479" lon="5.57553">
        <ele>222.39999389648</ele>
        <time>2023-05-31T08:12:17.000Z</time>
      </trkpt>
      <trkpt lat="45.70454" lon="5.57598">
        <ele>222.39999389648</ele>
        <time>2023-05-31T08:12:23.000Z</time>
      </trkpt>
      <trkpt lat="45.7043" lon="5.57641">
        <ele>222</ele>
        <time>2023-05-31T08:12:28.000Z</time>
      </trkpt>
      <trkpt lat="45.70405" lon="5.57688">
        <ele>220.80000305176</ele>
        <time>2023-05-31T08:12:33.000Z</time>
      </trkpt>
      <trkpt lat="45.70395" lon="5.57706">
        <ele>220.60000610352</ele>
        <time>2023-05-31T08:12:35.000Z</time>
      </trkpt>
      <trkpt lat="45.70385" lon="5.57724">
        <ele>219.60000610352</ele>
        <time>2023-05-31T08:12:37.000Z</time>
      </trkpt>
      <trkpt lat="45.70353" lon="5.57781">
        <ele>219</ele>
        <time>2023-05-31T08:12:44.000Z</time>
      </trkpt>
      <trkpt lat="45.70319" lon="5.57843">
        <ele>219.19999694824</ele>
        <time>2023-05-31T08:12:52.000Z</time>
      </trkpt>
      <trkpt lat="45.70284" lon="5.57906">
        <ele>219</ele>
        <time>2023-05-31T08:13:00.000Z</time>
      </trkpt>
      <trkpt lat="45.70271" lon="5.5793">
        <ele>218.80000305176</ele>
        <time>2023-05-31T08:13:03.000Z</time>
      </trkpt>
      <trkpt lat="45.70252" lon="5.57961">
        <ele>218.39999389648</ele>
        <time>2023-05-31T08:13:07.000Z</time>
      </trkpt>
      <trkpt lat="45.70236" lon="5.57981">
        <ele>218.19999694824</ele>
        <time>2023-05-31T08:13:10.000Z</time>
      </trkpt>
      <trkpt lat="45.70211" lon="5.58003">
        <ele>217.19999694824</ele>
        <time>2023-05-31T08:13:14.000Z</time>
      </trkpt>
      <trkpt lat="45.70198" lon="5.58012">
        <ele>217</ele>
        <time>2023-05-31T08:13:16.000Z</time>
      </trkpt>
      <trkpt lat="45.70152" lon="5.58037">
        <ele>216</ele>
        <time>2023-05-31T08:13:23.000Z</time>
      </trkpt>
      <trkpt lat="45.70133" lon="5.58046">
        <ele>215.80000305176</ele>
        <time>2023-05-31T08:13:26.000Z</time>
      </trkpt>
      <trkpt lat="45.7009" lon="5.58077">
        <ele>215.80000305176</ele>
        <time>2023-05-31T08:13:33.000Z</time>
      </trkpt>
      <trkpt lat="45.70043" lon="5.58127">
        <ele>215.39999389648</ele>
        <time>2023-05-31T08:13:41.000Z</time>
      </trkpt>
      <trkpt lat="45.70036" lon="5.58136">
        <ele>215.19999694824</ele>
        <time>2023-05-31T08:13:42.000Z</time>
      </trkpt>
      <trkpt lat="45.70012" lon="5.58177">
        <ele>214</ele>
        <time>2023-05-31T08:13:47.000Z</time>
      </trkpt>
      <trkpt lat="45.70007" lon="5.58185">
        <ele>214</ele>
        <time>2023-05-31T08:13:48.000Z</time>
      </trkpt>
      <trkpt lat="45.69973" lon="5.58251">
        <ele>213.39999389648</ele>
        <time>2023-05-31T08:13:56.000Z</time>
      </trkpt>
      <trkpt lat="45.6997" lon="5.58257">
        <ele>213.39999389648</ele>
        <time>2023-05-31T08:13:57.000Z</time>
      </trkpt>
      <trkpt lat="45.69937" lon="5.5831">
        <ele>214.39999389648</ele>
        <time>2023-05-31T08:14:05.000Z</time>
      </trkpt>
      <trkpt lat="45.69895" lon="5.5836">
        <ele>214.60000610352</ele>
        <time>2023-05-31T08:14:13.000Z</time>
      </trkpt>
      <trkpt lat="45.69847" lon="5.58406">
        <ele>213.80000305176</ele>
        <time>2023-05-31T08:14:21.000Z</time>
      </trkpt>
      <trkpt lat="45.69801" lon="5.58447">
        <ele>213.19999694824</ele>
        <time>2023-05-31T08:14:29.000Z</time>
      </trkpt>
      <trkpt lat="45.69784" lon="5.58463">
        <ele>213.19999694824</ele>
        <time>2023-05-31T08:14:32.000Z</time>
      </trkpt>
      <trkpt lat="45.69767" lon="5.58479">
        <ele>213</ele>
        <time>2023-05-31T08:14:35.000Z</time>
      </trkpt>
      <trkpt lat="45.6972" lon="5.58521">
        <ele>212.60000610352</ele>
        <time>2023-05-31T08:14:43.000Z</time>
      </trkpt>
      <trkpt lat="45.6967" lon="5.58567">
        <ele>212.19999694824</ele>
        <time>2023-05-31T08:14:51.000Z</time>
      </trkpt>
      <trkpt lat="45.69666" lon="5.58571">
        <ele>212.19999694824</ele>
        <time>2023-05-31T08:14:52.000Z</time>
      </trkpt>
      <trkpt lat="45.69653" lon="5.58583">
        <ele>212</ele>
        <time>2023-05-31T08:14:54.000Z</time>
      </trkpt>
      <trkpt lat="45.69625" lon="5.58608">
        <ele>211.80000305176</ele>
        <time>2023-05-31T08:14:59.000Z</time>
      </trkpt>
      <trkpt lat="45.6958" lon="5.5865">
        <ele>211.60000610352</ele>
        <time>2023-05-31T08:15:07.000Z</time>
      </trkpt>
      <trkpt lat="45.69529" lon="5.58697">
        <ele>211.39999389648</ele>
        <time>2023-05-31T08:15:16.000Z</time>
      </trkpt>
      <trkpt lat="45.69525" lon="5.58702">
        <ele>211.39999389648</ele>
        <time>2023-05-31T08:15:17.000Z</time>
      </trkpt>
      <trkpt lat="45.69512" lon="5.58714">
        <ele>211.39999389648</ele>
        <time>2023-05-31T08:15:19.000Z</time>
      </trkpt>
      <trkpt lat="45.69473" lon="5.58749">
        <ele>211.19999694824</ele>
        <time>2023-05-31T08:15:26.000Z</time>
      </trkpt>
      <trkpt lat="45.69468" lon="5.58752">
        <ele>211.19999694824</ele>
        <time>2023-05-31T08:15:27.000Z</time>
      </trkpt>
      <trkpt lat="45.69462" lon="5.58754">
        <ele>211.19999694824</ele>
        <time>2023-05-31T08:15:28.000Z</time>
      </trkpt>
      <trkpt lat="45.69457" lon="5.58756">
        <ele>211.19999694824</ele>
        <time>2023-05-31T08:15:29.000Z</time>
      </trkpt>
      <trkpt lat="45.69447" lon="5.58757">
        <ele>211</ele>
        <time>2023-05-31T08:15:31.000Z</time>
      </trkpt>
      <trkpt lat="45.6944" lon="5.58759">
        <ele>211</ele>
        <time>2023-05-31T08:15:33.000Z</time>
      </trkpt>
      <trkpt lat="45.69436" lon="5.58763">
        <ele>211</ele>
        <time>2023-05-31T08:15:35.000Z</time>
      </trkpt>
      <trkpt lat="45.69432" lon="5.58776">
        <ele>210.60000610352</ele>
        <time>2023-05-31T08:15:40.000Z</time>
      </trkpt>
      <trkpt lat="45.69424" lon="5.58779">
        <ele>210.60000610352</ele>
        <time>2023-05-31T08:15:44.000Z</time>
      </trkpt>
      <trkpt lat="45.69423" lon="5.58781">
        <ele>210.60000610352</ele>
        <time>2023-05-31T08:15:45.000Z</time>
      </trkpt>
      <trkpt lat="45.69421" lon="5.58788">
        <ele>210.60000610352</ele>
        <time>2023-05-31T08:15:48.000Z</time>
      </trkpt>
      <trkpt lat="45.69421" lon="5.58789">
        <ele>210.80000305176</ele>
        <time>2023-05-31T08:15:51.000Z</time>
      </trkpt>
      <trkpt lat="45.69417" lon="5.58788">
        <ele>211.60000610352</ele>
        <time>2023-05-31T08:24:49.000Z</time>
      </trkpt>
      <trkpt lat="45.69415" lon="5.58787">
        <ele>211.60000610352</ele>
        <time>2023-05-31T08:24:50.000Z</time>
      </trkpt>
      <trkpt lat="45.69403" lon="5.58784">
        <ele>211.60000610352</ele>
        <time>2023-05-31T08:24:56.000Z</time>
      </trkpt>
      <trkpt lat="45.69395" lon="5.58778">
        <ele>211.60000610352</ele>
        <time>2023-05-31T08:25:01.000Z</time>
      </trkpt>
      <trkpt lat="45.6939" lon="5.5878">
        <ele>211.60000610352</ele>
        <time>2023-05-31T08:25:03.000Z</time>
      </trkpt>
      <trkpt lat="45.69367" lon="5.58796">
        <ele>211.60000610352</ele>
        <time>2023-05-31T08:25:09.000Z</time>
      </trkpt>
      <trkpt lat="45.69335" lon="5.58818">
        <ele>211.39999389648</ele>
        <time>2023-05-31T08:25:16.000Z</time>
      </trkpt>
      <trkpt lat="45.69296" lon="5.58845">
        <ele>211.39999389648</ele>
        <time>2023-05-31T08:25:24.000Z</time>
      </trkpt>
      <trkpt lat="45.69287" lon="5.58851">
        <ele>211.39999389648</ele>
        <time>2023-05-31T08:25:26.000Z</time>
      </trkpt>
      <trkpt lat="45.69264" lon="5.58867">
        <ele>211.80000305176</ele>
        <time>2023-05-31T08:25:31.000Z</time>
      </trkpt>
      <trkpt lat="45.69234" lon="5.58889">
        <ele>212.39999389648</ele>
        <time>2023-05-31T08:25:38.000Z</time>
      </trkpt>
      <trkpt lat="45.69194" lon="5.58916">
        <ele>213</ele>
        <time>2023-05-31T08:25:47.000Z</time>
      </trkpt>
      <trkpt lat="45.6919" lon="5.58919">
        <ele>213</ele>
        <time>2023-05-31T08:25:48.000Z</time>
      </trkpt>
      <trkpt lat="45.69142" lon="5.58953">
        <ele>213</ele>
        <time>2023-05-31T08:25:58.000Z</time>
      </trkpt>
      <trkpt lat="45.69094" lon="5.58988">
        <ele>213</ele>
        <time>2023-05-31T08:26:08.000Z</time>
      </trkpt>
      <trkpt lat="45.69057" lon="5.59024">
        <ele>213.19999694824</ele>
        <time>2023-05-31T08:26:16.000Z</time>
      </trkpt>
      <trkpt lat="45.6902" lon="5.59058">
        <ele>213</ele>
        <time>2023-05-31T08:26:24.000Z</time>
      </trkpt>
      <trkpt lat="45.68978" lon="5.59099">
        <ele>213</ele>
        <time>2023-05-31T08:26:33.000Z</time>
      </trkpt>
      <trkpt lat="45.6893" lon="5.59144">
        <ele>213</ele>
        <time>2023-05-31T08:26:43.000Z</time>
      </trkpt>
      <trkpt lat="45.68884" lon="5.59188">
        <ele>213.19999694824</ele>
        <time>2023-05-31T08:26:53.000Z</time>
      </trkpt>
      <trkpt lat="45.6884" lon="5.59232">
        <ele>213.80000305176</ele>
        <time>2023-05-31T08:27:03.000Z</time>
      </trkpt>
      <trkpt lat="45.68836" lon="5.59236">
        <ele>213.80000305176</ele>
        <time>2023-05-31T08:27:04.000Z</time>
      </trkpt>
      <trkpt lat="45.68796" lon="5.59276">
        <ele>213.39999389648</ele>
        <time>2023-05-31T08:27:12.000Z</time>
      </trkpt>
      <trkpt lat="45.68751" lon="5.59321">
        <ele>212.80000305176</ele>
        <time>2023-05-31T08:27:21.000Z</time>
      </trkpt>
      <trkpt lat="45.68746" lon="5.59326">
        <ele>212.80000305176</ele>
        <time>2023-05-31T08:27:22.000Z</time>
      </trkpt>
      <trkpt lat="45.68716" lon="5.59355">
        <ele>212.60000610352</ele>
        <time>2023-05-31T08:27:28.000Z</time>
      </trkpt>
      <trkpt lat="45.68667" lon="5.59403">
        <ele>212.39999389648</ele>
        <time>2023-05-31T08:27:38.000Z</time>
      </trkpt>
      <trkpt lat="45.68619" lon="5.59449">
        <ele>212.39999389648</ele>
        <time>2023-05-31T08:27:48.000Z</time>
      </trkpt>
      <trkpt lat="45.68614" lon="5.59453">
        <ele>212.39999389648</ele>
        <time>2023-05-31T08:27:49.000Z</time>
      </trkpt>
      <trkpt lat="45.6857" lon="5.59495">
        <ele>212.19999694824</ele>
        <time>2023-05-31T08:27:59.000Z</time>
      </trkpt>
      <trkpt lat="45.68528" lon="5.59535">
        <ele>212.19999694824</ele>
        <time>2023-05-31T08:28:08.000Z</time>
      </trkpt>
      <trkpt lat="45.68497" lon="5.59565">
        <ele>212.39999389648</ele>
        <time>2023-05-31T08:28:15.000Z</time>
      </trkpt>
      <trkpt lat="45.68489" lon="5.59574">
        <ele>212.39999389648</ele>
        <time>2023-05-31T08:28:17.000Z</time>
      </trkpt>
      <trkpt lat="45.68461" lon="5.59612">
        <ele>212.60000610352</ele>
        <time>2023-05-31T08:28:24.000Z</time>
      </trkpt>
      <trkpt lat="45.68426" lon="5.59676">
        <ele>212.60000610352</ele>
        <time>2023-05-31T08:28:34.000Z</time>
      </trkpt>
      <trkpt lat="45.68393" lon="5.59738">
        <ele>212.39999389648</ele>
        <time>2023-05-31T08:28:44.000Z</time>
      </trkpt>
      <trkpt lat="45.6836" lon="5.598">
        <ele>212.60000610352</ele>
        <time>2023-05-31T08:28:54.000Z</time>
      </trkpt>
      <trkpt lat="45.68324" lon="5.59867">
        <ele>212.80000305176</ele>
        <time>2023-05-31T08:29:05.000Z</time>
      </trkpt>
      <trkpt lat="45.6829" lon="5.5993">
        <ele>212.39999389648</ele>
        <time>2023-05-31T08:29:15.000Z</time>
      </trkpt>
      <trkpt lat="45.68283" lon="5.59943">
        <ele>212.39999389648</ele>
        <time>2023-05-31T08:29:17.000Z</time>
      </trkpt>
      <trkpt lat="45.6825" lon="5.60003">
        <ele>212.60000610352</ele>
        <time>2023-05-31T08:29:27.000Z</time>
      </trkpt>
      <trkpt lat="45.68216" lon="5.60064">
        <ele>212.80000305176</ele>
        <time>2023-05-31T08:29:37.000Z</time>
      </trkpt>
      <trkpt lat="45.68186" lon="5.60118">
        <ele>212.80000305176</ele>
        <time>2023-05-31T08:29:46.000Z</time>
      </trkpt>
      <trkpt lat="45.68159" lon="5.60169">
        <ele>212.60000610352</ele>
        <time>2023-05-31T08:29:54.000Z</time>
      </trkpt>
      <trkpt lat="45.68123" lon="5.60233">
        <ele>212.80000305176</ele>
        <time>2023-05-31T08:30:04.000Z</time>
      </trkpt>
      <trkpt lat="45.68095" lon="5.60277">
        <ele>212.80000305176</ele>
        <time>2023-05-31T08:30:11.000Z</time>
      </trkpt>
      <trkpt lat="45.68064" lon="5.60315">
        <ele>213.80000305176</ele>
        <time>2023-05-31T08:30:18.000Z</time>
      </trkpt>
      <trkpt lat="45.68045" lon="5.60332">
        <ele>213.80000305176</ele>
        <time>2023-05-31T08:30:22.000Z</time>
      </trkpt>
      <trkpt lat="45.68035" lon="5.60339">
        <ele>213.80000305176</ele>
        <time>2023-05-31T08:30:24.000Z</time>
      </trkpt>
      <trkpt lat="45.68007" lon="5.60353">
        <ele>214.19999694824</ele>
        <time>2023-05-31T08:30:29.000Z</time>
      </trkpt>
      <trkpt lat="45.67967" lon="5.60374">
        <ele>214.39999389648</ele>
        <time>2023-05-31T08:30:36.000Z</time>
      </trkpt>
      <trkpt lat="45.67924" lon="5.60395">
        <ele>214.19999694824</ele>
        <time>2023-05-31T08:30:43.000Z</time>
      </trkpt>
      <trkpt lat="45.67918" lon="5.60398">
        <ele>214.19999694824</ele>
        <time>2023-05-31T08:30:44.000Z</time>
      </trkpt>
      <trkpt lat="45.67876" lon="5.6042">
        <ele>214</ele>
        <time>2023-05-31T08:30:51.000Z</time>
      </trkpt>
      <trkpt lat="45.67834" lon="5.60442">
        <ele>213.60000610352</ele>
        <time>2023-05-31T08:30:58.000Z</time>
      </trkpt>
      <trkpt lat="45.67786" lon="5.60467">
        <ele>213.39999389648</ele>
        <time>2023-05-31T08:31:06.000Z</time>
      </trkpt>
      <trkpt lat="45.67731" lon="5.605">
        <ele>213.80000305176</ele>
        <time>2023-05-31T08:31:16.000Z</time>
      </trkpt>
      <trkpt lat="45.67697" lon="5.60523">
        <ele>214</ele>
        <time>2023-05-31T08:31:22.000Z</time>
      </trkpt>
      <trkpt lat="45.67682" lon="5.60533">
        <ele>214</ele>
        <time>2023-05-31T08:31:25.000Z</time>
      </trkpt>
      <trkpt lat="45.67633" lon="5.60569">
        <ele>214.60000610352</ele>
        <time>2023-05-31T08:31:34.000Z</time>
      </trkpt>
      <trkpt lat="45.67622" lon="5.60579">
        <ele>214.60000610352</ele>
        <time>2023-05-31T08:31:36.000Z</time>
      </trkpt>
      <trkpt lat="45.67582" lon="5.60627">
        <ele>214</ele>
        <time>2023-05-31T08:31:44.000Z</time>
      </trkpt>
      <trkpt lat="45.6754" lon="5.60686">
        <ele>213.39999389648</ele>
        <time>2023-05-31T08:31:52.000Z</time>
      </trkpt>
      <trkpt lat="45.67535" lon="5.60694">
        <ele>213.39999389648</ele>
        <time>2023-05-31T08:31:53.000Z</time>
      </trkpt>
      <trkpt lat="45.67526" lon="5.60707">
        <ele>213</ele>
        <time>2023-05-31T08:31:55.000Z</time>
      </trkpt>
      <trkpt lat="45.675" lon="5.60745">
        <ele>212.19999694824</ele>
        <time>2023-05-31T08:32:00.000Z</time>
      </trkpt>
      <trkpt lat="45.6749" lon="5.60758">
        <ele>212</ele>
        <time>2023-05-31T08:32:02.000Z</time>
      </trkpt>
      <trkpt lat="45.67485" lon="5.60765">
        <ele>212</ele>
        <time>2023-05-31T08:32:03.000Z</time>
      </trkpt>
      <trkpt lat="45.67458" lon="5.60795">
        <ele>212</ele>
        <time>2023-05-31T08:32:08.000Z</time>
      </trkpt>
      <trkpt lat="45.67414" lon="5.60833">
        <ele>212.19999694824</ele>
        <time>2023-05-31T08:32:16.000Z</time>
      </trkpt>
      <trkpt lat="45.67374" lon="5.60863">
        <ele>212.39999389648</ele>
        <time>2023-05-31T08:32:23.000Z</time>
      </trkpt>
      <trkpt lat="45.67332" lon="5.60886">
        <ele>212.80000305176</ele>
        <time>2023-05-31T08:32:30.000Z</time>
      </trkpt>
      <trkpt lat="45.6732" lon="5.60894">
        <ele>212.80000305176</ele>
        <time>2023-05-31T08:32:32.000Z</time>
      </trkpt>
      <trkpt lat="45.67281" lon="5.60921">
        <ele>213</ele>
        <time>2023-05-31T08:32:39.000Z</time>
      </trkpt>
      <trkpt lat="45.67276" lon="5.60925">
        <ele>213.19999694824</ele>
        <time>2023-05-31T08:32:40.000Z</time>
      </trkpt>
      <trkpt lat="45.67269" lon="5.60936">
        <ele>213.19999694824</ele>
        <time>2023-05-31T08:32:42.000Z</time>
      </trkpt>
      <trkpt lat="45.67267" lon="5.60951">
        <ele>213.39999389648</ele>
        <time>2023-05-31T08:32:44.000Z</time>
      </trkpt>
      <trkpt lat="45.67265" lon="5.60958">
        <ele>213.39999389648</ele>
        <time>2023-05-31T08:32:45.000Z</time>
      </trkpt>
      <trkpt lat="45.67261" lon="5.60963">
        <ele>213.60000610352</ele>
        <time>2023-05-31T08:32:46.000Z</time>
      </trkpt>
      <trkpt lat="45.67253" lon="5.60969">
        <ele>213.80000305176</ele>
        <time>2023-05-31T08:32:48.000Z</time>
      </trkpt>
      <trkpt lat="45.67249" lon="5.60972">
        <ele>214.19999694824</ele>
        <time>2023-05-31T08:32:49.000Z</time>
      </trkpt>
      <trkpt lat="45.6723" lon="5.60982">
        <ele>215</ele>
        <time>2023-05-31T08:32:54.000Z</time>
      </trkpt>
      <trkpt lat="45.67227" lon="5.60983">
        <ele>215</ele>
        <time>2023-05-31T08:32:55.000Z</time>
      </trkpt>
      <trkpt lat="45.67218" lon="5.60988">
        <ele>216</ele>
        <time>2023-05-31T08:32:58.000Z</time>
      </trkpt>
      <trkpt lat="45.67213" lon="5.60993">
        <ele>216.60000610352</ele>
        <time>2023-05-31T08:33:00.000Z</time>
      </trkpt>
      <trkpt lat="45.67205" lon="5.60998">
        <ele>217.19999694824</ele>
        <time>2023-05-31T08:33:03.000Z</time>
      </trkpt>
      <trkpt lat="45.67196" lon="5.61003">
        <ele>218.19999694824</ele>
        <time>2023-05-31T08:33:06.000Z</time>
      </trkpt>
      <trkpt lat="45.67193" lon="5.61005">
        <ele>218.39999389648</ele>
        <time>2023-05-31T08:33:07.000Z</time>
      </trkpt>
      <trkpt lat="45.67179" lon="5.61019">
        <ele>219.39999389648</ele>
        <time>2023-05-31T08:33:12.000Z</time>
      </trkpt>
      <trkpt lat="45.67174" lon="5.61024">
        <ele>219.60000610352</ele>
        <time>2023-05-31T08:33:14.000Z</time>
      </trkpt>
      <trkpt lat="45.67166" lon="5.61033">
        <ele>220.39999389648</ele>
        <time>2023-05-31T08:33:17.000Z</time>
      </trkpt>
      <trkpt lat="45.67156" lon="5.61044">
        <ele>221.39999389648</ele>
        <time>2023-05-31T08:33:21.000Z</time>
      </trkpt>
      <trkpt lat="45.67154" lon="5.61047">
        <ele>221.80000305176</ele>
        <time>2023-05-31T08:33:22.000Z</time>
      </trkpt>
      <trkpt lat="45.67143" lon="5.61058">
        <ele>222.60000610352</ele>
        <time>2023-05-31T08:33:26.000Z</time>
      </trkpt>
      <trkpt lat="45.67128" lon="5.61071">
        <ele>223</ele>
        <time>2023-05-31T08:33:31.000Z</time>
      </trkpt>
      <trkpt lat="45.67123" lon="5.61074">
        <ele>223.39999389648</ele>
        <time>2023-05-31T08:33:33.000Z</time>
      </trkpt>
      <trkpt lat="45.67106" lon="5.61081">
        <ele>224.80000305176</ele>
        <time>2023-05-31T08:33:38.000Z</time>
      </trkpt>
      <trkpt lat="45.671" lon="5.61084">
        <ele>225.19999694824</ele>
        <time>2023-05-31T08:33:40.000Z</time>
      </trkpt>
      <trkpt lat="45.67091" lon="5.61088">
        <ele>225.80000305176</ele>
        <time>2023-05-31T08:33:43.000Z</time>
      </trkpt>
      <trkpt lat="45.67079" lon="5.61095">
        <ele>227</ele>
        <time>2023-05-31T08:33:47.000Z</time>
      </trkpt>
      <trkpt lat="45.67074" lon="5.61099">
        <ele>227.19999694824</ele>
        <time>2023-05-31T08:33:49.000Z</time>
      </trkpt>
      <trkpt lat="45.67063" lon="5.61109">
        <ele>228.19999694824</ele>
        <time>2023-05-31T08:33:53.000Z</time>
      </trkpt>
      <trkpt lat="45.67053" lon="5.61116">
        <ele>229.39999389648</ele>
        <time>2023-05-31T08:33:57.000Z</time>
      </trkpt>
      <trkpt lat="45.67051" lon="5.61119">
        <ele>229.60000610352</ele>
        <time>2023-05-31T08:33:58.000Z</time>
      </trkpt>
      <trkpt lat="45.67041" lon="5.6113">
        <ele>230.80000305176</ele>
        <time>2023-05-31T08:34:02.000Z</time>
      </trkpt>
      <trkpt lat="45.67037" lon="5.61136">
        <ele>231.19999694824</ele>
        <time>2023-05-31T08:34:04.000Z</time>
      </trkpt>
      <trkpt lat="45.67031" lon="5.61148">
        <ele>231.80000305176</ele>
        <time>2023-05-31T08:34:07.000Z</time>
      </trkpt>
      <trkpt lat="45.67025" lon="5.61156">
        <ele>232.80000305176</ele>
        <time>2023-05-31T08:34:10.000Z</time>
      </trkpt>
      <trkpt lat="45.67016" lon="5.61177">
        <ele>234</ele>
        <time>2023-05-31T08:34:15.000Z</time>
      </trkpt>
      <trkpt lat="45.67014" lon="5.6118">
        <ele>234.19999694824</ele>
        <time>2023-05-31T08:34:16.000Z</time>
      </trkpt>
      <trkpt lat="45.67003" lon="5.6119">
        <ele>235</ele>
        <time>2023-05-31T08:34:20.000Z</time>
      </trkpt>
      <trkpt lat="45.66998" lon="5.61194">
        <ele>235.39999389648</ele>
        <time>2023-05-31T08:34:22.000Z</time>
      </trkpt>
      <trkpt lat="45.6699" lon="5.612">
        <ele>236.39999389648</ele>
        <time>2023-05-31T08:34:25.000Z</time>
      </trkpt>
      <trkpt lat="45.66978" lon="5.61204">
        <ele>237.39999389648</ele>
        <time>2023-05-31T08:34:29.000Z</time>
      </trkpt>
      <trkpt lat="45.66967" lon="5.61207">
        <ele>238.39999389648</ele>
        <time>2023-05-31T08:34:33.000Z</time>
      </trkpt>
      <trkpt lat="45.66956" lon="5.61208">
        <ele>239.60000610352</ele>
        <time>2023-05-31T08:34:37.000Z</time>
      </trkpt>
      <trkpt lat="45.66954" lon="5.61208">
        <ele>239.80000305176</ele>
        <time>2023-05-31T08:34:38.000Z</time>
      </trkpt>
      <trkpt lat="45.66945" lon="5.61209">
        <ele>240.80000305176</ele>
        <time>2023-05-31T08:34:41.000Z</time>
      </trkpt>
      <trkpt lat="45.66934" lon="5.61208">
        <ele>241.39999389648</ele>
        <time>2023-05-31T08:34:45.000Z</time>
      </trkpt>
      <trkpt lat="45.66929" lon="5.61208">
        <ele>241.80000305176</ele>
        <time>2023-05-31T08:34:47.000Z</time>
      </trkpt>
      <trkpt lat="45.66913" lon="5.61207">
        <ele>242.80000305176</ele>
        <time>2023-05-31T08:34:52.000Z</time>
      </trkpt>
      <trkpt lat="45.66907" lon="5.61208">
        <ele>243.19999694824</ele>
        <time>2023-05-31T08:34:54.000Z</time>
      </trkpt>
      <trkpt lat="45.66896" lon="5.61216">
        <ele>244</ele>
        <time>2023-05-31T08:34:58.000Z</time>
      </trkpt>
      <trkpt lat="45.66893" lon="5.61218">
        <ele>244.19999694824</ele>
        <time>2023-05-31T08:34:59.000Z</time>
      </trkpt>
      <trkpt lat="45.66881" lon="5.61233">
        <ele>245.19999694824</ele>
        <time>2023-05-31T08:35:05.000Z</time>
      </trkpt>
      <trkpt lat="45.66879" lon="5.61235">
        <ele>245.39999389648</ele>
        <time>2023-05-31T08:35:06.000Z</time>
      </trkpt>
      <trkpt lat="45.66866" lon="5.6125">
        <ele>246.39999389648</ele>
        <time>2023-05-31T08:35:12.000Z</time>
      </trkpt>
      <trkpt lat="45.66862" lon="5.61254">
        <ele>246.80000305176</ele>
        <time>2023-05-31T08:35:14.000Z</time>
      </trkpt>
      <trkpt lat="45.66855" lon="5.6126">
        <ele>247.60000610352</ele>
        <time>2023-05-31T08:35:17.000Z</time>
      </trkpt>
      <trkpt lat="45.66847" lon="5.61266">
        <ele>248.80000305176</ele>
        <time>2023-05-31T08:35:21.000Z</time>
      </trkpt>
      <trkpt lat="45.66842" lon="5.61268">
        <ele>249.60000610352</ele>
        <time>2023-05-31T08:35:23.000Z</time>
      </trkpt>
      <trkpt lat="45.66837" lon="5.6127">
        <ele>250</ele>
        <time>2023-05-31T08:35:25.000Z</time>
      </trkpt>
      <trkpt lat="45.66825" lon="5.61275">
        <ele>251.19999694824</ele>
        <time>2023-05-31T08:35:30.000Z</time>
      </trkpt>
      <trkpt lat="45.66819" lon="5.61276">
        <ele>251.39999389648</ele>
        <time>2023-05-31T08:35:32.000Z</time>
      </trkpt>
      <trkpt lat="45.66806" lon="5.61278">
        <ele>252.39999389648</ele>
        <time>2023-05-31T08:35:37.000Z</time>
      </trkpt>
      <trkpt lat="45.66798" lon="5.6128">
        <ele>253</ele>
        <time>2023-05-31T08:35:40.000Z</time>
      </trkpt>
      <trkpt lat="45.66793" lon="5.61282">
        <ele>253.60000610352</ele>
        <time>2023-05-31T08:35:42.000Z</time>
      </trkpt>
      <trkpt lat="45.66781" lon="5.61289">
        <ele>254.60000610352</ele>
        <time>2023-05-31T08:35:47.000Z</time>
      </trkpt>
      <trkpt lat="45.66779" lon="5.61291">
        <ele>254.80000305176</ele>
        <time>2023-05-31T08:35:48.000Z</time>
      </trkpt>
      <trkpt lat="45.6677" lon="5.61296">
        <ele>255.80000305176</ele>
        <time>2023-05-31T08:35:52.000Z</time>
      </trkpt>
      <trkpt lat="45.66762" lon="5.61301">
        <ele>256.39999389648</ele>
        <time>2023-05-31T08:35:55.000Z</time>
      </trkpt>
      <trkpt lat="45.66755" lon="5.61305">
        <ele>257.20001220703</ele>
        <time>2023-05-31T08:35:58.000Z</time>
      </trkpt>
      <trkpt lat="45.66742" lon="5.61311">
        <ele>258.39999389648</ele>
        <time>2023-05-31T08:36:03.000Z</time>
      </trkpt>
      <trkpt lat="45.6673" lon="5.61317">
        <ele>259.39999389648</ele>
        <time>2023-05-31T08:36:08.000Z</time>
      </trkpt>
      <trkpt lat="45.66714" lon="5.61326">
        <ele>260.60000610352</ele>
        <time>2023-05-31T08:36:15.000Z</time>
      </trkpt>
      <trkpt lat="45.66702" lon="5.61332">
        <ele>261.79998779297</ele>
        <time>2023-05-31T08:36:20.000Z</time>
      </trkpt>
      <trkpt lat="45.66691" lon="5.61337">
        <ele>262.60000610352</ele>
        <time>2023-05-31T08:36:24.000Z</time>
      </trkpt>
      <trkpt lat="45.66689" lon="5.61338">
        <ele>263</ele>
        <time>2023-05-31T08:36:25.000Z</time>
      </trkpt>
      <trkpt lat="45.66677" lon="5.61345">
        <ele>264</ele>
        <time>2023-05-31T08:36:30.000Z</time>
      </trkpt>
      <trkpt lat="45.66668" lon="5.6135">
        <ele>265</ele>
        <time>2023-05-31T08:36:34.000Z</time>
      </trkpt>
      <trkpt lat="45.66663" lon="5.61353">
        <ele>265.39999389648</ele>
        <time>2023-05-31T08:36:36.000Z</time>
      </trkpt>
      <trkpt lat="45.66651" lon="5.61359">
        <ele>266.60000610352</ele>
        <time>2023-05-31T08:36:41.000Z</time>
      </trkpt>
      <trkpt lat="45.66646" lon="5.61362">
        <ele>267.20001220703</ele>
        <time>2023-05-31T08:36:43.000Z</time>
      </trkpt>
      <trkpt lat="45.66635" lon="5.61369">
        <ele>267.79998779297</ele>
        <time>2023-05-31T08:36:47.000Z</time>
      </trkpt>
      <trkpt lat="45.66623" lon="5.61377">
        <ele>268.79998779297</ele>
        <time>2023-05-31T08:36:52.000Z</time>
      </trkpt>
      <trkpt lat="45.66619" lon="5.61379">
        <ele>268.79998779297</ele>
        <time>2023-05-31T08:36:53.000Z</time>
      </trkpt>
      <trkpt lat="45.66609" lon="5.61386">
        <ele>269.79998779297</ele>
        <time>2023-05-31T08:36:57.000Z</time>
      </trkpt>
      <trkpt lat="45.66598" lon="5.61397">
        <ele>271</ele>
        <time>2023-05-31T08:37:02.000Z</time>
      </trkpt>
      <trkpt lat="45.66594" lon="5.61403">
        <ele>271.39999389648</ele>
        <time>2023-05-31T08:37:04.000Z</time>
      </trkpt>
      <trkpt lat="45.66592" lon="5.61409">
        <ele>272</ele>
        <time>2023-05-31T08:37:06.000Z</time>
      </trkpt>
      <trkpt lat="45.66591" lon="5.61412">
        <ele>272.20001220703</ele>
        <time>2023-05-31T08:37:07.000Z</time>
      </trkpt>
      <trkpt lat="45.66588" lon="5.61424">
        <ele>273.20001220703</ele>
        <time>2023-05-31T08:37:10.000Z</time>
      </trkpt>
      <trkpt lat="45.66588" lon="5.61439">
        <ele>274</ele>
        <time>2023-05-31T08:37:14.000Z</time>
      </trkpt>
      <trkpt lat="45.66588" lon="5.61444">
        <ele>274.20001220703</ele>
        <time>2023-05-31T08:37:15.000Z</time>
      </trkpt>
      <trkpt lat="45.6659" lon="5.61465">
        <ele>275.39999389648</ele>
        <time>2023-05-31T08:37:20.000Z</time>
      </trkpt>
      <trkpt lat="45.66592" lon="5.61478">
        <ele>276</ele>
        <time>2023-05-31T08:37:23.000Z</time>
      </trkpt>
      <trkpt lat="45.66592" lon="5.61488">
        <ele>276.39999389648</ele>
        <time>2023-05-31T08:37:25.000Z</time>
      </trkpt>
      <trkpt lat="45.66591" lon="5.61507">
        <ele>276.79998779297</ele>
        <time>2023-05-31T08:37:29.000Z</time>
      </trkpt>
      <trkpt lat="45.6659" lon="5.6152">
        <ele>277.39999389648</ele>
        <time>2023-05-31T08:37:32.000Z</time>
      </trkpt>
      <trkpt lat="45.6659" lon="5.61529">
        <ele>277.79998779297</ele>
        <time>2023-05-31T08:37:34.000Z</time>
      </trkpt>
      <trkpt lat="45.66593" lon="5.61546">
        <ele>278.60000610352</ele>
        <time>2023-05-31T08:37:38.000Z</time>
      </trkpt>
      <trkpt lat="45.66596" lon="5.61559">
        <ele>279</ele>
        <time>2023-05-31T08:37:41.000Z</time>
      </trkpt>
      <trkpt lat="45.66605" lon="5.61578">
        <ele>279.79998779297</ele>
        <time>2023-05-31T08:37:46.000Z</time>
      </trkpt>
      <trkpt lat="45.6661" lon="5.61585">
        <ele>280.20001220703</ele>
        <time>2023-05-31T08:37:48.000Z</time>
      </trkpt>
      <trkpt lat="45.66617" lon="5.61593">
        <ele>280.60000610352</ele>
        <time>2023-05-31T08:37:51.000Z</time>
      </trkpt>
      <trkpt lat="45.66625" lon="5.61604">
        <ele>281</ele>
        <time>2023-05-31T08:37:54.000Z</time>
      </trkpt>
      <trkpt lat="45.66635" lon="5.61619">
        <ele>281.60000610352</ele>
        <time>2023-05-31T08:37:58.000Z</time>
      </trkpt>
      <trkpt lat="45.66642" lon="5.61631">
        <ele>282</ele>
        <time>2023-05-31T08:38:01.000Z</time>
      </trkpt>
      <trkpt lat="45.66656" lon="5.61664">
        <ele>282</ele>
        <time>2023-05-31T08:38:07.000Z</time>
      </trkpt>
      <trkpt lat="45.6666" lon="5.61677">
        <ele>282.20001220703</ele>
        <time>2023-05-31T08:38:09.000Z</time>
      </trkpt>
      <trkpt lat="45.66671" lon="5.61706">
        <ele>282.39999389648</ele>
        <time>2023-05-31T08:38:14.000Z</time>
      </trkpt>
      <trkpt lat="45.66672" lon="5.61712">
        <ele>282.60000610352</ele>
        <time>2023-05-31T08:38:15.000Z</time>
      </trkpt>
      <trkpt lat="45.66684" lon="5.61742">
        <ele>282.79998779297</ele>
        <time>2023-05-31T08:38:20.000Z</time>
      </trkpt>
      <trkpt lat="45.66686" lon="5.61747">
        <ele>283</ele>
        <time>2023-05-31T08:38:21.000Z</time>
      </trkpt>
      <trkpt lat="45.66694" lon="5.61774">
        <ele>283.20001220703</ele>
        <time>2023-05-31T08:38:25.000Z</time>
      </trkpt>
      <trkpt lat="45.66704" lon="5.61801">
        <ele>283.39999389648</ele>
        <time>2023-05-31T08:38:29.000Z</time>
      </trkpt>
      <trkpt lat="45.6672" lon="5.61841">
        <ele>283.79998779297</ele>
        <time>2023-05-31T08:38:35.000Z</time>
      </trkpt>
      <trkpt lat="45.6674" lon="5.61886">
        <ele>283.60000610352</ele>
        <time>2023-05-31T08:38:42.000Z</time>
      </trkpt>
      <trkpt lat="45.6676" lon="5.6193">
        <ele>283.79998779297</ele>
        <time>2023-05-31T08:38:49.000Z</time>
      </trkpt>
      <trkpt lat="45.66775" lon="5.61979">
        <ele>284</ele>
        <time>2023-05-31T08:38:56.000Z</time>
      </trkpt>
      <trkpt lat="45.66776" lon="5.61985">
        <ele>284</ele>
        <time>2023-05-31T08:38:57.000Z</time>
      </trkpt>
      <trkpt lat="45.66786" lon="5.62021">
        <ele>284.60000610352</ele>
        <time>2023-05-31T08:39:02.000Z</time>
      </trkpt>
      <trkpt lat="45.66794" lon="5.62072">
        <ele>285</ele>
        <time>2023-05-31T08:39:09.000Z</time>
      </trkpt>
      <trkpt lat="45.66793" lon="5.62108">
        <ele>285.79998779297</ele>
        <time>2023-05-31T08:39:14.000Z</time>
      </trkpt>
      <trkpt lat="45.66792" lon="5.62121">
        <ele>286.20001220703</ele>
        <time>2023-05-31T08:39:16.000Z</time>
      </trkpt>
      <trkpt lat="45.66786" lon="5.62173">
        <ele>287.20001220703</ele>
        <time>2023-05-31T08:39:23.000Z</time>
      </trkpt>
      <trkpt lat="45.66785" lon="5.6218">
        <ele>287.39999389648</ele>
        <time>2023-05-31T08:39:24.000Z</time>
      </trkpt>
      <trkpt lat="45.6678" lon="5.6223">
        <ele>288</ele>
        <time>2023-05-31T08:39:31.000Z</time>
      </trkpt>
      <trkpt lat="45.6678" lon="5.62244">
        <ele>288.20001220703</ele>
        <time>2023-05-31T08:39:33.000Z</time>
      </trkpt>
      <trkpt lat="45.66781" lon="5.62281">
        <ele>288.79998779297</ele>
        <time>2023-05-31T08:39:38.000Z</time>
      </trkpt>
      <trkpt lat="45.66783" lon="5.62296">
        <ele>289</ele>
        <time>2023-05-31T08:39:40.000Z</time>
      </trkpt>
      <trkpt lat="45.66795" lon="5.62346">
        <ele>289</ele>
        <time>2023-05-31T08:39:47.000Z</time>
      </trkpt>
      <trkpt lat="45.66798" lon="5.62352">
        <ele>289.20001220703</ele>
        <time>2023-05-31T08:39:48.000Z</time>
      </trkpt>
      <trkpt lat="45.66811" lon="5.62384">
        <ele>289.79998779297</ele>
        <time>2023-05-31T08:39:53.000Z</time>
      </trkpt>
      <trkpt lat="45.66814" lon="5.6239">
        <ele>290</ele>
        <time>2023-05-31T08:39:54.000Z</time>
      </trkpt>
      <trkpt lat="45.6682" lon="5.62401">
        <ele>290.20001220703</ele>
        <time>2023-05-31T08:39:56.000Z</time>
      </trkpt>
      <trkpt lat="45.66825" lon="5.62412">
        <ele>290.39999389648</ele>
        <time>2023-05-31T08:39:58.000Z</time>
      </trkpt>
      <trkpt lat="45.66828" lon="5.62418">
        <ele>290.60000610352</ele>
        <time>2023-05-31T08:39:59.000Z</time>
      </trkpt>
      <trkpt lat="45.66831" lon="5.62424">
        <ele>290.79998779297</ele>
        <time>2023-05-31T08:40:00.000Z</time>
      </trkpt>
      <trkpt lat="45.66842" lon="5.62443">
        <ele>291</ele>
        <time>2023-05-31T08:40:03.000Z</time>
      </trkpt>
      <trkpt lat="45.66847" lon="5.62457">
        <ele>291.20001220703</ele>
        <time>2023-05-31T08:40:05.000Z</time>
      </trkpt>
      <trkpt lat="45.66858" lon="5.62503">
        <ele>291</ele>
        <time>2023-05-31T08:40:11.000Z</time>
      </trkpt>
      <trkpt lat="45.66868" lon="5.6254">
        <ele>291</ele>
        <time>2023-05-31T08:40:16.000Z</time>
      </trkpt>
      <trkpt lat="45.6687" lon="5.62547">
        <ele>291</ele>
        <time>2023-05-31T08:40:17.000Z</time>
      </trkpt>
      <trkpt lat="45.6688" lon="5.62569">
        <ele>291</ele>
        <time>2023-05-31T08:40:20.000Z</time>
      </trkpt>
      <trkpt lat="45.66897" lon="5.62603">
        <ele>291</ele>
        <time>2023-05-31T08:40:25.000Z</time>
      </trkpt>
      <trkpt lat="45.66913" lon="5.62637">
        <ele>291</ele>
        <time>2023-05-31T08:40:30.000Z</time>
      </trkpt>
      <trkpt lat="45.66918" lon="5.62651">
        <ele>291</ele>
        <time>2023-05-31T08:40:32.000Z</time>
      </trkpt>
      <trkpt lat="45.66944" lon="5.62712">
        <ele>291.39999389648</ele>
        <time>2023-05-31T08:40:41.000Z</time>
      </trkpt>
      <trkpt lat="45.66965" lon="5.62768">
        <ele>291.79998779297</ele>
        <time>2023-05-31T08:40:49.000Z</time>
      </trkpt>
      <trkpt lat="45.66967" lon="5.62775">
        <ele>292</ele>
        <time>2023-05-31T08:40:50.000Z</time>
      </trkpt>
      <trkpt lat="45.66992" lon="5.62843">
        <ele>292.20001220703</ele>
        <time>2023-05-31T08:40:59.000Z</time>
      </trkpt>
      <trkpt lat="45.67001" lon="5.62867">
        <ele>292.20001220703</ele>
        <time>2023-05-31T08:41:02.000Z</time>
      </trkpt>
      <trkpt lat="45.67018" lon="5.62916">
        <ele>291.79998779297</ele>
        <time>2023-05-31T08:41:08.000Z</time>
      </trkpt>
      <trkpt lat="45.67041" lon="5.62977">
        <ele>291.39999389648</ele>
        <time>2023-05-31T08:41:16.000Z</time>
      </trkpt>
      <trkpt lat="45.67066" lon="5.63046">
        <ele>291.20001220703</ele>
        <time>2023-05-31T08:41:25.000Z</time>
      </trkpt>
      <trkpt lat="45.67093" lon="5.63114">
        <ele>291.39999389648</ele>
        <time>2023-05-31T08:41:34.000Z</time>
      </trkpt>
      <trkpt lat="45.67102" lon="5.63137">
        <ele>291.39999389648</ele>
        <time>2023-05-31T08:41:37.000Z</time>
      </trkpt>
      <trkpt lat="45.67113" lon="5.63167">
        <ele>291.39999389648</ele>
        <time>2023-05-31T08:41:41.000Z</time>
      </trkpt>
      <trkpt lat="45.67129" lon="5.63209">
        <ele>291.39999389648</ele>
        <time>2023-05-31T08:41:47.000Z</time>
      </trkpt>
      <trkpt lat="45.67156" lon="5.63283">
        <ele>291.60000610352</ele>
        <time>2023-05-31T08:41:57.000Z</time>
      </trkpt>
      <trkpt lat="45.67159" lon="5.6329">
        <ele>291.60000610352</ele>
        <time>2023-05-31T08:41:58.000Z</time>
      </trkpt>
      <trkpt lat="45.67185" lon="5.63361">
        <ele>291.79998779297</ele>
        <time>2023-05-31T08:42:08.000Z</time>
      </trkpt>
      <trkpt lat="45.67212" lon="5.63433">
        <ele>292.20001220703</ele>
        <time>2023-05-31T08:42:18.000Z</time>
      </trkpt>
      <trkpt lat="45.67214" lon="5.6344">
        <ele>292.20001220703</ele>
        <time>2023-05-31T08:42:19.000Z</time>
      </trkpt>
      <trkpt lat="45.67241" lon="5.63509">
        <ele>292.39999389648</ele>
        <time>2023-05-31T08:42:29.000Z</time>
      </trkpt>
      <trkpt lat="45.67249" lon="5.6353">
        <ele>292.60000610352</ele>
        <time>2023-05-31T08:42:32.000Z</time>
      </trkpt>
      <trkpt lat="45.6727" lon="5.63589">
        <ele>293</ele>
        <time>2023-05-31T08:42:40.000Z</time>
      </trkpt>
      <trkpt lat="45.67296" lon="5.63659">
        <ele>293.20001220703</ele>
        <time>2023-05-31T08:42:50.000Z</time>
      </trkpt>
      <trkpt lat="45.67307" lon="5.63687">
        <ele>293.20001220703</ele>
        <time>2023-05-31T08:42:54.000Z</time>
      </trkpt>
      <trkpt lat="45.6733" lon="5.6375">
        <ele>293.20001220703</ele>
        <time>2023-05-31T08:43:03.000Z</time>
      </trkpt>
      <trkpt lat="45.67357" lon="5.63821">
        <ele>293.79998779297</ele>
        <time>2023-05-31T08:43:13.000Z</time>
      </trkpt>
      <trkpt lat="45.67366" lon="5.63849">
        <ele>293.79998779297</ele>
        <time>2023-05-31T08:43:17.000Z</time>
      </trkpt>
      <trkpt lat="45.67384" lon="5.63918">
        <ele>293.79998779297</ele>
        <time>2023-05-31T08:43:26.000Z</time>
      </trkpt>
      <trkpt lat="45.67393" lon="5.63981">
        <ele>294</ele>
        <time>2023-05-31T08:43:34.000Z</time>
      </trkpt>
      <trkpt lat="45.67396" lon="5.64028">
        <ele>294.39999389648</ele>
        <time>2023-05-31T08:43:40.000Z</time>
      </trkpt>
      <trkpt lat="45.67398" lon="5.64059">
        <ele>294.60000610352</ele>
        <time>2023-05-31T08:43:44.000Z</time>
      </trkpt>
      <trkpt lat="45.67402" lon="5.64124">
        <ele>295.60000610352</ele>
        <time>2023-05-31T08:43:53.000Z</time>
      </trkpt>
      <trkpt lat="45.67403" lon="5.64133">
        <ele>295.79998779297</ele>
        <time>2023-05-31T08:43:54.000Z</time>
      </trkpt>
      <trkpt lat="45.67403" lon="5.64141">
        <ele>296</ele>
        <time>2023-05-31T08:43:55.000Z</time>
      </trkpt>
      <trkpt lat="45.67405" lon="5.64172">
        <ele>296.20001220703</ele>
        <time>2023-05-31T08:43:59.000Z</time>
      </trkpt>
      <trkpt lat="45.67406" lon="5.64201">
        <ele>296.60000610352</ele>
        <time>2023-05-31T08:44:03.000Z</time>
      </trkpt>
      <trkpt lat="45.67409" lon="5.64231">
        <ele>296.60000610352</ele>
        <time>2023-05-31T08:44:07.000Z</time>
      </trkpt>
      <trkpt lat="45.67414" lon="5.6431">
        <ele>297.20001220703</ele>
        <time>2023-05-31T08:44:17.000Z</time>
      </trkpt>
      <trkpt lat="45.67415" lon="5.64326">
        <ele>297.39999389648</ele>
        <time>2023-05-31T08:44:19.000Z</time>
      </trkpt>
      <trkpt lat="45.67413" lon="5.64387">
        <ele>297.60000610352</ele>
        <time>2023-05-31T08:44:27.000Z</time>
      </trkpt>
      <trkpt lat="45.67411" lon="5.64401">
        <ele>297.79998779297</ele>
        <time>2023-05-31T08:44:29.000Z</time>
      </trkpt>
      <trkpt lat="45.67406" lon="5.64423">
        <ele>298</ele>
        <time>2023-05-31T08:44:32.000Z</time>
      </trkpt>
      <trkpt lat="45.67399" lon="5.64482">
        <ele>298</ele>
        <time>2023-05-31T08:44:39.000Z</time>
      </trkpt>
      <trkpt lat="45.67395" lon="5.64498">
        <ele>298</ele>
        <time>2023-05-31T08:44:41.000Z</time>
      </trkpt>
      <trkpt lat="45.67386" lon="5.64553">
        <ele>298.20001220703</ele>
        <time>2023-05-31T08:44:48.000Z</time>
      </trkpt>
      <trkpt lat="45.67381" lon="5.64616">
        <ele>298.79998779297</ele>
        <time>2023-05-31T08:44:56.000Z</time>
      </trkpt>
      <trkpt lat="45.67383" lon="5.64671">
        <ele>299.20001220703</ele>
        <time>2023-05-31T08:45:03.000Z</time>
      </trkpt>
      <trkpt lat="45.67385" lon="5.64686">
        <ele>299.20001220703</ele>
        <time>2023-05-31T08:45:05.000Z</time>
      </trkpt>
      <trkpt lat="45.67394" lon="5.64724">
        <ele>299.60000610352</ele>
        <time>2023-05-31T08:45:10.000Z</time>
      </trkpt>
      <trkpt lat="45.67418" lon="5.6478">
        <ele>299.39999389648</ele>
        <time>2023-05-31T08:45:18.000Z</time>
      </trkpt>
      <trkpt lat="45.67447" lon="5.64823">
        <ele>299.60000610352</ele>
        <time>2023-05-31T08:45:25.000Z</time>
      </trkpt>
      <trkpt lat="45.67483" lon="5.64858">
        <ele>300</ele>
        <time>2023-05-31T08:45:32.000Z</time>
      </trkpt>
      <trkpt lat="45.67515" lon="5.64887">
        <ele>299.79998779297</ele>
        <time>2023-05-31T08:45:38.000Z</time>
      </trkpt>
      <trkpt lat="45.67559" lon="5.64923">
        <ele>300</ele>
        <time>2023-05-31T08:45:46.000Z</time>
      </trkpt>
      <trkpt lat="45.67591" lon="5.64948">
        <ele>300</ele>
        <time>2023-05-31T08:45:52.000Z</time>
      </trkpt>
      <trkpt lat="45.67622" lon="5.64974">
        <ele>300</ele>
        <time>2023-05-31T08:45:58.000Z</time>
      </trkpt>
      <trkpt lat="45.67628" lon="5.64979">
        <ele>300</ele>
        <time>2023-05-31T08:45:59.000Z</time>
      </trkpt>
      <trkpt lat="45.67661" lon="5.65006">
        <ele>300.20001220703</ele>
        <time>2023-05-31T08:46:06.000Z</time>
      </trkpt>
      <trkpt lat="45.67671" lon="5.65014">
        <ele>300.60000610352</ele>
        <time>2023-05-31T08:46:08.000Z</time>
      </trkpt>
      <trkpt lat="45.67705" lon="5.65039">
        <ele>301.39999389648</ele>
        <time>2023-05-31T08:46:15.000Z</time>
      </trkpt>
      <trkpt lat="45.67726" lon="5.65052">
        <ele>301.60000610352</ele>
        <time>2023-05-31T08:46:19.000Z</time>
      </trkpt>
      <trkpt lat="45.67779" lon="5.65083">
        <ele>301.60000610352</ele>
        <time>2023-05-31T08:46:29.000Z</time>
      </trkpt>
      <trkpt lat="45.67784" lon="5.65086">
        <ele>301.60000610352</ele>
        <time>2023-05-31T08:46:30.000Z</time>
      </trkpt>
      <trkpt lat="45.6784" lon="5.65119">
        <ele>301.79998779297</ele>
        <time>2023-05-31T08:46:40.000Z</time>
      </trkpt>
      <trkpt lat="45.67845" lon="5.65122">
        <ele>301.79998779297</ele>
        <time>2023-05-31T08:46:41.000Z</time>
      </trkpt>
      <trkpt lat="45.67897" lon="5.65152">
        <ele>301.79998779297</ele>
        <time>2023-05-31T08:46:50.000Z</time>
      </trkpt>
      <trkpt lat="45.67908" lon="5.65159">
        <ele>301.60000610352</ele>
        <time>2023-05-31T08:46:52.000Z</time>
      </trkpt>
      <trkpt lat="45.67955" lon="5.65189">
        <ele>301.39999389648</ele>
        <time>2023-05-31T08:47:01.000Z</time>
      </trkpt>
      <trkpt lat="45.6796" lon="5.65192">
        <ele>301.39999389648</ele>
        <time>2023-05-31T08:47:02.000Z</time>
      </trkpt>
      <trkpt lat="45.68008" lon="5.65222">
        <ele>301.79998779297</ele>
        <time>2023-05-31T08:47:11.000Z</time>
      </trkpt>
      <trkpt lat="45.6806" lon="5.65253">
        <ele>302.39999389648</ele>
        <time>2023-05-31T08:47:21.000Z</time>
      </trkpt>
      <trkpt lat="45.68096" lon="5.65275">
        <ele>302.60000610352</ele>
        <time>2023-05-31T08:47:28.000Z</time>
      </trkpt>
      <trkpt lat="45.68122" lon="5.65289">
        <ele>302.79998779297</ele>
        <time>2023-05-31T08:47:33.000Z</time>
      </trkpt>
      <trkpt lat="45.68146" lon="5.65305">
        <ele>303.20001220703</ele>
        <time>2023-05-31T08:47:38.000Z</time>
      </trkpt>
      <trkpt lat="45.68193" lon="5.65332">
        <ele>303.60000610352</ele>
        <time>2023-05-31T08:47:47.000Z</time>
      </trkpt>
      <trkpt lat="45.68203" lon="5.65337">
        <ele>303.60000610352</ele>
        <time>2023-05-31T08:47:49.000Z</time>
      </trkpt>
      <trkpt lat="45.68227" lon="5.65352">
        <ele>303.60000610352</ele>
        <time>2023-05-31T08:47:54.000Z</time>
      </trkpt>
      <trkpt lat="45.68232" lon="5.65362">
        <ele>303.60000610352</ele>
        <time>2023-05-31T08:47:56.000Z</time>
      </trkpt>
      <trkpt lat="45.68229" lon="5.65375">
        <ele>303.60000610352</ele>
        <time>2023-05-31T08:47:58.000Z</time>
      </trkpt>
      <trkpt lat="45.6822" lon="5.65384">
        <ele>303.60000610352</ele>
        <time>2023-05-31T08:48:00.000Z</time>
      </trkpt>
      <trkpt lat="45.68213" lon="5.65393">
        <ele>303.79998779297</ele>
        <time>2023-05-31T08:48:02.000Z</time>
      </trkpt>
      <trkpt lat="45.68209" lon="5.65398">
        <ele>304</ele>
        <time>2023-05-31T08:48:03.000Z</time>
      </trkpt>
      <trkpt lat="45.68191" lon="5.65424">
        <ele>304.60000610352</ele>
        <time>2023-05-31T08:48:09.000Z</time>
      </trkpt>
      <trkpt lat="45.68186" lon="5.65433">
        <ele>304.79998779297</ele>
        <time>2023-05-31T08:48:11.000Z</time>
      </trkpt>
      <trkpt lat="45.68184" lon="5.65438">
        <ele>305</ele>
        <time>2023-05-31T08:48:12.000Z</time>
      </trkpt>
      <trkpt lat="45.68177" lon="5.65451">
        <ele>305.60000610352</ele>
        <time>2023-05-31T08:48:15.000Z</time>
      </trkpt>
      <trkpt lat="45.68171" lon="5.65483">
        <ele>306.60000610352</ele>
        <time>2023-05-31T08:48:21.000Z</time>
      </trkpt>
      <trkpt lat="45.68175" lon="5.65511">
        <ele>307.60000610352</ele>
        <time>2023-05-31T08:48:26.000Z</time>
      </trkpt>
      <trkpt lat="45.68177" lon="5.65516">
        <ele>307.79998779297</ele>
        <time>2023-05-31T08:48:27.000Z</time>
      </trkpt>
      <trkpt lat="45.68189" lon="5.65546">
        <ele>308.79998779297</ele>
        <time>2023-05-31T08:48:34.000Z</time>
      </trkpt>
      <trkpt lat="45.68192" lon="5.65558">
        <ele>309.39999389648</ele>
        <time>2023-05-31T08:48:37.000Z</time>
      </trkpt>
      <trkpt lat="45.68194" lon="5.65571">
        <ele>309.79998779297</ele>
        <time>2023-05-31T08:48:40.000Z</time>
      </trkpt>
      <trkpt lat="45.68197" lon="5.65591">
        <ele>311</ele>
        <time>2023-05-31T08:48:45.000Z</time>
      </trkpt>
      <trkpt lat="45.68198" lon="5.65603">
        <ele>311.60000610352</ele>
        <time>2023-05-31T08:48:48.000Z</time>
      </trkpt>
      <trkpt lat="45.68199" lon="5.65615">
        <ele>312.20001220703</ele>
        <time>2023-05-31T08:48:51.000Z</time>
      </trkpt>
      <trkpt lat="45.68203" lon="5.65633">
        <ele>313</ele>
        <time>2023-05-31T08:48:56.000Z</time>
      </trkpt>
      <trkpt lat="45.68204" lon="5.65636">
        <ele>313.39999389648</ele>
        <time>2023-05-31T08:48:57.000Z</time>
      </trkpt>
      <trkpt lat="45.68208" lon="5.65651">
        <ele>314.60000610352</ele>
        <time>2023-05-31T08:49:02.000Z</time>
      </trkpt>
      <trkpt lat="45.68211" lon="5.65661">
        <ele>315.20001220703</ele>
        <time>2023-05-31T08:49:05.000Z</time>
      </trkpt>
      <trkpt lat="45.68214" lon="5.6567">
        <ele>315.79998779297</ele>
        <time>2023-05-31T08:49:08.000Z</time>
      </trkpt>
      <trkpt lat="45.68216" lon="5.65682">
        <ele>316.79998779297</ele>
        <time>2023-05-31T08:49:12.000Z</time>
      </trkpt>
      <trkpt lat="45.68216" lon="5.65698">
        <ele>317.79998779297</ele>
        <time>2023-05-31T08:49:17.000Z</time>
      </trkpt>
      <trkpt lat="45.68217" lon="5.6571">
        <ele>318.60000610352</ele>
        <time>2023-05-31T08:49:21.000Z</time>
      </trkpt>
      <trkpt lat="45.68217" lon="5.65713">
        <ele>318.79998779297</ele>
        <time>2023-05-31T08:49:22.000Z</time>
      </trkpt>
      <trkpt lat="45.68217" lon="5.65729">
        <ele>320.20001220703</ele>
        <time>2023-05-31T08:49:27.000Z</time>
      </trkpt>
      <trkpt lat="45.68218" lon="5.65745">
        <ele>321.20001220703</ele>
        <time>2023-05-31T08:49:32.000Z</time>
      </trkpt>
      <trkpt lat="45.68221" lon="5.6576">
        <ele>322.39999389648</ele>
        <time>2023-05-31T08:49:37.000Z</time>
      </trkpt>
      <trkpt lat="45.68225" lon="5.65767">
        <ele>323.20001220703</ele>
        <time>2023-05-31T08:49:40.000Z</time>
      </trkpt>
      <trkpt lat="45.68226" lon="5.65769">
        <ele>323.60000610352</ele>
        <time>2023-05-31T08:49:41.000Z</time>
      </trkpt>
      <trkpt lat="45.68232" lon="5.65777">
        <ele>324.79998779297</ele>
        <time>2023-05-31T08:49:45.000Z</time>
      </trkpt>
      <trkpt lat="45.68234" lon="5.65779">
        <ele>325.20001220703</ele>
        <time>2023-05-31T08:49:46.000Z</time>
      </trkpt>
      <trkpt lat="45.68238" lon="5.65783">
        <ele>326</ele>
        <time>2023-05-31T08:49:48.000Z</time>
      </trkpt>
      <trkpt lat="45.68239" lon="5.65785">
        <ele>326.39999389648</ele>
        <time>2023-05-31T08:49:49.000Z</time>
      </trkpt>
      <trkpt lat="45.68242" lon="5.65788">
        <ele>327.20001220703</ele>
        <time>2023-05-31T08:49:51.000Z</time>
      </trkpt>
      <trkpt lat="45.68248" lon="5.65797">
        <ele>328.20001220703</ele>
        <time>2023-05-31T08:49:55.000Z</time>
      </trkpt>
      <trkpt lat="45.68251" lon="5.65801">
        <ele>328.79998779297</ele>
        <time>2023-05-31T08:49:57.000Z</time>
      </trkpt>
      <trkpt lat="45.68254" lon="5.65805">
        <ele>329.20001220703</ele>
        <time>2023-05-31T08:49:59.000Z</time>
      </trkpt>
      <trkpt lat="45.68258" lon="5.65812">
        <ele>330.39999389648</ele>
        <time>2023-05-31T08:50:02.000Z</time>
      </trkpt>
      <trkpt lat="45.68264" lon="5.6582">
        <ele>331</ele>
        <time>2023-05-31T08:50:06.000Z</time>
      </trkpt>
      <trkpt lat="45.68266" lon="5.65823">
        <ele>331.39999389648</ele>
        <time>2023-05-31T08:50:07.000Z</time>
      </trkpt>
      <trkpt lat="45.68271" lon="5.65828">
        <ele>332.39999389648</ele>
        <time>2023-05-31T08:50:10.000Z</time>
      </trkpt>
      <trkpt lat="45.68275" lon="5.65832">
        <ele>332.60000610352</ele>
        <time>2023-05-31T08:50:12.000Z</time>
      </trkpt>
      <trkpt lat="45.68282" lon="5.65837">
        <ele>333.60000610352</ele>
        <time>2023-05-31T08:50:16.000Z</time>
      </trkpt>
      <trkpt lat="45.68291" lon="5.65841">
        <ele>334.60000610352</ele>
        <time>2023-05-31T08:50:20.000Z</time>
      </trkpt>
      <trkpt lat="45.68298" lon="5.65845">
        <ele>335.79998779297</ele>
        <time>2023-05-31T08:50:24.000Z</time>
      </trkpt>
      <trkpt lat="45.68306" lon="5.65848">
        <ele>336.79998779297</ele>
        <time>2023-05-31T08:50:28.000Z</time>
      </trkpt>
      <trkpt lat="45.68312" lon="5.6585">
        <ele>337.79998779297</ele>
        <time>2023-05-31T08:50:31.000Z</time>
      </trkpt>
      <trkpt lat="45.68319" lon="5.65852">
        <ele>339</ele>
        <time>2023-05-31T08:50:34.000Z</time>
      </trkpt>
      <trkpt lat="45.68323" lon="5.65854">
        <ele>339.39999389648</ele>
        <time>2023-05-31T08:50:36.000Z</time>
      </trkpt>
      <trkpt lat="45.68328" lon="5.65857">
        <ele>340</ele>
        <time>2023-05-31T08:50:39.000Z</time>
      </trkpt>
      <trkpt lat="45.68334" lon="5.65859">
        <ele>340.79998779297</ele>
        <time>2023-05-31T08:50:42.000Z</time>
      </trkpt>
      <trkpt lat="45.68337" lon="5.65861">
        <ele>341.39999389648</ele>
        <time>2023-05-31T08:50:44.000Z</time>
      </trkpt>
      <trkpt lat="45.68349" lon="5.65866">
        <ele>342.39999389648</ele>
        <time>2023-05-31T08:50:49.000Z</time>
      </trkpt>
      <trkpt lat="45.68357" lon="5.65867">
        <ele>343</ele>
        <time>2023-05-31T08:50:52.000Z</time>
      </trkpt>
      <trkpt lat="45.68367" lon="5.65867">
        <ele>343.60000610352</ele>
        <time>2023-05-31T08:50:56.000Z</time>
      </trkpt>
      <trkpt lat="45.68375" lon="5.65866">
        <ele>344.20001220703</ele>
        <time>2023-05-31T08:50:59.000Z</time>
      </trkpt>
      <trkpt lat="45.68384" lon="5.65862">
        <ele>344.79998779297</ele>
        <time>2023-05-31T08:51:03.000Z</time>
      </trkpt>
      <trkpt lat="45.68393" lon="5.65861">
        <ele>345.60000610352</ele>
        <time>2023-05-31T08:51:07.000Z</time>
      </trkpt>
      <trkpt lat="45.68395" lon="5.65862">
        <ele>345.79998779297</ele>
        <time>2023-05-31T08:51:08.000Z</time>
      </trkpt>
      <trkpt lat="45.68396" lon="5.65864">
        <ele>346</ele>
        <time>2023-05-31T08:51:09.000Z</time>
      </trkpt>
      <trkpt lat="45.68399" lon="5.6587">
        <ele>346.60000610352</ele>
        <time>2023-05-31T08:51:11.000Z</time>
      </trkpt>
      <trkpt lat="45.68402" lon="5.65877">
        <ele>347.20001220703</ele>
        <time>2023-05-31T08:51:13.000Z</time>
      </trkpt>
      <trkpt lat="45.68406" lon="5.65889">
        <ele>348</ele>
        <time>2023-05-31T08:51:17.000Z</time>
      </trkpt>
      <trkpt lat="45.68408" lon="5.65892">
        <ele>348.20001220703</ele>
        <time>2023-05-31T08:51:18.000Z</time>
      </trkpt>
      <trkpt lat="45.68415" lon="5.65907">
        <ele>349.20001220703</ele>
        <time>2023-05-31T08:51:23.000Z</time>
      </trkpt>
      <trkpt lat="45.68416" lon="5.6591">
        <ele>349.60000610352</ele>
        <time>2023-05-31T08:51:24.000Z</time>
      </trkpt>
      <trkpt lat="45.68419" lon="5.65921">
        <ele>350.39999389648</ele>
        <time>2023-05-31T08:51:28.000Z</time>
      </trkpt>
      <trkpt lat="45.68423" lon="5.65933">
        <ele>351.60000610352</ele>
        <time>2023-05-31T08:51:32.000Z</time>
      </trkpt>
      <trkpt lat="45.68428" lon="5.65946">
        <ele>352.39999389648</ele>
        <time>2023-05-31T08:51:37.000Z</time>
      </trkpt>
      <trkpt lat="45.6843" lon="5.65951">
        <ele>353.39999389648</ele>
        <time>2023-05-31T08:51:39.000Z</time>
      </trkpt>
      <trkpt lat="45.68431" lon="5.65953">
        <ele>353.60000610352</ele>
        <time>2023-05-31T08:51:40.000Z</time>
      </trkpt>
      <trkpt lat="45.68436" lon="5.65966">
        <ele>354.79998779297</ele>
        <time>2023-05-31T08:51:45.000Z</time>
      </trkpt>
      <trkpt lat="45.68436" lon="5.65968">
        <ele>355.20001220703</ele>
        <time>2023-05-31T08:51:46.000Z</time>
      </trkpt>
      <trkpt lat="45.68436" lon="5.65981">
        <ele>356</ele>
        <time>2023-05-31T08:51:50.000Z</time>
      </trkpt>
      <trkpt lat="45.68435" lon="5.65986">
        <ele>356.79998779297</ele>
        <time>2023-05-31T08:51:52.000Z</time>
      </trkpt>
      <trkpt lat="45.68434" lon="5.65989">
        <ele>357.20001220703</ele>
        <time>2023-05-31T08:51:53.000Z</time>
      </trkpt>
      <trkpt lat="45.68431" lon="5.66001">
        <ele>358.20001220703</ele>
        <time>2023-05-31T08:51:58.000Z</time>
      </trkpt>
      <trkpt lat="45.6843" lon="5.66004">
        <ele>358.39999389648</ele>
        <time>2023-05-31T08:51:59.000Z</time>
      </trkpt>
      <trkpt lat="45.68428" lon="5.66028">
        <ele>359.60000610352</ele>
        <time>2023-05-31T08:52:05.000Z</time>
      </trkpt>
      <trkpt lat="45.68429" lon="5.66032">
        <ele>360</ele>
        <time>2023-05-31T08:52:06.000Z</time>
      </trkpt>
      <trkpt lat="45.6843" lon="5.6604">
        <ele>360.60000610352</ele>
        <time>2023-05-31T08:52:08.000Z</time>
      </trkpt>
      <trkpt lat="45.68434" lon="5.66057">
        <ele>361.60000610352</ele>
        <time>2023-05-31T08:52:13.000Z</time>
      </trkpt>
      <trkpt lat="45.68435" lon="5.66064">
        <ele>362.20001220703</ele>
        <time>2023-05-31T08:52:15.000Z</time>
      </trkpt>
      <trkpt lat="45.68435" lon="5.66071">
        <ele>362.79998779297</ele>
        <time>2023-05-31T08:52:17.000Z</time>
      </trkpt>
      <trkpt lat="45.68437" lon="5.66077">
        <ele>363.20001220703</ele>
        <time>2023-05-31T08:52:19.000Z</time>
      </trkpt>
      <trkpt lat="45.68438" lon="5.66083">
        <ele>364</ele>
        <time>2023-05-31T08:52:21.000Z</time>
      </trkpt>
      <trkpt lat="45.68439" lon="5.66093">
        <ele>364.79998779297</ele>
        <time>2023-05-31T08:52:24.000Z</time>
      </trkpt>
      <trkpt lat="45.6844" lon="5.66096">
        <ele>365.20001220703</ele>
        <time>2023-05-31T08:52:25.000Z</time>
      </trkpt>
      <trkpt lat="45.68442" lon="5.66108">
        <ele>366.39999389648</ele>
        <time>2023-05-31T08:52:29.000Z</time>
      </trkpt>
      <trkpt lat="45.68446" lon="5.6612">
        <ele>367</ele>
        <time>2023-05-31T08:52:33.000Z</time>
      </trkpt>
      <trkpt lat="45.68447" lon="5.66125">
        <ele>367.39999389648</ele>
        <time>2023-05-31T08:52:35.000Z</time>
      </trkpt>
      <trkpt lat="45.68451" lon="5.66139">
        <ele>367.60000610352</ele>
        <time>2023-05-31T08:52:40.000Z</time>
      </trkpt>
      <trkpt lat="45.68453" lon="5.66148">
        <ele>367.60000610352</ele>
        <time>2023-05-31T08:52:44.000Z</time>
      </trkpt>
      <trkpt lat="45.68453" lon="5.66148">
        <ele>367.60000610352</ele>
        <time>2023-05-31T08:52:45.000Z</time>
      </trkpt>
      <trkpt lat="45.68453" lon="5.66148">
        <ele>367.39999389648</ele>
        <time>2023-05-31T08:52:46.000Z</time>
      </trkpt>
      <trkpt lat="45.68453" lon="5.66156">
        <ele>367.39999389648</ele>
        <time>2023-05-31T08:52:53.000Z</time>
      </trkpt>
      <trkpt lat="45.68453" lon="5.66162">
        <ele>367.39999389648</ele>
        <time>2023-05-31T08:52:55.000Z</time>
      </trkpt>
      <trkpt lat="45.68451" lon="5.66192">
        <ele>367</ele>
        <time>2023-05-31T08:53:01.000Z</time>
      </trkpt>
      <trkpt lat="45.68449" lon="5.66222">
        <ele>366.60000610352</ele>
        <time>2023-05-31T08:53:05.000Z</time>
      </trkpt>
      <trkpt lat="45.6845" lon="5.6623">
        <ele>366.39999389648</ele>
        <time>2023-05-31T08:53:06.000Z</time>
      </trkpt>
      <trkpt lat="45.68451" lon="5.66238">
        <ele>366.39999389648</ele>
        <time>2023-05-31T08:53:07.000Z</time>
      </trkpt>
      <trkpt lat="45.68455" lon="5.66251">
        <ele>366.39999389648</ele>
        <time>2023-05-31T08:53:09.000Z</time>
      </trkpt>
      <trkpt lat="45.68456" lon="5.66259">
        <ele>366.20001220703</ele>
        <time>2023-05-31T08:53:10.000Z</time>
      </trkpt>
      <trkpt lat="45.68458" lon="5.66277">
        <ele>366</ele>
        <time>2023-05-31T08:53:12.000Z</time>
      </trkpt>
      <trkpt lat="45.68459" lon="5.66289">
        <ele>366</ele>
        <time>2023-05-31T08:53:13.000Z</time>
      </trkpt>
      <trkpt lat="45.6847" lon="5.66327">
        <ele>365.20001220703</ele>
        <time>2023-05-31T08:53:17.000Z</time>
      </trkpt>
      <trkpt lat="45.68473" lon="5.66337">
        <ele>365</ele>
        <time>2023-05-31T08:53:18.000Z</time>
      </trkpt>
      <trkpt lat="45.6849" lon="5.66371">
        <ele>365</ele>
        <time>2023-05-31T08:53:23.000Z</time>
      </trkpt>
      <trkpt lat="45.68492" lon="5.66374">
        <ele>365.20001220703</ele>
        <time>2023-05-31T08:53:24.000Z</time>
      </trkpt>
      <trkpt lat="45.68498" lon="5.66389">
        <ele>366</ele>
        <time>2023-05-31T08:53:27.000Z</time>
      </trkpt>
      <trkpt lat="45.685" lon="5.66393">
        <ele>366.20001220703</ele>
        <time>2023-05-31T08:53:28.000Z</time>
      </trkpt>
      <trkpt lat="45.68506" lon="5.66404">
        <ele>367.39999389648</ele>
        <time>2023-05-31T08:53:31.000Z</time>
      </trkpt>
      <trkpt lat="45.68513" lon="5.66418">
        <ele>368.60000610352</ele>
        <time>2023-05-31T08:53:35.000Z</time>
      </trkpt>
      <trkpt lat="45.68518" lon="5.66428">
        <ele>370</ele>
        <time>2023-05-31T08:53:38.000Z</time>
      </trkpt>
      <trkpt lat="45.68525" lon="5.6644">
        <ele>371</ele>
        <time>2023-05-31T08:53:42.000Z</time>
      </trkpt>
      <trkpt lat="45.68533" lon="5.66457">
        <ele>372</ele>
        <time>2023-05-31T08:53:48.000Z</time>
      </trkpt>
      <trkpt lat="45.68537" lon="5.66462">
        <ele>372.39999389648</ele>
        <time>2023-05-31T08:53:53.000Z</time>
      </trkpt>
      <trkpt lat="45.68542" lon="5.66469">
        <ele>372</ele>
        <time>2023-05-31T08:57:26.000Z</time>
      </trkpt>
      <trkpt lat="45.68548" lon="5.66476">
        <ele>372</ele>
        <time>2023-05-31T08:57:29.000Z</time>
      </trkpt>
      <trkpt lat="45.68563" lon="5.66499">
        <ele>371.39999389648</ele>
        <time>2023-05-31T08:57:35.000Z</time>
      </trkpt>
      <trkpt lat="45.68566" lon="5.66504">
        <ele>371.20001220703</ele>
        <time>2023-05-31T08:57:36.000Z</time>
      </trkpt>
      <trkpt lat="45.68573" lon="5.66519">
        <ele>370.39999389648</ele>
        <time>2023-05-31T08:57:38.000Z</time>
      </trkpt>
      <trkpt lat="45.68576" lon="5.66528">
        <ele>369.79998779297</ele>
        <time>2023-05-31T08:57:39.000Z</time>
      </trkpt>
      <trkpt lat="45.68579" lon="5.66537">
        <ele>369</ele>
        <time>2023-05-31T08:57:40.000Z</time>
      </trkpt>
      <trkpt lat="45.68581" lon="5.66547">
        <ele>367.79998779297</ele>
        <time>2023-05-31T08:57:41.000Z</time>
      </trkpt>
      <trkpt lat="45.68586" lon="5.66573">
        <ele>367</ele>
        <time>2023-05-31T08:57:43.000Z</time>
      </trkpt>
      <trkpt lat="45.6859" lon="5.66589">
        <ele>366.39999389648</ele>
        <time>2023-05-31T08:57:44.000Z</time>
      </trkpt>
      <trkpt lat="45.68599" lon="5.66631">
        <ele>364.39999389648</ele>
        <time>2023-05-31T08:57:47.000Z</time>
      </trkpt>
      <trkpt lat="45.68603" lon="5.66648">
        <ele>363.20001220703</ele>
        <time>2023-05-31T08:57:48.000Z</time>
      </trkpt>
      <trkpt lat="45.6861" lon="5.66681">
        <ele>362.20001220703</ele>
        <time>2023-05-31T08:57:51.000Z</time>
      </trkpt>
      <trkpt lat="45.6861" lon="5.66691">
        <ele>362</ele>
        <time>2023-05-31T08:57:52.000Z</time>
      </trkpt>
      <trkpt lat="45.68607" lon="5.66699">
        <ele>361.79998779297</ele>
        <time>2023-05-31T08:57:53.000Z</time>
      </trkpt>
      <trkpt lat="45.68602" lon="5.66704">
        <ele>361.79998779297</ele>
        <time>2023-05-31T08:57:54.000Z</time>
      </trkpt>
      <trkpt lat="45.68592" lon="5.6671">
        <ele>361.79998779297</ele>
        <time>2023-05-31T08:57:56.000Z</time>
      </trkpt>
      <trkpt lat="45.68575" lon="5.66718">
        <ele>361.60000610352</ele>
        <time>2023-05-31T08:57:59.000Z</time>
      </trkpt>
      <trkpt lat="45.68547" lon="5.6673">
        <ele>361.20001220703</ele>
        <time>2023-05-31T08:58:03.000Z</time>
      </trkpt>
      <trkpt lat="45.68541" lon="5.66734">
        <ele>361</ele>
        <time>2023-05-31T08:58:04.000Z</time>
      </trkpt>
      <trkpt lat="45.68534" lon="5.66738">
        <ele>360.79998779297</ele>
        <time>2023-05-31T08:58:05.000Z</time>
      </trkpt>
      <trkpt lat="45.68509" lon="5.66749">
        <ele>360.60000610352</ele>
        <time>2023-05-31T08:58:08.000Z</time>
      </trkpt>
      <trkpt lat="45.68497" lon="5.66754">
        <ele>360.60000610352</ele>
        <time>2023-05-31T08:58:10.000Z</time>
      </trkpt>
      <trkpt lat="45.68462" lon="5.6676">
        <ele>361.79998779297</ele>
        <time>2023-05-31T08:58:17.000Z</time>
      </trkpt>
      <trkpt lat="45.68443" lon="5.66762">
        <ele>362.39999389648</ele>
        <time>2023-05-31T08:58:21.000Z</time>
      </trkpt>
      <trkpt lat="45.68426" lon="5.66766">
        <ele>362.60000610352</ele>
        <time>2023-05-31T08:58:24.000Z</time>
      </trkpt>
      <trkpt lat="45.68386" lon="5.66772">
        <ele>362</ele>
        <time>2023-05-31T08:58:30.000Z</time>
      </trkpt>
      <trkpt lat="45.68363" lon="5.66773">
        <ele>360.79998779297</ele>
        <time>2023-05-31T08:58:33.000Z</time>
      </trkpt>
      <trkpt lat="45.68354" lon="5.66775">
        <ele>359.79998779297</ele>
        <time>2023-05-31T08:58:34.000Z</time>
      </trkpt>
      <trkpt lat="45.68349" lon="5.66777">
        <ele>359.20001220703</ele>
        <time>2023-05-31T08:58:35.000Z</time>
      </trkpt>
      <trkpt lat="45.68349" lon="5.66777">
        <ele>358.39999389648</ele>
        <time>2023-05-31T08:58:36.000Z</time>
      </trkpt>
      <trkpt lat="45.68342" lon="5.6678">
        <ele>357.39999389648</ele>
        <time>2023-05-31T08:58:37.000Z</time>
      </trkpt>
      <trkpt lat="45.68335" lon="5.66783">
        <ele>357</ele>
        <time>2023-05-31T08:58:38.000Z</time>
      </trkpt>
      <trkpt lat="45.68322" lon="5.66793">
        <ele>356</ele>
        <time>2023-05-31T08:58:39.000Z</time>
      </trkpt>
      <trkpt lat="45.68317" lon="5.66798">
        <ele>355.39999389648</ele>
        <time>2023-05-31T08:58:40.000Z</time>
      </trkpt>
      <trkpt lat="45.68317" lon="5.66798">
        <ele>354.60000610352</ele>
        <time>2023-05-31T08:58:41.000Z</time>
      </trkpt>
      <trkpt lat="45.6831" lon="5.66806">
        <ele>354.20001220703</ele>
        <time>2023-05-31T08:58:42.000Z</time>
      </trkpt>
      <trkpt lat="45.68285" lon="5.6683">
        <ele>352.79998779297</ele>
        <time>2023-05-31T08:58:44.000Z</time>
      </trkpt>
      <trkpt lat="45.68278" lon="5.66836">
        <ele>352</ele>
        <time>2023-05-31T08:58:45.000Z</time>
      </trkpt>
      <trkpt lat="45.68278" lon="5.66836">
        <ele>351</ele>
        <time>2023-05-31T08:58:46.000Z</time>
      </trkpt>
      <trkpt lat="45.68249" lon="5.66859">
        <ele>349.79998779297</ele>
        <time>2023-05-31T08:58:48.000Z</time>
      </trkpt>
      <trkpt lat="45.68228" lon="5.66874">
        <ele>347.79998779297</ele>
        <time>2023-05-31T08:58:50.000Z</time>
      </trkpt>
      <trkpt lat="45.68217" lon="5.66881">
        <ele>346.79998779297</ele>
        <time>2023-05-31T08:58:51.000Z</time>
      </trkpt>
      <trkpt lat="45.68197" lon="5.66891">
        <ele>345</ele>
        <time>2023-05-31T08:58:53.000Z</time>
      </trkpt>
      <trkpt lat="45.68176" lon="5.66901">
        <ele>342.79998779297</ele>
        <time>2023-05-31T08:58:55.000Z</time>
      </trkpt>
      <trkpt lat="45.68154" lon="5.66911">
        <ele>341</ele>
        <time>2023-05-31T08:58:57.000Z</time>
      </trkpt>
      <trkpt lat="45.68144" lon="5.66915">
        <ele>339.60000610352</ele>
        <time>2023-05-31T08:58:58.000Z</time>
      </trkpt>
      <trkpt lat="45.68132" lon="5.6692">
        <ele>339</ele>
        <time>2023-05-31T08:58:59.000Z</time>
      </trkpt>
      <trkpt lat="45.68125" lon="5.66924">
        <ele>337.79998779297</ele>
        <time>2023-05-31T08:59:00.000Z</time>
      </trkpt>
      <trkpt lat="45.68118" lon="5.66929">
        <ele>337.20001220703</ele>
        <time>2023-05-31T08:59:01.000Z</time>
      </trkpt>
      <trkpt lat="45.68111" lon="5.66934">
        <ele>336</ele>
        <time>2023-05-31T08:59:02.000Z</time>
      </trkpt>
      <trkpt lat="45.68107" lon="5.66938">
        <ele>334.39999389648</ele>
        <time>2023-05-31T08:59:04.000Z</time>
      </trkpt>
      <trkpt lat="45.68104" lon="5.66942">
        <ele>333.20001220703</ele>
        <time>2023-05-31T08:59:05.000Z</time>
      </trkpt>
      <trkpt lat="45.68102" lon="5.6695">
        <ele>332.39999389648</ele>
        <time>2023-05-31T08:59:06.000Z</time>
      </trkpt>
      <trkpt lat="45.68103" lon="5.66954">
        <ele>331.79998779297</ele>
        <time>2023-05-31T08:59:07.000Z</time>
      </trkpt>
      <trkpt lat="45.68109" lon="5.66957">
        <ele>330.20001220703</ele>
        <time>2023-05-31T08:59:09.000Z</time>
      </trkpt>
      <trkpt lat="45.68117" lon="5.66957">
        <ele>328.60000610352</ele>
        <time>2023-05-31T08:59:11.000Z</time>
      </trkpt>
      <trkpt lat="45.6812" lon="5.66957">
        <ele>327.79998779297</ele>
        <time>2023-05-31T08:59:12.000Z</time>
      </trkpt>
      <trkpt lat="45.68125" lon="5.66958">
        <ele>327.60000610352</ele>
        <time>2023-05-31T08:59:13.000Z</time>
      </trkpt>
      <trkpt lat="45.68125" lon="5.66958">
        <ele>326.60000610352</ele>
        <time>2023-05-31T08:59:14.000Z</time>
      </trkpt>
      <trkpt lat="45.68136" lon="5.6696">
        <ele>325.20001220703</ele>
        <time>2023-05-31T08:59:16.000Z</time>
      </trkpt>
      <trkpt lat="45.68152" lon="5.66959">
        <ele>324.79998779297</ele>
        <time>2023-05-31T08:59:17.000Z</time>
      </trkpt>
      <trkpt lat="45.6817" lon="5.66956">
        <ele>323.39999389648</ele>
        <time>2023-05-31T08:59:19.000Z</time>
      </trkpt>
      <trkpt lat="45.68181" lon="5.66956">
        <ele>323.20001220703</ele>
        <time>2023-05-31T08:59:20.000Z</time>
      </trkpt>
      <trkpt lat="45.68181" lon="5.66956">
        <ele>322.39999389648</ele>
        <time>2023-05-31T08:59:21.000Z</time>
      </trkpt>
      <trkpt lat="45.68197" lon="5.6696">
        <ele>322.20001220703</ele>
        <time>2023-05-31T08:59:22.000Z</time>
      </trkpt>
      <trkpt lat="45.68204" lon="5.66966">
        <ele>320.79998779297</ele>
        <time>2023-05-31T08:59:24.000Z</time>
      </trkpt>
      <trkpt lat="45.6821" lon="5.66972">
        <ele>319.79998779297</ele>
        <time>2023-05-31T08:59:25.000Z</time>
      </trkpt>
      <trkpt lat="45.68223" lon="5.6699">
        <ele>318.79998779297</ele>
        <time>2023-05-31T08:59:26.000Z</time>
      </trkpt>
      <trkpt lat="45.68228" lon="5.67">
        <ele>318.20001220703</ele>
        <time>2023-05-31T08:59:27.000Z</time>
      </trkpt>
      <trkpt lat="45.68232" lon="5.6701">
        <ele>317.20001220703</ele>
        <time>2023-05-31T08:59:28.000Z</time>
      </trkpt>
      <trkpt lat="45.68234" lon="5.67021">
        <ele>316</ele>
        <time>2023-05-31T08:59:30.000Z</time>
      </trkpt>
      <trkpt lat="45.68239" lon="5.6704">
        <ele>314.60000610352</ele>
        <time>2023-05-31T08:59:31.000Z</time>
      </trkpt>
      <trkpt lat="45.68245" lon="5.67056">
        <ele>313.39999389648</ele>
        <time>2023-05-31T08:59:33.000Z</time>
      </trkpt>
      <trkpt lat="45.68246" lon="5.67063">
        <ele>313</ele>
        <time>2023-05-31T08:59:34.000Z</time>
      </trkpt>
      <trkpt lat="45.68245" lon="5.6707">
        <ele>312.39999389648</ele>
        <time>2023-05-31T08:59:35.000Z</time>
      </trkpt>
      <trkpt lat="45.68245" lon="5.6707">
        <ele>311.79998779297</ele>
        <time>2023-05-31T08:59:36.000Z</time>
      </trkpt>
      <trkpt lat="45.68242" lon="5.67072">
        <ele>310.79998779297</ele>
        <time>2023-05-31T08:59:37.000Z</time>
      </trkpt>
      <trkpt lat="45.68238" lon="5.67064">
        <ele>309.79998779297</ele>
        <time>2023-05-31T08:59:38.000Z</time>
      </trkpt>
      <trkpt lat="45.68231" lon="5.67052">
        <ele>309.20001220703</ele>
        <time>2023-05-31T08:59:40.000Z</time>
      </trkpt>
      <trkpt lat="45.68224" lon="5.67046">
        <ele>309</ele>
        <time>2023-05-31T08:59:41.000Z</time>
      </trkpt>
      <trkpt lat="45.68216" lon="5.67042">
        <ele>308.39999389648</ele>
        <time>2023-05-31T08:59:42.000Z</time>
      </trkpt>
      <trkpt lat="45.68206" lon="5.67041">
        <ele>306.79998779297</ele>
        <time>2023-05-31T08:59:44.000Z</time>
      </trkpt>
      <trkpt lat="45.68189" lon="5.67041">
        <ele>305.79998779297</ele>
        <time>2023-05-31T08:59:45.000Z</time>
      </trkpt>
      <trkpt lat="45.68181" lon="5.67041">
        <ele>305.39999389648</ele>
        <time>2023-05-31T08:59:46.000Z</time>
      </trkpt>
      <trkpt lat="45.68166" lon="5.6704">
        <ele>304.20001220703</ele>
        <time>2023-05-31T08:59:48.000Z</time>
      </trkpt>
      <trkpt lat="45.68156" lon="5.67041">
        <ele>303</ele>
        <time>2023-05-31T08:59:50.000Z</time>
      </trkpt>
      <trkpt lat="45.68154" lon="5.67043">
        <ele>302.20001220703</ele>
        <time>2023-05-31T08:59:51.000Z</time>
      </trkpt>
      <trkpt lat="45.68154" lon="5.67043">
        <ele>301.39999389648</ele>
        <time>2023-05-31T08:59:52.000Z</time>
      </trkpt>
      <trkpt lat="45.68154" lon="5.67046">
        <ele>301</ele>
        <time>2023-05-31T08:59:53.000Z</time>
      </trkpt>
      <trkpt lat="45.68156" lon="5.67049">
        <ele>300.39999389648</ele>
        <time>2023-05-31T08:59:54.000Z</time>
      </trkpt>
      <trkpt lat="45.68167" lon="5.67051">
        <ele>299.39999389648</ele>
        <time>2023-05-31T08:59:56.000Z</time>
      </trkpt>
      <trkpt lat="45.68174" lon="5.67052">
        <ele>299</ele>
        <time>2023-05-31T08:59:57.000Z</time>
      </trkpt>
      <trkpt lat="45.68182" lon="5.67055">
        <ele>298.39999389648</ele>
        <time>2023-05-31T08:59:58.000Z</time>
      </trkpt>
      <trkpt lat="45.68189" lon="5.67058">
        <ele>297.79998779297</ele>
        <time>2023-05-31T08:59:59.000Z</time>
      </trkpt>
      <trkpt lat="45.68195" lon="5.67062">
        <ele>297.20001220703</ele>
        <time>2023-05-31T09:00:00.000Z</time>
      </trkpt>
      <trkpt lat="45.68195" lon="5.67062">
        <ele>296.60000610352</ele>
        <time>2023-05-31T09:00:01.000Z</time>
      </trkpt>
      <trkpt lat="45.68196" lon="5.67071">
        <ele>296.20001220703</ele>
        <time>2023-05-31T09:00:02.000Z</time>
      </trkpt>
      <trkpt lat="45.68192" lon="5.67073">
        <ele>295.60000610352</ele>
        <time>2023-05-31T09:00:03.000Z</time>
      </trkpt>
      <trkpt lat="45.68188" lon="5.67073">
        <ele>295.20001220703</ele>
        <time>2023-05-31T09:00:04.000Z</time>
      </trkpt>
      <trkpt lat="45.68184" lon="5.67072">
        <ele>294.39999389648</ele>
        <time>2023-05-31T09:00:05.000Z</time>
      </trkpt>
      <trkpt lat="45.68178" lon="5.6707">
        <ele>293.79998779297</ele>
        <time>2023-05-31T09:00:06.000Z</time>
      </trkpt>
      <trkpt lat="45.68173" lon="5.67069">
        <ele>293.60000610352</ele>
        <time>2023-05-31T09:00:07.000Z</time>
      </trkpt>
      <trkpt lat="45.68167" lon="5.67069">
        <ele>293</ele>
        <time>2023-05-31T09:00:08.000Z</time>
      </trkpt>
      <trkpt lat="45.68159" lon="5.6707">
        <ele>292.79998779297</ele>
        <time>2023-05-31T09:00:09.000Z</time>
      </trkpt>
      <trkpt lat="45.68145" lon="5.67072">
        <ele>292</ele>
        <time>2023-05-31T09:00:11.000Z</time>
      </trkpt>
      <trkpt lat="45.68137" lon="5.67076">
        <ele>291.60000610352</ele>
        <time>2023-05-31T09:00:12.000Z</time>
      </trkpt>
      <trkpt lat="45.68128" lon="5.67082">
        <ele>291</ele>
        <time>2023-05-31T09:00:13.000Z</time>
      </trkpt>
      <trkpt lat="45.6811" lon="5.67093">
        <ele>289.60000610352</ele>
        <time>2023-05-31T09:00:15.000Z</time>
      </trkpt>
      <trkpt lat="45.68101" lon="5.67099">
        <ele>289.20001220703</ele>
        <time>2023-05-31T09:00:16.000Z</time>
      </trkpt>
      <trkpt lat="45.68101" lon="5.67099">
        <ele>288.39999389648</ele>
        <time>2023-05-31T09:00:17.000Z</time>
      </trkpt>
      <trkpt lat="45.68081" lon="5.67113">
        <ele>288</ele>
        <time>2023-05-31T09:00:18.000Z</time>
      </trkpt>
      <trkpt lat="45.68072" lon="5.6712">
        <ele>287.20001220703</ele>
        <time>2023-05-31T09:00:19.000Z</time>
      </trkpt>
      <trkpt lat="45.68062" lon="5.67129">
        <ele>286</ele>
        <time>2023-05-31T09:00:21.000Z</time>
      </trkpt>
      <trkpt lat="45.68052" lon="5.67137">
        <ele>285.39999389648</ele>
        <time>2023-05-31T09:00:22.000Z</time>
      </trkpt>
      <trkpt lat="45.68033" lon="5.67152">
        <ele>284.79998779297</ele>
        <time>2023-05-31T09:00:23.000Z</time>
      </trkpt>
      <trkpt lat="45.68023" lon="5.67159">
        <ele>283.79998779297</ele>
        <time>2023-05-31T09:00:24.000Z</time>
      </trkpt>
      <trkpt lat="45.68013" lon="5.67163">
        <ele>283.20001220703</ele>
        <time>2023-05-31T09:00:25.000Z</time>
      </trkpt>
      <trkpt lat="45.68003" lon="5.67167">
        <ele>282</ele>
        <time>2023-05-31T09:00:26.000Z</time>
      </trkpt>
      <trkpt lat="45.67994" lon="5.67171">
        <ele>281</ele>
        <time>2023-05-31T09:00:27.000Z</time>
      </trkpt>
      <trkpt lat="45.67977" lon="5.67179">
        <ele>279</ele>
        <time>2023-05-31T09:00:29.000Z</time>
      </trkpt>
      <trkpt lat="45.6797" lon="5.67182">
        <ele>278.39999389648</ele>
        <time>2023-05-31T09:00:30.000Z</time>
      </trkpt>
      <trkpt lat="45.67966" lon="5.67183">
        <ele>277.39999389648</ele>
        <time>2023-05-31T09:00:31.000Z</time>
      </trkpt>
      <trkpt lat="45.67966" lon="5.67183">
        <ele>277</ele>
        <time>2023-05-31T09:00:32.000Z</time>
      </trkpt>
      <trkpt lat="45.67961" lon="5.67185">
        <ele>275.60000610352</ele>
        <time>2023-05-31T09:00:33.000Z</time>
      </trkpt>
      <trkpt lat="45.67957" lon="5.67188">
        <ele>274.39999389648</ele>
        <time>2023-05-31T09:00:35.000Z</time>
      </trkpt>
      <trkpt lat="45.67955" lon="5.67192">
        <ele>273.20001220703</ele>
        <time>2023-05-31T09:00:37.000Z</time>
      </trkpt>
      <trkpt lat="45.67941" lon="5.6721">
        <ele>272.20001220703</ele>
        <time>2023-05-31T09:00:39.000Z</time>
      </trkpt>
      <trkpt lat="45.67937" lon="5.67216">
        <ele>271.79998779297</ele>
        <time>2023-05-31T09:00:40.000Z</time>
      </trkpt>
      <trkpt lat="45.67933" lon="5.67223">
        <ele>271.39999389648</ele>
        <time>2023-05-31T09:00:41.000Z</time>
      </trkpt>
      <trkpt lat="45.67922" lon="5.67238">
        <ele>270.60000610352</ele>
        <time>2023-05-31T09:00:43.000Z</time>
      </trkpt>
      <trkpt lat="45.67911" lon="5.67252">
        <ele>268.60000610352</ele>
        <time>2023-05-31T09:00:46.000Z</time>
      </trkpt>
      <trkpt lat="45.67897" lon="5.67264">
        <ele>268.20001220703</ele>
        <time>2023-05-31T09:00:47.000Z</time>
      </trkpt>
      <trkpt lat="45.6789" lon="5.6727">
        <ele>267.79998779297</ele>
        <time>2023-05-31T09:00:48.000Z</time>
      </trkpt>
      <trkpt lat="45.67883" lon="5.67277">
        <ele>267.60000610352</ele>
        <time>2023-05-31T09:00:49.000Z</time>
      </trkpt>
      <trkpt lat="45.67874" lon="5.67294">
        <ele>266.79998779297</ele>
        <time>2023-05-31T09:00:51.000Z</time>
      </trkpt>
      <trkpt lat="45.6787" lon="5.67308">
        <ele>266</ele>
        <time>2023-05-31T09:00:52.000Z</time>
      </trkpt>
      <trkpt lat="45.67868" lon="5.67321">
        <ele>265</ele>
        <time>2023-05-31T09:00:53.000Z</time>
      </trkpt>
      <trkpt lat="45.67867" lon="5.67335">
        <ele>264.60000610352</ele>
        <time>2023-05-31T09:00:54.000Z</time>
      </trkpt>
      <trkpt lat="45.67867" lon="5.67335">
        <ele>263.60000610352</ele>
        <time>2023-05-31T09:00:55.000Z</time>
      </trkpt>
      <trkpt lat="45.67868" lon="5.67357">
        <ele>263</ele>
        <time>2023-05-31T09:00:56.000Z</time>
      </trkpt>
      <trkpt lat="45.6787" lon="5.67373">
        <ele>262.20001220703</ele>
        <time>2023-05-31T09:00:57.000Z</time>
      </trkpt>
      <trkpt lat="45.6787" lon="5.67386">
        <ele>261.79998779297</ele>
        <time>2023-05-31T09:00:58.000Z</time>
      </trkpt>
      <trkpt lat="45.67869" lon="5.67399">
        <ele>260.60000610352</ele>
        <time>2023-05-31T09:00:59.000Z</time>
      </trkpt>
      <trkpt lat="45.67867" lon="5.6741">
        <ele>259.60000610352</ele>
        <time>2023-05-31T09:01:00.000Z</time>
      </trkpt>
      <trkpt lat="45.67861" lon="5.67439">
        <ele>258.39999389648</ele>
        <time>2023-05-31T09:01:02.000Z</time>
      </trkpt>
      <trkpt lat="45.67855" lon="5.67466">
        <ele>257</ele>
        <time>2023-05-31T09:01:04.000Z</time>
      </trkpt>
      <trkpt lat="45.67851" lon="5.67485">
        <ele>255.19999694824</ele>
        <time>2023-05-31T09:01:06.000Z</time>
      </trkpt>
      <trkpt lat="45.67848" lon="5.67495">
        <ele>254.19999694824</ele>
        <time>2023-05-31T09:01:07.000Z</time>
      </trkpt>
      <trkpt lat="45.67848" lon="5.67495">
        <ele>254</ele>
        <time>2023-05-31T09:01:08.000Z</time>
      </trkpt>
      <trkpt lat="45.6784" lon="5.67509">
        <ele>253</ele>
        <time>2023-05-31T09:01:09.000Z</time>
      </trkpt>
      <trkpt lat="45.67834" lon="5.67515">
        <ele>252.60000610352</ele>
        <time>2023-05-31T09:01:10.000Z</time>
      </trkpt>
      <trkpt lat="45.67829" lon="5.6752">
        <ele>252</ele>
        <time>2023-05-31T09:01:11.000Z</time>
      </trkpt>
      <trkpt lat="45.67824" lon="5.67527">
        <ele>251.80000305176</ele>
        <time>2023-05-31T09:01:12.000Z</time>
      </trkpt>
      <trkpt lat="45.67823" lon="5.67533">
        <ele>251.39999389648</ele>
        <time>2023-05-31T09:01:13.000Z</time>
      </trkpt>
      <trkpt lat="45.67824" lon="5.67546">
        <ele>250.60000610352</ele>
        <time>2023-05-31T09:01:15.000Z</time>
      </trkpt>
      <trkpt lat="45.67825" lon="5.67553">
        <ele>250</ele>
        <time>2023-05-31T09:01:16.000Z</time>
      </trkpt>
      <trkpt lat="45.67827" lon="5.67565">
        <ele>249.39999389648</ele>
        <time>2023-05-31T09:01:18.000Z</time>
      </trkpt>
      <trkpt lat="45.67826" lon="5.67574">
        <ele>249</ele>
        <time>2023-05-31T09:01:20.000Z</time>
      </trkpt>
      <trkpt lat="45.67825" lon="5.67579">
        <ele>248.60000610352</ele>
        <time>2023-05-31T09:01:22.000Z</time>
      </trkpt>
      <trkpt lat="45.67825" lon="5.67582">
        <ele>248.19999694824</ele>
        <time>2023-05-31T09:01:23.000Z</time>
      </trkpt>
      <trkpt lat="45.67825" lon="5.6759">
        <ele>248</ele>
        <time>2023-05-31T09:01:27.000Z</time>
      </trkpt>
      <trkpt lat="45.67826" lon="5.67598">
        <ele>247.80000305176</ele>
        <time>2023-05-31T09:01:29.000Z</time>
      </trkpt>
      <trkpt lat="45.67829" lon="5.67604">
        <ele>247.60000610352</ele>
        <time>2023-05-31T09:01:31.000Z</time>
      </trkpt>
      <trkpt lat="45.67837" lon="5.67606">
        <ele>247.39999389648</ele>
        <time>2023-05-31T09:01:34.000Z</time>
      </trkpt>
      <trkpt lat="45.6784" lon="5.67606">
        <ele>247.39999389648</ele>
        <time>2023-05-31T09:01:35.000Z</time>
      </trkpt>
      <trkpt lat="45.67864" lon="5.67607">
        <ele>247.60000610352</ele>
        <time>2023-05-31T09:01:41.000Z</time>
      </trkpt>
      <trkpt lat="45.6789" lon="5.67609">
        <ele>248.60000610352</ele>
        <time>2023-05-31T09:01:47.000Z</time>
      </trkpt>
      <trkpt lat="45.67904" lon="5.6761">
        <ele>249</ele>
        <time>2023-05-31T09:01:50.000Z</time>
      </trkpt>
      <trkpt lat="45.67919" lon="5.67611">
        <ele>249.60000610352</ele>
        <time>2023-05-31T09:01:53.000Z</time>
      </trkpt>
      <trkpt lat="45.67934" lon="5.67613">
        <ele>250.19999694824</ele>
        <time>2023-05-31T09:01:56.000Z</time>
      </trkpt>
      <trkpt lat="45.67952" lon="5.67613">
        <ele>250.39999389648</ele>
        <time>2023-05-31T09:01:59.000Z</time>
      </trkpt>
      <trkpt lat="45.67987" lon="5.67614">
        <ele>250.19999694824</ele>
        <time>2023-05-31T09:02:05.000Z</time>
      </trkpt>
      <trkpt lat="45.67992" lon="5.67614">
        <ele>250.19999694824</ele>
        <time>2023-05-31T09:02:06.000Z</time>
      </trkpt>
      <trkpt lat="45.68005" lon="5.67614">
        <ele>249.60000610352</ele>
        <time>2023-05-31T09:02:08.000Z</time>
      </trkpt>
      <trkpt lat="45.68018" lon="5.67615">
        <ele>249.19999694824</ele>
        <time>2023-05-31T09:02:10.000Z</time>
      </trkpt>
      <trkpt lat="45.68047" lon="5.67615">
        <ele>248.39999389648</ele>
        <time>2023-05-31T09:02:14.000Z</time>
      </trkpt>
      <trkpt lat="45.68055" lon="5.67615">
        <ele>248</ele>
        <time>2023-05-31T09:02:15.000Z</time>
      </trkpt>
      <trkpt lat="45.68079" lon="5.67614">
        <ele>247.39999389648</ele>
        <time>2023-05-31T09:02:18.000Z</time>
      </trkpt>
      <trkpt lat="45.681" lon="5.67613">
        <ele>246.39999389648</ele>
        <time>2023-05-31T09:02:21.000Z</time>
      </trkpt>
      <trkpt lat="45.68107" lon="5.67612">
        <ele>246</ele>
        <time>2023-05-31T09:02:22.000Z</time>
      </trkpt>
      <trkpt lat="45.68135" lon="5.67612">
        <ele>245.80000305176</ele>
        <time>2023-05-31T09:02:27.000Z</time>
      </trkpt>
      <trkpt lat="45.6814" lon="5.67613">
        <ele>245.80000305176</ele>
        <time>2023-05-31T09:02:28.000Z</time>
      </trkpt>
      <trkpt lat="45.68147" lon="5.6762">
        <ele>246</ele>
        <time>2023-05-31T09:02:30.000Z</time>
      </trkpt>
      <trkpt lat="45.68153" lon="5.67635">
        <ele>246</ele>
        <time>2023-05-31T09:02:32.000Z</time>
      </trkpt>
      <trkpt lat="45.68156" lon="5.67643">
        <ele>246</ele>
        <time>2023-05-31T09:02:33.000Z</time>
      </trkpt>
      <trkpt lat="45.68172" lon="5.67701">
        <ele>245.60000610352</ele>
        <time>2023-05-31T09:02:39.000Z</time>
      </trkpt>
      <trkpt lat="45.68176" lon="5.67725">
        <ele>245.19999694824</ele>
        <time>2023-05-31T09:02:42.000Z</time>
      </trkpt>
      <trkpt lat="45.68178" lon="5.67742">
        <ele>245.19999694824</ele>
        <time>2023-05-31T09:02:44.000Z</time>
      </trkpt>
      <trkpt lat="45.68179" lon="5.6775">
        <ele>245.19999694824</ele>
        <time>2023-05-31T09:02:45.000Z</time>
      </trkpt>
      <trkpt lat="45.68181" lon="5.67801">
        <ele>245.60000610352</ele>
        <time>2023-05-31T09:02:52.000Z</time>
      </trkpt>
      <trkpt lat="45.68181" lon="5.67801">
        <ele>245.60000610352</ele>
        <time>2023-05-31T09:02:53.000Z</time>
      </trkpt>
      <trkpt lat="45.68185" lon="5.67862">
        <ele>246.39999389648</ele>
        <time>2023-05-31T09:03:00.000Z</time>
      </trkpt>
      <trkpt lat="45.68186" lon="5.6787">
        <ele>246.60000610352</ele>
        <time>2023-05-31T09:03:01.000Z</time>
      </trkpt>
      <trkpt lat="45.68188" lon="5.67895">
        <ele>246.60000610352</ele>
        <time>2023-05-31T09:03:05.000Z</time>
      </trkpt>
      <trkpt lat="45.68193" lon="5.67963">
        <ele>246.39999389648</ele>
        <time>2023-05-31T09:03:12.000Z</time>
      </trkpt>
      <trkpt lat="45.68196" lon="5.68025">
        <ele>245.39999389648</ele>
        <time>2023-05-31T09:03:19.000Z</time>
      </trkpt>
      <trkpt lat="45.68196" lon="5.68034">
        <ele>245.19999694824</ele>
        <time>2023-05-31T09:03:20.000Z</time>
      </trkpt>
      <trkpt lat="45.68195" lon="5.68082">
        <ele>244.60000610352</ele>
        <time>2023-05-31T09:03:25.000Z</time>
      </trkpt>
      <trkpt lat="45.68196" lon="5.68102">
        <ele>244.39999389648</ele>
        <time>2023-05-31T09:03:27.000Z</time>
      </trkpt>
      <trkpt lat="45.68198" lon="5.68162">
        <ele>243.60000610352</ele>
        <time>2023-05-31T09:03:33.000Z</time>
      </trkpt>
      <trkpt lat="45.68198" lon="5.68172">
        <ele>243.19999694824</ele>
        <time>2023-05-31T09:03:34.000Z</time>
      </trkpt>
      <trkpt lat="45.68202" lon="5.68243">
        <ele>242.39999389648</ele>
        <time>2023-05-31T09:03:41.000Z</time>
      </trkpt>
      <trkpt lat="45.68205" lon="5.68284">
        <ele>241.39999389648</ele>
        <time>2023-05-31T09:03:46.000Z</time>
      </trkpt>
      <trkpt lat="45.68209" lon="5.68342">
        <ele>240.19999694824</ele>
        <time>2023-05-31T09:03:50.000Z</time>
      </trkpt>
      <trkpt lat="45.68211" lon="5.68361">
        <ele>239.60000610352</ele>
        <time>2023-05-31T09:03:52.000Z</time>
      </trkpt>
      <trkpt lat="45.68213" lon="5.6837">
        <ele>239.19999694824</ele>
        <time>2023-05-31T09:03:53.000Z</time>
      </trkpt>
      <trkpt lat="45.68215" lon="5.68377">
        <ele>239</ele>
        <time>2023-05-31T09:03:54.000Z</time>
      </trkpt>
      <trkpt lat="45.68217" lon="5.68384">
        <ele>238.19999694824</ele>
        <time>2023-05-31T09:03:55.000Z</time>
      </trkpt>
      <trkpt lat="45.68221" lon="5.684">
        <ele>237.19999694824</ele>
        <time>2023-05-31T09:03:57.000Z</time>
      </trkpt>
      <trkpt lat="45.68224" lon="5.68409">
        <ele>236.39999389648</ele>
        <time>2023-05-31T09:03:58.000Z</time>
      </trkpt>
      <trkpt lat="45.6823" lon="5.68427">
        <ele>235.19999694824</ele>
        <time>2023-05-31T09:04:01.000Z</time>
      </trkpt>
      <trkpt lat="45.68234" lon="5.68445">
        <ele>234.19999694824</ele>
        <time>2023-05-31T09:04:02.000Z</time>
      </trkpt>
      <trkpt lat="45.68237" lon="5.68465">
        <ele>234</ele>
        <time>2023-05-31T09:04:04.000Z</time>
      </trkpt>
      <trkpt lat="45.6825" lon="5.68536">
        <ele>233.39999389648</ele>
        <time>2023-05-31T09:04:12.000Z</time>
      </trkpt>
      <trkpt lat="45.68255" lon="5.68549">
        <ele>233.39999389648</ele>
        <time>2023-05-31T09:04:14.000Z</time>
      </trkpt>
      <trkpt lat="45.68266" lon="5.68568">
        <ele>233.80000305176</ele>
        <time>2023-05-31T09:04:17.000Z</time>
      </trkpt>
      <trkpt lat="45.68297" lon="5.68599">
        <ele>234.80000305176</ele>
        <time>2023-05-31T09:04:24.000Z</time>
      </trkpt>
      <trkpt lat="45.68316" lon="5.68614">
        <ele>235.19999694824</ele>
        <time>2023-05-31T09:04:28.000Z</time>
      </trkpt>
      <trkpt lat="45.68346" lon="5.68638">
        <ele>235.39999389648</ele>
        <time>2023-05-31T09:04:34.000Z</time>
      </trkpt>
      <trkpt lat="45.68375" lon="5.68675">
        <ele>236</ele>
        <time>2023-05-31T09:04:41.000Z</time>
      </trkpt>
      <trkpt lat="45.68384" lon="5.68694">
        <ele>236.39999389648</ele>
        <time>2023-05-31T09:04:44.000Z</time>
      </trkpt>
      <trkpt lat="45.68391" lon="5.68712">
        <ele>237.19999694824</ele>
        <time>2023-05-31T09:04:48.000Z</time>
      </trkpt>
      <trkpt lat="45.684" lon="5.68733">
        <ele>237.39999389648</ele>
        <time>2023-05-31T09:04:50.000Z</time>
      </trkpt>
      <trkpt lat="45.68423" lon="5.68796">
        <ele>238</ele>
        <time>2023-05-31T09:04:59.000Z</time>
      </trkpt>
      <trkpt lat="45.68442" lon="5.68852">
        <ele>238.80000305176</ele>
        <time>2023-05-31T09:05:07.000Z</time>
      </trkpt>
      <trkpt lat="45.68453" lon="5.68882">
        <ele>238.80000305176</ele>
        <time>2023-05-31T09:05:11.000Z</time>
      </trkpt>
      <trkpt lat="45.68479" lon="5.68932">
        <ele>238.80000305176</ele>
        <time>2023-05-31T09:05:18.000Z</time>
      </trkpt>
      <trkpt lat="45.68511" lon="5.68966">
        <ele>238.80000305176</ele>
        <time>2023-05-31T09:05:25.000Z</time>
      </trkpt>
      <trkpt lat="45.68551" lon="5.68996">
        <ele>238.60000610352</ele>
        <time>2023-05-31T09:05:32.000Z</time>
      </trkpt>
      <trkpt lat="45.68596" lon="5.69031">
        <ele>238</ele>
        <time>2023-05-31T09:05:39.000Z</time>
      </trkpt>
      <trkpt lat="45.68621" lon="5.69051">
        <ele>237.60000610352</ele>
        <time>2023-05-31T09:05:43.000Z</time>
      </trkpt>
      <trkpt lat="45.68665" lon="5.69085">
        <ele>236.80000305176</ele>
        <time>2023-05-31T09:05:50.000Z</time>
      </trkpt>
      <trkpt lat="45.68711" lon="5.69121">
        <ele>235.60000610352</ele>
        <time>2023-05-31T09:05:57.000Z</time>
      </trkpt>
      <trkpt lat="45.68731" lon="5.69137">
        <ele>235</ele>
        <time>2023-05-31T09:06:00.000Z</time>
      </trkpt>
      <trkpt lat="45.68765" lon="5.69164">
        <ele>234.39999389648</ele>
        <time>2023-05-31T09:06:05.000Z</time>
      </trkpt>
      <trkpt lat="45.68817" lon="5.69204">
        <ele>233.60000610352</ele>
        <time>2023-05-31T09:06:13.000Z</time>
      </trkpt>
      <trkpt lat="45.68825" lon="5.6921">
        <ele>233.39999389648</ele>
        <time>2023-05-31T09:06:14.000Z</time>
      </trkpt>
      <trkpt lat="45.68857" lon="5.69235">
        <ele>232.39999389648</ele>
        <time>2023-05-31T09:06:19.000Z</time>
      </trkpt>
      <trkpt lat="45.68898" lon="5.69266">
        <ele>232</ele>
        <time>2023-05-31T09:06:25.000Z</time>
      </trkpt>
      <trkpt lat="45.68929" lon="5.69298">
        <ele>231.19999694824</ele>
        <time>2023-05-31T09:06:30.000Z</time>
      </trkpt>
      <trkpt lat="45.68935" lon="5.69305">
        <ele>230.80000305176</ele>
        <time>2023-05-31T09:06:31.000Z</time>
      </trkpt>
      <trkpt lat="45.68967" lon="5.69357">
        <ele>230.39999389648</ele>
        <time>2023-05-31T09:06:38.000Z</time>
      </trkpt>
      <trkpt lat="45.69005" lon="5.69417">
        <ele>230</ele>
        <time>2023-05-31T09:06:46.000Z</time>
      </trkpt>
      <trkpt lat="45.69019" lon="5.69438">
        <ele>229.80000305176</ele>
        <time>2023-05-31T09:06:49.000Z</time>
      </trkpt>
      <trkpt lat="45.69024" lon="5.69445">
        <ele>229.80000305176</ele>
        <time>2023-05-31T09:06:50.000Z</time>
      </trkpt>
      <trkpt lat="45.69044" lon="5.69464">
        <ele>229.60000610352</ele>
        <time>2023-05-31T09:06:53.000Z</time>
      </trkpt>
      <trkpt lat="45.69084" lon="5.69482">
        <ele>229.19999694824</ele>
        <time>2023-05-31T09:06:59.000Z</time>
      </trkpt>
      <trkpt lat="45.69098" lon="5.69485">
        <ele>229</ele>
        <time>2023-05-31T09:07:01.000Z</time>
      </trkpt>
      <trkpt lat="45.69121" lon="5.69486">
        <ele>229</ele>
        <time>2023-05-31T09:07:04.000Z</time>
      </trkpt>
      <trkpt lat="45.69177" lon="5.69478">
        <ele>228.60000610352</ele>
        <time>2023-05-31T09:07:12.000Z</time>
      </trkpt>
      <trkpt lat="45.69218" lon="5.69479">
        <ele>228.60000610352</ele>
        <time>2023-05-31T09:07:18.000Z</time>
      </trkpt>
      <trkpt lat="45.69252" lon="5.69496">
        <ele>228.60000610352</ele>
        <time>2023-05-31T09:07:23.000Z</time>
      </trkpt>
      <trkpt lat="45.69294" lon="5.69534">
        <ele>228.39999389648</ele>
        <time>2023-05-31T09:07:30.000Z</time>
      </trkpt>
      <trkpt lat="45.69337" lon="5.69572">
        <ele>228.39999389648</ele>
        <time>2023-05-31T09:07:37.000Z</time>
      </trkpt>
      <trkpt lat="45.69349" lon="5.69583">
        <ele>228</ele>
        <time>2023-05-31T09:07:39.000Z</time>
      </trkpt>
      <trkpt lat="45.69362" lon="5.69594">
        <ele>227.80000305176</ele>
        <time>2023-05-31T09:07:41.000Z</time>
      </trkpt>
      <trkpt lat="45.69413" lon="5.69638">
        <ele>227.39999389648</ele>
        <time>2023-05-31T09:07:49.000Z</time>
      </trkpt>
      <trkpt lat="45.69418" lon="5.69643">
        <ele>227.39999389648</ele>
        <time>2023-05-31T09:07:50.000Z</time>
      </trkpt>
      <trkpt lat="45.69418" lon="5.69643">
        <ele>227.19999694824</ele>
        <time>2023-05-31T09:07:51.000Z</time>
      </trkpt>
      <trkpt lat="45.69468" lon="5.69689">
        <ele>226.60000610352</ele>
        <time>2023-05-31T09:07:58.000Z</time>
      </trkpt>
      <trkpt lat="45.69487" lon="5.69705">
        <ele>226.39999389648</ele>
        <time>2023-05-31T09:08:01.000Z</time>
      </trkpt>
      <trkpt lat="45.69533" lon="5.69747">
        <ele>226.60000610352</ele>
        <time>2023-05-31T09:08:09.000Z</time>
      </trkpt>
      <trkpt lat="45.69541" lon="5.69753">
        <ele>226.60000610352</ele>
        <time>2023-05-31T09:08:10.000Z</time>
      </trkpt>
      <trkpt lat="45.69581" lon="5.6978">
        <ele>226.39999389648</ele>
        <time>2023-05-31T09:08:16.000Z</time>
      </trkpt>
      <trkpt lat="45.69595" lon="5.69788">
        <ele>226.19999694824</ele>
        <time>2023-05-31T09:08:18.000Z</time>
      </trkpt>
      <trkpt lat="45.69637" lon="5.69802">
        <ele>225.80000305176</ele>
        <time>2023-05-31T09:08:24.000Z</time>
      </trkpt>
      <trkpt lat="45.69668" lon="5.69808">
        <ele>225.39999389648</ele>
        <time>2023-05-31T09:08:29.000Z</time>
      </trkpt>
      <trkpt lat="45.69698" lon="5.69812">
        <ele>225.39999389648</ele>
        <time>2023-05-31T09:08:32.000Z</time>
      </trkpt>
      <trkpt lat="45.69758" lon="5.69822">
        <ele>225</ele>
        <time>2023-05-31T09:08:40.000Z</time>
      </trkpt>
      <trkpt lat="45.69778" lon="5.69825">
        <ele>225</ele>
        <time>2023-05-31T09:08:43.000Z</time>
      </trkpt>
      <trkpt lat="45.69837" lon="5.69834">
        <ele>224.60000610352</ele>
        <time>2023-05-31T09:08:51.000Z</time>
      </trkpt>
      <trkpt lat="45.69886" lon="5.69841">
        <ele>224.80000305176</ele>
        <time>2023-05-31T09:08:58.000Z</time>
      </trkpt>
      <trkpt lat="45.69941" lon="5.6985">
        <ele>225</ele>
        <time>2023-05-31T09:09:06.000Z</time>
      </trkpt>
      <trkpt lat="45.69984" lon="5.69858">
        <ele>225.19999694824</ele>
        <time>2023-05-31T09:09:12.000Z</time>
      </trkpt>
      <trkpt lat="45.70031" lon="5.69876">
        <ele>225.19999694824</ele>
        <time>2023-05-31T09:09:19.000Z</time>
      </trkpt>
      <trkpt lat="45.70082" lon="5.69903">
        <ele>225.60000610352</ele>
        <time>2023-05-31T09:09:27.000Z</time>
      </trkpt>
      <trkpt lat="45.70093" lon="5.6991">
        <ele>225.60000610352</ele>
        <time>2023-05-31T09:09:29.000Z</time>
      </trkpt>
      <trkpt lat="45.70147" lon="5.69931">
        <ele>225.80000305176</ele>
        <time>2023-05-31T09:09:37.000Z</time>
      </trkpt>
      <trkpt lat="45.70161" lon="5.69935">
        <ele>226</ele>
        <time>2023-05-31T09:09:39.000Z</time>
      </trkpt>
      <trkpt lat="45.70201" lon="5.6994">
        <ele>226.19999694824</ele>
        <time>2023-05-31T09:09:45.000Z</time>
      </trkpt>
      <trkpt lat="45.70207" lon="5.69939">
        <ele>226.39999389648</ele>
        <time>2023-05-31T09:09:46.000Z</time>
      </trkpt>
      <trkpt lat="45.70246" lon="5.69936">
        <ele>226.39999389648</ele>
        <time>2023-05-31T09:09:52.000Z</time>
      </trkpt>
      <trkpt lat="45.70283" lon="5.69934">
        <ele>226.80000305176</ele>
        <time>2023-05-31T09:09:58.000Z</time>
      </trkpt>
      <trkpt lat="45.70294" lon="5.69933">
        <ele>226.80000305176</ele>
        <time>2023-05-31T09:10:00.000Z</time>
      </trkpt>
      <trkpt lat="45.70312" lon="5.69932">
        <ele>227</ele>
        <time>2023-05-31T09:10:04.000Z</time>
      </trkpt>
      <trkpt lat="45.70369" lon="5.69929">
        <ele>227.39999389648</ele>
        <time>2023-05-31T09:10:12.000Z</time>
      </trkpt>
      <trkpt lat="45.70376" lon="5.69928">
        <ele>227.60000610352</ele>
        <time>2023-05-31T09:10:13.000Z</time>
      </trkpt>
      <trkpt lat="45.70421" lon="5.69921">
        <ele>227.80000305176</ele>
        <time>2023-05-31T09:10:20.000Z</time>
      </trkpt>
      <trkpt lat="45.70476" lon="5.699">
        <ele>228.60000610352</ele>
        <time>2023-05-31T09:10:29.000Z</time>
      </trkpt>
      <trkpt lat="45.7053" lon="5.69876">
        <ele>229</ele>
        <time>2023-05-31T09:10:38.000Z</time>
      </trkpt>
      <trkpt lat="45.70535" lon="5.69875">
        <ele>229</ele>
        <time>2023-05-31T09:10:39.000Z</time>
      </trkpt>
      <trkpt lat="45.70591" lon="5.69859">
        <ele>229</ele>
        <time>2023-05-31T09:10:48.000Z</time>
      </trkpt>
      <trkpt lat="45.70604" lon="5.69855">
        <ele>229</ele>
        <time>2023-05-31T09:10:50.000Z</time>
      </trkpt>
      <trkpt lat="45.70656" lon="5.69848">
        <ele>229.19999694824</ele>
        <time>2023-05-31T09:10:59.000Z</time>
      </trkpt>
      <trkpt lat="45.70712" lon="5.69847">
        <ele>228.60000610352</ele>
        <time>2023-05-31T09:11:06.000Z</time>
      </trkpt>
      <trkpt lat="45.70719" lon="5.69848">
        <ele>228.60000610352</ele>
        <time>2023-05-31T09:11:07.000Z</time>
      </trkpt>
      <trkpt lat="45.70755" lon="5.6985">
        <ele>228.19999694824</ele>
        <time>2023-05-31T09:11:12.000Z</time>
      </trkpt>
      <trkpt lat="45.70775" lon="5.69852">
        <ele>228</ele>
        <time>2023-05-31T09:11:16.000Z</time>
      </trkpt>
      <trkpt lat="45.70812" lon="5.69852">
        <ele>227.19999694824</ele>
        <time>2023-05-31T09:11:20.000Z</time>
      </trkpt>
      <trkpt lat="45.70848" lon="5.69849">
        <ele>226.60000610352</ele>
        <time>2023-05-31T09:11:25.000Z</time>
      </trkpt>
      <trkpt lat="45.70896" lon="5.69855">
        <ele>226.60000610352</ele>
        <time>2023-05-31T09:11:32.000Z</time>
      </trkpt>
      <trkpt lat="45.70951" lon="5.69857">
        <ele>226.80000305176</ele>
        <time>2023-05-31T09:11:40.000Z</time>
      </trkpt>
      <trkpt lat="45.70956" lon="5.69857">
        <ele>226.80000305176</ele>
        <time>2023-05-31T09:11:41.000Z</time>
      </trkpt>
      <trkpt lat="45.71013" lon="5.6986">
        <ele>227.19999694824</ele>
        <time>2023-05-31T09:11:50.000Z</time>
      </trkpt>
      <trkpt lat="45.71053" lon="5.69858">
        <ele>227.80000305176</ele>
        <time>2023-05-31T09:11:58.000Z</time>
      </trkpt>
      <trkpt lat="45.71084" lon="5.69858">
        <ele>228</ele>
        <time>2023-05-31T09:12:02.000Z</time>
      </trkpt>
      <trkpt lat="45.7109" lon="5.69856">
        <ele>228</ele>
        <time>2023-05-31T09:12:03.000Z</time>
      </trkpt>
      <trkpt lat="45.71111" lon="5.69848">
        <ele>228</ele>
        <time>2023-05-31T09:12:06.000Z</time>
      </trkpt>
      <trkpt lat="45.71124" lon="5.69841">
        <ele>227.80000305176</ele>
        <time>2023-05-31T09:12:09.000Z</time>
      </trkpt>
      <trkpt lat="45.71177" lon="5.6982">
        <ele>227.39999389648</ele>
        <time>2023-05-31T09:12:16.000Z</time>
      </trkpt>
      <trkpt lat="45.71197" lon="5.69811">
        <ele>227.39999389648</ele>
        <time>2023-05-31T09:12:19.000Z</time>
      </trkpt>
      <trkpt lat="45.7125" lon="5.69785">
        <ele>227.39999389648</ele>
        <time>2023-05-31T09:12:28.000Z</time>
      </trkpt>
      <trkpt lat="45.71256" lon="5.69783">
        <ele>227.39999389648</ele>
        <time>2023-05-31T09:12:29.000Z</time>
      </trkpt>
      <trkpt lat="45.7131" lon="5.69765">
        <ele>227.19999694824</ele>
        <time>2023-05-31T09:12:38.000Z</time>
      </trkpt>
      <trkpt lat="45.71315" lon="5.69764">
        <ele>227.19999694824</ele>
        <time>2023-05-31T09:12:40.000Z</time>
      </trkpt>
      <trkpt lat="45.71369" lon="5.69759">
        <ele>227.39999389648</ele>
        <time>2023-05-31T09:12:48.000Z</time>
      </trkpt>
      <trkpt lat="45.71375" lon="5.69759">
        <ele>227.39999389648</ele>
        <time>2023-05-31T09:12:49.000Z</time>
      </trkpt>
      <trkpt lat="45.71423" lon="5.69762">
        <ele>227.80000305176</ele>
        <time>2023-05-31T09:12:57.000Z</time>
      </trkpt>
      <trkpt lat="45.71441" lon="5.6977">
        <ele>227.80000305176</ele>
        <time>2023-05-31T09:13:00.000Z</time>
      </trkpt>
      <trkpt lat="45.71452" lon="5.69779">
        <ele>227.80000305176</ele>
        <time>2023-05-31T09:13:02.000Z</time>
      </trkpt>
      <trkpt lat="45.71469" lon="5.69802">
        <ele>228</ele>
        <time>2023-05-31T09:13:06.000Z</time>
      </trkpt>
      <trkpt lat="45.71472" lon="5.69808">
        <ele>228.19999694824</ele>
        <time>2023-05-31T09:13:08.000Z</time>
      </trkpt>
      <trkpt lat="45.71478" lon="5.69822">
        <ele>228.39999389648</ele>
        <time>2023-05-31T09:13:09.000Z</time>
      </trkpt>
      <trkpt lat="45.71481" lon="5.69836">
        <ele>228.80000305176</ele>
        <time>2023-05-31T09:13:11.000Z</time>
      </trkpt>
      <trkpt lat="45.71482" lon="5.69844">
        <ele>228.80000305176</ele>
        <time>2023-05-31T09:13:12.000Z</time>
      </trkpt>
      <trkpt lat="45.71484" lon="5.69875">
        <ele>229.60000610352</ele>
        <time>2023-05-31T09:13:16.000Z</time>
      </trkpt>
      <trkpt lat="45.71484" lon="5.69882">
        <ele>229.80000305176</ele>
        <time>2023-05-31T09:13:17.000Z</time>
      </trkpt>
      <trkpt lat="45.71484" lon="5.69933">
        <ele>231</ele>
        <time>2023-05-31T09:13:24.000Z</time>
      </trkpt>
      <trkpt lat="45.71484" lon="5.69947">
        <ele>231.60000610352</ele>
        <time>2023-05-31T09:13:26.000Z</time>
      </trkpt>
      <trkpt lat="45.71484" lon="5.69969">
        <ele>232.19999694824</ele>
        <time>2023-05-31T09:13:29.000Z</time>
      </trkpt>
      <trkpt lat="45.71484" lon="5.70028">
        <ele>232.80000305176</ele>
        <time>2023-05-31T09:13:37.000Z</time>
      </trkpt>
      <trkpt lat="45.71485" lon="5.7008">
        <ele>233</ele>
        <time>2023-05-31T09:13:43.000Z</time>
      </trkpt>
      <trkpt lat="45.71485" lon="5.70139">
        <ele>232.19999694824</ele>
        <time>2023-05-31T09:13:49.000Z</time>
      </trkpt>
      <trkpt lat="45.71485" lon="5.70149">
        <ele>231.80000305176</ele>
        <time>2023-05-31T09:13:50.000Z</time>
      </trkpt>
      <trkpt lat="45.71487" lon="5.7019">
        <ele>231</ele>
        <time>2023-05-31T09:13:54.000Z</time>
      </trkpt>
      <trkpt lat="45.71487" lon="5.70198">
        <ele>230.80000305176</ele>
        <time>2023-05-31T09:13:55.000Z</time>
      </trkpt>
      <trkpt lat="45.71489" lon="5.70235">
        <ele>230</ele>
        <time>2023-05-31T09:13:59.000Z</time>
      </trkpt>
      <trkpt lat="45.71488" lon="5.70242">
        <ele>230</ele>
        <time>2023-05-31T09:14:00.000Z</time>
      </trkpt>
      <trkpt lat="45.71484" lon="5.70248">
        <ele>229.80000305176</ele>
        <time>2023-05-31T09:14:01.000Z</time>
      </trkpt>
      <trkpt lat="45.7148" lon="5.70249">
        <ele>229.80000305176</ele>
        <time>2023-05-31T09:14:02.000Z</time>
      </trkpt>
      <trkpt lat="45.71476" lon="5.70246">
        <ele>229.80000305176</ele>
        <time>2023-05-31T09:14:03.000Z</time>
      </trkpt>
      <trkpt lat="45.71473" lon="5.7024">
        <ele>229.60000610352</ele>
        <time>2023-05-31T09:14:04.000Z</time>
      </trkpt>
      <trkpt lat="45.71472" lon="5.70233">
        <ele>229.60000610352</ele>
        <time>2023-05-31T09:14:05.000Z</time>
      </trkpt>
      <trkpt lat="45.71472" lon="5.70209">
        <ele>229.39999389648</ele>
        <time>2023-05-31T09:14:08.000Z</time>
      </trkpt>
      <trkpt lat="45.7147" lon="5.70175">
        <ele>229</ele>
        <time>2023-05-31T09:14:12.000Z</time>
      </trkpt>
      <trkpt lat="45.71468" lon="5.70134">
        <ele>228.80000305176</ele>
        <time>2023-05-31T09:14:17.000Z</time>
      </trkpt>
      <trkpt lat="45.71467" lon="5.70118">
        <ele>228.60000610352</ele>
        <time>2023-05-31T09:14:19.000Z</time>
      </trkpt>
      <trkpt lat="45.71465" lon="5.70104">
        <ele>228.39999389648</ele>
        <time>2023-05-31T09:14:21.000Z</time>
      </trkpt>
      <trkpt lat="45.71465" lon="5.70097">
        <ele>227.80000305176</ele>
        <time>2023-05-31T09:14:23.000Z</time>
      </trkpt>
      <trkpt lat="45.71462" lon="5.70082">
        <ele>227.60000610352</ele>
        <time>2023-05-31T09:14:25.000Z</time>
      </trkpt>
      <trkpt lat="45.71468" lon="5.70072">
        <ele>227.39999389648</ele>
        <time>2023-05-31T09:14:28.000Z</time>
      </trkpt>
      <trkpt lat="45.71486" lon="5.70065">
        <ele>227</ele>
        <time>2023-05-31T09:14:33.000Z</time>
      </trkpt>
      <trkpt lat="45.71491" lon="5.70065">
        <ele>227</ele>
        <time>2023-05-31T09:14:34.000Z</time>
      </trkpt>
      <trkpt lat="45.71495" lon="5.70066">
        <ele>226.80000305176</ele>
        <time>2023-05-31T09:14:35.000Z</time>
      </trkpt>
      <trkpt lat="45.71509" lon="5.70069">
        <ele>226.80000305176</ele>
        <time>2023-05-31T09:14:38.000Z</time>
      </trkpt>
      <trkpt lat="45.71531" lon="5.70073">
        <ele>226.80000305176</ele>
        <time>2023-05-31T09:14:43.000Z</time>
      </trkpt>
      <trkpt lat="45.7154" lon="5.70074">
        <ele>227.19999694824</ele>
        <time>2023-05-31T09:14:45.000Z</time>
      </trkpt>
      <trkpt lat="45.71573" lon="5.70074">
        <ele>227.80000305176</ele>
        <time>2023-05-31T09:14:51.000Z</time>
      </trkpt>
      <trkpt lat="45.71613" lon="5.70075">
        <ele>227.39999389648</ele>
        <time>2023-05-31T09:14:58.000Z</time>
      </trkpt>
      <trkpt lat="45.71657" lon="5.70073">
        <ele>227.19999694824</ele>
        <time>2023-05-31T09:15:06.000Z</time>
      </trkpt>
      <trkpt lat="45.71663" lon="5.70073">
        <ele>227.19999694824</ele>
        <time>2023-05-31T09:15:07.000Z</time>
      </trkpt>
      <trkpt lat="45.71714" lon="5.70072">
        <ele>227.19999694824</ele>
        <time>2023-05-31T09:15:17.000Z</time>
      </trkpt>
      <trkpt lat="45.71768" lon="5.70071">
        <ele>227.19999694824</ele>
        <time>2023-05-31T09:15:26.000Z</time>
      </trkpt>
      <trkpt lat="45.71773" lon="5.70071">
        <ele>227.19999694824</ele>
        <time>2023-05-31T09:15:27.000Z</time>
      </trkpt>
      <trkpt lat="45.71827" lon="5.70071">
        <ele>227.39999389648</ele>
        <time>2023-05-31T09:15:37.000Z</time>
      </trkpt>
      <trkpt lat="45.71882" lon="5.70071">
        <ele>227.80000305176</ele>
        <time>2023-05-31T09:15:47.000Z</time>
      </trkpt>
      <trkpt lat="45.7194" lon="5.7007">
        <ele>228</ele>
        <time>2023-05-31T09:15:57.000Z</time>
      </trkpt>
      <trkpt lat="45.71957" lon="5.7007">
        <ele>228.19999694824</ele>
        <time>2023-05-31T09:16:00.000Z</time>
      </trkpt>
      <trkpt lat="45.72015" lon="5.70068">
        <ele>228.19999694824</ele>
        <time>2023-05-31T09:16:10.000Z</time>
      </trkpt>
      <trkpt lat="45.72027" lon="5.70068">
        <ele>228.19999694824</ele>
        <time>2023-05-31T09:16:12.000Z</time>
      </trkpt>
      <trkpt lat="45.7205" lon="5.70069">
        <ele>228.39999389648</ele>
        <time>2023-05-31T09:16:16.000Z</time>
      </trkpt>
      <trkpt lat="45.72059" lon="5.70074">
        <ele>228.19999694824</ele>
        <time>2023-05-31T09:16:18.000Z</time>
      </trkpt>
      <trkpt lat="45.72087" lon="5.70081">
        <ele>228.19999694824</ele>
        <time>2023-05-31T09:16:23.000Z</time>
      </trkpt>
      <trkpt lat="45.72128" lon="5.70104">
        <ele>228.80000305176</ele>
        <time>2023-05-31T09:16:31.000Z</time>
      </trkpt>
      <trkpt lat="45.72182" lon="5.7013">
        <ele>229.19999694824</ele>
        <time>2023-05-31T09:16:41.000Z</time>
      </trkpt>
      <trkpt lat="45.72187" lon="5.70132">
        <ele>229.19999694824</ele>
        <time>2023-05-31T09:16:42.000Z</time>
      </trkpt>
      <trkpt lat="45.72198" lon="5.70136">
        <ele>229.39999389648</ele>
        <time>2023-05-31T09:16:44.000Z</time>
      </trkpt>
      <trkpt lat="45.72242" lon="5.70156">
        <ele>229.60000610352</ele>
        <time>2023-05-31T09:16:52.000Z</time>
      </trkpt>
      <trkpt lat="45.72284" lon="5.70182">
        <ele>229.80000305176</ele>
        <time>2023-05-31T09:17:00.000Z</time>
      </trkpt>
      <trkpt lat="45.72295" lon="5.70184">
        <ele>229.80000305176</ele>
        <time>2023-05-31T09:17:02.000Z</time>
      </trkpt>
      <trkpt lat="45.72301" lon="5.70183">
        <ele>229.80000305176</ele>
        <time>2023-05-31T09:17:03.000Z</time>
      </trkpt>
      <trkpt lat="45.72311" lon="5.70178">
        <ele>230</ele>
        <time>2023-05-31T09:17:05.000Z</time>
      </trkpt>
      <trkpt lat="45.72322" lon="5.70178">
        <ele>230</ele>
        <time>2023-05-31T09:17:07.000Z</time>
      </trkpt>
      <trkpt lat="45.72351" lon="5.70191">
        <ele>230.39999389648</ele>
        <time>2023-05-31T09:17:13.000Z</time>
      </trkpt>
      <trkpt lat="45.72356" lon="5.70195">
        <ele>230.39999389648</ele>
        <time>2023-05-31T09:17:14.000Z</time>
      </trkpt>
      <trkpt lat="45.72378" lon="5.70211">
        <ele>231</ele>
        <time>2023-05-31T09:17:19.000Z</time>
      </trkpt>
      <trkpt lat="45.72385" lon="5.7022">
        <ele>231</ele>
        <time>2023-05-31T09:17:21.000Z</time>
      </trkpt>
      <trkpt lat="45.72391" lon="5.70237">
        <ele>231.19999694824</ele>
        <time>2023-05-31T09:17:25.000Z</time>
      </trkpt>
      <trkpt lat="45.72401" lon="5.70257">
        <ele>231.39999389648</ele>
        <time>2023-05-31T09:17:30.000Z</time>
      </trkpt>
      <trkpt lat="45.72418" lon="5.70281">
        <ele>231.60000610352</ele>
        <time>2023-05-31T09:17:36.000Z</time>
      </trkpt>
      <trkpt lat="45.72434" lon="5.70291">
        <ele>231.60000610352</ele>
        <time>2023-05-31T09:17:40.000Z</time>
      </trkpt>
      <trkpt lat="45.72443" lon="5.70295">
        <ele>231.60000610352</ele>
        <time>2023-05-31T09:17:42.000Z</time>
      </trkpt>
      <trkpt lat="45.72448" lon="5.70297">
        <ele>231.60000610352</ele>
        <time>2023-05-31T09:17:43.000Z</time>
      </trkpt>
      <trkpt lat="45.72457" lon="5.703">
        <ele>231.80000305176</ele>
        <time>2023-05-31T09:17:45.000Z</time>
      </trkpt>
      <trkpt lat="45.72466" lon="5.70305">
        <ele>231.80000305176</ele>
        <time>2023-05-31T09:17:47.000Z</time>
      </trkpt>
      <trkpt lat="45.7247" lon="5.70308">
        <ele>231.80000305176</ele>
        <time>2023-05-31T09:17:48.000Z</time>
      </trkpt>
      <trkpt lat="45.72494" lon="5.70321">
        <ele>231.80000305176</ele>
        <time>2023-05-31T09:17:53.000Z</time>
      </trkpt>
      <trkpt lat="45.72525" lon="5.70337">
        <ele>231.60000610352</ele>
        <time>2023-05-31T09:17:59.000Z</time>
      </trkpt>
      <trkpt lat="45.72536" lon="5.70341">
        <ele>231.60000610352</ele>
        <time>2023-05-31T09:18:01.000Z</time>
      </trkpt>
      <trkpt lat="45.72559" lon="5.70343">
        <ele>231.60000610352</ele>
        <time>2023-05-31T09:18:05.000Z</time>
      </trkpt>
      <trkpt lat="45.72582" lon="5.70338">
        <ele>231.60000610352</ele>
        <time>2023-05-31T09:18:09.000Z</time>
      </trkpt>
      <trkpt lat="45.72587" lon="5.70335">
        <ele>231.60000610352</ele>
        <time>2023-05-31T09:18:10.000Z</time>
      </trkpt>
      <trkpt lat="45.72625" lon="5.70308">
        <ele>231.80000305176</ele>
        <time>2023-05-31T09:18:17.000Z</time>
      </trkpt>
      <trkpt lat="45.72676" lon="5.70274">
        <ele>231.39999389648</ele>
        <time>2023-05-31T09:18:26.000Z</time>
      </trkpt>
      <trkpt lat="45.72682" lon="5.70271">
        <ele>231.39999389648</ele>
        <time>2023-05-31T09:18:27.000Z</time>
      </trkpt>
      <trkpt lat="45.72733" lon="5.70246">
        <ele>231.19999694824</ele>
        <time>2023-05-31T09:18:36.000Z</time>
      </trkpt>
      <trkpt lat="45.72783" lon="5.70224">
        <ele>231.39999389648</ele>
        <time>2023-05-31T09:18:45.000Z</time>
      </trkpt>
      <trkpt lat="45.72824" lon="5.7021">
        <ele>231.39999389648</ele>
        <time>2023-05-31T09:18:52.000Z</time>
      </trkpt>
      <trkpt lat="45.72831" lon="5.7021">
        <ele>231.39999389648</ele>
        <time>2023-05-31T09:18:53.000Z</time>
      </trkpt>
      <trkpt lat="45.72844" lon="5.70212">
        <ele>231.39999389648</ele>
        <time>2023-05-31T09:18:55.000Z</time>
      </trkpt>
      <trkpt lat="45.72851" lon="5.70215">
        <ele>231.39999389648</ele>
        <time>2023-05-31T09:18:56.000Z</time>
      </trkpt>
      <trkpt lat="45.72868" lon="5.70226">
        <ele>231.19999694824</ele>
        <time>2023-05-31T09:18:59.000Z</time>
      </trkpt>
      <trkpt lat="45.72878" lon="5.70236">
        <ele>231.19999694824</ele>
        <time>2023-05-31T09:19:01.000Z</time>
      </trkpt>
      <trkpt lat="45.72912" lon="5.70266">
        <ele>231.19999694824</ele>
        <time>2023-05-31T09:19:08.000Z</time>
      </trkpt>
      <trkpt lat="45.72945" lon="5.70302">
        <ele>231.39999389648</ele>
        <time>2023-05-31T09:19:15.000Z</time>
      </trkpt>
      <trkpt lat="45.72968" lon="5.70328">
        <ele>231.39999389648</ele>
        <time>2023-05-31T09:19:20.000Z</time>
      </trkpt>
      <trkpt lat="45.72996" lon="5.70356">
        <ele>231.60000610352</ele>
        <time>2023-05-31T09:19:26.000Z</time>
      </trkpt>
      <trkpt lat="45.73027" lon="5.70374">
        <ele>232</ele>
        <time>2023-05-31T09:19:32.000Z</time>
      </trkpt>
      <trkpt lat="45.73069" lon="5.70397">
        <ele>232.39999389648</ele>
        <time>2023-05-31T09:19:40.000Z</time>
      </trkpt>
      <trkpt lat="45.73091" lon="5.7041">
        <ele>232.60000610352</ele>
        <time>2023-05-31T09:19:45.000Z</time>
      </trkpt>
      <trkpt lat="45.73102" lon="5.70416">
        <ele>233.39999389648</ele>
        <time>2023-05-31T09:19:48.000Z</time>
      </trkpt>
      <trkpt lat="45.7311" lon="5.70419">
        <ele>234</ele>
        <time>2023-05-31T09:19:50.000Z</time>
      </trkpt>
      <trkpt lat="45.73113" lon="5.70421">
        <ele>234.39999389648</ele>
        <time>2023-05-31T09:19:51.000Z</time>
      </trkpt>
      <trkpt lat="45.73122" lon="5.70426">
        <ele>235.60000610352</ele>
        <time>2023-05-31T09:19:54.000Z</time>
      </trkpt>
      <trkpt lat="45.73133" lon="5.70432">
        <ele>237.19999694824</ele>
        <time>2023-05-31T09:19:58.000Z</time>
      </trkpt>
      <trkpt lat="45.73136" lon="5.70433">
        <ele>237.39999389648</ele>
        <time>2023-05-31T09:19:59.000Z</time>
      </trkpt>
      <trkpt lat="45.73142" lon="5.70436">
        <ele>238.39999389648</ele>
        <time>2023-05-31T09:20:01.000Z</time>
      </trkpt>
      <trkpt lat="45.73155" lon="5.70444">
        <ele>239.60000610352</ele>
        <time>2023-05-31T09:20:05.000Z</time>
      </trkpt>
      <trkpt lat="45.73162" lon="5.7045">
        <ele>240.19999694824</ele>
        <time>2023-05-31T09:20:07.000Z</time>
      </trkpt>
      <trkpt lat="45.73168" lon="5.70457">
        <ele>240.60000610352</ele>
        <time>2023-05-31T09:20:09.000Z</time>
      </trkpt>
      <trkpt lat="45.7317" lon="5.70461">
        <ele>240.60000610352</ele>
        <time>2023-05-31T09:20:10.000Z</time>
      </trkpt>
      <trkpt lat="45.73176" lon="5.70466">
        <ele>240.80000305176</ele>
        <time>2023-05-31T09:20:12.000Z</time>
      </trkpt>
      <trkpt lat="45.73178" lon="5.70466">
        <ele>240.80000305176</ele>
        <time>2023-05-31T09:20:13.000Z</time>
      </trkpt>
      <trkpt lat="45.73179" lon="5.70464">
        <ele>241</ele>
        <time>2023-05-31T09:20:14.000Z</time>
      </trkpt>
      <trkpt lat="45.73185" lon="5.70456">
        <ele>241.80000305176</ele>
        <time>2023-05-31T09:20:17.000Z</time>
      </trkpt>
      <trkpt lat="45.73197" lon="5.7045">
        <ele>242.60000610352</ele>
        <time>2023-05-31T09:20:22.000Z</time>
      </trkpt>
      <trkpt lat="45.73211" lon="5.70445">
        <ele>242.80000305176</ele>
        <time>2023-05-31T09:20:26.000Z</time>
      </trkpt>
      <trkpt lat="45.73219" lon="5.70443">
        <ele>242.80000305176</ele>
        <time>2023-05-31T09:20:28.000Z</time>
      </trkpt>
      <trkpt lat="45.7323" lon="5.70442">
        <ele>242.80000305176</ele>
        <time>2023-05-31T09:20:30.000Z</time>
      </trkpt>
      <trkpt lat="45.73242" lon="5.70443">
        <ele>242.80000305176</ele>
        <time>2023-05-31T09:20:32.000Z</time>
      </trkpt>
      <trkpt lat="45.73261" lon="5.70441">
        <ele>242.80000305176</ele>
        <time>2023-05-31T09:20:35.000Z</time>
      </trkpt>
      <trkpt lat="45.73277" lon="5.70437">
        <ele>242.80000305176</ele>
        <time>2023-05-31T09:20:38.000Z</time>
      </trkpt>
      <trkpt lat="45.73303" lon="5.70434">
        <ele>243</ele>
        <time>2023-05-31T09:20:44.000Z</time>
      </trkpt>
      <trkpt lat="45.73327" lon="5.7043">
        <ele>243.80000305176</ele>
        <time>2023-05-31T09:20:49.000Z</time>
      </trkpt>
      <trkpt lat="45.73332" lon="5.7043">
        <ele>244.80000305176</ele>
        <time>2023-05-31T09:20:50.000Z</time>
      </trkpt>
      <trkpt lat="45.73337" lon="5.70432">
        <ele>244.80000305176</ele>
        <time>2023-05-31T09:20:51.000Z</time>
      </trkpt>
      <trkpt lat="45.73343" lon="5.70436">
        <ele>245</ele>
        <time>2023-05-31T09:20:52.000Z</time>
      </trkpt>
      <trkpt lat="45.73352" lon="5.70441">
        <ele>245.19999694824</ele>
        <time>2023-05-31T09:20:54.000Z</time>
      </trkpt>
      <trkpt lat="45.73354" lon="5.70443">
        <ele>245.60000610352</ele>
        <time>2023-05-31T09:20:55.000Z</time>
      </trkpt>
      <trkpt lat="45.73372" lon="5.7045">
        <ele>246.19999694824</ele>
        <time>2023-05-31T09:20:59.000Z</time>
      </trkpt>
      <trkpt lat="45.73378" lon="5.70455">
        <ele>246.19999694824</ele>
        <time>2023-05-31T09:21:00.000Z</time>
      </trkpt>
      <trkpt lat="45.73403" lon="5.70464">
        <ele>246.39999389648</ele>
        <time>2023-05-31T09:21:05.000Z</time>
      </trkpt>
      <trkpt lat="45.73434" lon="5.70469">
        <ele>246.39999389648</ele>
        <time>2023-05-31T09:21:10.000Z</time>
      </trkpt>
      <trkpt lat="45.73448" lon="5.7047">
        <ele>246.39999389648</ele>
        <time>2023-05-31T09:21:14.000Z</time>
      </trkpt>
      <trkpt lat="45.73475" lon="5.70475">
        <ele>247.39999389648</ele>
        <time>2023-05-31T09:21:20.000Z</time>
      </trkpt>
      <trkpt lat="45.73504" lon="5.70477">
        <ele>248</ele>
        <time>2023-05-31T09:21:24.000Z</time>
      </trkpt>
      <trkpt lat="45.73516" lon="5.7048">
        <ele>248</ele>
        <time>2023-05-31T09:21:26.000Z</time>
      </trkpt>
      <trkpt lat="45.73541" lon="5.7049">
        <ele>248.19999694824</ele>
        <time>2023-05-31T09:21:31.000Z</time>
      </trkpt>
      <trkpt lat="45.73553" lon="5.70501">
        <ele>248.19999694824</ele>
        <time>2023-05-31T09:21:34.000Z</time>
      </trkpt>
      <trkpt lat="45.73572" lon="5.70514">
        <ele>248.19999694824</ele>
        <time>2023-05-31T09:21:38.000Z</time>
      </trkpt>
      <trkpt lat="45.73585" lon="5.70527">
        <ele>248.39999389648</ele>
        <time>2023-05-31T09:21:41.000Z</time>
      </trkpt>
      <trkpt lat="45.73593" lon="5.70536">
        <ele>248.39999389648</ele>
        <time>2023-05-31T09:21:43.000Z</time>
      </trkpt>
      <trkpt lat="45.73609" lon="5.70551">
        <ele>248.60000610352</ele>
        <time>2023-05-31T09:21:46.000Z</time>
      </trkpt>
      <trkpt lat="45.73613" lon="5.70556">
        <ele>248.60000610352</ele>
        <time>2023-05-31T09:21:47.000Z</time>
      </trkpt>
      <trkpt lat="45.73623" lon="5.70569">
        <ele>248.39999389648</ele>
        <time>2023-05-31T09:21:49.000Z</time>
      </trkpt>
      <trkpt lat="45.73645" lon="5.70584">
        <ele>248</ele>
        <time>2023-05-31T09:21:52.000Z</time>
      </trkpt>
      <trkpt lat="45.73664" lon="5.70605">
        <ele>247.60000610352</ele>
        <time>2023-05-31T09:21:55.000Z</time>
      </trkpt>
      <trkpt lat="45.73668" lon="5.70612">
        <ele>247.39999389648</ele>
        <time>2023-05-31T09:21:56.000Z</time>
      </trkpt>
      <trkpt lat="45.73677" lon="5.70633">
        <ele>246.60000610352</ele>
        <time>2023-05-31T09:21:59.000Z</time>
      </trkpt>
      <trkpt lat="45.73679" lon="5.70639">
        <ele>246.39999389648</ele>
        <time>2023-05-31T09:22:00.000Z</time>
      </trkpt>
      <trkpt lat="45.73681" lon="5.70645">
        <ele>246.39999389648</ele>
        <time>2023-05-31T09:22:01.000Z</time>
      </trkpt>
      <trkpt lat="45.73678" lon="5.70664">
        <ele>246</ele>
        <time>2023-05-31T09:22:05.000Z</time>
      </trkpt>
      <trkpt lat="45.73679" lon="5.70673">
        <ele>246.19999694824</ele>
        <time>2023-05-31T09:22:08.000Z</time>
      </trkpt>
      <trkpt lat="45.7368" lon="5.70675">
        <ele>246.19999694824</ele>
        <time>2023-05-31T09:22:09.000Z</time>
      </trkpt>
      <trkpt lat="45.73681" lon="5.70676">
        <ele>246.19999694824</ele>
        <time>2023-05-31T09:22:10.000Z</time>
      </trkpt>
      <trkpt lat="45.73681" lon="5.70676">
        <ele>246.39999389648</ele>
        <time>2023-05-31T09:22:13.000Z</time>
      </trkpt>
      <trkpt lat="45.73686" lon="5.70675">
        <ele>246.39999389648</ele>
        <time>2023-05-31T09:22:18.000Z</time>
      </trkpt>
      <trkpt lat="45.73692" lon="5.70672">
        <ele>246.39999389648</ele>
        <time>2023-05-31T09:22:20.000Z</time>
      </trkpt>
      <trkpt lat="45.737" lon="5.70658">
        <ele>246.39999389648</ele>
        <time>2023-05-31T09:22:23.000Z</time>
      </trkpt>
      <trkpt lat="45.73705" lon="5.70646">
        <ele>246.39999389648</ele>
        <time>2023-05-31T09:22:25.000Z</time>
      </trkpt>
      <trkpt lat="45.7372" lon="5.70604">
        <ele>246.39999389648</ele>
        <time>2023-05-31T09:22:31.000Z</time>
      </trkpt>
      <trkpt lat="45.73739" lon="5.70547">
        <ele>247.39999389648</ele>
        <time>2023-05-31T09:22:40.000Z</time>
      </trkpt>
      <trkpt lat="45.73743" lon="5.70535">
        <ele>247.80000305176</ele>
        <time>2023-05-31T09:22:42.000Z</time>
      </trkpt>
      <trkpt lat="45.7376" lon="5.70484">
        <ele>248.60000610352</ele>
        <time>2023-05-31T09:22:50.000Z</time>
      </trkpt>
      <trkpt lat="45.73764" lon="5.70471">
        <ele>249</ele>
        <time>2023-05-31T09:22:52.000Z</time>
      </trkpt>
      <trkpt lat="45.73782" lon="5.7042">
        <ele>249</ele>
        <time>2023-05-31T09:22:59.000Z</time>
      </trkpt>
      <trkpt lat="45.738" lon="5.70379">
        <ele>248.39999389648</ele>
        <time>2023-05-31T09:23:04.000Z</time>
      </trkpt>
      <trkpt lat="45.73805" lon="5.70371">
        <ele>248.19999694824</ele>
        <time>2023-05-31T09:23:05.000Z</time>
      </trkpt>
      <trkpt lat="45.7381" lon="5.70362">
        <ele>247.80000305176</ele>
        <time>2023-05-31T09:23:06.000Z</time>
      </trkpt>
      <trkpt lat="45.73822" lon="5.70349">
        <ele>247.19999694824</ele>
        <time>2023-05-31T09:23:08.000Z</time>
      </trkpt>
      <trkpt lat="45.7383" lon="5.70342">
        <ele>247</ele>
        <time>2023-05-31T09:23:09.000Z</time>
      </trkpt>
      <trkpt lat="45.73853" lon="5.70327">
        <ele>245.80000305176</ele>
        <time>2023-05-31T09:23:12.000Z</time>
      </trkpt>
      <trkpt lat="45.73862" lon="5.70323">
        <ele>245.39999389648</ele>
        <time>2023-05-31T09:23:13.000Z</time>
      </trkpt>
      <trkpt lat="45.73878" lon="5.70315">
        <ele>244.39999389648</ele>
        <time>2023-05-31T09:23:15.000Z</time>
      </trkpt>
      <trkpt lat="45.73903" lon="5.70306">
        <ele>242.60000610352</ele>
        <time>2023-05-31T09:23:18.000Z</time>
      </trkpt>
      <trkpt lat="45.73911" lon="5.70303">
        <ele>242.19999694824</ele>
        <time>2023-05-31T09:23:19.000Z</time>
      </trkpt>
      <trkpt lat="45.73919" lon="5.703">
        <ele>241.60000610352</ele>
        <time>2023-05-31T09:23:20.000Z</time>
      </trkpt>
      <trkpt lat="45.73934" lon="5.70293">
        <ele>240.39999389648</ele>
        <time>2023-05-31T09:23:22.000Z</time>
      </trkpt>
      <trkpt lat="45.73948" lon="5.70286">
        <ele>239.39999389648</ele>
        <time>2023-05-31T09:23:24.000Z</time>
      </trkpt>
      <trkpt lat="45.7396" lon="5.70278">
        <ele>238.39999389648</ele>
        <time>2023-05-31T09:23:26.000Z</time>
      </trkpt>
      <trkpt lat="45.7397" lon="5.7027">
        <ele>237.19999694824</ele>
        <time>2023-05-31T09:23:28.000Z</time>
      </trkpt>
      <trkpt lat="45.73973" lon="5.70268">
        <ele>236.39999389648</ele>
        <time>2023-05-31T09:23:29.000Z</time>
      </trkpt>
      <trkpt lat="45.73975" lon="5.70269">
        <ele>236.19999694824</ele>
        <time>2023-05-31T09:23:30.000Z</time>
      </trkpt>
      <trkpt lat="45.73975" lon="5.7027">
        <ele>235.60000610352</ele>
        <time>2023-05-31T09:23:31.000Z</time>
      </trkpt>
      <trkpt lat="45.73976" lon="5.70271">
        <ele>234.60000610352</ele>
        <time>2023-05-31T09:23:34.000Z</time>
      </trkpt>
      <trkpt lat="45.73982" lon="5.70265">
        <ele>234</ele>
        <time>2023-05-31T09:23:44.000Z</time>
      </trkpt>
      <trkpt lat="45.73986" lon="5.70262">
        <ele>234</ele>
        <time>2023-05-31T09:23:46.000Z</time>
      </trkpt>
      <trkpt lat="45.74006" lon="5.70244">
        <ele>234.19999694824</ele>
        <time>2023-05-31T09:23:52.000Z</time>
      </trkpt>
      <trkpt lat="45.74026" lon="5.70222">
        <ele>234.39999389648</ele>
        <time>2023-05-31T09:23:57.000Z</time>
      </trkpt>
      <trkpt lat="45.74034" lon="5.70213">
        <ele>234.60000610352</ele>
        <time>2023-05-31T09:23:59.000Z</time>
      </trkpt>
      <trkpt lat="45.74039" lon="5.702">
        <ele>235</ele>
        <time>2023-05-31T09:24:01.000Z</time>
      </trkpt>
      <trkpt lat="45.74041" lon="5.70185">
        <ele>235.39999389648</ele>
        <time>2023-05-31T09:24:03.000Z</time>
      </trkpt>
      <trkpt lat="45.74041" lon="5.70167">
        <ele>235.60000610352</ele>
        <time>2023-05-31T09:24:06.000Z</time>
      </trkpt>
      <trkpt lat="45.74037" lon="5.70151">
        <ele>235.80000305176</ele>
        <time>2023-05-31T09:24:10.000Z</time>
      </trkpt>
      <trkpt lat="45.74039" lon="5.70147">
        <ele>236.19999694824</ele>
        <time>2023-05-31T09:24:12.000Z</time>
      </trkpt>
      <trkpt lat="45.74041" lon="5.70146">
        <ele>236.19999694824</ele>
        <time>2023-05-31T09:24:13.000Z</time>
      </trkpt>
      <trkpt lat="45.74056" lon="5.70144">
        <ele>236.60000610352</ele>
        <time>2023-05-31T09:24:17.000Z</time>
      </trkpt>
      <trkpt lat="45.74069" lon="5.70139">
        <ele>236.39999389648</ele>
        <time>2023-05-31T09:24:22.000Z</time>
      </trkpt>
      <trkpt lat="45.74073" lon="5.70126">
        <ele>236</ele>
        <time>2023-05-31T09:24:26.000Z</time>
      </trkpt>
      <trkpt lat="45.74075" lon="5.70124">
        <ele>235.80000305176</ele>
        <time>2023-05-31T09:24:30.000Z</time>
      </trkpt>
      <trkpt lat="45.74072" lon="5.7014">
        <ele>236.80000305176</ele>
        <time>2023-05-31T10:17:39.000Z</time>
      </trkpt>
      <trkpt lat="45.74068" lon="5.70143">
        <ele>236.80000305176</ele>
        <time>2023-05-31T10:17:41.000Z</time>
      </trkpt>
      <trkpt lat="45.74058" lon="5.70142">
        <ele>236.80000305176</ele>
        <time>2023-05-31T10:17:45.000Z</time>
      </trkpt>
      <trkpt lat="45.74046" lon="5.70142">
        <ele>236.80000305176</ele>
        <time>2023-05-31T10:17:50.000Z</time>
      </trkpt>
      <trkpt lat="45.74044" lon="5.70142">
        <ele>236.80000305176</ele>
        <time>2023-05-31T10:17:51.000Z</time>
      </trkpt>
      <trkpt lat="45.7404" lon="5.70146">
        <ele>236.80000305176</ele>
        <time>2023-05-31T10:17:53.000Z</time>
      </trkpt>
      <trkpt lat="45.74039" lon="5.70149">
        <ele>236.80000305176</ele>
        <time>2023-05-31T10:17:54.000Z</time>
      </trkpt>
      <trkpt lat="45.74044" lon="5.7017">
        <ele>237.19999694824</ele>
        <time>2023-05-31T10:17:59.000Z</time>
      </trkpt>
      <trkpt lat="45.74044" lon="5.70183">
        <ele>237.19999694824</ele>
        <time>2023-05-31T10:18:01.000Z</time>
      </trkpt>
      <trkpt lat="45.74042" lon="5.70194">
        <ele>237.19999694824</ele>
        <time>2023-05-31T10:18:03.000Z</time>
      </trkpt>
      <trkpt lat="45.7404" lon="5.702">
        <ele>237</ele>
        <time>2023-05-31T10:18:04.000Z</time>
      </trkpt>
      <trkpt lat="45.74033" lon="5.7021">
        <ele>237</ele>
        <time>2023-05-31T10:18:06.000Z</time>
      </trkpt>
      <trkpt lat="45.74007" lon="5.70236">
        <ele>236.39999389648</ele>
        <time>2023-05-31T10:18:12.000Z</time>
      </trkpt>
      <trkpt lat="45.73989" lon="5.70253">
        <ele>236</ele>
        <time>2023-05-31T10:18:16.000Z</time>
      </trkpt>
      <trkpt lat="45.73981" lon="5.70262">
        <ele>235.80000305176</ele>
        <time>2023-05-31T10:18:18.000Z</time>
      </trkpt>
      <trkpt lat="45.73979" lon="5.70268">
        <ele>235.60000610352</ele>
        <time>2023-05-31T10:18:19.000Z</time>
      </trkpt>
      <trkpt lat="45.73978" lon="5.70274">
        <ele>235.60000610352</ele>
        <time>2023-05-31T10:18:20.000Z</time>
      </trkpt>
      <trkpt lat="45.73976" lon="5.70279">
        <ele>235.39999389648</ele>
        <time>2023-05-31T10:18:21.000Z</time>
      </trkpt>
      <trkpt lat="45.7397" lon="5.70288">
        <ele>235.39999389648</ele>
        <time>2023-05-31T10:18:23.000Z</time>
      </trkpt>
      <trkpt lat="45.73961" lon="5.70295">
        <ele>235.19999694824</ele>
        <time>2023-05-31T10:18:25.000Z</time>
      </trkpt>
      <trkpt lat="45.7392" lon="5.7032">
        <ele>234.60000610352</ele>
        <time>2023-05-31T10:18:33.000Z</time>
      </trkpt>
      <trkpt lat="45.73915" lon="5.70325">
        <ele>234.60000610352</ele>
        <time>2023-05-31T10:18:34.000Z</time>
      </trkpt>
      <trkpt lat="45.73907" lon="5.70337">
        <ele>234.39999389648</ele>
        <time>2023-05-31T10:18:36.000Z</time>
      </trkpt>
      <trkpt lat="45.73904" lon="5.70345">
        <ele>234.39999389648</ele>
        <time>2023-05-31T10:18:37.000Z</time>
      </trkpt>
      <trkpt lat="45.73901" lon="5.70353">
        <ele>234.39999389648</ele>
        <time>2023-05-31T10:18:38.000Z</time>
      </trkpt>
      <trkpt lat="45.73895" lon="5.70384">
        <ele>234.19999694824</ele>
        <time>2023-05-31T10:18:42.000Z</time>
      </trkpt>
      <trkpt lat="45.73887" lon="5.70412">
        <ele>234</ele>
        <time>2023-05-31T10:18:47.000Z</time>
      </trkpt>
      <trkpt lat="45.73887" lon="5.70418">
        <ele>234</ele>
        <time>2023-05-31T10:18:49.000Z</time>
      </trkpt>
      <trkpt lat="45.73889" lon="5.7042">
        <ele>234</ele>
        <time>2023-05-31T10:18:50.000Z</time>
      </trkpt>
      <trkpt lat="45.73904" lon="5.70423">
        <ele>233.80000305176</ele>
        <time>2023-05-31T10:18:54.000Z</time>
      </trkpt>
      <trkpt lat="45.73919" lon="5.70421">
        <ele>233.80000305176</ele>
        <time>2023-05-31T10:18:57.000Z</time>
      </trkpt>
      <trkpt lat="45.73928" lon="5.70417">
        <ele>233.60000610352</ele>
        <time>2023-05-31T10:18:59.000Z</time>
      </trkpt>
      <trkpt lat="45.73932" lon="5.70415">
        <ele>233.60000610352</ele>
        <time>2023-05-31T10:19:00.000Z</time>
      </trkpt>
      <trkpt lat="45.73946" lon="5.70406">
        <ele>233.60000610352</ele>
        <time>2023-05-31T10:19:03.000Z</time>
      </trkpt>
      <trkpt lat="45.73962" lon="5.70391">
        <ele>233.60000610352</ele>
        <time>2023-05-31T10:19:07.000Z</time>
      </trkpt>
      <trkpt lat="45.74002" lon="5.70349">
        <ele>234.19999694824</ele>
        <time>2023-05-31T10:19:17.000Z</time>
      </trkpt>
      <trkpt lat="45.74035" lon="5.70319">
        <ele>234.39999389648</ele>
        <time>2023-05-31T10:19:25.000Z</time>
      </trkpt>
      <trkpt lat="45.74078" lon="5.70287">
        <ele>235.39999389648</ele>
        <time>2023-05-31T10:19:35.000Z</time>
      </trkpt>
      <trkpt lat="45.74096" lon="5.70278">
        <ele>235.60000610352</ele>
        <time>2023-05-31T10:19:39.000Z</time>
      </trkpt>
      <trkpt lat="45.74113" lon="5.7027">
        <ele>236.19999694824</ele>
        <time>2023-05-31T10:19:43.000Z</time>
      </trkpt>
      <trkpt lat="45.74142" lon="5.70258">
        <ele>236.60000610352</ele>
        <time>2023-05-31T10:19:49.000Z</time>
      </trkpt>
      <trkpt lat="45.74167" lon="5.70251">
        <ele>237</ele>
        <time>2023-05-31T10:19:54.000Z</time>
      </trkpt>
      <trkpt lat="45.74208" lon="5.70246">
        <ele>237.19999694824</ele>
        <time>2023-05-31T10:20:02.000Z</time>
      </trkpt>
      <trkpt lat="45.74218" lon="5.70246">
        <ele>237.19999694824</ele>
        <time>2023-05-31T10:20:04.000Z</time>
      </trkpt>
      <trkpt lat="45.74251" lon="5.70249">
        <ele>237</ele>
        <time>2023-05-31T10:20:10.000Z</time>
      </trkpt>
      <trkpt lat="45.74302" lon="5.70255">
        <ele>237</ele>
        <time>2023-05-31T10:20:19.000Z</time>
      </trkpt>
      <trkpt lat="45.74338" lon="5.7026">
        <ele>236.60000610352</ele>
        <time>2023-05-31T10:20:25.000Z</time>
      </trkpt>
      <trkpt lat="45.74396" lon="5.70267">
        <ele>236.19999694824</ele>
        <time>2023-05-31T10:20:35.000Z</time>
      </trkpt>
      <trkpt lat="45.74402" lon="5.70267">
        <ele>236.19999694824</ele>
        <time>2023-05-31T10:20:36.000Z</time>
      </trkpt>
      <trkpt lat="45.74449" lon="5.70273">
        <ele>235.80000305176</ele>
        <time>2023-05-31T10:20:44.000Z</time>
      </trkpt>
      <trkpt lat="45.74467" lon="5.70276">
        <ele>235.80000305176</ele>
        <time>2023-05-31T10:20:47.000Z</time>
      </trkpt>
      <trkpt lat="45.74479" lon="5.70277">
        <ele>235.60000610352</ele>
        <time>2023-05-31T10:20:49.000Z</time>
      </trkpt>
      <trkpt lat="45.74513" lon="5.70281">
        <ele>235.39999389648</ele>
        <time>2023-05-31T10:20:55.000Z</time>
      </trkpt>
      <trkpt lat="45.74558" lon="5.70286">
        <ele>235.19999694824</ele>
        <time>2023-05-31T10:21:03.000Z</time>
      </trkpt>
      <trkpt lat="45.74594" lon="5.70287">
        <ele>235.19999694824</ele>
        <time>2023-05-31T10:21:09.000Z</time>
      </trkpt>
      <trkpt lat="45.74599" lon="5.70285">
        <ele>235.19999694824</ele>
        <time>2023-05-31T10:21:10.000Z</time>
      </trkpt>
      <trkpt lat="45.74637" lon="5.70272">
        <ele>235</ele>
        <time>2023-05-31T10:21:17.000Z</time>
      </trkpt>
      <trkpt lat="45.74657" lon="5.7026">
        <ele>235.39999389648</ele>
        <time>2023-05-31T10:21:21.000Z</time>
      </trkpt>
      <trkpt lat="45.74672" lon="5.70249">
        <ele>235.60000610352</ele>
        <time>2023-05-31T10:21:24.000Z</time>
      </trkpt>
      <trkpt lat="45.74709" lon="5.70216">
        <ele>235.80000305176</ele>
        <time>2023-05-31T10:21:32.000Z</time>
      </trkpt>
      <trkpt lat="45.74717" lon="5.70207">
        <ele>235.80000305176</ele>
        <time>2023-05-31T10:21:34.000Z</time>
      </trkpt>
      <trkpt lat="45.74734" lon="5.70191">
        <ele>236</ele>
        <time>2023-05-31T10:21:38.000Z</time>
      </trkpt>
      <trkpt lat="45.74748" lon="5.70184">
        <ele>236.19999694824</ele>
        <time>2023-05-31T10:21:41.000Z</time>
      </trkpt>
      <trkpt lat="45.74754" lon="5.70181">
        <ele>236.39999389648</ele>
        <time>2023-05-31T10:21:42.000Z</time>
      </trkpt>
      <trkpt lat="45.74777" lon="5.70167">
        <ele>236.80000305176</ele>
        <time>2023-05-31T10:21:47.000Z</time>
      </trkpt>
      <trkpt lat="45.74782" lon="5.70164">
        <ele>236.80000305176</ele>
        <time>2023-05-31T10:21:48.000Z</time>
      </trkpt>
      <trkpt lat="45.74802" lon="5.7016">
        <ele>237</ele>
        <time>2023-05-31T10:21:52.000Z</time>
      </trkpt>
      <trkpt lat="45.74813" lon="5.70162">
        <ele>237</ele>
        <time>2023-05-31T10:21:54.000Z</time>
      </trkpt>
      <trkpt lat="45.74848" lon="5.70175">
        <ele>237.39999389648</ele>
        <time>2023-05-31T10:22:00.000Z</time>
      </trkpt>
      <trkpt lat="45.7487" lon="5.70192">
        <ele>237</ele>
        <time>2023-05-31T10:22:04.000Z</time>
      </trkpt>
      <trkpt lat="45.7488" lon="5.70202">
        <ele>237</ele>
        <time>2023-05-31T10:22:06.000Z</time>
      </trkpt>
      <trkpt lat="45.74884" lon="5.70207">
        <ele>236.80000305176</ele>
        <time>2023-05-31T10:22:07.000Z</time>
      </trkpt>
      <trkpt lat="45.74898" lon="5.70226">
        <ele>236.39999389648</ele>
        <time>2023-05-31T10:22:10.000Z</time>
      </trkpt>
      <trkpt lat="45.74905" lon="5.70239">
        <ele>236.19999694824</ele>
        <time>2023-05-31T10:22:12.000Z</time>
      </trkpt>
      <trkpt lat="45.7493" lon="5.70293">
        <ele>235.80000305176</ele>
        <time>2023-05-31T10:22:19.000Z</time>
      </trkpt>
      <trkpt lat="45.74946" lon="5.70321">
        <ele>235.60000610352</ele>
        <time>2023-05-31T10:22:23.000Z</time>
      </trkpt>
      <trkpt lat="45.7495" lon="5.70326">
        <ele>235.60000610352</ele>
        <time>2023-05-31T10:22:24.000Z</time>
      </trkpt>
      <trkpt lat="45.74956" lon="5.7033">
        <ele>235.39999389648</ele>
        <time>2023-05-31T10:22:25.000Z</time>
      </trkpt>
      <trkpt lat="45.74974" lon="5.70336">
        <ele>235.39999389648</ele>
        <time>2023-05-31T10:22:28.000Z</time>
      </trkpt>
      <trkpt lat="45.75025" lon="5.70341">
        <ele>234.80000305176</ele>
        <time>2023-05-31T10:22:36.000Z</time>
      </trkpt>
      <trkpt lat="45.75031" lon="5.70341">
        <ele>234.80000305176</ele>
        <time>2023-05-31T10:22:37.000Z</time>
      </trkpt>
      <trkpt lat="45.75087" lon="5.70349">
        <ele>234.39999389648</ele>
        <time>2023-05-31T10:22:46.000Z</time>
      </trkpt>
      <trkpt lat="45.75143" lon="5.7036">
        <ele>234.39999389648</ele>
        <time>2023-05-31T10:22:55.000Z</time>
      </trkpt>
      <trkpt lat="45.75197" lon="5.70377">
        <ele>234.80000305176</ele>
        <time>2023-05-31T10:23:04.000Z</time>
      </trkpt>
      <trkpt lat="45.75209" lon="5.70382">
        <ele>234.80000305176</ele>
        <time>2023-05-31T10:23:06.000Z</time>
      </trkpt>
      <trkpt lat="45.75254" lon="5.70404">
        <ele>234.80000305176</ele>
        <time>2023-05-31T10:23:14.000Z</time>
      </trkpt>
      <trkpt lat="45.75291" lon="5.70429">
        <ele>235</ele>
        <time>2023-05-31T10:23:21.000Z</time>
      </trkpt>
      <trkpt lat="45.75333" lon="5.70462">
        <ele>235</ele>
        <time>2023-05-31T10:23:29.000Z</time>
      </trkpt>
      <trkpt lat="45.75343" lon="5.70472">
        <ele>235</ele>
        <time>2023-05-31T10:23:31.000Z</time>
      </trkpt>
      <trkpt lat="45.75382" lon="5.7052">
        <ele>235.39999389648</ele>
        <time>2023-05-31T10:23:40.000Z</time>
      </trkpt>
      <trkpt lat="45.75421" lon="5.70568">
        <ele>236</ele>
        <time>2023-05-31T10:23:49.000Z</time>
      </trkpt>
      <trkpt lat="45.75458" lon="5.70618">
        <ele>236.19999694824</ele>
        <time>2023-05-31T10:23:58.000Z</time>
      </trkpt>
      <trkpt lat="45.75497" lon="5.70675">
        <ele>236.60000610352</ele>
        <time>2023-05-31T10:24:08.000Z</time>
      </trkpt>
      <trkpt lat="45.75506" lon="5.70692">
        <ele>236.80000305176</ele>
        <time>2023-05-31T10:24:11.000Z</time>
      </trkpt>
      <trkpt lat="45.75511" lon="5.70703">
        <ele>236.80000305176</ele>
        <time>2023-05-31T10:24:13.000Z</time>
      </trkpt>
      <trkpt lat="45.75509" lon="5.70719">
        <ele>237</ele>
        <time>2023-05-31T10:24:16.000Z</time>
      </trkpt>
      <trkpt lat="45.75507" lon="5.70722">
        <ele>237</ele>
        <time>2023-05-31T10:24:17.000Z</time>
      </trkpt>
      <trkpt lat="45.75497" lon="5.70729">
        <ele>237.39999389648</ele>
        <time>2023-05-31T10:24:20.000Z</time>
      </trkpt>
      <trkpt lat="45.75486" lon="5.70737">
        <ele>238.39999389648</ele>
        <time>2023-05-31T10:24:24.000Z</time>
      </trkpt>
      <trkpt lat="45.75484" lon="5.7074">
        <ele>238.60000610352</ele>
        <time>2023-05-31T10:24:25.000Z</time>
      </trkpt>
      <trkpt lat="45.75482" lon="5.70749">
        <ele>239.39999389648</ele>
        <time>2023-05-31T10:24:27.000Z</time>
      </trkpt>
      <trkpt lat="45.75483" lon="5.70758">
        <ele>240.39999389648</ele>
        <time>2023-05-31T10:24:29.000Z</time>
      </trkpt>
      <trkpt lat="45.75485" lon="5.70763">
        <ele>240.80000305176</ele>
        <time>2023-05-31T10:24:30.000Z</time>
      </trkpt>
      <trkpt lat="45.75491" lon="5.70776">
        <ele>241.39999389648</ele>
        <time>2023-05-31T10:24:33.000Z</time>
      </trkpt>
      <trkpt lat="45.75498" lon="5.70784">
        <ele>241.60000610352</ele>
        <time>2023-05-31T10:24:35.000Z</time>
      </trkpt>
      <trkpt lat="45.75507" lon="5.70798">
        <ele>242.19999694824</ele>
        <time>2023-05-31T10:24:38.000Z</time>
      </trkpt>
      <trkpt lat="45.75509" lon="5.70803">
        <ele>242</ele>
        <time>2023-05-31T10:24:39.000Z</time>
      </trkpt>
      <trkpt lat="45.75526" lon="5.70838">
        <ele>241.80000305176</ele>
        <time>2023-05-31T10:24:45.000Z</time>
      </trkpt>
      <trkpt lat="45.75532" lon="5.7085">
        <ele>241.80000305176</ele>
        <time>2023-05-31T10:24:47.000Z</time>
      </trkpt>
      <trkpt lat="45.75561" lon="5.70913">
        <ele>242.19999694824</ele>
        <time>2023-05-31T10:24:57.000Z</time>
      </trkpt>
      <trkpt lat="45.7559" lon="5.70971">
        <ele>242.19999694824</ele>
        <time>2023-05-31T10:25:06.000Z</time>
      </trkpt>
      <trkpt lat="45.75622" lon="5.71038">
        <ele>242.19999694824</ele>
        <time>2023-05-31T10:25:16.000Z</time>
      </trkpt>
      <trkpt lat="45.75652" lon="5.71101">
        <ele>242.39999389648</ele>
        <time>2023-05-31T10:25:25.000Z</time>
      </trkpt>
      <trkpt lat="45.75668" lon="5.71135">
        <ele>242.39999389648</ele>
        <time>2023-05-31T10:25:30.000Z</time>
      </trkpt>
      <trkpt lat="45.75677" lon="5.71145">
        <ele>242.39999389648</ele>
        <time>2023-05-31T10:25:32.000Z</time>
      </trkpt>
      <trkpt lat="45.75709" lon="5.71166">
        <ele>242.39999389648</ele>
        <time>2023-05-31T10:25:38.000Z</time>
      </trkpt>
      <trkpt lat="45.75713" lon="5.71171">
        <ele>242.39999389648</ele>
        <time>2023-05-31T10:25:39.000Z</time>
      </trkpt>
      <trkpt lat="45.75717" lon="5.71177">
        <ele>242.39999389648</ele>
        <time>2023-05-31T10:25:40.000Z</time>
      </trkpt>
      <trkpt lat="45.7573" lon="5.71205">
        <ele>242.19999694824</ele>
        <time>2023-05-31T10:25:44.000Z</time>
      </trkpt>
      <trkpt lat="45.75758" lon="5.71266">
        <ele>242.39999389648</ele>
        <time>2023-05-31T10:25:53.000Z</time>
      </trkpt>
      <trkpt lat="45.7579" lon="5.7133">
        <ele>242.39999389648</ele>
        <time>2023-05-31T10:26:03.000Z</time>
      </trkpt>
      <trkpt lat="45.75793" lon="5.71337">
        <ele>242.39999389648</ele>
        <time>2023-05-31T10:26:04.000Z</time>
      </trkpt>
      <trkpt lat="45.75826" lon="5.71403">
        <ele>242.39999389648</ele>
        <time>2023-05-31T10:26:14.000Z</time>
      </trkpt>
      <trkpt lat="45.75833" lon="5.71417">
        <ele>242.19999694824</ele>
        <time>2023-05-31T10:26:16.000Z</time>
      </trkpt>
      <trkpt lat="45.75861" lon="5.71474">
        <ele>242.19999694824</ele>
        <time>2023-05-31T10:26:25.000Z</time>
      </trkpt>
      <trkpt lat="45.75892" lon="5.7154">
        <ele>242.19999694824</ele>
        <time>2023-05-31T10:26:35.000Z</time>
      </trkpt>
      <trkpt lat="45.75899" lon="5.71553">
        <ele>242.19999694824</ele>
        <time>2023-05-31T10:26:37.000Z</time>
      </trkpt>
      <trkpt lat="45.75907" lon="5.71562">
        <ele>242.19999694824</ele>
        <time>2023-05-31T10:26:39.000Z</time>
      </trkpt>
      <trkpt lat="45.75918" lon="5.71569">
        <ele>242.39999389648</ele>
        <time>2023-05-31T10:26:41.000Z</time>
      </trkpt>
      <trkpt lat="45.75974" lon="5.71595">
        <ele>242.39999389648</ele>
        <time>2023-05-31T10:26:51.000Z</time>
      </trkpt>
      <trkpt lat="45.75996" lon="5.71607">
        <ele>242.39999389648</ele>
        <time>2023-05-31T10:26:55.000Z</time>
      </trkpt>
      <trkpt lat="45.76005" lon="5.71618">
        <ele>242.39999389648</ele>
        <time>2023-05-31T10:26:57.000Z</time>
      </trkpt>
      <trkpt lat="45.76023" lon="5.71651">
        <ele>242.39999389648</ele>
        <time>2023-05-31T10:27:02.000Z</time>
      </trkpt>
      <trkpt lat="45.76056" lon="5.71721">
        <ele>242.60000610352</ele>
        <time>2023-05-31T10:27:12.000Z</time>
      </trkpt>
      <trkpt lat="45.76063" lon="5.71735">
        <ele>242.60000610352</ele>
        <time>2023-05-31T10:27:14.000Z</time>
      </trkpt>
      <trkpt lat="45.76096" lon="5.71805">
        <ele>242.39999389648</ele>
        <time>2023-05-31T10:27:24.000Z</time>
      </trkpt>
      <trkpt lat="45.76106" lon="5.71825">
        <ele>242.39999389648</ele>
        <time>2023-05-31T10:27:27.000Z</time>
      </trkpt>
      <trkpt lat="45.76136" lon="5.7189">
        <ele>242.39999389648</ele>
        <time>2023-05-31T10:27:36.000Z</time>
      </trkpt>
      <trkpt lat="45.76139" lon="5.71897">
        <ele>242.39999389648</ele>
        <time>2023-05-31T10:27:37.000Z</time>
      </trkpt>
      <trkpt lat="45.76167" lon="5.71971">
        <ele>242.19999694824</ele>
        <time>2023-05-31T10:27:47.000Z</time>
      </trkpt>
      <trkpt lat="45.76174" lon="5.71993">
        <ele>242.19999694824</ele>
        <time>2023-05-31T10:27:50.000Z</time>
      </trkpt>
      <trkpt lat="45.76199" lon="5.72068">
        <ele>242.39999389648</ele>
        <time>2023-05-31T10:28:00.000Z</time>
      </trkpt>
      <trkpt lat="45.76202" lon="5.72075">
        <ele>242.39999389648</ele>
        <time>2023-05-31T10:28:01.000Z</time>
      </trkpt>
      <trkpt lat="45.76216" lon="5.72126">
        <ele>242.39999389648</ele>
        <time>2023-05-31T10:28:08.000Z</time>
      </trkpt>
      <trkpt lat="45.76217" lon="5.72134">
        <ele>242.39999389648</ele>
        <time>2023-05-31T10:28:09.000Z</time>
      </trkpt>
      <trkpt lat="45.76217" lon="5.72144">
        <ele>242.60000610352</ele>
        <time>2023-05-31T10:28:11.000Z</time>
      </trkpt>
      <trkpt lat="45.7622" lon="5.72155">
        <ele>242.60000610352</ele>
        <time>2023-05-31T10:28:13.000Z</time>
      </trkpt>
      <trkpt lat="45.76221" lon="5.72161">
        <ele>242.60000610352</ele>
        <time>2023-05-31T10:28:14.000Z</time>
      </trkpt>
      <trkpt lat="45.7622" lon="5.72176">
        <ele>242.60000610352</ele>
        <time>2023-05-31T10:28:16.000Z</time>
      </trkpt>
      <trkpt lat="45.76219" lon="5.72183">
        <ele>242.60000610352</ele>
        <time>2023-05-31T10:28:17.000Z</time>
      </trkpt>
      <trkpt lat="45.76204" lon="5.72232">
        <ele>242.80000305176</ele>
        <time>2023-05-31T10:28:24.000Z</time>
      </trkpt>
      <trkpt lat="45.76186" lon="5.72287">
        <ele>243.19999694824</ele>
        <time>2023-05-31T10:28:32.000Z</time>
      </trkpt>
      <trkpt lat="45.76184" lon="5.72303">
        <ele>243.19999694824</ele>
        <time>2023-05-31T10:28:34.000Z</time>
      </trkpt>
      <trkpt lat="45.76186" lon="5.72319">
        <ele>243.19999694824</ele>
        <time>2023-05-31T10:28:36.000Z</time>
      </trkpt>
      <trkpt lat="45.76195" lon="5.72372">
        <ele>243.19999694824</ele>
        <time>2023-05-31T10:28:43.000Z</time>
      </trkpt>
      <trkpt lat="45.76198" lon="5.72389">
        <ele>243.19999694824</ele>
        <time>2023-05-31T10:28:45.000Z</time>
      </trkpt>
      <trkpt lat="45.76205" lon="5.72453">
        <ele>243.60000610352</ele>
        <time>2023-05-31T10:28:54.000Z</time>
      </trkpt>
      <trkpt lat="45.7621" lon="5.72462">
        <ele>243.80000305176</ele>
        <time>2023-05-31T10:28:56.000Z</time>
      </trkpt>
      <trkpt lat="45.76211" lon="5.72473">
        <ele>243.80000305176</ele>
        <time>2023-05-31T10:28:58.000Z</time>
      </trkpt>
      <trkpt lat="45.76211" lon="5.72522">
        <ele>244.39999389648</ele>
        <time>2023-05-31T10:29:05.000Z</time>
      </trkpt>
      <trkpt lat="45.76211" lon="5.7253">
        <ele>244.39999389648</ele>
        <time>2023-05-31T10:29:06.000Z</time>
      </trkpt>
      <trkpt lat="45.76209" lon="5.72585">
        <ele>244.39999389648</ele>
        <time>2023-05-31T10:29:13.000Z</time>
      </trkpt>
      <trkpt lat="45.76203" lon="5.72665">
        <ele>244.60000610352</ele>
        <time>2023-05-31T10:29:23.000Z</time>
      </trkpt>
      <trkpt lat="45.76201" lon="5.72673">
        <ele>244.60000610352</ele>
        <time>2023-05-31T10:29:24.000Z</time>
      </trkpt>
      <trkpt lat="45.76198" lon="5.72688">
        <ele>244.60000610352</ele>
        <time>2023-05-31T10:29:26.000Z</time>
      </trkpt>
      <trkpt lat="45.7619" lon="5.72709">
        <ele>244.60000610352</ele>
        <time>2023-05-31T10:29:29.000Z</time>
      </trkpt>
      <trkpt lat="45.76175" lon="5.72744">
        <ele>244.60000610352</ele>
        <time>2023-05-31T10:29:34.000Z</time>
      </trkpt>
      <trkpt lat="45.76169" lon="5.72767">
        <ele>244.60000610352</ele>
        <time>2023-05-31T10:29:37.000Z</time>
      </trkpt>
      <trkpt lat="45.76155" lon="5.72845">
        <ele>245</ele>
        <time>2023-05-31T10:29:47.000Z</time>
      </trkpt>
      <trkpt lat="45.76144" lon="5.72899">
        <ele>245.39999389648</ele>
        <time>2023-05-31T10:29:54.000Z</time>
      </trkpt>
      <trkpt lat="45.76139" lon="5.72914">
        <ele>245.39999389648</ele>
        <time>2023-05-31T10:29:56.000Z</time>
      </trkpt>
      <trkpt lat="45.76122" lon="5.72975">
        <ele>245.60000610352</ele>
        <time>2023-05-31T10:30:04.000Z</time>
      </trkpt>
      <trkpt lat="45.7611" lon="5.73032">
        <ele>245.80000305176</ele>
        <time>2023-05-31T10:30:11.000Z</time>
      </trkpt>
      <trkpt lat="45.7611" lon="5.73038">
        <ele>245.80000305176</ele>
        <time>2023-05-31T10:30:12.000Z</time>
      </trkpt>
      <trkpt lat="45.7611" lon="5.73096">
        <ele>245.60000610352</ele>
        <time>2023-05-31T10:30:19.000Z</time>
      </trkpt>
      <trkpt lat="45.761" lon="5.73142">
        <ele>245.60000610352</ele>
        <time>2023-05-31T10:30:25.000Z</time>
      </trkpt>
      <trkpt lat="45.76081" lon="5.73209">
        <ele>246</ele>
        <time>2023-05-31T10:30:34.000Z</time>
      </trkpt>
      <trkpt lat="45.76059" lon="5.73285">
        <ele>246.19999694824</ele>
        <time>2023-05-31T10:30:44.000Z</time>
      </trkpt>
      <trkpt lat="45.76057" lon="5.73291">
        <ele>246.19999694824</ele>
        <time>2023-05-31T10:30:45.000Z</time>
      </trkpt>
      <trkpt lat="45.7603" lon="5.73367">
        <ele>246</ele>
        <time>2023-05-31T10:30:55.000Z</time>
      </trkpt>
      <trkpt lat="45.76027" lon="5.73375">
        <ele>246</ele>
        <time>2023-05-31T10:30:56.000Z</time>
      </trkpt>
      <trkpt lat="45.75998" lon="5.73451">
        <ele>245.39999389648</ele>
        <time>2023-05-31T10:31:05.000Z</time>
      </trkpt>
      <trkpt lat="45.75986" lon="5.73497">
        <ele>244.39999389648</ele>
        <time>2023-05-31T10:31:10.000Z</time>
      </trkpt>
      <trkpt lat="45.75984" lon="5.73506">
        <ele>244.19999694824</ele>
        <time>2023-05-31T10:31:11.000Z</time>
      </trkpt>
      <trkpt lat="45.7597" lon="5.73583">
        <ele>243.19999694824</ele>
        <time>2023-05-31T10:31:19.000Z</time>
      </trkpt>
      <trkpt lat="45.75962" lon="5.73662">
        <ele>243</ele>
        <time>2023-05-31T10:31:28.000Z</time>
      </trkpt>
      <trkpt lat="45.75959" lon="5.73723">
        <ele>243.39999389648</ele>
        <time>2023-05-31T10:31:35.000Z</time>
      </trkpt>
      <trkpt lat="45.75962" lon="5.73781">
        <ele>243.60000610352</ele>
        <time>2023-05-31T10:31:42.000Z</time>
      </trkpt>
      <trkpt lat="45.75963" lon="5.73789">
        <ele>243.60000610352</ele>
        <time>2023-05-31T10:31:43.000Z</time>
      </trkpt>
      <trkpt lat="45.75967" lon="5.73819">
        <ele>244</ele>
        <time>2023-05-31T10:31:47.000Z</time>
      </trkpt>
      <trkpt lat="45.75968" lon="5.73826">
        <ele>244</ele>
        <time>2023-05-31T10:31:48.000Z</time>
      </trkpt>
      <trkpt lat="45.75972" lon="5.73854">
        <ele>245</ele>
        <time>2023-05-31T10:31:52.000Z</time>
      </trkpt>
      <trkpt lat="45.75974" lon="5.73867">
        <ele>245.60000610352</ele>
        <time>2023-05-31T10:31:54.000Z</time>
      </trkpt>
      <trkpt lat="45.75978" lon="5.73894">
        <ele>246.19999694824</ele>
        <time>2023-05-31T10:31:58.000Z</time>
      </trkpt>
      <trkpt lat="45.75984" lon="5.7393">
        <ele>247.19999694824</ele>
        <time>2023-05-31T10:32:03.000Z</time>
      </trkpt>
      <trkpt lat="45.75987" lon="5.73945">
        <ele>247.39999389648</ele>
        <time>2023-05-31T10:32:05.000Z</time>
      </trkpt>
      <trkpt lat="45.76" lon="5.73995">
        <ele>247.39999389648</ele>
        <time>2023-05-31T10:32:12.000Z</time>
      </trkpt>
      <trkpt lat="45.76022" lon="5.74053">
        <ele>247.39999389648</ele>
        <time>2023-05-31T10:32:20.000Z</time>
      </trkpt>
      <trkpt lat="45.76043" lon="5.74119">
        <ele>247.39999389648</ele>
        <time>2023-05-31T10:32:29.000Z</time>
      </trkpt>
      <trkpt lat="45.76045" lon="5.74127">
        <ele>247.39999389648</ele>
        <time>2023-05-31T10:32:30.000Z</time>
      </trkpt>
      <trkpt lat="45.76055" lon="5.7419">
        <ele>247.39999389648</ele>
        <time>2023-05-31T10:32:38.000Z</time>
      </trkpt>
      <trkpt lat="45.76065" lon="5.74246">
        <ele>247.39999389648</ele>
        <time>2023-05-31T10:32:45.000Z</time>
      </trkpt>
      <trkpt lat="45.76069" lon="5.74262">
        <ele>247.39999389648</ele>
        <time>2023-05-31T10:32:47.000Z</time>
      </trkpt>
      <trkpt lat="45.76077" lon="5.74284">
        <ele>247.39999389648</ele>
        <time>2023-05-31T10:32:51.000Z</time>
      </trkpt>
      <trkpt lat="45.76098" lon="5.74329">
        <ele>247.39999389648</ele>
        <time>2023-05-31T10:32:57.000Z</time>
      </trkpt>
      <trkpt lat="45.76102" lon="5.74335">
        <ele>247.39999389648</ele>
        <time>2023-05-31T10:32:58.000Z</time>
      </trkpt>
      <trkpt lat="45.7613" lon="5.74368">
        <ele>246.80000305176</ele>
        <time>2023-05-31T10:33:04.000Z</time>
      </trkpt>
      <trkpt lat="45.76167" lon="5.74409">
        <ele>247.19999694824</ele>
        <time>2023-05-31T10:33:12.000Z</time>
      </trkpt>
      <trkpt lat="45.76203" lon="5.74459">
        <ele>247.39999389648</ele>
        <time>2023-05-31T10:33:21.000Z</time>
      </trkpt>
      <trkpt lat="45.7623" lon="5.74487">
        <ele>247.80000305176</ele>
        <time>2023-05-31T10:33:27.000Z</time>
      </trkpt>
      <trkpt lat="45.76269" lon="5.74518">
        <ele>248.39999389648</ele>
        <time>2023-05-31T10:33:35.000Z</time>
      </trkpt>
      <trkpt lat="45.76274" lon="5.74522">
        <ele>248.39999389648</ele>
        <time>2023-05-31T10:33:36.000Z</time>
      </trkpt>
      <trkpt lat="45.76307" lon="5.74558">
        <ele>249.39999389648</ele>
        <time>2023-05-31T10:33:44.000Z</time>
      </trkpt>
      <trkpt lat="45.76338" lon="5.74599">
        <ele>250.60000610352</ele>
        <time>2023-05-31T10:33:52.000Z</time>
      </trkpt>
      <trkpt lat="45.76362" lon="5.74642">
        <ele>251.19999694824</ele>
        <time>2023-05-31T10:33:59.000Z</time>
      </trkpt>
      <trkpt lat="45.76365" lon="5.74648">
        <ele>251.19999694824</ele>
        <time>2023-05-31T10:34:00.000Z</time>
      </trkpt>
      <trkpt lat="45.76387" lon="5.74695">
        <ele>251.39999389648</ele>
        <time>2023-05-31T10:34:07.000Z</time>
      </trkpt>
      <trkpt lat="45.76404" lon="5.74738">
        <ele>251.80000305176</ele>
        <time>2023-05-31T10:34:13.000Z</time>
      </trkpt>
      <trkpt lat="45.76409" lon="5.74753">
        <ele>251.80000305176</ele>
        <time>2023-05-31T10:34:15.000Z</time>
      </trkpt>
      <trkpt lat="45.76422" lon="5.748">
        <ele>252</ele>
        <time>2023-05-31T10:34:21.000Z</time>
      </trkpt>
      <trkpt lat="45.76423" lon="5.74816">
        <ele>252</ele>
        <time>2023-05-31T10:34:23.000Z</time>
      </trkpt>
      <trkpt lat="45.76421" lon="5.74874">
        <ele>251.39999389648</ele>
        <time>2023-05-31T10:34:29.000Z</time>
      </trkpt>
      <trkpt lat="45.76421" lon="5.74896">
        <ele>250.60000610352</ele>
        <time>2023-05-31T10:34:31.000Z</time>
      </trkpt>
      <trkpt lat="45.76422" lon="5.74921">
        <ele>248.80000305176</ele>
        <time>2023-05-31T10:34:34.000Z</time>
      </trkpt>
      <trkpt lat="45.76415" lon="5.74935">
        <ele>247.60000610352</ele>
        <time>2023-05-31T10:34:36.000Z</time>
      </trkpt>
      <trkpt lat="45.76411" lon="5.74941">
        <ele>247.19999694824</ele>
        <time>2023-05-31T10:34:37.000Z</time>
      </trkpt>
      <trkpt lat="45.76408" lon="5.74948">
        <ele>246.19999694824</ele>
        <time>2023-05-31T10:34:38.000Z</time>
      </trkpt>
      <trkpt lat="45.76405" lon="5.74964">
        <ele>245.39999389648</ele>
        <time>2023-05-31T10:34:40.000Z</time>
      </trkpt>
      <trkpt lat="45.76406" lon="5.74972">
        <ele>244.80000305176</ele>
        <time>2023-05-31T10:34:41.000Z</time>
      </trkpt>
      <trkpt lat="45.76411" lon="5.74999">
        <ele>244</ele>
        <time>2023-05-31T10:34:44.000Z</time>
      </trkpt>
      <trkpt lat="45.76413" lon="5.75007">
        <ele>243.60000610352</ele>
        <time>2023-05-31T10:34:45.000Z</time>
      </trkpt>
      <trkpt lat="45.76423" lon="5.7506">
        <ele>243.19999694824</ele>
        <time>2023-05-31T10:34:51.000Z</time>
      </trkpt>
      <trkpt lat="45.76426" lon="5.75076">
        <ele>243</ele>
        <time>2023-05-31T10:34:53.000Z</time>
      </trkpt>
      <trkpt lat="45.76433" lon="5.75107">
        <ele>243</ele>
        <time>2023-05-31T10:34:57.000Z</time>
      </trkpt>
      <trkpt lat="45.76451" lon="5.75178">
        <ele>243.39999389648</ele>
        <time>2023-05-31T10:35:06.000Z</time>
      </trkpt>
      <trkpt lat="45.76467" lon="5.75242">
        <ele>243.19999694824</ele>
        <time>2023-05-31T10:35:14.000Z</time>
      </trkpt>
      <trkpt lat="45.76478" lon="5.75271">
        <ele>243.19999694824</ele>
        <time>2023-05-31T10:35:18.000Z</time>
      </trkpt>
      <trkpt lat="45.76481" lon="5.75288">
        <ele>243.19999694824</ele>
        <time>2023-05-31T10:35:20.000Z</time>
      </trkpt>
      <trkpt lat="45.76486" lon="5.75329">
        <ele>243</ele>
        <time>2023-05-31T10:35:25.000Z</time>
      </trkpt>
      <trkpt lat="45.76488" lon="5.75337">
        <ele>243</ele>
        <time>2023-05-31T10:35:26.000Z</time>
      </trkpt>
      <trkpt lat="45.7649" lon="5.75344">
        <ele>243</ele>
        <time>2023-05-31T10:35:27.000Z</time>
      </trkpt>
      <trkpt lat="45.76497" lon="5.75357">
        <ele>243</ele>
        <time>2023-05-31T10:35:29.000Z</time>
      </trkpt>
      <trkpt lat="45.76501" lon="5.75363">
        <ele>242.80000305176</ele>
        <time>2023-05-31T10:35:30.000Z</time>
      </trkpt>
      <trkpt lat="45.76532" lon="5.754">
        <ele>243</ele>
        <time>2023-05-31T10:35:37.000Z</time>
      </trkpt>
      <trkpt lat="45.76536" lon="5.75415">
        <ele>243</ele>
        <time>2023-05-31T10:35:39.000Z</time>
      </trkpt>
      <trkpt lat="45.76536" lon="5.75423">
        <ele>243</ele>
        <time>2023-05-31T10:35:40.000Z</time>
      </trkpt>
      <trkpt lat="45.76535" lon="5.7543">
        <ele>243</ele>
        <time>2023-05-31T10:35:41.000Z</time>
      </trkpt>
      <trkpt lat="45.76534" lon="5.75446">
        <ele>243</ele>
        <time>2023-05-31T10:35:43.000Z</time>
      </trkpt>
      <trkpt lat="45.76535" lon="5.75453">
        <ele>243.19999694824</ele>
        <time>2023-05-31T10:35:44.000Z</time>
      </trkpt>
      <trkpt lat="45.76538" lon="5.75459">
        <ele>243.19999694824</ele>
        <time>2023-05-31T10:35:45.000Z</time>
      </trkpt>
      <trkpt lat="45.76549" lon="5.75474">
        <ele>243.19999694824</ele>
        <time>2023-05-31T10:35:48.000Z</time>
      </trkpt>
      <trkpt lat="45.76558" lon="5.75475">
        <ele>243.39999389648</ele>
        <time>2023-05-31T10:35:50.000Z</time>
      </trkpt>
      <trkpt lat="45.76563" lon="5.75473">
        <ele>243.39999389648</ele>
        <time>2023-05-31T10:35:51.000Z</time>
      </trkpt>
      <trkpt lat="45.76597" lon="5.75454">
        <ele>243.60000610352</ele>
        <time>2023-05-31T10:35:57.000Z</time>
      </trkpt>
      <trkpt lat="45.76618" lon="5.75444">
        <ele>243.39999389648</ele>
        <time>2023-05-31T10:36:01.000Z</time>
      </trkpt>
      <trkpt lat="45.76622" lon="5.75443">
        <ele>243.39999389648</ele>
        <time>2023-05-31T10:36:02.000Z</time>
      </trkpt>
      <trkpt lat="45.76637" lon="5.75443">
        <ele>243.60000610352</ele>
        <time>2023-05-31T10:36:06.000Z</time>
      </trkpt>
      <trkpt lat="45.76646" lon="5.75445">
        <ele>244.39999389648</ele>
        <time>2023-05-31T10:36:09.000Z</time>
      </trkpt>
      <trkpt lat="45.76655" lon="5.75443">
        <ele>245.19999694824</ele>
        <time>2023-05-31T10:36:12.000Z</time>
      </trkpt>
      <trkpt lat="45.76657" lon="5.75441">
        <ele>245.39999389648</ele>
        <time>2023-05-31T10:36:13.000Z</time>
      </trkpt>
      <trkpt lat="45.76654" lon="5.75438">
        <ele>246.39999389648</ele>
        <time>2023-05-31T10:36:15.000Z</time>
      </trkpt>
      <trkpt lat="45.76651" lon="5.75437">
        <ele>246.39999389648</ele>
        <time>2023-05-31T10:36:16.000Z</time>
      </trkpt>
      <trkpt lat="45.7664" lon="5.75431">
        <ele>247</ele>
        <time>2023-05-31T10:36:20.000Z</time>
      </trkpt>
      <trkpt lat="45.76631" lon="5.75427">
        <ele>247.60000610352</ele>
        <time>2023-05-31T10:36:23.000Z</time>
      </trkpt>
      <trkpt lat="45.76623" lon="5.75423">
        <ele>248.19999694824</ele>
        <time>2023-05-31T10:36:26.000Z</time>
      </trkpt>
      <trkpt lat="45.76617" lon="5.7542">
        <ele>248.60000610352</ele>
        <time>2023-05-31T10:36:28.000Z</time>
      </trkpt>
      <trkpt lat="45.76605" lon="5.75415">
        <ele>249.60000610352</ele>
        <time>2023-05-31T10:36:32.000Z</time>
      </trkpt>
      <trkpt lat="45.76602" lon="5.75414">
        <ele>250</ele>
        <time>2023-05-31T10:36:33.000Z</time>
      </trkpt>
      <trkpt lat="45.76593" lon="5.7541">
        <ele>251</ele>
        <time>2023-05-31T10:36:36.000Z</time>
      </trkpt>
      <trkpt lat="45.76577" lon="5.75406">
        <ele>251.80000305176</ele>
        <time>2023-05-31T10:36:41.000Z</time>
      </trkpt>
      <trkpt lat="45.76574" lon="5.75407">
        <ele>252</ele>
        <time>2023-05-31T10:36:42.000Z</time>
      </trkpt>
      <trkpt lat="45.76569" lon="5.75408">
        <ele>252.39999389648</ele>
        <time>2023-05-31T10:36:44.000Z</time>
      </trkpt>
      <trkpt lat="45.76567" lon="5.75406">
        <ele>252.60000610352</ele>
        <time>2023-05-31T10:36:45.000Z</time>
      </trkpt>
      <trkpt lat="45.7656" lon="5.75404">
        <ele>252.80000305176</ele>
        <time>2023-05-31T10:36:48.000Z</time>
      </trkpt>
      <trkpt lat="45.76558" lon="5.75406">
        <ele>253.19999694824</ele>
        <time>2023-05-31T10:36:49.000Z</time>
      </trkpt>
      <trkpt lat="45.76553" lon="5.75426">
        <ele>253.60000610352</ele>
        <time>2023-05-31T10:36:53.000Z</time>
      </trkpt>
      <trkpt lat="45.76541" lon="5.75462">
        <ele>254</ele>
        <time>2023-05-31T10:37:00.000Z</time>
      </trkpt>
      <trkpt lat="45.76535" lon="5.75479">
        <ele>254.19999694824</ele>
        <time>2023-05-31T10:37:03.000Z</time>
      </trkpt>
      <trkpt lat="45.76522" lon="5.7552">
        <ele>255</ele>
        <time>2023-05-31T10:37:10.000Z</time>
      </trkpt>
      <trkpt lat="45.76515" lon="5.75539">
        <ele>255.39999389648</ele>
        <time>2023-05-31T10:37:13.000Z</time>
      </trkpt>
      <trkpt lat="45.76503" lon="5.75576">
        <ele>256</ele>
        <time>2023-05-31T10:37:19.000Z</time>
      </trkpt>
      <trkpt lat="45.76501" lon="5.75582">
        <ele>256</ele>
        <time>2023-05-31T10:37:20.000Z</time>
      </trkpt>
      <trkpt lat="45.76497" lon="5.7561">
        <ele>256.39999389648</ele>
        <time>2023-05-31T10:37:24.000Z</time>
      </trkpt>
      <trkpt lat="45.76497" lon="5.75617">
        <ele>256.60000610352</ele>
        <time>2023-05-31T10:37:25.000Z</time>
      </trkpt>
      <trkpt lat="45.76498" lon="5.75645">
        <ele>257</ele>
        <time>2023-05-31T10:37:29.000Z</time>
      </trkpt>
      <trkpt lat="45.76494" lon="5.75656">
        <ele>257.39999389648</ele>
        <time>2023-05-31T10:37:31.000Z</time>
      </trkpt>
      <trkpt lat="45.76492" lon="5.75662">
        <ele>257.39999389648</ele>
        <time>2023-05-31T10:37:32.000Z</time>
      </trkpt>
      <trkpt lat="45.76491" lon="5.75667">
        <ele>257.60000610352</ele>
        <time>2023-05-31T10:37:33.000Z</time>
      </trkpt>
      <trkpt lat="45.76493" lon="5.75672">
        <ele>257.60000610352</ele>
        <time>2023-05-31T10:37:34.000Z</time>
      </trkpt>
      <trkpt lat="45.76507" lon="5.75696">
        <ele>258</ele>
        <time>2023-05-31T10:37:39.000Z</time>
      </trkpt>
      <trkpt lat="45.76515" lon="5.75702">
        <ele>258</ele>
        <time>2023-05-31T10:37:41.000Z</time>
      </trkpt>
      <trkpt lat="45.76523" lon="5.75706">
        <ele>258</ele>
        <time>2023-05-31T10:37:43.000Z</time>
      </trkpt>
      <trkpt lat="45.76552" lon="5.75719">
        <ele>257.79998779297</ele>
        <time>2023-05-31T10:37:49.000Z</time>
      </trkpt>
      <trkpt lat="45.76557" lon="5.75721">
        <ele>257.60000610352</ele>
        <time>2023-05-31T10:37:50.000Z</time>
      </trkpt>
      <trkpt lat="45.76575" lon="5.75726">
        <ele>257.20001220703</ele>
        <time>2023-05-31T10:37:53.000Z</time>
      </trkpt>
      <trkpt lat="45.76588" lon="5.75729">
        <ele>256.79998779297</ele>
        <time>2023-05-31T10:37:55.000Z</time>
      </trkpt>
      <trkpt lat="45.76604" lon="5.75732">
        <ele>256</ele>
        <time>2023-05-31T10:37:57.000Z</time>
      </trkpt>
      <trkpt lat="45.76612" lon="5.75735">
        <ele>255.80000305176</ele>
        <time>2023-05-31T10:37:58.000Z</time>
      </trkpt>
      <trkpt lat="45.76628" lon="5.75747">
        <ele>254.39999389648</ele>
        <time>2023-05-31T10:38:00.000Z</time>
      </trkpt>
      <trkpt lat="45.76641" lon="5.75759">
        <ele>253.60000610352</ele>
        <time>2023-05-31T10:38:02.000Z</time>
      </trkpt>
      <trkpt lat="45.76646" lon="5.75763">
        <ele>253.19999694824</ele>
        <time>2023-05-31T10:38:03.000Z</time>
      </trkpt>
      <trkpt lat="45.76651" lon="5.75767">
        <ele>252.60000610352</ele>
        <time>2023-05-31T10:38:04.000Z</time>
      </trkpt>
      <trkpt lat="45.76665" lon="5.75796">
        <ele>250.80000305176</ele>
        <time>2023-05-31T10:38:08.000Z</time>
      </trkpt>
      <trkpt lat="45.76676" lon="5.75833">
        <ele>249.19999694824</ele>
        <time>2023-05-31T10:38:11.000Z</time>
      </trkpt>
      <trkpt lat="45.76679" lon="5.75845">
        <ele>248.39999389648</ele>
        <time>2023-05-31T10:38:12.000Z</time>
      </trkpt>
      <trkpt lat="45.76679" lon="5.75858">
        <ele>248.19999694824</ele>
        <time>2023-05-31T10:38:13.000Z</time>
      </trkpt>
      <trkpt lat="45.76677" lon="5.75876">
        <ele>247.19999694824</ele>
        <time>2023-05-31T10:38:15.000Z</time>
      </trkpt>
      <trkpt lat="45.76674" lon="5.75887">
        <ele>246.60000610352</ele>
        <time>2023-05-31T10:38:16.000Z</time>
      </trkpt>
      <trkpt lat="45.76662" lon="5.75917">
        <ele>245.80000305176</ele>
        <time>2023-05-31T10:38:19.000Z</time>
      </trkpt>
      <trkpt lat="45.76654" lon="5.75934">
        <ele>245.60000610352</ele>
        <time>2023-05-31T10:38:21.000Z</time>
      </trkpt>
      <trkpt lat="45.76635" lon="5.75972">
        <ele>244.39999389648</ele>
        <time>2023-05-31T10:38:25.000Z</time>
      </trkpt>
      <trkpt lat="45.76617" lon="5.76012">
        <ele>243.60000610352</ele>
        <time>2023-05-31T10:38:29.000Z</time>
      </trkpt>
      <trkpt lat="45.7661" lon="5.76027">
        <ele>243.39999389648</ele>
        <time>2023-05-31T10:38:31.000Z</time>
      </trkpt>
      <trkpt lat="45.76593" lon="5.76059">
        <ele>243.19999694824</ele>
        <time>2023-05-31T10:38:35.000Z</time>
      </trkpt>
      <trkpt lat="45.76577" lon="5.7609">
        <ele>244.19999694824</ele>
        <time>2023-05-31T10:38:40.000Z</time>
      </trkpt>
      <trkpt lat="45.76572" lon="5.76098">
        <ele>244.60000610352</ele>
        <time>2023-05-31T10:38:42.000Z</time>
      </trkpt>
      <trkpt lat="45.76567" lon="5.76107">
        <ele>245.39999389648</ele>
        <time>2023-05-31T10:38:44.000Z</time>
      </trkpt>
      <trkpt lat="45.76563" lon="5.76116">
        <ele>245.80000305176</ele>
        <time>2023-05-31T10:38:46.000Z</time>
      </trkpt>
      <trkpt lat="45.76561" lon="5.76123">
        <ele>246.39999389648</ele>
        <time>2023-05-31T10:38:48.000Z</time>
      </trkpt>
      <trkpt lat="45.76557" lon="5.76129">
        <ele>246.80000305176</ele>
        <time>2023-05-31T10:38:50.000Z</time>
      </trkpt>
      <trkpt lat="45.76554" lon="5.76132">
        <ele>247</ele>
        <time>2023-05-31T10:38:51.000Z</time>
      </trkpt>
      <trkpt lat="45.76542" lon="5.76146">
        <ele>248</ele>
        <time>2023-05-31T10:38:56.000Z</time>
      </trkpt>
      <trkpt lat="45.76539" lon="5.76149">
        <ele>248.19999694824</ele>
        <time>2023-05-31T10:38:57.000Z</time>
      </trkpt>
      <trkpt lat="45.76524" lon="5.76165">
        <ele>249.19999694824</ele>
        <time>2023-05-31T10:39:03.000Z</time>
      </trkpt>
      <trkpt lat="45.7652" lon="5.7617">
        <ele>249.80000305176</ele>
        <time>2023-05-31T10:39:05.000Z</time>
      </trkpt>
      <trkpt lat="45.76512" lon="5.76177">
        <ele>250.60000610352</ele>
        <time>2023-05-31T10:39:08.000Z</time>
      </trkpt>
      <trkpt lat="45.765" lon="5.76191">
        <ele>251.60000610352</ele>
        <time>2023-05-31T10:39:13.000Z</time>
      </trkpt>
      <trkpt lat="45.76487" lon="5.76206">
        <ele>252.80000305176</ele>
        <time>2023-05-31T10:39:18.000Z</time>
      </trkpt>
      <trkpt lat="45.76477" lon="5.76218">
        <ele>253.60000610352</ele>
        <time>2023-05-31T10:39:22.000Z</time>
      </trkpt>
      <trkpt lat="45.76472" lon="5.76223">
        <ele>253.80000305176</ele>
        <time>2023-05-31T10:39:24.000Z</time>
      </trkpt>
      <trkpt lat="45.76461" lon="5.76231">
        <ele>255.19999694824</ele>
        <time>2023-05-31T10:39:28.000Z</time>
      </trkpt>
      <trkpt lat="45.76458" lon="5.76234">
        <ele>255.39999389648</ele>
        <time>2023-05-31T10:39:29.000Z</time>
      </trkpt>
      <trkpt lat="45.76447" lon="5.76247">
        <ele>256.20001220703</ele>
        <time>2023-05-31T10:39:33.000Z</time>
      </trkpt>
      <trkpt lat="45.76433" lon="5.7626">
        <ele>257</ele>
        <time>2023-05-31T10:39:37.000Z</time>
      </trkpt>
      <trkpt lat="45.7641" lon="5.76284">
        <ele>257.39999389648</ele>
        <time>2023-05-31T10:39:43.000Z</time>
      </trkpt>
      <trkpt lat="45.76374" lon="5.76313">
        <ele>257.60000610352</ele>
        <time>2023-05-31T10:39:51.000Z</time>
      </trkpt>
      <trkpt lat="45.76325" lon="5.76357">
        <ele>258</ele>
        <time>2023-05-31T10:40:02.000Z</time>
      </trkpt>
      <trkpt lat="45.76291" lon="5.76384">
        <ele>258.20001220703</ele>
        <time>2023-05-31T10:40:09.000Z</time>
      </trkpt>
      <trkpt lat="45.76254" lon="5.76405">
        <ele>258.20001220703</ele>
        <time>2023-05-31T10:40:16.000Z</time>
      </trkpt>
      <trkpt lat="45.76242" lon="5.7641">
        <ele>258.20001220703</ele>
        <time>2023-05-31T10:40:18.000Z</time>
      </trkpt>
      <trkpt lat="45.76186" lon="5.76433">
        <ele>257.60000610352</ele>
        <time>2023-05-31T10:40:27.000Z</time>
      </trkpt>
      <trkpt lat="45.7618" lon="5.76435">
        <ele>257.39999389648</ele>
        <time>2023-05-31T10:40:28.000Z</time>
      </trkpt>
      <trkpt lat="45.76132" lon="5.76456">
        <ele>257</ele>
        <time>2023-05-31T10:40:36.000Z</time>
      </trkpt>
      <trkpt lat="45.76078" lon="5.76474">
        <ele>256.60000610352</ele>
        <time>2023-05-31T10:40:45.000Z</time>
      </trkpt>
      <trkpt lat="45.76054" lon="5.7648">
        <ele>256.60000610352</ele>
        <time>2023-05-31T10:40:49.000Z</time>
      </trkpt>
      <trkpt lat="45.76017" lon="5.76488">
        <ele>256.39999389648</ele>
        <time>2023-05-31T10:40:55.000Z</time>
      </trkpt>
      <trkpt lat="45.75998" lon="5.76491">
        <ele>256</ele>
        <time>2023-05-31T10:40:58.000Z</time>
      </trkpt>
      <trkpt lat="45.75977" lon="5.76492">
        <ele>255.39999389648</ele>
        <time>2023-05-31T10:41:01.000Z</time>
      </trkpt>
      <trkpt lat="45.7597" lon="5.76492">
        <ele>255.19999694824</ele>
        <time>2023-05-31T10:41:02.000Z</time>
      </trkpt>
      <trkpt lat="45.75934" lon="5.76491">
        <ele>254.60000610352</ele>
        <time>2023-05-31T10:41:07.000Z</time>
      </trkpt>
      <trkpt lat="45.7592" lon="5.76489">
        <ele>254.19999694824</ele>
        <time>2023-05-31T10:41:09.000Z</time>
      </trkpt>
      <trkpt lat="45.7588" lon="5.7649">
        <ele>254</ele>
        <time>2023-05-31T10:41:15.000Z</time>
      </trkpt>
      <trkpt lat="45.75842" lon="5.76497">
        <ele>254.60000610352</ele>
        <time>2023-05-31T10:41:22.000Z</time>
      </trkpt>
      <trkpt lat="45.75827" lon="5.765">
        <ele>255.19999694824</ele>
        <time>2023-05-31T10:41:25.000Z</time>
      </trkpt>
      <trkpt lat="45.75807" lon="5.76505">
        <ele>256.39999389648</ele>
        <time>2023-05-31T10:41:29.000Z</time>
      </trkpt>
      <trkpt lat="45.75802" lon="5.76506">
        <ele>256.79998779297</ele>
        <time>2023-05-31T10:41:30.000Z</time>
      </trkpt>
      <trkpt lat="45.75796" lon="5.76506">
        <ele>256.79998779297</ele>
        <time>2023-05-31T10:41:31.000Z</time>
      </trkpt>
      <trkpt lat="45.75769" lon="5.76503">
        <ele>257.60000610352</ele>
        <time>2023-05-31T10:41:36.000Z</time>
      </trkpt>
      <trkpt lat="45.75761" lon="5.76501">
        <ele>258</ele>
        <time>2023-05-31T10:41:38.000Z</time>
      </trkpt>
      <trkpt lat="45.75756" lon="5.76499">
        <ele>258.20001220703</ele>
        <time>2023-05-31T10:41:39.000Z</time>
      </trkpt>
      <trkpt lat="45.75748" lon="5.76494">
        <ele>258.79998779297</ele>
        <time>2023-05-31T10:41:41.000Z</time>
      </trkpt>
      <trkpt lat="45.7574" lon="5.7649">
        <ele>259.20001220703</ele>
        <time>2023-05-31T10:41:43.000Z</time>
      </trkpt>
      <trkpt lat="45.75731" lon="5.76483">
        <ele>260</ele>
        <time>2023-05-31T10:41:46.000Z</time>
      </trkpt>
      <trkpt lat="45.75719" lon="5.76473">
        <ele>260.79998779297</ele>
        <time>2023-05-31T10:41:50.000Z</time>
      </trkpt>
      <trkpt lat="45.75716" lon="5.7647">
        <ele>261</ele>
        <time>2023-05-31T10:41:51.000Z</time>
      </trkpt>
      <trkpt lat="45.75701" lon="5.76459">
        <ele>262.20001220703</ele>
        <time>2023-05-31T10:41:56.000Z</time>
      </trkpt>
      <trkpt lat="45.75698" lon="5.76456">
        <ele>262.39999389648</ele>
        <time>2023-05-31T10:41:57.000Z</time>
      </trkpt>
      <trkpt lat="45.75683" lon="5.76444">
        <ele>263.20001220703</ele>
        <time>2023-05-31T10:42:02.000Z</time>
      </trkpt>
      <trkpt lat="45.75667" lon="5.76432">
        <ele>264</ele>
        <time>2023-05-31T10:42:07.000Z</time>
      </trkpt>
      <trkpt lat="45.75664" lon="5.76431">
        <ele>264.20001220703</ele>
        <time>2023-05-31T10:42:08.000Z</time>
      </trkpt>
      <trkpt lat="45.75652" lon="5.76423">
        <ele>265.39999389648</ele>
        <time>2023-05-31T10:42:12.000Z</time>
      </trkpt>
      <trkpt lat="45.75638" lon="5.76412">
        <ele>266.60000610352</ele>
        <time>2023-05-31T10:42:17.000Z</time>
      </trkpt>
      <trkpt lat="45.75627" lon="5.76406">
        <ele>267.79998779297</ele>
        <time>2023-05-31T10:42:21.000Z</time>
      </trkpt>
      <trkpt lat="45.75617" lon="5.764">
        <ele>268.39999389648</ele>
        <time>2023-05-31T10:42:24.000Z</time>
      </trkpt>
      <trkpt lat="45.75614" lon="5.76399">
        <ele>269.20001220703</ele>
        <time>2023-05-31T10:42:25.000Z</time>
      </trkpt>
      <trkpt lat="45.75601" lon="5.76396">
        <ele>270.20001220703</ele>
        <time>2023-05-31T10:42:29.000Z</time>
      </trkpt>
      <trkpt lat="45.75591" lon="5.76393">
        <ele>271</ele>
        <time>2023-05-31T10:42:32.000Z</time>
      </trkpt>
      <trkpt lat="45.75588" lon="5.76392">
        <ele>271.20001220703</ele>
        <time>2023-05-31T10:42:33.000Z</time>
      </trkpt>
      <trkpt lat="45.75564" lon="5.76389">
        <ele>272.39999389648</ele>
        <time>2023-05-31T10:42:40.000Z</time>
      </trkpt>
      <trkpt lat="45.75557" lon="5.76388">
        <ele>272.79998779297</ele>
        <time>2023-05-31T10:42:42.000Z</time>
      </trkpt>
      <trkpt lat="45.7554" lon="5.76387">
        <ele>273.39999389648</ele>
        <time>2023-05-31T10:42:47.000Z</time>
      </trkpt>
      <trkpt lat="45.75533" lon="5.76385">
        <ele>273.79998779297</ele>
        <time>2023-05-31T10:42:49.000Z</time>
      </trkpt>
      <trkpt lat="45.75531" lon="5.76385">
        <ele>273.79998779297</ele>
        <time>2023-05-31T10:42:50.000Z</time>
      </trkpt>
      <trkpt lat="45.7552" lon="5.76383">
        <ele>274.39999389648</ele>
        <time>2023-05-31T10:42:53.000Z</time>
      </trkpt>
      <trkpt lat="45.7551" lon="5.76378">
        <ele>275.20001220703</ele>
        <time>2023-05-31T10:42:56.000Z</time>
      </trkpt>
      <trkpt lat="45.75505" lon="5.76374">
        <ele>275.60000610352</ele>
        <time>2023-05-31T10:42:58.000Z</time>
      </trkpt>
      <trkpt lat="45.75494" lon="5.76363">
        <ele>276.79998779297</ele>
        <time>2023-05-31T10:43:02.000Z</time>
      </trkpt>
      <trkpt lat="45.75491" lon="5.76359">
        <ele>277</ele>
        <time>2023-05-31T10:43:03.000Z</time>
      </trkpt>
      <trkpt lat="45.7548" lon="5.76345">
        <ele>277.79998779297</ele>
        <time>2023-05-31T10:43:07.000Z</time>
      </trkpt>
      <trkpt lat="45.75474" lon="5.76339">
        <ele>278.20001220703</ele>
        <time>2023-05-31T10:43:09.000Z</time>
      </trkpt>
      <trkpt lat="45.75466" lon="5.7633">
        <ele>278.79998779297</ele>
        <time>2023-05-31T10:43:12.000Z</time>
      </trkpt>
      <trkpt lat="45.75463" lon="5.76327">
        <ele>279</ele>
        <time>2023-05-31T10:43:13.000Z</time>
      </trkpt>
      <trkpt lat="45.75447" lon="5.76314">
        <ele>280</ele>
        <time>2023-05-31T10:43:18.000Z</time>
      </trkpt>
      <trkpt lat="45.7544" lon="5.76313">
        <ele>280.39999389648</ele>
        <time>2023-05-31T10:43:20.000Z</time>
      </trkpt>
      <trkpt lat="45.75426" lon="5.7631">
        <ele>281.20001220703</ele>
        <time>2023-05-31T10:43:24.000Z</time>
      </trkpt>
      <trkpt lat="45.7542" lon="5.76307">
        <ele>281.79998779297</ele>
        <time>2023-05-31T10:43:26.000Z</time>
      </trkpt>
      <trkpt lat="45.75417" lon="5.76306">
        <ele>281.79998779297</ele>
        <time>2023-05-31T10:43:27.000Z</time>
      </trkpt>
      <trkpt lat="45.75412" lon="5.76304">
        <ele>282.20001220703</ele>
        <time>2023-05-31T10:43:29.000Z</time>
      </trkpt>
      <trkpt lat="45.75407" lon="5.76306">
        <ele>282.60000610352</ele>
        <time>2023-05-31T10:43:31.000Z</time>
      </trkpt>
      <trkpt lat="45.75405" lon="5.76308">
        <ele>283</ele>
        <time>2023-05-31T10:43:32.000Z</time>
      </trkpt>
      <trkpt lat="45.75404" lon="5.76312">
        <ele>283.20001220703</ele>
        <time>2023-05-31T10:43:33.000Z</time>
      </trkpt>
      <trkpt lat="45.75404" lon="5.76326">
        <ele>283.60000610352</ele>
        <time>2023-05-31T10:43:36.000Z</time>
      </trkpt>
      <trkpt lat="45.75405" lon="5.76347">
        <ele>284.39999389648</ele>
        <time>2023-05-31T10:43:41.000Z</time>
      </trkpt>
      <trkpt lat="45.75406" lon="5.76356">
        <ele>284.79998779297</ele>
        <time>2023-05-31T10:43:43.000Z</time>
      </trkpt>
      <trkpt lat="45.75407" lon="5.76364">
        <ele>285.39999389648</ele>
        <time>2023-05-31T10:43:45.000Z</time>
      </trkpt>
      <trkpt lat="45.75408" lon="5.76368">
        <ele>285.60000610352</ele>
        <time>2023-05-31T10:43:46.000Z</time>
      </trkpt>
      <trkpt lat="45.75413" lon="5.76388">
        <ele>286.79998779297</ele>
        <time>2023-05-31T10:43:51.000Z</time>
      </trkpt>
      <trkpt lat="45.75415" lon="5.76401">
        <ele>287.39999389648</ele>
        <time>2023-05-31T10:43:54.000Z</time>
      </trkpt>
      <trkpt lat="45.75417" lon="5.7641">
        <ele>288.39999389648</ele>
        <time>2023-05-31T10:43:56.000Z</time>
      </trkpt>
      <trkpt lat="45.75419" lon="5.76427">
        <ele>289.39999389648</ele>
        <time>2023-05-31T10:44:00.000Z</time>
      </trkpt>
      <trkpt lat="45.75421" lon="5.76438">
        <ele>290.20001220703</ele>
        <time>2023-05-31T10:44:03.000Z</time>
      </trkpt>
      <trkpt lat="45.75421" lon="5.76442">
        <ele>290.60000610352</ele>
        <time>2023-05-31T10:44:04.000Z</time>
      </trkpt>
      <trkpt lat="45.75423" lon="5.76454">
        <ele>291</ele>
        <time>2023-05-31T10:44:07.000Z</time>
      </trkpt>
      <trkpt lat="45.75425" lon="5.76466">
        <ele>291.60000610352</ele>
        <time>2023-05-31T10:44:10.000Z</time>
      </trkpt>
      <trkpt lat="45.75425" lon="5.7647">
        <ele>292</ele>
        <time>2023-05-31T10:44:11.000Z</time>
      </trkpt>
      <trkpt lat="45.75426" lon="5.76486">
        <ele>292.79998779297</ele>
        <time>2023-05-31T10:44:15.000Z</time>
      </trkpt>
      <trkpt lat="45.75426" lon="5.76491">
        <ele>293</ele>
        <time>2023-05-31T10:44:17.000Z</time>
      </trkpt>
      <trkpt lat="45.75428" lon="5.76505">
        <ele>294</ele>
        <time>2023-05-31T10:44:21.000Z</time>
      </trkpt>
      <trkpt lat="45.75428" lon="5.76509">
        <ele>294</ele>
        <time>2023-05-31T10:44:22.000Z</time>
      </trkpt>
      <trkpt lat="45.75428" lon="5.76521">
        <ele>295.20001220703</ele>
        <time>2023-05-31T10:44:25.000Z</time>
      </trkpt>
      <trkpt lat="45.75426" lon="5.76544">
        <ele>295.79998779297</ele>
        <time>2023-05-31T10:44:31.000Z</time>
      </trkpt>
      <trkpt lat="45.75426" lon="5.76548">
        <ele>296.20001220703</ele>
        <time>2023-05-31T10:44:32.000Z</time>
      </trkpt>
      <trkpt lat="45.75424" lon="5.76565">
        <ele>297.39999389648</ele>
        <time>2023-05-31T10:44:36.000Z</time>
      </trkpt>
      <trkpt lat="45.75423" lon="5.76574">
        <ele>298</ele>
        <time>2023-05-31T10:44:38.000Z</time>
      </trkpt>
      <trkpt lat="45.75423" lon="5.76582">
        <ele>298.60000610352</ele>
        <time>2023-05-31T10:44:40.000Z</time>
      </trkpt>
      <trkpt lat="45.75423" lon="5.76604">
        <ele>299.60000610352</ele>
        <time>2023-05-31T10:44:45.000Z</time>
      </trkpt>
      <trkpt lat="45.75424" lon="5.76613">
        <ele>300.39999389648</ele>
        <time>2023-05-31T10:44:47.000Z</time>
      </trkpt>
      <trkpt lat="45.75426" lon="5.76621">
        <ele>300.60000610352</ele>
        <time>2023-05-31T10:44:49.000Z</time>
      </trkpt>
      <trkpt lat="45.7543" lon="5.76637">
        <ele>301.60000610352</ele>
        <time>2023-05-31T10:44:53.000Z</time>
      </trkpt>
      <trkpt lat="45.75433" lon="5.76644">
        <ele>301.79998779297</ele>
        <time>2023-05-31T10:44:55.000Z</time>
      </trkpt>
      <trkpt lat="45.75434" lon="5.76648">
        <ele>301.79998779297</ele>
        <time>2023-05-31T10:44:56.000Z</time>
      </trkpt>
      <trkpt lat="45.75437" lon="5.76657">
        <ele>302.20001220703</ele>
        <time>2023-05-31T10:44:58.000Z</time>
      </trkpt>
      <trkpt lat="45.75442" lon="5.76686">
        <ele>303</ele>
        <time>2023-05-31T10:45:04.000Z</time>
      </trkpt>
      <trkpt lat="45.75443" lon="5.76692">
        <ele>303.20001220703</ele>
        <time>2023-05-31T10:45:05.000Z</time>
      </trkpt>
      <trkpt lat="45.75447" lon="5.76721">
        <ele>303.20001220703</ele>
        <time>2023-05-31T10:45:10.000Z</time>
      </trkpt>
      <trkpt lat="45.75448" lon="5.76728">
        <ele>303.20001220703</ele>
        <time>2023-05-31T10:45:11.000Z</time>
      </trkpt>
      <trkpt lat="45.75455" lon="5.76778">
        <ele>302.79998779297</ele>
        <time>2023-05-31T10:45:17.000Z</time>
      </trkpt>
      <trkpt lat="45.75461" lon="5.76805">
        <ele>301.79998779297</ele>
        <time>2023-05-31T10:45:20.000Z</time>
      </trkpt>
      <trkpt lat="45.75462" lon="5.76814">
        <ele>301.39999389648</ele>
        <time>2023-05-31T10:45:21.000Z</time>
      </trkpt>
      <trkpt lat="45.75461" lon="5.76825">
        <ele>301.20001220703</ele>
        <time>2023-05-31T10:45:22.000Z</time>
      </trkpt>
      <trkpt lat="45.75457" lon="5.76859">
        <ele>300.60000610352</ele>
        <time>2023-05-31T10:45:25.000Z</time>
      </trkpt>
      <trkpt lat="45.75455" lon="5.76884">
        <ele>299.79998779297</ele>
        <time>2023-05-31T10:45:27.000Z</time>
      </trkpt>
      <trkpt lat="45.75455" lon="5.76897">
        <ele>299.60000610352</ele>
        <time>2023-05-31T10:45:28.000Z</time>
      </trkpt>
      <trkpt lat="45.75455" lon="5.7691">
        <ele>299</ele>
        <time>2023-05-31T10:45:29.000Z</time>
      </trkpt>
      <trkpt lat="45.75456" lon="5.76948">
        <ele>297.60000610352</ele>
        <time>2023-05-31T10:45:32.000Z</time>
      </trkpt>
      <trkpt lat="45.75455" lon="5.76981">
        <ele>296.39999389648</ele>
        <time>2023-05-31T10:45:35.000Z</time>
      </trkpt>
      <trkpt lat="45.75456" lon="5.77001">
        <ele>295.39999389648</ele>
        <time>2023-05-31T10:45:37.000Z</time>
      </trkpt>
      <trkpt lat="45.75455" lon="5.77033">
        <ele>294.60000610352</ele>
        <time>2023-05-31T10:45:40.000Z</time>
      </trkpt>
      <trkpt lat="45.75456" lon="5.77047">
        <ele>294.20001220703</ele>
        <time>2023-05-31T10:45:41.000Z</time>
      </trkpt>
      <trkpt lat="45.75456" lon="5.77058">
        <ele>294</ele>
        <time>2023-05-31T10:45:42.000Z</time>
      </trkpt>
      <trkpt lat="45.75457" lon="5.77071">
        <ele>293.20001220703</ele>
        <time>2023-05-31T10:45:43.000Z</time>
      </trkpt>
      <trkpt lat="45.7546" lon="5.77116">
        <ele>291.79998779297</ele>
        <time>2023-05-31T10:45:46.000Z</time>
      </trkpt>
      <trkpt lat="45.75462" lon="5.77131">
        <ele>291.39999389648</ele>
        <time>2023-05-31T10:45:47.000Z</time>
      </trkpt>
      <trkpt lat="45.75464" lon="5.77147">
        <ele>290.39999389648</ele>
        <time>2023-05-31T10:45:48.000Z</time>
      </trkpt>
      <trkpt lat="45.75468" lon="5.7718">
        <ele>288.79998779297</ele>
        <time>2023-05-31T10:45:50.000Z</time>
      </trkpt>
      <trkpt lat="45.75472" lon="5.77213">
        <ele>287</ele>
        <time>2023-05-31T10:45:52.000Z</time>
      </trkpt>
      <trkpt lat="45.75474" lon="5.7723">
        <ele>286</ele>
        <time>2023-05-31T10:45:53.000Z</time>
      </trkpt>
      <trkpt lat="45.75482" lon="5.77281">
        <ele>284.79998779297</ele>
        <time>2023-05-31T10:45:56.000Z</time>
      </trkpt>
      <trkpt lat="45.75484" lon="5.77294">
        <ele>283.79998779297</ele>
        <time>2023-05-31T10:45:57.000Z</time>
      </trkpt>
      <trkpt lat="45.7549" lon="5.77331">
        <ele>282.20001220703</ele>
        <time>2023-05-31T10:45:59.000Z</time>
      </trkpt>
      <trkpt lat="45.75492" lon="5.77348">
        <ele>281.79998779297</ele>
        <time>2023-05-31T10:46:00.000Z</time>
      </trkpt>
      <trkpt lat="45.75493" lon="5.77365">
        <ele>280.79998779297</ele>
        <time>2023-05-31T10:46:01.000Z</time>
      </trkpt>
      <trkpt lat="45.75495" lon="5.774">
        <ele>279.39999389648</ele>
        <time>2023-05-31T10:46:03.000Z</time>
      </trkpt>
      <trkpt lat="45.75494" lon="5.77418">
        <ele>278.60000610352</ele>
        <time>2023-05-31T10:46:04.000Z</time>
      </trkpt>
      <trkpt lat="45.75494" lon="5.77435">
        <ele>278.20001220703</ele>
        <time>2023-05-31T10:46:05.000Z</time>
      </trkpt>
      <trkpt lat="45.75493" lon="5.77469">
        <ele>277</ele>
        <time>2023-05-31T10:46:07.000Z</time>
      </trkpt>
      <trkpt lat="45.75493" lon="5.77485">
        <ele>275.79998779297</ele>
        <time>2023-05-31T10:46:08.000Z</time>
      </trkpt>
      <trkpt lat="45.75494" lon="5.77501">
        <ele>275.20001220703</ele>
        <time>2023-05-31T10:46:09.000Z</time>
      </trkpt>
      <trkpt lat="45.75496" lon="5.77529">
        <ele>274.39999389648</ele>
        <time>2023-05-31T10:46:11.000Z</time>
      </trkpt>
      <trkpt lat="45.75503" lon="5.77591">
        <ele>273</ele>
        <time>2023-05-31T10:46:15.000Z</time>
      </trkpt>
      <trkpt lat="45.75504" lon="5.77604">
        <ele>272.60000610352</ele>
        <time>2023-05-31T10:46:16.000Z</time>
      </trkpt>
      <trkpt lat="45.75509" lon="5.77678">
        <ele>272</ele>
        <time>2023-05-31T10:46:22.000Z</time>
      </trkpt>
      <trkpt lat="45.75508" lon="5.77761">
        <ele>271.60000610352</ele>
        <time>2023-05-31T10:46:29.000Z</time>
      </trkpt>
      <trkpt lat="45.75507" lon="5.77771">
        <ele>271.60000610352</ele>
        <time>2023-05-31T10:46:30.000Z</time>
      </trkpt>
      <trkpt lat="45.75501" lon="5.77823">
        <ele>270.79998779297</ele>
        <time>2023-05-31T10:46:34.000Z</time>
      </trkpt>
      <trkpt lat="45.75498" lon="5.77833">
        <ele>270.60000610352</ele>
        <time>2023-05-31T10:46:35.000Z</time>
      </trkpt>
      <trkpt lat="45.75494" lon="5.77846">
        <ele>270.20001220703</ele>
        <time>2023-05-31T10:46:36.000Z</time>
      </trkpt>
      <trkpt lat="45.7549" lon="5.77858">
        <ele>269.60000610352</ele>
        <time>2023-05-31T10:46:37.000Z</time>
      </trkpt>
      <trkpt lat="45.75484" lon="5.7787">
        <ele>268.39999389648</ele>
        <time>2023-05-31T10:46:38.000Z</time>
      </trkpt>
      <trkpt lat="45.75471" lon="5.77893">
        <ele>266.39999389648</ele>
        <time>2023-05-31T10:46:40.000Z</time>
      </trkpt>
      <trkpt lat="45.75464" lon="5.77903">
        <ele>265.20001220703</ele>
        <time>2023-05-31T10:46:41.000Z</time>
      </trkpt>
      <trkpt lat="45.75453" lon="5.77913">
        <ele>264.60000610352</ele>
        <time>2023-05-31T10:46:42.000Z</time>
      </trkpt>
      <trkpt lat="45.75446" lon="5.77918">
        <ele>263</ele>
        <time>2023-05-31T10:46:43.000Z</time>
      </trkpt>
      <trkpt lat="45.75425" lon="5.7793">
        <ele>261</ele>
        <time>2023-05-31T10:46:45.000Z</time>
      </trkpt>
      <trkpt lat="45.75415" lon="5.77935">
        <ele>260.39999389648</ele>
        <time>2023-05-31T10:46:46.000Z</time>
      </trkpt>
      <trkpt lat="45.75404" lon="5.77941">
        <ele>259.20001220703</ele>
        <time>2023-05-31T10:46:47.000Z</time>
      </trkpt>
      <trkpt lat="45.75393" lon="5.77946">
        <ele>257.79998779297</ele>
        <time>2023-05-31T10:46:48.000Z</time>
      </trkpt>
      <trkpt lat="45.75373" lon="5.77956">
        <ele>256</ele>
        <time>2023-05-31T10:46:50.000Z</time>
      </trkpt>
      <trkpt lat="45.75364" lon="5.77962">
        <ele>255.19999694824</ele>
        <time>2023-05-31T10:46:51.000Z</time>
      </trkpt>
      <trkpt lat="45.75355" lon="5.77969">
        <ele>254.39999389648</ele>
        <time>2023-05-31T10:46:52.000Z</time>
      </trkpt>
      <trkpt lat="45.75349" lon="5.77978">
        <ele>253.80000305176</ele>
        <time>2023-05-31T10:46:53.000Z</time>
      </trkpt>
      <trkpt lat="45.75343" lon="5.7799">
        <ele>252.80000305176</ele>
        <time>2023-05-31T10:46:54.000Z</time>
      </trkpt>
      <trkpt lat="45.75339" lon="5.78002">
        <ele>251.60000610352</ele>
        <time>2023-05-31T10:46:55.000Z</time>
      </trkpt>
      <trkpt lat="45.75335" lon="5.7803">
        <ele>250.19999694824</ele>
        <time>2023-05-31T10:46:57.000Z</time>
      </trkpt>
      <trkpt lat="45.75335" lon="5.78048">
        <ele>249.60000610352</ele>
        <time>2023-05-31T10:46:58.000Z</time>
      </trkpt>
      <trkpt lat="45.75334" lon="5.78063">
        <ele>248.80000305176</ele>
        <time>2023-05-31T10:46:59.000Z</time>
      </trkpt>
      <trkpt lat="45.75334" lon="5.7809">
        <ele>247.80000305176</ele>
        <time>2023-05-31T10:47:01.000Z</time>
      </trkpt>
      <trkpt lat="45.75335" lon="5.78121">
        <ele>246.60000610352</ele>
        <time>2023-05-31T10:47:03.000Z</time>
      </trkpt>
      <trkpt lat="45.75336" lon="5.78147">
        <ele>245.80000305176</ele>
        <time>2023-05-31T10:47:05.000Z</time>
      </trkpt>
      <trkpt lat="45.75337" lon="5.78161">
        <ele>245.39999389648</ele>
        <time>2023-05-31T10:47:06.000Z</time>
      </trkpt>
      <trkpt lat="45.75341" lon="5.78211">
        <ele>244</ele>
        <time>2023-05-31T10:47:10.000Z</time>
      </trkpt>
      <trkpt lat="45.75348" lon="5.78273">
        <ele>243.80000305176</ele>
        <time>2023-05-31T10:47:16.000Z</time>
      </trkpt>
      <trkpt lat="45.75353" lon="5.78324">
        <ele>245.60000610352</ele>
        <time>2023-05-31T10:47:22.000Z</time>
      </trkpt>
      <trkpt lat="45.75354" lon="5.78332">
        <ele>245.60000610352</ele>
        <time>2023-05-31T10:47:23.000Z</time>
      </trkpt>
      <trkpt lat="45.75356" lon="5.78362">
        <ele>246.60000610352</ele>
        <time>2023-05-31T10:47:27.000Z</time>
      </trkpt>
      <trkpt lat="45.75358" lon="5.78375">
        <ele>246.80000305176</ele>
        <time>2023-05-31T10:47:29.000Z</time>
      </trkpt>
      <trkpt lat="45.75364" lon="5.78437">
        <ele>246.80000305176</ele>
        <time>2023-05-31T10:47:36.000Z</time>
      </trkpt>
      <trkpt lat="45.75369" lon="5.785">
        <ele>245.39999389648</ele>
        <time>2023-05-31T10:47:42.000Z</time>
      </trkpt>
      <trkpt lat="45.7537" lon="5.78511">
        <ele>245</ele>
        <time>2023-05-31T10:47:43.000Z</time>
      </trkpt>
      <trkpt lat="45.75372" lon="5.78546">
        <ele>244.39999389648</ele>
        <time>2023-05-31T10:47:46.000Z</time>
      </trkpt>
      <trkpt lat="45.75369" lon="5.78569">
        <ele>244</ele>
        <time>2023-05-31T10:47:48.000Z</time>
      </trkpt>
      <trkpt lat="45.7536" lon="5.78591">
        <ele>243.19999694824</ele>
        <time>2023-05-31T10:47:50.000Z</time>
      </trkpt>
      <trkpt lat="45.75349" lon="5.7861">
        <ele>242.80000305176</ele>
        <time>2023-05-31T10:47:52.000Z</time>
      </trkpt>
      <trkpt lat="45.75343" lon="5.78619">
        <ele>242.80000305176</ele>
        <time>2023-05-31T10:47:53.000Z</time>
      </trkpt>
      <trkpt lat="45.75328" lon="5.78631">
        <ele>242.19999694824</ele>
        <time>2023-05-31T10:47:55.000Z</time>
      </trkpt>
      <trkpt lat="45.75309" lon="5.78647">
        <ele>241.80000305176</ele>
        <time>2023-05-31T10:47:58.000Z</time>
      </trkpt>
      <trkpt lat="45.75304" lon="5.78654">
        <ele>241.60000610352</ele>
        <time>2023-05-31T10:47:59.000Z</time>
      </trkpt>
      <trkpt lat="45.75301" lon="5.78662">
        <ele>241.60000610352</ele>
        <time>2023-05-31T10:48:00.000Z</time>
      </trkpt>
      <trkpt lat="45.75297" lon="5.78678">
        <ele>241.60000610352</ele>
        <time>2023-05-31T10:48:02.000Z</time>
      </trkpt>
      <trkpt lat="45.75295" lon="5.78685">
        <ele>241.60000610352</ele>
        <time>2023-05-31T10:48:03.000Z</time>
      </trkpt>
      <trkpt lat="45.75286" lon="5.78698">
        <ele>241.60000610352</ele>
        <time>2023-05-31T10:48:05.000Z</time>
      </trkpt>
      <trkpt lat="45.75248" lon="5.78724">
        <ele>241.60000610352</ele>
        <time>2023-05-31T10:48:11.000Z</time>
      </trkpt>
      <trkpt lat="45.75207" lon="5.78749">
        <ele>241.39999389648</ele>
        <time>2023-05-31T10:48:18.000Z</time>
      </trkpt>
      <trkpt lat="45.75169" lon="5.78761">
        <ele>241.19999694824</ele>
        <time>2023-05-31T10:48:24.000Z</time>
      </trkpt>
      <trkpt lat="45.75163" lon="5.78763">
        <ele>241.19999694824</ele>
        <time>2023-05-31T10:48:25.000Z</time>
      </trkpt>
      <trkpt lat="45.75112" lon="5.78779">
        <ele>240.80000305176</ele>
        <time>2023-05-31T10:48:33.000Z</time>
      </trkpt>
      <trkpt lat="45.75099" lon="5.78788">
        <ele>240.80000305176</ele>
        <time>2023-05-31T10:48:35.000Z</time>
      </trkpt>
      <trkpt lat="45.7509" lon="5.78798">
        <ele>240.80000305176</ele>
        <time>2023-05-31T10:48:37.000Z</time>
      </trkpt>
      <trkpt lat="45.75062" lon="5.78847">
        <ele>240.80000305176</ele>
        <time>2023-05-31T10:48:44.000Z</time>
      </trkpt>
      <trkpt lat="45.75027" lon="5.78912">
        <ele>240.39999389648</ele>
        <time>2023-05-31T10:48:53.000Z</time>
      </trkpt>
      <trkpt lat="45.75023" lon="5.7892">
        <ele>240.39999389648</ele>
        <time>2023-05-31T10:48:54.000Z</time>
      </trkpt>
      <trkpt lat="45.75018" lon="5.78927">
        <ele>240.39999389648</ele>
        <time>2023-05-31T10:48:55.000Z</time>
      </trkpt>
      <trkpt lat="45.74983" lon="5.78991">
        <ele>239.39999389648</ele>
        <time>2023-05-31T10:49:03.000Z</time>
      </trkpt>
      <trkpt lat="45.74978" lon="5.78999">
        <ele>239.19999694824</ele>
        <time>2023-05-31T10:49:04.000Z</time>
      </trkpt>
      <trkpt lat="45.74944" lon="5.79052">
        <ele>238.60000610352</ele>
        <time>2023-05-31T10:49:11.000Z</time>
      </trkpt>
      <trkpt lat="45.7492" lon="5.79073">
        <ele>238.60000610352</ele>
        <time>2023-05-31T10:49:15.000Z</time>
      </trkpt>
      <trkpt lat="45.74914" lon="5.79076">
        <ele>238.60000610352</ele>
        <time>2023-05-31T10:49:16.000Z</time>
      </trkpt>
      <trkpt lat="45.74876" lon="5.79092">
        <ele>238.60000610352</ele>
        <time>2023-05-31T10:49:22.000Z</time>
      </trkpt>
      <trkpt lat="45.74844" lon="5.79106">
        <ele>238.39999389648</ele>
        <time>2023-05-31T10:49:27.000Z</time>
      </trkpt>
      <trkpt lat="45.74837" lon="5.79109">
        <ele>238.39999389648</ele>
        <time>2023-05-31T10:49:28.000Z</time>
      </trkpt>
      <trkpt lat="45.74831" lon="5.79111">
        <ele>238.39999389648</ele>
        <time>2023-05-31T10:49:29.000Z</time>
      </trkpt>
      <trkpt lat="45.74807" lon="5.79121">
        <ele>238.39999389648</ele>
        <time>2023-05-31T10:49:33.000Z</time>
      </trkpt>
      <trkpt lat="45.74795" lon="5.79125">
        <ele>238.39999389648</ele>
        <time>2023-05-31T10:49:35.000Z</time>
      </trkpt>
      <trkpt lat="45.74771" lon="5.79136">
        <ele>238.60000610352</ele>
        <time>2023-05-31T10:49:39.000Z</time>
      </trkpt>
      <trkpt lat="45.74731" lon="5.79155">
        <ele>239.19999694824</ele>
        <time>2023-05-31T10:49:46.000Z</time>
      </trkpt>
      <trkpt lat="45.74683" lon="5.79174">
        <ele>240</ele>
        <time>2023-05-31T10:49:55.000Z</time>
      </trkpt>
      <trkpt lat="45.74672" lon="5.79179">
        <ele>240.19999694824</ele>
        <time>2023-05-31T10:49:57.000Z</time>
      </trkpt>
      <trkpt lat="45.74647" lon="5.7919">
        <ele>240.80000305176</ele>
        <time>2023-05-31T10:50:02.000Z</time>
      </trkpt>
      <trkpt lat="45.74632" lon="5.79196">
        <ele>241.19999694824</ele>
        <time>2023-05-31T10:50:05.000Z</time>
      </trkpt>
      <trkpt lat="45.74599" lon="5.7921">
        <ele>242</ele>
        <time>2023-05-31T10:50:12.000Z</time>
      </trkpt>
      <trkpt lat="45.74586" lon="5.79216">
        <ele>242.39999389648</ele>
        <time>2023-05-31T10:50:15.000Z</time>
      </trkpt>
      <trkpt lat="45.74564" lon="5.79228">
        <ele>243</ele>
        <time>2023-05-31T10:50:20.000Z</time>
      </trkpt>
      <trkpt lat="45.74552" lon="5.79233">
        <ele>243.60000610352</ele>
        <time>2023-05-31T10:50:23.000Z</time>
      </trkpt>
      <trkpt lat="45.74517" lon="5.79246">
        <ele>244.39999389648</ele>
        <time>2023-05-31T10:50:31.000Z</time>
      </trkpt>
      <trkpt lat="45.74507" lon="5.79247">
        <ele>244.60000610352</ele>
        <time>2023-05-31T10:50:33.000Z</time>
      </trkpt>
      <trkpt lat="45.7449" lon="5.79247">
        <ele>245.39999389648</ele>
        <time>2023-05-31T10:50:37.000Z</time>
      </trkpt>
      <trkpt lat="45.74485" lon="5.79246">
        <ele>245.39999389648</ele>
        <time>2023-05-31T10:50:38.000Z</time>
      </trkpt>
      <trkpt lat="45.74476" lon="5.79244">
        <ele>245.60000610352</ele>
        <time>2023-05-31T10:50:40.000Z</time>
      </trkpt>
      <trkpt lat="45.74468" lon="5.7924">
        <ele>245.80000305176</ele>
        <time>2023-05-31T10:50:42.000Z</time>
      </trkpt>
      <trkpt lat="45.74456" lon="5.79231">
        <ele>246.60000610352</ele>
        <time>2023-05-31T10:50:45.000Z</time>
      </trkpt>
      <trkpt lat="45.74456" lon="5.79231">
        <ele>246.60000610352</ele>
        <time>2023-05-31T10:50:46.000Z</time>
      </trkpt>
      <trkpt lat="45.74429" lon="5.792">
        <ele>247.60000610352</ele>
        <time>2023-05-31T10:50:53.000Z</time>
      </trkpt>
      <trkpt lat="45.74423" lon="5.79191">
        <ele>247.80000305176</ele>
        <time>2023-05-31T10:50:55.000Z</time>
      </trkpt>
      <trkpt lat="45.74402" lon="5.79163">
        <ele>248.80000305176</ele>
        <time>2023-05-31T10:51:02.000Z</time>
      </trkpt>
      <trkpt lat="45.74399" lon="5.79159">
        <ele>249</ele>
        <time>2023-05-31T10:51:03.000Z</time>
      </trkpt>
      <trkpt lat="45.74388" lon="5.79149">
        <ele>249.39999389648</ele>
        <time>2023-05-31T10:51:06.000Z</time>
      </trkpt>
      <trkpt lat="45.74381" lon="5.79149">
        <ele>249.60000610352</ele>
        <time>2023-05-31T10:51:08.000Z</time>
      </trkpt>
      <trkpt lat="45.74376" lon="5.79158">
        <ele>249.60000610352</ele>
        <time>2023-05-31T10:51:10.000Z</time>
      </trkpt>
      <trkpt lat="45.74376" lon="5.79164">
        <ele>249.80000305176</ele>
        <time>2023-05-31T10:51:11.000Z</time>
      </trkpt>
      <trkpt lat="45.74377" lon="5.7917">
        <ele>249.80000305176</ele>
        <time>2023-05-31T10:51:12.000Z</time>
      </trkpt>
      <trkpt lat="45.74384" lon="5.79193">
        <ele>250.39999389648</ele>
        <time>2023-05-31T10:51:16.000Z</time>
      </trkpt>
      <trkpt lat="45.74389" lon="5.79214">
        <ele>250.60000610352</ele>
        <time>2023-05-31T10:51:20.000Z</time>
      </trkpt>
      <trkpt lat="45.74395" lon="5.79233">
        <ele>251.19999694824</ele>
        <time>2023-05-31T10:51:24.000Z</time>
      </trkpt>
      <trkpt lat="45.74402" lon="5.79256">
        <ele>252.39999389648</ele>
        <time>2023-05-31T10:51:29.000Z</time>
      </trkpt>
      <trkpt lat="45.74408" lon="5.79275">
        <ele>253.19999694824</ele>
        <time>2023-05-31T10:51:33.000Z</time>
      </trkpt>
      <trkpt lat="45.74411" lon="5.79288">
        <ele>253.60000610352</ele>
        <time>2023-05-31T10:51:36.000Z</time>
      </trkpt>
      <trkpt lat="45.74415" lon="5.79303">
        <ele>254.39999389648</ele>
        <time>2023-05-31T10:51:39.000Z</time>
      </trkpt>
      <trkpt lat="45.74417" lon="5.79312">
        <ele>254.60000610352</ele>
        <time>2023-05-31T10:51:41.000Z</time>
      </trkpt>
      <trkpt lat="45.74415" lon="5.79327">
        <ele>255.39999389648</ele>
        <time>2023-05-31T10:51:44.000Z</time>
      </trkpt>
      <trkpt lat="45.74411" lon="5.79333">
        <ele>255.80000305176</ele>
        <time>2023-05-31T10:51:46.000Z</time>
      </trkpt>
      <trkpt lat="45.74404" lon="5.79337">
        <ele>256</ele>
        <time>2023-05-31T10:51:48.000Z</time>
      </trkpt>
      <trkpt lat="45.74391" lon="5.79337">
        <ele>256.79998779297</ele>
        <time>2023-05-31T10:51:52.000Z</time>
      </trkpt>
      <trkpt lat="45.74388" lon="5.79336">
        <ele>257.20001220703</ele>
        <time>2023-05-31T10:51:53.000Z</time>
      </trkpt>
      <trkpt lat="45.74372" lon="5.7933">
        <ele>258</ele>
        <time>2023-05-31T10:51:58.000Z</time>
      </trkpt>
      <trkpt lat="45.74363" lon="5.79326">
        <ele>258.60000610352</ele>
        <time>2023-05-31T10:52:01.000Z</time>
      </trkpt>
      <trkpt lat="45.74353" lon="5.79323">
        <ele>259.20001220703</ele>
        <time>2023-05-31T10:52:04.000Z</time>
      </trkpt>
      <trkpt lat="45.74344" lon="5.79319">
        <ele>259.79998779297</ele>
        <time>2023-05-31T10:52:07.000Z</time>
      </trkpt>
      <trkpt lat="45.74337" lon="5.79317">
        <ele>260.39999389648</ele>
        <time>2023-05-31T10:52:09.000Z</time>
      </trkpt>
      <trkpt lat="45.74317" lon="5.7931">
        <ele>261.20001220703</ele>
        <time>2023-05-31T10:52:15.000Z</time>
      </trkpt>
      <trkpt lat="45.74311" lon="5.79308">
        <ele>261.39999389648</ele>
        <time>2023-05-31T10:52:17.000Z</time>
      </trkpt>
      <trkpt lat="45.74292" lon="5.79303">
        <ele>262.60000610352</ele>
        <time>2023-05-31T10:52:23.000Z</time>
      </trkpt>
      <trkpt lat="45.74274" lon="5.79295">
        <ele>263.79998779297</ele>
        <time>2023-05-31T10:52:29.000Z</time>
      </trkpt>
      <trkpt lat="45.74266" lon="5.79292">
        <ele>264.39999389648</ele>
        <time>2023-05-31T10:52:32.000Z</time>
      </trkpt>
      <trkpt lat="45.74256" lon="5.79288">
        <ele>264.79998779297</ele>
        <time>2023-05-31T10:52:35.000Z</time>
      </trkpt>
      <trkpt lat="45.74247" lon="5.79285">
        <ele>265.60000610352</ele>
        <time>2023-05-31T10:52:38.000Z</time>
      </trkpt>
      <trkpt lat="45.74241" lon="5.79282">
        <ele>265.79998779297</ele>
        <time>2023-05-31T10:52:40.000Z</time>
      </trkpt>
      <trkpt lat="45.74222" lon="5.79275">
        <ele>266.60000610352</ele>
        <time>2023-05-31T10:52:46.000Z</time>
      </trkpt>
      <trkpt lat="45.74213" lon="5.79271">
        <ele>267</ele>
        <time>2023-05-31T10:52:49.000Z</time>
      </trkpt>
      <trkpt lat="45.74193" lon="5.79262">
        <ele>268</ele>
        <time>2023-05-31T10:52:55.000Z</time>
      </trkpt>
      <trkpt lat="45.74168" lon="5.79251">
        <ele>269</ele>
        <time>2023-05-31T10:53:03.000Z</time>
      </trkpt>
      <trkpt lat="45.74165" lon="5.7925">
        <ele>269.20001220703</ele>
        <time>2023-05-31T10:53:04.000Z</time>
      </trkpt>
      <trkpt lat="45.74147" lon="5.79242">
        <ele>270.20001220703</ele>
        <time>2023-05-31T10:53:10.000Z</time>
      </trkpt>
      <trkpt lat="45.74144" lon="5.79241">
        <ele>270.39999389648</ele>
        <time>2023-05-31T10:53:11.000Z</time>
      </trkpt>
      <trkpt lat="45.74123" lon="5.7923">
        <ele>271.20001220703</ele>
        <time>2023-05-31T10:53:18.000Z</time>
      </trkpt>
      <trkpt lat="45.7412" lon="5.79228">
        <ele>271.39999389648</ele>
        <time>2023-05-31T10:53:19.000Z</time>
      </trkpt>
      <trkpt lat="45.74108" lon="5.79214">
        <ele>272.39999389648</ele>
        <time>2023-05-31T10:53:24.000Z</time>
      </trkpt>
      <trkpt lat="45.74106" lon="5.7921">
        <ele>272.39999389648</ele>
        <time>2023-05-31T10:53:25.000Z</time>
      </trkpt>
      <trkpt lat="45.74097" lon="5.79187">
        <ele>273.39999389648</ele>
        <time>2023-05-31T10:53:31.000Z</time>
      </trkpt>
      <trkpt lat="45.74096" lon="5.79183">
        <ele>273.60000610352</ele>
        <time>2023-05-31T10:53:32.000Z</time>
      </trkpt>
      <trkpt lat="45.74091" lon="5.79155">
        <ele>274.39999389648</ele>
        <time>2023-05-31T10:53:38.000Z</time>
      </trkpt>
      <trkpt lat="45.74088" lon="5.79138">
        <ele>275</ele>
        <time>2023-05-31T10:53:42.000Z</time>
      </trkpt>
      <trkpt lat="45.74084" lon="5.79124">
        <ele>275.60000610352</ele>
        <time>2023-05-31T10:53:45.000Z</time>
      </trkpt>
      <trkpt lat="45.74079" lon="5.79119">
        <ele>276</ele>
        <time>2023-05-31T10:53:47.000Z</time>
      </trkpt>
      <trkpt lat="45.74066" lon="5.79115">
        <ele>276.39999389648</ele>
        <time>2023-05-31T10:53:51.000Z</time>
      </trkpt>
      <trkpt lat="45.74058" lon="5.79121">
        <ele>276.79998779297</ele>
        <time>2023-05-31T10:53:54.000Z</time>
      </trkpt>
      <trkpt lat="45.74053" lon="5.79128">
        <ele>277</ele>
        <time>2023-05-31T10:53:56.000Z</time>
      </trkpt>
      <trkpt lat="45.7404" lon="5.7916">
        <ele>278</ele>
        <time>2023-05-31T10:54:03.000Z</time>
      </trkpt>
      <trkpt lat="45.74039" lon="5.79165">
        <ele>278</ele>
        <time>2023-05-31T10:54:04.000Z</time>
      </trkpt>
      <trkpt lat="45.74036" lon="5.79175">
        <ele>278.20001220703</ele>
        <time>2023-05-31T10:54:06.000Z</time>
      </trkpt>
      <trkpt lat="45.74031" lon="5.79193">
        <ele>279</ele>
        <time>2023-05-31T10:54:10.000Z</time>
      </trkpt>
      <trkpt lat="45.74028" lon="5.79202">
        <ele>279.60000610352</ele>
        <time>2023-05-31T10:54:12.000Z</time>
      </trkpt>
      <trkpt lat="45.74025" lon="5.7921">
        <ele>280.20001220703</ele>
        <time>2023-05-31T10:54:14.000Z</time>
      </trkpt>
      <trkpt lat="45.74014" lon="5.79245">
        <ele>281.20001220703</ele>
        <time>2023-05-31T10:54:22.000Z</time>
      </trkpt>
      <trkpt lat="45.74006" lon="5.79269">
        <ele>282.20001220703</ele>
        <time>2023-05-31T10:54:27.000Z</time>
      </trkpt>
      <trkpt lat="45.74" lon="5.79291">
        <ele>282.79998779297</ele>
        <time>2023-05-31T10:54:32.000Z</time>
      </trkpt>
      <trkpt lat="45.73999" lon="5.79296">
        <ele>283.39999389648</ele>
        <time>2023-05-31T10:54:33.000Z</time>
      </trkpt>
      <trkpt lat="45.73996" lon="5.79303">
        <ele>283.79998779297</ele>
        <time>2023-05-31T10:54:35.000Z</time>
      </trkpt>
      <trkpt lat="45.7399" lon="5.79322">
        <ele>284.39999389648</ele>
        <time>2023-05-31T10:54:39.000Z</time>
      </trkpt>
      <trkpt lat="45.73987" lon="5.79337">
        <ele>284.79998779297</ele>
        <time>2023-05-31T10:54:42.000Z</time>
      </trkpt>
      <trkpt lat="45.73982" lon="5.79365">
        <ele>285.39999389648</ele>
        <time>2023-05-31T10:54:47.000Z</time>
      </trkpt>
      <trkpt lat="45.7398" lon="5.79382">
        <ele>285.60000610352</ele>
        <time>2023-05-31T10:54:50.000Z</time>
      </trkpt>
      <trkpt lat="45.73976" lon="5.7943">
        <ele>286.39999389648</ele>
        <time>2023-05-31T10:54:58.000Z</time>
      </trkpt>
      <trkpt lat="45.73976" lon="5.79441">
        <ele>286.60000610352</ele>
        <time>2023-05-31T10:55:00.000Z</time>
      </trkpt>
      <trkpt lat="45.73974" lon="5.79463">
        <ele>287.39999389648</ele>
        <time>2023-05-31T10:55:04.000Z</time>
      </trkpt>
      <trkpt lat="45.73974" lon="5.79468">
        <ele>287.79998779297</ele>
        <time>2023-05-31T10:55:05.000Z</time>
      </trkpt>
      <trkpt lat="45.73972" lon="5.79489">
        <ele>288.39999389648</ele>
        <time>2023-05-31T10:55:09.000Z</time>
      </trkpt>
      <trkpt lat="45.73972" lon="5.79494">
        <ele>288.79998779297</ele>
        <time>2023-05-31T10:55:10.000Z</time>
      </trkpt>
      <trkpt lat="45.7397" lon="5.79525">
        <ele>289.79998779297</ele>
        <time>2023-05-31T10:55:16.000Z</time>
      </trkpt>
      <trkpt lat="45.73969" lon="5.79539">
        <ele>290.20001220703</ele>
        <time>2023-05-31T10:55:19.000Z</time>
      </trkpt>
      <trkpt lat="45.73969" lon="5.79553">
        <ele>291</ele>
        <time>2023-05-31T10:55:22.000Z</time>
      </trkpt>
      <trkpt lat="45.73967" lon="5.79579">
        <ele>292</ele>
        <time>2023-05-31T10:55:27.000Z</time>
      </trkpt>
      <trkpt lat="45.73967" lon="5.79583">
        <ele>292.20001220703</ele>
        <time>2023-05-31T10:55:28.000Z</time>
      </trkpt>
      <trkpt lat="45.73965" lon="5.79614">
        <ele>293.20001220703</ele>
        <time>2023-05-31T10:55:34.000Z</time>
      </trkpt>
      <trkpt lat="45.73964" lon="5.79623">
        <ele>293.39999389648</ele>
        <time>2023-05-31T10:55:36.000Z</time>
      </trkpt>
      <trkpt lat="45.73963" lon="5.79642">
        <ele>294.39999389648</ele>
        <time>2023-05-31T10:55:40.000Z</time>
      </trkpt>
      <trkpt lat="45.73961" lon="5.79666">
        <ele>295.60000610352</ele>
        <time>2023-05-31T10:55:45.000Z</time>
      </trkpt>
      <trkpt lat="45.73961" lon="5.7967">
        <ele>295.60000610352</ele>
        <time>2023-05-31T10:55:46.000Z</time>
      </trkpt>
      <trkpt lat="45.73958" lon="5.79707">
        <ele>296.39999389648</ele>
        <time>2023-05-31T10:55:53.000Z</time>
      </trkpt>
      <trkpt lat="45.73958" lon="5.79716">
        <ele>296.79998779297</ele>
        <time>2023-05-31T10:55:55.000Z</time>
      </trkpt>
      <trkpt lat="45.73956" lon="5.79741">
        <ele>297.79998779297</ele>
        <time>2023-05-31T10:56:00.000Z</time>
      </trkpt>
      <trkpt lat="45.73956" lon="5.79745">
        <ele>298.20001220703</ele>
        <time>2023-05-31T10:56:01.000Z</time>
      </trkpt>
      <trkpt lat="45.73954" lon="5.79764">
        <ele>298.79998779297</ele>
        <time>2023-05-31T10:56:05.000Z</time>
      </trkpt>
      <trkpt lat="45.73951" lon="5.79777">
        <ele>299.39999389648</ele>
        <time>2023-05-31T10:56:08.000Z</time>
      </trkpt>
      <trkpt lat="45.73944" lon="5.79799">
        <ele>300</ele>
        <time>2023-05-31T10:56:13.000Z</time>
      </trkpt>
      <trkpt lat="45.7394" lon="5.79805">
        <ele>300.79998779297</ele>
        <time>2023-05-31T10:56:15.000Z</time>
      </trkpt>
      <trkpt lat="45.73935" lon="5.79812">
        <ele>301</ele>
        <time>2023-05-31T10:56:17.000Z</time>
      </trkpt>
      <trkpt lat="45.73925" lon="5.79822">
        <ele>302</ele>
        <time>2023-05-31T10:56:21.000Z</time>
      </trkpt>
      <trkpt lat="45.73906" lon="5.79826">
        <ele>303.39999389648</ele>
        <time>2023-05-31T10:56:27.000Z</time>
      </trkpt>
      <trkpt lat="45.73902" lon="5.79826">
        <ele>303.60000610352</ele>
        <time>2023-05-31T10:56:28.000Z</time>
      </trkpt>
      <trkpt lat="45.73888" lon="5.79822">
        <ele>304.60000610352</ele>
        <time>2023-05-31T10:56:33.000Z</time>
      </trkpt>
      <trkpt lat="45.73882" lon="5.79818">
        <ele>305</ele>
        <time>2023-05-31T10:56:35.000Z</time>
      </trkpt>
      <trkpt lat="45.73874" lon="5.79811">
        <ele>305.60000610352</ele>
        <time>2023-05-31T10:56:38.000Z</time>
      </trkpt>
      <trkpt lat="45.73863" lon="5.79797">
        <ele>306.60000610352</ele>
        <time>2023-05-31T10:56:43.000Z</time>
      </trkpt>
      <trkpt lat="45.7386" lon="5.79794">
        <ele>306.79998779297</ele>
        <time>2023-05-31T10:56:44.000Z</time>
      </trkpt>
      <trkpt lat="45.73847" lon="5.79775">
        <ele>307.79998779297</ele>
        <time>2023-05-31T10:56:50.000Z</time>
      </trkpt>
      <trkpt lat="45.73838" lon="5.79764">
        <ele>308.39999389648</ele>
        <time>2023-05-31T10:56:54.000Z</time>
      </trkpt>
      <trkpt lat="45.73829" lon="5.79751">
        <ele>308.79998779297</ele>
        <time>2023-05-31T10:56:58.000Z</time>
      </trkpt>
      <trkpt lat="45.73813" lon="5.79728">
        <ele>310</ele>
        <time>2023-05-31T10:57:05.000Z</time>
      </trkpt>
      <trkpt lat="45.73795" lon="5.79704">
        <ele>311</ele>
        <time>2023-05-31T10:57:12.000Z</time>
      </trkpt>
      <trkpt lat="45.73772" lon="5.7967">
        <ele>312.20001220703</ele>
        <time>2023-05-31T10:57:22.000Z</time>
      </trkpt>
      <trkpt lat="45.73752" lon="5.79648">
        <ele>313.20001220703</ele>
        <time>2023-05-31T10:57:29.000Z</time>
      </trkpt>
      <trkpt lat="45.73749" lon="5.79647">
        <ele>313.39999389648</ele>
        <time>2023-05-31T10:57:30.000Z</time>
      </trkpt>
      <trkpt lat="45.73732" lon="5.79653">
        <ele>314.20001220703</ele>
        <time>2023-05-31T10:57:35.000Z</time>
      </trkpt>
      <trkpt lat="45.73727" lon="5.79667">
        <ele>314.39999389648</ele>
        <time>2023-05-31T10:57:38.000Z</time>
      </trkpt>
      <trkpt lat="45.73726" lon="5.79672">
        <ele>314.39999389648</ele>
        <time>2023-05-31T10:57:39.000Z</time>
      </trkpt>
      <trkpt lat="45.73729" lon="5.79704">
        <ele>315.20001220703</ele>
        <time>2023-05-31T10:57:45.000Z</time>
      </trkpt>
      <trkpt lat="45.73731" lon="5.79713">
        <ele>315.39999389648</ele>
        <time>2023-05-31T10:57:47.000Z</time>
      </trkpt>
      <trkpt lat="45.73733" lon="5.79733">
        <ele>316.20001220703</ele>
        <time>2023-05-31T10:57:51.000Z</time>
      </trkpt>
      <trkpt lat="45.73733" lon="5.79737">
        <ele>316.60000610352</ele>
        <time>2023-05-31T10:57:52.000Z</time>
      </trkpt>
      <trkpt lat="45.73737" lon="5.79767">
        <ele>317.60000610352</ele>
        <time>2023-05-31T10:57:58.000Z</time>
      </trkpt>
      <trkpt lat="45.7374" lon="5.79787">
        <ele>318.20001220703</ele>
        <time>2023-05-31T10:58:02.000Z</time>
      </trkpt>
      <trkpt lat="45.73741" lon="5.79797">
        <ele>318.79998779297</ele>
        <time>2023-05-31T10:58:04.000Z</time>
      </trkpt>
      <trkpt lat="45.73744" lon="5.79826">
        <ele>319.79998779297</ele>
        <time>2023-05-31T10:58:10.000Z</time>
      </trkpt>
      <trkpt lat="45.73748" lon="5.79854">
        <ele>321</ele>
        <time>2023-05-31T10:58:16.000Z</time>
      </trkpt>
      <trkpt lat="45.7375" lon="5.79873">
        <ele>321.60000610352</ele>
        <time>2023-05-31T10:58:21.000Z</time>
      </trkpt>
      <trkpt lat="45.73753" lon="5.79887">
        <ele>322</ele>
        <time>2023-05-31T10:58:23.000Z</time>
      </trkpt>
      <trkpt lat="45.73756" lon="5.79911">
        <ele>323.20001220703</ele>
        <time>2023-05-31T10:58:28.000Z</time>
      </trkpt>
      <trkpt lat="45.73757" lon="5.79916">
        <ele>323.39999389648</ele>
        <time>2023-05-31T10:58:29.000Z</time>
      </trkpt>
      <trkpt lat="45.73759" lon="5.79939">
        <ele>324.20001220703</ele>
        <time>2023-05-31T10:58:34.000Z</time>
      </trkpt>
      <trkpt lat="45.73759" lon="5.79953">
        <ele>325.20001220703</ele>
        <time>2023-05-31T10:58:37.000Z</time>
      </trkpt>
      <trkpt lat="45.73757" lon="5.79957">
        <ele>325.39999389648</ele>
        <time>2023-05-31T10:58:38.000Z</time>
      </trkpt>
      <trkpt lat="45.7375" lon="5.79967">
        <ele>326</ele>
        <time>2023-05-31T10:58:41.000Z</time>
      </trkpt>
      <trkpt lat="45.7374" lon="5.7997">
        <ele>326.79998779297</ele>
        <time>2023-05-31T10:58:44.000Z</time>
      </trkpt>
      <trkpt lat="45.73737" lon="5.79969">
        <ele>326.79998779297</ele>
        <time>2023-05-31T10:58:45.000Z</time>
      </trkpt>
      <trkpt lat="45.73726" lon="5.79957">
        <ele>328</ele>
        <time>2023-05-31T10:58:49.000Z</time>
      </trkpt>
      <trkpt lat="45.73723" lon="5.79953">
        <ele>328.20001220703</ele>
        <time>2023-05-31T10:58:50.000Z</time>
      </trkpt>
      <trkpt lat="45.73711" lon="5.79923">
        <ele>329</ele>
        <time>2023-05-31T10:58:56.000Z</time>
      </trkpt>
      <trkpt lat="45.73705" lon="5.79908">
        <ele>329.39999389648</ele>
        <time>2023-05-31T10:58:59.000Z</time>
      </trkpt>
      <trkpt lat="45.73698" lon="5.7989">
        <ele>330.20001220703</ele>
        <time>2023-05-31T10:59:03.000Z</time>
      </trkpt>
      <trkpt lat="45.73685" lon="5.79859">
        <ele>331.20001220703</ele>
        <time>2023-05-31T10:59:10.000Z</time>
      </trkpt>
      <trkpt lat="45.73683" lon="5.79855">
        <ele>331.39999389648</ele>
        <time>2023-05-31T10:59:11.000Z</time>
      </trkpt>
      <trkpt lat="45.73671" lon="5.79827">
        <ele>332.39999389648</ele>
        <time>2023-05-31T10:59:17.000Z</time>
      </trkpt>
      <trkpt lat="45.73662" lon="5.79805">
        <ele>332.79998779297</ele>
        <time>2023-05-31T10:59:22.000Z</time>
      </trkpt>
      <trkpt lat="45.73654" lon="5.79786">
        <ele>333.39999389648</ele>
        <time>2023-05-31T10:59:26.000Z</time>
      </trkpt>
      <trkpt lat="45.73647" lon="5.79767">
        <ele>333.79998779297</ele>
        <time>2023-05-31T10:59:30.000Z</time>
      </trkpt>
      <trkpt lat="45.73634" lon="5.79749">
        <ele>334.60000610352</ele>
        <time>2023-05-31T10:59:35.000Z</time>
      </trkpt>
      <trkpt lat="45.73631" lon="5.79747">
        <ele>334.60000610352</ele>
        <time>2023-05-31T10:59:36.000Z</time>
      </trkpt>
      <trkpt lat="45.73617" lon="5.79748">
        <ele>335.20001220703</ele>
        <time>2023-05-31T10:59:40.000Z</time>
      </trkpt>
      <trkpt lat="45.73608" lon="5.79764">
        <ele>335.39999389648</ele>
        <time>2023-05-31T10:59:44.000Z</time>
      </trkpt>
      <trkpt lat="45.73607" lon="5.79775">
        <ele>335.60000610352</ele>
        <time>2023-05-31T10:59:46.000Z</time>
      </trkpt>
      <trkpt lat="45.73608" lon="5.79797">
        <ele>336.20001220703</ele>
        <time>2023-05-31T10:59:50.000Z</time>
      </trkpt>
      <trkpt lat="45.73609" lon="5.79813">
        <ele>336.79998779297</ele>
        <time>2023-05-31T10:59:53.000Z</time>
      </trkpt>
      <trkpt lat="45.73611" lon="5.79843">
        <ele>337.60000610352</ele>
        <time>2023-05-31T10:59:59.000Z</time>
      </trkpt>
      <trkpt lat="45.73611" lon="5.79848">
        <ele>338</ele>
        <time>2023-05-31T11:00:00.000Z</time>
      </trkpt>
      <trkpt lat="45.73612" lon="5.79867">
        <ele>339</ele>
        <time>2023-05-31T11:00:04.000Z</time>
      </trkpt>
      <trkpt lat="45.73615" lon="5.79892">
        <ele>339.79998779297</ele>
        <time>2023-05-31T11:00:09.000Z</time>
      </trkpt>
      <trkpt lat="45.73615" lon="5.79902">
        <ele>340.20001220703</ele>
        <time>2023-05-31T11:00:11.000Z</time>
      </trkpt>
      <trkpt lat="45.73617" lon="5.79935">
        <ele>341.20001220703</ele>
        <time>2023-05-31T11:00:18.000Z</time>
      </trkpt>
      <trkpt lat="45.73618" lon="5.79949">
        <ele>342.20001220703</ele>
        <time>2023-05-31T11:00:21.000Z</time>
      </trkpt>
      <trkpt lat="45.73619" lon="5.79953">
        <ele>342.39999389648</ele>
        <time>2023-05-31T11:00:22.000Z</time>
      </trkpt>
      <trkpt lat="45.7362" lon="5.79972">
        <ele>343.20001220703</ele>
        <time>2023-05-31T11:00:26.000Z</time>
      </trkpt>
      <trkpt lat="45.7362" lon="5.79976">
        <ele>343.39999389648</ele>
        <time>2023-05-31T11:00:27.000Z</time>
      </trkpt>
      <trkpt lat="45.73622" lon="5.8001">
        <ele>345</ele>
        <time>2023-05-31T11:00:34.000Z</time>
      </trkpt>
      <trkpt lat="45.73622" lon="5.80014">
        <ele>345.20001220703</ele>
        <time>2023-05-31T11:00:35.000Z</time>
      </trkpt>
      <trkpt lat="45.73623" lon="5.80032">
        <ele>346</ele>
        <time>2023-05-31T11:00:39.000Z</time>
      </trkpt>
      <trkpt lat="45.73626" lon="5.80056">
        <ele>347</ele>
        <time>2023-05-31T11:00:44.000Z</time>
      </trkpt>
      <trkpt lat="45.73626" lon="5.8007">
        <ele>347.39999389648</ele>
        <time>2023-05-31T11:00:47.000Z</time>
      </trkpt>
      <trkpt lat="45.73623" lon="5.80084">
        <ele>348.20001220703</ele>
        <time>2023-05-31T11:00:50.000Z</time>
      </trkpt>
      <trkpt lat="45.73618" lon="5.80091">
        <ele>348.39999389648</ele>
        <time>2023-05-31T11:00:52.000Z</time>
      </trkpt>
      <trkpt lat="45.73604" lon="5.80095">
        <ele>348.79998779297</ele>
        <time>2023-05-31T11:00:56.000Z</time>
      </trkpt>
      <trkpt lat="45.73598" lon="5.8009">
        <ele>349.20001220703</ele>
        <time>2023-05-31T11:00:58.000Z</time>
      </trkpt>
      <trkpt lat="45.73595" lon="5.80086">
        <ele>349.20001220703</ele>
        <time>2023-05-31T11:00:59.000Z</time>
      </trkpt>
      <trkpt lat="45.73585" lon="5.80063">
        <ele>350.20001220703</ele>
        <time>2023-05-31T11:01:04.000Z</time>
      </trkpt>
      <trkpt lat="45.73578" lon="5.80043">
        <ele>350.79998779297</ele>
        <time>2023-05-31T11:01:08.000Z</time>
      </trkpt>
      <trkpt lat="45.73573" lon="5.80027">
        <ele>351.60000610352</ele>
        <time>2023-05-31T11:01:11.000Z</time>
      </trkpt>
      <trkpt lat="45.73563" lon="5.79999">
        <ele>352.20001220703</ele>
        <time>2023-05-31T11:01:17.000Z</time>
      </trkpt>
      <trkpt lat="45.73559" lon="5.79989">
        <ele>352.60000610352</ele>
        <time>2023-05-31T11:01:19.000Z</time>
      </trkpt>
      <trkpt lat="45.73548" lon="5.79961">
        <ele>353.39999389648</ele>
        <time>2023-05-31T11:01:25.000Z</time>
      </trkpt>
      <trkpt lat="45.73542" lon="5.79947">
        <ele>353.79998779297</ele>
        <time>2023-05-31T11:01:28.000Z</time>
      </trkpt>
      <trkpt lat="45.73532" lon="5.7992">
        <ele>354.60000610352</ele>
        <time>2023-05-31T11:01:34.000Z</time>
      </trkpt>
      <trkpt lat="45.73531" lon="5.79915">
        <ele>354.79998779297</ele>
        <time>2023-05-31T11:01:35.000Z</time>
      </trkpt>
      <trkpt lat="45.73524" lon="5.79897">
        <ele>355.20001220703</ele>
        <time>2023-05-31T11:01:39.000Z</time>
      </trkpt>
      <trkpt lat="45.73517" lon="5.79879">
        <ele>356</ele>
        <time>2023-05-31T11:01:43.000Z</time>
      </trkpt>
      <trkpt lat="45.73509" lon="5.79858">
        <ele>357</ele>
        <time>2023-05-31T11:01:48.000Z</time>
      </trkpt>
      <trkpt lat="45.73502" lon="5.79841">
        <ele>357.60000610352</ele>
        <time>2023-05-31T11:01:52.000Z</time>
      </trkpt>
      <trkpt lat="45.73494" lon="5.79825">
        <ele>358.20001220703</ele>
        <time>2023-05-31T11:01:56.000Z</time>
      </trkpt>
      <trkpt lat="45.73485" lon="5.7981">
        <ele>359</ele>
        <time>2023-05-31T11:02:00.000Z</time>
      </trkpt>
      <trkpt lat="45.7348" lon="5.79803">
        <ele>359.20001220703</ele>
        <time>2023-05-31T11:02:02.000Z</time>
      </trkpt>
      <trkpt lat="45.73465" lon="5.79783">
        <ele>360.20001220703</ele>
        <time>2023-05-31T11:02:08.000Z</time>
      </trkpt>
      <trkpt lat="45.73457" lon="5.79774">
        <ele>360.39999389648</ele>
        <time>2023-05-31T11:02:11.000Z</time>
      </trkpt>
      <trkpt lat="45.73435" lon="5.79751">
        <ele>361.39999389648</ele>
        <time>2023-05-31T11:02:19.000Z</time>
      </trkpt>
      <trkpt lat="45.73432" lon="5.79748">
        <ele>361.60000610352</ele>
        <time>2023-05-31T11:02:20.000Z</time>
      </trkpt>
      <trkpt lat="45.73406" lon="5.79724">
        <ele>362.60000610352</ele>
        <time>2023-05-31T11:02:29.000Z</time>
      </trkpt>
      <trkpt lat="45.73403" lon="5.79721">
        <ele>362.79998779297</ele>
        <time>2023-05-31T11:02:30.000Z</time>
      </trkpt>
      <trkpt lat="45.73386" lon="5.79703">
        <ele>363.79998779297</ele>
        <time>2023-05-31T11:02:36.000Z</time>
      </trkpt>
      <trkpt lat="45.73383" lon="5.797">
        <ele>364</ele>
        <time>2023-05-31T11:02:37.000Z</time>
      </trkpt>
      <trkpt lat="45.73366" lon="5.79684">
        <ele>364.79998779297</ele>
        <time>2023-05-31T11:02:43.000Z</time>
      </trkpt>
      <trkpt lat="45.73361" lon="5.79678">
        <ele>365.20001220703</ele>
        <time>2023-05-31T11:02:45.000Z</time>
      </trkpt>
      <trkpt lat="45.73355" lon="5.79673">
        <ele>365.39999389648</ele>
        <time>2023-05-31T11:02:47.000Z</time>
      </trkpt>
      <trkpt lat="45.73347" lon="5.79665">
        <ele>365.79998779297</ele>
        <time>2023-05-31T11:02:50.000Z</time>
      </trkpt>
      <trkpt lat="45.73333" lon="5.7966">
        <ele>366.79998779297</ele>
        <time>2023-05-31T11:02:54.000Z</time>
      </trkpt>
      <trkpt lat="45.73329" lon="5.79661">
        <ele>367</ele>
        <time>2023-05-31T11:02:55.000Z</time>
      </trkpt>
      <trkpt lat="45.73321" lon="5.79669">
        <ele>367.20001220703</ele>
        <time>2023-05-31T11:02:58.000Z</time>
      </trkpt>
      <trkpt lat="45.73317" lon="5.79687">
        <ele>367.79998779297</ele>
        <time>2023-05-31T11:03:02.000Z</time>
      </trkpt>
      <trkpt lat="45.73318" lon="5.79697">
        <ele>368</ele>
        <time>2023-05-31T11:03:04.000Z</time>
      </trkpt>
      <trkpt lat="45.73321" lon="5.79717">
        <ele>368.60000610352</ele>
        <time>2023-05-31T11:03:08.000Z</time>
      </trkpt>
      <trkpt lat="45.73322" lon="5.79727">
        <ele>369.20001220703</ele>
        <time>2023-05-31T11:03:10.000Z</time>
      </trkpt>
      <trkpt lat="45.73326" lon="5.79757">
        <ele>370.20001220703</ele>
        <time>2023-05-31T11:03:16.000Z</time>
      </trkpt>
      <trkpt lat="45.73328" lon="5.79772">
        <ele>370.60000610352</ele>
        <time>2023-05-31T11:03:19.000Z</time>
      </trkpt>
      <trkpt lat="45.73331" lon="5.79786">
        <ele>371.60000610352</ele>
        <time>2023-05-31T11:03:22.000Z</time>
      </trkpt>
      <trkpt lat="45.73335" lon="5.7981">
        <ele>372.39999389648</ele>
        <time>2023-05-31T11:03:27.000Z</time>
      </trkpt>
      <trkpt lat="45.73336" lon="5.79814">
        <ele>372.60000610352</ele>
        <time>2023-05-31T11:03:28.000Z</time>
      </trkpt>
      <trkpt lat="45.7334" lon="5.79841">
        <ele>373.60000610352</ele>
        <time>2023-05-31T11:03:34.000Z</time>
      </trkpt>
      <trkpt lat="45.73341" lon="5.79845">
        <ele>373.79998779297</ele>
        <time>2023-05-31T11:03:35.000Z</time>
      </trkpt>
      <trkpt lat="45.73345" lon="5.79872">
        <ele>374.79998779297</ele>
        <time>2023-05-31T11:03:41.000Z</time>
      </trkpt>
      <trkpt lat="45.73346" lon="5.79881">
        <ele>375.20001220703</ele>
        <time>2023-05-31T11:03:43.000Z</time>
      </trkpt>
      <trkpt lat="45.73349" lon="5.79898">
        <ele>375.79998779297</ele>
        <time>2023-05-31T11:03:47.000Z</time>
      </trkpt>
      <trkpt lat="45.73352" lon="5.79916">
        <ele>376.60000610352</ele>
        <time>2023-05-31T11:03:51.000Z</time>
      </trkpt>
      <trkpt lat="45.73352" lon="5.79921">
        <ele>376.79998779297</ele>
        <time>2023-05-31T11:03:52.000Z</time>
      </trkpt>
      <trkpt lat="45.73358" lon="5.79957">
        <ele>378</ele>
        <time>2023-05-31T11:04:00.000Z</time>
      </trkpt>
      <trkpt lat="45.73359" lon="5.79961">
        <ele>378.20001220703</ele>
        <time>2023-05-31T11:04:01.000Z</time>
      </trkpt>
      <trkpt lat="45.73363" lon="5.79979">
        <ele>379</ele>
        <time>2023-05-31T11:04:05.000Z</time>
      </trkpt>
      <trkpt lat="45.73367" lon="5.7999">
        <ele>379.39999389648</ele>
        <time>2023-05-31T11:04:08.000Z</time>
      </trkpt>
      <trkpt lat="45.73377" lon="5.8001">
        <ele>380.20001220703</ele>
        <time>2023-05-31T11:04:13.000Z</time>
      </trkpt>
      <trkpt lat="45.73381" lon="5.80018">
        <ele>380.60000610352</ele>
        <time>2023-05-31T11:04:15.000Z</time>
      </trkpt>
      <trkpt lat="45.73388" lon="5.80033">
        <ele>381.20001220703</ele>
        <time>2023-05-31T11:04:19.000Z</time>
      </trkpt>
      <trkpt lat="45.73395" lon="5.80055">
        <ele>382</ele>
        <time>2023-05-31T11:04:24.000Z</time>
      </trkpt>
      <trkpt lat="45.73397" lon="5.80066">
        <ele>382.39999389648</ele>
        <time>2023-05-31T11:04:26.000Z</time>
      </trkpt>
      <trkpt lat="45.73398" lon="5.80095">
        <ele>383</ele>
        <time>2023-05-31T11:04:32.000Z</time>
      </trkpt>
      <trkpt lat="45.73398" lon="5.80105">
        <ele>383.39999389648</ele>
        <time>2023-05-31T11:04:34.000Z</time>
      </trkpt>
      <trkpt lat="45.73397" lon="5.80141">
        <ele>384.60000610352</ele>
        <time>2023-05-31T11:04:41.000Z</time>
      </trkpt>
      <trkpt lat="45.73396" lon="5.80151">
        <ele>385</ele>
        <time>2023-05-31T11:04:43.000Z</time>
      </trkpt>
      <trkpt lat="45.73394" lon="5.80176">
        <ele>385.60000610352</ele>
        <time>2023-05-31T11:04:48.000Z</time>
      </trkpt>
      <trkpt lat="45.73393" lon="5.80195">
        <ele>386.20001220703</ele>
        <time>2023-05-31T11:04:52.000Z</time>
      </trkpt>
      <trkpt lat="45.73393" lon="5.8021">
        <ele>386.79998779297</ele>
        <time>2023-05-31T11:04:55.000Z</time>
      </trkpt>
      <trkpt lat="45.73391" lon="5.80245">
        <ele>387.79998779297</ele>
        <time>2023-05-31T11:05:02.000Z</time>
      </trkpt>
      <trkpt lat="45.73388" lon="5.80273">
        <ele>389</ele>
        <time>2023-05-31T11:05:08.000Z</time>
      </trkpt>
      <trkpt lat="45.73383" lon="5.80291">
        <ele>389.39999389648</ele>
        <time>2023-05-31T11:05:12.000Z</time>
      </trkpt>
      <trkpt lat="45.73381" lon="5.80295">
        <ele>390</ele>
        <time>2023-05-31T11:05:13.000Z</time>
      </trkpt>
      <trkpt lat="45.73368" lon="5.80309">
        <ele>391</ele>
        <time>2023-05-31T11:05:18.000Z</time>
      </trkpt>
      <trkpt lat="45.73365" lon="5.8031">
        <ele>391.20001220703</ele>
        <time>2023-05-31T11:05:19.000Z</time>
      </trkpt>
      <trkpt lat="45.73348" lon="5.80308">
        <ele>392.20001220703</ele>
        <time>2023-05-31T11:05:24.000Z</time>
      </trkpt>
      <trkpt lat="45.73335" lon="5.80294">
        <ele>393.39999389648</ele>
        <time>2023-05-31T11:05:29.000Z</time>
      </trkpt>
      <trkpt lat="45.73333" lon="5.8029">
        <ele>393.60000610352</ele>
        <time>2023-05-31T11:05:30.000Z</time>
      </trkpt>
      <trkpt lat="45.73327" lon="5.80262">
        <ele>394.60000610352</ele>
        <time>2023-05-31T11:05:36.000Z</time>
      </trkpt>
      <trkpt lat="45.7332" lon="5.80235">
        <ele>395.60000610352</ele>
        <time>2023-05-31T11:05:42.000Z</time>
      </trkpt>
      <trkpt lat="45.73317" lon="5.8023">
        <ele>395.79998779297</ele>
        <time>2023-05-31T11:05:43.000Z</time>
      </trkpt>
      <trkpt lat="45.73306" lon="5.8022">
        <ele>396.39999389648</ele>
        <time>2023-05-31T11:05:47.000Z</time>
      </trkpt>
      <trkpt lat="45.73296" lon="5.80215">
        <ele>396.60000610352</ele>
        <time>2023-05-31T11:05:50.000Z</time>
      </trkpt>
      <trkpt lat="45.73276" lon="5.80206">
        <ele>397.60000610352</ele>
        <time>2023-05-31T11:05:56.000Z</time>
      </trkpt>
      <trkpt lat="45.73273" lon="5.80204">
        <ele>398</ele>
        <time>2023-05-31T11:05:57.000Z</time>
      </trkpt>
      <trkpt lat="45.73246" lon="5.80195">
        <ele>399</ele>
        <time>2023-05-31T11:06:04.000Z</time>
      </trkpt>
      <trkpt lat="45.73229" lon="5.80188">
        <ele>399.60000610352</ele>
        <time>2023-05-31T11:06:08.000Z</time>
      </trkpt>
      <trkpt lat="45.73205" lon="5.80179">
        <ele>399.60000610352</ele>
        <time>2023-05-31T11:06:13.000Z</time>
      </trkpt>
      <trkpt lat="45.73196" lon="5.80178">
        <ele>399.79998779297</ele>
        <time>2023-05-31T11:06:15.000Z</time>
      </trkpt>
      <trkpt lat="45.73157" lon="5.80168">
        <ele>399.79998779297</ele>
        <time>2023-05-31T11:06:23.000Z</time>
      </trkpt>
      <trkpt lat="45.73147" lon="5.80166">
        <ele>399.79998779297</ele>
        <time>2023-05-31T11:06:25.000Z</time>
      </trkpt>
      <trkpt lat="45.73127" lon="5.8016">
        <ele>400</ele>
        <time>2023-05-31T11:06:29.000Z</time>
      </trkpt>
      <trkpt lat="45.73121" lon="5.80159">
        <ele>400</ele>
        <time>2023-05-31T11:06:30.000Z</time>
      </trkpt>
      <trkpt lat="45.73107" lon="5.80152">
        <ele>400</ele>
        <time>2023-05-31T11:06:33.000Z</time>
      </trkpt>
      <trkpt lat="45.73092" lon="5.80136">
        <ele>400.39999389648</ele>
        <time>2023-05-31T11:06:37.000Z</time>
      </trkpt>
      <trkpt lat="45.73088" lon="5.8013">
        <ele>400.39999389648</ele>
        <time>2023-05-31T11:06:38.000Z</time>
      </trkpt>
      <trkpt lat="45.73086" lon="5.80125">
        <ele>400.39999389648</ele>
        <time>2023-05-31T11:06:39.000Z</time>
      </trkpt>
      <trkpt lat="45.7308" lon="5.80107">
        <ele>401</ele>
        <time>2023-05-31T11:06:42.000Z</time>
      </trkpt>
      <trkpt lat="45.73079" lon="5.80101">
        <ele>401</ele>
        <time>2023-05-31T11:06:43.000Z</time>
      </trkpt>
      <trkpt lat="45.73072" lon="5.80073">
        <ele>402</ele>
        <time>2023-05-31T11:06:48.000Z</time>
      </trkpt>
      <trkpt lat="45.73071" lon="5.80068">
        <ele>402.20001220703</ele>
        <time>2023-05-31T11:06:49.000Z</time>
      </trkpt>
      <trkpt lat="45.73068" lon="5.80057">
        <ele>402.60000610352</ele>
        <time>2023-05-31T11:06:51.000Z</time>
      </trkpt>
      <trkpt lat="45.73066" lon="5.80047">
        <ele>403.20001220703</ele>
        <time>2023-05-31T11:06:53.000Z</time>
      </trkpt>
      <trkpt lat="45.7306" lon="5.80021">
        <ele>404.20001220703</ele>
        <time>2023-05-31T11:06:58.000Z</time>
      </trkpt>
      <trkpt lat="45.73056" lon="5.80012">
        <ele>404.60000610352</ele>
        <time>2023-05-31T11:07:00.000Z</time>
      </trkpt>
      <trkpt lat="45.73044" lon="5.79983">
        <ele>405.39999389648</ele>
        <time>2023-05-31T11:07:06.000Z</time>
      </trkpt>
      <trkpt lat="45.73039" lon="5.79975">
        <ele>405.79998779297</ele>
        <time>2023-05-31T11:07:08.000Z</time>
      </trkpt>
      <trkpt lat="45.73034" lon="5.79966">
        <ele>406.20001220703</ele>
        <time>2023-05-31T11:07:10.000Z</time>
      </trkpt>
      <trkpt lat="45.73029" lon="5.79958">
        <ele>406.60000610352</ele>
        <time>2023-05-31T11:07:12.000Z</time>
      </trkpt>
      <trkpt lat="45.73013" lon="5.79935">
        <ele>407.60000610352</ele>
        <time>2023-05-31T11:07:18.000Z</time>
      </trkpt>
      <trkpt lat="45.73007" lon="5.79928">
        <ele>407.79998779297</ele>
        <time>2023-05-31T11:07:20.000Z</time>
      </trkpt>
      <trkpt lat="45.72981" lon="5.79895">
        <ele>408.79998779297</ele>
        <time>2023-05-31T11:07:29.000Z</time>
      </trkpt>
      <trkpt lat="45.72978" lon="5.79891">
        <ele>409</ele>
        <time>2023-05-31T11:07:30.000Z</time>
      </trkpt>
      <trkpt lat="45.72961" lon="5.79869">
        <ele>410</ele>
        <time>2023-05-31T11:07:36.000Z</time>
      </trkpt>
      <trkpt lat="45.72941" lon="5.79844">
        <ele>411</ele>
        <time>2023-05-31T11:07:43.000Z</time>
      </trkpt>
      <trkpt lat="45.72938" lon="5.79841">
        <ele>411.39999389648</ele>
        <time>2023-05-31T11:07:44.000Z</time>
      </trkpt>
      <trkpt lat="45.72918" lon="5.79815">
        <ele>412.39999389648</ele>
        <time>2023-05-31T11:07:51.000Z</time>
      </trkpt>
      <trkpt lat="45.72902" lon="5.79792">
        <ele>413.60000610352</ele>
        <time>2023-05-31T11:07:57.000Z</time>
      </trkpt>
      <trkpt lat="45.72893" lon="5.79782">
        <ele>414.20001220703</ele>
        <time>2023-05-31T11:08:00.000Z</time>
      </trkpt>
      <trkpt lat="45.7289" lon="5.79778">
        <ele>414.39999389648</ele>
        <time>2023-05-31T11:08:02.000Z</time>
      </trkpt>
      <trkpt lat="45.72881" lon="5.79768">
        <ele>414.79998779297</ele>
        <time>2023-05-31T11:08:04.000Z</time>
      </trkpt>
      <trkpt lat="45.72863" lon="5.7975">
        <ele>415.79998779297</ele>
        <time>2023-05-31T11:08:10.000Z</time>
      </trkpt>
      <trkpt lat="45.72834" lon="5.79728">
        <ele>417</ele>
        <time>2023-05-31T11:08:19.000Z</time>
      </trkpt>
      <trkpt lat="45.7283" lon="5.79726">
        <ele>417.20001220703</ele>
        <time>2023-05-31T11:08:20.000Z</time>
      </trkpt>
      <trkpt lat="45.72805" lon="5.79716">
        <ele>418</ele>
        <time>2023-05-31T11:08:27.000Z</time>
      </trkpt>
      <trkpt lat="45.72786" lon="5.79713">
        <ele>419.20001220703</ele>
        <time>2023-05-31T11:08:32.000Z</time>
      </trkpt>
      <trkpt lat="45.7277" lon="5.7971">
        <ele>419.79998779297</ele>
        <time>2023-05-31T11:08:36.000Z</time>
      </trkpt>
      <trkpt lat="45.72753" lon="5.79707">
        <ele>420.39999389648</ele>
        <time>2023-05-31T11:08:40.000Z</time>
      </trkpt>
      <trkpt lat="45.72741" lon="5.79708">
        <ele>420.79998779297</ele>
        <time>2023-05-31T11:08:43.000Z</time>
      </trkpt>
      <trkpt lat="45.72736" lon="5.7971">
        <ele>420.79998779297</ele>
        <time>2023-05-31T11:08:44.000Z</time>
      </trkpt>
      <trkpt lat="45.72732" lon="5.79712">
        <ele>420.79998779297</ele>
        <time>2023-05-31T11:08:45.000Z</time>
      </trkpt>
      <trkpt lat="45.72722" lon="5.79722">
        <ele>421</ele>
        <time>2023-05-31T11:08:48.000Z</time>
      </trkpt>
      <trkpt lat="45.72719" lon="5.79727">
        <ele>421</ele>
        <time>2023-05-31T11:08:49.000Z</time>
      </trkpt>
      <trkpt lat="45.72716" lon="5.79733">
        <ele>421</ele>
        <time>2023-05-31T11:08:50.000Z</time>
      </trkpt>
      <trkpt lat="45.72711" lon="5.7975">
        <ele>421</ele>
        <time>2023-05-31T11:08:53.000Z</time>
      </trkpt>
      <trkpt lat="45.7271" lon="5.79757">
        <ele>421</ele>
        <time>2023-05-31T11:08:54.000Z</time>
      </trkpt>
      <trkpt lat="45.7271" lon="5.79764">
        <ele>421</ele>
        <time>2023-05-31T11:08:55.000Z</time>
      </trkpt>
      <trkpt lat="45.72712" lon="5.79794">
        <ele>421</ele>
        <time>2023-05-31T11:08:59.000Z</time>
      </trkpt>
      <trkpt lat="45.72717" lon="5.79866">
        <ele>421.20001220703</ele>
        <time>2023-05-31T11:09:08.000Z</time>
      </trkpt>
      <trkpt lat="45.7272" lon="5.79923">
        <ele>421</ele>
        <time>2023-05-31T11:09:15.000Z</time>
      </trkpt>
      <trkpt lat="45.72719" lon="5.79939">
        <ele>421.20001220703</ele>
        <time>2023-05-31T11:09:17.000Z</time>
      </trkpt>
      <trkpt lat="45.7271" lon="5.79993">
        <ele>421.39999389648</ele>
        <time>2023-05-31T11:09:24.000Z</time>
      </trkpt>
      <trkpt lat="45.72708" lon="5.8">
        <ele>421.39999389648</ele>
        <time>2023-05-31T11:09:25.000Z</time>
      </trkpt>
      <trkpt lat="45.72691" lon="5.80074">
        <ele>422.39999389648</ele>
        <time>2023-05-31T11:09:35.000Z</time>
      </trkpt>
      <trkpt lat="45.72687" lon="5.80088">
        <ele>422.39999389648</ele>
        <time>2023-05-31T11:09:37.000Z</time>
      </trkpt>
      <trkpt lat="45.72683" lon="5.80126">
        <ele>422.79998779297</ele>
        <time>2023-05-31T11:09:42.000Z</time>
      </trkpt>
      <trkpt lat="45.72685" lon="5.80181">
        <ele>423.20001220703</ele>
        <time>2023-05-31T11:09:49.000Z</time>
      </trkpt>
      <trkpt lat="45.72685" lon="5.80189">
        <ele>423.39999389648</ele>
        <time>2023-05-31T11:09:50.000Z</time>
      </trkpt>
      <trkpt lat="45.72683" lon="5.80204">
        <ele>423.39999389648</ele>
        <time>2023-05-31T11:09:52.000Z</time>
      </trkpt>
      <trkpt lat="45.7268" lon="5.80211">
        <ele>423.39999389648</ele>
        <time>2023-05-31T11:09:53.000Z</time>
      </trkpt>
      <trkpt lat="45.72677" lon="5.80218">
        <ele>423.39999389648</ele>
        <time>2023-05-31T11:09:54.000Z</time>
      </trkpt>
      <trkpt lat="45.72668" lon="5.80228">
        <ele>423.39999389648</ele>
        <time>2023-05-31T11:09:56.000Z</time>
      </trkpt>
      <trkpt lat="45.72663" lon="5.80231">
        <ele>423.39999389648</ele>
        <time>2023-05-31T11:09:57.000Z</time>
      </trkpt>
      <trkpt lat="45.72653" lon="5.80235">
        <ele>423.60000610352</ele>
        <time>2023-05-31T11:09:59.000Z</time>
      </trkpt>
      <trkpt lat="45.72637" lon="5.80237">
        <ele>423.79998779297</ele>
        <time>2023-05-31T11:10:02.000Z</time>
      </trkpt>
      <trkpt lat="45.72626" lon="5.80235">
        <ele>424</ele>
        <time>2023-05-31T11:10:04.000Z</time>
      </trkpt>
      <trkpt lat="45.72616" lon="5.8023">
        <ele>424</ele>
        <time>2023-05-31T11:10:06.000Z</time>
      </trkpt>
      <trkpt lat="45.72611" lon="5.80226">
        <ele>424</ele>
        <time>2023-05-31T11:10:07.000Z</time>
      </trkpt>
      <trkpt lat="45.72606" lon="5.80222">
        <ele>424</ele>
        <time>2023-05-31T11:10:08.000Z</time>
      </trkpt>
      <trkpt lat="45.72584" lon="5.80202">
        <ele>424.39999389648</ele>
        <time>2023-05-31T11:10:13.000Z</time>
      </trkpt>
      <trkpt lat="45.72574" lon="5.80196">
        <ele>424.60000610352</ele>
        <time>2023-05-31T11:10:15.000Z</time>
      </trkpt>
      <trkpt lat="45.72548" lon="5.80185">
        <ele>424.79998779297</ele>
        <time>2023-05-31T11:10:20.000Z</time>
      </trkpt>
      <trkpt lat="45.72501" lon="5.80179">
        <ele>424.79998779297</ele>
        <time>2023-05-31T11:10:29.000Z</time>
      </trkpt>
      <trkpt lat="45.72458" lon="5.80189">
        <ele>424.79998779297</ele>
        <time>2023-05-31T11:10:37.000Z</time>
      </trkpt>
      <trkpt lat="45.72449" lon="5.80197">
        <ele>424.79998779297</ele>
        <time>2023-05-31T11:10:39.000Z</time>
      </trkpt>
      <trkpt lat="45.72441" lon="5.80207">
        <ele>424.79998779297</ele>
        <time>2023-05-31T11:10:41.000Z</time>
      </trkpt>
      <trkpt lat="45.72435" lon="5.80219">
        <ele>424.79998779297</ele>
        <time>2023-05-31T11:10:43.000Z</time>
      </trkpt>
      <trkpt lat="45.72432" lon="5.80233">
        <ele>425</ele>
        <time>2023-05-31T11:10:45.000Z</time>
      </trkpt>
      <trkpt lat="45.7243" lon="5.80269">
        <ele>425.60000610352</ele>
        <time>2023-05-31T11:10:50.000Z</time>
      </trkpt>
      <trkpt lat="45.72429" lon="5.80276">
        <ele>425.60000610352</ele>
        <time>2023-05-31T11:10:51.000Z</time>
      </trkpt>
      <trkpt lat="45.72427" lon="5.80282">
        <ele>425.60000610352</ele>
        <time>2023-05-31T11:10:52.000Z</time>
      </trkpt>
      <trkpt lat="45.72424" lon="5.80289">
        <ele>425.79998779297</ele>
        <time>2023-05-31T11:10:53.000Z</time>
      </trkpt>
      <trkpt lat="45.72417" lon="5.80299">
        <ele>425.79998779297</ele>
        <time>2023-05-31T11:10:55.000Z</time>
      </trkpt>
      <trkpt lat="45.72403" lon="5.80307">
        <ele>426.20001220703</ele>
        <time>2023-05-31T11:10:58.000Z</time>
      </trkpt>
      <trkpt lat="45.72393" lon="5.8031">
        <ele>426.39999389648</ele>
        <time>2023-05-31T11:11:00.000Z</time>
      </trkpt>
      <trkpt lat="45.72378" lon="5.80313">
        <ele>426.79998779297</ele>
        <time>2023-05-31T11:11:03.000Z</time>
      </trkpt>
      <trkpt lat="45.72362" lon="5.80319">
        <ele>426.79998779297</ele>
        <time>2023-05-31T11:11:06.000Z</time>
      </trkpt>
      <trkpt lat="45.72357" lon="5.80322">
        <ele>426.79998779297</ele>
        <time>2023-05-31T11:11:07.000Z</time>
      </trkpt>
      <trkpt lat="45.72322" lon="5.80351">
        <ele>426.79998779297</ele>
        <time>2023-05-31T11:11:14.000Z</time>
      </trkpt>
      <trkpt lat="45.72274" lon="5.80394">
        <ele>425.60000610352</ele>
        <time>2023-05-31T11:11:23.000Z</time>
      </trkpt>
      <trkpt lat="45.72267" lon="5.80398">
        <ele>425.39999389648</ele>
        <time>2023-05-31T11:11:24.000Z</time>
      </trkpt>
      <trkpt lat="45.72254" lon="5.80403">
        <ele>424.79998779297</ele>
        <time>2023-05-31T11:11:26.000Z</time>
      </trkpt>
      <trkpt lat="45.7224" lon="5.80405">
        <ele>424.79998779297</ele>
        <time>2023-05-31T11:11:28.000Z</time>
      </trkpt>
      <trkpt lat="45.72233" lon="5.80405">
        <ele>424.20001220703</ele>
        <time>2023-05-31T11:11:29.000Z</time>
      </trkpt>
      <trkpt lat="45.722" lon="5.80403">
        <ele>423</ele>
        <time>2023-05-31T11:11:33.000Z</time>
      </trkpt>
      <trkpt lat="45.72194" lon="5.80402">
        <ele>422.60000610352</ele>
        <time>2023-05-31T11:11:34.000Z</time>
      </trkpt>
      <trkpt lat="45.7216" lon="5.80394">
        <ele>421.60000610352</ele>
        <time>2023-05-31T11:11:38.000Z</time>
      </trkpt>
      <trkpt lat="45.72143" lon="5.80391">
        <ele>421</ele>
        <time>2023-05-31T11:11:40.000Z</time>
      </trkpt>
      <trkpt lat="45.72135" lon="5.80391">
        <ele>420.60000610352</ele>
        <time>2023-05-31T11:11:41.000Z</time>
      </trkpt>
      <trkpt lat="45.72126" lon="5.80393">
        <ele>420</ele>
        <time>2023-05-31T11:11:42.000Z</time>
      </trkpt>
      <trkpt lat="45.72118" lon="5.80396">
        <ele>419.39999389648</ele>
        <time>2023-05-31T11:11:43.000Z</time>
      </trkpt>
      <trkpt lat="45.7211" lon="5.80402">
        <ele>419.20001220703</ele>
        <time>2023-05-31T11:11:44.000Z</time>
      </trkpt>
      <trkpt lat="45.72088" lon="5.80424">
        <ele>418.39999389648</ele>
        <time>2023-05-31T11:11:47.000Z</time>
      </trkpt>
      <trkpt lat="45.72081" lon="5.80432">
        <ele>418.20001220703</ele>
        <time>2023-05-31T11:11:48.000Z</time>
      </trkpt>
      <trkpt lat="45.72049" lon="5.80467">
        <ele>417.39999389648</ele>
        <time>2023-05-31T11:11:53.000Z</time>
      </trkpt>
      <trkpt lat="45.72043" lon="5.80473">
        <ele>417.20001220703</ele>
        <time>2023-05-31T11:11:54.000Z</time>
      </trkpt>
      <trkpt lat="45.72026" lon="5.80494">
        <ele>416.79998779297</ele>
        <time>2023-05-31T11:11:57.000Z</time>
      </trkpt>
      <trkpt lat="45.72017" lon="5.80509">
        <ele>416.39999389648</ele>
        <time>2023-05-31T11:11:59.000Z</time>
      </trkpt>
      <trkpt lat="45.7201" lon="5.80527">
        <ele>416.39999389648</ele>
        <time>2023-05-31T11:12:01.000Z</time>
      </trkpt>
      <trkpt lat="45.72004" lon="5.80546">
        <ele>416.39999389648</ele>
        <time>2023-05-31T11:12:03.000Z</time>
      </trkpt>
      <trkpt lat="45.7199" lon="5.80621">
        <ele>416.39999389648</ele>
        <time>2023-05-31T11:12:11.000Z</time>
      </trkpt>
      <trkpt lat="45.71987" lon="5.80639">
        <ele>416.60000610352</ele>
        <time>2023-05-31T11:12:13.000Z</time>
      </trkpt>
      <trkpt lat="45.71985" lon="5.80665">
        <ele>416.60000610352</ele>
        <time>2023-05-31T11:12:16.000Z</time>
      </trkpt>
      <trkpt lat="45.71985" lon="5.80692">
        <ele>416.79998779297</ele>
        <time>2023-05-31T11:12:19.000Z</time>
      </trkpt>
      <trkpt lat="45.71983" lon="5.80763">
        <ele>416.79998779297</ele>
        <time>2023-05-31T11:12:27.000Z</time>
      </trkpt>
      <trkpt lat="45.71981" lon="5.8078">
        <ele>416.60000610352</ele>
        <time>2023-05-31T11:12:29.000Z</time>
      </trkpt>
      <trkpt lat="45.71974" lon="5.80804">
        <ele>416.60000610352</ele>
        <time>2023-05-31T11:12:32.000Z</time>
      </trkpt>
      <trkpt lat="45.7196" lon="5.8084">
        <ele>416.79998779297</ele>
        <time>2023-05-31T11:12:37.000Z</time>
      </trkpt>
      <trkpt lat="45.71954" lon="5.80852">
        <ele>417.20001220703</ele>
        <time>2023-05-31T11:12:39.000Z</time>
      </trkpt>
      <trkpt lat="45.71951" lon="5.80859">
        <ele>417.20001220703</ele>
        <time>2023-05-31T11:12:40.000Z</time>
      </trkpt>
      <trkpt lat="45.71942" lon="5.80885">
        <ele>418</ele>
        <time>2023-05-31T11:12:44.000Z</time>
      </trkpt>
      <trkpt lat="45.71939" lon="5.80891">
        <ele>418.20001220703</ele>
        <time>2023-05-31T11:12:45.000Z</time>
      </trkpt>
      <trkpt lat="45.7193" lon="5.80925">
        <ele>419.20001220703</ele>
        <time>2023-05-31T11:12:50.000Z</time>
      </trkpt>
      <trkpt lat="45.71929" lon="5.80932">
        <ele>419.39999389648</ele>
        <time>2023-05-31T11:12:51.000Z</time>
      </trkpt>
      <trkpt lat="45.71923" lon="5.80969">
        <ele>420.39999389648</ele>
        <time>2023-05-31T11:12:56.000Z</time>
      </trkpt>
      <trkpt lat="45.71917" lon="5.80993">
        <ele>420.39999389648</ele>
        <time>2023-05-31T11:12:59.000Z</time>
      </trkpt>
      <trkpt lat="45.71915" lon="5.81">
        <ele>420.39999389648</ele>
        <time>2023-05-31T11:13:00.000Z</time>
      </trkpt>
      <trkpt lat="45.7189" lon="5.8105">
        <ele>420</ele>
        <time>2023-05-31T11:13:07.000Z</time>
      </trkpt>
      <trkpt lat="45.71867" lon="5.81079">
        <ele>419.60000610352</ele>
        <time>2023-05-31T11:13:12.000Z</time>
      </trkpt>
      <trkpt lat="45.71855" lon="5.8109">
        <ele>419.20001220703</ele>
        <time>2023-05-31T11:13:14.000Z</time>
      </trkpt>
      <trkpt lat="45.71827" lon="5.81112">
        <ele>418.20001220703</ele>
        <time>2023-05-31T11:13:18.000Z</time>
      </trkpt>
      <trkpt lat="45.7182" lon="5.81117">
        <ele>417.79998779297</ele>
        <time>2023-05-31T11:13:19.000Z</time>
      </trkpt>
      <trkpt lat="45.71799" lon="5.81136">
        <ele>417</ele>
        <time>2023-05-31T11:13:22.000Z</time>
      </trkpt>
      <trkpt lat="45.71785" lon="5.81152">
        <ele>416.20001220703</ele>
        <time>2023-05-31T11:13:24.000Z</time>
      </trkpt>
      <trkpt lat="45.7178" lon="5.81158">
        <ele>415.79998779297</ele>
        <time>2023-05-31T11:13:25.000Z</time>
      </trkpt>
      <trkpt lat="45.71753" lon="5.81189">
        <ele>415.39999389648</ele>
        <time>2023-05-31T11:13:30.000Z</time>
      </trkpt>
      <trkpt lat="45.71716" lon="5.81219">
        <ele>414.79998779297</ele>
        <time>2023-05-31T11:13:36.000Z</time>
      </trkpt>
      <trkpt lat="45.71666" lon="5.8126">
        <ele>413.79998779297</ele>
        <time>2023-05-31T11:13:44.000Z</time>
      </trkpt>
      <trkpt lat="45.7166" lon="5.81266">
        <ele>413.60000610352</ele>
        <time>2023-05-31T11:13:45.000Z</time>
      </trkpt>
      <trkpt lat="45.71653" lon="5.81272">
        <ele>413.39999389648</ele>
        <time>2023-05-31T11:13:46.000Z</time>
      </trkpt>
      <trkpt lat="45.71628" lon="5.81299">
        <ele>412.20001220703</ele>
        <time>2023-05-31T11:13:50.000Z</time>
      </trkpt>
      <trkpt lat="45.71617" lon="5.81315">
        <ele>411.79998779297</ele>
        <time>2023-05-31T11:13:52.000Z</time>
      </trkpt>
      <trkpt lat="45.71601" lon="5.81341">
        <ele>411.20001220703</ele>
        <time>2023-05-31T11:13:55.000Z</time>
      </trkpt>
      <trkpt lat="45.71596" lon="5.81351">
        <ele>411</ele>
        <time>2023-05-31T11:13:56.000Z</time>
      </trkpt>
      <trkpt lat="45.71592" lon="5.81362">
        <ele>410.60000610352</ele>
        <time>2023-05-31T11:13:57.000Z</time>
      </trkpt>
      <trkpt lat="45.7159" lon="5.81374">
        <ele>410.39999389648</ele>
        <time>2023-05-31T11:13:58.000Z</time>
      </trkpt>
      <trkpt lat="45.71589" lon="5.81386">
        <ele>410.20001220703</ele>
        <time>2023-05-31T11:13:59.000Z</time>
      </trkpt>
      <trkpt lat="45.7159" lon="5.81398">
        <ele>409.79998779297</ele>
        <time>2023-05-31T11:14:00.000Z</time>
      </trkpt>
      <trkpt lat="45.71596" lon="5.81422">
        <ele>409.20001220703</ele>
        <time>2023-05-31T11:14:02.000Z</time>
      </trkpt>
      <trkpt lat="45.71605" lon="5.81448">
        <ele>408.39999389648</ele>
        <time>2023-05-31T11:14:04.000Z</time>
      </trkpt>
      <trkpt lat="45.71608" lon="5.81458">
        <ele>407.79998779297</ele>
        <time>2023-05-31T11:14:05.000Z</time>
      </trkpt>
      <trkpt lat="45.71621" lon="5.81497">
        <ele>406.79998779297</ele>
        <time>2023-05-31T11:14:08.000Z</time>
      </trkpt>
      <trkpt lat="45.71634" lon="5.81535">
        <ele>405.39999389648</ele>
        <time>2023-05-31T11:14:11.000Z</time>
      </trkpt>
      <trkpt lat="45.71644" lon="5.81559">
        <ele>404.60000610352</ele>
        <time>2023-05-31T11:14:13.000Z</time>
      </trkpt>
      <trkpt lat="45.7165" lon="5.81569">
        <ele>404.20001220703</ele>
        <time>2023-05-31T11:14:14.000Z</time>
      </trkpt>
      <trkpt lat="45.71656" lon="5.81578">
        <ele>404</ele>
        <time>2023-05-31T11:14:15.000Z</time>
      </trkpt>
      <trkpt lat="45.71669" lon="5.81592">
        <ele>403.60000610352</ele>
        <time>2023-05-31T11:14:17.000Z</time>
      </trkpt>
      <trkpt lat="45.71683" lon="5.81602">
        <ele>403.60000610352</ele>
        <time>2023-05-31T11:14:19.000Z</time>
      </trkpt>
      <trkpt lat="45.71718" lon="5.81625">
        <ele>404.39999389648</ele>
        <time>2023-05-31T11:14:25.000Z</time>
      </trkpt>
      <trkpt lat="45.71742" lon="5.81644">
        <ele>405.20001220703</ele>
        <time>2023-05-31T11:14:30.000Z</time>
      </trkpt>
      <trkpt lat="45.7175" lon="5.81652">
        <ele>405.60000610352</ele>
        <time>2023-05-31T11:14:32.000Z</time>
      </trkpt>
      <trkpt lat="45.71754" lon="5.81656">
        <ele>405.79998779297</ele>
        <time>2023-05-31T11:14:33.000Z</time>
      </trkpt>
      <trkpt lat="45.71763" lon="5.81673">
        <ele>406.20001220703</ele>
        <time>2023-05-31T11:14:36.000Z</time>
      </trkpt>
      <trkpt lat="45.71766" lon="5.81679">
        <ele>406.20001220703</ele>
        <time>2023-05-31T11:14:37.000Z</time>
      </trkpt>
      <trkpt lat="45.71769" lon="5.81686">
        <ele>406.20001220703</ele>
        <time>2023-05-31T11:14:38.000Z</time>
      </trkpt>
      <trkpt lat="45.71773" lon="5.81707">
        <ele>406.60000610352</ele>
        <time>2023-05-31T11:14:41.000Z</time>
      </trkpt>
      <trkpt lat="45.71777" lon="5.81751">
        <ele>407</ele>
        <time>2023-05-31T11:14:47.000Z</time>
      </trkpt>
      <trkpt lat="45.71772" lon="5.81788">
        <ele>407.39999389648</ele>
        <time>2023-05-31T11:14:52.000Z</time>
      </trkpt>
      <trkpt lat="45.71769" lon="5.81795">
        <ele>407.39999389648</ele>
        <time>2023-05-31T11:14:53.000Z</time>
      </trkpt>
      <trkpt lat="45.71765" lon="5.81809">
        <ele>407.39999389648</ele>
        <time>2023-05-31T11:14:55.000Z</time>
      </trkpt>
      <trkpt lat="45.71752" lon="5.81833">
        <ele>407.60000610352</ele>
        <time>2023-05-31T11:14:59.000Z</time>
      </trkpt>
      <trkpt lat="45.71719" lon="5.8189">
        <ele>407.79998779297</ele>
        <time>2023-05-31T11:15:09.000Z</time>
      </trkpt>
      <trkpt lat="45.71712" lon="5.819">
        <ele>408</ele>
        <time>2023-05-31T11:15:11.000Z</time>
      </trkpt>
      <trkpt lat="45.71708" lon="5.81904">
        <ele>408.20001220703</ele>
        <time>2023-05-31T11:15:12.000Z</time>
      </trkpt>
      <trkpt lat="45.71696" lon="5.81914">
        <ele>408.60000610352</ele>
        <time>2023-05-31T11:15:15.000Z</time>
      </trkpt>
      <trkpt lat="45.71668" lon="5.81933">
        <ele>409.39999389648</ele>
        <time>2023-05-31T11:15:22.000Z</time>
      </trkpt>
      <trkpt lat="45.71664" lon="5.81935">
        <ele>409.60000610352</ele>
        <time>2023-05-31T11:15:23.000Z</time>
      </trkpt>
      <trkpt lat="45.71644" lon="5.8195">
        <ele>410.79998779297</ele>
        <time>2023-05-31T11:15:29.000Z</time>
      </trkpt>
      <trkpt lat="45.71641" lon="5.81953">
        <ele>411</ele>
        <time>2023-05-31T11:15:30.000Z</time>
      </trkpt>
      <trkpt lat="45.71626" lon="5.81969">
        <ele>412</ele>
        <time>2023-05-31T11:15:35.000Z</time>
      </trkpt>
      <trkpt lat="45.71619" lon="5.8198">
        <ele>412.60000610352</ele>
        <time>2023-05-31T11:15:38.000Z</time>
      </trkpt>
      <trkpt lat="45.71614" lon="5.81989">
        <ele>413</ele>
        <time>2023-05-31T11:15:40.000Z</time>
      </trkpt>
      <trkpt lat="45.71604" lon="5.82009">
        <ele>414.20001220703</ele>
        <time>2023-05-31T11:15:45.000Z</time>
      </trkpt>
      <trkpt lat="45.7159" lon="5.82042">
        <ele>415.39999389648</ele>
        <time>2023-05-31T11:15:52.000Z</time>
      </trkpt>
      <trkpt lat="45.71584" lon="5.82056">
        <ele>415.79998779297</ele>
        <time>2023-05-31T11:15:55.000Z</time>
      </trkpt>
      <trkpt lat="45.71576" lon="5.82076">
        <ele>416.60000610352</ele>
        <time>2023-05-31T11:15:59.000Z</time>
      </trkpt>
      <trkpt lat="45.71565" lon="5.82101">
        <ele>417.20001220703</ele>
        <time>2023-05-31T11:16:04.000Z</time>
      </trkpt>
      <trkpt lat="45.71554" lon="5.8213">
        <ele>417.60000610352</ele>
        <time>2023-05-31T11:16:09.000Z</time>
      </trkpt>
      <trkpt lat="45.71546" lon="5.82155">
        <ele>417.79998779297</ele>
        <time>2023-05-31T11:16:13.000Z</time>
      </trkpt>
      <trkpt lat="45.71533" lon="5.82202">
        <ele>417.39999389648</ele>
        <time>2023-05-31T11:16:19.000Z</time>
      </trkpt>
      <trkpt lat="45.71522" lon="5.82256">
        <ele>416.39999389648</ele>
        <time>2023-05-31T11:16:25.000Z</time>
      </trkpt>
      <trkpt lat="45.71509" lon="5.82327">
        <ele>415.20001220703</ele>
        <time>2023-05-31T11:16:32.000Z</time>
      </trkpt>
      <trkpt lat="45.71508" lon="5.82337">
        <ele>415.20001220703</ele>
        <time>2023-05-31T11:16:33.000Z</time>
      </trkpt>
      <trkpt lat="45.71495" lon="5.82415">
        <ele>414.60000610352</ele>
        <time>2023-05-31T11:16:41.000Z</time>
      </trkpt>
      <trkpt lat="45.71492" lon="5.82434">
        <ele>414.39999389648</ele>
        <time>2023-05-31T11:16:43.000Z</time>
      </trkpt>
      <trkpt lat="45.71485" lon="5.82473">
        <ele>414.20001220703</ele>
        <time>2023-05-31T11:16:47.000Z</time>
      </trkpt>
      <trkpt lat="45.71478" lon="5.82515">
        <ele>414.20001220703</ele>
        <time>2023-05-31T11:16:52.000Z</time>
      </trkpt>
      <trkpt lat="45.71469" lon="5.82559">
        <ele>414.39999389648</ele>
        <time>2023-05-31T11:16:57.000Z</time>
      </trkpt>
      <trkpt lat="45.71467" lon="5.82567">
        <ele>414.39999389648</ele>
        <time>2023-05-31T11:16:58.000Z</time>
      </trkpt>
      <trkpt lat="45.71456" lon="5.826">
        <ele>414.39999389648</ele>
        <time>2023-05-31T11:17:02.000Z</time>
      </trkpt>
      <trkpt lat="45.71453" lon="5.82606">
        <ele>414.39999389648</ele>
        <time>2023-05-31T11:17:03.000Z</time>
      </trkpt>
      <trkpt lat="45.71447" lon="5.82615">
        <ele>414.20001220703</ele>
        <time>2023-05-31T11:17:04.000Z</time>
      </trkpt>
      <trkpt lat="45.7143" lon="5.82631">
        <ele>414.20001220703</ele>
        <time>2023-05-31T11:17:07.000Z</time>
      </trkpt>
      <trkpt lat="45.71375" lon="5.82661">
        <ele>414</ele>
        <time>2023-05-31T11:17:16.000Z</time>
      </trkpt>
      <trkpt lat="45.71325" lon="5.82696">
        <ele>413.20001220703</ele>
        <time>2023-05-31T11:17:24.000Z</time>
      </trkpt>
      <trkpt lat="45.71318" lon="5.827">
        <ele>413</ele>
        <time>2023-05-31T11:17:25.000Z</time>
      </trkpt>
      <trkpt lat="45.71289" lon="5.82726">
        <ele>412.20001220703</ele>
        <time>2023-05-31T11:17:30.000Z</time>
      </trkpt>
      <trkpt lat="45.71284" lon="5.82733">
        <ele>412</ele>
        <time>2023-05-31T11:17:31.000Z</time>
      </trkpt>
      <trkpt lat="45.71264" lon="5.82766">
        <ele>410.79998779297</ele>
        <time>2023-05-31T11:17:35.000Z</time>
      </trkpt>
      <trkpt lat="45.71255" lon="5.82784">
        <ele>410.20001220703</ele>
        <time>2023-05-31T11:17:37.000Z</time>
      </trkpt>
      <trkpt lat="45.71239" lon="5.82807">
        <ele>409.79998779297</ele>
        <time>2023-05-31T11:17:40.000Z</time>
      </trkpt>
      <trkpt lat="45.71233" lon="5.82814">
        <ele>409.39999389648</ele>
        <time>2023-05-31T11:17:41.000Z</time>
      </trkpt>
      <trkpt lat="45.71226" lon="5.8282">
        <ele>409.20001220703</ele>
        <time>2023-05-31T11:17:42.000Z</time>
      </trkpt>
      <trkpt lat="45.71218" lon="5.82825">
        <ele>409.20001220703</ele>
        <time>2023-05-31T11:17:43.000Z</time>
      </trkpt>
      <trkpt lat="45.71203" lon="5.82831">
        <ele>408.79998779297</ele>
        <time>2023-05-31T11:17:45.000Z</time>
      </trkpt>
      <trkpt lat="45.71197" lon="5.82833">
        <ele>408.79998779297</ele>
        <time>2023-05-31T11:17:46.000Z</time>
      </trkpt>
      <trkpt lat="45.71182" lon="5.82834">
        <ele>408.60000610352</ele>
        <time>2023-05-31T11:17:48.000Z</time>
      </trkpt>
      <trkpt lat="45.71159" lon="5.82833">
        <ele>408.20001220703</ele>
        <time>2023-05-31T11:17:51.000Z</time>
      </trkpt>
      <trkpt lat="45.71115" lon="5.82837">
        <ele>407.60000610352</ele>
        <time>2023-05-31T11:17:57.000Z</time>
      </trkpt>
      <trkpt lat="45.71067" lon="5.82851">
        <ele>406.79998779297</ele>
        <time>2023-05-31T11:18:04.000Z</time>
      </trkpt>
      <trkpt lat="45.71027" lon="5.82862">
        <ele>406.60000610352</ele>
        <time>2023-05-31T11:18:10.000Z</time>
      </trkpt>
      <trkpt lat="45.70983" lon="5.82881">
        <ele>406.60000610352</ele>
        <time>2023-05-31T11:18:17.000Z</time>
      </trkpt>
      <trkpt lat="45.7097" lon="5.82883">
        <ele>406.60000610352</ele>
        <time>2023-05-31T11:18:19.000Z</time>
      </trkpt>
      <trkpt lat="45.70957" lon="5.82882">
        <ele>406.79998779297</ele>
        <time>2023-05-31T11:18:21.000Z</time>
      </trkpt>
      <trkpt lat="45.70915" lon="5.82874">
        <ele>406.79998779297</ele>
        <time>2023-05-31T11:18:28.000Z</time>
      </trkpt>
      <trkpt lat="45.70879" lon="5.82863">
        <ele>406.60000610352</ele>
        <time>2023-05-31T11:18:34.000Z</time>
      </trkpt>
      <trkpt lat="45.70864" lon="5.82864">
        <ele>406.39999389648</ele>
        <time>2023-05-31T11:18:36.000Z</time>
      </trkpt>
      <trkpt lat="45.70849" lon="5.82868">
        <ele>405.79998779297</ele>
        <time>2023-05-31T11:18:38.000Z</time>
      </trkpt>
      <trkpt lat="45.70842" lon="5.82872">
        <ele>405.79998779297</ele>
        <time>2023-05-31T11:18:39.000Z</time>
      </trkpt>
      <trkpt lat="45.70835" lon="5.82877">
        <ele>405.39999389648</ele>
        <time>2023-05-31T11:18:40.000Z</time>
      </trkpt>
      <trkpt lat="45.70829" lon="5.82884">
        <ele>405</ele>
        <time>2023-05-31T11:18:41.000Z</time>
      </trkpt>
      <trkpt lat="45.70823" lon="5.82892">
        <ele>404.60000610352</ele>
        <time>2023-05-31T11:18:42.000Z</time>
      </trkpt>
      <trkpt lat="45.70807" lon="5.82919">
        <ele>403.79998779297</ele>
        <time>2023-05-31T11:18:45.000Z</time>
      </trkpt>
      <trkpt lat="45.70795" lon="5.82936">
        <ele>403</ele>
        <time>2023-05-31T11:18:47.000Z</time>
      </trkpt>
      <trkpt lat="45.70786" lon="5.82944">
        <ele>402.79998779297</ele>
        <time>2023-05-31T11:18:48.000Z</time>
      </trkpt>
      <trkpt lat="45.70782" lon="5.82947">
        <ele>402.39999389648</ele>
        <time>2023-05-31T11:18:49.000Z</time>
      </trkpt>
      <trkpt lat="45.70756" lon="5.82955">
        <ele>401.39999389648</ele>
        <time>2023-05-31T11:18:52.000Z</time>
      </trkpt>
      <trkpt lat="45.70718" lon="5.82953">
        <ele>400.79998779297</ele>
        <time>2023-05-31T11:18:57.000Z</time>
      </trkpt>
      <trkpt lat="45.70674" lon="5.82951">
        <ele>400.79998779297</ele>
        <time>2023-05-31T11:19:04.000Z</time>
      </trkpt>
      <trkpt lat="45.70644" lon="5.82952">
        <ele>401</ele>
        <time>2023-05-31T11:19:09.000Z</time>
      </trkpt>
      <trkpt lat="45.70595" lon="5.82963">
        <ele>401.79998779297</ele>
        <time>2023-05-31T11:19:17.000Z</time>
      </trkpt>
      <trkpt lat="45.70547" lon="5.82964">
        <ele>402</ele>
        <time>2023-05-31T11:19:25.000Z</time>
      </trkpt>
      <trkpt lat="45.70515" lon="5.82955">
        <ele>401.60000610352</ele>
        <time>2023-05-31T11:19:30.000Z</time>
      </trkpt>
      <trkpt lat="45.70502" lon="5.82947">
        <ele>401.60000610352</ele>
        <time>2023-05-31T11:19:32.000Z</time>
      </trkpt>
      <trkpt lat="45.70472" lon="5.82933">
        <ele>401.20001220703</ele>
        <time>2023-05-31T11:19:37.000Z</time>
      </trkpt>
      <trkpt lat="45.70466" lon="5.82932">
        <ele>401.20001220703</ele>
        <time>2023-05-31T11:19:38.000Z</time>
      </trkpt>
      <trkpt lat="45.70459" lon="5.82932">
        <ele>401</ele>
        <time>2023-05-31T11:19:39.000Z</time>
      </trkpt>
      <trkpt lat="45.70435" lon="5.82938">
        <ele>400.60000610352</ele>
        <time>2023-05-31T11:19:43.000Z</time>
      </trkpt>
      <trkpt lat="45.70416" lon="5.82947">
        <ele>400.39999389648</ele>
        <time>2023-05-31T11:19:46.000Z</time>
      </trkpt>
      <trkpt lat="45.70405" lon="5.82956">
        <ele>400.20001220703</ele>
        <time>2023-05-31T11:19:48.000Z</time>
      </trkpt>
      <trkpt lat="45.70399" lon="5.82962">
        <ele>400.20001220703</ele>
        <time>2023-05-31T11:19:49.000Z</time>
      </trkpt>
      <trkpt lat="45.70381" lon="5.82999">
        <ele>399.79998779297</ele>
        <time>2023-05-31T11:19:54.000Z</time>
      </trkpt>
      <trkpt lat="45.70356" lon="5.83065">
        <ele>399.39999389648</ele>
        <time>2023-05-31T11:20:02.000Z</time>
      </trkpt>
      <trkpt lat="45.7035" lon="5.83082">
        <ele>399.39999389648</ele>
        <time>2023-05-31T11:20:04.000Z</time>
      </trkpt>
      <trkpt lat="45.70344" lon="5.83109">
        <ele>399.39999389648</ele>
        <time>2023-05-31T11:20:07.000Z</time>
      </trkpt>
      <trkpt lat="45.70337" lon="5.83163">
        <ele>399.20001220703</ele>
        <time>2023-05-31T11:20:13.000Z</time>
      </trkpt>
      <trkpt lat="45.70333" lon="5.83181">
        <ele>399.20001220703</ele>
        <time>2023-05-31T11:20:15.000Z</time>
      </trkpt>
      <trkpt lat="45.70325" lon="5.83204">
        <ele>399.20001220703</ele>
        <time>2023-05-31T11:20:18.000Z</time>
      </trkpt>
      <trkpt lat="45.70303" lon="5.8326">
        <ele>400</ele>
        <time>2023-05-31T11:20:26.000Z</time>
      </trkpt>
      <trkpt lat="45.70301" lon="5.83267">
        <ele>400</ele>
        <time>2023-05-31T11:20:27.000Z</time>
      </trkpt>
      <trkpt lat="45.70298" lon="5.83292">
        <ele>400.39999389648</ele>
        <time>2023-05-31T11:20:30.000Z</time>
      </trkpt>
      <trkpt lat="45.70298" lon="5.833">
        <ele>400.39999389648</ele>
        <time>2023-05-31T11:20:31.000Z</time>
      </trkpt>
      <trkpt lat="45.70295" lon="5.83332">
        <ele>400.79998779297</ele>
        <time>2023-05-31T11:20:35.000Z</time>
      </trkpt>
      <trkpt lat="45.70291" lon="5.83347">
        <ele>400.79998779297</ele>
        <time>2023-05-31T11:20:37.000Z</time>
      </trkpt>
      <trkpt lat="45.70285" lon="5.8336">
        <ele>401</ele>
        <time>2023-05-31T11:20:39.000Z</time>
      </trkpt>
      <trkpt lat="45.70277" lon="5.83372">
        <ele>401</ele>
        <time>2023-05-31T11:20:41.000Z</time>
      </trkpt>
      <trkpt lat="45.70268" lon="5.8338">
        <ele>401.20001220703</ele>
        <time>2023-05-31T11:20:43.000Z</time>
      </trkpt>
      <trkpt lat="45.70258" lon="5.83386">
        <ele>401.20001220703</ele>
        <time>2023-05-31T11:20:45.000Z</time>
      </trkpt>
      <trkpt lat="45.70252" lon="5.83387">
        <ele>401.39999389648</ele>
        <time>2023-05-31T11:20:46.000Z</time>
      </trkpt>
      <trkpt lat="45.70216" lon="5.83394">
        <ele>402.39999389648</ele>
        <time>2023-05-31T11:20:53.000Z</time>
      </trkpt>
      <trkpt lat="45.70177" lon="5.83408">
        <ele>403.20001220703</ele>
        <time>2023-05-31T11:21:01.000Z</time>
      </trkpt>
      <trkpt lat="45.70172" lon="5.8341">
        <ele>403.39999389648</ele>
        <time>2023-05-31T11:21:02.000Z</time>
      </trkpt>
      <trkpt lat="45.70145" lon="5.83424">
        <ele>403.60000610352</ele>
        <time>2023-05-31T11:21:07.000Z</time>
      </trkpt>
      <trkpt lat="45.70133" lon="5.83429">
        <ele>403.60000610352</ele>
        <time>2023-05-31T11:21:09.000Z</time>
      </trkpt>
      <trkpt lat="45.70094" lon="5.83448">
        <ele>402.60000610352</ele>
        <time>2023-05-31T11:21:15.000Z</time>
      </trkpt>
      <trkpt lat="45.70087" lon="5.83452">
        <ele>402.20001220703</ele>
        <time>2023-05-31T11:21:16.000Z</time>
      </trkpt>
      <trkpt lat="45.70052" lon="5.8347">
        <ele>401.20001220703</ele>
        <time>2023-05-31T11:21:21.000Z</time>
      </trkpt>
      <trkpt lat="45.70039" lon="5.83477">
        <ele>401.20001220703</ele>
        <time>2023-05-31T11:21:23.000Z</time>
      </trkpt>
      <trkpt lat="45.70026" lon="5.83483">
        <ele>401</ele>
        <time>2023-05-31T11:21:25.000Z</time>
      </trkpt>
      <trkpt lat="45.70012" lon="5.83491">
        <ele>401</ele>
        <time>2023-05-31T11:21:27.000Z</time>
      </trkpt>
      <trkpt lat="45.70007" lon="5.83492">
        <ele>400.79998779297</ele>
        <time>2023-05-31T11:21:28.000Z</time>
      </trkpt>
      <trkpt lat="45.69974" lon="5.835">
        <ele>401.60000610352</ele>
        <time>2023-05-31T11:21:34.000Z</time>
      </trkpt>
      <trkpt lat="45.69959" lon="5.83502">
        <ele>402.39999389648</ele>
        <time>2023-05-31T11:21:37.000Z</time>
      </trkpt>
      <trkpt lat="45.69948" lon="5.83501">
        <ele>403</ele>
        <time>2023-05-31T11:21:39.000Z</time>
      </trkpt>
      <trkpt lat="45.69941" lon="5.83501">
        <ele>403.39999389648</ele>
        <time>2023-05-31T11:21:40.000Z</time>
      </trkpt>
      <trkpt lat="45.69937" lon="5.83501">
        <ele>403.39999389648</ele>
        <time>2023-05-31T11:21:41.000Z</time>
      </trkpt>
      <trkpt lat="45.69927" lon="5.83498">
        <ele>403.79998779297</ele>
        <time>2023-05-31T11:21:43.000Z</time>
      </trkpt>
      <trkpt lat="45.6992" lon="5.83495">
        <ele>404.60000610352</ele>
        <time>2023-05-31T11:21:45.000Z</time>
      </trkpt>
      <trkpt lat="45.69916" lon="5.83492">
        <ele>404.79998779297</ele>
        <time>2023-05-31T11:21:46.000Z</time>
      </trkpt>
      <trkpt lat="45.69906" lon="5.83482">
        <ele>405.20001220703</ele>
        <time>2023-05-31T11:21:49.000Z</time>
      </trkpt>
      <trkpt lat="45.69894" lon="5.83459">
        <ele>405.39999389648</ele>
        <time>2023-05-31T11:21:52.000Z</time>
      </trkpt>
      <trkpt lat="45.69886" lon="5.83436">
        <ele>405.60000610352</ele>
        <time>2023-05-31T11:21:54.000Z</time>
      </trkpt>
      <trkpt lat="45.69867" lon="5.83392">
        <ele>405.79998779297</ele>
        <time>2023-05-31T11:22:00.000Z</time>
      </trkpt>
      <trkpt lat="45.69862" lon="5.83382">
        <ele>405.60000610352</ele>
        <time>2023-05-31T11:22:02.000Z</time>
      </trkpt>
      <trkpt lat="45.69854" lon="5.8337">
        <ele>405.60000610352</ele>
        <time>2023-05-31T11:22:04.000Z</time>
      </trkpt>
      <trkpt lat="45.69848" lon="5.83363">
        <ele>405.60000610352</ele>
        <time>2023-05-31T11:22:05.000Z</time>
      </trkpt>
      <trkpt lat="45.69839" lon="5.83357">
        <ele>405.39999389648</ele>
        <time>2023-05-31T11:22:07.000Z</time>
      </trkpt>
      <trkpt lat="45.69828" lon="5.83354">
        <ele>405.39999389648</ele>
        <time>2023-05-31T11:22:09.000Z</time>
      </trkpt>
      <trkpt lat="45.69816" lon="5.83355">
        <ele>405.39999389648</ele>
        <time>2023-05-31T11:22:11.000Z</time>
      </trkpt>
      <trkpt lat="45.69798" lon="5.83361">
        <ele>405.39999389648</ele>
        <time>2023-05-31T11:22:14.000Z</time>
      </trkpt>
      <trkpt lat="45.69766" lon="5.83376">
        <ele>405.39999389648</ele>
        <time>2023-05-31T11:22:20.000Z</time>
      </trkpt>
      <trkpt lat="45.69746" lon="5.83384">
        <ele>405.39999389648</ele>
        <time>2023-05-31T11:22:23.000Z</time>
      </trkpt>
      <trkpt lat="45.69729" lon="5.83392">
        <ele>405.39999389648</ele>
        <time>2023-05-31T11:22:26.000Z</time>
      </trkpt>
      <trkpt lat="45.69689" lon="5.83406">
        <ele>405.20001220703</ele>
        <time>2023-05-31T11:22:33.000Z</time>
      </trkpt>
      <trkpt lat="45.69683" lon="5.83409">
        <ele>405.20001220703</ele>
        <time>2023-05-31T11:22:34.000Z</time>
      </trkpt>
      <trkpt lat="45.69678" lon="5.83412">
        <ele>405.20001220703</ele>
        <time>2023-05-31T11:22:35.000Z</time>
      </trkpt>
      <trkpt lat="45.69658" lon="5.83429">
        <ele>405.20001220703</ele>
        <time>2023-05-31T11:22:39.000Z</time>
      </trkpt>
      <trkpt lat="45.69642" lon="5.8344">
        <ele>405.39999389648</ele>
        <time>2023-05-31T11:22:42.000Z</time>
      </trkpt>
      <trkpt lat="45.69633" lon="5.83443">
        <ele>405.60000610352</ele>
        <time>2023-05-31T11:22:44.000Z</time>
      </trkpt>
      <trkpt lat="45.69618" lon="5.83443">
        <ele>405.60000610352</ele>
        <time>2023-05-31T11:22:47.000Z</time>
      </trkpt>
      <trkpt lat="45.69597" lon="5.83439">
        <ele>405.60000610352</ele>
        <time>2023-05-31T11:22:51.000Z</time>
      </trkpt>
      <trkpt lat="45.69551" lon="5.83428">
        <ele>406.39999389648</ele>
        <time>2023-05-31T11:23:00.000Z</time>
      </trkpt>
      <trkpt lat="45.69546" lon="5.83427">
        <ele>406.60000610352</ele>
        <time>2023-05-31T11:23:01.000Z</time>
      </trkpt>
      <trkpt lat="45.69524" lon="5.83421">
        <ele>406.79998779297</ele>
        <time>2023-05-31T11:23:05.000Z</time>
      </trkpt>
      <trkpt lat="45.69514" lon="5.83421">
        <ele>407</ele>
        <time>2023-05-31T11:23:07.000Z</time>
      </trkpt>
      <trkpt lat="45.69503" lon="5.83424">
        <ele>407</ele>
        <time>2023-05-31T11:23:09.000Z</time>
      </trkpt>
      <trkpt lat="45.69483" lon="5.83432">
        <ele>407.60000610352</ele>
        <time>2023-05-31T11:23:13.000Z</time>
      </trkpt>
      <trkpt lat="45.69474" lon="5.83437">
        <ele>407.79998779297</ele>
        <time>2023-05-31T11:23:15.000Z</time>
      </trkpt>
      <trkpt lat="45.69456" lon="5.83451">
        <ele>408.39999389648</ele>
        <time>2023-05-31T11:23:19.000Z</time>
      </trkpt>
      <trkpt lat="45.69426" lon="5.83471">
        <ele>408.39999389648</ele>
        <time>2023-05-31T11:23:25.000Z</time>
      </trkpt>
      <trkpt lat="45.69421" lon="5.83473">
        <ele>408.39999389648</ele>
        <time>2023-05-31T11:23:26.000Z</time>
      </trkpt>
      <trkpt lat="45.69387" lon="5.83479">
        <ele>408.20001220703</ele>
        <time>2023-05-31T11:23:32.000Z</time>
      </trkpt>
      <trkpt lat="45.69348" lon="5.83482">
        <ele>407.79998779297</ele>
        <time>2023-05-31T11:23:38.000Z</time>
      </trkpt>
      <trkpt lat="45.69304" lon="5.83484">
        <ele>407.60000610352</ele>
        <time>2023-05-31T11:23:45.000Z</time>
      </trkpt>
      <trkpt lat="45.69271" lon="5.83489">
        <ele>406.79998779297</ele>
        <time>2023-05-31T11:23:50.000Z</time>
      </trkpt>
      <trkpt lat="45.69265" lon="5.83491">
        <ele>406.79998779297</ele>
        <time>2023-05-31T11:23:51.000Z</time>
      </trkpt>
      <trkpt lat="45.69258" lon="5.83492">
        <ele>406.79998779297</ele>
        <time>2023-05-31T11:23:52.000Z</time>
      </trkpt>
      <trkpt lat="45.69239" lon="5.8349">
        <ele>406.60000610352</ele>
        <time>2023-05-31T11:23:55.000Z</time>
      </trkpt>
      <trkpt lat="45.6922" lon="5.83485">
        <ele>406.20001220703</ele>
        <time>2023-05-31T11:23:58.000Z</time>
      </trkpt>
      <trkpt lat="45.69202" lon="5.83477">
        <ele>406</ele>
        <time>2023-05-31T11:24:01.000Z</time>
      </trkpt>
      <trkpt lat="45.6919" lon="5.8347">
        <ele>405.79998779297</ele>
        <time>2023-05-31T11:24:03.000Z</time>
      </trkpt>
      <trkpt lat="45.69179" lon="5.83463">
        <ele>405.60000610352</ele>
        <time>2023-05-31T11:24:05.000Z</time>
      </trkpt>
      <trkpt lat="45.6916" lon="5.83452">
        <ele>405.39999389648</ele>
        <time>2023-05-31T11:24:08.000Z</time>
      </trkpt>
      <trkpt lat="45.6915" lon="5.83446">
        <ele>405</ele>
        <time>2023-05-31T11:24:10.000Z</time>
      </trkpt>
      <trkpt lat="45.69136" lon="5.83441">
        <ele>404.79998779297</ele>
        <time>2023-05-31T11:24:12.000Z</time>
      </trkpt>
      <trkpt lat="45.69125" lon="5.83437">
        <ele>404.79998779297</ele>
        <time>2023-05-31T11:24:14.000Z</time>
      </trkpt>
      <trkpt lat="45.6909" lon="5.83428">
        <ele>404.20001220703</ele>
        <time>2023-05-31T11:24:20.000Z</time>
      </trkpt>
      <trkpt lat="45.69087" lon="5.83429">
        <ele>403.79998779297</ele>
        <time>2023-05-31T11:24:21.000Z</time>
      </trkpt>
      <trkpt lat="45.69085" lon="5.83433">
        <ele>403.79998779297</ele>
        <time>2023-05-31T11:24:22.000Z</time>
      </trkpt>
      <trkpt lat="45.69084" lon="5.8344">
        <ele>403.39999389648</ele>
        <time>2023-05-31T11:24:23.000Z</time>
      </trkpt>
      <trkpt lat="45.68508" lon="5.85257">
        <ele>390.79998779297</ele>
        <time>2023-05-31T11:28:01.000Z</time>
      </trkpt>
      <trkpt lat="45.68503" lon="5.85261">
        <ele>390.60000610352</ele>
        <time>2023-05-31T11:28:02.000Z</time>
      </trkpt>
      <trkpt lat="45.68506" lon="5.85266">
        <ele>390.60000610352</ele>
        <time>2023-05-31T11:28:03.000Z</time>
      </trkpt>
      <trkpt lat="45.68505" lon="5.85277">
        <ele>390</ele>
        <time>2023-05-31T11:28:07.000Z</time>
      </trkpt>
      <trkpt lat="45.68504" lon="5.85286">
        <ele>389.39999389648</ele>
        <time>2023-05-31T11:28:10.000Z</time>
      </trkpt>
      <trkpt lat="45.68503" lon="5.85293">
        <ele>389.20001220703</ele>
        <time>2023-05-31T11:28:12.000Z</time>
      </trkpt>
      <trkpt lat="45.68504" lon="5.85293">
        <ele>389</ele>
        <time>2023-05-31T11:28:15.000Z</time>
      </trkpt>
      <trkpt lat="45.68506" lon="5.85285">
        <ele>388.79998779297</ele>
        <time>2023-05-31T11:30:20.000Z</time>
      </trkpt>
      <trkpt lat="45.68506" lon="5.85279">
        <ele>388.79998779297</ele>
        <time>2023-05-31T11:30:22.000Z</time>
      </trkpt>
      <trkpt lat="45.68507" lon="5.85257">
        <ele>388.79998779297</ele>
        <time>2023-05-31T11:30:27.000Z</time>
      </trkpt>
      <trkpt lat="45.68505" lon="5.85246">
        <ele>388.79998779297</ele>
        <time>2023-05-31T11:30:30.000Z</time>
      </trkpt>
      <trkpt lat="45.68501" lon="5.85235">
        <ele>389</ele>
        <time>2023-05-31T11:30:33.000Z</time>
      </trkpt>
      <trkpt lat="45.68489" lon="5.85215">
        <ele>389</ele>
        <time>2023-05-31T11:30:38.000Z</time>
      </trkpt>
      <trkpt lat="45.68474" lon="5.85208">
        <ele>388.79998779297</ele>
        <time>2023-05-31T11:30:41.000Z</time>
      </trkpt>
      <trkpt lat="45.68469" lon="5.85206">
        <ele>388.79998779297</ele>
        <time>2023-05-31T11:30:42.000Z</time>
      </trkpt>
      <trkpt lat="45.68464" lon="5.85203">
        <ele>388.79998779297</ele>
        <time>2023-05-31T11:30:43.000Z</time>
      </trkpt>
      <trkpt lat="45.68442" lon="5.85195">
        <ele>388.20001220703</ele>
        <time>2023-05-31T11:30:47.000Z</time>
      </trkpt>
      <trkpt lat="45.68438" lon="5.85193">
        <ele>388.20001220703</ele>
        <time>2023-05-31T11:30:48.000Z</time>
      </trkpt>
      <trkpt lat="45.68435" lon="5.8519">
        <ele>388.20001220703</ele>
        <time>2023-05-31T11:30:49.000Z</time>
      </trkpt>
      <trkpt lat="45.68431" lon="5.85189">
        <ele>387.79998779297</ele>
        <time>2023-05-31T11:30:50.000Z</time>
      </trkpt>
      <trkpt lat="45.68428" lon="5.85187">
        <ele>387.79998779297</ele>
        <time>2023-05-31T11:30:51.000Z</time>
      </trkpt>
      <trkpt lat="45.68427" lon="5.85185">
        <ele>387.60000610352</ele>
        <time>2023-05-31T11:30:52.000Z</time>
      </trkpt>
      <trkpt lat="45.68425" lon="5.85183">
        <ele>387.39999389648</ele>
        <time>2023-05-31T11:30:54.000Z</time>
      </trkpt>
      <trkpt lat="45.68421" lon="5.85177">
        <ele>387</ele>
        <time>2023-05-31T11:30:56.000Z</time>
      </trkpt>
      <trkpt lat="45.68417" lon="5.85173">
        <ele>387</ele>
        <time>2023-05-31T11:30:57.000Z</time>
      </trkpt>
      <trkpt lat="45.68412" lon="5.85167">
        <ele>387</ele>
        <time>2023-05-31T11:30:58.000Z</time>
      </trkpt>
      <trkpt lat="45.68406" lon="5.85163">
        <ele>386.79998779297</ele>
        <time>2023-05-31T11:30:59.000Z</time>
      </trkpt>
      <trkpt lat="45.68387" lon="5.85154">
        <ele>386.39999389648</ele>
        <time>2023-05-31T11:31:02.000Z</time>
      </trkpt>
      <trkpt lat="45.6838" lon="5.85149">
        <ele>386.20001220703</ele>
        <time>2023-05-31T11:31:03.000Z</time>
      </trkpt>
      <trkpt lat="45.68367" lon="5.85141">
        <ele>385.79998779297</ele>
        <time>2023-05-31T11:31:05.000Z</time>
      </trkpt>
      <trkpt lat="45.6836" lon="5.8514">
        <ele>385.79998779297</ele>
        <time>2023-05-31T11:31:06.000Z</time>
      </trkpt>
      <trkpt lat="45.68338" lon="5.8513">
        <ele>385</ele>
        <time>2023-05-31T11:31:09.000Z</time>
      </trkpt>
      <trkpt lat="45.6833" lon="5.85127">
        <ele>384.79998779297</ele>
        <time>2023-05-31T11:31:10.000Z</time>
      </trkpt>
      <trkpt lat="45.68297" lon="5.85116">
        <ele>384</ele>
        <time>2023-05-31T11:31:14.000Z</time>
      </trkpt>
      <trkpt lat="45.68281" lon="5.85111">
        <ele>383.60000610352</ele>
        <time>2023-05-31T11:31:16.000Z</time>
      </trkpt>
      <trkpt lat="45.68255" lon="5.85103">
        <ele>382.60000610352</ele>
        <time>2023-05-31T11:31:19.000Z</time>
      </trkpt>
      <trkpt lat="45.68238" lon="5.85098">
        <ele>382</ele>
        <time>2023-05-31T11:31:21.000Z</time>
      </trkpt>
      <trkpt lat="45.68221" lon="5.85095">
        <ele>381.20001220703</ele>
        <time>2023-05-31T11:31:23.000Z</time>
      </trkpt>
      <trkpt lat="45.68194" lon="5.85093">
        <ele>380.20001220703</ele>
        <time>2023-05-31T11:31:26.000Z</time>
      </trkpt>
      <trkpt lat="45.68185" lon="5.85092">
        <ele>379.79998779297</ele>
        <time>2023-05-31T11:31:27.000Z</time>
      </trkpt>
      <trkpt lat="45.68168" lon="5.8509">
        <ele>379</ele>
        <time>2023-05-31T11:31:29.000Z</time>
      </trkpt>
      <trkpt lat="45.68131" lon="5.8509">
        <ele>377.60000610352</ele>
        <time>2023-05-31T11:31:33.000Z</time>
      </trkpt>
      <trkpt lat="45.68122" lon="5.8509">
        <ele>377.39999389648</ele>
        <time>2023-05-31T11:31:34.000Z</time>
      </trkpt>
      <trkpt lat="45.68094" lon="5.85094">
        <ele>376.20001220703</ele>
        <time>2023-05-31T11:31:37.000Z</time>
      </trkpt>
      <trkpt lat="45.68065" lon="5.85098">
        <ele>375</ele>
        <time>2023-05-31T11:31:40.000Z</time>
      </trkpt>
      <trkpt lat="45.68036" lon="5.85103">
        <ele>374.20001220703</ele>
        <time>2023-05-31T11:31:43.000Z</time>
      </trkpt>
      <trkpt lat="45.68027" lon="5.85105">
        <ele>373.60000610352</ele>
        <time>2023-05-31T11:31:44.000Z</time>
      </trkpt>
      <trkpt lat="45.68008" lon="5.85107">
        <ele>373</ele>
        <time>2023-05-31T11:31:46.000Z</time>
      </trkpt>
      <trkpt lat="45.67998" lon="5.85105">
        <ele>372.39999389648</ele>
        <time>2023-05-31T11:31:47.000Z</time>
      </trkpt>
      <trkpt lat="45.67989" lon="5.85101">
        <ele>372.20001220703</ele>
        <time>2023-05-31T11:31:48.000Z</time>
      </trkpt>
      <trkpt lat="45.67963" lon="5.8508">
        <ele>370.60000610352</ele>
        <time>2023-05-31T11:31:51.000Z</time>
      </trkpt>
      <trkpt lat="45.67955" lon="5.85073">
        <ele>370.39999389648</ele>
        <time>2023-05-31T11:31:52.000Z</time>
      </trkpt>
      <trkpt lat="45.67938" lon="5.85059">
        <ele>369.39999389648</ele>
        <time>2023-05-31T11:31:54.000Z</time>
      </trkpt>
      <trkpt lat="45.6791" lon="5.85047">
        <ele>368.39999389648</ele>
        <time>2023-05-31T11:31:57.000Z</time>
      </trkpt>
      <trkpt lat="45.67898" lon="5.85045">
        <ele>367.79998779297</ele>
        <time>2023-05-31T11:31:58.000Z</time>
      </trkpt>
      <trkpt lat="45.67871" lon="5.85043">
        <ele>366.20001220703</ele>
        <time>2023-05-31T11:32:01.000Z</time>
      </trkpt>
      <trkpt lat="45.67861" lon="5.85042">
        <ele>365.79998779297</ele>
        <time>2023-05-31T11:32:02.000Z</time>
      </trkpt>
      <trkpt lat="45.67842" lon="5.85042">
        <ele>365</ele>
        <time>2023-05-31T11:32:04.000Z</time>
      </trkpt>
      <trkpt lat="45.67812" lon="5.85043">
        <ele>363.79998779297</ele>
        <time>2023-05-31T11:32:07.000Z</time>
      </trkpt>
      <trkpt lat="45.67802" lon="5.85044">
        <ele>363.60000610352</ele>
        <time>2023-05-31T11:32:08.000Z</time>
      </trkpt>
      <trkpt lat="45.67772" lon="5.8505">
        <ele>362.60000610352</ele>
        <time>2023-05-31T11:32:11.000Z</time>
      </trkpt>
      <trkpt lat="45.67753" lon="5.85057">
        <ele>361.39999389648</ele>
        <time>2023-05-31T11:32:13.000Z</time>
      </trkpt>
      <trkpt lat="45.67736" lon="5.85069">
        <ele>360.60000610352</ele>
        <time>2023-05-31T11:32:15.000Z</time>
      </trkpt>
      <trkpt lat="45.67727" lon="5.85077">
        <ele>360.39999389648</ele>
        <time>2023-05-31T11:32:16.000Z</time>
      </trkpt>
      <trkpt lat="45.6772" lon="5.85086">
        <ele>359.79998779297</ele>
        <time>2023-05-31T11:32:17.000Z</time>
      </trkpt>
      <trkpt lat="45.67706" lon="5.85106">
        <ele>359</ele>
        <time>2023-05-31T11:32:19.000Z</time>
      </trkpt>
      <trkpt lat="45.67701" lon="5.85116">
        <ele>359</ele>
        <time>2023-05-31T11:32:20.000Z</time>
      </trkpt>
      <trkpt lat="45.67691" lon="5.85134">
        <ele>358</ele>
        <time>2023-05-31T11:32:22.000Z</time>
      </trkpt>
      <trkpt lat="45.67686" lon="5.8514">
        <ele>357.79998779297</ele>
        <time>2023-05-31T11:32:23.000Z</time>
      </trkpt>
      <trkpt lat="45.67679" lon="5.85144">
        <ele>356.79998779297</ele>
        <time>2023-05-31T11:32:24.000Z</time>
      </trkpt>
      <trkpt lat="45.6767" lon="5.85155">
        <ele>356</ele>
        <time>2023-05-31T11:32:26.000Z</time>
      </trkpt>
      <trkpt lat="45.67669" lon="5.85162">
        <ele>355.60000610352</ele>
        <time>2023-05-31T11:32:27.000Z</time>
      </trkpt>
      <trkpt lat="45.6767" lon="5.85169">
        <ele>355</ele>
        <time>2023-05-31T11:32:28.000Z</time>
      </trkpt>
      <trkpt lat="45.67674" lon="5.85176">
        <ele>354.39999389648</ele>
        <time>2023-05-31T11:32:29.000Z</time>
      </trkpt>
      <trkpt lat="45.6768" lon="5.8518">
        <ele>354.20001220703</ele>
        <time>2023-05-31T11:32:30.000Z</time>
      </trkpt>
      <trkpt lat="45.67687" lon="5.8518">
        <ele>354</ele>
        <time>2023-05-31T11:32:31.000Z</time>
      </trkpt>
      <trkpt lat="45.67699" lon="5.85176">
        <ele>353.60000610352</ele>
        <time>2023-05-31T11:32:33.000Z</time>
      </trkpt>
      <trkpt lat="45.67705" lon="5.85171">
        <ele>353.39999389648</ele>
        <time>2023-05-31T11:32:34.000Z</time>
      </trkpt>
      <trkpt lat="45.67723" lon="5.85155">
        <ele>353</ele>
        <time>2023-05-31T11:32:37.000Z</time>
      </trkpt>
      <trkpt lat="45.6773" lon="5.85149">
        <ele>352.79998779297</ele>
        <time>2023-05-31T11:32:38.000Z</time>
      </trkpt>
      <trkpt lat="45.67754" lon="5.85137">
        <ele>352.39999389648</ele>
        <time>2023-05-31T11:32:41.000Z</time>
      </trkpt>
      <trkpt lat="45.67771" lon="5.85129">
        <ele>351.60000610352</ele>
        <time>2023-05-31T11:32:43.000Z</time>
      </trkpt>
      <trkpt lat="45.67779" lon="5.85126">
        <ele>350.79998779297</ele>
        <time>2023-05-31T11:32:44.000Z</time>
      </trkpt>
      <trkpt lat="45.67794" lon="5.85124">
        <ele>349.60000610352</ele>
        <time>2023-05-31T11:32:46.000Z</time>
      </trkpt>
      <trkpt lat="45.67807" lon="5.85125">
        <ele>348</ele>
        <time>2023-05-31T11:32:48.000Z</time>
      </trkpt>
      <trkpt lat="45.67822" lon="5.85121">
        <ele>347.20001220703</ele>
        <time>2023-05-31T11:32:50.000Z</time>
      </trkpt>
      <trkpt lat="45.67829" lon="5.85118">
        <ele>346.60000610352</ele>
        <time>2023-05-31T11:32:51.000Z</time>
      </trkpt>
      <trkpt lat="45.67852" lon="5.85111">
        <ele>345.39999389648</ele>
        <time>2023-05-31T11:32:54.000Z</time>
      </trkpt>
      <trkpt lat="45.67861" lon="5.85109">
        <ele>345.20001220703</ele>
        <time>2023-05-31T11:32:55.000Z</time>
      </trkpt>
      <trkpt lat="45.6787" lon="5.85109">
        <ele>344.60000610352</ele>
        <time>2023-05-31T11:32:56.000Z</time>
      </trkpt>
      <trkpt lat="45.67878" lon="5.85111">
        <ele>344.39999389648</ele>
        <time>2023-05-31T11:32:57.000Z</time>
      </trkpt>
      <trkpt lat="45.67886" lon="5.85115">
        <ele>343.60000610352</ele>
        <time>2023-05-31T11:32:58.000Z</time>
      </trkpt>
      <trkpt lat="45.67893" lon="5.8512">
        <ele>343.20001220703</ele>
        <time>2023-05-31T11:32:59.000Z</time>
      </trkpt>
      <trkpt lat="45.67899" lon="5.85127">
        <ele>343</ele>
        <time>2023-05-31T11:33:00.000Z</time>
      </trkpt>
      <trkpt lat="45.67904" lon="5.85134">
        <ele>343</ele>
        <time>2023-05-31T11:33:01.000Z</time>
      </trkpt>
      <trkpt lat="45.67924" lon="5.85156">
        <ele>343</ele>
        <time>2023-05-31T11:33:05.000Z</time>
      </trkpt>
      <trkpt lat="45.67929" lon="5.8516">
        <ele>343</ele>
        <time>2023-05-31T11:33:06.000Z</time>
      </trkpt>
      <trkpt lat="45.67939" lon="5.85167">
        <ele>343.60000610352</ele>
        <time>2023-05-31T11:33:08.000Z</time>
      </trkpt>
      <trkpt lat="45.67948" lon="5.85171">
        <ele>344.20001220703</ele>
        <time>2023-05-31T11:33:10.000Z</time>
      </trkpt>
      <trkpt lat="45.67952" lon="5.85172">
        <ele>344.39999389648</ele>
        <time>2023-05-31T11:33:11.000Z</time>
      </trkpt>
      <trkpt lat="45.67956" lon="5.85174">
        <ele>345</ele>
        <time>2023-05-31T11:33:12.000Z</time>
      </trkpt>
      <trkpt lat="45.6796" lon="5.85177">
        <ele>345.60000610352</ele>
        <time>2023-05-31T11:33:13.000Z</time>
      </trkpt>
      <trkpt lat="45.67968" lon="5.85182">
        <ele>346.60000610352</ele>
        <time>2023-05-31T11:33:15.000Z</time>
      </trkpt>
      <trkpt lat="45.67972" lon="5.85184">
        <ele>346.79998779297</ele>
        <time>2023-05-31T11:33:16.000Z</time>
      </trkpt>
      <trkpt lat="45.67983" lon="5.85189">
        <ele>347.60000610352</ele>
        <time>2023-05-31T11:33:19.000Z</time>
      </trkpt>
      <trkpt lat="45.67993" lon="5.85198">
        <ele>348.79998779297</ele>
        <time>2023-05-31T11:33:22.000Z</time>
      </trkpt>
      <trkpt lat="45.68009" lon="5.85227">
        <ele>349.20001220703</ele>
        <time>2023-05-31T11:33:27.000Z</time>
      </trkpt>
      <trkpt lat="45.68012" lon="5.85235">
        <ele>349.20001220703</ele>
        <time>2023-05-31T11:33:28.000Z</time>
      </trkpt>
      <trkpt lat="45.68015" lon="5.85254">
        <ele>348.60000610352</ele>
        <time>2023-05-31T11:33:30.000Z</time>
      </trkpt>
      <trkpt lat="45.68015" lon="5.85286">
        <ele>347.20001220703</ele>
        <time>2023-05-31T11:33:33.000Z</time>
      </trkpt>
      <trkpt lat="45.68014" lon="5.85308">
        <ele>346.20001220703</ele>
        <time>2023-05-31T11:33:35.000Z</time>
      </trkpt>
      <trkpt lat="45.68014" lon="5.85318">
        <ele>345.20001220703</ele>
        <time>2023-05-31T11:33:36.000Z</time>
      </trkpt>
      <trkpt lat="45.68014" lon="5.85327">
        <ele>345</ele>
        <time>2023-05-31T11:33:37.000Z</time>
      </trkpt>
      <trkpt lat="45.68016" lon="5.85343">
        <ele>343.79998779297</ele>
        <time>2023-05-31T11:33:39.000Z</time>
      </trkpt>
      <trkpt lat="45.68029" lon="5.85363">
        <ele>342.60000610352</ele>
        <time>2023-05-31T11:33:42.000Z</time>
      </trkpt>
      <trkpt lat="45.68034" lon="5.85369">
        <ele>341.39999389648</ele>
        <time>2023-05-31T11:33:43.000Z</time>
      </trkpt>
      <trkpt lat="45.68046" lon="5.8538">
        <ele>340.60000610352</ele>
        <time>2023-05-31T11:33:45.000Z</time>
      </trkpt>
      <trkpt lat="45.6806" lon="5.85388">
        <ele>340</ele>
        <time>2023-05-31T11:33:47.000Z</time>
      </trkpt>
      <trkpt lat="45.68073" lon="5.85395">
        <ele>338.79998779297</ele>
        <time>2023-05-31T11:33:49.000Z</time>
      </trkpt>
      <trkpt lat="45.68093" lon="5.85404">
        <ele>337.39999389648</ele>
        <time>2023-05-31T11:33:52.000Z</time>
      </trkpt>
      <trkpt lat="45.68099" lon="5.85407">
        <ele>337.20001220703</ele>
        <time>2023-05-31T11:33:53.000Z</time>
      </trkpt>
      <trkpt lat="45.68103" lon="5.85411">
        <ele>336.39999389648</ele>
        <time>2023-05-31T11:33:54.000Z</time>
      </trkpt>
      <trkpt lat="45.68109" lon="5.85417">
        <ele>336</ele>
        <time>2023-05-31T11:33:55.000Z</time>
      </trkpt>
      <trkpt lat="45.68113" lon="5.85422">
        <ele>335</ele>
        <time>2023-05-31T11:33:56.000Z</time>
      </trkpt>
      <trkpt lat="45.68117" lon="5.85427">
        <ele>334</ele>
        <time>2023-05-31T11:33:57.000Z</time>
      </trkpt>
      <trkpt lat="45.6812" lon="5.85431">
        <ele>333.39999389648</ele>
        <time>2023-05-31T11:33:58.000Z</time>
      </trkpt>
      <trkpt lat="45.68121" lon="5.85436">
        <ele>332.60000610352</ele>
        <time>2023-05-31T11:33:59.000Z</time>
      </trkpt>
      <trkpt lat="45.6812" lon="5.85442">
        <ele>332</ele>
        <time>2023-05-31T11:34:00.000Z</time>
      </trkpt>
      <trkpt lat="45.68117" lon="5.85447">
        <ele>331.20001220703</ele>
        <time>2023-05-31T11:34:01.000Z</time>
      </trkpt>
      <trkpt lat="45.68113" lon="5.85449">
        <ele>330.39999389648</ele>
        <time>2023-05-31T11:34:02.000Z</time>
      </trkpt>
      <trkpt lat="45.68108" lon="5.8545">
        <ele>329.20001220703</ele>
        <time>2023-05-31T11:34:03.000Z</time>
      </trkpt>
      <trkpt lat="45.68101" lon="5.85453">
        <ele>328.20001220703</ele>
        <time>2023-05-31T11:34:04.000Z</time>
      </trkpt>
      <trkpt lat="45.68092" lon="5.85465">
        <ele>327.20001220703</ele>
        <time>2023-05-31T11:34:06.000Z</time>
      </trkpt>
      <trkpt lat="45.68091" lon="5.85473">
        <ele>327</ele>
        <time>2023-05-31T11:34:07.000Z</time>
      </trkpt>
      <trkpt lat="45.68092" lon="5.8548">
        <ele>326.39999389648</ele>
        <time>2023-05-31T11:34:08.000Z</time>
      </trkpt>
      <trkpt lat="45.68104" lon="5.85484">
        <ele>325.39999389648</ele>
        <time>2023-05-31T11:34:10.000Z</time>
      </trkpt>
      <trkpt lat="45.68111" lon="5.85481">
        <ele>324.60000610352</ele>
        <time>2023-05-31T11:34:11.000Z</time>
      </trkpt>
      <trkpt lat="45.68125" lon="5.85472">
        <ele>323.79998779297</ele>
        <time>2023-05-31T11:34:13.000Z</time>
      </trkpt>
      <trkpt lat="45.68138" lon="5.85469">
        <ele>323</ele>
        <time>2023-05-31T11:34:15.000Z</time>
      </trkpt>
      <trkpt lat="45.68144" lon="5.85472">
        <ele>322.60000610352</ele>
        <time>2023-05-31T11:34:16.000Z</time>
      </trkpt>
      <trkpt lat="45.68148" lon="5.85479">
        <ele>322</ele>
        <time>2023-05-31T11:34:17.000Z</time>
      </trkpt>
      <trkpt lat="45.68151" lon="5.85488">
        <ele>321</ele>
        <time>2023-05-31T11:34:18.000Z</time>
      </trkpt>
      <trkpt lat="45.68152" lon="5.85497">
        <ele>320.79998779297</ele>
        <time>2023-05-31T11:34:19.000Z</time>
      </trkpt>
      <trkpt lat="45.68151" lon="5.85515">
        <ele>319.60000610352</ele>
        <time>2023-05-31T11:34:21.000Z</time>
      </trkpt>
      <trkpt lat="45.6815" lon="5.85523">
        <ele>319.20001220703</ele>
        <time>2023-05-31T11:34:22.000Z</time>
      </trkpt>
      <trkpt lat="45.68147" lon="5.85538">
        <ele>318.39999389648</ele>
        <time>2023-05-31T11:34:24.000Z</time>
      </trkpt>
      <trkpt lat="45.68146" lon="5.85544">
        <ele>317.60000610352</ele>
        <time>2023-05-31T11:34:25.000Z</time>
      </trkpt>
      <trkpt lat="45.68146" lon="5.85549">
        <ele>317.20001220703</ele>
        <time>2023-05-31T11:34:26.000Z</time>
      </trkpt>
      <trkpt lat="45.68147" lon="5.85553">
        <ele>316</ele>
        <time>2023-05-31T11:34:27.000Z</time>
      </trkpt>
      <trkpt lat="45.68155" lon="5.8556">
        <ele>315.20001220703</ele>
        <time>2023-05-31T11:34:29.000Z</time>
      </trkpt>
      <trkpt lat="45.6816" lon="5.85562">
        <ele>315</ele>
        <time>2023-05-31T11:34:30.000Z</time>
      </trkpt>
      <trkpt lat="45.68165" lon="5.85564">
        <ele>314.60000610352</ele>
        <time>2023-05-31T11:34:31.000Z</time>
      </trkpt>
      <trkpt lat="45.68177" lon="5.85566">
        <ele>314</ele>
        <time>2023-05-31T11:34:33.000Z</time>
      </trkpt>
      <trkpt lat="45.68184" lon="5.85567">
        <ele>313.79998779297</ele>
        <time>2023-05-31T11:34:34.000Z</time>
      </trkpt>
      <trkpt lat="45.68195" lon="5.85569">
        <ele>313.20001220703</ele>
        <time>2023-05-31T11:34:36.000Z</time>
      </trkpt>
      <trkpt lat="45.68201" lon="5.85577">
        <ele>313</ele>
        <time>2023-05-31T11:34:38.000Z</time>
      </trkpt>
      <trkpt lat="45.68198" lon="5.85589">
        <ele>312.20001220703</ele>
        <time>2023-05-31T11:34:40.000Z</time>
      </trkpt>
      <trkpt lat="45.68193" lon="5.85592">
        <ele>311.79998779297</ele>
        <time>2023-05-31T11:34:41.000Z</time>
      </trkpt>
      <trkpt lat="45.68174" lon="5.856">
        <ele>311.20001220703</ele>
        <time>2023-05-31T11:34:44.000Z</time>
      </trkpt>
      <trkpt lat="45.68162" lon="5.85607">
        <ele>311</ele>
        <time>2023-05-31T11:34:46.000Z</time>
      </trkpt>
      <trkpt lat="45.68141" lon="5.8562">
        <ele>310</ele>
        <time>2023-05-31T11:34:49.000Z</time>
      </trkpt>
      <trkpt lat="45.68134" lon="5.85626">
        <ele>309.60000610352</ele>
        <time>2023-05-31T11:34:50.000Z</time>
      </trkpt>
      <trkpt lat="45.68128" lon="5.85633">
        <ele>309</ele>
        <time>2023-05-31T11:34:51.000Z</time>
      </trkpt>
      <trkpt lat="45.68122" lon="5.85642">
        <ele>308.39999389648</ele>
        <time>2023-05-31T11:34:52.000Z</time>
      </trkpt>
      <trkpt lat="45.68111" lon="5.85661">
        <ele>307.60000610352</ele>
        <time>2023-05-31T11:34:54.000Z</time>
      </trkpt>
      <trkpt lat="45.68106" lon="5.8567">
        <ele>306.79998779297</ele>
        <time>2023-05-31T11:34:55.000Z</time>
      </trkpt>
      <trkpt lat="45.681" lon="5.85679">
        <ele>306.39999389648</ele>
        <time>2023-05-31T11:34:56.000Z</time>
      </trkpt>
      <trkpt lat="45.68088" lon="5.85692">
        <ele>305.60000610352</ele>
        <time>2023-05-31T11:34:58.000Z</time>
      </trkpt>
      <trkpt lat="45.68074" lon="5.85698">
        <ele>304.79998779297</ele>
        <time>2023-05-31T11:35:00.000Z</time>
      </trkpt>
      <trkpt lat="45.68067" lon="5.85699">
        <ele>304.39999389648</ele>
        <time>2023-05-31T11:35:01.000Z</time>
      </trkpt>
      <trkpt lat="45.68061" lon="5.85699">
        <ele>304</ele>
        <time>2023-05-31T11:35:02.000Z</time>
      </trkpt>
      <trkpt lat="45.68017" lon="5.85691">
        <ele>303.39999389648</ele>
        <time>2023-05-31T11:35:08.000Z</time>
      </trkpt>
      <trkpt lat="45.6801" lon="5.85688">
        <ele>303.39999389648</ele>
        <time>2023-05-31T11:35:09.000Z</time>
      </trkpt>
      <trkpt lat="45.67964" lon="5.85673">
        <ele>302.20001220703</ele>
        <time>2023-05-31T11:35:15.000Z</time>
      </trkpt>
      <trkpt lat="45.67931" lon="5.85668">
        <ele>301.20001220703</ele>
        <time>2023-05-31T11:35:19.000Z</time>
      </trkpt>
      <trkpt lat="45.67914" lon="5.85667">
        <ele>300.60000610352</ele>
        <time>2023-05-31T11:35:21.000Z</time>
      </trkpt>
      <trkpt lat="45.67897" lon="5.85666">
        <ele>300.20001220703</ele>
        <time>2023-05-31T11:35:23.000Z</time>
      </trkpt>
      <trkpt lat="45.6785" lon="5.8566">
        <ele>299.20001220703</ele>
        <time>2023-05-31T11:35:29.000Z</time>
      </trkpt>
      <trkpt lat="45.67842" lon="5.85658">
        <ele>299.20001220703</ele>
        <time>2023-05-31T11:35:30.000Z</time>
      </trkpt>
      <trkpt lat="45.6781" lon="5.85649">
        <ele>298</ele>
        <time>2023-05-31T11:35:34.000Z</time>
      </trkpt>
      <trkpt lat="45.67764" lon="5.85637">
        <ele>297</ele>
        <time>2023-05-31T11:35:40.000Z</time>
      </trkpt>
      <trkpt lat="45.67756" lon="5.85636">
        <ele>296.60000610352</ele>
        <time>2023-05-31T11:35:41.000Z</time>
      </trkpt>
      <trkpt lat="45.67748" lon="5.85636">
        <ele>296.60000610352</ele>
        <time>2023-05-31T11:35:42.000Z</time>
      </trkpt>
      <trkpt lat="45.67726" lon="5.85639">
        <ele>295.79998779297</ele>
        <time>2023-05-31T11:35:45.000Z</time>
      </trkpt>
      <trkpt lat="45.67719" lon="5.85639">
        <ele>295.60000610352</ele>
        <time>2023-05-31T11:35:46.000Z</time>
      </trkpt>
      <trkpt lat="45.6768" lon="5.85644">
        <ele>295.60000610352</ele>
        <time>2023-05-31T11:35:52.000Z</time>
      </trkpt>
      <trkpt lat="45.67661" lon="5.85643">
        <ele>295.79998779297</ele>
        <time>2023-05-31T11:35:55.000Z</time>
      </trkpt>
      <trkpt lat="45.6765" lon="5.85638">
        <ele>295.79998779297</ele>
        <time>2023-05-31T11:35:57.000Z</time>
      </trkpt>
      <trkpt lat="45.67634" lon="5.85623">
        <ele>295.79998779297</ele>
        <time>2023-05-31T11:36:00.000Z</time>
      </trkpt>
      <trkpt lat="45.67622" lon="5.85616">
        <ele>295.79998779297</ele>
        <time>2023-05-31T11:36:02.000Z</time>
      </trkpt>
      <trkpt lat="45.67594" lon="5.85616">
        <ele>295.60000610352</ele>
        <time>2023-05-31T11:36:06.000Z</time>
      </trkpt>
      <trkpt lat="45.67551" lon="5.85628">
        <ele>294.20001220703</ele>
        <time>2023-05-31T11:36:11.000Z</time>
      </trkpt>
      <trkpt lat="45.67526" lon="5.85638">
        <ele>293</ele>
        <time>2023-05-31T11:36:14.000Z</time>
      </trkpt>
      <trkpt lat="45.67508" lon="5.85649">
        <ele>292</ele>
        <time>2023-05-31T11:36:16.000Z</time>
      </trkpt>
      <trkpt lat="45.67491" lon="5.85659">
        <ele>290.79998779297</ele>
        <time>2023-05-31T11:36:18.000Z</time>
      </trkpt>
      <trkpt lat="45.67472" lon="5.85662">
        <ele>290.20001220703</ele>
        <time>2023-05-31T11:36:20.000Z</time>
      </trkpt>
      <trkpt lat="45.67463" lon="5.85659">
        <ele>289.20001220703</ele>
        <time>2023-05-31T11:36:21.000Z</time>
      </trkpt>
      <trkpt lat="45.67442" lon="5.85654">
        <ele>287.79998779297</ele>
        <time>2023-05-31T11:36:23.000Z</time>
      </trkpt>
      <trkpt lat="45.67432" lon="5.85652">
        <ele>287.60000610352</ele>
        <time>2023-05-31T11:36:24.000Z</time>
      </trkpt>
      <trkpt lat="45.67421" lon="5.85651">
        <ele>286.60000610352</ele>
        <time>2023-05-31T11:36:25.000Z</time>
      </trkpt>
      <trkpt lat="45.67398" lon="5.85649">
        <ele>285.20001220703</ele>
        <time>2023-05-31T11:36:27.000Z</time>
      </trkpt>
      <trkpt lat="45.67376" lon="5.85646">
        <ele>283.60000610352</ele>
        <time>2023-05-31T11:36:29.000Z</time>
      </trkpt>
      <trkpt lat="45.67365" lon="5.85645">
        <ele>283</ele>
        <time>2023-05-31T11:36:30.000Z</time>
      </trkpt>
      <trkpt lat="45.67353" lon="5.85643">
        <ele>282.60000610352</ele>
        <time>2023-05-31T11:36:31.000Z</time>
      </trkpt>
      <trkpt lat="45.67342" lon="5.85641">
        <ele>281.39999389648</ele>
        <time>2023-05-31T11:36:32.000Z</time>
      </trkpt>
      <trkpt lat="45.67318" lon="5.85636">
        <ele>279.79998779297</ele>
        <time>2023-05-31T11:36:34.000Z</time>
      </trkpt>
      <trkpt lat="45.67306" lon="5.85634">
        <ele>279.39999389648</ele>
        <time>2023-05-31T11:36:35.000Z</time>
      </trkpt>
      <trkpt lat="45.67294" lon="5.85634">
        <ele>278.39999389648</ele>
        <time>2023-05-31T11:36:36.000Z</time>
      </trkpt>
      <trkpt lat="45.67281" lon="5.85634">
        <ele>277.20001220703</ele>
        <time>2023-05-31T11:36:37.000Z</time>
      </trkpt>
      <trkpt lat="45.67256" lon="5.85633">
        <ele>275.79998779297</ele>
        <time>2023-05-31T11:36:39.000Z</time>
      </trkpt>
      <trkpt lat="45.67232" lon="5.85632">
        <ele>274.79998779297</ele>
        <time>2023-05-31T11:36:41.000Z</time>
      </trkpt>
      <trkpt lat="45.67209" lon="5.8563">
        <ele>273</ele>
        <time>2023-05-31T11:36:43.000Z</time>
      </trkpt>
      <trkpt lat="45.67197" lon="5.8563">
        <ele>271.60000610352</ele>
        <time>2023-05-31T11:36:44.000Z</time>
      </trkpt>
      <trkpt lat="45.6717" lon="5.85629">
        <ele>269.79998779297</ele>
        <time>2023-05-31T11:36:46.000Z</time>
      </trkpt>
      <trkpt lat="45.67146" lon="5.85629">
        <ele>268.20001220703</ele>
        <time>2023-05-31T11:36:48.000Z</time>
      </trkpt>
      <trkpt lat="45.67123" lon="5.85627">
        <ele>266.60000610352</ele>
        <time>2023-05-31T11:36:50.000Z</time>
      </trkpt>
      <trkpt lat="45.67112" lon="5.85627">
        <ele>266</ele>
        <time>2023-05-31T11:36:51.000Z</time>
      </trkpt>
      <trkpt lat="45.67101" lon="5.85627">
        <ele>265.60000610352</ele>
        <time>2023-05-31T11:36:52.000Z</time>
      </trkpt>
      <trkpt lat="45.67091" lon="5.85628">
        <ele>264.60000610352</ele>
        <time>2023-05-31T11:36:53.000Z</time>
      </trkpt>
      <trkpt lat="45.67082" lon="5.85632">
        <ele>264</ele>
        <time>2023-05-31T11:36:54.000Z</time>
      </trkpt>
      <trkpt lat="45.67075" lon="5.85637">
        <ele>262.60000610352</ele>
        <time>2023-05-31T11:36:55.000Z</time>
      </trkpt>
      <trkpt lat="45.67068" lon="5.85644">
        <ele>262.20001220703</ele>
        <time>2023-05-31T11:36:56.000Z</time>
      </trkpt>
      <trkpt lat="45.67063" lon="5.85653">
        <ele>261</ele>
        <time>2023-05-31T11:36:57.000Z</time>
      </trkpt>
      <trkpt lat="45.67055" lon="5.85673">
        <ele>259.60000610352</ele>
        <time>2023-05-31T11:36:59.000Z</time>
      </trkpt>
      <trkpt lat="45.67049" lon="5.8568">
        <ele>258.79998779297</ele>
        <time>2023-05-31T11:37:00.000Z</time>
      </trkpt>
      <trkpt lat="45.67041" lon="5.85684">
        <ele>258.20001220703</ele>
        <time>2023-05-31T11:37:01.000Z</time>
      </trkpt>
      <trkpt lat="45.67033" lon="5.85685">
        <ele>257.20001220703</ele>
        <time>2023-05-31T11:37:02.000Z</time>
      </trkpt>
      <trkpt lat="45.67013" lon="5.85689">
        <ele>256</ele>
        <time>2023-05-31T11:37:04.000Z</time>
      </trkpt>
      <trkpt lat="45.66994" lon="5.85694">
        <ele>254.60000610352</ele>
        <time>2023-05-31T11:37:06.000Z</time>
      </trkpt>
      <trkpt lat="45.66984" lon="5.85696">
        <ele>253.60000610352</ele>
        <time>2023-05-31T11:37:07.000Z</time>
      </trkpt>
      <trkpt lat="45.66964" lon="5.85699">
        <ele>252.39999389648</ele>
        <time>2023-05-31T11:37:09.000Z</time>
      </trkpt>
      <trkpt lat="45.66941" lon="5.85705">
        <ele>251</ele>
        <time>2023-05-31T11:37:11.000Z</time>
      </trkpt>
      <trkpt lat="45.6693" lon="5.85707">
        <ele>250.39999389648</ele>
        <time>2023-05-31T11:37:12.000Z</time>
      </trkpt>
      <trkpt lat="45.66918" lon="5.85709">
        <ele>249.80000305176</ele>
        <time>2023-05-31T11:37:13.000Z</time>
      </trkpt>
      <trkpt lat="45.66907" lon="5.8571">
        <ele>248.80000305176</ele>
        <time>2023-05-31T11:37:14.000Z</time>
      </trkpt>
      <trkpt lat="45.66885" lon="5.85712">
        <ele>246.80000305176</ele>
        <time>2023-05-31T11:37:16.000Z</time>
      </trkpt>
      <trkpt lat="45.66875" lon="5.85714">
        <ele>246.19999694824</ele>
        <time>2023-05-31T11:37:17.000Z</time>
      </trkpt>
      <trkpt lat="45.66866" lon="5.85717">
        <ele>245.60000610352</ele>
        <time>2023-05-31T11:37:18.000Z</time>
      </trkpt>
      <trkpt lat="45.66842" lon="5.85725">
        <ele>245</ele>
        <time>2023-05-31T11:37:21.000Z</time>
      </trkpt>
      <trkpt lat="45.66827" lon="5.85732">
        <ele>244.60000610352</ele>
        <time>2023-05-31T11:37:23.000Z</time>
      </trkpt>
      <trkpt lat="45.66792" lon="5.85749">
        <ele>244.19999694824</ele>
        <time>2023-05-31T11:37:28.000Z</time>
      </trkpt>
      <trkpt lat="45.66749" lon="5.85774">
        <ele>243.80000305176</ele>
        <time>2023-05-31T11:37:34.000Z</time>
      </trkpt>
      <trkpt lat="45.66693" lon="5.85804">
        <ele>243.60000610352</ele>
        <time>2023-05-31T11:37:42.000Z</time>
      </trkpt>
      <trkpt lat="45.66686" lon="5.85807">
        <ele>243.60000610352</ele>
        <time>2023-05-31T11:37:43.000Z</time>
      </trkpt>
      <trkpt lat="45.66668" lon="5.85813">
        <ele>243.60000610352</ele>
        <time>2023-05-31T11:37:46.000Z</time>
      </trkpt>
      <trkpt lat="45.66654" lon="5.85816">
        <ele>243.60000610352</ele>
        <time>2023-05-31T11:37:48.000Z</time>
      </trkpt>
      <trkpt lat="45.66622" lon="5.85824">
        <ele>243.60000610352</ele>
        <time>2023-05-31T11:37:53.000Z</time>
      </trkpt>
      <trkpt lat="45.66616" lon="5.85825">
        <ele>243.60000610352</ele>
        <time>2023-05-31T11:37:54.000Z</time>
      </trkpt>
      <trkpt lat="45.66568" lon="5.85848">
        <ele>243.39999389648</ele>
        <time>2023-05-31T11:38:02.000Z</time>
      </trkpt>
      <trkpt lat="45.66514" lon="5.85872">
        <ele>243.60000610352</ele>
        <time>2023-05-31T11:38:11.000Z</time>
      </trkpt>
      <trkpt lat="45.66502" lon="5.85872">
        <ele>243.60000610352</ele>
        <time>2023-05-31T11:38:13.000Z</time>
      </trkpt>
      <trkpt lat="45.66483" lon="5.8587">
        <ele>243.60000610352</ele>
        <time>2023-05-31T11:38:16.000Z</time>
      </trkpt>
      <trkpt lat="45.66478" lon="5.85868">
        <ele>243.60000610352</ele>
        <time>2023-05-31T11:38:17.000Z</time>
      </trkpt>
      <trkpt lat="45.6646" lon="5.85859">
        <ele>243.39999389648</ele>
        <time>2023-05-31T11:38:20.000Z</time>
      </trkpt>
      <trkpt lat="45.66454" lon="5.85855">
        <ele>243.39999389648</ele>
        <time>2023-05-31T11:38:21.000Z</time>
      </trkpt>
      <trkpt lat="45.66449" lon="5.8585">
        <ele>243.39999389648</ele>
        <time>2023-05-31T11:38:22.000Z</time>
      </trkpt>
      <trkpt lat="45.66435" lon="5.85833">
        <ele>243.39999389648</ele>
        <time>2023-05-31T11:38:25.000Z</time>
      </trkpt>
      <trkpt lat="45.66429" lon="5.85829">
        <ele>243.19999694824</ele>
        <time>2023-05-31T11:38:26.000Z</time>
      </trkpt>
      <trkpt lat="45.66394" lon="5.85814">
        <ele>243.19999694824</ele>
        <time>2023-05-31T11:38:32.000Z</time>
      </trkpt>
      <trkpt lat="45.66345" lon="5.85799">
        <ele>243.19999694824</ele>
        <time>2023-05-31T11:38:40.000Z</time>
      </trkpt>
      <trkpt lat="45.66299" lon="5.85797">
        <ele>243.19999694824</ele>
        <time>2023-05-31T11:38:48.000Z</time>
      </trkpt>
      <trkpt lat="45.66244" lon="5.85799">
        <ele>243.80000305176</ele>
        <time>2023-05-31T11:38:57.000Z</time>
      </trkpt>
      <trkpt lat="45.66207" lon="5.8581">
        <ele>243.80000305176</ele>
        <time>2023-05-31T11:39:03.000Z</time>
      </trkpt>
      <trkpt lat="45.6617" lon="5.85828">
        <ele>243.80000305176</ele>
        <time>2023-05-31T11:39:09.000Z</time>
      </trkpt>
      <trkpt lat="45.66157" lon="5.85832">
        <ele>243.80000305176</ele>
        <time>2023-05-31T11:39:11.000Z</time>
      </trkpt>
      <trkpt lat="45.66101" lon="5.85833">
        <ele>243.80000305176</ele>
        <time>2023-05-31T11:39:20.000Z</time>
      </trkpt>
      <trkpt lat="45.66095" lon="5.85833">
        <ele>243.80000305176</ele>
        <time>2023-05-31T11:39:21.000Z</time>
      </trkpt>
      <trkpt lat="45.66039" lon="5.85833">
        <ele>243.80000305176</ele>
        <time>2023-05-31T11:39:30.000Z</time>
      </trkpt>
      <trkpt lat="45.66026" lon="5.85836">
        <ele>243.80000305176</ele>
        <time>2023-05-31T11:39:32.000Z</time>
      </trkpt>
      <trkpt lat="45.6601" lon="5.85845">
        <ele>243.80000305176</ele>
        <time>2023-05-31T11:39:35.000Z</time>
      </trkpt>
      <trkpt lat="45.65991" lon="5.85855">
        <ele>243.80000305176</ele>
        <time>2023-05-31T11:39:38.000Z</time>
      </trkpt>
      <trkpt lat="45.65973" lon="5.8586">
        <ele>243.80000305176</ele>
        <time>2023-05-31T11:39:41.000Z</time>
      </trkpt>
      <trkpt lat="45.65931" lon="5.85876">
        <ele>243.39999389648</ele>
        <time>2023-05-31T11:39:48.000Z</time>
      </trkpt>
      <trkpt lat="45.659" lon="5.8588">
        <ele>243.39999389648</ele>
        <time>2023-05-31T11:39:53.000Z</time>
      </trkpt>
      <trkpt lat="45.65894" lon="5.85878">
        <ele>243.39999389648</ele>
        <time>2023-05-31T11:39:54.000Z</time>
      </trkpt>
      <trkpt lat="45.65845" lon="5.85867">
        <ele>243.60000610352</ele>
        <time>2023-05-31T11:40:02.000Z</time>
      </trkpt>
      <trkpt lat="45.65787" lon="5.85855">
        <ele>243.39999389648</ele>
        <time>2023-05-31T11:40:11.000Z</time>
      </trkpt>
      <trkpt lat="45.65781" lon="5.85854">
        <ele>243.39999389648</ele>
        <time>2023-05-31T11:40:12.000Z</time>
      </trkpt>
      <trkpt lat="45.6573" lon="5.85847">
        <ele>243.60000610352</ele>
        <time>2023-05-31T11:40:20.000Z</time>
      </trkpt>
      <trkpt lat="45.65706" lon="5.85846">
        <ele>243.80000305176</ele>
        <time>2023-05-31T11:40:24.000Z</time>
      </trkpt>
      <trkpt lat="45.65694" lon="5.85849">
        <ele>244</ele>
        <time>2023-05-31T11:40:26.000Z</time>
      </trkpt>
      <trkpt lat="45.65688" lon="5.85851">
        <ele>244</ele>
        <time>2023-05-31T11:40:27.000Z</time>
      </trkpt>
      <trkpt lat="45.65677" lon="5.85858">
        <ele>244</ele>
        <time>2023-05-31T11:40:29.000Z</time>
      </trkpt>
      <trkpt lat="45.65661" lon="5.85871">
        <ele>244</ele>
        <time>2023-05-31T11:40:32.000Z</time>
      </trkpt>
      <trkpt lat="45.65644" lon="5.85886">
        <ele>244</ele>
        <time>2023-05-31T11:40:35.000Z</time>
      </trkpt>
      <trkpt lat="45.65634" lon="5.85894">
        <ele>244</ele>
        <time>2023-05-31T11:40:37.000Z</time>
      </trkpt>
      <trkpt lat="45.65628" lon="5.85898">
        <ele>244</ele>
        <time>2023-05-31T11:40:38.000Z</time>
      </trkpt>
      <trkpt lat="45.65623" lon="5.85903">
        <ele>244</ele>
        <time>2023-05-31T11:40:39.000Z</time>
      </trkpt>
      <trkpt lat="45.656" lon="5.85927">
        <ele>243.80000305176</ele>
        <time>2023-05-31T11:40:44.000Z</time>
      </trkpt>
      <trkpt lat="45.65592" lon="5.85936">
        <ele>243.80000305176</ele>
        <time>2023-05-31T11:40:46.000Z</time>
      </trkpt>
      <trkpt lat="45.65581" lon="5.85947">
        <ele>243.80000305176</ele>
        <time>2023-05-31T11:40:49.000Z</time>
      </trkpt>
      <trkpt lat="45.65574" lon="5.85957">
        <ele>243.39999389648</ele>
        <time>2023-05-31T11:40:52.000Z</time>
      </trkpt>
      <trkpt lat="45.65574" lon="5.85959">
        <ele>243.39999389648</ele>
        <time>2023-05-31T11:40:53.000Z</time>
      </trkpt>
      <trkpt lat="45.65574" lon="5.85964">
        <ele>243.19999694824</ele>
        <time>2023-05-31T11:40:55.000Z</time>
      </trkpt>
      <trkpt lat="45.65572" lon="5.85968">
        <ele>243.19999694824</ele>
        <time>2023-05-31T11:40:57.000Z</time>
      </trkpt>
      <trkpt lat="45.65572" lon="5.85968">
        <ele>243.19999694824</ele>
        <time>2023-05-31T11:40:59.000Z</time>
      </trkpt>
      <trkpt lat="45.65572" lon="5.85968">
        <ele>243.19999694824</ele>
        <time>2023-05-31T11:41:00.000Z</time>
      </trkpt>
      <trkpt lat="45.6557" lon="5.8597">
        <ele>243.19999694824</ele>
        <time>2023-05-31T11:42:47.000Z</time>
      </trkpt>
      <trkpt lat="45.65564" lon="5.85973">
        <ele>243.39999389648</ele>
        <time>2023-05-31T11:42:50.000Z</time>
      </trkpt>
      <trkpt lat="45.6555" lon="5.8598">
        <ele>243.39999389648</ele>
        <time>2023-05-31T11:42:56.000Z</time>
      </trkpt>
      <trkpt lat="45.65542" lon="5.85981">
        <ele>243.60000610352</ele>
        <time>2023-05-31T11:42:59.000Z</time>
      </trkpt>
      <trkpt lat="45.65538" lon="5.8598">
        <ele>243.80000305176</ele>
        <time>2023-05-31T11:43:01.000Z</time>
      </trkpt>
      <trkpt lat="45.6553" lon="5.8598">
        <ele>243.80000305176</ele>
        <time>2023-05-31T11:43:03.000Z</time>
      </trkpt>
      <trkpt lat="45.65522" lon="5.85986">
        <ele>243.80000305176</ele>
        <time>2023-05-31T11:43:05.000Z</time>
      </trkpt>
      <trkpt lat="45.65516" lon="5.85997">
        <ele>243.80000305176</ele>
        <time>2023-05-31T11:43:07.000Z</time>
      </trkpt>
      <trkpt lat="45.65511" lon="5.86009">
        <ele>243.80000305176</ele>
        <time>2023-05-31T11:43:09.000Z</time>
      </trkpt>
      <trkpt lat="45.65502" lon="5.86028">
        <ele>243.80000305176</ele>
        <time>2023-05-31T11:43:13.000Z</time>
      </trkpt>
      <trkpt lat="45.655" lon="5.86045">
        <ele>243.80000305176</ele>
        <time>2023-05-31T11:43:16.000Z</time>
      </trkpt>
      <trkpt lat="45.655" lon="5.86051">
        <ele>243.80000305176</ele>
        <time>2023-05-31T11:43:17.000Z</time>
      </trkpt>
      <trkpt lat="45.65506" lon="5.86097">
        <ele>243.80000305176</ele>
        <time>2023-05-31T11:43:24.000Z</time>
      </trkpt>
      <trkpt lat="45.65511" lon="5.86131">
        <ele>243.60000610352</ele>
        <time>2023-05-31T11:43:31.000Z</time>
      </trkpt>
      <trkpt lat="45.65512" lon="5.86134">
        <ele>243.39999389648</ele>
        <time>2023-05-31T11:43:35.000Z</time>
      </trkpt>
      <trkpt lat="45.65515" lon="5.86159">
        <ele>243</ele>
        <time>2023-05-31T11:57:31.000Z</time>
      </trkpt>
      <trkpt lat="45.65517" lon="5.86167">
        <ele>243</ele>
        <time>2023-05-31T11:57:33.000Z</time>
      </trkpt>
      <trkpt lat="45.65518" lon="5.86178">
        <ele>243</ele>
        <time>2023-05-31T11:57:36.000Z</time>
      </trkpt>
      <trkpt lat="45.65517" lon="5.8618">
        <ele>243</ele>
        <time>2023-05-31T11:57:37.000Z</time>
      </trkpt>
      <trkpt lat="45.65503" lon="5.86178">
        <ele>243.19999694824</ele>
        <time>2023-05-31T11:57:42.000Z</time>
      </trkpt>
      <trkpt lat="45.65488" lon="5.86174">
        <ele>243.19999694824</ele>
        <time>2023-05-31T11:57:46.000Z</time>
      </trkpt>
      <trkpt lat="45.65457" lon="5.8617">
        <ele>243.19999694824</ele>
        <time>2023-05-31T11:57:53.000Z</time>
      </trkpt>
      <trkpt lat="45.65438" lon="5.86168">
        <ele>243.19999694824</ele>
        <time>2023-05-31T11:57:57.000Z</time>
      </trkpt>
      <trkpt lat="45.65419" lon="5.86171">
        <ele>243.39999389648</ele>
        <time>2023-05-31T11:58:01.000Z</time>
      </trkpt>
      <trkpt lat="45.65376" lon="5.86186">
        <ele>243.80000305176</ele>
        <time>2023-05-31T11:58:10.000Z</time>
      </trkpt>
      <trkpt lat="45.65371" lon="5.86189">
        <ele>244</ele>
        <time>2023-05-31T11:58:11.000Z</time>
      </trkpt>
      <trkpt lat="45.65367" lon="5.86193">
        <ele>244</ele>
        <time>2023-05-31T11:58:13.000Z</time>
      </trkpt>
      <trkpt lat="45.65354" lon="5.86205">
        <ele>244</ele>
        <time>2023-05-31T11:58:15.000Z</time>
      </trkpt>
      <trkpt lat="45.65345" lon="5.86212">
        <ele>244.19999694824</ele>
        <time>2023-05-31T11:58:17.000Z</time>
      </trkpt>
      <trkpt lat="45.6534" lon="5.86213">
        <ele>244.19999694824</ele>
        <time>2023-05-31T11:58:19.000Z</time>
      </trkpt>
      <trkpt lat="45.65331" lon="5.86214">
        <ele>244.39999389648</ele>
        <time>2023-05-31T11:58:20.000Z</time>
      </trkpt>
      <trkpt lat="45.6531" lon="5.86211">
        <ele>244.60000610352</ele>
        <time>2023-05-31T11:58:24.000Z</time>
      </trkpt>
      <trkpt lat="45.65298" lon="5.86215">
        <ele>244.60000610352</ele>
        <time>2023-05-31T11:58:26.000Z</time>
      </trkpt>
      <trkpt lat="45.65293" lon="5.86219">
        <ele>244.60000610352</ele>
        <time>2023-05-31T11:58:27.000Z</time>
      </trkpt>
      <trkpt lat="45.65282" lon="5.86226">
        <ele>244.39999389648</ele>
        <time>2023-05-31T11:58:29.000Z</time>
      </trkpt>
      <trkpt lat="45.6527" lon="5.86232">
        <ele>244.39999389648</ele>
        <time>2023-05-31T11:58:31.000Z</time>
      </trkpt>
      <trkpt lat="45.65264" lon="5.86233">
        <ele>244.19999694824</ele>
        <time>2023-05-31T11:58:32.000Z</time>
      </trkpt>
      <trkpt lat="45.65252" lon="5.86235">
        <ele>244.19999694824</ele>
        <time>2023-05-31T11:58:34.000Z</time>
      </trkpt>
      <trkpt lat="45.6524" lon="5.86233">
        <ele>243.80000305176</ele>
        <time>2023-05-31T11:58:37.000Z</time>
      </trkpt>
      <trkpt lat="45.65212" lon="5.86225">
        <ele>243.80000305176</ele>
        <time>2023-05-31T11:58:41.000Z</time>
      </trkpt>
      <trkpt lat="45.65202" lon="5.8622">
        <ele>243.60000610352</ele>
        <time>2023-05-31T11:58:43.000Z</time>
      </trkpt>
      <trkpt lat="45.65191" lon="5.86211">
        <ele>243.80000305176</ele>
        <time>2023-05-31T11:58:47.000Z</time>
      </trkpt>
      <trkpt lat="45.65183" lon="5.86209">
        <ele>243.80000305176</ele>
        <time>2023-05-31T11:58:48.000Z</time>
      </trkpt>
      <trkpt lat="45.65173" lon="5.86211">
        <ele>244</ele>
        <time>2023-05-31T11:58:50.000Z</time>
      </trkpt>
      <trkpt lat="45.65161" lon="5.86212">
        <ele>244</ele>
        <time>2023-05-31T11:58:52.000Z</time>
      </trkpt>
      <trkpt lat="45.65153" lon="5.86211">
        <ele>244</ele>
        <time>2023-05-31T11:58:54.000Z</time>
      </trkpt>
      <trkpt lat="45.65144" lon="5.86206">
        <ele>244</ele>
        <time>2023-05-31T11:58:56.000Z</time>
      </trkpt>
      <trkpt lat="45.65139" lon="5.86203">
        <ele>244</ele>
        <time>2023-05-31T11:58:57.000Z</time>
      </trkpt>
      <trkpt lat="45.65096" lon="5.86181">
        <ele>244.19999694824</ele>
        <time>2023-05-31T11:59:05.000Z</time>
      </trkpt>
      <trkpt lat="45.6509" lon="5.86181">
        <ele>244.19999694824</ele>
        <time>2023-05-31T11:59:06.000Z</time>
      </trkpt>
      <trkpt lat="45.6508" lon="5.86181">
        <ele>244.39999389648</ele>
        <time>2023-05-31T11:59:08.000Z</time>
      </trkpt>
      <trkpt lat="45.65074" lon="5.86181">
        <ele>244.60000610352</ele>
        <time>2023-05-31T11:59:09.000Z</time>
      </trkpt>
      <trkpt lat="45.6503" lon="5.86181">
        <ele>244.80000305176</ele>
        <time>2023-05-31T11:59:16.000Z</time>
      </trkpt>
      <trkpt lat="45.6499" lon="5.86185">
        <ele>244.80000305176</ele>
        <time>2023-05-31T11:59:23.000Z</time>
      </trkpt>
      <trkpt lat="45.6498" lon="5.8619">
        <ele>244.80000305176</ele>
        <time>2023-05-31T11:59:26.000Z</time>
      </trkpt>
      <trkpt lat="45.64979" lon="5.86196">
        <ele>244.80000305176</ele>
        <time>2023-05-31T11:59:28.000Z</time>
      </trkpt>
      <trkpt lat="45.64978" lon="5.86202">
        <ele>245</ele>
        <time>2023-05-31T11:59:30.000Z</time>
      </trkpt>
      <trkpt lat="45.64977" lon="5.86214">
        <ele>245.60000610352</ele>
        <time>2023-05-31T11:59:33.000Z</time>
      </trkpt>
      <trkpt lat="45.64977" lon="5.86224">
        <ele>245.80000305176</ele>
        <time>2023-05-31T11:59:35.000Z</time>
      </trkpt>
      <trkpt lat="45.64978" lon="5.86237">
        <ele>246</ele>
        <time>2023-05-31T11:59:37.000Z</time>
      </trkpt>
      <trkpt lat="45.64978" lon="5.86246">
        <ele>246</ele>
        <time>2023-05-31T11:59:38.000Z</time>
      </trkpt>
      <trkpt lat="45.64977" lon="5.86255">
        <ele>245.80000305176</ele>
        <time>2023-05-31T11:59:39.000Z</time>
      </trkpt>
      <trkpt lat="45.64972" lon="5.86273">
        <ele>245.60000610352</ele>
        <time>2023-05-31T11:59:41.000Z</time>
      </trkpt>
      <trkpt lat="45.64962" lon="5.86286">
        <ele>245.19999694824</ele>
        <time>2023-05-31T11:59:43.000Z</time>
      </trkpt>
      <trkpt lat="45.6495" lon="5.86297">
        <ele>244.39999389648</ele>
        <time>2023-05-31T11:59:45.000Z</time>
      </trkpt>
      <trkpt lat="45.64929" lon="5.8632">
        <ele>243.80000305176</ele>
        <time>2023-05-31T11:59:49.000Z</time>
      </trkpt>
      <trkpt lat="45.64921" lon="5.86334">
        <ele>243.60000610352</ele>
        <time>2023-05-31T11:59:51.000Z</time>
      </trkpt>
      <trkpt lat="45.649" lon="5.86368">
        <ele>243.39999389648</ele>
        <time>2023-05-31T11:59:56.000Z</time>
      </trkpt>
      <trkpt lat="45.64888" lon="5.86388">
        <ele>243.39999389648</ele>
        <time>2023-05-31T11:59:59.000Z</time>
      </trkpt>
      <trkpt lat="45.6486" lon="5.86442">
        <ele>243.60000610352</ele>
        <time>2023-05-31T12:00:07.000Z</time>
      </trkpt>
      <trkpt lat="45.64857" lon="5.86448">
        <ele>243.60000610352</ele>
        <time>2023-05-31T12:00:08.000Z</time>
      </trkpt>
      <trkpt lat="45.64847" lon="5.86459">
        <ele>243.80000305176</ele>
        <time>2023-05-31T12:00:10.000Z</time>
      </trkpt>
      <trkpt lat="45.64842" lon="5.8646">
        <ele>243.80000305176</ele>
        <time>2023-05-31T12:00:11.000Z</time>
      </trkpt>
      <trkpt lat="45.64836" lon="5.8646">
        <ele>243.80000305176</ele>
        <time>2023-05-31T12:00:12.000Z</time>
      </trkpt>
      <trkpt lat="45.64814" lon="5.86455">
        <ele>244</ele>
        <time>2023-05-31T12:00:16.000Z</time>
      </trkpt>
      <trkpt lat="45.64804" lon="5.86451">
        <ele>244</ele>
        <time>2023-05-31T12:00:18.000Z</time>
      </trkpt>
      <trkpt lat="45.64796" lon="5.86443">
        <ele>244.19999694824</ele>
        <time>2023-05-31T12:00:20.000Z</time>
      </trkpt>
      <trkpt lat="45.64793" lon="5.86433">
        <ele>244.39999389648</ele>
        <time>2023-05-31T12:00:22.000Z</time>
      </trkpt>
      <trkpt lat="45.64793" lon="5.86426">
        <ele>244.60000610352</ele>
        <time>2023-05-31T12:00:23.000Z</time>
      </trkpt>
      <trkpt lat="45.64791" lon="5.86383">
        <ele>245.60000610352</ele>
        <time>2023-05-31T12:00:29.000Z</time>
      </trkpt>
      <trkpt lat="45.64788" lon="5.86355">
        <ele>245.80000305176</ele>
        <time>2023-05-31T12:00:33.000Z</time>
      </trkpt>
      <trkpt lat="45.64787" lon="5.86316">
        <ele>245.80000305176</ele>
        <time>2023-05-31T12:00:39.000Z</time>
      </trkpt>
      <trkpt lat="45.64786" lon="5.86312">
        <ele>246</ele>
        <time>2023-05-31T12:00:40.000Z</time>
      </trkpt>
      <trkpt lat="45.64781" lon="5.86309">
        <ele>246.19999694824</ele>
        <time>2023-05-31T12:00:42.000Z</time>
      </trkpt>
      <trkpt lat="45.64777" lon="5.86314">
        <ele>246</ele>
        <time>2023-05-31T12:00:44.000Z</time>
      </trkpt>
      <trkpt lat="45.64773" lon="5.86323">
        <ele>246</ele>
        <time>2023-05-31T12:00:46.000Z</time>
      </trkpt>
      <trkpt lat="45.64766" lon="5.86333">
        <ele>246</ele>
        <time>2023-05-31T12:00:48.000Z</time>
      </trkpt>
      <trkpt lat="45.64759" lon="5.86341">
        <ele>246.19999694824</ele>
        <time>2023-05-31T12:00:50.000Z</time>
      </trkpt>
      <trkpt lat="45.64747" lon="5.86353">
        <ele>246.19999694824</ele>
        <time>2023-05-31T12:00:53.000Z</time>
      </trkpt>
      <trkpt lat="45.64739" lon="5.86361">
        <ele>246.39999389648</ele>
        <time>2023-05-31T12:00:55.000Z</time>
      </trkpt>
      <trkpt lat="45.64734" lon="5.86365">
        <ele>246.60000610352</ele>
        <time>2023-05-31T12:00:56.000Z</time>
      </trkpt>
      <trkpt lat="45.6473" lon="5.86369">
        <ele>246.60000610352</ele>
        <time>2023-05-31T12:00:57.000Z</time>
      </trkpt>
      <trkpt lat="45.64721" lon="5.86379">
        <ele>246.80000305176</ele>
        <time>2023-05-31T12:01:00.000Z</time>
      </trkpt>
      <trkpt lat="45.64715" lon="5.86385">
        <ele>246.80000305176</ele>
        <time>2023-05-31T12:01:02.000Z</time>
      </trkpt>
      <trkpt lat="45.64711" lon="5.86389">
        <ele>246.80000305176</ele>
        <time>2023-05-31T12:01:03.000Z</time>
      </trkpt>
      <trkpt lat="45.64706" lon="5.86392">
        <ele>247</ele>
        <time>2023-05-31T12:01:04.000Z</time>
      </trkpt>
      <trkpt lat="45.64681" lon="5.86419">
        <ele>246.39999389648</ele>
        <time>2023-05-31T12:01:09.000Z</time>
      </trkpt>
      <trkpt lat="45.64661" lon="5.86445">
        <ele>245.60000610352</ele>
        <time>2023-05-31T12:01:13.000Z</time>
      </trkpt>
      <trkpt lat="45.64652" lon="5.86456">
        <ele>245.60000610352</ele>
        <time>2023-05-31T12:01:15.000Z</time>
      </trkpt>
      <trkpt lat="45.64644" lon="5.86466">
        <ele>245.39999389648</ele>
        <time>2023-05-31T12:01:17.000Z</time>
      </trkpt>
      <trkpt lat="45.64637" lon="5.86475">
        <ele>245.60000610352</ele>
        <time>2023-05-31T12:01:19.000Z</time>
      </trkpt>
      <trkpt lat="45.64629" lon="5.86484">
        <ele>245.60000610352</ele>
        <time>2023-05-31T12:01:21.000Z</time>
      </trkpt>
      <trkpt lat="45.6462" lon="5.86501">
        <ele>246.19999694824</ele>
        <time>2023-05-31T12:01:24.000Z</time>
      </trkpt>
      <trkpt lat="45.64605" lon="5.86522">
        <ele>246.80000305176</ele>
        <time>2023-05-31T12:01:28.000Z</time>
      </trkpt>
      <trkpt lat="45.64595" lon="5.86533">
        <ele>247</ele>
        <time>2023-05-31T12:01:30.000Z</time>
      </trkpt>
      <trkpt lat="45.64591" lon="5.86538">
        <ele>247</ele>
        <time>2023-05-31T12:01:31.000Z</time>
      </trkpt>
      <trkpt lat="45.64565" lon="5.86566">
        <ele>247.19999694824</ele>
        <time>2023-05-31T12:01:37.000Z</time>
      </trkpt>
      <trkpt lat="45.64532" lon="5.86592">
        <ele>247.19999694824</ele>
        <time>2023-05-31T12:01:44.000Z</time>
      </trkpt>
      <trkpt lat="45.64505" lon="5.86607">
        <ele>247.39999389648</ele>
        <time>2023-05-31T12:01:50.000Z</time>
      </trkpt>
      <trkpt lat="45.64472" lon="5.86613">
        <ele>247.39999389648</ele>
        <time>2023-05-31T12:01:56.000Z</time>
      </trkpt>
      <trkpt lat="45.6443" lon="5.86616">
        <ele>246.80000305176</ele>
        <time>2023-05-31T12:02:03.000Z</time>
      </trkpt>
      <trkpt lat="45.64418" lon="5.86616">
        <ele>246.80000305176</ele>
        <time>2023-05-31T12:02:05.000Z</time>
      </trkpt>
      <trkpt lat="45.64408" lon="5.86619">
        <ele>246.80000305176</ele>
        <time>2023-05-31T12:02:08.000Z</time>
      </trkpt>
      <trkpt lat="45.64407" lon="5.86626">
        <ele>246.80000305176</ele>
        <time>2023-05-31T12:02:10.000Z</time>
      </trkpt>
      <trkpt lat="45.64407" lon="5.86632">
        <ele>247</ele>
        <time>2023-05-31T12:02:11.000Z</time>
      </trkpt>
      <trkpt lat="45.64413" lon="5.86659">
        <ele>247.60000610352</ele>
        <time>2023-05-31T12:02:16.000Z</time>
      </trkpt>
      <trkpt lat="45.64412" lon="5.86667">
        <ele>247.80000305176</ele>
        <time>2023-05-31T12:02:18.000Z</time>
      </trkpt>
      <trkpt lat="45.6441" lon="5.86671">
        <ele>247.80000305176</ele>
        <time>2023-05-31T12:02:19.000Z</time>
      </trkpt>
      <trkpt lat="45.64404" lon="5.86673">
        <ele>247.80000305176</ele>
        <time>2023-05-31T12:02:21.000Z</time>
      </trkpt>
      <trkpt lat="45.64393" lon="5.86677">
        <ele>247.80000305176</ele>
        <time>2023-05-31T12:02:23.000Z</time>
      </trkpt>
      <trkpt lat="45.64368" lon="5.86687">
        <ele>247.80000305176</ele>
        <time>2023-05-31T12:02:27.000Z</time>
      </trkpt>
      <trkpt lat="45.64344" lon="5.86694">
        <ele>247.39999389648</ele>
        <time>2023-05-31T12:02:31.000Z</time>
      </trkpt>
      <trkpt lat="45.64339" lon="5.86697">
        <ele>247.39999389648</ele>
        <time>2023-05-31T12:02:32.000Z</time>
      </trkpt>
      <trkpt lat="45.64332" lon="5.86701">
        <ele>247.39999389648</ele>
        <time>2023-05-31T12:02:34.000Z</time>
      </trkpt>
      <trkpt lat="45.64321" lon="5.86706">
        <ele>247.39999389648</ele>
        <time>2023-05-31T12:02:36.000Z</time>
      </trkpt>
      <trkpt lat="45.64315" lon="5.86709">
        <ele>247.39999389648</ele>
        <time>2023-05-31T12:02:37.000Z</time>
      </trkpt>
      <trkpt lat="45.64311" lon="5.86712">
        <ele>247.39999389648</ele>
        <time>2023-05-31T12:02:38.000Z</time>
      </trkpt>
      <trkpt lat="45.64291" lon="5.86723">
        <ele>247.39999389648</ele>
        <time>2023-05-31T12:02:42.000Z</time>
      </trkpt>
      <trkpt lat="45.6426" lon="5.86741">
        <ele>247.39999389648</ele>
        <time>2023-05-31T12:02:48.000Z</time>
      </trkpt>
      <trkpt lat="45.64235" lon="5.86754">
        <ele>247.60000610352</ele>
        <time>2023-05-31T12:02:53.000Z</time>
      </trkpt>
      <trkpt lat="45.64227" lon="5.86757">
        <ele>248</ele>
        <time>2023-05-31T12:02:55.000Z</time>
      </trkpt>
      <trkpt lat="45.64205" lon="5.86766">
        <ele>248.39999389648</ele>
        <time>2023-05-31T12:02:59.000Z</time>
      </trkpt>
      <trkpt lat="45.64178" lon="5.8678">
        <ele>248.60000610352</ele>
        <time>2023-05-31T12:03:05.000Z</time>
      </trkpt>
      <trkpt lat="45.64175" lon="5.86785">
        <ele>248.60000610352</ele>
        <time>2023-05-31T12:03:06.000Z</time>
      </trkpt>
      <trkpt lat="45.64169" lon="5.8679">
        <ele>248.60000610352</ele>
        <time>2023-05-31T12:03:07.000Z</time>
      </trkpt>
      <trkpt lat="45.64149" lon="5.86802">
        <ele>248.80000305176</ele>
        <time>2023-05-31T12:03:10.000Z</time>
      </trkpt>
      <trkpt lat="45.64105" lon="5.8683">
        <ele>248.39999389648</ele>
        <time>2023-05-31T12:03:18.000Z</time>
      </trkpt>
      <trkpt lat="45.64079" lon="5.86845">
        <ele>248.39999389648</ele>
        <time>2023-05-31T12:03:23.000Z</time>
      </trkpt>
      <trkpt lat="45.64073" lon="5.86848">
        <ele>248.39999389648</ele>
        <time>2023-05-31T12:03:24.000Z</time>
      </trkpt>
      <trkpt lat="45.64041" lon="5.86866">
        <ele>248.60000610352</ele>
        <time>2023-05-31T12:03:30.000Z</time>
      </trkpt>
      <trkpt lat="45.64035" lon="5.86869">
        <ele>248.60000610352</ele>
        <time>2023-05-31T12:03:31.000Z</time>
      </trkpt>
      <trkpt lat="45.64004" lon="5.86884">
        <ele>248.60000610352</ele>
        <time>2023-05-31T12:03:37.000Z</time>
      </trkpt>
      <trkpt lat="45.64" lon="5.86884">
        <ele>248.60000610352</ele>
        <time>2023-05-31T12:03:38.000Z</time>
      </trkpt>
      <trkpt lat="45.63987" lon="5.86888">
        <ele>248.60000610352</ele>
        <time>2023-05-31T12:03:40.000Z</time>
      </trkpt>
      <trkpt lat="45.63967" lon="5.86893">
        <ele>248.19999694824</ele>
        <time>2023-05-31T12:03:43.000Z</time>
      </trkpt>
      <trkpt lat="45.63954" lon="5.86891">
        <ele>248.19999694824</ele>
        <time>2023-05-31T12:03:45.000Z</time>
      </trkpt>
      <trkpt lat="45.6395" lon="5.8689">
        <ele>247.80000305176</ele>
        <time>2023-05-31T12:03:46.000Z</time>
      </trkpt>
      <trkpt lat="45.63944" lon="5.86892">
        <ele>247.60000610352</ele>
        <time>2023-05-31T12:03:47.000Z</time>
      </trkpt>
      <trkpt lat="45.63932" lon="5.86898">
        <ele>247.19999694824</ele>
        <time>2023-05-31T12:03:49.000Z</time>
      </trkpt>
      <trkpt lat="45.63925" lon="5.86905">
        <ele>247</ele>
        <time>2023-05-31T12:03:50.000Z</time>
      </trkpt>
      <trkpt lat="45.63916" lon="5.8692">
        <ele>247</ele>
        <time>2023-05-31T12:03:52.000Z</time>
      </trkpt>
      <trkpt lat="45.63912" lon="5.86925">
        <ele>247</ele>
        <time>2023-05-31T12:03:53.000Z</time>
      </trkpt>
      <trkpt lat="45.63901" lon="5.86935">
        <ele>247</ele>
        <time>2023-05-31T12:03:55.000Z</time>
      </trkpt>
      <trkpt lat="45.63895" lon="5.86939">
        <ele>247</ele>
        <time>2023-05-31T12:03:56.000Z</time>
      </trkpt>
      <trkpt lat="45.63865" lon="5.86956">
        <ele>248.19999694824</ele>
        <time>2023-05-31T12:04:02.000Z</time>
      </trkpt>
      <trkpt lat="45.63835" lon="5.86969">
        <ele>248.80000305176</ele>
        <time>2023-05-31T12:04:07.000Z</time>
      </trkpt>
      <trkpt lat="45.63821" lon="5.86973">
        <ele>249</ele>
        <time>2023-05-31T12:04:10.000Z</time>
      </trkpt>
      <trkpt lat="45.63786" lon="5.86976">
        <ele>249</ele>
        <time>2023-05-31T12:04:16.000Z</time>
      </trkpt>
      <trkpt lat="45.63774" lon="5.86976">
        <ele>249</ele>
        <time>2023-05-31T12:04:18.000Z</time>
      </trkpt>
      <trkpt lat="45.63748" lon="5.86976">
        <ele>249</ele>
        <time>2023-05-31T12:04:22.000Z</time>
      </trkpt>
      <trkpt lat="45.637" lon="5.8698">
        <ele>249.39999389648</ele>
        <time>2023-05-31T12:04:30.000Z</time>
      </trkpt>
      <trkpt lat="45.63653" lon="5.86995">
        <ele>249.60000610352</ele>
        <time>2023-05-31T12:04:38.000Z</time>
      </trkpt>
      <trkpt lat="45.63605" lon="5.87006">
        <ele>249.19999694824</ele>
        <time>2023-05-31T12:04:46.000Z</time>
      </trkpt>
      <trkpt lat="45.63555" lon="5.87017">
        <ele>249.39999389648</ele>
        <time>2023-05-31T12:04:54.000Z</time>
      </trkpt>
      <trkpt lat="45.63518" lon="5.87031">
        <ele>249.19999694824</ele>
        <time>2023-05-31T12:05:00.000Z</time>
      </trkpt>
      <trkpt lat="45.63477" lon="5.8706">
        <ele>249.19999694824</ele>
        <time>2023-05-31T12:05:07.000Z</time>
      </trkpt>
      <trkpt lat="45.63448" lon="5.87078">
        <ele>249.39999389648</ele>
        <time>2023-05-31T12:05:12.000Z</time>
      </trkpt>
      <trkpt lat="45.63435" lon="5.87082">
        <ele>249.60000610352</ele>
        <time>2023-05-31T12:05:14.000Z</time>
      </trkpt>
      <trkpt lat="45.63398" lon="5.87087">
        <ele>249.80000305176</ele>
        <time>2023-05-31T12:05:20.000Z</time>
      </trkpt>
      <trkpt lat="45.6334" lon="5.87094">
        <ele>249.80000305176</ele>
        <time>2023-05-31T12:05:29.000Z</time>
      </trkpt>
      <trkpt lat="45.63333" lon="5.87096">
        <ele>249.80000305176</ele>
        <time>2023-05-31T12:05:30.000Z</time>
      </trkpt>
      <trkpt lat="45.6332" lon="5.87097">
        <ele>249.80000305176</ele>
        <time>2023-05-31T12:05:32.000Z</time>
      </trkpt>
      <trkpt lat="45.63288" lon="5.87096">
        <ele>249.80000305176</ele>
        <time>2023-05-31T12:05:37.000Z</time>
      </trkpt>
      <trkpt lat="45.63281" lon="5.87096">
        <ele>249.60000610352</ele>
        <time>2023-05-31T12:05:38.000Z</time>
      </trkpt>
      <trkpt lat="45.63255" lon="5.87105">
        <ele>249.39999389648</ele>
        <time>2023-05-31T12:05:42.000Z</time>
      </trkpt>
      <trkpt lat="45.63206" lon="5.87133">
        <ele>249.39999389648</ele>
        <time>2023-05-31T12:05:50.000Z</time>
      </trkpt>
      <trkpt lat="45.63154" lon="5.87172">
        <ele>249.80000305176</ele>
        <time>2023-05-31T12:05:59.000Z</time>
      </trkpt>
      <trkpt lat="45.63137" lon="5.87183">
        <ele>249.80000305176</ele>
        <time>2023-05-31T12:06:02.000Z</time>
      </trkpt>
      <trkpt lat="45.63124" lon="5.87189">
        <ele>249.80000305176</ele>
        <time>2023-05-31T12:06:04.000Z</time>
      </trkpt>
      <trkpt lat="45.63075" lon="5.87203">
        <ele>249.80000305176</ele>
        <time>2023-05-31T12:06:12.000Z</time>
      </trkpt>
      <trkpt lat="45.63069" lon="5.87202">
        <ele>249.80000305176</ele>
        <time>2023-05-31T12:06:13.000Z</time>
      </trkpt>
      <trkpt lat="45.63049" lon="5.872">
        <ele>249.39999389648</ele>
        <time>2023-05-31T12:06:16.000Z</time>
      </trkpt>
      <trkpt lat="45.63044" lon="5.872">
        <ele>249.39999389648</ele>
        <time>2023-05-31T12:06:17.000Z</time>
      </trkpt>
      <trkpt lat="45.63032" lon="5.87202">
        <ele>249.39999389648</ele>
        <time>2023-05-31T12:06:19.000Z</time>
      </trkpt>
      <trkpt lat="45.63017" lon="5.87207">
        <ele>249.60000610352</ele>
        <time>2023-05-31T12:06:22.000Z</time>
      </trkpt>
      <trkpt lat="45.63012" lon="5.8721">
        <ele>249.60000610352</ele>
        <time>2023-05-31T12:06:23.000Z</time>
      </trkpt>
      <trkpt lat="45.62988" lon="5.87228">
        <ele>250</ele>
        <time>2023-05-31T12:06:27.000Z</time>
      </trkpt>
      <trkpt lat="45.62974" lon="5.8724">
        <ele>250.19999694824</ele>
        <time>2023-05-31T12:06:30.000Z</time>
      </trkpt>
      <trkpt lat="45.6296" lon="5.8725">
        <ele>250.39999389648</ele>
        <time>2023-05-31T12:06:33.000Z</time>
      </trkpt>
      <trkpt lat="45.62933" lon="5.87281">
        <ele>250.19999694824</ele>
        <time>2023-05-31T12:06:38.000Z</time>
      </trkpt>
      <trkpt lat="45.62898" lon="5.87319">
        <ele>250.39999389648</ele>
        <time>2023-05-31T12:06:45.000Z</time>
      </trkpt>
      <trkpt lat="45.62874" lon="5.87346">
        <ele>251.39999389648</ele>
        <time>2023-05-31T12:06:50.000Z</time>
      </trkpt>
      <trkpt lat="45.62869" lon="5.87352">
        <ele>251.39999389648</ele>
        <time>2023-05-31T12:06:51.000Z</time>
      </trkpt>
      <trkpt lat="45.62864" lon="5.87356">
        <ele>251.39999389648</ele>
        <time>2023-05-31T12:06:52.000Z</time>
      </trkpt>
      <trkpt lat="45.62858" lon="5.87359">
        <ele>251.39999389648</ele>
        <time>2023-05-31T12:06:53.000Z</time>
      </trkpt>
      <trkpt lat="45.62831" lon="5.87365">
        <ele>251.19999694824</ele>
        <time>2023-05-31T12:06:57.000Z</time>
      </trkpt>
      <trkpt lat="45.628" lon="5.8737">
        <ele>250.39999389648</ele>
        <time>2023-05-31T12:07:03.000Z</time>
      </trkpt>
      <trkpt lat="45.62795" lon="5.87371">
        <ele>250.19999694824</ele>
        <time>2023-05-31T12:07:04.000Z</time>
      </trkpt>
      <trkpt lat="45.62778" lon="5.87364">
        <ele>250.19999694824</ele>
        <time>2023-05-31T12:07:07.000Z</time>
      </trkpt>
      <trkpt lat="45.62746" lon="5.87346">
        <ele>250.19999694824</ele>
        <time>2023-05-31T12:07:13.000Z</time>
      </trkpt>
      <trkpt lat="45.62714" lon="5.87328">
        <ele>250.19999694824</ele>
        <time>2023-05-31T12:07:19.000Z</time>
      </trkpt>
      <trkpt lat="45.62687" lon="5.87319">
        <ele>250.60000610352</ele>
        <time>2023-05-31T12:07:24.000Z</time>
      </trkpt>
      <trkpt lat="45.62681" lon="5.87319">
        <ele>250.60000610352</ele>
        <time>2023-05-31T12:07:25.000Z</time>
      </trkpt>
      <trkpt lat="45.62651" lon="5.87319">
        <ele>251.39999389648</ele>
        <time>2023-05-31T12:07:31.000Z</time>
      </trkpt>
      <trkpt lat="45.62641" lon="5.87319">
        <ele>251.60000610352</ele>
        <time>2023-05-31T12:07:33.000Z</time>
      </trkpt>
      <trkpt lat="45.62623" lon="5.87322">
        <ele>251.60000610352</ele>
        <time>2023-05-31T12:07:36.000Z</time>
      </trkpt>
      <trkpt lat="45.62605" lon="5.87326">
        <ele>251.80000305176</ele>
        <time>2023-05-31T12:07:39.000Z</time>
      </trkpt>
      <trkpt lat="45.62593" lon="5.8733">
        <ele>251.80000305176</ele>
        <time>2023-05-31T12:07:41.000Z</time>
      </trkpt>
      <trkpt lat="45.62541" lon="5.87355">
        <ele>252</ele>
        <time>2023-05-31T12:07:50.000Z</time>
      </trkpt>
      <trkpt lat="45.62492" lon="5.87398">
        <ele>252.19999694824</ele>
        <time>2023-05-31T12:07:59.000Z</time>
      </trkpt>
      <trkpt lat="45.6245" lon="5.87434">
        <ele>252.39999389648</ele>
        <time>2023-05-31T12:08:07.000Z</time>
      </trkpt>
      <trkpt lat="45.62418" lon="5.87458">
        <ele>252.39999389648</ele>
        <time>2023-05-31T12:08:13.000Z</time>
      </trkpt>
      <trkpt lat="45.62402" lon="5.87471">
        <ele>252.60000610352</ele>
        <time>2023-05-31T12:08:16.000Z</time>
      </trkpt>
      <trkpt lat="45.62358" lon="5.87517">
        <ele>252.39999389648</ele>
        <time>2023-05-31T12:08:25.000Z</time>
      </trkpt>
      <trkpt lat="45.62323" lon="5.87551">
        <ele>252.39999389648</ele>
        <time>2023-05-31T12:08:32.000Z</time>
      </trkpt>
      <trkpt lat="45.62319" lon="5.87557">
        <ele>252.60000610352</ele>
        <time>2023-05-31T12:08:33.000Z</time>
      </trkpt>
      <trkpt lat="45.62306" lon="5.87576">
        <ele>252.60000610352</ele>
        <time>2023-05-31T12:08:36.000Z</time>
      </trkpt>
      <trkpt lat="45.62287" lon="5.87597">
        <ele>252.80000305176</ele>
        <time>2023-05-31T12:08:40.000Z</time>
      </trkpt>
      <trkpt lat="45.62248" lon="5.87638">
        <ele>253.19999694824</ele>
        <time>2023-05-31T12:08:48.000Z</time>
      </trkpt>
      <trkpt lat="45.62213" lon="5.87671">
        <ele>253.19999694824</ele>
        <time>2023-05-31T12:08:55.000Z</time>
      </trkpt>
      <trkpt lat="45.62187" lon="5.87706">
        <ele>253.19999694824</ele>
        <time>2023-05-31T12:09:01.000Z</time>
      </trkpt>
      <trkpt lat="45.62143" lon="5.87753">
        <ele>253</ele>
        <time>2023-05-31T12:09:10.000Z</time>
      </trkpt>
      <trkpt lat="45.62128" lon="5.87768">
        <ele>253.19999694824</ele>
        <time>2023-05-31T12:09:13.000Z</time>
      </trkpt>
      <trkpt lat="45.62081" lon="5.87812">
        <ele>253.60000610352</ele>
        <time>2023-05-31T12:09:22.000Z</time>
      </trkpt>
      <trkpt lat="45.62048" lon="5.87845">
        <ele>253.39999389648</ele>
        <time>2023-05-31T12:09:29.000Z</time>
      </trkpt>
      <trkpt lat="45.62027" lon="5.87867">
        <ele>253.39999389648</ele>
        <time>2023-05-31T12:09:34.000Z</time>
      </trkpt>
      <trkpt lat="45.61994" lon="5.87897">
        <ele>253.80000305176</ele>
        <time>2023-05-31T12:09:41.000Z</time>
      </trkpt>
      <trkpt lat="45.61985" lon="5.87906">
        <ele>254</ele>
        <time>2023-05-31T12:09:42.000Z</time>
      </trkpt>
      <trkpt lat="45.61948" lon="5.87941">
        <ele>254.19999694824</ele>
        <time>2023-05-31T12:09:49.000Z</time>
      </trkpt>
      <trkpt lat="45.61902" lon="5.87987">
        <ele>254.19999694824</ele>
        <time>2023-05-31T12:09:58.000Z</time>
      </trkpt>
      <trkpt lat="45.61897" lon="5.87992">
        <ele>254.19999694824</ele>
        <time>2023-05-31T12:09:59.000Z</time>
      </trkpt>
      <trkpt lat="45.61852" lon="5.88037">
        <ele>254.60000610352</ele>
        <time>2023-05-31T12:10:08.000Z</time>
      </trkpt>
      <trkpt lat="45.61805" lon="5.88081">
        <ele>254.60000610352</ele>
        <time>2023-05-31T12:10:17.000Z</time>
      </trkpt>
      <trkpt lat="45.61795" lon="5.88091">
        <ele>254.80000305176</ele>
        <time>2023-05-31T12:10:19.000Z</time>
      </trkpt>
      <trkpt lat="45.6178" lon="5.88106">
        <ele>254.80000305176</ele>
        <time>2023-05-31T12:10:22.000Z</time>
      </trkpt>
      <trkpt lat="45.61766" lon="5.88125">
        <ele>255</ele>
        <time>2023-05-31T12:10:25.000Z</time>
      </trkpt>
      <trkpt lat="45.61742" lon="5.88169">
        <ele>255</ele>
        <time>2023-05-31T12:10:31.000Z</time>
      </trkpt>
      <trkpt lat="45.6173" lon="5.88192">
        <ele>254.80000305176</ele>
        <time>2023-05-31T12:10:34.000Z</time>
      </trkpt>
      <trkpt lat="45.61712" lon="5.88219">
        <ele>254.80000305176</ele>
        <time>2023-05-31T12:10:38.000Z</time>
      </trkpt>
      <trkpt lat="45.61676" lon="5.88271">
        <ele>255</ele>
        <time>2023-05-31T12:10:46.000Z</time>
      </trkpt>
      <trkpt lat="45.61637" lon="5.88306">
        <ele>255</ele>
        <time>2023-05-31T12:10:53.000Z</time>
      </trkpt>
      <trkpt lat="45.61601" lon="5.88326">
        <ele>255</ele>
        <time>2023-05-31T12:10:59.000Z</time>
      </trkpt>
      <trkpt lat="45.61558" lon="5.88332">
        <ele>255.39999389648</ele>
        <time>2023-05-31T12:11:06.000Z</time>
      </trkpt>
      <trkpt lat="45.61519" lon="5.88332">
        <ele>256</ele>
        <time>2023-05-31T12:11:12.000Z</time>
      </trkpt>
      <trkpt lat="45.61499" lon="5.88333">
        <ele>256</ele>
        <time>2023-05-31T12:11:15.000Z</time>
      </trkpt>
      <trkpt lat="45.61443" lon="5.88334">
        <ele>256</ele>
        <time>2023-05-31T12:11:23.000Z</time>
      </trkpt>
      <trkpt lat="45.61436" lon="5.88335">
        <ele>256</ele>
        <time>2023-05-31T12:11:24.000Z</time>
      </trkpt>
      <trkpt lat="45.61382" lon="5.88334">
        <ele>255.60000610352</ele>
        <time>2023-05-31T12:11:32.000Z</time>
      </trkpt>
      <trkpt lat="45.61322" lon="5.88334">
        <ele>256.39999389648</ele>
        <time>2023-05-31T12:11:41.000Z</time>
      </trkpt>
      <trkpt lat="45.61309" lon="5.88334">
        <ele>256.39999389648</ele>
        <time>2023-05-31T12:11:43.000Z</time>
      </trkpt>
      <trkpt lat="45.61251" lon="5.88337">
        <ele>256.60000610352</ele>
        <time>2023-05-31T12:11:52.000Z</time>
      </trkpt>
      <trkpt lat="45.61245" lon="5.88338">
        <ele>256.60000610352</ele>
        <time>2023-05-31T12:11:53.000Z</time>
      </trkpt>
      <trkpt lat="45.61206" lon="5.88342">
        <ele>256.60000610352</ele>
        <time>2023-05-31T12:11:59.000Z</time>
      </trkpt>
      <trkpt lat="45.61161" lon="5.88351">
        <ele>257</ele>
        <time>2023-05-31T12:12:06.000Z</time>
      </trkpt>
      <trkpt lat="45.61101" lon="5.88366">
        <ele>257</ele>
        <time>2023-05-31T12:12:15.000Z</time>
      </trkpt>
      <trkpt lat="45.61089" lon="5.8837">
        <ele>256.79998779297</ele>
        <time>2023-05-31T12:12:17.000Z</time>
      </trkpt>
      <trkpt lat="45.61041" lon="5.88386">
        <ele>256.79998779297</ele>
        <time>2023-05-31T12:12:25.000Z</time>
      </trkpt>
      <trkpt lat="45.61004" lon="5.88401">
        <ele>257.20001220703</ele>
        <time>2023-05-31T12:12:31.000Z</time>
      </trkpt>
      <trkpt lat="45.60998" lon="5.88404">
        <ele>257.20001220703</ele>
        <time>2023-05-31T12:12:32.000Z</time>
      </trkpt>
      <trkpt lat="45.60951" lon="5.88429">
        <ele>257.20001220703</ele>
        <time>2023-05-31T12:12:40.000Z</time>
      </trkpt>
      <trkpt lat="45.60946" lon="5.88432">
        <ele>257.20001220703</ele>
        <time>2023-05-31T12:12:41.000Z</time>
      </trkpt>
      <trkpt lat="45.60934" lon="5.88438">
        <ele>257.20001220703</ele>
        <time>2023-05-31T12:12:43.000Z</time>
      </trkpt>
      <trkpt lat="45.60908" lon="5.88449">
        <ele>257.20001220703</ele>
        <time>2023-05-31T12:12:47.000Z</time>
      </trkpt>
      <trkpt lat="45.60869" lon="5.88463">
        <ele>257.20001220703</ele>
        <time>2023-05-31T12:12:53.000Z</time>
      </trkpt>
      <trkpt lat="45.60851" lon="5.88471">
        <ele>257.39999389648</ele>
        <time>2023-05-31T12:12:56.000Z</time>
      </trkpt>
      <trkpt lat="45.60803" lon="5.88495">
        <ele>257.79998779297</ele>
        <time>2023-05-31T12:13:04.000Z</time>
      </trkpt>
      <trkpt lat="45.60756" lon="5.88517">
        <ele>257.79998779297</ele>
        <time>2023-05-31T12:13:12.000Z</time>
      </trkpt>
      <trkpt lat="45.60745" lon="5.88523">
        <ele>257.79998779297</ele>
        <time>2023-05-31T12:13:14.000Z</time>
      </trkpt>
      <trkpt lat="45.60692" lon="5.88546">
        <ele>258</ele>
        <time>2023-05-31T12:13:23.000Z</time>
      </trkpt>
      <trkpt lat="45.60681" lon="5.88552">
        <ele>258.20001220703</ele>
        <time>2023-05-31T12:13:25.000Z</time>
      </trkpt>
      <trkpt lat="45.60629" lon="5.88578">
        <ele>258.39999389648</ele>
        <time>2023-05-31T12:13:34.000Z</time>
      </trkpt>
      <trkpt lat="45.60624" lon="5.88582">
        <ele>258.60000610352</ele>
        <time>2023-05-31T12:13:35.000Z</time>
      </trkpt>
      <trkpt lat="45.60613" lon="5.88589">
        <ele>258.60000610352</ele>
        <time>2023-05-31T12:13:37.000Z</time>
      </trkpt>
      <trkpt lat="45.60594" lon="5.88596">
        <ele>258.79998779297</ele>
        <time>2023-05-31T12:13:40.000Z</time>
      </trkpt>
      <trkpt lat="45.60589" lon="5.88599">
        <ele>259</ele>
        <time>2023-05-31T12:13:41.000Z</time>
      </trkpt>
      <trkpt lat="45.60576" lon="5.88606">
        <ele>259.20001220703</ele>
        <time>2023-05-31T12:13:43.000Z</time>
      </trkpt>
      <trkpt lat="45.60557" lon="5.88612">
        <ele>259.39999389648</ele>
        <time>2023-05-31T12:13:46.000Z</time>
      </trkpt>
      <trkpt lat="45.60551" lon="5.88614">
        <ele>259.39999389648</ele>
        <time>2023-05-31T12:13:47.000Z</time>
      </trkpt>
      <trkpt lat="45.60532" lon="5.88623">
        <ele>258.79998779297</ele>
        <time>2023-05-31T12:13:50.000Z</time>
      </trkpt>
      <trkpt lat="45.60501" lon="5.88639">
        <ele>258.60000610352</ele>
        <time>2023-05-31T12:13:55.000Z</time>
      </trkpt>
      <trkpt lat="45.60467" lon="5.88664">
        <ele>258.79998779297</ele>
        <time>2023-05-31T12:14:01.000Z</time>
      </trkpt>
      <trkpt lat="45.60424" lon="5.88703">
        <ele>259.60000610352</ele>
        <time>2023-05-31T12:14:09.000Z</time>
      </trkpt>
      <trkpt lat="45.60379" lon="5.88753">
        <ele>260</ele>
        <time>2023-05-31T12:14:18.000Z</time>
      </trkpt>
      <trkpt lat="45.60374" lon="5.88759">
        <ele>260</ele>
        <time>2023-05-31T12:14:19.000Z</time>
      </trkpt>
      <trkpt lat="45.6033" lon="5.8881">
        <ele>260.20001220703</ele>
        <time>2023-05-31T12:14:28.000Z</time>
      </trkpt>
      <trkpt lat="45.60325" lon="5.88816">
        <ele>260.20001220703</ele>
        <time>2023-05-31T12:14:29.000Z</time>
      </trkpt>
      <trkpt lat="45.60284" lon="5.88863">
        <ele>260.20001220703</ele>
        <time>2023-05-31T12:14:37.000Z</time>
      </trkpt>
      <trkpt lat="45.60244" lon="5.88904">
        <ele>260.20001220703</ele>
        <time>2023-05-31T12:14:45.000Z</time>
      </trkpt>
      <trkpt lat="45.60238" lon="5.88909">
        <ele>260.20001220703</ele>
        <time>2023-05-31T12:14:47.000Z</time>
      </trkpt>
      <trkpt lat="45.60233" lon="5.88908">
        <ele>260.39999389648</ele>
        <time>2023-05-31T12:14:49.000Z</time>
      </trkpt>
      <trkpt lat="45.60229" lon="5.889">
        <ele>260.60000610352</ele>
        <time>2023-05-31T12:14:51.000Z</time>
      </trkpt>
      <trkpt lat="45.60222" lon="5.88889">
        <ele>260.79998779297</ele>
        <time>2023-05-31T12:14:54.000Z</time>
      </trkpt>
      <trkpt lat="45.60215" lon="5.88882">
        <ele>261</ele>
        <time>2023-05-31T12:14:57.000Z</time>
      </trkpt>
      <trkpt lat="45.60213" lon="5.88885">
        <ele>261</ele>
        <time>2023-05-31T12:14:58.000Z</time>
      </trkpt>
      <trkpt lat="45.60202" lon="5.88903">
        <ele>260.79998779297</ele>
        <time>2023-05-31T12:15:01.000Z</time>
      </trkpt>
      <trkpt lat="45.60197" lon="5.88912">
        <ele>260.79998779297</ele>
        <time>2023-05-31T12:15:02.000Z</time>
      </trkpt>
      <trkpt lat="45.60189" lon="5.88931">
        <ele>260.39999389648</ele>
        <time>2023-05-31T12:15:04.000Z</time>
      </trkpt>
      <trkpt lat="45.60173" lon="5.88947">
        <ele>260</ele>
        <time>2023-05-31T12:15:06.000Z</time>
      </trkpt>
      <trkpt lat="45.60163" lon="5.88957">
        <ele>259.79998779297</ele>
        <time>2023-05-31T12:15:08.000Z</time>
      </trkpt>
      <trkpt lat="45.60159" lon="5.88961">
        <ele>259.79998779297</ele>
        <time>2023-05-31T12:15:09.000Z</time>
      </trkpt>
      <trkpt lat="45.60137" lon="5.88984">
        <ele>259.79998779297</ele>
        <time>2023-05-31T12:15:14.000Z</time>
      </trkpt>
      <trkpt lat="45.60122" lon="5.89007">
        <ele>260.20001220703</ele>
        <time>2023-05-31T12:15:18.000Z</time>
      </trkpt>
      <trkpt lat="45.6011" lon="5.89026">
        <ele>260.39999389648</ele>
        <time>2023-05-31T12:15:21.000Z</time>
      </trkpt>
      <trkpt lat="45.60093" lon="5.89051">
        <ele>260.60000610352</ele>
        <time>2023-05-31T12:15:25.000Z</time>
      </trkpt>
      <trkpt lat="45.60078" lon="5.89066">
        <ele>260.39999389648</ele>
        <time>2023-05-31T12:15:28.000Z</time>
      </trkpt>
      <trkpt lat="45.60039" lon="5.89092">
        <ele>260.20001220703</ele>
        <time>2023-05-31T12:15:35.000Z</time>
      </trkpt>
      <trkpt lat="45.60033" lon="5.89095">
        <ele>260.20001220703</ele>
        <time>2023-05-31T12:15:36.000Z</time>
      </trkpt>
      <trkpt lat="45.60001" lon="5.89108">
        <ele>260.20001220703</ele>
        <time>2023-05-31T12:15:41.000Z</time>
      </trkpt>
      <trkpt lat="45.59964" lon="5.89119">
        <ele>260.20001220703</ele>
        <time>2023-05-31T12:15:47.000Z</time>
      </trkpt>
      <trkpt lat="45.59959" lon="5.89121">
        <ele>260.20001220703</ele>
        <time>2023-05-31T12:15:48.000Z</time>
      </trkpt>
      <trkpt lat="45.59908" lon="5.89138">
        <ele>260.20001220703</ele>
        <time>2023-05-31T12:15:56.000Z</time>
      </trkpt>
      <trkpt lat="45.59865" lon="5.89152">
        <ele>260.60000610352</ele>
        <time>2023-05-31T12:16:03.000Z</time>
      </trkpt>
      <trkpt lat="45.59826" lon="5.89162">
        <ele>261.20001220703</ele>
        <time>2023-05-31T12:16:10.000Z</time>
      </trkpt>
      <trkpt lat="45.59816" lon="5.89167">
        <ele>261.60000610352</ele>
        <time>2023-05-31T12:16:12.000Z</time>
      </trkpt>
      <trkpt lat="45.59795" lon="5.89178">
        <ele>262.39999389648</ele>
        <time>2023-05-31T12:16:16.000Z</time>
      </trkpt>
      <trkpt lat="45.59786" lon="5.89183">
        <ele>262.60000610352</ele>
        <time>2023-05-31T12:16:18.000Z</time>
      </trkpt>
      <trkpt lat="45.59761" lon="5.89198">
        <ele>262.79998779297</ele>
        <time>2023-05-31T12:16:23.000Z</time>
      </trkpt>
      <trkpt lat="45.59731" lon="5.8921">
        <ele>262.79998779297</ele>
        <time>2023-05-31T12:16:28.000Z</time>
      </trkpt>
      <trkpt lat="45.59726" lon="5.89213">
        <ele>262.79998779297</ele>
        <time>2023-05-31T12:16:29.000Z</time>
      </trkpt>
      <trkpt lat="45.59693" lon="5.89231">
        <ele>262.79998779297</ele>
        <time>2023-05-31T12:16:35.000Z</time>
      </trkpt>
      <trkpt lat="45.59687" lon="5.89234">
        <ele>262.79998779297</ele>
        <time>2023-05-31T12:16:36.000Z</time>
      </trkpt>
      <trkpt lat="45.59657" lon="5.89244">
        <ele>262.79998779297</ele>
        <time>2023-05-31T12:16:41.000Z</time>
      </trkpt>
      <trkpt lat="45.59632" lon="5.89249">
        <ele>262.79998779297</ele>
        <time>2023-05-31T12:16:45.000Z</time>
      </trkpt>
      <trkpt lat="45.5962" lon="5.89247">
        <ele>262.60000610352</ele>
        <time>2023-05-31T12:16:47.000Z</time>
      </trkpt>
      <trkpt lat="45.59603" lon="5.89249">
        <ele>262.60000610352</ele>
        <time>2023-05-31T12:16:50.000Z</time>
      </trkpt>
      <trkpt lat="45.59597" lon="5.89251">
        <ele>262.79998779297</ele>
        <time>2023-05-31T12:16:51.000Z</time>
      </trkpt>
      <trkpt lat="45.59562" lon="5.89259">
        <ele>262.79998779297</ele>
        <time>2023-05-31T12:16:56.000Z</time>
      </trkpt>
      <trkpt lat="45.59516" lon="5.89271">
        <ele>262.60000610352</ele>
        <time>2023-05-31T12:17:03.000Z</time>
      </trkpt>
      <trkpt lat="45.59489" lon="5.89286">
        <ele>262.60000610352</ele>
        <time>2023-05-31T12:17:08.000Z</time>
      </trkpt>
      <trkpt lat="45.59475" lon="5.89293">
        <ele>262.60000610352</ele>
        <time>2023-05-31T12:17:11.000Z</time>
      </trkpt>
      <trkpt lat="45.59469" lon="5.89294">
        <ele>262.60000610352</ele>
        <time>2023-05-31T12:17:12.000Z</time>
      </trkpt>
      <trkpt lat="45.59463" lon="5.89298">
        <ele>262.60000610352</ele>
        <time>2023-05-31T12:17:13.000Z</time>
      </trkpt>
      <trkpt lat="45.59447" lon="5.89311">
        <ele>262.79998779297</ele>
        <time>2023-05-31T12:17:16.000Z</time>
      </trkpt>
      <trkpt lat="45.59411" lon="5.89348">
        <ele>263.20001220703</ele>
        <time>2023-05-31T12:17:23.000Z</time>
      </trkpt>
      <trkpt lat="45.59376" lon="5.89388">
        <ele>263.39999389648</ele>
        <time>2023-05-31T12:17:30.000Z</time>
      </trkpt>
      <trkpt lat="45.59335" lon="5.89445">
        <ele>263.60000610352</ele>
        <time>2023-05-31T12:17:39.000Z</time>
      </trkpt>
      <trkpt lat="45.59309" lon="5.89481">
        <ele>263.60000610352</ele>
        <time>2023-05-31T12:17:45.000Z</time>
      </trkpt>
      <trkpt lat="45.59286" lon="5.89513">
        <ele>263.79998779297</ele>
        <time>2023-05-31T12:17:50.000Z</time>
      </trkpt>
      <trkpt lat="45.59245" lon="5.89571">
        <ele>264</ele>
        <time>2023-05-31T12:17:59.000Z</time>
      </trkpt>
      <trkpt lat="45.59232" lon="5.8959">
        <ele>264.20001220703</ele>
        <time>2023-05-31T12:18:02.000Z</time>
      </trkpt>
      <trkpt lat="45.59213" lon="5.89615">
        <ele>264.20001220703</ele>
        <time>2023-05-31T12:18:06.000Z</time>
      </trkpt>
      <trkpt lat="45.59185" lon="5.89653">
        <ele>264.39999389648</ele>
        <time>2023-05-31T12:18:12.000Z</time>
      </trkpt>
      <trkpt lat="45.59154" lon="5.89694">
        <ele>264.60000610352</ele>
        <time>2023-05-31T12:18:19.000Z</time>
      </trkpt>
      <trkpt lat="45.59115" lon="5.8974">
        <ele>264.60000610352</ele>
        <time>2023-05-31T12:18:27.000Z</time>
      </trkpt>
      <trkpt lat="45.5908" lon="5.8978">
        <ele>264.79998779297</ele>
        <time>2023-05-31T12:18:34.000Z</time>
      </trkpt>
      <trkpt lat="45.59049" lon="5.89822">
        <ele>265.20001220703</ele>
        <time>2023-05-31T12:18:41.000Z</time>
      </trkpt>
      <trkpt lat="45.59011" lon="5.89871">
        <ele>265.39999389648</ele>
        <time>2023-05-31T12:18:49.000Z</time>
      </trkpt>
      <trkpt lat="45.58975" lon="5.89926">
        <ele>265.79998779297</ele>
        <time>2023-05-31T12:18:58.000Z</time>
      </trkpt>
      <trkpt lat="45.58965" lon="5.89939">
        <ele>266</ele>
        <time>2023-05-31T12:19:00.000Z</time>
      </trkpt>
      <trkpt lat="45.58932" lon="5.89986">
        <ele>266.39999389648</ele>
        <time>2023-05-31T12:19:08.000Z</time>
      </trkpt>
      <trkpt lat="45.5891" lon="5.90028">
        <ele>266.60000610352</ele>
        <time>2023-05-31T12:19:14.000Z</time>
      </trkpt>
      <trkpt lat="45.58897" lon="5.90056">
        <ele>266.60000610352</ele>
        <time>2023-05-31T12:19:17.000Z</time>
      </trkpt>
      <trkpt lat="45.58892" lon="5.90063">
        <ele>266.60000610352</ele>
        <time>2023-05-31T12:19:18.000Z</time>
      </trkpt>
      <trkpt lat="45.5888" lon="5.90078">
        <ele>266</ele>
        <time>2023-05-31T12:19:20.000Z</time>
      </trkpt>
      <trkpt lat="45.58869" lon="5.90088">
        <ele>265.39999389648</ele>
        <time>2023-05-31T12:19:22.000Z</time>
      </trkpt>
      <trkpt lat="45.58847" lon="5.90104">
        <ele>265.20001220703</ele>
        <time>2023-05-31T12:19:26.000Z</time>
      </trkpt>
      <trkpt lat="45.58842" lon="5.90106">
        <ele>265.20001220703</ele>
        <time>2023-05-31T12:19:27.000Z</time>
      </trkpt>
      <trkpt lat="45.58834" lon="5.90109">
        <ele>265.60000610352</ele>
        <time>2023-05-31T12:19:29.000Z</time>
      </trkpt>
      <trkpt lat="45.58823" lon="5.90118">
        <ele>266.39999389648</ele>
        <time>2023-05-31T12:19:31.000Z</time>
      </trkpt>
      <trkpt lat="45.58819" lon="5.90124">
        <ele>266.39999389648</ele>
        <time>2023-05-31T12:19:32.000Z</time>
      </trkpt>
      <trkpt lat="45.58811" lon="5.90135">
        <ele>267</ele>
        <time>2023-05-31T12:19:34.000Z</time>
      </trkpt>
      <trkpt lat="45.58796" lon="5.90154">
        <ele>267.39999389648</ele>
        <time>2023-05-31T12:19:37.000Z</time>
      </trkpt>
      <trkpt lat="45.58755" lon="5.9021">
        <ele>267.39999389648</ele>
        <time>2023-05-31T12:19:46.000Z</time>
      </trkpt>
      <trkpt lat="45.58746" lon="5.90222">
        <ele>267.39999389648</ele>
        <time>2023-05-31T12:19:48.000Z</time>
      </trkpt>
      <trkpt lat="45.58706" lon="5.90276">
        <ele>267.39999389648</ele>
        <time>2023-05-31T12:19:57.000Z</time>
      </trkpt>
      <trkpt lat="45.58702" lon="5.90282">
        <ele>267.39999389648</ele>
        <time>2023-05-31T12:19:58.000Z</time>
      </trkpt>
      <trkpt lat="45.58662" lon="5.90336">
        <ele>267.39999389648</ele>
        <time>2023-05-31T12:20:07.000Z</time>
      </trkpt>
      <trkpt lat="45.58658" lon="5.90343">
        <ele>267.39999389648</ele>
        <time>2023-05-31T12:20:08.000Z</time>
      </trkpt>
      <trkpt lat="45.58634" lon="5.90389">
        <ele>268</ele>
        <time>2023-05-31T12:20:15.000Z</time>
      </trkpt>
      <trkpt lat="45.58618" lon="5.90415">
        <ele>268.20001220703</ele>
        <time>2023-05-31T12:20:19.000Z</time>
      </trkpt>
      <trkpt lat="45.58605" lon="5.90433">
        <ele>268.39999389648</ele>
        <time>2023-05-31T12:20:22.000Z</time>
      </trkpt>
      <trkpt lat="45.58577" lon="5.90461">
        <ele>268.60000610352</ele>
        <time>2023-05-31T12:20:28.000Z</time>
      </trkpt>
      <trkpt lat="45.58546" lon="5.90486">
        <ele>269</ele>
        <time>2023-05-31T12:20:34.000Z</time>
      </trkpt>
      <trkpt lat="45.58516" lon="5.90517">
        <ele>269</ele>
        <time>2023-05-31T12:20:40.000Z</time>
      </trkpt>
      <trkpt lat="45.5849" lon="5.90551">
        <ele>269.60000610352</ele>
        <time>2023-05-31T12:20:46.000Z</time>
      </trkpt>
      <trkpt lat="45.58466" lon="5.90588">
        <ele>269.60000610352</ele>
        <time>2023-05-31T12:20:53.000Z</time>
      </trkpt>
      <trkpt lat="45.58438" lon="5.90624">
        <ele>269.79998779297</ele>
        <time>2023-05-31T12:20:58.000Z</time>
      </trkpt>
      <trkpt lat="45.58435" lon="5.90628">
        <ele>269.79998779297</ele>
        <time>2023-05-31T12:20:59.000Z</time>
      </trkpt>
      <trkpt lat="45.5843" lon="5.90633">
        <ele>269.79998779297</ele>
        <time>2023-05-31T12:21:00.000Z</time>
      </trkpt>
      <trkpt lat="45.5842" lon="5.90648">
        <ele>269.79998779297</ele>
        <time>2023-05-31T12:21:03.000Z</time>
      </trkpt>
      <trkpt lat="45.58414" lon="5.90649">
        <ele>269.79998779297</ele>
        <time>2023-05-31T12:21:04.000Z</time>
      </trkpt>
      <trkpt lat="45.58398" lon="5.90648">
        <ele>269.79998779297</ele>
        <time>2023-05-31T12:21:06.000Z</time>
      </trkpt>
      <trkpt lat="45.58385" lon="5.9065">
        <ele>269.79998779297</ele>
        <time>2023-05-31T12:21:08.000Z</time>
      </trkpt>
      <trkpt lat="45.58353" lon="5.90664">
        <ele>269.79998779297</ele>
        <time>2023-05-31T12:21:13.000Z</time>
      </trkpt>
      <trkpt lat="45.58345" lon="5.90666">
        <ele>269.79998779297</ele>
        <time>2023-05-31T12:21:14.000Z</time>
      </trkpt>
      <trkpt lat="45.58296" lon="5.90676">
        <ele>270</ele>
        <time>2023-05-31T12:21:22.000Z</time>
      </trkpt>
      <trkpt lat="45.5827" lon="5.90682">
        <ele>270</ele>
        <time>2023-05-31T12:21:26.000Z</time>
      </trkpt>
      <trkpt lat="45.58252" lon="5.90691">
        <ele>269.79998779297</ele>
        <time>2023-05-31T12:21:29.000Z</time>
      </trkpt>
      <trkpt lat="45.58244" lon="5.90695">
        <ele>269.79998779297</ele>
        <time>2023-05-31T12:21:30.000Z</time>
      </trkpt>
      <trkpt lat="45.5823" lon="5.90702">
        <ele>269.79998779297</ele>
        <time>2023-05-31T12:21:32.000Z</time>
      </trkpt>
      <trkpt lat="45.58225" lon="5.90703">
        <ele>269.79998779297</ele>
        <time>2023-05-31T12:21:33.000Z</time>
      </trkpt>
      <trkpt lat="45.58203" lon="5.90715">
        <ele>269.60000610352</ele>
        <time>2023-05-31T12:21:37.000Z</time>
      </trkpt>
      <trkpt lat="45.58198" lon="5.90719">
        <ele>269.60000610352</ele>
        <time>2023-05-31T12:21:38.000Z</time>
      </trkpt>
      <trkpt lat="45.58184" lon="5.90733">
        <ele>269.79998779297</ele>
        <time>2023-05-31T12:21:41.000Z</time>
      </trkpt>
      <trkpt lat="45.58179" lon="5.90736">
        <ele>270</ele>
        <time>2023-05-31T12:21:42.000Z</time>
      </trkpt>
      <trkpt lat="45.58157" lon="5.90747">
        <ele>270.60000610352</ele>
        <time>2023-05-31T12:21:46.000Z</time>
      </trkpt>
      <trkpt lat="45.58145" lon="5.90749">
        <ele>270.60000610352</ele>
        <time>2023-05-31T12:21:48.000Z</time>
      </trkpt>
      <trkpt lat="45.58106" lon="5.90764">
        <ele>271</ele>
        <time>2023-05-31T12:21:55.000Z</time>
      </trkpt>
      <trkpt lat="45.58066" lon="5.90778">
        <ele>271.39999389648</ele>
        <time>2023-05-31T12:22:02.000Z</time>
      </trkpt>
      <trkpt lat="45.58027" lon="5.90794">
        <ele>271.60000610352</ele>
        <time>2023-05-31T12:22:09.000Z</time>
      </trkpt>
      <trkpt lat="45.57974" lon="5.90809">
        <ele>272</ele>
        <time>2023-05-31T12:22:18.000Z</time>
      </trkpt>
      <trkpt lat="45.57968" lon="5.90809">
        <ele>272</ele>
        <time>2023-05-31T12:22:19.000Z</time>
      </trkpt>
      <trkpt lat="45.57915" lon="5.90805">
        <ele>272.79998779297</ele>
        <time>2023-05-31T12:22:28.000Z</time>
      </trkpt>
      <trkpt lat="45.57886" lon="5.90803">
        <ele>273</ele>
        <time>2023-05-31T12:22:33.000Z</time>
      </trkpt>
      <trkpt lat="45.5785" lon="5.90799">
        <ele>273.39999389648</ele>
        <time>2023-05-31T12:22:39.000Z</time>
      </trkpt>
      <trkpt lat="45.57839" lon="5.90795">
        <ele>273.39999389648</ele>
        <time>2023-05-31T12:22:41.000Z</time>
      </trkpt>
      <trkpt lat="45.57821" lon="5.90786">
        <ele>273.60000610352</ele>
        <time>2023-05-31T12:22:44.000Z</time>
      </trkpt>
      <trkpt lat="45.57771" lon="5.90756">
        <ele>274</ele>
        <time>2023-05-31T12:22:53.000Z</time>
      </trkpt>
      <trkpt lat="45.57754" lon="5.90747">
        <ele>274.20001220703</ele>
        <time>2023-05-31T12:22:56.000Z</time>
      </trkpt>
      <trkpt lat="45.5771" lon="5.90722">
        <ele>274.79998779297</ele>
        <time>2023-05-31T12:23:04.000Z</time>
      </trkpt>
      <trkpt lat="45.57683" lon="5.90706">
        <ele>275.20001220703</ele>
        <time>2023-05-31T12:23:09.000Z</time>
      </trkpt>
      <trkpt lat="45.57647" lon="5.90685">
        <ele>276.39999389648</ele>
        <time>2023-05-31T12:23:16.000Z</time>
      </trkpt>
      <trkpt lat="45.57642" lon="5.90683">
        <ele>276.39999389648</ele>
        <time>2023-05-31T12:23:17.000Z</time>
      </trkpt>
      <trkpt lat="45.57614" lon="5.90671">
        <ele>276.79998779297</ele>
        <time>2023-05-31T12:23:23.000Z</time>
      </trkpt>
      <trkpt lat="45.57602" lon="5.90663">
        <ele>277.20001220703</ele>
        <time>2023-05-31T12:23:27.000Z</time>
      </trkpt>
      <trkpt lat="45.57598" lon="5.90656">
        <ele>277.39999389648</ele>
        <time>2023-05-31T12:23:29.000Z</time>
      </trkpt>
      <trkpt lat="45.57587" lon="5.90646">
        <ele>277.79998779297</ele>
        <time>2023-05-31T12:23:32.000Z</time>
      </trkpt>
      <trkpt lat="45.57556" lon="5.9063">
        <ele>278</ele>
        <time>2023-05-31T12:23:38.000Z</time>
      </trkpt>
      <trkpt lat="45.5754" lon="5.90621">
        <ele>277.79998779297</ele>
        <time>2023-05-31T12:23:41.000Z</time>
      </trkpt>
      <trkpt lat="45.57517" lon="5.90609">
        <ele>277.39999389648</ele>
        <time>2023-05-31T12:23:45.000Z</time>
      </trkpt>
      <trkpt lat="45.57506" lon="5.90603">
        <ele>277.39999389648</ele>
        <time>2023-05-31T12:23:47.000Z</time>
      </trkpt>
      <trkpt lat="45.5749" lon="5.90594">
        <ele>277.20001220703</ele>
        <time>2023-05-31T12:23:50.000Z</time>
      </trkpt>
      <trkpt lat="45.57441" lon="5.90565">
        <ele>277.60000610352</ele>
        <time>2023-05-31T12:23:59.000Z</time>
      </trkpt>
      <trkpt lat="45.57405" lon="5.90546">
        <ele>278.60000610352</ele>
        <time>2023-05-31T12:24:06.000Z</time>
      </trkpt>
      <trkpt lat="45.57389" lon="5.9054">
        <ele>278.60000610352</ele>
        <time>2023-05-31T12:24:10.000Z</time>
      </trkpt>
      <trkpt lat="45.57385" lon="5.90537">
        <ele>278.79998779297</ele>
        <time>2023-05-31T12:24:11.000Z</time>
      </trkpt>
      <trkpt lat="45.57368" lon="5.90526">
        <ele>278.79998779297</ele>
        <time>2023-05-31T12:24:15.000Z</time>
      </trkpt>
      <trkpt lat="45.57359" lon="5.90521">
        <ele>278.79998779297</ele>
        <time>2023-05-31T12:24:17.000Z</time>
      </trkpt>
      <trkpt lat="45.57329" lon="5.90498">
        <ele>278.79998779297</ele>
        <time>2023-05-31T12:24:24.000Z</time>
      </trkpt>
      <trkpt lat="45.57317" lon="5.90488">
        <ele>279.60000610352</ele>
        <time>2023-05-31T12:24:27.000Z</time>
      </trkpt>
      <trkpt lat="45.57305" lon="5.90479">
        <ele>280.20001220703</ele>
        <time>2023-05-31T12:24:30.000Z</time>
      </trkpt>
      <trkpt lat="45.57301" lon="5.90475">
        <ele>280.39999389648</ele>
        <time>2023-05-31T12:24:31.000Z</time>
      </trkpt>
      <trkpt lat="45.57294" lon="5.90465">
        <ele>280.60000610352</ele>
        <time>2023-05-31T12:24:33.000Z</time>
      </trkpt>
      <trkpt lat="45.5729" lon="5.90461">
        <ele>280.60000610352</ele>
        <time>2023-05-31T12:24:34.000Z</time>
      </trkpt>
      <trkpt lat="45.57262" lon="5.90441">
        <ele>280.79998779297</ele>
        <time>2023-05-31T12:24:40.000Z</time>
      </trkpt>
      <trkpt lat="45.57224" lon="5.90412">
        <ele>281.20001220703</ele>
        <time>2023-05-31T12:24:48.000Z</time>
      </trkpt>
      <trkpt lat="45.572" lon="5.90393">
        <ele>281.60000610352</ele>
        <time>2023-05-31T12:24:53.000Z</time>
      </trkpt>
      <trkpt lat="45.57186" lon="5.90382">
        <ele>281.79998779297</ele>
        <time>2023-05-31T12:24:56.000Z</time>
      </trkpt>
      <trkpt lat="45.57138" lon="5.90337">
        <ele>282.39999389648</ele>
        <time>2023-05-31T12:25:06.000Z</time>
      </trkpt>
      <trkpt lat="45.57134" lon="5.90332">
        <ele>282.60000610352</ele>
        <time>2023-05-31T12:25:07.000Z</time>
      </trkpt>
      <trkpt lat="45.57125" lon="5.90322">
        <ele>282.79998779297</ele>
        <time>2023-05-31T12:25:09.000Z</time>
      </trkpt>
      <trkpt lat="45.57099" lon="5.9029">
        <ele>283</ele>
        <time>2023-05-31T12:25:15.000Z</time>
      </trkpt>
      <trkpt lat="45.57074" lon="5.90248">
        <ele>283.39999389648</ele>
        <time>2023-05-31T12:25:22.000Z</time>
      </trkpt>
      <trkpt lat="45.57038" lon="5.90185">
        <ele>283.79998779297</ele>
        <time>2023-05-31T12:25:32.000Z</time>
      </trkpt>
      <trkpt lat="45.57034" lon="5.90178">
        <ele>283.79998779297</ele>
        <time>2023-05-31T12:25:33.000Z</time>
      </trkpt>
      <trkpt lat="45.5701" lon="5.90135">
        <ele>284</ele>
        <time>2023-05-31T12:25:40.000Z</time>
      </trkpt>
      <trkpt lat="45.56979" lon="5.90081">
        <ele>285</ele>
        <time>2023-05-31T12:25:49.000Z</time>
      </trkpt>
      <trkpt lat="45.5695" lon="5.90042">
        <ele>285.60000610352</ele>
        <time>2023-05-31T12:25:56.000Z</time>
      </trkpt>
      <trkpt lat="45.56937" lon="5.90026">
        <ele>285.60000610352</ele>
        <time>2023-05-31T12:25:59.000Z</time>
      </trkpt>
      <trkpt lat="45.56922" lon="5.90013">
        <ele>285.60000610352</ele>
        <time>2023-05-31T12:26:02.000Z</time>
      </trkpt>
      <trkpt lat="45.56889" lon="5.89985">
        <ele>286</ele>
        <time>2023-05-31T12:26:09.000Z</time>
      </trkpt>
      <trkpt lat="45.56869" lon="5.89971">
        <ele>286</ele>
        <time>2023-05-31T12:26:13.000Z</time>
      </trkpt>
      <trkpt lat="45.56848" lon="5.89959">
        <ele>286.20001220703</ele>
        <time>2023-05-31T12:26:17.000Z</time>
      </trkpt>
      <trkpt lat="45.56803" lon="5.8994">
        <ele>287</ele>
        <time>2023-05-31T12:26:26.000Z</time>
      </trkpt>
      <trkpt lat="45.56793" lon="5.89938">
        <ele>287</ele>
        <time>2023-05-31T12:26:29.000Z</time>
      </trkpt>
      <trkpt lat="45.56787" lon="5.89938">
        <ele>287.20001220703</ele>
        <time>2023-05-31T12:26:31.000Z</time>
      </trkpt>
      <trkpt lat="45.56763" lon="5.89935">
        <ele>287.60000610352</ele>
        <time>2023-05-31T12:26:36.000Z</time>
      </trkpt>
      <trkpt lat="45.56741" lon="5.8993">
        <ele>287.79998779297</ele>
        <time>2023-05-31T12:26:40.000Z</time>
      </trkpt>
      <trkpt lat="45.56736" lon="5.8993">
        <ele>287.79998779297</ele>
        <time>2023-05-31T12:26:41.000Z</time>
      </trkpt>
      <trkpt lat="45.5673" lon="5.8993">
        <ele>287.79998779297</ele>
        <time>2023-05-31T12:26:42.000Z</time>
      </trkpt>
      <trkpt lat="45.56713" lon="5.89927">
        <ele>288.20001220703</ele>
        <time>2023-05-31T12:26:45.000Z</time>
      </trkpt>
      <trkpt lat="45.56703" lon="5.89926">
        <ele>288</ele>
        <time>2023-05-31T12:26:47.000Z</time>
      </trkpt>
      <trkpt lat="45.56697" lon="5.89927">
        <ele>288.39999389648</ele>
        <time>2023-05-31T12:26:48.000Z</time>
      </trkpt>
      <trkpt lat="45.56682" lon="5.89933">
        <ele>288.39999389648</ele>
        <time>2023-05-31T12:26:51.000Z</time>
      </trkpt>
      <trkpt lat="45.56677" lon="5.89936">
        <ele>288.39999389648</ele>
        <time>2023-05-31T12:26:52.000Z</time>
      </trkpt>
      <trkpt lat="45.56663" lon="5.89951">
        <ele>288.60000610352</ele>
        <time>2023-05-31T12:26:55.000Z</time>
      </trkpt>
      <trkpt lat="45.56654" lon="5.89962">
        <ele>288.60000610352</ele>
        <time>2023-05-31T12:26:57.000Z</time>
      </trkpt>
      <trkpt lat="45.56621" lon="5.90009">
        <ele>288.60000610352</ele>
        <time>2023-05-31T12:27:05.000Z</time>
      </trkpt>
      <trkpt lat="45.56598" lon="5.9004">
        <ele>288.79998779297</ele>
        <time>2023-05-31T12:27:11.000Z</time>
      </trkpt>
      <trkpt lat="45.5657" lon="5.90067">
        <ele>288.79998779297</ele>
        <time>2023-05-31T12:27:17.000Z</time>
      </trkpt>
      <trkpt lat="45.56545" lon="5.90087">
        <ele>289</ele>
        <time>2023-05-31T12:27:22.000Z</time>
      </trkpt>
      <trkpt lat="45.5654" lon="5.9009">
        <ele>289</ele>
        <time>2023-05-31T12:27:23.000Z</time>
      </trkpt>
      <trkpt lat="45.56529" lon="5.90095">
        <ele>289.20001220703</ele>
        <time>2023-05-31T12:27:25.000Z</time>
      </trkpt>
      <trkpt lat="45.56507" lon="5.901">
        <ele>289.39999389648</ele>
        <time>2023-05-31T12:27:29.000Z</time>
      </trkpt>
      <trkpt lat="45.56501" lon="5.90099">
        <ele>289.39999389648</ele>
        <time>2023-05-31T12:27:30.000Z</time>
      </trkpt>
      <trkpt lat="45.56468" lon="5.90087">
        <ele>289.60000610352</ele>
        <time>2023-05-31T12:27:36.000Z</time>
      </trkpt>
      <trkpt lat="45.56432" lon="5.90068">
        <ele>290</ele>
        <time>2023-05-31T12:27:43.000Z</time>
      </trkpt>
      <trkpt lat="45.56428" lon="5.90065">
        <ele>290</ele>
        <time>2023-05-31T12:27:44.000Z</time>
      </trkpt>
      <trkpt lat="45.56423" lon="5.90062">
        <ele>290</ele>
        <time>2023-05-31T12:27:45.000Z</time>
      </trkpt>
      <trkpt lat="45.56402" lon="5.90049">
        <ele>290.20001220703</ele>
        <time>2023-05-31T12:27:49.000Z</time>
      </trkpt>
      <trkpt lat="45.56361" lon="5.90022">
        <ele>290.79998779297</ele>
        <time>2023-05-31T12:27:57.000Z</time>
      </trkpt>
      <trkpt lat="45.56333" lon="5.90005">
        <ele>291.20001220703</ele>
        <time>2023-05-31T12:28:02.000Z</time>
      </trkpt>
      <trkpt lat="45.56309" lon="5.89992">
        <ele>291.60000610352</ele>
        <time>2023-05-31T12:28:07.000Z</time>
      </trkpt>
      <trkpt lat="45.5629" lon="5.89985">
        <ele>292.39999389648</ele>
        <time>2023-05-31T12:28:11.000Z</time>
      </trkpt>
      <trkpt lat="45.56282" lon="5.89982">
        <ele>292.60000610352</ele>
        <time>2023-05-31T12:28:13.000Z</time>
      </trkpt>
      <trkpt lat="45.56267" lon="5.89976">
        <ele>293.60000610352</ele>
        <time>2023-05-31T12:28:17.000Z</time>
      </trkpt>
      <trkpt lat="45.56261" lon="5.89974">
        <ele>294</ele>
        <time>2023-05-31T12:28:19.000Z</time>
      </trkpt>
      <trkpt lat="45.56255" lon="5.89973">
        <ele>294.60000610352</ele>
        <time>2023-05-31T12:28:21.000Z</time>
      </trkpt>
      <trkpt lat="45.5625" lon="5.89975">
        <ele>295</ele>
        <time>2023-05-31T12:28:23.000Z</time>
      </trkpt>
      <trkpt lat="45.56247" lon="5.89979">
        <ele>295</ele>
        <time>2023-05-31T12:28:24.000Z</time>
      </trkpt>
      <trkpt lat="45.56247" lon="5.89984">
        <ele>295.39999389648</ele>
        <time>2023-05-31T12:28:25.000Z</time>
      </trkpt>
      <trkpt lat="45.5625" lon="5.89993">
        <ele>295.60000610352</ele>
        <time>2023-05-31T12:28:27.000Z</time>
      </trkpt>
      <trkpt lat="45.56259" lon="5.90024">
        <ele>296.20001220703</ele>
        <time>2023-05-31T12:28:32.000Z</time>
      </trkpt>
      <trkpt lat="45.56268" lon="5.9005">
        <ele>296.20001220703</ele>
        <time>2023-05-31T12:28:36.000Z</time>
      </trkpt>
      <trkpt lat="45.56272" lon="5.90064">
        <ele>296.39999389648</ele>
        <time>2023-05-31T12:28:38.000Z</time>
      </trkpt>
      <trkpt lat="45.56274" lon="5.90071">
        <ele>296.39999389648</ele>
        <time>2023-05-31T12:28:39.000Z</time>
      </trkpt>
      <trkpt lat="45.56283" lon="5.90099">
        <ele>296.60000610352</ele>
        <time>2023-05-31T12:28:43.000Z</time>
      </trkpt>
      <trkpt lat="45.56286" lon="5.90105">
        <ele>296.79998779297</ele>
        <time>2023-05-31T12:28:44.000Z</time>
      </trkpt>
      <trkpt lat="45.56291" lon="5.90118">
        <ele>296.79998779297</ele>
        <time>2023-05-31T12:28:46.000Z</time>
      </trkpt>
      <trkpt lat="45.56294" lon="5.90125">
        <ele>296.79998779297</ele>
        <time>2023-05-31T12:28:47.000Z</time>
      </trkpt>
      <trkpt lat="45.56304" lon="5.90155">
        <ele>296.79998779297</ele>
        <time>2023-05-31T12:28:51.000Z</time>
      </trkpt>
      <trkpt lat="45.56329" lon="5.90229">
        <ele>297</ele>
        <time>2023-05-31T12:29:01.000Z</time>
      </trkpt>
      <trkpt lat="45.56331" lon="5.90237">
        <ele>297</ele>
        <time>2023-05-31T12:29:02.000Z</time>
      </trkpt>
      <trkpt lat="45.5635" lon="5.90293">
        <ele>297.39999389648</ele>
        <time>2023-05-31T12:29:10.000Z</time>
      </trkpt>
      <trkpt lat="45.56356" lon="5.90314">
        <ele>297.39999389648</ele>
        <time>2023-05-31T12:29:13.000Z</time>
      </trkpt>
      <trkpt lat="45.56357" lon="5.90329">
        <ele>297.60000610352</ele>
        <time>2023-05-31T12:29:15.000Z</time>
      </trkpt>
      <trkpt lat="45.56358" lon="5.90337">
        <ele>297.60000610352</ele>
        <time>2023-05-31T12:29:16.000Z</time>
      </trkpt>
      <trkpt lat="45.56361" lon="5.90362">
        <ele>297.60000610352</ele>
        <time>2023-05-31T12:29:19.000Z</time>
      </trkpt>
      <trkpt lat="45.56361" lon="5.9037">
        <ele>297.60000610352</ele>
        <time>2023-05-31T12:29:20.000Z</time>
      </trkpt>
      <trkpt lat="45.56361" lon="5.90378">
        <ele>297.60000610352</ele>
        <time>2023-05-31T12:29:21.000Z</time>
      </trkpt>
      <trkpt lat="45.56356" lon="5.90411">
        <ele>297.60000610352</ele>
        <time>2023-05-31T12:29:25.000Z</time>
      </trkpt>
      <trkpt lat="45.56346" lon="5.90455">
        <ele>297.39999389648</ele>
        <time>2023-05-31T12:29:31.000Z</time>
      </trkpt>
      <trkpt lat="45.5634" lon="5.90481">
        <ele>297.20001220703</ele>
        <time>2023-05-31T12:29:36.000Z</time>
      </trkpt>
      <trkpt lat="45.56338" lon="5.90498">
        <ele>296.79998779297</ele>
        <time>2023-05-31T12:29:41.000Z</time>
      </trkpt>
      <trkpt lat="45.56336" lon="5.90515">
        <ele>296.60000610352</ele>
        <time>2023-05-31T12:29:46.000Z</time>
      </trkpt>
      <trkpt lat="45.56334" lon="5.90528">
        <ele>296.60000610352</ele>
        <time>2023-05-31T12:29:48.000Z</time>
      </trkpt>
      <trkpt lat="45.56332" lon="5.90545">
        <ele>296.60000610352</ele>
        <time>2023-05-31T12:29:50.000Z</time>
      </trkpt>
      <trkpt lat="45.56325" lon="5.90588">
        <ele>296.39999389648</ele>
        <time>2023-05-31T12:29:55.000Z</time>
      </trkpt>
      <trkpt lat="45.56323" lon="5.90598">
        <ele>296.39999389648</ele>
        <time>2023-05-31T12:29:56.000Z</time>
      </trkpt>
      <trkpt lat="45.56314" lon="5.9066">
        <ele>296.20001220703</ele>
        <time>2023-05-31T12:30:02.000Z</time>
      </trkpt>
      <trkpt lat="45.56303" lon="5.9073">
        <ele>295.79998779297</ele>
        <time>2023-05-31T12:30:09.000Z</time>
      </trkpt>
      <trkpt lat="45.56299" lon="5.9076">
        <ele>295.39999389648</ele>
        <time>2023-05-31T12:30:12.000Z</time>
      </trkpt>
      <trkpt lat="45.56292" lon="5.90809">
        <ele>295</ele>
        <time>2023-05-31T12:30:17.000Z</time>
      </trkpt>
      <trkpt lat="45.56284" lon="5.90871">
        <ele>294.39999389648</ele>
        <time>2023-05-31T12:30:23.000Z</time>
      </trkpt>
      <trkpt lat="45.56283" lon="5.90881">
        <ele>294.20001220703</ele>
        <time>2023-05-31T12:30:24.000Z</time>
      </trkpt>
      <trkpt lat="45.5628" lon="5.90903">
        <ele>294</ele>
        <time>2023-05-31T12:30:26.000Z</time>
      </trkpt>
      <trkpt lat="45.56274" lon="5.90943">
        <ele>293.79998779297</ele>
        <time>2023-05-31T12:30:30.000Z</time>
      </trkpt>
      <trkpt lat="45.56266" lon="5.90996">
        <ele>293.39999389648</ele>
        <time>2023-05-31T12:30:35.000Z</time>
      </trkpt>
      <trkpt lat="45.56262" lon="5.91027">
        <ele>293</ele>
        <time>2023-05-31T12:30:38.000Z</time>
      </trkpt>
      <trkpt lat="45.56253" lon="5.91078">
        <ele>292.60000610352</ele>
        <time>2023-05-31T12:30:43.000Z</time>
      </trkpt>
      <trkpt lat="45.56251" lon="5.91088">
        <ele>292.60000610352</ele>
        <time>2023-05-31T12:30:44.000Z</time>
      </trkpt>
      <trkpt lat="45.56247" lon="5.91131">
        <ele>292.20001220703</ele>
        <time>2023-05-31T12:30:48.000Z</time>
      </trkpt>
      <trkpt lat="45.56245" lon="5.91151">
        <ele>292</ele>
        <time>2023-05-31T12:30:50.000Z</time>
      </trkpt>
      <trkpt lat="45.56238" lon="5.9122">
        <ele>291.60000610352</ele>
        <time>2023-05-31T12:30:57.000Z</time>
      </trkpt>
      <trkpt lat="45.56235" lon="5.91229">
        <ele>291.39999389648</ele>
        <time>2023-05-31T12:30:58.000Z</time>
      </trkpt>
      <trkpt lat="45.56232" lon="5.91245">
        <ele>291.39999389648</ele>
        <time>2023-05-31T12:31:00.000Z</time>
      </trkpt>
      <trkpt lat="45.56236" lon="5.91252">
        <ele>291.20001220703</ele>
        <time>2023-05-31T12:31:01.000Z</time>
      </trkpt>
      <trkpt lat="45.56242" lon="5.91259">
        <ele>291.20001220703</ele>
        <time>2023-05-31T12:31:02.000Z</time>
      </trkpt>
      <trkpt lat="45.56252" lon="5.91273">
        <ele>291</ele>
        <time>2023-05-31T12:31:04.000Z</time>
      </trkpt>
      <trkpt lat="45.56266" lon="5.91297">
        <ele>291</ele>
        <time>2023-05-31T12:31:07.000Z</time>
      </trkpt>
      <trkpt lat="45.56293" lon="5.91337">
        <ele>290.60000610352</ele>
        <time>2023-05-31T12:31:12.000Z</time>
      </trkpt>
      <trkpt lat="45.56309" lon="5.91361">
        <ele>290</ele>
        <time>2023-05-31T12:31:15.000Z</time>
      </trkpt>
      <trkpt lat="45.56335" lon="5.91397">
        <ele>289.39999389648</ele>
        <time>2023-05-31T12:31:20.000Z</time>
      </trkpt>
      <trkpt lat="45.5634" lon="5.91404">
        <ele>289.39999389648</ele>
        <time>2023-05-31T12:31:21.000Z</time>
      </trkpt>
      <trkpt lat="45.56356" lon="5.91424">
        <ele>289.20001220703</ele>
        <time>2023-05-31T12:31:24.000Z</time>
      </trkpt>
      <trkpt lat="45.56361" lon="5.91431">
        <ele>289</ele>
        <time>2023-05-31T12:31:25.000Z</time>
      </trkpt>
      <trkpt lat="45.56382" lon="5.91463">
        <ele>288.39999389648</ele>
        <time>2023-05-31T12:31:30.000Z</time>
      </trkpt>
      <trkpt lat="45.5639" lon="5.91476">
        <ele>288</ele>
        <time>2023-05-31T12:31:33.000Z</time>
      </trkpt>
      <trkpt lat="45.56392" lon="5.91481">
        <ele>287.79998779297</ele>
        <time>2023-05-31T12:31:34.000Z</time>
      </trkpt>
      <trkpt lat="45.56393" lon="5.91494">
        <ele>287.60000610352</ele>
        <time>2023-05-31T12:31:36.000Z</time>
      </trkpt>
      <trkpt lat="45.56397" lon="5.91506">
        <ele>287.20001220703</ele>
        <time>2023-05-31T12:31:38.000Z</time>
      </trkpt>
      <trkpt lat="45.56394" lon="5.91529">
        <ele>287</ele>
        <time>2023-05-31T12:31:41.000Z</time>
      </trkpt>
      <trkpt lat="45.56392" lon="5.91565">
        <ele>286.79998779297</ele>
        <time>2023-05-31T12:31:45.000Z</time>
      </trkpt>
      <trkpt lat="45.56391" lon="5.91574">
        <ele>286.60000610352</ele>
        <time>2023-05-31T12:31:46.000Z</time>
      </trkpt>
      <trkpt lat="45.5639" lon="5.91583">
        <ele>286.60000610352</ele>
        <time>2023-05-31T12:31:47.000Z</time>
      </trkpt>
      <trkpt lat="45.5639" lon="5.91602">
        <ele>286.39999389648</ele>
        <time>2023-05-31T12:31:49.000Z</time>
      </trkpt>
      <trkpt lat="45.56389" lon="5.91611">
        <ele>286.39999389648</ele>
        <time>2023-05-31T12:31:50.000Z</time>
      </trkpt>
      <trkpt lat="45.56385" lon="5.9166">
        <ele>285.79998779297</ele>
        <time>2023-05-31T12:31:55.000Z</time>
      </trkpt>
      <trkpt lat="45.56384" lon="5.9168">
        <ele>285.60000610352</ele>
        <time>2023-05-31T12:31:57.000Z</time>
      </trkpt>
      <trkpt lat="45.56382" lon="5.9171">
        <ele>285.39999389648</ele>
        <time>2023-05-31T12:32:00.000Z</time>
      </trkpt>
      <trkpt lat="45.56377" lon="5.91791">
        <ele>284.79998779297</ele>
        <time>2023-05-31T12:32:08.000Z</time>
      </trkpt>
      <trkpt lat="45.56376" lon="5.91801">
        <ele>284.60000610352</ele>
        <time>2023-05-31T12:32:09.000Z</time>
      </trkpt>
      <trkpt lat="45.56375" lon="5.91821">
        <ele>284.39999389648</ele>
        <time>2023-05-31T12:32:11.000Z</time>
      </trkpt>
      <trkpt lat="45.56375" lon="5.9185">
        <ele>284.20001220703</ele>
        <time>2023-05-31T12:32:14.000Z</time>
      </trkpt>
      <trkpt lat="45.56374" lon="5.9186">
        <ele>284.20001220703</ele>
        <time>2023-05-31T12:32:15.000Z</time>
      </trkpt>
      <trkpt lat="45.5637" lon="5.91886">
        <ele>283.79998779297</ele>
        <time>2023-05-31T12:32:18.000Z</time>
      </trkpt>
      <trkpt lat="45.56369" lon="5.91933">
        <ele>283.60000610352</ele>
        <time>2023-05-31T12:32:23.000Z</time>
      </trkpt>
      <trkpt lat="45.56369" lon="5.91941">
        <ele>283.60000610352</ele>
        <time>2023-05-31T12:32:24.000Z</time>
      </trkpt>
      <trkpt lat="45.5637" lon="5.9195">
        <ele>283.39999389648</ele>
        <time>2023-05-31T12:32:25.000Z</time>
      </trkpt>
      <trkpt lat="45.56376" lon="5.91963">
        <ele>283.39999389648</ele>
        <time>2023-05-31T12:32:27.000Z</time>
      </trkpt>
      <trkpt lat="45.56379" lon="5.91967">
        <ele>283.39999389648</ele>
        <time>2023-05-31T12:32:28.000Z</time>
      </trkpt>
      <trkpt lat="45.56383" lon="5.91972">
        <ele>283.20001220703</ele>
        <time>2023-05-31T12:32:29.000Z</time>
      </trkpt>
      <trkpt lat="45.56387" lon="5.91983">
        <ele>283</ele>
        <time>2023-05-31T12:32:31.000Z</time>
      </trkpt>
      <trkpt lat="45.56385" lon="5.91998">
        <ele>282.79998779297</ele>
        <time>2023-05-31T12:32:33.000Z</time>
      </trkpt>
      <trkpt lat="45.56382" lon="5.92006">
        <ele>282.79998779297</ele>
        <time>2023-05-31T12:32:34.000Z</time>
      </trkpt>
      <trkpt lat="45.56376" lon="5.92021">
        <ele>282.20001220703</ele>
        <time>2023-05-31T12:32:36.000Z</time>
      </trkpt>
      <trkpt lat="45.56361" lon="5.9205">
        <ele>281.60000610352</ele>
        <time>2023-05-31T12:32:40.000Z</time>
      </trkpt>
      <trkpt lat="45.56355" lon="5.92066">
        <ele>281.39999389648</ele>
        <time>2023-05-31T12:32:42.000Z</time>
      </trkpt>
      <trkpt lat="45.56347" lon="5.92097">
        <ele>281.60000610352</ele>
        <time>2023-05-31T12:32:46.000Z</time>
      </trkpt>
      <trkpt lat="45.56345" lon="5.92128">
        <ele>281.79998779297</ele>
        <time>2023-05-31T12:32:50.000Z</time>
      </trkpt>
      <trkpt lat="45.56345" lon="5.92136">
        <ele>281.79998779297</ele>
        <time>2023-05-31T12:32:51.000Z</time>
      </trkpt>
      <trkpt lat="45.56347" lon="5.92175">
        <ele>281.79998779297</ele>
        <time>2023-05-31T12:32:57.000Z</time>
      </trkpt>
      <trkpt lat="45.56352" lon="5.92202">
        <ele>281.79998779297</ele>
        <time>2023-05-31T12:33:02.000Z</time>
      </trkpt>
      <trkpt lat="45.56356" lon="5.92215">
        <ele>281.79998779297</ele>
        <time>2023-05-31T12:33:04.000Z</time>
      </trkpt>
      <trkpt lat="45.5636" lon="5.92234">
        <ele>281.79998779297</ele>
        <time>2023-05-31T12:33:07.000Z</time>
      </trkpt>
      <trkpt lat="45.56364" lon="5.9225">
        <ele>281.79998779297</ele>
        <time>2023-05-31T12:33:10.000Z</time>
      </trkpt>
      <trkpt lat="45.56366" lon="5.92261">
        <ele>281.79998779297</ele>
        <time>2023-05-31T12:33:12.000Z</time>
      </trkpt>
      <trkpt lat="45.56367" lon="5.92267">
        <ele>281.79998779297</ele>
        <time>2023-05-31T12:33:13.000Z</time>
      </trkpt>
      <trkpt lat="45.5637" lon="5.92289">
        <ele>282</ele>
        <time>2023-05-31T12:33:16.000Z</time>
      </trkpt>
      <trkpt lat="45.56371" lon="5.92305">
        <ele>282.20001220703</ele>
        <time>2023-05-31T12:33:18.000Z</time>
      </trkpt>
      <trkpt lat="45.56374" lon="5.9233">
        <ele>282.20001220703</ele>
        <time>2023-05-31T12:33:21.000Z</time>
      </trkpt>
      <trkpt lat="45.56377" lon="5.92346">
        <ele>282.39999389648</ele>
        <time>2023-05-31T12:33:23.000Z</time>
      </trkpt>
      <trkpt lat="45.56384" lon="5.92368">
        <ele>282.39999389648</ele>
        <time>2023-05-31T12:33:26.000Z</time>
      </trkpt>
      <trkpt lat="45.56391" lon="5.92381">
        <ele>282.39999389648</ele>
        <time>2023-05-31T12:33:28.000Z</time>
      </trkpt>
      <trkpt lat="45.56395" lon="5.92387">
        <ele>282.39999389648</ele>
        <time>2023-05-31T12:33:29.000Z</time>
      </trkpt>
      <trkpt lat="45.56403" lon="5.92409">
        <ele>282.60000610352</ele>
        <time>2023-05-31T12:33:32.000Z</time>
      </trkpt>
      <trkpt lat="45.56405" lon="5.92417">
        <ele>282.60000610352</ele>
        <time>2023-05-31T12:33:33.000Z</time>
      </trkpt>
      <trkpt lat="45.56412" lon="5.92447">
        <ele>282.60000610352</ele>
        <time>2023-05-31T12:33:37.000Z</time>
      </trkpt>
      <trkpt lat="45.56414" lon="5.92462">
        <ele>282.60000610352</ele>
        <time>2023-05-31T12:33:39.000Z</time>
      </trkpt>
      <trkpt lat="45.56414" lon="5.92476">
        <ele>282.60000610352</ele>
        <time>2023-05-31T12:33:41.000Z</time>
      </trkpt>
      <trkpt lat="45.56415" lon="5.92499">
        <ele>282.60000610352</ele>
        <time>2023-05-31T12:33:44.000Z</time>
      </trkpt>
      <trkpt lat="45.56414" lon="5.92506">
        <ele>282.39999389648</ele>
        <time>2023-05-31T12:33:45.000Z</time>
      </trkpt>
      <trkpt lat="45.56408" lon="5.9254">
        <ele>282.39999389648</ele>
        <time>2023-05-31T12:33:50.000Z</time>
      </trkpt>
      <trkpt lat="45.56406" lon="5.92559">
        <ele>282.20001220703</ele>
        <time>2023-05-31T12:33:53.000Z</time>
      </trkpt>
      <trkpt lat="45.56404" lon="5.92576">
        <ele>282</ele>
        <time>2023-05-31T12:33:56.000Z</time>
      </trkpt>
      <trkpt lat="45.56395" lon="5.92608">
        <ele>281.79998779297</ele>
        <time>2023-05-31T12:34:01.000Z</time>
      </trkpt>
      <trkpt lat="45.5639" lon="5.92625">
        <ele>281.79998779297</ele>
        <time>2023-05-31T12:34:04.000Z</time>
      </trkpt>
      <trkpt lat="45.56383" lon="5.92645">
        <ele>281.79998779297</ele>
        <time>2023-05-31T12:34:08.000Z</time>
      </trkpt>
      <trkpt lat="45.56376" lon="5.92665">
        <ele>282.20001220703</ele>
        <time>2023-05-31T12:34:13.000Z</time>
      </trkpt>
      <trkpt lat="45.56376" lon="5.92668">
        <ele>282.20001220703</ele>
        <time>2023-05-31T12:34:14.000Z</time>
      </trkpt>
      <trkpt lat="45.56378" lon="5.92676">
        <ele>282.39999389648</ele>
        <time>2023-05-31T12:34:16.000Z</time>
      </trkpt>
      <trkpt lat="45.56377" lon="5.92681">
        <ele>282.39999389648</ele>
        <time>2023-05-31T12:34:17.000Z</time>
      </trkpt>
      <trkpt lat="45.56369" lon="5.92709">
        <ele>282.39999389648</ele>
        <time>2023-05-31T12:34:22.000Z</time>
      </trkpt>
      <trkpt lat="45.5636" lon="5.92739">
        <ele>282.60000610352</ele>
        <time>2023-05-31T12:34:26.000Z</time>
      </trkpt>
      <trkpt lat="45.56351" lon="5.92761">
        <ele>282.60000610352</ele>
        <time>2023-05-31T12:34:29.000Z</time>
      </trkpt>
      <trkpt lat="45.56347" lon="5.92773">
        <ele>282.60000610352</ele>
        <time>2023-05-31T12:34:31.000Z</time>
      </trkpt>
      <trkpt lat="45.56346" lon="5.92778">
        <ele>282.60000610352</ele>
        <time>2023-05-31T12:34:32.000Z</time>
      </trkpt>
      <trkpt lat="45.56345" lon="5.92785">
        <ele>282.79998779297</ele>
        <time>2023-05-31T12:34:34.000Z</time>
      </trkpt>
      <trkpt lat="45.56345" lon="5.92786">
        <ele>282.79998779297</ele>
        <time>2023-05-31T12:34:35.000Z</time>
      </trkpt>
      <trkpt lat="45.56345" lon="5.92787">
        <ele>282.79998779297</ele>
        <time>2023-05-31T12:34:37.000Z</time>
      </trkpt>
      <trkpt lat="45.56342" lon="5.92797">
        <ele>282.79998779297</ele>
        <time>2023-05-31T12:34:40.000Z</time>
      </trkpt>
      <trkpt lat="45.56337" lon="5.92801">
        <ele>282.79998779297</ele>
        <time>2023-05-31T12:34:41.000Z</time>
      </trkpt>
      <trkpt lat="45.56328" lon="5.92825">
        <ele>282.79998779297</ele>
        <time>2023-05-31T12:34:46.000Z</time>
      </trkpt>
      <trkpt lat="45.56332" lon="5.92851">
        <ele>283</ele>
        <time>2023-05-31T12:34:51.000Z</time>
      </trkpt>
      <trkpt lat="45.56326" lon="5.92868">
        <ele>283.20001220703</ele>
        <time>2023-05-31T12:34:54.000Z</time>
      </trkpt>
      <trkpt lat="45.56324" lon="5.92874">
        <ele>283.20001220703</ele>
        <time>2023-05-31T12:34:55.000Z</time>
      </trkpt>
      <trkpt lat="45.56313" lon="5.92899">
        <ele>283.60000610352</ele>
        <time>2023-05-31T12:34:59.000Z</time>
      </trkpt>
      <trkpt lat="45.56311" lon="5.92913">
        <ele>283.79998779297</ele>
        <time>2023-05-31T12:35:01.000Z</time>
      </trkpt>
      <trkpt lat="45.56309" lon="5.92938">
        <ele>284.20001220703</ele>
        <time>2023-05-31T12:35:04.000Z</time>
      </trkpt>
      <trkpt lat="45.56307" lon="5.9297">
        <ele>284.60000610352</ele>
        <time>2023-05-31T12:35:08.000Z</time>
      </trkpt>
      <trkpt lat="45.56312" lon="5.93019">
        <ele>285</ele>
        <time>2023-05-31T12:35:14.000Z</time>
      </trkpt>
      <trkpt lat="45.56322" lon="5.93042">
        <ele>285.20001220703</ele>
        <time>2023-05-31T12:35:17.000Z</time>
      </trkpt>
      <trkpt lat="45.56331" lon="5.93058">
        <ele>285.20001220703</ele>
        <time>2023-05-31T12:35:19.000Z</time>
      </trkpt>
      <trkpt lat="45.56335" lon="5.93065">
        <ele>285</ele>
        <time>2023-05-31T12:35:20.000Z</time>
      </trkpt>
      <trkpt lat="45.56343" lon="5.93079">
        <ele>285</ele>
        <time>2023-05-31T12:35:22.000Z</time>
      </trkpt>
      <trkpt lat="45.56346" lon="5.93087">
        <ele>284.79998779297</ele>
        <time>2023-05-31T12:35:23.000Z</time>
      </trkpt>
      <trkpt lat="45.56348" lon="5.93096">
        <ele>284.79998779297</ele>
        <time>2023-05-31T12:35:24.000Z</time>
      </trkpt>
      <trkpt lat="45.56351" lon="5.93114">
        <ele>284.60000610352</ele>
        <time>2023-05-31T12:35:26.000Z</time>
      </trkpt>
      <trkpt lat="45.56354" lon="5.93123">
        <ele>284.39999389648</ele>
        <time>2023-05-31T12:35:27.000Z</time>
      </trkpt>
      <trkpt lat="45.56366" lon="5.93163">
        <ele>284.39999389648</ele>
        <time>2023-05-31T12:35:32.000Z</time>
      </trkpt>
      <trkpt lat="45.5637" lon="5.93179">
        <ele>284.39999389648</ele>
        <time>2023-05-31T12:35:34.000Z</time>
      </trkpt>
      <trkpt lat="45.56374" lon="5.93194">
        <ele>284.39999389648</ele>
        <time>2023-05-31T12:35:36.000Z</time>
      </trkpt>
      <trkpt lat="45.56378" lon="5.93199">
        <ele>284.39999389648</ele>
        <time>2023-05-31T12:35:37.000Z</time>
      </trkpt>
      <trkpt lat="45.56426" lon="5.93244">
        <ele>284.60000610352</ele>
        <time>2023-05-31T12:35:46.000Z</time>
      </trkpt>
      <trkpt lat="45.56431" lon="5.93249">
        <ele>284.60000610352</ele>
        <time>2023-05-31T12:35:47.000Z</time>
      </trkpt>
      <trkpt lat="45.56452" lon="5.93268">
        <ele>285</ele>
        <time>2023-05-31T12:35:51.000Z</time>
      </trkpt>
      <trkpt lat="45.56458" lon="5.93277">
        <ele>285.20001220703</ele>
        <time>2023-05-31T12:35:53.000Z</time>
      </trkpt>
      <trkpt lat="45.56462" lon="5.93282">
        <ele>285.20001220703</ele>
        <time>2023-05-31T12:35:54.000Z</time>
      </trkpt>
      <trkpt lat="45.56466" lon="5.93286">
        <ele>285.20001220703</ele>
        <time>2023-05-31T12:35:55.000Z</time>
      </trkpt>
      <trkpt lat="45.56471" lon="5.9329">
        <ele>285.39999389648</ele>
        <time>2023-05-31T12:35:56.000Z</time>
      </trkpt>
      <trkpt lat="45.56501" lon="5.93321">
        <ele>285.79998779297</ele>
        <time>2023-05-31T12:36:02.000Z</time>
      </trkpt>
      <trkpt lat="45.56546" lon="5.93366">
        <ele>285.79998779297</ele>
        <time>2023-05-31T12:36:11.000Z</time>
      </trkpt>
      <trkpt lat="45.56551" lon="5.93371">
        <ele>286</ele>
        <time>2023-05-31T12:36:12.000Z</time>
      </trkpt>
      <trkpt lat="45.56575" lon="5.93395">
        <ele>286.20001220703</ele>
        <time>2023-05-31T12:36:17.000Z</time>
      </trkpt>
      <trkpt lat="45.56589" lon="5.93408">
        <ele>286.39999389648</ele>
        <time>2023-05-31T12:36:20.000Z</time>
      </trkpt>
      <trkpt lat="45.56606" lon="5.9342">
        <ele>286.60000610352</ele>
        <time>2023-05-31T12:36:25.000Z</time>
      </trkpt>
      <trkpt lat="45.56608" lon="5.93422">
        <ele>286.79998779297</ele>
        <time>2023-05-31T12:36:26.000Z</time>
      </trkpt>
      <trkpt lat="45.56607" lon="5.93427">
        <ele>286.79998779297</ele>
        <time>2023-05-31T12:36:28.000Z</time>
      </trkpt>
      <trkpt lat="45.56598" lon="5.93443">
        <ele>287.20001220703</ele>
        <time>2023-05-31T12:36:35.000Z</time>
      </trkpt>
      <trkpt lat="45.56596" lon="5.93446">
        <ele>287</ele>
        <time>2023-05-31T12:36:40.000Z</time>
      </trkpt>
      <trkpt lat="45.56593" lon="5.93454">
        <ele>287</ele>
        <time>2023-05-31T12:41:28.000Z</time>
      </trkpt>
      <trkpt lat="45.56589" lon="5.93462">
        <ele>287</ele>
        <time>2023-05-31T12:41:30.000Z</time>
      </trkpt>
      <trkpt lat="45.56577" lon="5.93489">
        <ele>287</ele>
        <time>2023-05-31T12:41:35.000Z</time>
      </trkpt>
      <trkpt lat="45.56564" lon="5.93517">
        <ele>287.39999389648</ele>
        <time>2023-05-31T12:41:40.000Z</time>
      </trkpt>
      <trkpt lat="45.56559" lon="5.93529">
        <ele>287.39999389648</ele>
        <time>2023-05-31T12:41:42.000Z</time>
      </trkpt>
      <trkpt lat="45.56557" lon="5.93536">
        <ele>287.60000610352</ele>
        <time>2023-05-31T12:41:43.000Z</time>
      </trkpt>
      <trkpt lat="45.56552" lon="5.93549">
        <ele>287.60000610352</ele>
        <time>2023-05-31T12:41:45.000Z</time>
      </trkpt>
      <trkpt lat="45.56547" lon="5.93562">
        <ele>287.60000610352</ele>
        <time>2023-05-31T12:41:47.000Z</time>
      </trkpt>
      <trkpt lat="45.56525" lon="5.93605">
        <ele>287.79998779297</ele>
        <time>2023-05-31T12:41:54.000Z</time>
      </trkpt>
      <trkpt lat="45.56519" lon="5.93623">
        <ele>288</ele>
        <time>2023-05-31T12:41:57.000Z</time>
      </trkpt>
      <trkpt lat="45.5652" lon="5.93627">
        <ele>288</ele>
        <time>2023-05-31T12:41:58.000Z</time>
      </trkpt>
      <trkpt lat="45.56523" lon="5.93644">
        <ele>288</ele>
        <time>2023-05-31T12:42:01.000Z</time>
      </trkpt>
      <trkpt lat="45.56521" lon="5.93657">
        <ele>288.20001220703</ele>
        <time>2023-05-31T12:42:03.000Z</time>
      </trkpt>
      <trkpt lat="45.56505" lon="5.93697">
        <ele>288.20001220703</ele>
        <time>2023-05-31T12:42:09.000Z</time>
      </trkpt>
      <trkpt lat="45.56492" lon="5.93724">
        <ele>288.20001220703</ele>
        <time>2023-05-31T12:42:13.000Z</time>
      </trkpt>
      <trkpt lat="45.5649" lon="5.9373">
        <ele>288.20001220703</ele>
        <time>2023-05-31T12:42:14.000Z</time>
      </trkpt>
      <trkpt lat="45.56489" lon="5.93736">
        <ele>288.39999389648</ele>
        <time>2023-05-31T12:42:15.000Z</time>
      </trkpt>
      <trkpt lat="45.56488" lon="5.93751">
        <ele>288.39999389648</ele>
        <time>2023-05-31T12:42:17.000Z</time>
      </trkpt>
      <trkpt lat="45.56489" lon="5.93757">
        <ele>288.60000610352</ele>
        <time>2023-05-31T12:42:18.000Z</time>
      </trkpt>
      <trkpt lat="45.56492" lon="5.93761">
        <ele>288.60000610352</ele>
        <time>2023-05-31T12:42:19.000Z</time>
      </trkpt>
      <trkpt lat="45.56497" lon="5.93764">
        <ele>288.60000610352</ele>
        <time>2023-05-31T12:42:20.000Z</time>
      </trkpt>
      <trkpt lat="45.56505" lon="5.93772">
        <ele>288.79998779297</ele>
        <time>2023-05-31T12:42:22.000Z</time>
      </trkpt>
      <trkpt lat="45.56507" lon="5.9378">
        <ele>288.79998779297</ele>
        <time>2023-05-31T12:42:23.000Z</time>
      </trkpt>
      <trkpt lat="45.56511" lon="5.93797">
        <ele>288.79998779297</ele>
        <time>2023-05-31T12:42:25.000Z</time>
      </trkpt>
      <trkpt lat="45.56508" lon="5.93823">
        <ele>288.60000610352</ele>
        <time>2023-05-31T12:42:28.000Z</time>
      </trkpt>
      <trkpt lat="45.565" lon="5.93835">
        <ele>288.20001220703</ele>
        <time>2023-05-31T12:42:30.000Z</time>
      </trkpt>
      <trkpt lat="45.56496" lon="5.93839">
        <ele>288.20001220703</ele>
        <time>2023-05-31T12:42:31.000Z</time>
      </trkpt>
      <trkpt lat="45.5648" lon="5.93854">
        <ele>287.79998779297</ele>
        <time>2023-05-31T12:42:35.000Z</time>
      </trkpt>
      <trkpt lat="45.56461" lon="5.93885">
        <ele>287.79998779297</ele>
        <time>2023-05-31T12:42:40.000Z</time>
      </trkpt>
      <trkpt lat="45.56457" lon="5.93889">
        <ele>287.79998779297</ele>
        <time>2023-05-31T12:42:41.000Z</time>
      </trkpt>
      <trkpt lat="45.56455" lon="5.9389">
        <ele>288</ele>
        <time>2023-05-31T12:42:42.000Z</time>
      </trkpt>
      <trkpt lat="45.56447" lon="5.93892">
        <ele>288</ele>
        <time>2023-05-31T12:42:44.000Z</time>
      </trkpt>
      <trkpt lat="45.5644" lon="5.93897">
        <ele>287.79998779297</ele>
        <time>2023-05-31T12:42:45.000Z</time>
      </trkpt>
      <trkpt lat="45.56418" lon="5.93917">
        <ele>288</ele>
        <time>2023-05-31T12:42:50.000Z</time>
      </trkpt>
      <trkpt lat="45.56389" lon="5.93943">
        <ele>288.39999389648</ele>
        <time>2023-05-31T12:42:56.000Z</time>
      </trkpt>
      <trkpt lat="45.56356" lon="5.9397">
        <ele>288.79998779297</ele>
        <time>2023-05-31T12:43:03.000Z</time>
      </trkpt>
      <trkpt lat="45.56341" lon="5.93993">
        <ele>288.79998779297</ele>
        <time>2023-05-31T12:43:07.000Z</time>
      </trkpt>
      <trkpt lat="45.56336" lon="5.94001">
        <ele>288.79998779297</ele>
        <time>2023-05-31T12:43:08.000Z</time>
      </trkpt>
      <trkpt lat="45.5633" lon="5.94009">
        <ele>288.79998779297</ele>
        <time>2023-05-31T12:43:09.000Z</time>
      </trkpt>
      <trkpt lat="45.56311" lon="5.94026">
        <ele>288.79998779297</ele>
        <time>2023-05-31T12:43:12.000Z</time>
      </trkpt>
      <trkpt lat="45.56305" lon="5.94031">
        <ele>288.79998779297</ele>
        <time>2023-05-31T12:43:13.000Z</time>
      </trkpt>
      <trkpt lat="45.56292" lon="5.9404">
        <ele>289</ele>
        <time>2023-05-31T12:43:15.000Z</time>
      </trkpt>
      <trkpt lat="45.56281" lon="5.94047">
        <ele>289</ele>
        <time>2023-05-31T12:43:17.000Z</time>
      </trkpt>
      <trkpt lat="45.56269" lon="5.94054">
        <ele>289</ele>
        <time>2023-05-31T12:43:19.000Z</time>
      </trkpt>
      <trkpt lat="45.56258" lon="5.94061">
        <ele>289</ele>
        <time>2023-05-31T12:43:21.000Z</time>
      </trkpt>
      <trkpt lat="45.56255" lon="5.94062">
        <ele>289.20001220703</ele>
        <time>2023-05-31T12:43:22.000Z</time>
      </trkpt>
      <trkpt lat="45.5625" lon="5.94064">
        <ele>289.20001220703</ele>
        <time>2023-05-31T12:43:24.000Z</time>
      </trkpt>
      <trkpt lat="45.56246" lon="5.94065">
        <ele>289.20001220703</ele>
        <time>2023-05-31T12:43:25.000Z</time>
      </trkpt>
      <trkpt lat="45.5624" lon="5.94064">
        <ele>289.20001220703</ele>
        <time>2023-05-31T12:43:26.000Z</time>
      </trkpt>
      <trkpt lat="45.56223" lon="5.94063">
        <ele>289.39999389648</ele>
        <time>2023-05-31T12:43:28.000Z</time>
      </trkpt>
      <trkpt lat="45.56207" lon="5.94055">
        <ele>289.39999389648</ele>
        <time>2023-05-31T12:43:31.000Z</time>
      </trkpt>
      <trkpt lat="45.56201" lon="5.94055">
        <ele>289.39999389648</ele>
        <time>2023-05-31T12:43:32.000Z</time>
      </trkpt>
      <trkpt lat="45.56174" lon="5.94069">
        <ele>289.60000610352</ele>
        <time>2023-05-31T12:43:37.000Z</time>
      </trkpt>
      <trkpt lat="45.56152" lon="5.94088">
        <ele>289.79998779297</ele>
        <time>2023-05-31T12:43:42.000Z</time>
      </trkpt>
      <trkpt lat="45.56132" lon="5.94114">
        <ele>289.79998779297</ele>
        <time>2023-05-31T12:43:46.000Z</time>
      </trkpt>
      <trkpt lat="45.56129" lon="5.9412">
        <ele>289.79998779297</ele>
        <time>2023-05-31T12:43:47.000Z</time>
      </trkpt>
      <trkpt lat="45.56126" lon="5.94129">
        <ele>290</ele>
        <time>2023-05-31T12:43:49.000Z</time>
      </trkpt>
      <trkpt lat="45.56121" lon="5.94145">
        <ele>290.20001220703</ele>
        <time>2023-05-31T12:43:52.000Z</time>
      </trkpt>
      <trkpt lat="45.56121" lon="5.9415">
        <ele>290.39999389648</ele>
        <time>2023-05-31T12:43:53.000Z</time>
      </trkpt>
      <trkpt lat="45.56117" lon="5.9418">
        <ele>290.39999389648</ele>
        <time>2023-05-31T12:43:58.000Z</time>
      </trkpt>
      <trkpt lat="45.56117" lon="5.94199">
        <ele>290.20001220703</ele>
        <time>2023-05-31T12:44:01.000Z</time>
      </trkpt>
      <trkpt lat="45.56115" lon="5.94206">
        <ele>290.20001220703</ele>
        <time>2023-05-31T12:44:02.000Z</time>
      </trkpt>
      <trkpt lat="45.56111" lon="5.94221">
        <ele>290</ele>
        <time>2023-05-31T12:44:04.000Z</time>
      </trkpt>
      <trkpt lat="45.56112" lon="5.94235">
        <ele>290</ele>
        <time>2023-05-31T12:44:06.000Z</time>
      </trkpt>
      <trkpt lat="45.56114" lon="5.94244">
        <ele>289.79998779297</ele>
        <time>2023-05-31T12:44:07.000Z</time>
      </trkpt>
      <trkpt lat="45.56115" lon="5.94251">
        <ele>289.79998779297</ele>
        <time>2023-05-31T12:44:08.000Z</time>
      </trkpt>
      <trkpt lat="45.56115" lon="5.94265">
        <ele>289.79998779297</ele>
        <time>2023-05-31T12:44:10.000Z</time>
      </trkpt>
      <trkpt lat="45.56114" lon="5.94273">
        <ele>289.79998779297</ele>
        <time>2023-05-31T12:44:11.000Z</time>
      </trkpt>
      <trkpt lat="45.56107" lon="5.94332">
        <ele>289.79998779297</ele>
        <time>2023-05-31T12:44:18.000Z</time>
      </trkpt>
      <trkpt lat="45.56105" lon="5.94374">
        <ele>289.79998779297</ele>
        <time>2023-05-31T12:44:23.000Z</time>
      </trkpt>
      <trkpt lat="45.56105" lon="5.94383">
        <ele>289.79998779297</ele>
        <time>2023-05-31T12:44:24.000Z</time>
      </trkpt>
      <trkpt lat="45.56104" lon="5.94391">
        <ele>289.79998779297</ele>
        <time>2023-05-31T12:44:25.000Z</time>
      </trkpt>
      <trkpt lat="45.56099" lon="5.94415">
        <ele>289.79998779297</ele>
        <time>2023-05-31T12:44:28.000Z</time>
      </trkpt>
      <trkpt lat="45.56083" lon="5.94486">
        <ele>290.20001220703</ele>
        <time>2023-05-31T12:44:37.000Z</time>
      </trkpt>
      <trkpt lat="45.56072" lon="5.94516">
        <ele>290.20001220703</ele>
        <time>2023-05-31T12:44:41.000Z</time>
      </trkpt>
      <trkpt lat="45.56065" lon="5.94526">
        <ele>290.20001220703</ele>
        <time>2023-05-31T12:44:43.000Z</time>
      </trkpt>
      <trkpt lat="45.56056" lon="5.94535">
        <ele>290.39999389648</ele>
        <time>2023-05-31T12:44:45.000Z</time>
      </trkpt>
      <trkpt lat="45.56045" lon="5.94538">
        <ele>290.39999389648</ele>
        <time>2023-05-31T12:44:47.000Z</time>
      </trkpt>
      <trkpt lat="45.56026" lon="5.94542">
        <ele>290.39999389648</ele>
        <time>2023-05-31T12:44:50.000Z</time>
      </trkpt>
      <trkpt lat="45.56021" lon="5.94543">
        <ele>290.39999389648</ele>
        <time>2023-05-31T12:44:51.000Z</time>
      </trkpt>
      <trkpt lat="45.55967" lon="5.94558">
        <ele>290.39999389648</ele>
        <time>2023-05-31T12:45:00.000Z</time>
      </trkpt>
      <trkpt lat="45.55961" lon="5.94562">
        <ele>290.39999389648</ele>
        <time>2023-05-31T12:45:01.000Z</time>
      </trkpt>
      <trkpt lat="45.55951" lon="5.94571">
        <ele>290.39999389648</ele>
        <time>2023-05-31T12:45:03.000Z</time>
      </trkpt>
      <trkpt lat="45.55947" lon="5.94576">
        <ele>290.39999389648</ele>
        <time>2023-05-31T12:45:04.000Z</time>
      </trkpt>
      <trkpt lat="45.55943" lon="5.94582">
        <ele>290.39999389648</ele>
        <time>2023-05-31T12:45:05.000Z</time>
      </trkpt>
      <trkpt lat="45.55927" lon="5.94615">
        <ele>290.60000610352</ele>
        <time>2023-05-31T12:45:10.000Z</time>
      </trkpt>
      <trkpt lat="45.55896" lon="5.94673">
        <ele>291.20001220703</ele>
        <time>2023-05-31T12:45:18.000Z</time>
      </trkpt>
      <trkpt lat="45.55889" lon="5.94688">
        <ele>291.20001220703</ele>
        <time>2023-05-31T12:45:20.000Z</time>
      </trkpt>
      <trkpt lat="45.55883" lon="5.9471">
        <ele>291.20001220703</ele>
        <time>2023-05-31T12:45:23.000Z</time>
      </trkpt>
      <trkpt lat="45.55873" lon="5.94769">
        <ele>291.20001220703</ele>
        <time>2023-05-31T12:45:30.000Z</time>
      </trkpt>
      <trkpt lat="45.55871" lon="5.94776">
        <ele>291.20001220703</ele>
        <time>2023-05-31T12:45:31.000Z</time>
      </trkpt>
      <trkpt lat="45.55865" lon="5.94786">
        <ele>291.39999389648</ele>
        <time>2023-05-31T12:45:33.000Z</time>
      </trkpt>
      <trkpt lat="45.55861" lon="5.94789">
        <ele>291.60000610352</ele>
        <time>2023-05-31T12:45:34.000Z</time>
      </trkpt>
      <trkpt lat="45.5584" lon="5.94801">
        <ele>292.39999389648</ele>
        <time>2023-05-31T12:45:38.000Z</time>
      </trkpt>
      <trkpt lat="45.55834" lon="5.94804">
        <ele>292.60000610352</ele>
        <time>2023-05-31T12:45:39.000Z</time>
      </trkpt>
      <trkpt lat="45.55789" lon="5.94827">
        <ele>293</ele>
        <time>2023-05-31T12:45:47.000Z</time>
      </trkpt>
      <trkpt lat="45.55768" lon="5.94841">
        <ele>293</ele>
        <time>2023-05-31T12:45:51.000Z</time>
      </trkpt>
      <trkpt lat="45.55763" lon="5.9485">
        <ele>293</ele>
        <time>2023-05-31T12:45:53.000Z</time>
      </trkpt>
      <trkpt lat="45.55763" lon="5.94872">
        <ele>293.20001220703</ele>
        <time>2023-05-31T12:45:56.000Z</time>
      </trkpt>
      <trkpt lat="45.55753" lon="5.94888">
        <ele>293.20001220703</ele>
        <time>2023-05-31T12:45:59.000Z</time>
      </trkpt>
      <trkpt lat="45.55744" lon="5.94896">
        <ele>293</ele>
        <time>2023-05-31T12:46:01.000Z</time>
      </trkpt>
      <trkpt lat="45.55728" lon="5.94909">
        <ele>293</ele>
        <time>2023-05-31T12:46:04.000Z</time>
      </trkpt>
      <trkpt lat="45.55724" lon="5.94913">
        <ele>292.79998779297</ele>
        <time>2023-05-31T12:46:05.000Z</time>
      </trkpt>
      <trkpt lat="45.55696" lon="5.94953">
        <ele>292.79998779297</ele>
        <time>2023-05-31T12:46:12.000Z</time>
      </trkpt>
      <trkpt lat="45.55684" lon="5.94973">
        <ele>293</ele>
        <time>2023-05-31T12:46:15.000Z</time>
      </trkpt>
      <trkpt lat="45.5567" lon="5.94989">
        <ele>293.39999389648</ele>
        <time>2023-05-31T12:46:18.000Z</time>
      </trkpt>
      <trkpt lat="45.55644" lon="5.9502">
        <ele>293.39999389648</ele>
        <time>2023-05-31T12:46:24.000Z</time>
      </trkpt>
      <trkpt lat="45.55635" lon="5.95032">
        <ele>293.39999389648</ele>
        <time>2023-05-31T12:46:26.000Z</time>
      </trkpt>
      <trkpt lat="45.55604" lon="5.95071">
        <ele>293.20001220703</ele>
        <time>2023-05-31T12:46:33.000Z</time>
      </trkpt>
      <trkpt lat="45.55582" lon="5.95101">
        <ele>293.20001220703</ele>
        <time>2023-05-31T12:46:38.000Z</time>
      </trkpt>
      <trkpt lat="45.55577" lon="5.95107">
        <ele>293.20001220703</ele>
        <time>2023-05-31T12:46:39.000Z</time>
      </trkpt>
      <trkpt lat="45.55537" lon="5.9516">
        <ele>293.20001220703</ele>
        <time>2023-05-31T12:46:48.000Z</time>
      </trkpt>
      <trkpt lat="45.55495" lon="5.95209">
        <ele>293.39999389648</ele>
        <time>2023-05-31T12:46:57.000Z</time>
      </trkpt>
      <trkpt lat="45.55455" lon="5.95262">
        <ele>293.39999389648</ele>
        <time>2023-05-31T12:47:06.000Z</time>
      </trkpt>
      <trkpt lat="45.55449" lon="5.95269">
        <ele>293.20001220703</ele>
        <time>2023-05-31T12:47:07.000Z</time>
      </trkpt>
      <trkpt lat="45.55404" lon="5.95325">
        <ele>293.20001220703</ele>
        <time>2023-05-31T12:47:17.000Z</time>
      </trkpt>
      <trkpt lat="45.55377" lon="5.95352">
        <ele>293.60000610352</ele>
        <time>2023-05-31T12:47:23.000Z</time>
      </trkpt>
      <trkpt lat="45.55356" lon="5.95376">
        <ele>294.79998779297</ele>
        <time>2023-05-31T12:47:28.000Z</time>
      </trkpt>
      <trkpt lat="45.55354" lon="5.9538">
        <ele>295</ele>
        <time>2023-05-31T12:47:29.000Z</time>
      </trkpt>
      <trkpt lat="45.55351" lon="5.95385">
        <ele>295</ele>
        <time>2023-05-31T12:47:30.000Z</time>
      </trkpt>
      <trkpt lat="45.55348" lon="5.95398">
        <ele>295.39999389648</ele>
        <time>2023-05-31T12:47:32.000Z</time>
      </trkpt>
      <trkpt lat="45.5535" lon="5.95409">
        <ele>295.60000610352</ele>
        <time>2023-05-31T12:47:34.000Z</time>
      </trkpt>
      <trkpt lat="45.55353" lon="5.95414">
        <ele>295.60000610352</ele>
        <time>2023-05-31T12:47:35.000Z</time>
      </trkpt>
      <trkpt lat="45.55358" lon="5.9542">
        <ele>295.60000610352</ele>
        <time>2023-05-31T12:47:36.000Z</time>
      </trkpt>
      <trkpt lat="45.55367" lon="5.95426">
        <ele>295.60000610352</ele>
        <time>2023-05-31T12:47:38.000Z</time>
      </trkpt>
      <trkpt lat="45.55371" lon="5.95427">
        <ele>295.60000610352</ele>
        <time>2023-05-31T12:47:39.000Z</time>
      </trkpt>
      <trkpt lat="45.55376" lon="5.95427">
        <ele>295.60000610352</ele>
        <time>2023-05-31T12:47:40.000Z</time>
      </trkpt>
      <trkpt lat="45.55381" lon="5.95422">
        <ele>295.60000610352</ele>
        <time>2023-05-31T12:47:41.000Z</time>
      </trkpt>
      <trkpt lat="45.55385" lon="5.95416">
        <ele>295.60000610352</ele>
        <time>2023-05-31T12:47:42.000Z</time>
      </trkpt>
      <trkpt lat="45.55391" lon="5.95408">
        <ele>295.39999389648</ele>
        <time>2023-05-31T12:47:44.000Z</time>
      </trkpt>
      <trkpt lat="45.55396" lon="5.95407">
        <ele>295.20001220703</ele>
        <time>2023-05-31T12:47:45.000Z</time>
      </trkpt>
      <trkpt lat="45.55401" lon="5.95409">
        <ele>295.20001220703</ele>
        <time>2023-05-31T12:47:46.000Z</time>
      </trkpt>
      <trkpt lat="45.55414" lon="5.95416">
        <ele>294.60000610352</ele>
        <time>2023-05-31T12:47:49.000Z</time>
      </trkpt>
      <trkpt lat="45.55417" lon="5.95422">
        <ele>294.39999389648</ele>
        <time>2023-05-31T12:47:50.000Z</time>
      </trkpt>
      <trkpt lat="45.55417" lon="5.95427">
        <ele>294.39999389648</ele>
        <time>2023-05-31T12:47:51.000Z</time>
      </trkpt>
      <trkpt lat="45.55414" lon="5.95431">
        <ele>294.20001220703</ele>
        <time>2023-05-31T12:47:52.000Z</time>
      </trkpt>
      <trkpt lat="45.55408" lon="5.95436">
        <ele>294.20001220703</ele>
        <time>2023-05-31T12:47:54.000Z</time>
      </trkpt>
      <trkpt lat="45.55399" lon="5.95441">
        <ele>294.20001220703</ele>
        <time>2023-05-31T12:47:56.000Z</time>
      </trkpt>
      <trkpt lat="45.55394" lon="5.95445">
        <ele>294.20001220703</ele>
        <time>2023-05-31T12:47:57.000Z</time>
      </trkpt>
      <trkpt lat="45.55386" lon="5.95453">
        <ele>294.39999389648</ele>
        <time>2023-05-31T12:47:59.000Z</time>
      </trkpt>
      <trkpt lat="45.55375" lon="5.95465">
        <ele>294.39999389648</ele>
        <time>2023-05-31T12:48:01.000Z</time>
      </trkpt>
      <trkpt lat="45.55347" lon="5.95494">
        <ele>294.79998779297</ele>
        <time>2023-05-31T12:48:07.000Z</time>
      </trkpt>
      <trkpt lat="45.55305" lon="5.95537">
        <ele>295.60000610352</ele>
        <time>2023-05-31T12:48:16.000Z</time>
      </trkpt>
      <trkpt lat="45.553" lon="5.95541">
        <ele>295.60000610352</ele>
        <time>2023-05-31T12:48:17.000Z</time>
      </trkpt>
      <trkpt lat="45.55277" lon="5.95562">
        <ele>295.60000610352</ele>
        <time>2023-05-31T12:48:21.000Z</time>
      </trkpt>
      <trkpt lat="45.55269" lon="5.95572">
        <ele>295.79998779297</ele>
        <time>2023-05-31T12:48:23.000Z</time>
      </trkpt>
      <trkpt lat="45.55236" lon="5.9561">
        <ele>295.79998779297</ele>
        <time>2023-05-31T12:48:30.000Z</time>
      </trkpt>
      <trkpt lat="45.55206" lon="5.95645">
        <ele>295.79998779297</ele>
        <time>2023-05-31T12:48:36.000Z</time>
      </trkpt>
      <trkpt lat="45.55171" lon="5.95692">
        <ele>295.20001220703</ele>
        <time>2023-05-31T12:48:44.000Z</time>
      </trkpt>
      <trkpt lat="45.55141" lon="5.95739">
        <ele>295.39999389648</ele>
        <time>2023-05-31T12:48:52.000Z</time>
      </trkpt>
      <trkpt lat="45.55106" lon="5.95774">
        <ele>295.60000610352</ele>
        <time>2023-05-31T12:48:59.000Z</time>
      </trkpt>
      <trkpt lat="45.55085" lon="5.9579">
        <ele>295.79998779297</ele>
        <time>2023-05-31T12:49:03.000Z</time>
      </trkpt>
      <trkpt lat="45.55069" lon="5.95799">
        <ele>295.79998779297</ele>
        <time>2023-05-31T12:49:06.000Z</time>
      </trkpt>
      <trkpt lat="45.55051" lon="5.95809">
        <ele>296</ele>
        <time>2023-05-31T12:49:09.000Z</time>
      </trkpt>
      <trkpt lat="45.55028" lon="5.95817">
        <ele>296.39999389648</ele>
        <time>2023-05-31T12:49:13.000Z</time>
      </trkpt>
      <trkpt lat="45.54997" lon="5.95827">
        <ele>296.79998779297</ele>
        <time>2023-05-31T12:49:18.000Z</time>
      </trkpt>
      <trkpt lat="45.5498" lon="5.95835">
        <ele>296.79998779297</ele>
        <time>2023-05-31T12:49:21.000Z</time>
      </trkpt>
      <trkpt lat="45.54939" lon="5.95852">
        <ele>297.60000610352</ele>
        <time>2023-05-31T12:49:28.000Z</time>
      </trkpt>
      <trkpt lat="45.54934" lon="5.95854">
        <ele>298</ele>
        <time>2023-05-31T12:49:29.000Z</time>
      </trkpt>
      <trkpt lat="45.54915" lon="5.95862">
        <ele>299.20001220703</ele>
        <time>2023-05-31T12:49:33.000Z</time>
      </trkpt>
      <trkpt lat="45.54906" lon="5.95866">
        <ele>299.79998779297</ele>
        <time>2023-05-31T12:49:35.000Z</time>
      </trkpt>
      <trkpt lat="45.54901" lon="5.95869">
        <ele>300.20001220703</ele>
        <time>2023-05-31T12:49:36.000Z</time>
      </trkpt>
      <trkpt lat="45.54896" lon="5.95871">
        <ele>300.79998779297</ele>
        <time>2023-05-31T12:49:37.000Z</time>
      </trkpt>
      <trkpt lat="45.54879" lon="5.95878">
        <ele>301.39999389648</ele>
        <time>2023-05-31T12:49:40.000Z</time>
      </trkpt>
      <trkpt lat="45.5487" lon="5.95882">
        <ele>301.39999389648</ele>
        <time>2023-05-31T12:49:41.000Z</time>
      </trkpt>
      <trkpt lat="45.54851" lon="5.9589">
        <ele>301.39999389648</ele>
        <time>2023-05-31T12:49:44.000Z</time>
      </trkpt>
      <trkpt lat="45.54833" lon="5.95893">
        <ele>301.20001220703</ele>
        <time>2023-05-31T12:49:46.000Z</time>
      </trkpt>
      <trkpt lat="45.54818" lon="5.95898">
        <ele>300.60000610352</ele>
        <time>2023-05-31T12:49:48.000Z</time>
      </trkpt>
      <trkpt lat="45.54812" lon="5.95901">
        <ele>300.20001220703</ele>
        <time>2023-05-31T12:49:49.000Z</time>
      </trkpt>
      <trkpt lat="45.54804" lon="5.95907">
        <ele>299.79998779297</ele>
        <time>2023-05-31T12:49:50.000Z</time>
      </trkpt>
      <trkpt lat="45.54792" lon="5.95916">
        <ele>299</ele>
        <time>2023-05-31T12:49:52.000Z</time>
      </trkpt>
      <trkpt lat="45.54767" lon="5.9593">
        <ele>298.20001220703</ele>
        <time>2023-05-31T12:49:56.000Z</time>
      </trkpt>
      <trkpt lat="45.54729" lon="5.95951">
        <ele>298.39999389648</ele>
        <time>2023-05-31T12:50:03.000Z</time>
      </trkpt>
      <trkpt lat="45.54678" lon="5.9598">
        <ele>299</ele>
        <time>2023-05-31T12:50:12.000Z</time>
      </trkpt>
      <trkpt lat="45.54672" lon="5.95984">
        <ele>299</ele>
        <time>2023-05-31T12:50:13.000Z</time>
      </trkpt>
      <trkpt lat="45.54622" lon="5.96013">
        <ele>299.20001220703</ele>
        <time>2023-05-31T12:50:22.000Z</time>
      </trkpt>
      <trkpt lat="45.54571" lon="5.96042">
        <ele>299.39999389648</ele>
        <time>2023-05-31T12:50:31.000Z</time>
      </trkpt>
      <trkpt lat="45.54539" lon="5.96061">
        <ele>300.20001220703</ele>
        <time>2023-05-31T12:50:37.000Z</time>
      </trkpt>
      <trkpt lat="45.54527" lon="5.96068">
        <ele>300.39999389648</ele>
        <time>2023-05-31T12:50:39.000Z</time>
      </trkpt>
      <trkpt lat="45.54522" lon="5.96072">
        <ele>300.39999389648</ele>
        <time>2023-05-31T12:50:40.000Z</time>
      </trkpt>
      <trkpt lat="45.54507" lon="5.96082">
        <ele>300.60000610352</ele>
        <time>2023-05-31T12:50:43.000Z</time>
      </trkpt>
      <trkpt lat="45.54467" lon="5.9611">
        <ele>301.20001220703</ele>
        <time>2023-05-31T12:50:51.000Z</time>
      </trkpt>
      <trkpt lat="45.54461" lon="5.96114">
        <ele>301.39999389648</ele>
        <time>2023-05-31T12:50:52.000Z</time>
      </trkpt>
      <trkpt lat="45.54436" lon="5.96122">
        <ele>301.60000610352</ele>
        <time>2023-05-31T12:50:56.000Z</time>
      </trkpt>
      <trkpt lat="45.54385" lon="5.96139">
        <ele>301.39999389648</ele>
        <time>2023-05-31T12:51:05.000Z</time>
      </trkpt>
      <trkpt lat="45.54331" lon="5.96154">
        <ele>302</ele>
        <time>2023-05-31T12:51:14.000Z</time>
      </trkpt>
      <trkpt lat="45.54325" lon="5.96155">
        <ele>302</ele>
        <time>2023-05-31T12:51:15.000Z</time>
      </trkpt>
      <trkpt lat="45.54285" lon="5.96168">
        <ele>302</ele>
        <time>2023-05-31T12:51:22.000Z</time>
      </trkpt>
      <trkpt lat="45.5428" lon="5.96171">
        <ele>302</ele>
        <time>2023-05-31T12:51:23.000Z</time>
      </trkpt>
      <trkpt lat="45.54257" lon="5.96184">
        <ele>302.39999389648</ele>
        <time>2023-05-31T12:51:27.000Z</time>
      </trkpt>
      <trkpt lat="45.5424" lon="5.96195">
        <ele>302.60000610352</ele>
        <time>2023-05-31T12:51:30.000Z</time>
      </trkpt>
      <trkpt lat="45.5419" lon="5.96224">
        <ele>303</ele>
        <time>2023-05-31T12:51:39.000Z</time>
      </trkpt>
      <trkpt lat="45.54135" lon="5.96257">
        <ele>302.79998779297</ele>
        <time>2023-05-31T12:51:49.000Z</time>
      </trkpt>
      <trkpt lat="45.54081" lon="5.96289">
        <ele>303.20001220703</ele>
        <time>2023-05-31T12:51:59.000Z</time>
      </trkpt>
      <trkpt lat="45.54077" lon="5.96291">
        <ele>303.20001220703</ele>
        <time>2023-05-31T12:52:00.000Z</time>
      </trkpt>
      <trkpt lat="45.54072" lon="5.96295">
        <ele>303.39999389648</ele>
        <time>2023-05-31T12:52:01.000Z</time>
      </trkpt>
      <trkpt lat="45.54041" lon="5.96323">
        <ele>303.79998779297</ele>
        <time>2023-05-31T12:52:07.000Z</time>
      </trkpt>
      <trkpt lat="45.54003" lon="5.96359">
        <ele>304</ele>
        <time>2023-05-31T12:52:15.000Z</time>
      </trkpt>
      <trkpt lat="45.53988" lon="5.96369">
        <ele>304.39999389648</ele>
        <time>2023-05-31T12:52:18.000Z</time>
      </trkpt>
      <trkpt lat="45.53983" lon="5.96373">
        <ele>304.39999389648</ele>
        <time>2023-05-31T12:52:19.000Z</time>
      </trkpt>
      <trkpt lat="45.53971" lon="5.9638">
        <ele>304.60000610352</ele>
        <time>2023-05-31T12:52:21.000Z</time>
      </trkpt>
      <trkpt lat="45.53917" lon="5.9641">
        <ele>304.79998779297</ele>
        <time>2023-05-31T12:52:31.000Z</time>
      </trkpt>
      <trkpt lat="45.53913" lon="5.96412">
        <ele>304.79998779297</ele>
        <time>2023-05-31T12:52:32.000Z</time>
      </trkpt>
      <trkpt lat="45.53865" lon="5.96445">
        <ele>305.20001220703</ele>
        <time>2023-05-31T12:52:41.000Z</time>
      </trkpt>
      <trkpt lat="45.53854" lon="5.96452">
        <ele>305.39999389648</ele>
        <time>2023-05-31T12:52:43.000Z</time>
      </trkpt>
      <trkpt lat="45.53817" lon="5.96473">
        <ele>306</ele>
        <time>2023-05-31T12:52:50.000Z</time>
      </trkpt>
      <trkpt lat="45.53813" lon="5.96474">
        <ele>306</ele>
        <time>2023-05-31T12:52:51.000Z</time>
      </trkpt>
      <trkpt lat="45.53778" lon="5.96486">
        <ele>306.39999389648</ele>
        <time>2023-05-31T12:52:57.000Z</time>
      </trkpt>
      <trkpt lat="45.53756" lon="5.96493">
        <ele>307</ele>
        <time>2023-05-31T12:53:01.000Z</time>
      </trkpt>
      <trkpt lat="45.53724" lon="5.96505">
        <ele>307.20001220703</ele>
        <time>2023-05-31T12:53:07.000Z</time>
      </trkpt>
      <trkpt lat="45.53718" lon="5.9651">
        <ele>307.39999389648</ele>
        <time>2023-05-31T12:53:08.000Z</time>
      </trkpt>
      <trkpt lat="45.53691" lon="5.96537">
        <ele>307.79998779297</ele>
        <time>2023-05-31T12:53:14.000Z</time>
      </trkpt>
      <trkpt lat="45.53671" lon="5.96557">
        <ele>308.20001220703</ele>
        <time>2023-05-31T12:53:18.000Z</time>
      </trkpt>
      <trkpt lat="45.53669" lon="5.96562">
        <ele>308.20001220703</ele>
        <time>2023-05-31T12:53:19.000Z</time>
      </trkpt>
      <trkpt lat="45.53667" lon="5.9657">
        <ele>308.39999389648</ele>
        <time>2023-05-31T12:53:20.000Z</time>
      </trkpt>
      <trkpt lat="45.53669" lon="5.96587">
        <ele>308.60000610352</ele>
        <time>2023-05-31T12:53:22.000Z</time>
      </trkpt>
      <trkpt lat="45.5367" lon="5.96592">
        <ele>308.79998779297</ele>
        <time>2023-05-31T12:53:23.000Z</time>
      </trkpt>
      <trkpt lat="45.53673" lon="5.96599">
        <ele>309</ele>
        <time>2023-05-31T12:53:24.000Z</time>
      </trkpt>
      <trkpt lat="45.53678" lon="5.96612">
        <ele>309.39999389648</ele>
        <time>2023-05-31T12:53:26.000Z</time>
      </trkpt>
      <trkpt lat="45.53681" lon="5.96615">
        <ele>309.79998779297</ele>
        <time>2023-05-31T12:53:27.000Z</time>
      </trkpt>
      <trkpt lat="45.53685" lon="5.9662">
        <ele>310</ele>
        <time>2023-05-31T12:53:28.000Z</time>
      </trkpt>
      <trkpt lat="45.53688" lon="5.96626">
        <ele>310</ele>
        <time>2023-05-31T12:53:29.000Z</time>
      </trkpt>
      <trkpt lat="45.53688" lon="5.96638">
        <ele>310.60000610352</ele>
        <time>2023-05-31T12:53:31.000Z</time>
      </trkpt>
      <trkpt lat="45.53682" lon="5.96648">
        <ele>311.20001220703</ele>
        <time>2023-05-31T12:53:33.000Z</time>
      </trkpt>
      <trkpt lat="45.53678" lon="5.96652">
        <ele>311.39999389648</ele>
        <time>2023-05-31T12:53:34.000Z</time>
      </trkpt>
      <trkpt lat="45.53649" lon="5.9668">
        <ele>313</ele>
        <time>2023-05-31T12:53:41.000Z</time>
      </trkpt>
      <trkpt lat="45.53648" lon="5.96686">
        <ele>313.20001220703</ele>
        <time>2023-05-31T12:53:42.000Z</time>
      </trkpt>
      <trkpt lat="45.53649" lon="5.96692">
        <ele>313.20001220703</ele>
        <time>2023-05-31T12:53:43.000Z</time>
      </trkpt>
      <trkpt lat="45.53653" lon="5.96697">
        <ele>313.39999389648</ele>
        <time>2023-05-31T12:53:44.000Z</time>
      </trkpt>
      <trkpt lat="45.53658" lon="5.96702">
        <ele>313.60000610352</ele>
        <time>2023-05-31T12:53:45.000Z</time>
      </trkpt>
      <trkpt lat="45.53671" lon="5.96705">
        <ele>314.20001220703</ele>
        <time>2023-05-31T12:53:48.000Z</time>
      </trkpt>
      <trkpt lat="45.5368" lon="5.96708">
        <ele>314.60000610352</ele>
        <time>2023-05-31T12:53:50.000Z</time>
      </trkpt>
      <trkpt lat="45.53688" lon="5.96714">
        <ele>315.39999389648</ele>
        <time>2023-05-31T12:53:52.000Z</time>
      </trkpt>
      <trkpt lat="45.53691" lon="5.96717">
        <ele>315.79998779297</ele>
        <time>2023-05-31T12:53:53.000Z</time>
      </trkpt>
      <trkpt lat="45.53695" lon="5.96722">
        <ele>316</ele>
        <time>2023-05-31T12:53:54.000Z</time>
      </trkpt>
      <trkpt lat="45.53702" lon="5.96731">
        <ele>316.60000610352</ele>
        <time>2023-05-31T12:53:56.000Z</time>
      </trkpt>
      <trkpt lat="45.53704" lon="5.96735">
        <ele>316.79998779297</ele>
        <time>2023-05-31T12:53:57.000Z</time>
      </trkpt>
      <trkpt lat="45.53707" lon="5.9674">
        <ele>317.20001220703</ele>
        <time>2023-05-31T12:53:58.000Z</time>
      </trkpt>
      <trkpt lat="45.53713" lon="5.96752">
        <ele>317.60000610352</ele>
        <time>2023-05-31T12:54:00.000Z</time>
      </trkpt>
      <trkpt lat="45.53716" lon="5.96757">
        <ele>317.79998779297</ele>
        <time>2023-05-31T12:54:01.000Z</time>
      </trkpt>
      <trkpt lat="45.53721" lon="5.96766">
        <ele>318.20001220703</ele>
        <time>2023-05-31T12:54:03.000Z</time>
      </trkpt>
      <trkpt lat="45.53732" lon="5.96788">
        <ele>318.79998779297</ele>
        <time>2023-05-31T12:54:07.000Z</time>
      </trkpt>
      <trkpt lat="45.53734" lon="5.968">
        <ele>319</ele>
        <time>2023-05-31T12:54:09.000Z</time>
      </trkpt>
      <trkpt lat="45.53733" lon="5.96807">
        <ele>319</ele>
        <time>2023-05-31T12:54:10.000Z</time>
      </trkpt>
      <trkpt lat="45.53731" lon="5.96812">
        <ele>319.20001220703</ele>
        <time>2023-05-31T12:54:11.000Z</time>
      </trkpt>
      <trkpt lat="45.53721" lon="5.96822">
        <ele>319.20001220703</ele>
        <time>2023-05-31T12:54:13.000Z</time>
      </trkpt>
      <trkpt lat="45.53686" lon="5.96836">
        <ele>319.20001220703</ele>
        <time>2023-05-31T12:54:18.000Z</time>
      </trkpt>
      <trkpt lat="45.53668" lon="5.96842">
        <ele>318.20001220703</ele>
        <time>2023-05-31T12:54:21.000Z</time>
      </trkpt>
      <trkpt lat="45.5366" lon="5.96851">
        <ele>317.60000610352</ele>
        <time>2023-05-31T12:54:23.000Z</time>
      </trkpt>
      <trkpt lat="45.53658" lon="5.96865">
        <ele>316.39999389648</ele>
        <time>2023-05-31T12:54:27.000Z</time>
      </trkpt>
      <trkpt lat="45.53652" lon="5.96872">
        <ele>315.79998779297</ele>
        <time>2023-05-31T12:54:29.000Z</time>
      </trkpt>
      <trkpt lat="45.53648" lon="5.96874">
        <ele>315.60000610352</ele>
        <time>2023-05-31T12:54:30.000Z</time>
      </trkpt>
      <trkpt lat="45.53636" lon="5.96879">
        <ele>315.39999389648</ele>
        <time>2023-05-31T12:54:32.000Z</time>
      </trkpt>
      <trkpt lat="45.53621" lon="5.96887">
        <ele>315</ele>
        <time>2023-05-31T12:54:35.000Z</time>
      </trkpt>
      <trkpt lat="45.53587" lon="5.9691">
        <ele>314.39999389648</ele>
        <time>2023-05-31T12:54:41.000Z</time>
      </trkpt>
      <trkpt lat="45.53581" lon="5.96914">
        <ele>314.20001220703</ele>
        <time>2023-05-31T12:54:42.000Z</time>
      </trkpt>
      <trkpt lat="45.53536" lon="5.96952">
        <ele>314.20001220703</ele>
        <time>2023-05-31T12:54:51.000Z</time>
      </trkpt>
      <trkpt lat="45.53508" lon="5.96973">
        <ele>315.20001220703</ele>
        <time>2023-05-31T12:54:57.000Z</time>
      </trkpt>
      <trkpt lat="45.53504" lon="5.96976">
        <ele>315.60000610352</ele>
        <time>2023-05-31T12:54:58.000Z</time>
      </trkpt>
      <trkpt lat="45.53486" lon="5.96989">
        <ele>316.39999389648</ele>
        <time>2023-05-31T12:55:02.000Z</time>
      </trkpt>
      <trkpt lat="45.53464" lon="5.97004">
        <ele>317.20001220703</ele>
        <time>2023-05-31T12:55:07.000Z</time>
      </trkpt>
      <trkpt lat="45.53454" lon="5.9701">
        <ele>317.39999389648</ele>
        <time>2023-05-31T12:55:09.000Z</time>
      </trkpt>
      <trkpt lat="45.53419" lon="5.97029">
        <ele>318.20001220703</ele>
        <time>2023-05-31T12:55:16.000Z</time>
      </trkpt>
      <trkpt lat="45.53387" lon="5.97049">
        <ele>318</ele>
        <time>2023-05-31T12:55:21.000Z</time>
      </trkpt>
      <trkpt lat="45.53336" lon="5.97082">
        <ele>316.60000610352</ele>
        <time>2023-05-31T12:55:29.000Z</time>
      </trkpt>
      <trkpt lat="45.53326" lon="5.97088">
        <ele>316.39999389648</ele>
        <time>2023-05-31T12:55:31.000Z</time>
      </trkpt>
      <trkpt lat="45.53286" lon="5.97113">
        <ele>316.60000610352</ele>
        <time>2023-05-31T12:55:38.000Z</time>
      </trkpt>
      <trkpt lat="45.53233" lon="5.97147">
        <ele>318</ele>
        <time>2023-05-31T12:55:48.000Z</time>
      </trkpt>
      <trkpt lat="45.53229" lon="5.97149">
        <ele>318</ele>
        <time>2023-05-31T12:55:49.000Z</time>
      </trkpt>
      <trkpt lat="45.53208" lon="5.97163">
        <ele>318.20001220703</ele>
        <time>2023-05-31T12:55:53.000Z</time>
      </trkpt>
      <trkpt lat="45.53199" lon="5.9717">
        <ele>318.39999389648</ele>
        <time>2023-05-31T12:55:55.000Z</time>
      </trkpt>
      <trkpt lat="45.5318" lon="5.97186">
        <ele>318.79998779297</ele>
        <time>2023-05-31T12:55:59.000Z</time>
      </trkpt>
      <trkpt lat="45.53163" lon="5.97196">
        <ele>319</ele>
        <time>2023-05-31T12:56:02.000Z</time>
      </trkpt>
      <trkpt lat="45.53146" lon="5.97201">
        <ele>319</ele>
        <time>2023-05-31T12:56:05.000Z</time>
      </trkpt>
      <trkpt lat="45.53111" lon="5.97223">
        <ele>318.79998779297</ele>
        <time>2023-05-31T12:56:11.000Z</time>
      </trkpt>
      <trkpt lat="45.53069" lon="5.97257">
        <ele>317.79998779297</ele>
        <time>2023-05-31T12:56:18.000Z</time>
      </trkpt>
      <trkpt lat="45.53058" lon="5.97269">
        <ele>317.60000610352</ele>
        <time>2023-05-31T12:56:20.000Z</time>
      </trkpt>
      <trkpt lat="45.53053" lon="5.97276">
        <ele>317.39999389648</ele>
        <time>2023-05-31T12:56:21.000Z</time>
      </trkpt>
      <trkpt lat="45.53044" lon="5.9729">
        <ele>316.79998779297</ele>
        <time>2023-05-31T12:56:23.000Z</time>
      </trkpt>
      <trkpt lat="45.53032" lon="5.97304">
        <ele>316.39999389648</ele>
        <time>2023-05-31T12:56:25.000Z</time>
      </trkpt>
      <trkpt lat="45.5302" lon="5.97313">
        <ele>316</ele>
        <time>2023-05-31T12:56:27.000Z</time>
      </trkpt>
      <trkpt lat="45.53007" lon="5.97321">
        <ele>315.60000610352</ele>
        <time>2023-05-31T12:56:29.000Z</time>
      </trkpt>
      <trkpt lat="45.52982" lon="5.97345">
        <ele>314.79998779297</ele>
        <time>2023-05-31T12:56:33.000Z</time>
      </trkpt>
      <trkpt lat="45.5297" lon="5.97366">
        <ele>314.60000610352</ele>
        <time>2023-05-31T12:56:36.000Z</time>
      </trkpt>
      <trkpt lat="45.52966" lon="5.97373">
        <ele>314.20001220703</ele>
        <time>2023-05-31T12:56:37.000Z</time>
      </trkpt>
      <trkpt lat="45.52958" lon="5.97388">
        <ele>314.20001220703</ele>
        <time>2023-05-31T12:56:39.000Z</time>
      </trkpt>
      <trkpt lat="45.52954" lon="5.97397">
        <ele>314.20001220703</ele>
        <time>2023-05-31T12:56:40.000Z</time>
      </trkpt>
      <trkpt lat="45.52932" lon="5.97436">
        <ele>314.60000610352</ele>
        <time>2023-05-31T12:56:46.000Z</time>
      </trkpt>
      <trkpt lat="45.52916" lon="5.97462">
        <ele>314.79998779297</ele>
        <time>2023-05-31T12:56:50.000Z</time>
      </trkpt>
      <trkpt lat="45.52907" lon="5.97472">
        <ele>315</ele>
        <time>2023-05-31T12:56:52.000Z</time>
      </trkpt>
      <trkpt lat="45.52878" lon="5.9749">
        <ele>315.39999389648</ele>
        <time>2023-05-31T12:56:58.000Z</time>
      </trkpt>
      <trkpt lat="45.52844" lon="5.97516">
        <ele>316</ele>
        <time>2023-05-31T12:57:05.000Z</time>
      </trkpt>
      <trkpt lat="45.52839" lon="5.9752">
        <ele>316.20001220703</ele>
        <time>2023-05-31T12:57:06.000Z</time>
      </trkpt>
      <trkpt lat="45.52834" lon="5.97524">
        <ele>316.39999389648</ele>
        <time>2023-05-31T12:57:07.000Z</time>
      </trkpt>
      <trkpt lat="45.52821" lon="5.97534">
        <ele>316.79998779297</ele>
        <time>2023-05-31T12:57:10.000Z</time>
      </trkpt>
      <trkpt lat="45.52812" lon="5.97542">
        <ele>317.20001220703</ele>
        <time>2023-05-31T12:57:12.000Z</time>
      </trkpt>
      <trkpt lat="45.52803" lon="5.97548">
        <ele>317.60000610352</ele>
        <time>2023-05-31T12:57:14.000Z</time>
      </trkpt>
      <trkpt lat="45.52798" lon="5.97552">
        <ele>317.60000610352</ele>
        <time>2023-05-31T12:57:15.000Z</time>
      </trkpt>
      <trkpt lat="45.52776" lon="5.97573">
        <ele>318.60000610352</ele>
        <time>2023-05-31T12:57:20.000Z</time>
      </trkpt>
      <trkpt lat="45.52766" lon="5.97584">
        <ele>318.79998779297</ele>
        <time>2023-05-31T12:57:22.000Z</time>
      </trkpt>
      <trkpt lat="45.5274" lon="5.97611">
        <ele>319.79998779297</ele>
        <time>2023-05-31T12:57:28.000Z</time>
      </trkpt>
      <trkpt lat="45.52732" lon="5.97621">
        <ele>320.20001220703</ele>
        <time>2023-05-31T12:57:30.000Z</time>
      </trkpt>
      <trkpt lat="45.52725" lon="5.97631">
        <ele>320.39999389648</ele>
        <time>2023-05-31T12:57:32.000Z</time>
      </trkpt>
      <trkpt lat="45.52714" lon="5.97645">
        <ele>321</ele>
        <time>2023-05-31T12:57:35.000Z</time>
      </trkpt>
      <trkpt lat="45.52696" lon="5.97671">
        <ele>321.60000610352</ele>
        <time>2023-05-31T12:57:40.000Z</time>
      </trkpt>
      <trkpt lat="45.52681" lon="5.97691">
        <ele>322</ele>
        <time>2023-05-31T12:57:44.000Z</time>
      </trkpt>
      <trkpt lat="45.52666" lon="5.9771">
        <ele>322.20001220703</ele>
        <time>2023-05-31T12:57:48.000Z</time>
      </trkpt>
      <trkpt lat="45.52633" lon="5.97748">
        <ele>322.60000610352</ele>
        <time>2023-05-31T12:57:56.000Z</time>
      </trkpt>
      <trkpt lat="45.52612" lon="5.97771">
        <ele>323</ele>
        <time>2023-05-31T12:58:01.000Z</time>
      </trkpt>
      <trkpt lat="45.52595" lon="5.97789">
        <ele>323.39999389648</ele>
        <time>2023-05-31T12:58:05.000Z</time>
      </trkpt>
      <trkpt lat="45.52586" lon="5.97799">
        <ele>323.79998779297</ele>
        <time>2023-05-31T12:58:07.000Z</time>
      </trkpt>
      <trkpt lat="45.52578" lon="5.97808">
        <ele>323.79998779297</ele>
        <time>2023-05-31T12:58:09.000Z</time>
      </trkpt>
      <trkpt lat="45.5257" lon="5.97818">
        <ele>324</ele>
        <time>2023-05-31T12:58:11.000Z</time>
      </trkpt>
      <trkpt lat="45.52566" lon="5.97823">
        <ele>324.20001220703</ele>
        <time>2023-05-31T12:58:12.000Z</time>
      </trkpt>
      <trkpt lat="45.52557" lon="5.97834">
        <ele>324.39999389648</ele>
        <time>2023-05-31T12:58:14.000Z</time>
      </trkpt>
      <trkpt lat="45.52545" lon="5.9785">
        <ele>324.60000610352</ele>
        <time>2023-05-31T12:58:17.000Z</time>
      </trkpt>
      <trkpt lat="45.52514" lon="5.97881">
        <ele>325.20001220703</ele>
        <time>2023-05-31T12:58:24.000Z</time>
      </trkpt>
      <trkpt lat="45.525" lon="5.97897">
        <ele>325.20001220703</ele>
        <time>2023-05-31T12:58:27.000Z</time>
      </trkpt>
      <trkpt lat="45.5247" lon="5.97929">
        <ele>325.39999389648</ele>
        <time>2023-05-31T12:58:34.000Z</time>
      </trkpt>
      <trkpt lat="45.52429" lon="5.97955">
        <ele>326</ele>
        <time>2023-05-31T12:58:42.000Z</time>
      </trkpt>
      <trkpt lat="45.5242" lon="5.9796">
        <ele>326.20001220703</ele>
        <time>2023-05-31T12:58:44.000Z</time>
      </trkpt>
      <trkpt lat="45.52393" lon="5.97975">
        <ele>325.79998779297</ele>
        <time>2023-05-31T12:58:49.000Z</time>
      </trkpt>
      <trkpt lat="45.52388" lon="5.97981">
        <ele>325.79998779297</ele>
        <time>2023-05-31T12:58:50.000Z</time>
      </trkpt>
      <trkpt lat="45.52364" lon="5.98018">
        <ele>325.60000610352</ele>
        <time>2023-05-31T12:58:56.000Z</time>
      </trkpt>
      <trkpt lat="45.52334" lon="5.98058">
        <ele>325.20001220703</ele>
        <time>2023-05-31T12:59:03.000Z</time>
      </trkpt>
      <trkpt lat="45.52299" lon="5.98099">
        <ele>324.39999389648</ele>
        <time>2023-05-31T12:59:10.000Z</time>
      </trkpt>
      <trkpt lat="45.52294" lon="5.98105">
        <ele>324.39999389648</ele>
        <time>2023-05-31T12:59:11.000Z</time>
      </trkpt>
      <trkpt lat="45.52266" lon="5.98129">
        <ele>323.60000610352</ele>
        <time>2023-05-31T12:59:16.000Z</time>
      </trkpt>
      <trkpt lat="45.52247" lon="5.98137">
        <ele>323.39999389648</ele>
        <time>2023-05-31T12:59:19.000Z</time>
      </trkpt>
      <trkpt lat="45.52235" lon="5.98137">
        <ele>323</ele>
        <time>2023-05-31T12:59:21.000Z</time>
      </trkpt>
      <trkpt lat="45.52223" lon="5.98132">
        <ele>322.79998779297</ele>
        <time>2023-05-31T12:59:23.000Z</time>
      </trkpt>
      <trkpt lat="45.52217" lon="5.98126">
        <ele>322.79998779297</ele>
        <time>2023-05-31T12:59:24.000Z</time>
      </trkpt>
      <trkpt lat="45.52195" lon="5.98087">
        <ele>322.20001220703</ele>
        <time>2023-05-31T12:59:30.000Z</time>
      </trkpt>
      <trkpt lat="45.52191" lon="5.9808">
        <ele>322.20001220703</ele>
        <time>2023-05-31T12:59:31.000Z</time>
      </trkpt>
      <trkpt lat="45.52173" lon="5.98048">
        <ele>322</ele>
        <time>2023-05-31T12:59:36.000Z</time>
      </trkpt>
      <trkpt lat="45.52168" lon="5.98043">
        <ele>322</ele>
        <time>2023-05-31T12:59:37.000Z</time>
      </trkpt>
      <trkpt lat="45.52162" lon="5.98039">
        <ele>322</ele>
        <time>2023-05-31T12:59:38.000Z</time>
      </trkpt>
      <trkpt lat="45.52141" lon="5.98027">
        <ele>322</ele>
        <time>2023-05-31T12:59:42.000Z</time>
      </trkpt>
      <trkpt lat="45.5213" lon="5.98028">
        <ele>322</ele>
        <time>2023-05-31T12:59:44.000Z</time>
      </trkpt>
      <trkpt lat="45.52124" lon="5.98033">
        <ele>322</ele>
        <time>2023-05-31T12:59:45.000Z</time>
      </trkpt>
      <trkpt lat="45.52119" lon="5.9804">
        <ele>322</ele>
        <time>2023-05-31T12:59:46.000Z</time>
      </trkpt>
      <trkpt lat="45.52115" lon="5.98055">
        <ele>322</ele>
        <time>2023-05-31T12:59:48.000Z</time>
      </trkpt>
      <trkpt lat="45.52108" lon="5.98107">
        <ele>321.39999389648</ele>
        <time>2023-05-31T12:59:53.000Z</time>
      </trkpt>
      <trkpt lat="45.52107" lon="5.98116">
        <ele>321.20001220703</ele>
        <time>2023-05-31T12:59:54.000Z</time>
      </trkpt>
      <trkpt lat="45.52104" lon="5.98126">
        <ele>321.20001220703</ele>
        <time>2023-05-31T12:59:55.000Z</time>
      </trkpt>
      <trkpt lat="45.521" lon="5.98137">
        <ele>320.79998779297</ele>
        <time>2023-05-31T12:59:56.000Z</time>
      </trkpt>
      <trkpt lat="45.52088" lon="5.98146">
        <ele>320.39999389648</ele>
        <time>2023-05-31T12:59:58.000Z</time>
      </trkpt>
      <trkpt lat="45.5208" lon="5.98147">
        <ele>320.20001220703</ele>
        <time>2023-05-31T12:59:59.000Z</time>
      </trkpt>
      <trkpt lat="45.52071" lon="5.98145">
        <ele>320</ele>
        <time>2023-05-31T13:00:00.000Z</time>
      </trkpt>
      <trkpt lat="45.52059" lon="5.98135">
        <ele>319.39999389648</ele>
        <time>2023-05-31T13:00:02.000Z</time>
      </trkpt>
      <trkpt lat="45.52054" lon="5.98129">
        <ele>318.79998779297</ele>
        <time>2023-05-31T13:00:03.000Z</time>
      </trkpt>
      <trkpt lat="45.52048" lon="5.98121">
        <ele>318.60000610352</ele>
        <time>2023-05-31T13:00:04.000Z</time>
      </trkpt>
      <trkpt lat="45.52029" lon="5.98092">
        <ele>317.79998779297</ele>
        <time>2023-05-31T13:00:08.000Z</time>
      </trkpt>
      <trkpt lat="45.52024" lon="5.98085">
        <ele>317.60000610352</ele>
        <time>2023-05-31T13:00:09.000Z</time>
      </trkpt>
      <trkpt lat="45.5202" lon="5.9808">
        <ele>317.79998779297</ele>
        <time>2023-05-31T13:00:10.000Z</time>
      </trkpt>
      <trkpt lat="45.52017" lon="5.98065">
        <ele>317.79998779297</ele>
        <time>2023-05-31T13:00:12.000Z</time>
      </trkpt>
      <trkpt lat="45.52018" lon="5.9805">
        <ele>318</ele>
        <time>2023-05-31T13:00:14.000Z</time>
      </trkpt>
      <trkpt lat="45.52025" lon="5.98035">
        <ele>318.20001220703</ele>
        <time>2023-05-31T13:00:16.000Z</time>
      </trkpt>
      <trkpt lat="45.5205" lon="5.98018">
        <ele>319</ele>
        <time>2023-05-31T13:00:21.000Z</time>
      </trkpt>
      <trkpt lat="45.52053" lon="5.98016">
        <ele>319</ele>
        <time>2023-05-31T13:00:22.000Z</time>
      </trkpt>
      <trkpt lat="45.5207" lon="5.98001">
        <ele>319.79998779297</ele>
        <time>2023-05-31T13:00:26.000Z</time>
      </trkpt>
      <trkpt lat="45.52073" lon="5.97997">
        <ele>320</ele>
        <time>2023-05-31T13:00:27.000Z</time>
      </trkpt>
      <trkpt lat="45.52075" lon="5.97991">
        <ele>320.20001220703</ele>
        <time>2023-05-31T13:00:28.000Z</time>
      </trkpt>
      <trkpt lat="45.5208" lon="5.97973">
        <ele>320.60000610352</ele>
        <time>2023-05-31T13:00:31.000Z</time>
      </trkpt>
      <trkpt lat="45.52077" lon="5.97952">
        <ele>321.20001220703</ele>
        <time>2023-05-31T13:00:34.000Z</time>
      </trkpt>
      <trkpt lat="45.52076" lon="5.97947">
        <ele>321.20001220703</ele>
        <time>2023-05-31T13:00:35.000Z</time>
      </trkpt>
      <trkpt lat="45.52074" lon="5.97939">
        <ele>321.39999389648</ele>
        <time>2023-05-31T13:00:38.000Z</time>
      </trkpt>
      <trkpt lat="45.52076" lon="5.97938">
        <ele>321.60000610352</ele>
        <time>2023-05-31T13:00:42.000Z</time>
      </trkpt>
      <trkpt lat="45.52077" lon="5.97941">
        <ele>321.60000610352</ele>
        <time>2023-05-31T13:00:44.000Z</time>
      </trkpt>
      <trkpt lat="45.52081" lon="5.97943">
        <ele>321.60000610352</ele>
        <time>2023-05-31T13:00:46.000Z</time>
      </trkpt>
      <trkpt lat="45.52086" lon="5.97945">
        <ele>321.60000610352</ele>
        <time>2023-05-31T13:00:48.000Z</time>
      </trkpt>
      <trkpt lat="45.52089" lon="5.97948">
        <ele>321.60000610352</ele>
        <time>2023-05-31T13:00:50.000Z</time>
      </trkpt>
      <trkpt lat="45.52091" lon="5.97948">
        <ele>321.79998779297</ele>
        <time>2023-05-31T13:00:51.000Z</time>
      </trkpt>
      <trkpt lat="45.52092" lon="5.97948">
        <ele>321.60000610352</ele>
        <time>2023-05-31T13:00:53.000Z</time>
      </trkpt>
      <trkpt lat="45.52092" lon="5.97946">
        <ele>321.20001220703</ele>
        <time>2023-05-31T13:00:58.000Z</time>
      </trkpt>
      <trkpt lat="45.52092" lon="5.97946">
        <ele>321.20001220703</ele>
        <time>2023-05-31T13:00:59.000Z</time>
      </trkpt>
      <trkpt lat="45.52087" lon="5.97945">
        <ele>320</ele>
        <time>2023-05-31T13:08:11.000Z</time>
      </trkpt>
      <trkpt lat="45.52081" lon="5.97944">
        <ele>320</ele>
        <time>2023-05-31T13:08:13.000Z</time>
      </trkpt>
      <trkpt lat="45.52079" lon="5.97943">
        <ele>320</ele>
        <time>2023-05-31T13:08:14.000Z</time>
      </trkpt>
      <trkpt lat="45.5207" lon="5.97934">
        <ele>320.20001220703</ele>
        <time>2023-05-31T13:08:17.000Z</time>
      </trkpt>
      <trkpt lat="45.52054" lon="5.97913">
        <ele>320.60000610352</ele>
        <time>2023-05-31T13:08:22.000Z</time>
      </trkpt>
      <trkpt lat="45.52047" lon="5.97904">
        <ele>320.79998779297</ele>
        <time>2023-05-31T13:08:24.000Z</time>
      </trkpt>
      <trkpt lat="45.52037" lon="5.9789">
        <ele>321.20001220703</ele>
        <time>2023-05-31T13:08:27.000Z</time>
      </trkpt>
      <trkpt lat="45.52033" lon="5.97885">
        <ele>321.20001220703</ele>
        <time>2023-05-31T13:08:28.000Z</time>
      </trkpt>
      <trkpt lat="45.52" lon="5.97838">
        <ele>322</ele>
        <time>2023-05-31T13:08:37.000Z</time>
      </trkpt>
      <trkpt lat="45.51994" lon="5.97828">
        <ele>322.20001220703</ele>
        <time>2023-05-31T13:08:39.000Z</time>
      </trkpt>
      <trkpt lat="45.51976" lon="5.97801">
        <ele>322.60000610352</ele>
        <time>2023-05-31T13:08:44.000Z</time>
      </trkpt>
      <trkpt lat="45.51962" lon="5.97781">
        <ele>322.79998779297</ele>
        <time>2023-05-31T13:08:48.000Z</time>
      </trkpt>
      <trkpt lat="45.51953" lon="5.97772">
        <ele>323</ele>
        <time>2023-05-31T13:08:50.000Z</time>
      </trkpt>
      <trkpt lat="45.51937" lon="5.97755">
        <ele>323.20001220703</ele>
        <time>2023-05-31T13:08:54.000Z</time>
      </trkpt>
      <trkpt lat="45.51927" lon="5.97751">
        <ele>323.39999389648</ele>
        <time>2023-05-31T13:08:56.000Z</time>
      </trkpt>
      <trkpt lat="45.51918" lon="5.97755">
        <ele>323.60000610352</ele>
        <time>2023-05-31T13:08:58.000Z</time>
      </trkpt>
      <trkpt lat="45.51914" lon="5.97759">
        <ele>323.79998779297</ele>
        <time>2023-05-31T13:08:59.000Z</time>
      </trkpt>
      <trkpt lat="45.5191" lon="5.97763">
        <ele>323.79998779297</ele>
        <time>2023-05-31T13:09:00.000Z</time>
      </trkpt>
      <trkpt lat="45.51899" lon="5.97777">
        <ele>324.39999389648</ele>
        <time>2023-05-31T13:09:03.000Z</time>
      </trkpt>
      <trkpt lat="45.51887" lon="5.97793">
        <ele>324.79998779297</ele>
        <time>2023-05-31T13:09:06.000Z</time>
      </trkpt>
      <trkpt lat="45.51867" lon="5.97825">
        <ele>325.20001220703</ele>
        <time>2023-05-31T13:09:12.000Z</time>
      </trkpt>
      <trkpt lat="45.51865" lon="5.97831">
        <ele>325.20001220703</ele>
        <time>2023-05-31T13:09:13.000Z</time>
      </trkpt>
      <trkpt lat="45.51865" lon="5.97837">
        <ele>325.39999389648</ele>
        <time>2023-05-31T13:09:14.000Z</time>
      </trkpt>
      <trkpt lat="45.51862" lon="5.97846">
        <ele>325.39999389648</ele>
        <time>2023-05-31T13:09:16.000Z</time>
      </trkpt>
      <trkpt lat="45.5186" lon="5.97847">
        <ele>325.60000610352</ele>
        <time>2023-05-31T13:09:17.000Z</time>
      </trkpt>
      <trkpt lat="45.51857" lon="5.97836">
        <ele>325.79998779297</ele>
        <time>2023-05-31T13:09:20.000Z</time>
      </trkpt>
      <trkpt lat="45.51847" lon="5.97835">
        <ele>325.79998779297</ele>
        <time>2023-05-31T13:09:23.000Z</time>
      </trkpt>
      <trkpt lat="45.51845" lon="5.97839">
        <ele>326</ele>
        <time>2023-05-31T13:09:24.000Z</time>
      </trkpt>
      <trkpt lat="45.51843" lon="5.9785">
        <ele>326</ele>
        <time>2023-05-31T13:09:26.000Z</time>
      </trkpt>
      <trkpt lat="45.51837" lon="5.97873">
        <ele>326.79998779297</ele>
        <time>2023-05-31T13:09:31.000Z</time>
      </trkpt>
      <trkpt lat="45.51822" lon="5.97905">
        <ele>328.20001220703</ele>
        <time>2023-05-31T13:09:39.000Z</time>
      </trkpt>
      <trkpt lat="45.51816" lon="5.97917">
        <ele>328.79998779297</ele>
        <time>2023-05-31T13:09:42.000Z</time>
      </trkpt>
      <trkpt lat="45.51812" lon="5.97924">
        <ele>329.39999389648</ele>
        <time>2023-05-31T13:09:44.000Z</time>
      </trkpt>
      <trkpt lat="45.518" lon="5.9794">
        <ele>330.60000610352</ele>
        <time>2023-05-31T13:09:49.000Z</time>
      </trkpt>
      <trkpt lat="45.51796" lon="5.97946">
        <ele>331</ele>
        <time>2023-05-31T13:09:51.000Z</time>
      </trkpt>
      <trkpt lat="45.51788" lon="5.97953">
        <ele>331.60000610352</ele>
        <time>2023-05-31T13:09:54.000Z</time>
      </trkpt>
      <trkpt lat="45.51774" lon="5.97964">
        <ele>332.79998779297</ele>
        <time>2023-05-31T13:09:59.000Z</time>
      </trkpt>
      <trkpt lat="45.5176" lon="5.97974">
        <ele>334</ele>
        <time>2023-05-31T13:10:04.000Z</time>
      </trkpt>
      <trkpt lat="45.51747" lon="5.97982">
        <ele>335</ele>
        <time>2023-05-31T13:10:08.000Z</time>
      </trkpt>
      <trkpt lat="45.51745" lon="5.97984">
        <ele>335.20001220703</ele>
        <time>2023-05-31T13:10:09.000Z</time>
      </trkpt>
      <trkpt lat="45.51733" lon="5.97991">
        <ele>336.20001220703</ele>
        <time>2023-05-31T13:10:13.000Z</time>
      </trkpt>
      <trkpt lat="45.51725" lon="5.97996">
        <ele>336.79998779297</ele>
        <time>2023-05-31T13:10:16.000Z</time>
      </trkpt>
      <trkpt lat="45.51719" lon="5.98">
        <ele>337.20001220703</ele>
        <time>2023-05-31T13:10:19.000Z</time>
      </trkpt>
      <trkpt lat="45.51705" lon="5.98009">
        <ele>338.39999389648</ele>
        <time>2023-05-31T13:10:24.000Z</time>
      </trkpt>
      <trkpt lat="45.51693" lon="5.98017">
        <ele>339.20001220703</ele>
        <time>2023-05-31T13:10:28.000Z</time>
      </trkpt>
      <trkpt lat="45.51691" lon="5.98019">
        <ele>339.39999389648</ele>
        <time>2023-05-31T13:10:29.000Z</time>
      </trkpt>
      <trkpt lat="45.51672" lon="5.98033">
        <ele>340.60000610352</ele>
        <time>2023-05-31T13:10:35.000Z</time>
      </trkpt>
      <trkpt lat="45.51667" lon="5.98037">
        <ele>341</ele>
        <time>2023-05-31T13:10:37.000Z</time>
      </trkpt>
      <trkpt lat="45.51659" lon="5.98045">
        <ele>342</ele>
        <time>2023-05-31T13:10:40.000Z</time>
      </trkpt>
      <trkpt lat="45.51643" lon="5.98063">
        <ele>343</ele>
        <time>2023-05-31T13:10:46.000Z</time>
      </trkpt>
      <trkpt lat="45.51639" lon="5.98069">
        <ele>343.39999389648</ele>
        <time>2023-05-31T13:10:48.000Z</time>
      </trkpt>
      <trkpt lat="45.51631" lon="5.98085">
        <ele>344</ele>
        <time>2023-05-31T13:10:52.000Z</time>
      </trkpt>
      <trkpt lat="45.51628" lon="5.98095">
        <ele>344.79998779297</ele>
        <time>2023-05-31T13:10:54.000Z</time>
      </trkpt>
      <trkpt lat="45.51627" lon="5.98104">
        <ele>345.20001220703</ele>
        <time>2023-05-31T13:10:56.000Z</time>
      </trkpt>
      <trkpt lat="45.51627" lon="5.98124">
        <ele>346.20001220703</ele>
        <time>2023-05-31T13:11:00.000Z</time>
      </trkpt>
      <trkpt lat="45.51628" lon="5.98129">
        <ele>346.20001220703</ele>
        <time>2023-05-31T13:11:01.000Z</time>
      </trkpt>
      <trkpt lat="45.51633" lon="5.98155">
        <ele>347</ele>
        <time>2023-05-31T13:11:06.000Z</time>
      </trkpt>
      <trkpt lat="45.51634" lon="5.98159">
        <ele>347.60000610352</ele>
        <time>2023-05-31T13:11:07.000Z</time>
      </trkpt>
      <trkpt lat="45.51634" lon="5.98164">
        <ele>347.60000610352</ele>
        <time>2023-05-31T13:11:08.000Z</time>
      </trkpt>
      <trkpt lat="45.51635" lon="5.9819">
        <ele>348.60000610352</ele>
        <time>2023-05-31T13:11:13.000Z</time>
      </trkpt>
      <trkpt lat="45.51632" lon="5.982">
        <ele>348.79998779297</ele>
        <time>2023-05-31T13:11:15.000Z</time>
      </trkpt>
      <trkpt lat="45.51624" lon="5.9821">
        <ele>349.60000610352</ele>
        <time>2023-05-31T13:11:18.000Z</time>
      </trkpt>
      <trkpt lat="45.51618" lon="5.98215">
        <ele>350</ele>
        <time>2023-05-31T13:11:20.000Z</time>
      </trkpt>
      <trkpt lat="45.51601" lon="5.98228">
        <ele>350.60000610352</ele>
        <time>2023-05-31T13:11:25.000Z</time>
      </trkpt>
      <trkpt lat="45.51589" lon="5.98243">
        <ele>351.20001220703</ele>
        <time>2023-05-31T13:11:29.000Z</time>
      </trkpt>
      <trkpt lat="45.51587" lon="5.98247">
        <ele>351.39999389648</ele>
        <time>2023-05-31T13:11:30.000Z</time>
      </trkpt>
      <trkpt lat="45.51581" lon="5.98259">
        <ele>351.79998779297</ele>
        <time>2023-05-31T13:11:32.000Z</time>
      </trkpt>
      <trkpt lat="45.51576" lon="5.98269">
        <ele>352</ele>
        <time>2023-05-31T13:11:34.000Z</time>
      </trkpt>
      <trkpt lat="45.51574" lon="5.98275">
        <ele>352.20001220703</ele>
        <time>2023-05-31T13:11:35.000Z</time>
      </trkpt>
      <trkpt lat="45.51568" lon="5.98294">
        <ele>352.39999389648</ele>
        <time>2023-05-31T13:11:38.000Z</time>
      </trkpt>
      <trkpt lat="45.51565" lon="5.983">
        <ele>352.39999389648</ele>
        <time>2023-05-31T13:11:39.000Z</time>
      </trkpt>
      <trkpt lat="45.51561" lon="5.98304">
        <ele>352.60000610352</ele>
        <time>2023-05-31T13:11:40.000Z</time>
      </trkpt>
      <trkpt lat="45.51554" lon="5.98315">
        <ele>352.60000610352</ele>
        <time>2023-05-31T13:11:42.000Z</time>
      </trkpt>
      <trkpt lat="45.51552" lon="5.98323">
        <ele>352.79998779297</ele>
        <time>2023-05-31T13:11:43.000Z</time>
      </trkpt>
      <trkpt lat="45.51541" lon="5.98349">
        <ele>353</ele>
        <time>2023-05-31T13:11:47.000Z</time>
      </trkpt>
      <trkpt lat="45.5152" lon="5.98382">
        <ele>353.60000610352</ele>
        <time>2023-05-31T13:11:53.000Z</time>
      </trkpt>
      <trkpt lat="45.51517" lon="5.98387">
        <ele>353.60000610352</ele>
        <time>2023-05-31T13:11:54.000Z</time>
      </trkpt>
      <trkpt lat="45.51514" lon="5.98392">
        <ele>353.79998779297</ele>
        <time>2023-05-31T13:11:55.000Z</time>
      </trkpt>
      <trkpt lat="45.51511" lon="5.98398">
        <ele>354</ele>
        <time>2023-05-31T13:11:56.000Z</time>
      </trkpt>
      <trkpt lat="45.51502" lon="5.98414">
        <ele>354.39999389648</ele>
        <time>2023-05-31T13:11:59.000Z</time>
      </trkpt>
      <trkpt lat="45.51496" lon="5.98426">
        <ele>355</ele>
        <time>2023-05-31T13:12:01.000Z</time>
      </trkpt>
      <trkpt lat="45.51486" lon="5.98451">
        <ele>355.60000610352</ele>
        <time>2023-05-31T13:12:05.000Z</time>
      </trkpt>
      <trkpt lat="45.51478" lon="5.9847">
        <ele>356.20001220703</ele>
        <time>2023-05-31T13:12:08.000Z</time>
      </trkpt>
      <trkpt lat="45.51468" lon="5.9849">
        <ele>357</ele>
        <time>2023-05-31T13:12:11.000Z</time>
      </trkpt>
      <trkpt lat="45.51458" lon="5.98514">
        <ele>357.39999389648</ele>
        <time>2023-05-31T13:12:15.000Z</time>
      </trkpt>
      <trkpt lat="45.5145" lon="5.98535">
        <ele>358.20001220703</ele>
        <time>2023-05-31T13:12:18.000Z</time>
      </trkpt>
      <trkpt lat="45.51447" lon="5.98542">
        <ele>358.20001220703</ele>
        <time>2023-05-31T13:12:19.000Z</time>
      </trkpt>
      <trkpt lat="45.51443" lon="5.98549">
        <ele>358.20001220703</ele>
        <time>2023-05-31T13:12:20.000Z</time>
      </trkpt>
      <trkpt lat="45.51435" lon="5.9856">
        <ele>358.39999389648</ele>
        <time>2023-05-31T13:12:22.000Z</time>
      </trkpt>
      <trkpt lat="45.51432" lon="5.98564">
        <ele>358.60000610352</ele>
        <time>2023-05-31T13:12:23.000Z</time>
      </trkpt>
      <trkpt lat="45.51401" lon="5.98619">
        <ele>358.60000610352</ele>
        <time>2023-05-31T13:12:31.000Z</time>
      </trkpt>
      <trkpt lat="45.51379" lon="5.98653">
        <ele>357.39999389648</ele>
        <time>2023-05-31T13:12:36.000Z</time>
      </trkpt>
      <trkpt lat="45.51369" lon="5.98667">
        <ele>357</ele>
        <time>2023-05-31T13:12:38.000Z</time>
      </trkpt>
      <trkpt lat="45.51352" lon="5.98687">
        <ele>356.39999389648</ele>
        <time>2023-05-31T13:12:41.000Z</time>
      </trkpt>
      <trkpt lat="45.5134" lon="5.987">
        <ele>355.79998779297</ele>
        <time>2023-05-31T13:12:43.000Z</time>
      </trkpt>
      <trkpt lat="45.51335" lon="5.98706">
        <ele>355.60000610352</ele>
        <time>2023-05-31T13:12:44.000Z</time>
      </trkpt>
      <trkpt lat="45.51316" lon="5.98725">
        <ele>354.79998779297</ele>
        <time>2023-05-31T13:12:47.000Z</time>
      </trkpt>
      <trkpt lat="45.51298" lon="5.98738">
        <ele>353.60000610352</ele>
        <time>2023-05-31T13:12:50.000Z</time>
      </trkpt>
      <trkpt lat="45.51275" lon="5.9875">
        <ele>352.39999389648</ele>
        <time>2023-05-31T13:12:53.000Z</time>
      </trkpt>
      <trkpt lat="45.5124" lon="5.98764">
        <ele>351.20001220703</ele>
        <time>2023-05-31T13:12:57.000Z</time>
      </trkpt>
      <trkpt lat="45.51224" lon="5.98772">
        <ele>350.20001220703</ele>
        <time>2023-05-31T13:12:59.000Z</time>
      </trkpt>
      <trkpt lat="45.51206" lon="5.98781">
        <ele>349</ele>
        <time>2023-05-31T13:13:01.000Z</time>
      </trkpt>
      <trkpt lat="45.51183" lon="5.98793">
        <ele>347.60000610352</ele>
        <time>2023-05-31T13:13:04.000Z</time>
      </trkpt>
      <trkpt lat="45.51174" lon="5.98795">
        <ele>347</ele>
        <time>2023-05-31T13:13:05.000Z</time>
      </trkpt>
      <trkpt lat="45.51165" lon="5.98798">
        <ele>346.20001220703</ele>
        <time>2023-05-31T13:13:06.000Z</time>
      </trkpt>
      <trkpt lat="45.51157" lon="5.98802">
        <ele>345.20001220703</ele>
        <time>2023-05-31T13:13:08.000Z</time>
      </trkpt>
      <trkpt lat="45.51142" lon="5.98816">
        <ele>345</ele>
        <time>2023-05-31T13:13:09.000Z</time>
      </trkpt>
      <trkpt lat="45.51126" lon="5.98829">
        <ele>343.79998779297</ele>
        <time>2023-05-31T13:13:11.000Z</time>
      </trkpt>
      <trkpt lat="45.51108" lon="5.98841">
        <ele>342.60000610352</ele>
        <time>2023-05-31T13:13:13.000Z</time>
      </trkpt>
      <trkpt lat="45.5109" lon="5.98855">
        <ele>341.39999389648</ele>
        <time>2023-05-31T13:13:15.000Z</time>
      </trkpt>
      <trkpt lat="45.51081" lon="5.98863">
        <ele>341</ele>
        <time>2023-05-31T13:13:16.000Z</time>
      </trkpt>
      <trkpt lat="45.51073" lon="5.98871">
        <ele>340</ele>
        <time>2023-05-31T13:13:17.000Z</time>
      </trkpt>
      <trkpt lat="45.51046" lon="5.98898">
        <ele>338.20001220703</ele>
        <time>2023-05-31T13:13:20.000Z</time>
      </trkpt>
      <trkpt lat="45.5103" lon="5.98917">
        <ele>336.79998779297</ele>
        <time>2023-05-31T13:13:22.000Z</time>
      </trkpt>
      <trkpt lat="45.51014" lon="5.98936">
        <ele>335.39999389648</ele>
        <time>2023-05-31T13:13:24.000Z</time>
      </trkpt>
      <trkpt lat="45.51007" lon="5.98945">
        <ele>335.20001220703</ele>
        <time>2023-05-31T13:13:25.000Z</time>
      </trkpt>
      <trkpt lat="45.50999" lon="5.98954">
        <ele>334.39999389648</ele>
        <time>2023-05-31T13:13:26.000Z</time>
      </trkpt>
      <trkpt lat="45.50986" lon="5.98971">
        <ele>333.79998779297</ele>
        <time>2023-05-31T13:13:28.000Z</time>
      </trkpt>
      <trkpt lat="45.50967" lon="5.98992">
        <ele>333.20001220703</ele>
        <time>2023-05-31T13:13:31.000Z</time>
      </trkpt>
      <trkpt lat="45.50955" lon="5.99005">
        <ele>333.20001220703</ele>
        <time>2023-05-31T13:13:33.000Z</time>
      </trkpt>
      <trkpt lat="45.5092" lon="5.99036">
        <ele>333.60000610352</ele>
        <time>2023-05-31T13:13:39.000Z</time>
      </trkpt>
      <trkpt lat="45.50894" lon="5.99058">
        <ele>334.20001220703</ele>
        <time>2023-05-31T13:13:44.000Z</time>
      </trkpt>
      <trkpt lat="45.50889" lon="5.99061">
        <ele>334.39999389648</ele>
        <time>2023-05-31T13:13:45.000Z</time>
      </trkpt>
      <trkpt lat="45.50865" lon="5.99078">
        <ele>335.60000610352</ele>
        <time>2023-05-31T13:13:50.000Z</time>
      </trkpt>
      <trkpt lat="45.5086" lon="5.99081">
        <ele>335.60000610352</ele>
        <time>2023-05-31T13:13:51.000Z</time>
      </trkpt>
      <trkpt lat="45.50811" lon="5.99111">
        <ele>336.60000610352</ele>
        <time>2023-05-31T13:14:01.000Z</time>
      </trkpt>
      <trkpt lat="45.50783" lon="5.9913">
        <ele>337.39999389648</ele>
        <time>2023-05-31T13:14:07.000Z</time>
      </trkpt>
      <trkpt lat="45.50773" lon="5.99137">
        <ele>337.60000610352</ele>
        <time>2023-05-31T13:14:09.000Z</time>
      </trkpt>
      <trkpt lat="45.50763" lon="5.99143">
        <ele>338</ele>
        <time>2023-05-31T13:14:11.000Z</time>
      </trkpt>
      <trkpt lat="45.50717" lon="5.99174">
        <ele>338.20001220703</ele>
        <time>2023-05-31T13:14:20.000Z</time>
      </trkpt>
      <trkpt lat="45.50685" lon="5.99203">
        <ele>337.79998779297</ele>
        <time>2023-05-31T13:14:27.000Z</time>
      </trkpt>
      <trkpt lat="45.50682" lon="5.99208">
        <ele>337.60000610352</ele>
        <time>2023-05-31T13:14:28.000Z</time>
      </trkpt>
      <trkpt lat="45.50667" lon="5.99229">
        <ele>337.20001220703</ele>
        <time>2023-05-31T13:14:32.000Z</time>
      </trkpt>
      <trkpt lat="45.50646" lon="5.99262">
        <ele>337</ele>
        <time>2023-05-31T13:14:37.000Z</time>
      </trkpt>
      <trkpt lat="45.50617" lon="5.99318">
        <ele>336.79998779297</ele>
        <time>2023-05-31T13:14:45.000Z</time>
      </trkpt>
      <trkpt lat="45.50586" lon="5.99372">
        <ele>336.60000610352</ele>
        <time>2023-05-31T13:14:53.000Z</time>
      </trkpt>
      <trkpt lat="45.50582" lon="5.99377">
        <ele>336.79998779297</ele>
        <time>2023-05-31T13:14:54.000Z</time>
      </trkpt>
      <trkpt lat="45.50561" lon="5.99396">
        <ele>337</ele>
        <time>2023-05-31T13:14:58.000Z</time>
      </trkpt>
      <trkpt lat="45.50531" lon="5.99419">
        <ele>337</ele>
        <time>2023-05-31T13:15:03.000Z</time>
      </trkpt>
      <trkpt lat="45.50521" lon="5.99428">
        <ele>336.79998779297</ele>
        <time>2023-05-31T13:15:05.000Z</time>
      </trkpt>
      <trkpt lat="45.50503" lon="5.99441">
        <ele>336.79998779297</ele>
        <time>2023-05-31T13:15:08.000Z</time>
      </trkpt>
      <trkpt lat="45.50462" lon="5.99478">
        <ele>336.60000610352</ele>
        <time>2023-05-31T13:15:16.000Z</time>
      </trkpt>
      <trkpt lat="45.50429" lon="5.99512">
        <ele>337.20001220703</ele>
        <time>2023-05-31T13:15:23.000Z</time>
      </trkpt>
      <trkpt lat="45.50418" lon="5.99524">
        <ele>338</ele>
        <time>2023-05-31T13:15:26.000Z</time>
      </trkpt>
      <trkpt lat="45.5041" lon="5.99532">
        <ele>338.20001220703</ele>
        <time>2023-05-31T13:15:28.000Z</time>
      </trkpt>
      <trkpt lat="45.504" lon="5.99542">
        <ele>339.20001220703</ele>
        <time>2023-05-31T13:15:31.000Z</time>
      </trkpt>
      <trkpt lat="45.50389" lon="5.99554">
        <ele>340</ele>
        <time>2023-05-31T13:15:34.000Z</time>
      </trkpt>
      <trkpt lat="45.50386" lon="5.99557">
        <ele>340.20001220703</ele>
        <time>2023-05-31T13:15:35.000Z</time>
      </trkpt>
      <trkpt lat="45.50367" lon="5.99574">
        <ele>341.60000610352</ele>
        <time>2023-05-31T13:15:40.000Z</time>
      </trkpt>
      <trkpt lat="45.50354" lon="5.99584">
        <ele>342.20001220703</ele>
        <time>2023-05-31T13:15:43.000Z</time>
      </trkpt>
      <trkpt lat="45.50347" lon="5.99589">
        <ele>342.60000610352</ele>
        <time>2023-05-31T13:15:45.000Z</time>
      </trkpt>
      <trkpt lat="45.50342" lon="5.99592">
        <ele>342.79998779297</ele>
        <time>2023-05-31T13:15:46.000Z</time>
      </trkpt>
      <trkpt lat="45.50322" lon="5.99608">
        <ele>343.39999389648</ele>
        <time>2023-05-31T13:15:51.000Z</time>
      </trkpt>
      <trkpt lat="45.50313" lon="5.99615">
        <ele>343.60000610352</ele>
        <time>2023-05-31T13:15:53.000Z</time>
      </trkpt>
      <trkpt lat="45.50288" lon="5.99636">
        <ele>343.79998779297</ele>
        <time>2023-05-31T13:15:59.000Z</time>
      </trkpt>
      <trkpt lat="45.50245" lon="5.99668">
        <ele>343.79998779297</ele>
        <time>2023-05-31T13:16:08.000Z</time>
      </trkpt>
      <trkpt lat="45.50212" lon="5.99701">
        <ele>343.79998779297</ele>
        <time>2023-05-31T13:16:15.000Z</time>
      </trkpt>
      <trkpt lat="45.50193" lon="5.99721">
        <ele>343.79998779297</ele>
        <time>2023-05-31T13:16:19.000Z</time>
      </trkpt>
      <trkpt lat="45.50182" lon="5.9973">
        <ele>343.39999389648</ele>
        <time>2023-05-31T13:16:21.000Z</time>
      </trkpt>
      <trkpt lat="45.50166" lon="5.99746">
        <ele>343.20001220703</ele>
        <time>2023-05-31T13:16:24.000Z</time>
      </trkpt>
      <trkpt lat="45.5016" lon="5.99751">
        <ele>343</ele>
        <time>2023-05-31T13:16:25.000Z</time>
      </trkpt>
      <trkpt lat="45.50149" lon="5.99759">
        <ele>342.79998779297</ele>
        <time>2023-05-31T13:16:27.000Z</time>
      </trkpt>
      <trkpt lat="45.50143" lon="5.99764">
        <ele>342.79998779297</ele>
        <time>2023-05-31T13:16:28.000Z</time>
      </trkpt>
      <trkpt lat="45.50138" lon="5.99769">
        <ele>342.39999389648</ele>
        <time>2023-05-31T13:16:29.000Z</time>
      </trkpt>
      <trkpt lat="45.50132" lon="5.99773">
        <ele>342.39999389648</ele>
        <time>2023-05-31T13:16:30.000Z</time>
      </trkpt>
      <trkpt lat="45.50093" lon="5.99804">
        <ele>341.79998779297</ele>
        <time>2023-05-31T13:16:37.000Z</time>
      </trkpt>
      <trkpt lat="45.50089" lon="5.9981">
        <ele>341.60000610352</ele>
        <time>2023-05-31T13:16:38.000Z</time>
      </trkpt>
      <trkpt lat="45.50061" lon="5.99852">
        <ele>340.79998779297</ele>
        <time>2023-05-31T13:16:44.000Z</time>
      </trkpt>
      <trkpt lat="45.50053" lon="5.99865">
        <ele>340.39999389648</ele>
        <time>2023-05-31T13:16:46.000Z</time>
      </trkpt>
      <trkpt lat="45.50041" lon="5.9988">
        <ele>339.79998779297</ele>
        <time>2023-05-31T13:16:48.000Z</time>
      </trkpt>
      <trkpt lat="45.50031" lon="5.9989">
        <ele>339.39999389648</ele>
        <time>2023-05-31T13:16:50.000Z</time>
      </trkpt>
      <trkpt lat="45.50023" lon="5.99897">
        <ele>339.20001220703</ele>
        <time>2023-05-31T13:16:51.000Z</time>
      </trkpt>
      <trkpt lat="45.49998" lon="5.9992">
        <ele>338.20001220703</ele>
        <time>2023-05-31T13:16:55.000Z</time>
      </trkpt>
      <trkpt lat="45.4999" lon="5.99928">
        <ele>338</ele>
        <time>2023-05-31T13:16:56.000Z</time>
      </trkpt>
      <trkpt lat="45.49969" lon="5.99946">
        <ele>336.79998779297</ele>
        <time>2023-05-31T13:16:59.000Z</time>
      </trkpt>
      <trkpt lat="45.49955" lon="5.99958">
        <ele>336.20001220703</ele>
        <time>2023-05-31T13:17:01.000Z</time>
      </trkpt>
      <trkpt lat="45.49949" lon="5.99964">
        <ele>335.79998779297</ele>
        <time>2023-05-31T13:17:02.000Z</time>
      </trkpt>
      <trkpt lat="45.49925" lon="5.99989">
        <ele>334.60000610352</ele>
        <time>2023-05-31T13:17:06.000Z</time>
      </trkpt>
      <trkpt lat="45.49908" lon="6.00006">
        <ele>333.39999389648</ele>
        <time>2023-05-31T13:17:09.000Z</time>
      </trkpt>
      <trkpt lat="45.49886" lon="6.00029">
        <ele>333</ele>
        <time>2023-05-31T13:17:13.000Z</time>
      </trkpt>
      <trkpt lat="45.49881" lon="6.00034">
        <ele>332.79998779297</ele>
        <time>2023-05-31T13:17:14.000Z</time>
      </trkpt>
      <trkpt lat="45.49869" lon="6.00043">
        <ele>332.39999389648</ele>
        <time>2023-05-31T13:17:16.000Z</time>
      </trkpt>
      <trkpt lat="45.49864" lon="6.00057">
        <ele>332.20001220703</ele>
        <time>2023-05-31T13:17:18.000Z</time>
      </trkpt>
      <trkpt lat="45.49866" lon="6.00062">
        <ele>332.20001220703</ele>
        <time>2023-05-31T13:17:19.000Z</time>
      </trkpt>
      <trkpt lat="45.49884" lon="6.00091">
        <ele>331.79998779297</ele>
        <time>2023-05-31T13:17:23.000Z</time>
      </trkpt>
      <trkpt lat="45.49891" lon="6.00099">
        <ele>331.60000610352</ele>
        <time>2023-05-31T13:17:24.000Z</time>
      </trkpt>
      <trkpt lat="45.49898" lon="6.00102">
        <ele>331.60000610352</ele>
        <time>2023-05-31T13:17:25.000Z</time>
      </trkpt>
      <trkpt lat="45.49913" lon="6.00102">
        <ele>331</ele>
        <time>2023-05-31T13:17:27.000Z</time>
      </trkpt>
      <trkpt lat="45.49935" lon="6.00089">
        <ele>329.79998779297</ele>
        <time>2023-05-31T13:17:30.000Z</time>
      </trkpt>
      <trkpt lat="45.49943" lon="6.00084">
        <ele>329.60000610352</ele>
        <time>2023-05-31T13:17:31.000Z</time>
      </trkpt>
      <trkpt lat="45.49957" lon="6.00077">
        <ele>328.79998779297</ele>
        <time>2023-05-31T13:17:33.000Z</time>
      </trkpt>
      <trkpt lat="45.49976" lon="6.0007">
        <ele>327.60000610352</ele>
        <time>2023-05-31T13:17:35.000Z</time>
      </trkpt>
      <trkpt lat="45.49984" lon="6.00068">
        <ele>327.20001220703</ele>
        <time>2023-05-31T13:17:36.000Z</time>
      </trkpt>
      <trkpt lat="45.4999" lon="6.00068">
        <ele>326.60000610352</ele>
        <time>2023-05-31T13:17:37.000Z</time>
      </trkpt>
      <trkpt lat="45.5" lon="6.00071">
        <ele>326.39999389648</ele>
        <time>2023-05-31T13:17:38.000Z</time>
      </trkpt>
      <trkpt lat="45.50007" lon="6.00077">
        <ele>325.79998779297</ele>
        <time>2023-05-31T13:17:39.000Z</time>
      </trkpt>
      <trkpt lat="45.50014" lon="6.00083">
        <ele>325.39999389648</ele>
        <time>2023-05-31T13:17:40.000Z</time>
      </trkpt>
      <trkpt lat="45.5002" lon="6.00091">
        <ele>324.79998779297</ele>
        <time>2023-05-31T13:17:41.000Z</time>
      </trkpt>
      <trkpt lat="45.50031" lon="6.00108">
        <ele>324.20001220703</ele>
        <time>2023-05-31T13:17:43.000Z</time>
      </trkpt>
      <trkpt lat="45.50044" lon="6.00135">
        <ele>323</ele>
        <time>2023-05-31T13:17:46.000Z</time>
      </trkpt>
      <trkpt lat="45.5005" lon="6.00153">
        <ele>322.39999389648</ele>
        <time>2023-05-31T13:17:48.000Z</time>
      </trkpt>
      <trkpt lat="45.5005" lon="6.00173">
        <ele>322.20001220703</ele>
        <time>2023-05-31T13:17:50.000Z</time>
      </trkpt>
      <trkpt lat="45.50047" lon="6.00181">
        <ele>322.20001220703</ele>
        <time>2023-05-31T13:17:51.000Z</time>
      </trkpt>
      <trkpt lat="45.5004" lon="6.00204">
        <ele>322</ele>
        <time>2023-05-31T13:17:53.000Z</time>
      </trkpt>
      <trkpt lat="45.50029" lon="6.00242">
        <ele>321</ele>
        <time>2023-05-31T13:17:57.000Z</time>
      </trkpt>
      <trkpt lat="45.50026" lon="6.00252">
        <ele>320.79998779297</ele>
        <time>2023-05-31T13:17:58.000Z</time>
      </trkpt>
      <trkpt lat="45.50023" lon="6.00265">
        <ele>320.60000610352</ele>
        <time>2023-05-31T13:17:59.000Z</time>
      </trkpt>
      <trkpt lat="45.50021" lon="6.00286">
        <ele>320</ele>
        <time>2023-05-31T13:18:01.000Z</time>
      </trkpt>
      <trkpt lat="45.50027" lon="6.00308">
        <ele>319.60000610352</ele>
        <time>2023-05-31T13:18:03.000Z</time>
      </trkpt>
      <trkpt lat="45.50031" lon="6.00318">
        <ele>319.20001220703</ele>
        <time>2023-05-31T13:18:04.000Z</time>
      </trkpt>
      <trkpt lat="45.5004" lon="6.00341">
        <ele>318.60000610352</ele>
        <time>2023-05-31T13:18:06.000Z</time>
      </trkpt>
      <trkpt lat="45.50056" lon="6.00378">
        <ele>316.79998779297</ele>
        <time>2023-05-31T13:18:09.000Z</time>
      </trkpt>
      <trkpt lat="45.50072" lon="6.00416">
        <ele>315.60000610352</ele>
        <time>2023-05-31T13:18:12.000Z</time>
      </trkpt>
      <trkpt lat="45.50081" lon="6.00443">
        <ele>314</ele>
        <time>2023-05-31T13:18:14.000Z</time>
      </trkpt>
      <trkpt lat="45.50084" lon="6.00457">
        <ele>313.60000610352</ele>
        <time>2023-05-31T13:18:15.000Z</time>
      </trkpt>
      <trkpt lat="45.50086" lon="6.0047">
        <ele>313</ele>
        <time>2023-05-31T13:18:16.000Z</time>
      </trkpt>
      <trkpt lat="45.50088" lon="6.00508">
        <ele>312.20001220703</ele>
        <time>2023-05-31T13:18:19.000Z</time>
      </trkpt>
      <trkpt lat="45.50088" lon="6.00517">
        <ele>312</ele>
        <time>2023-05-31T13:18:20.000Z</time>
      </trkpt>
      <trkpt lat="45.50086" lon="6.00572">
        <ele>311.79998779297</ele>
        <time>2023-05-31T13:18:25.000Z</time>
      </trkpt>
      <trkpt lat="45.50082" lon="6.00628">
        <ele>313</ele>
        <time>2023-05-31T13:18:31.000Z</time>
      </trkpt>
      <trkpt lat="45.50081" lon="6.00636">
        <ele>313.20001220703</ele>
        <time>2023-05-31T13:18:32.000Z</time>
      </trkpt>
      <trkpt lat="45.50081" lon="6.00652">
        <ele>314.20001220703</ele>
        <time>2023-05-31T13:18:34.000Z</time>
      </trkpt>
      <trkpt lat="45.50081" lon="6.0067">
        <ele>315.20001220703</ele>
        <time>2023-05-31T13:18:36.000Z</time>
      </trkpt>
      <trkpt lat="45.50082" lon="6.00679">
        <ele>315.39999389648</ele>
        <time>2023-05-31T13:18:37.000Z</time>
      </trkpt>
      <trkpt lat="45.50091" lon="6.00717">
        <ele>316.79998779297</ele>
        <time>2023-05-31T13:18:42.000Z</time>
      </trkpt>
      <trkpt lat="45.50093" lon="6.00726">
        <ele>317</ele>
        <time>2023-05-31T13:18:43.000Z</time>
      </trkpt>
      <trkpt lat="45.50098" lon="6.00749">
        <ele>318</ele>
        <time>2023-05-31T13:18:46.000Z</time>
      </trkpt>
      <trkpt lat="45.50105" lon="6.00793">
        <ele>318.60000610352</ele>
        <time>2023-05-31T13:18:51.000Z</time>
      </trkpt>
      <trkpt lat="45.5011" lon="6.00854">
        <ele>318</ele>
        <time>2023-05-31T13:18:57.000Z</time>
      </trkpt>
      <trkpt lat="45.50109" lon="6.00877">
        <ele>317.60000610352</ele>
        <time>2023-05-31T13:18:59.000Z</time>
      </trkpt>
      <trkpt lat="45.50105" lon="6.00911">
        <ele>317</ele>
        <time>2023-05-31T13:19:02.000Z</time>
      </trkpt>
      <trkpt lat="45.50102" lon="6.00924">
        <ele>316.79998779297</ele>
        <time>2023-05-31T13:19:03.000Z</time>
      </trkpt>
      <trkpt lat="45.50099" lon="6.00942">
        <ele>315.79998779297</ele>
        <time>2023-05-31T13:19:05.000Z</time>
      </trkpt>
      <trkpt lat="45.50086" lon="6.01012">
        <ele>315.20001220703</ele>
        <time>2023-05-31T13:19:12.000Z</time>
      </trkpt>
      <trkpt lat="45.50085" lon="6.01021">
        <ele>315.20001220703</ele>
        <time>2023-05-31T13:19:13.000Z</time>
      </trkpt>
      <trkpt lat="45.50078" lon="6.01092">
        <ele>314.79998779297</ele>
        <time>2023-05-31T13:19:20.000Z</time>
      </trkpt>
      <trkpt lat="45.50078" lon="6.011">
        <ele>314.60000610352</ele>
        <time>2023-05-31T13:19:21.000Z</time>
      </trkpt>
      <trkpt lat="45.50077" lon="6.01147">
        <ele>314.79998779297</ele>
        <time>2023-05-31T13:19:26.000Z</time>
      </trkpt>
      <trkpt lat="45.50069" lon="6.01191">
        <ele>315.20001220703</ele>
        <time>2023-05-31T13:19:31.000Z</time>
      </trkpt>
      <trkpt lat="45.50054" lon="6.01241">
        <ele>315.79998779297</ele>
        <time>2023-05-31T13:19:37.000Z</time>
      </trkpt>
      <trkpt lat="45.50045" lon="6.01272">
        <ele>316.20001220703</ele>
        <time>2023-05-31T13:19:41.000Z</time>
      </trkpt>
      <trkpt lat="45.5003" lon="6.01317">
        <ele>317</ele>
        <time>2023-05-31T13:19:47.000Z</time>
      </trkpt>
      <trkpt lat="45.50024" lon="6.01338">
        <ele>317.39999389648</ele>
        <time>2023-05-31T13:19:50.000Z</time>
      </trkpt>
      <trkpt lat="45.50017" lon="6.01367">
        <ele>318</ele>
        <time>2023-05-31T13:19:54.000Z</time>
      </trkpt>
      <trkpt lat="45.50011" lon="6.01388">
        <ele>318.20001220703</ele>
        <time>2023-05-31T13:19:57.000Z</time>
      </trkpt>
      <trkpt lat="45.5" lon="6.01446">
        <ele>319.20001220703</ele>
        <time>2023-05-31T13:20:05.000Z</time>
      </trkpt>
      <trkpt lat="45.49994" lon="6.01471">
        <ele>319.39999389648</ele>
        <time>2023-05-31T13:20:08.000Z</time>
      </trkpt>
      <trkpt lat="45.49978" lon="6.01521">
        <ele>319.39999389648</ele>
        <time>2023-05-31T13:20:15.000Z</time>
      </trkpt>
      <trkpt lat="45.4995" lon="6.01584">
        <ele>318.60000610352</ele>
        <time>2023-05-31T13:20:23.000Z</time>
      </trkpt>
      <trkpt lat="45.49937" lon="6.01612">
        <ele>318</ele>
        <time>2023-05-31T13:20:26.000Z</time>
      </trkpt>
      <trkpt lat="45.49927" lon="6.0164">
        <ele>317.60000610352</ele>
        <time>2023-05-31T13:20:29.000Z</time>
      </trkpt>
      <trkpt lat="45.49917" lon="6.01678">
        <ele>316.79998779297</ele>
        <time>2023-05-31T13:20:32.000Z</time>
      </trkpt>
      <trkpt lat="45.49913" lon="6.01706">
        <ele>315.79998779297</ele>
        <time>2023-05-31T13:20:34.000Z</time>
      </trkpt>
      <trkpt lat="45.49912" lon="6.0172">
        <ele>315</ele>
        <time>2023-05-31T13:20:35.000Z</time>
      </trkpt>
      <trkpt lat="45.49911" lon="6.0175">
        <ele>314</ele>
        <time>2023-05-31T13:20:37.000Z</time>
      </trkpt>
      <trkpt lat="45.49912" lon="6.01766">
        <ele>313.39999389648</ele>
        <time>2023-05-31T13:20:38.000Z</time>
      </trkpt>
      <trkpt lat="45.49915" lon="6.01798">
        <ele>312.20001220703</ele>
        <time>2023-05-31T13:20:40.000Z</time>
      </trkpt>
      <trkpt lat="45.49921" lon="6.0183">
        <ele>311</ele>
        <time>2023-05-31T13:20:42.000Z</time>
      </trkpt>
      <trkpt lat="45.49929" lon="6.01861">
        <ele>309.79998779297</ele>
        <time>2023-05-31T13:20:44.000Z</time>
      </trkpt>
      <trkpt lat="45.49934" lon="6.01877">
        <ele>308.79998779297</ele>
        <time>2023-05-31T13:20:45.000Z</time>
      </trkpt>
      <trkpt lat="45.49944" lon="6.01907">
        <ele>307.20001220703</ele>
        <time>2023-05-31T13:20:47.000Z</time>
      </trkpt>
      <trkpt lat="45.49952" lon="6.01934">
        <ele>306</ele>
        <time>2023-05-31T13:20:49.000Z</time>
      </trkpt>
      <trkpt lat="45.49962" lon="6.01966">
        <ele>305</ele>
        <time>2023-05-31T13:20:51.000Z</time>
      </trkpt>
      <trkpt lat="45.49974" lon="6.02005">
        <ele>303.20001220703</ele>
        <time>2023-05-31T13:20:54.000Z</time>
      </trkpt>
      <trkpt lat="45.49991" lon="6.02076">
        <ele>302</ele>
        <time>2023-05-31T13:20:59.000Z</time>
      </trkpt>
      <trkpt lat="45.49994" lon="6.02138">
        <ele>301.60000610352</ele>
        <time>2023-05-31T13:21:04.000Z</time>
      </trkpt>
      <trkpt lat="45.49987" lon="6.02194">
        <ele>302</ele>
        <time>2023-05-31T13:21:09.000Z</time>
      </trkpt>
      <trkpt lat="45.49982" lon="6.02244">
        <ele>303</ele>
        <time>2023-05-31T13:21:14.000Z</time>
      </trkpt>
      <trkpt lat="45.49982" lon="6.02254">
        <ele>303.20001220703</ele>
        <time>2023-05-31T13:21:15.000Z</time>
      </trkpt>
      <trkpt lat="45.49984" lon="6.02311">
        <ele>304</ele>
        <time>2023-05-31T13:21:21.000Z</time>
      </trkpt>
      <trkpt lat="45.49996" lon="6.02356">
        <ele>304.20001220703</ele>
        <time>2023-05-31T13:21:26.000Z</time>
      </trkpt>
      <trkpt lat="45.49999" lon="6.02365">
        <ele>304.20001220703</ele>
        <time>2023-05-31T13:21:27.000Z</time>
      </trkpt>
      <trkpt lat="45.50018" lon="6.02437">
        <ele>304.20001220703</ele>
        <time>2023-05-31T13:21:35.000Z</time>
      </trkpt>
      <trkpt lat="45.50021" lon="6.02446">
        <ele>304.39999389648</ele>
        <time>2023-05-31T13:21:36.000Z</time>
      </trkpt>
      <trkpt lat="45.50033" lon="6.02482">
        <ele>304.60000610352</ele>
        <time>2023-05-31T13:21:40.000Z</time>
      </trkpt>
      <trkpt lat="45.50043" lon="6.02537">
        <ele>304.60000610352</ele>
        <time>2023-05-31T13:21:45.000Z</time>
      </trkpt>
      <trkpt lat="45.50059" lon="6.02608">
        <ele>303.60000610352</ele>
        <time>2023-05-31T13:21:51.000Z</time>
      </trkpt>
      <trkpt lat="45.5007" lon="6.02649">
        <ele>302.60000610352</ele>
        <time>2023-05-31T13:21:54.000Z</time>
      </trkpt>
      <trkpt lat="45.50081" lon="6.02682">
        <ele>301.20001220703</ele>
        <time>2023-05-31T13:21:57.000Z</time>
      </trkpt>
      <trkpt lat="45.50098" lon="6.02729">
        <ele>299.79998779297</ele>
        <time>2023-05-31T13:22:01.000Z</time>
      </trkpt>
      <trkpt lat="45.5011" lon="6.02764">
        <ele>298.60000610352</ele>
        <time>2023-05-31T13:22:04.000Z</time>
      </trkpt>
      <trkpt lat="45.50113" lon="6.02785">
        <ele>298</ele>
        <time>2023-05-31T13:22:06.000Z</time>
      </trkpt>
      <trkpt lat="45.50118" lon="6.02796">
        <ele>298</ele>
        <time>2023-05-31T13:22:07.000Z</time>
      </trkpt>
      <trkpt lat="45.50124" lon="6.02804">
        <ele>297.60000610352</ele>
        <time>2023-05-31T13:22:08.000Z</time>
      </trkpt>
      <trkpt lat="45.50129" lon="6.02813">
        <ele>297.39999389648</ele>
        <time>2023-05-31T13:22:09.000Z</time>
      </trkpt>
      <trkpt lat="45.50135" lon="6.02832">
        <ele>296.79998779297</ele>
        <time>2023-05-31T13:22:11.000Z</time>
      </trkpt>
      <trkpt lat="45.5015" lon="6.02874">
        <ele>296.60000610352</ele>
        <time>2023-05-31T13:22:15.000Z</time>
      </trkpt>
      <trkpt lat="45.50157" lon="6.02894">
        <ele>296.20001220703</ele>
        <time>2023-05-31T13:22:17.000Z</time>
      </trkpt>
      <trkpt lat="45.50175" lon="6.02976">
        <ele>295.60000610352</ele>
        <time>2023-05-31T13:22:25.000Z</time>
      </trkpt>
      <trkpt lat="45.50177" lon="6.02986">
        <ele>295.60000610352</ele>
        <time>2023-05-31T13:22:26.000Z</time>
      </trkpt>
      <trkpt lat="45.50178" lon="6.02997">
        <ele>295.60000610352</ele>
        <time>2023-05-31T13:22:27.000Z</time>
      </trkpt>
      <trkpt lat="45.50178" lon="6.03015">
        <ele>295.39999389648</ele>
        <time>2023-05-31T13:22:29.000Z</time>
      </trkpt>
      <trkpt lat="45.50178" lon="6.03036">
        <ele>295.79998779297</ele>
        <time>2023-05-31T13:22:31.000Z</time>
      </trkpt>
      <trkpt lat="45.50173" lon="6.03108">
        <ele>295.60000610352</ele>
        <time>2023-05-31T13:22:38.000Z</time>
      </trkpt>
      <trkpt lat="45.50172" lon="6.03193">
        <ele>295</ele>
        <time>2023-05-31T13:22:46.000Z</time>
      </trkpt>
      <trkpt lat="45.50172" lon="6.03204">
        <ele>294.79998779297</ele>
        <time>2023-05-31T13:22:47.000Z</time>
      </trkpt>
      <trkpt lat="45.50172" lon="6.03236">
        <ele>294.39999389648</ele>
        <time>2023-05-31T13:22:50.000Z</time>
      </trkpt>
      <trkpt lat="45.50169" lon="6.03279">
        <ele>294</ele>
        <time>2023-05-31T13:22:54.000Z</time>
      </trkpt>
      <trkpt lat="45.50167" lon="6.03311">
        <ele>293.60000610352</ele>
        <time>2023-05-31T13:22:57.000Z</time>
      </trkpt>
      <trkpt lat="45.50167" lon="6.03331">
        <ele>293.39999389648</ele>
        <time>2023-05-31T13:22:59.000Z</time>
      </trkpt>
      <trkpt lat="45.50168" lon="6.03341">
        <ele>293.39999389648</ele>
        <time>2023-05-31T13:23:00.000Z</time>
      </trkpt>
      <trkpt lat="45.50171" lon="6.03351">
        <ele>293.20001220703</ele>
        <time>2023-05-31T13:23:01.000Z</time>
      </trkpt>
      <trkpt lat="45.50174" lon="6.0336">
        <ele>293.20001220703</ele>
        <time>2023-05-31T13:23:02.000Z</time>
      </trkpt>
      <trkpt lat="45.50204" lon="6.03433">
        <ele>292.39999389648</ele>
        <time>2023-05-31T13:23:10.000Z</time>
      </trkpt>
      <trkpt lat="45.50215" lon="6.03459">
        <ele>292.20001220703</ele>
        <time>2023-05-31T13:23:13.000Z</time>
      </trkpt>
      <trkpt lat="45.50233" lon="6.03501">
        <ele>292.39999389648</ele>
        <time>2023-05-31T13:23:18.000Z</time>
      </trkpt>
      <trkpt lat="45.50251" lon="6.03551">
        <ele>292.79998779297</ele>
        <time>2023-05-31T13:23:24.000Z</time>
      </trkpt>
      <trkpt lat="45.50253" lon="6.0356">
        <ele>292.79998779297</ele>
        <time>2023-05-31T13:23:25.000Z</time>
      </trkpt>
      <trkpt lat="45.5026" lon="6.03604">
        <ele>293.39999389648</ele>
        <time>2023-05-31T13:23:30.000Z</time>
      </trkpt>
      <trkpt lat="45.50261" lon="6.03615">
        <ele>293.60000610352</ele>
        <time>2023-05-31T13:23:31.000Z</time>
      </trkpt>
      <trkpt lat="45.5026" lon="6.03676">
        <ele>294.60000610352</ele>
        <time>2023-05-31T13:23:38.000Z</time>
      </trkpt>
      <trkpt lat="45.50258" lon="6.03703">
        <ele>294.60000610352</ele>
        <time>2023-05-31T13:23:41.000Z</time>
      </trkpt>
      <trkpt lat="45.50255" lon="6.03766">
        <ele>294.39999389648</ele>
        <time>2023-05-31T13:23:48.000Z</time>
      </trkpt>
      <trkpt lat="45.50255" lon="6.03773">
        <ele>294.39999389648</ele>
        <time>2023-05-31T13:23:49.000Z</time>
      </trkpt>
      <trkpt lat="45.50259" lon="6.0381">
        <ele>294.60000610352</ele>
        <time>2023-05-31T13:23:53.000Z</time>
      </trkpt>
      <trkpt lat="45.50261" lon="6.03817">
        <ele>294.60000610352</ele>
        <time>2023-05-31T13:23:54.000Z</time>
      </trkpt>
      <trkpt lat="45.50264" lon="6.03824">
        <ele>294.60000610352</ele>
        <time>2023-05-31T13:23:55.000Z</time>
      </trkpt>
      <trkpt lat="45.50279" lon="6.03854">
        <ele>294.60000610352</ele>
        <time>2023-05-31T13:23:59.000Z</time>
      </trkpt>
      <trkpt lat="45.50314" lon="6.03911">
        <ele>294.20001220703</ele>
        <time>2023-05-31T13:24:07.000Z</time>
      </trkpt>
      <trkpt lat="45.50318" lon="6.03919">
        <ele>294</ele>
        <time>2023-05-31T13:24:08.000Z</time>
      </trkpt>
      <trkpt lat="45.50319" lon="6.03929">
        <ele>293.79998779297</ele>
        <time>2023-05-31T13:24:09.000Z</time>
      </trkpt>
      <trkpt lat="45.50317" lon="6.03949">
        <ele>293.79998779297</ele>
        <time>2023-05-31T13:24:11.000Z</time>
      </trkpt>
      <trkpt lat="45.50313" lon="6.03957">
        <ele>293.39999389648</ele>
        <time>2023-05-31T13:24:12.000Z</time>
      </trkpt>
      <trkpt lat="45.50307" lon="6.03966">
        <ele>293.39999389648</ele>
        <time>2023-05-31T13:24:13.000Z</time>
      </trkpt>
      <trkpt lat="45.50302" lon="6.03973">
        <ele>293.20001220703</ele>
        <time>2023-05-31T13:24:14.000Z</time>
      </trkpt>
      <trkpt lat="45.50267" lon="6.04016">
        <ele>293.20001220703</ele>
        <time>2023-05-31T13:24:21.000Z</time>
      </trkpt>
      <trkpt lat="45.5023" lon="6.04066">
        <ele>293.60000610352</ele>
        <time>2023-05-31T13:24:29.000Z</time>
      </trkpt>
      <trkpt lat="45.50189" lon="6.0412">
        <ele>293.79998779297</ele>
        <time>2023-05-31T13:24:38.000Z</time>
      </trkpt>
      <trkpt lat="45.50151" lon="6.0418">
        <ele>294.20001220703</ele>
        <time>2023-05-31T13:24:47.000Z</time>
      </trkpt>
      <trkpt lat="45.50123" lon="6.04239">
        <ele>295.20001220703</ele>
        <time>2023-05-31T13:24:55.000Z</time>
      </trkpt>
      <trkpt lat="45.50116" lon="6.04255">
        <ele>295.20001220703</ele>
        <time>2023-05-31T13:24:57.000Z</time>
      </trkpt>
      <trkpt lat="45.50086" lon="6.04328">
        <ele>295.60000610352</ele>
        <time>2023-05-31T13:25:06.000Z</time>
      </trkpt>
      <trkpt lat="45.5007" lon="6.04367">
        <ele>296</ele>
        <time>2023-05-31T13:25:11.000Z</time>
      </trkpt>
      <trkpt lat="45.50068" lon="6.04372">
        <ele>296</ele>
        <time>2023-05-31T13:25:12.000Z</time>
      </trkpt>
      <trkpt lat="45.50066" lon="6.04379">
        <ele>296.39999389648</ele>
        <time>2023-05-31T13:25:13.000Z</time>
      </trkpt>
      <trkpt lat="45.50055" lon="6.04406">
        <ele>297.39999389648</ele>
        <time>2023-05-31T13:25:17.000Z</time>
      </trkpt>
      <trkpt lat="45.50052" lon="6.04413">
        <ele>298.20001220703</ele>
        <time>2023-05-31T13:25:18.000Z</time>
      </trkpt>
      <trkpt lat="45.50049" lon="6.0442">
        <ele>298.60000610352</ele>
        <time>2023-05-31T13:25:19.000Z</time>
      </trkpt>
      <trkpt lat="45.50041" lon="6.04441">
        <ele>299.79998779297</ele>
        <time>2023-05-31T13:25:22.000Z</time>
      </trkpt>
      <trkpt lat="45.50032" lon="6.04462">
        <ele>300.79998779297</ele>
        <time>2023-05-31T13:25:25.000Z</time>
      </trkpt>
      <trkpt lat="45.50026" lon="6.04477">
        <ele>301</ele>
        <time>2023-05-31T13:25:27.000Z</time>
      </trkpt>
      <trkpt lat="45.50023" lon="6.04484">
        <ele>301</ele>
        <time>2023-05-31T13:25:28.000Z</time>
      </trkpt>
      <trkpt lat="45.50017" lon="6.04499">
        <ele>301.20001220703</ele>
        <time>2023-05-31T13:25:30.000Z</time>
      </trkpt>
      <trkpt lat="45.50008" lon="6.04511">
        <ele>301.39999389648</ele>
        <time>2023-05-31T13:25:32.000Z</time>
      </trkpt>
      <trkpt lat="45.49999" lon="6.04524">
        <ele>301.39999389648</ele>
        <time>2023-05-31T13:25:34.000Z</time>
      </trkpt>
      <trkpt lat="45.49996" lon="6.04532">
        <ele>301.39999389648</ele>
        <time>2023-05-31T13:25:35.000Z</time>
      </trkpt>
      <trkpt lat="45.49995" lon="6.04541">
        <ele>301.20001220703</ele>
        <time>2023-05-31T13:25:36.000Z</time>
      </trkpt>
      <trkpt lat="45.49997" lon="6.0456">
        <ele>301.20001220703</ele>
        <time>2023-05-31T13:25:38.000Z</time>
      </trkpt>
      <trkpt lat="45.49998" lon="6.0457">
        <ele>301</ele>
        <time>2023-05-31T13:25:39.000Z</time>
      </trkpt>
      <trkpt lat="45.49998" lon="6.04608">
        <ele>300.79998779297</ele>
        <time>2023-05-31T13:25:43.000Z</time>
      </trkpt>
      <trkpt lat="45.50005" lon="6.04684">
        <ele>300</ele>
        <time>2023-05-31T13:25:51.000Z</time>
      </trkpt>
      <trkpt lat="45.50006" lon="6.04693">
        <ele>300</ele>
        <time>2023-05-31T13:25:52.000Z</time>
      </trkpt>
      <trkpt lat="45.50015" lon="6.04759">
        <ele>300.20001220703</ele>
        <time>2023-05-31T13:25:59.000Z</time>
      </trkpt>
      <trkpt lat="45.50021" lon="6.04807">
        <ele>300.60000610352</ele>
        <time>2023-05-31T13:26:05.000Z</time>
      </trkpt>
      <trkpt lat="45.50023" lon="6.04815">
        <ele>300.60000610352</ele>
        <time>2023-05-31T13:26:06.000Z</time>
      </trkpt>
      <trkpt lat="45.50027" lon="6.04838">
        <ele>300.79998779297</ele>
        <time>2023-05-31T13:26:09.000Z</time>
      </trkpt>
      <trkpt lat="45.50028" lon="6.04849">
        <ele>301</ele>
        <time>2023-05-31T13:26:11.000Z</time>
      </trkpt>
      <trkpt lat="45.50025" lon="6.04866">
        <ele>301.39999389648</ele>
        <time>2023-05-31T13:26:15.000Z</time>
      </trkpt>
      <trkpt lat="45.50028" lon="6.04878">
        <ele>301.60000610352</ele>
        <time>2023-05-31T13:26:17.000Z</time>
      </trkpt>
      <trkpt lat="45.50031" lon="6.04884">
        <ele>301.79998779297</ele>
        <time>2023-05-31T13:26:18.000Z</time>
      </trkpt>
      <trkpt lat="45.50035" lon="6.04889">
        <ele>301.79998779297</ele>
        <time>2023-05-31T13:26:19.000Z</time>
      </trkpt>
      <trkpt lat="45.50042" lon="6.04901">
        <ele>302</ele>
        <time>2023-05-31T13:26:21.000Z</time>
      </trkpt>
      <trkpt lat="45.50045" lon="6.04909">
        <ele>302</ele>
        <time>2023-05-31T13:26:22.000Z</time>
      </trkpt>
      <trkpt lat="45.50048" lon="6.04917">
        <ele>302.20001220703</ele>
        <time>2023-05-31T13:26:23.000Z</time>
      </trkpt>
      <trkpt lat="45.50065" lon="6.04959">
        <ele>302.39999389648</ele>
        <time>2023-05-31T13:26:28.000Z</time>
      </trkpt>
      <trkpt lat="45.50091" lon="6.05024">
        <ele>302.60000610352</ele>
        <time>2023-05-31T13:26:36.000Z</time>
      </trkpt>
      <trkpt lat="45.501" lon="6.05037">
        <ele>302.60000610352</ele>
        <time>2023-05-31T13:26:38.000Z</time>
      </trkpt>
      <trkpt lat="45.50115" lon="6.05056">
        <ele>302.79998779297</ele>
        <time>2023-05-31T13:26:41.000Z</time>
      </trkpt>
      <trkpt lat="45.50135" lon="6.0508">
        <ele>303</ele>
        <time>2023-05-31T13:26:45.000Z</time>
      </trkpt>
      <trkpt lat="45.50145" lon="6.05093">
        <ele>303</ele>
        <time>2023-05-31T13:26:48.000Z</time>
      </trkpt>
      <trkpt lat="45.5015" lon="6.05106">
        <ele>303.20001220703</ele>
        <time>2023-05-31T13:26:50.000Z</time>
      </trkpt>
      <trkpt lat="45.50153" lon="6.05115">
        <ele>303.20001220703</ele>
        <time>2023-05-31T13:26:51.000Z</time>
      </trkpt>
      <trkpt lat="45.50161" lon="6.05127">
        <ele>303.39999389648</ele>
        <time>2023-05-31T13:26:53.000Z</time>
      </trkpt>
      <trkpt lat="45.50171" lon="6.05139">
        <ele>303.60000610352</ele>
        <time>2023-05-31T13:26:55.000Z</time>
      </trkpt>
      <trkpt lat="45.50196" lon="6.05181">
        <ele>304.20001220703</ele>
        <time>2023-05-31T13:27:01.000Z</time>
      </trkpt>
      <trkpt lat="45.502" lon="6.05188">
        <ele>304.20001220703</ele>
        <time>2023-05-31T13:27:02.000Z</time>
      </trkpt>
      <trkpt lat="45.50224" lon="6.05225">
        <ele>305</ele>
        <time>2023-05-31T13:27:08.000Z</time>
      </trkpt>
      <trkpt lat="45.50227" lon="6.05233">
        <ele>305</ele>
        <time>2023-05-31T13:27:09.000Z</time>
      </trkpt>
      <trkpt lat="45.50229" lon="6.05241">
        <ele>305.39999389648</ele>
        <time>2023-05-31T13:27:10.000Z</time>
      </trkpt>
      <trkpt lat="45.50238" lon="6.05254">
        <ele>305.79998779297</ele>
        <time>2023-05-31T13:27:12.000Z</time>
      </trkpt>
      <trkpt lat="45.50264" lon="6.05266">
        <ele>306.39999389648</ele>
        <time>2023-05-31T13:27:16.000Z</time>
      </trkpt>
      <trkpt lat="45.50299" lon="6.05295">
        <ele>306.39999389648</ele>
        <time>2023-05-31T13:27:21.000Z</time>
      </trkpt>
      <trkpt lat="45.50306" lon="6.05303">
        <ele>305.79998779297</ele>
        <time>2023-05-31T13:27:22.000Z</time>
      </trkpt>
      <trkpt lat="45.50321" lon="6.05321">
        <ele>305.20001220703</ele>
        <time>2023-05-31T13:27:24.000Z</time>
      </trkpt>
      <trkpt lat="45.50327" lon="6.05331">
        <ele>305</ele>
        <time>2023-05-31T13:27:25.000Z</time>
      </trkpt>
      <trkpt lat="45.50337" lon="6.0535">
        <ele>304.39999389648</ele>
        <time>2023-05-31T13:27:27.000Z</time>
      </trkpt>
      <trkpt lat="45.5034" lon="6.0536">
        <ele>304</ele>
        <time>2023-05-31T13:27:28.000Z</time>
      </trkpt>
      <trkpt lat="45.50341" lon="6.0537">
        <ele>303.39999389648</ele>
        <time>2023-05-31T13:27:29.000Z</time>
      </trkpt>
      <trkpt lat="45.50341" lon="6.05381">
        <ele>303</ele>
        <time>2023-05-31T13:27:30.000Z</time>
      </trkpt>
      <trkpt lat="45.50343" lon="6.05392">
        <ele>302.39999389648</ele>
        <time>2023-05-31T13:27:31.000Z</time>
      </trkpt>
      <trkpt lat="45.50348" lon="6.05415">
        <ele>301.39999389648</ele>
        <time>2023-05-31T13:27:33.000Z</time>
      </trkpt>
      <trkpt lat="45.50351" lon="6.05454">
        <ele>300</ele>
        <time>2023-05-31T13:27:36.000Z</time>
      </trkpt>
      <trkpt lat="45.50352" lon="6.05468">
        <ele>299.60000610352</ele>
        <time>2023-05-31T13:27:37.000Z</time>
      </trkpt>
      <trkpt lat="45.50354" lon="6.05496">
        <ele>298.79998779297</ele>
        <time>2023-05-31T13:27:39.000Z</time>
      </trkpt>
      <trkpt lat="45.50356" lon="6.05539">
        <ele>297.60000610352</ele>
        <time>2023-05-31T13:27:42.000Z</time>
      </trkpt>
      <trkpt lat="45.50357" lon="6.05553">
        <ele>297.20001220703</ele>
        <time>2023-05-31T13:27:43.000Z</time>
      </trkpt>
      <trkpt lat="45.50359" lon="6.05594">
        <ele>296.39999389648</ele>
        <time>2023-05-31T13:27:46.000Z</time>
      </trkpt>
      <trkpt lat="45.5036" lon="6.05622">
        <ele>295.20001220703</ele>
        <time>2023-05-31T13:27:48.000Z</time>
      </trkpt>
      <trkpt lat="45.50361" lon="6.05636">
        <ele>294.20001220703</ele>
        <time>2023-05-31T13:27:49.000Z</time>
      </trkpt>
      <trkpt lat="45.50362" lon="6.0565">
        <ele>292.79998779297</ele>
        <time>2023-05-31T13:27:50.000Z</time>
      </trkpt>
      <trkpt lat="45.50365" lon="6.05703">
        <ele>291.79998779297</ele>
        <time>2023-05-31T13:27:54.000Z</time>
      </trkpt>
      <trkpt lat="45.50367" lon="6.05741">
        <ele>290.20001220703</ele>
        <time>2023-05-31T13:27:57.000Z</time>
      </trkpt>
      <trkpt lat="45.50369" lon="6.05767">
        <ele>289.60000610352</ele>
        <time>2023-05-31T13:27:59.000Z</time>
      </trkpt>
      <trkpt lat="45.5037" lon="6.05793">
        <ele>289</ele>
        <time>2023-05-31T13:28:01.000Z</time>
      </trkpt>
      <trkpt lat="45.50374" lon="6.05872">
        <ele>288.20001220703</ele>
        <time>2023-05-31T13:28:07.000Z</time>
      </trkpt>
      <trkpt lat="45.50375" lon="6.05895">
        <ele>288</ele>
        <time>2023-05-31T13:28:09.000Z</time>
      </trkpt>
      <trkpt lat="45.50377" lon="6.05936">
        <ele>286.79998779297</ele>
        <time>2023-05-31T13:28:12.000Z</time>
      </trkpt>
      <trkpt lat="45.50382" lon="6.05995">
        <ele>286</ele>
        <time>2023-05-31T13:28:17.000Z</time>
      </trkpt>
      <trkpt lat="45.50388" lon="6.0606">
        <ele>285.79998779297</ele>
        <time>2023-05-31T13:28:23.000Z</time>
      </trkpt>
      <trkpt lat="45.50392" lon="6.06093">
        <ele>285.79998779297</ele>
        <time>2023-05-31T13:28:26.000Z</time>
      </trkpt>
      <trkpt lat="45.50398" lon="6.06144">
        <ele>285.39999389648</ele>
        <time>2023-05-31T13:28:31.000Z</time>
      </trkpt>
      <trkpt lat="45.5041" lon="6.06218">
        <ele>285</ele>
        <time>2023-05-31T13:28:39.000Z</time>
      </trkpt>
      <trkpt lat="45.50411" lon="6.06233">
        <ele>285</ele>
        <time>2023-05-31T13:28:42.000Z</time>
      </trkpt>
      <trkpt lat="45.50412" lon="6.06254">
        <ele>284.79998779297</ele>
        <time>2023-05-31T13:28:46.000Z</time>
      </trkpt>
      <trkpt lat="45.50413" lon="6.06261">
        <ele>284.79998779297</ele>
        <time>2023-05-31T13:28:47.000Z</time>
      </trkpt>
      <trkpt lat="45.50416" lon="6.06268">
        <ele>284.79998779297</ele>
        <time>2023-05-31T13:28:48.000Z</time>
      </trkpt>
      <trkpt lat="45.50424" lon="6.06282">
        <ele>284.79998779297</ele>
        <time>2023-05-31T13:28:50.000Z</time>
      </trkpt>
      <trkpt lat="45.50427" lon="6.06291">
        <ele>284.79998779297</ele>
        <time>2023-05-31T13:28:51.000Z</time>
      </trkpt>
      <trkpt lat="45.50432" lon="6.0631">
        <ele>284.60000610352</ele>
        <time>2023-05-31T13:28:53.000Z</time>
      </trkpt>
      <trkpt lat="45.50448" lon="6.06391">
        <ele>284</ele>
        <time>2023-05-31T13:29:01.000Z</time>
      </trkpt>
      <trkpt lat="45.50455" lon="6.0642">
        <ele>283.60000610352</ele>
        <time>2023-05-31T13:29:04.000Z</time>
      </trkpt>
      <trkpt lat="45.50464" lon="6.06469">
        <ele>283.20001220703</ele>
        <time>2023-05-31T13:29:09.000Z</time>
      </trkpt>
      <trkpt lat="45.50463" lon="6.06488">
        <ele>283.20001220703</ele>
        <time>2023-05-31T13:29:11.000Z</time>
      </trkpt>
      <trkpt lat="45.50461" lon="6.06498">
        <ele>283.20001220703</ele>
        <time>2023-05-31T13:29:12.000Z</time>
      </trkpt>
      <trkpt lat="45.50461" lon="6.06507">
        <ele>283</ele>
        <time>2023-05-31T13:29:13.000Z</time>
      </trkpt>
      <trkpt lat="45.50467" lon="6.06525">
        <ele>283</ele>
        <time>2023-05-31T13:29:15.000Z</time>
      </trkpt>
      <trkpt lat="45.50482" lon="6.06546">
        <ele>282.60000610352</ele>
        <time>2023-05-31T13:29:18.000Z</time>
      </trkpt>
      <trkpt lat="45.50486" lon="6.06554">
        <ele>282.60000610352</ele>
        <time>2023-05-31T13:29:19.000Z</time>
      </trkpt>
      <trkpt lat="45.50504" lon="6.06622">
        <ele>282.20001220703</ele>
        <time>2023-05-31T13:29:26.000Z</time>
      </trkpt>
      <trkpt lat="45.50525" lon="6.06698">
        <ele>281.60000610352</ele>
        <time>2023-05-31T13:29:34.000Z</time>
      </trkpt>
      <trkpt lat="45.50528" lon="6.06708">
        <ele>281.60000610352</ele>
        <time>2023-05-31T13:29:35.000Z</time>
      </trkpt>
      <trkpt lat="45.50532" lon="6.06719">
        <ele>281.39999389648</ele>
        <time>2023-05-31T13:29:36.000Z</time>
      </trkpt>
      <trkpt lat="45.50553" lon="6.06797">
        <ele>281</ele>
        <time>2023-05-31T13:29:44.000Z</time>
      </trkpt>
      <trkpt lat="45.50556" lon="6.06806">
        <ele>281</ele>
        <time>2023-05-31T13:29:45.000Z</time>
      </trkpt>
      <trkpt lat="45.50572" lon="6.0687">
        <ele>280.79998779297</ele>
        <time>2023-05-31T13:29:52.000Z</time>
      </trkpt>
      <trkpt lat="45.50594" lon="6.06952">
        <ele>280.79998779297</ele>
        <time>2023-05-31T13:30:01.000Z</time>
      </trkpt>
      <trkpt lat="45.50616" lon="6.07032">
        <ele>280.79998779297</ele>
        <time>2023-05-31T13:30:10.000Z</time>
      </trkpt>
      <trkpt lat="45.50637" lon="6.07106">
        <ele>280.39999389648</ele>
        <time>2023-05-31T13:30:18.000Z</time>
      </trkpt>
      <trkpt lat="45.50642" lon="6.07123">
        <ele>280.39999389648</ele>
        <time>2023-05-31T13:30:20.000Z</time>
      </trkpt>
      <trkpt lat="45.50663" lon="6.07197">
        <ele>279.79998779297</ele>
        <time>2023-05-31T13:30:28.000Z</time>
      </trkpt>
      <trkpt lat="45.50666" lon="6.07208">
        <ele>279.79998779297</ele>
        <time>2023-05-31T13:30:29.000Z</time>
      </trkpt>
      <trkpt lat="45.50679" lon="6.07253">
        <ele>279.39999389648</ele>
        <time>2023-05-31T13:30:34.000Z</time>
      </trkpt>
      <trkpt lat="45.50687" lon="6.07281">
        <ele>279.39999389648</ele>
        <time>2023-05-31T13:30:37.000Z</time>
      </trkpt>
      <trkpt lat="45.50697" lon="6.07323">
        <ele>279</ele>
        <time>2023-05-31T13:30:42.000Z</time>
      </trkpt>
      <trkpt lat="45.50697" lon="6.07335">
        <ele>278.79998779297</ele>
        <time>2023-05-31T13:30:44.000Z</time>
      </trkpt>
      <trkpt lat="45.50698" lon="6.07343">
        <ele>278.79998779297</ele>
        <time>2023-05-31T13:30:45.000Z</time>
      </trkpt>
      <trkpt lat="45.50709" lon="6.0737">
        <ele>278.79998779297</ele>
        <time>2023-05-31T13:30:49.000Z</time>
      </trkpt>
      <trkpt lat="45.50713" lon="6.07378">
        <ele>278.79998779297</ele>
        <time>2023-05-31T13:30:50.000Z</time>
      </trkpt>
      <trkpt lat="45.50738" lon="6.07432">
        <ele>279.20001220703</ele>
        <time>2023-05-31T13:30:57.000Z</time>
      </trkpt>
      <trkpt lat="45.50771" lon="6.07504">
        <ele>279.39999389648</ele>
        <time>2023-05-31T13:31:06.000Z</time>
      </trkpt>
      <trkpt lat="45.50774" lon="6.0751">
        <ele>279.39999389648</ele>
        <time>2023-05-31T13:31:07.000Z</time>
      </trkpt>
      <trkpt lat="45.50803" lon="6.07575">
        <ele>279.20001220703</ele>
        <time>2023-05-31T13:31:15.000Z</time>
      </trkpt>
      <trkpt lat="45.50823" lon="6.07617">
        <ele>279.60000610352</ele>
        <time>2023-05-31T13:31:21.000Z</time>
      </trkpt>
      <trkpt lat="45.50825" lon="6.07625">
        <ele>279.60000610352</ele>
        <time>2023-05-31T13:31:22.000Z</time>
      </trkpt>
      <trkpt lat="45.50833" lon="6.07648">
        <ele>279.79998779297</ele>
        <time>2023-05-31T13:31:25.000Z</time>
      </trkpt>
      <trkpt lat="45.50836" lon="6.07651">
        <ele>279.79998779297</ele>
        <time>2023-05-31T13:31:26.000Z</time>
      </trkpt>
      <trkpt lat="45.50845" lon="6.07662">
        <ele>279.79998779297</ele>
        <time>2023-05-31T13:31:28.000Z</time>
      </trkpt>
      <trkpt lat="45.50856" lon="6.07682">
        <ele>279.79998779297</ele>
        <time>2023-05-31T13:31:31.000Z</time>
      </trkpt>
      <trkpt lat="45.50882" lon="6.07736">
        <ele>279.20001220703</ele>
        <time>2023-05-31T13:31:38.000Z</time>
      </trkpt>
      <trkpt lat="45.50886" lon="6.07743">
        <ele>279.20001220703</ele>
        <time>2023-05-31T13:31:39.000Z</time>
      </trkpt>
      <trkpt lat="45.50903" lon="6.07766">
        <ele>279</ele>
        <time>2023-05-31T13:31:43.000Z</time>
      </trkpt>
      <trkpt lat="45.50904" lon="6.07781">
        <ele>279</ele>
        <time>2023-05-31T13:31:46.000Z</time>
      </trkpt>
      <trkpt lat="45.50893" lon="6.07792">
        <ele>279</ele>
        <time>2023-05-31T13:31:50.000Z</time>
      </trkpt>
      <trkpt lat="45.50886" lon="6.07802">
        <ele>279</ele>
        <time>2023-05-31T13:31:53.000Z</time>
      </trkpt>
      <trkpt lat="45.50895" lon="6.07818">
        <ele>279</ele>
        <time>2023-05-31T13:31:56.000Z</time>
      </trkpt>
      <trkpt lat="45.50925" lon="6.07851">
        <ele>279.20001220703</ele>
        <time>2023-05-31T13:32:02.000Z</time>
      </trkpt>
      <trkpt lat="45.50967" lon="6.07905">
        <ele>279</ele>
        <time>2023-05-31T13:32:10.000Z</time>
      </trkpt>
      <trkpt lat="45.5097" lon="6.07911">
        <ele>278.79998779297</ele>
        <time>2023-05-31T13:32:11.000Z</time>
      </trkpt>
      <trkpt lat="45.50978" lon="6.07926">
        <ele>278.79998779297</ele>
        <time>2023-05-31T13:32:13.000Z</time>
      </trkpt>
      <trkpt lat="45.50985" lon="6.07942">
        <ele>278.79998779297</ele>
        <time>2023-05-31T13:32:15.000Z</time>
      </trkpt>
      <trkpt lat="45.51016" lon="6.08014">
        <ele>278.79998779297</ele>
        <time>2023-05-31T13:32:24.000Z</time>
      </trkpt>
      <trkpt lat="45.51018" lon="6.0802">
        <ele>278.79998779297</ele>
        <time>2023-05-31T13:32:25.000Z</time>
      </trkpt>
      <trkpt lat="45.51024" lon="6.08037">
        <ele>279</ele>
        <time>2023-05-31T13:32:27.000Z</time>
      </trkpt>
      <trkpt lat="45.51028" lon="6.08056">
        <ele>279</ele>
        <time>2023-05-31T13:32:29.000Z</time>
      </trkpt>
      <trkpt lat="45.51029" lon="6.08064">
        <ele>279</ele>
        <time>2023-05-31T13:32:30.000Z</time>
      </trkpt>
      <trkpt lat="45.51034" lon="6.08121">
        <ele>279</ele>
        <time>2023-05-31T13:32:36.000Z</time>
      </trkpt>
      <trkpt lat="45.51044" lon="6.08166">
        <ele>279</ele>
        <time>2023-05-31T13:32:41.000Z</time>
      </trkpt>
      <trkpt lat="45.51046" lon="6.08183">
        <ele>279</ele>
        <time>2023-05-31T13:32:43.000Z</time>
      </trkpt>
      <trkpt lat="45.51049" lon="6.08209">
        <ele>279.20001220703</ele>
        <time>2023-05-31T13:32:46.000Z</time>
      </trkpt>
      <trkpt lat="45.5106" lon="6.08264">
        <ele>279.39999389648</ele>
        <time>2023-05-31T13:32:52.000Z</time>
      </trkpt>
      <trkpt lat="45.51069" lon="6.08282">
        <ele>279.39999389648</ele>
        <time>2023-05-31T13:32:54.000Z</time>
      </trkpt>
      <trkpt lat="45.51077" lon="6.08294">
        <ele>279.20001220703</ele>
        <time>2023-05-31T13:32:56.000Z</time>
      </trkpt>
      <trkpt lat="45.51082" lon="6.08301">
        <ele>279.20001220703</ele>
        <time>2023-05-31T13:32:57.000Z</time>
      </trkpt>
      <trkpt lat="45.51118" lon="6.08352">
        <ele>279.39999389648</ele>
        <time>2023-05-31T13:33:04.000Z</time>
      </trkpt>
      <trkpt lat="45.51149" lon="6.08397">
        <ele>279.79998779297</ele>
        <time>2023-05-31T13:33:11.000Z</time>
      </trkpt>
      <trkpt lat="45.51165" lon="6.0843">
        <ele>280</ele>
        <time>2023-05-31T13:33:15.000Z</time>
      </trkpt>
      <trkpt lat="45.5117" lon="6.08437">
        <ele>280</ele>
        <time>2023-05-31T13:33:16.000Z</time>
      </trkpt>
      <trkpt lat="45.51182" lon="6.08446">
        <ele>280</ele>
        <time>2023-05-31T13:33:18.000Z</time>
      </trkpt>
      <trkpt lat="45.51225" lon="6.08467">
        <ele>279.60000610352</ele>
        <time>2023-05-31T13:33:25.000Z</time>
      </trkpt>
      <trkpt lat="45.51273" lon="6.08486">
        <ele>279.39999389648</ele>
        <time>2023-05-31T13:33:33.000Z</time>
      </trkpt>
      <trkpt lat="45.51304" lon="6.085">
        <ele>279.39999389648</ele>
        <time>2023-05-31T13:33:38.000Z</time>
      </trkpt>
      <trkpt lat="45.51311" lon="6.08506">
        <ele>279.60000610352</ele>
        <time>2023-05-31T13:33:39.000Z</time>
      </trkpt>
      <trkpt lat="45.51344" lon="6.08539">
        <ele>279.79998779297</ele>
        <time>2023-05-31T13:33:45.000Z</time>
      </trkpt>
      <trkpt lat="45.51388" lon="6.08574">
        <ele>279.60000610352</ele>
        <time>2023-05-31T13:33:52.000Z</time>
      </trkpt>
      <trkpt lat="45.51432" lon="6.08614">
        <ele>279.60000610352</ele>
        <time>2023-05-31T13:34:00.000Z</time>
      </trkpt>
      <trkpt lat="45.51442" lon="6.08631">
        <ele>279.60000610352</ele>
        <time>2023-05-31T13:34:02.000Z</time>
      </trkpt>
      <trkpt lat="45.5145" lon="6.08648">
        <ele>279.60000610352</ele>
        <time>2023-05-31T13:34:04.000Z</time>
      </trkpt>
      <trkpt lat="45.51481" lon="6.08717">
        <ele>280</ele>
        <time>2023-05-31T13:34:12.000Z</time>
      </trkpt>
      <trkpt lat="45.5151" lon="6.0878">
        <ele>280.39999389648</ele>
        <time>2023-05-31T13:34:20.000Z</time>
      </trkpt>
      <trkpt lat="45.51514" lon="6.08788">
        <ele>280.39999389648</ele>
        <time>2023-05-31T13:34:21.000Z</time>
      </trkpt>
      <trkpt lat="45.51533" lon="6.08831">
        <ele>280.60000610352</ele>
        <time>2023-05-31T13:34:26.000Z</time>
      </trkpt>
      <trkpt lat="45.51543" lon="6.08856">
        <ele>280.60000610352</ele>
        <time>2023-05-31T13:34:30.000Z</time>
      </trkpt>
      <trkpt lat="45.51562" lon="6.08895">
        <ele>280.79998779297</ele>
        <time>2023-05-31T13:34:35.000Z</time>
      </trkpt>
      <trkpt lat="45.51581" lon="6.0893">
        <ele>280.79998779297</ele>
        <time>2023-05-31T13:34:40.000Z</time>
      </trkpt>
      <trkpt lat="45.51588" lon="6.08948">
        <ele>280.79998779297</ele>
        <time>2023-05-31T13:34:43.000Z</time>
      </trkpt>
      <trkpt lat="45.51591" lon="6.08954">
        <ele>280.79998779297</ele>
        <time>2023-05-31T13:34:44.000Z</time>
      </trkpt>
      <trkpt lat="45.51596" lon="6.08971">
        <ele>280.79998779297</ele>
        <time>2023-05-31T13:34:46.000Z</time>
      </trkpt>
      <trkpt lat="45.51607" lon="6.08996">
        <ele>280.60000610352</ele>
        <time>2023-05-31T13:34:49.000Z</time>
      </trkpt>
      <trkpt lat="45.51627" lon="6.09039">
        <ele>280.39999389648</ele>
        <time>2023-05-31T13:34:54.000Z</time>
      </trkpt>
      <trkpt lat="45.51659" lon="6.09109">
        <ele>280.39999389648</ele>
        <time>2023-05-31T13:35:02.000Z</time>
      </trkpt>
      <trkpt lat="45.51674" lon="6.09141">
        <ele>280.39999389648</ele>
        <time>2023-05-31T13:35:06.000Z</time>
      </trkpt>
      <trkpt lat="45.51707" lon="6.09215">
        <ele>280.39999389648</ele>
        <time>2023-05-31T13:35:15.000Z</time>
      </trkpt>
      <trkpt lat="45.51729" lon="6.09263">
        <ele>280.39999389648</ele>
        <time>2023-05-31T13:35:21.000Z</time>
      </trkpt>
      <trkpt lat="45.51754" lon="6.09319">
        <ele>280.39999389648</ele>
        <time>2023-05-31T13:35:28.000Z</time>
      </trkpt>
      <trkpt lat="45.51784" lon="6.09386">
        <ele>280.60000610352</ele>
        <time>2023-05-31T13:35:36.000Z</time>
      </trkpt>
      <trkpt lat="45.51795" lon="6.0941">
        <ele>280.60000610352</ele>
        <time>2023-05-31T13:35:39.000Z</time>
      </trkpt>
      <trkpt lat="45.51827" lon="6.09479">
        <ele>281</ele>
        <time>2023-05-31T13:35:48.000Z</time>
      </trkpt>
      <trkpt lat="45.51831" lon="6.09489">
        <ele>281</ele>
        <time>2023-05-31T13:35:49.000Z</time>
      </trkpt>
      <trkpt lat="45.51835" lon="6.09496">
        <ele>281</ele>
        <time>2023-05-31T13:35:50.000Z</time>
      </trkpt>
      <trkpt lat="45.51837" lon="6.09502">
        <ele>281.20001220703</ele>
        <time>2023-05-31T13:35:51.000Z</time>
      </trkpt>
      <trkpt lat="45.51837" lon="6.09506">
        <ele>281.20001220703</ele>
        <time>2023-05-31T13:35:52.000Z</time>
      </trkpt>
      <trkpt lat="45.51832" lon="6.09514">
        <ele>281.20001220703</ele>
        <time>2023-05-31T13:35:54.000Z</time>
      </trkpt>
      <trkpt lat="45.51829" lon="6.09517">
        <ele>281.20001220703</ele>
        <time>2023-05-31T13:35:55.000Z</time>
      </trkpt>
      <trkpt lat="45.51803" lon="6.09537">
        <ele>281.20001220703</ele>
        <time>2023-05-31T13:36:00.000Z</time>
      </trkpt>
      <trkpt lat="45.51763" lon="6.09572">
        <ele>281.20001220703</ele>
        <time>2023-05-31T13:36:07.000Z</time>
      </trkpt>
      <trkpt lat="45.51732" lon="6.09601">
        <ele>281.20001220703</ele>
        <time>2023-05-31T13:36:13.000Z</time>
      </trkpt>
      <trkpt lat="45.51714" lon="6.09616">
        <ele>281.20001220703</ele>
        <time>2023-05-31T13:36:16.000Z</time>
      </trkpt>
      <trkpt lat="45.51706" lon="6.0963">
        <ele>281.39999389648</ele>
        <time>2023-05-31T13:36:18.000Z</time>
      </trkpt>
      <trkpt lat="45.51706" lon="6.09645">
        <ele>281.39999389648</ele>
        <time>2023-05-31T13:36:20.000Z</time>
      </trkpt>
      <trkpt lat="45.51707" lon="6.09651">
        <ele>281.39999389648</ele>
        <time>2023-05-31T13:36:21.000Z</time>
      </trkpt>
      <trkpt lat="45.51712" lon="6.09658">
        <ele>281.39999389648</ele>
        <time>2023-05-31T13:36:22.000Z</time>
      </trkpt>
      <trkpt lat="45.51734" lon="6.09688">
        <ele>281.20001220703</ele>
        <time>2023-05-31T13:36:26.000Z</time>
      </trkpt>
      <trkpt lat="45.51761" lon="6.09733">
        <ele>281.20001220703</ele>
        <time>2023-05-31T13:36:32.000Z</time>
      </trkpt>
      <trkpt lat="45.51795" lon="6.09786">
        <ele>281.39999389648</ele>
        <time>2023-05-31T13:36:40.000Z</time>
      </trkpt>
      <trkpt lat="45.51834" lon="6.09851">
        <ele>281.60000610352</ele>
        <time>2023-05-31T13:36:49.000Z</time>
      </trkpt>
      <trkpt lat="45.51842" lon="6.09864">
        <ele>281.60000610352</ele>
        <time>2023-05-31T13:36:51.000Z</time>
      </trkpt>
      <trkpt lat="45.5188" lon="6.09927">
        <ele>281.60000610352</ele>
        <time>2023-05-31T13:37:00.000Z</time>
      </trkpt>
      <trkpt lat="45.51899" lon="6.09957">
        <ele>281.79998779297</ele>
        <time>2023-05-31T13:37:04.000Z</time>
      </trkpt>
      <trkpt lat="45.51938" lon="6.10023">
        <ele>281.79998779297</ele>
        <time>2023-05-31T13:37:13.000Z</time>
      </trkpt>
      <trkpt lat="45.51966" lon="6.10065">
        <ele>281.79998779297</ele>
        <time>2023-05-31T13:37:19.000Z</time>
      </trkpt>
      <trkpt lat="45.51984" lon="6.10093">
        <ele>281.79998779297</ele>
        <time>2023-05-31T13:37:23.000Z</time>
      </trkpt>
      <trkpt lat="45.52021" lon="6.10149">
        <ele>282</ele>
        <time>2023-05-31T13:37:31.000Z</time>
      </trkpt>
      <trkpt lat="45.52025" lon="6.10157">
        <ele>282</ele>
        <time>2023-05-31T13:37:32.000Z</time>
      </trkpt>
      <trkpt lat="45.5206" lon="6.10214">
        <ele>282.20001220703</ele>
        <time>2023-05-31T13:37:40.000Z</time>
      </trkpt>
      <trkpt lat="45.52095" lon="6.10273">
        <ele>282.20001220703</ele>
        <time>2023-05-31T13:37:48.000Z</time>
      </trkpt>
      <trkpt lat="45.52113" lon="6.10303">
        <ele>282.20001220703</ele>
        <time>2023-05-31T13:37:52.000Z</time>
      </trkpt>
      <trkpt lat="45.52149" lon="6.10361">
        <ele>282.39999389648</ele>
        <time>2023-05-31T13:38:00.000Z</time>
      </trkpt>
      <trkpt lat="45.52163" lon="6.10383">
        <ele>282.60000610352</ele>
        <time>2023-05-31T13:38:03.000Z</time>
      </trkpt>
      <trkpt lat="45.52186" lon="6.10419">
        <ele>282.60000610352</ele>
        <time>2023-05-31T13:38:08.000Z</time>
      </trkpt>
      <trkpt lat="45.52203" lon="6.10447">
        <ele>282.60000610352</ele>
        <time>2023-05-31T13:38:12.000Z</time>
      </trkpt>
      <trkpt lat="45.52226" lon="6.10478">
        <ele>282.60000610352</ele>
        <time>2023-05-31T13:38:17.000Z</time>
      </trkpt>
      <trkpt lat="45.52234" lon="6.10486">
        <ele>282.79998779297</ele>
        <time>2023-05-31T13:38:19.000Z</time>
      </trkpt>
      <trkpt lat="45.52238" lon="6.1049">
        <ele>282.79998779297</ele>
        <time>2023-05-31T13:38:20.000Z</time>
      </trkpt>
      <trkpt lat="45.52243" lon="6.10497">
        <ele>283</ele>
        <time>2023-05-31T13:38:22.000Z</time>
      </trkpt>
      <trkpt lat="45.52257" lon="6.10504">
        <ele>283.79998779297</ele>
        <time>2023-05-31T13:38:26.000Z</time>
      </trkpt>
      <trkpt lat="45.52261" lon="6.10506">
        <ele>284</ele>
        <time>2023-05-31T13:38:27.000Z</time>
      </trkpt>
      <trkpt lat="45.52266" lon="6.10509">
        <ele>284</ele>
        <time>2023-05-31T13:38:28.000Z</time>
      </trkpt>
      <trkpt lat="45.52276" lon="6.10512">
        <ele>284.20001220703</ele>
        <time>2023-05-31T13:38:30.000Z</time>
      </trkpt>
      <trkpt lat="45.52281" lon="6.10512">
        <ele>284.20001220703</ele>
        <time>2023-05-31T13:38:31.000Z</time>
      </trkpt>
      <trkpt lat="45.52306" lon="6.10509">
        <ele>284.39999389648</ele>
        <time>2023-05-31T13:38:35.000Z</time>
      </trkpt>
      <trkpt lat="45.5235" lon="6.10505">
        <ele>284.20001220703</ele>
        <time>2023-05-31T13:38:42.000Z</time>
      </trkpt>
      <trkpt lat="45.52408" lon="6.10505">
        <ele>284</ele>
        <time>2023-05-31T13:38:51.000Z</time>
      </trkpt>
      <trkpt lat="45.52455" lon="6.10504">
        <ele>284.20001220703</ele>
        <time>2023-05-31T13:38:59.000Z</time>
      </trkpt>
      <trkpt lat="45.52499" lon="6.10503">
        <ele>284.60000610352</ele>
        <time>2023-05-31T13:39:06.000Z</time>
      </trkpt>
      <trkpt lat="45.52546" lon="6.10501">
        <ele>284.39999389648</ele>
        <time>2023-05-31T13:39:13.000Z</time>
      </trkpt>
      <trkpt lat="45.52559" lon="6.105">
        <ele>284.39999389648</ele>
        <time>2023-05-31T13:39:15.000Z</time>
      </trkpt>
      <trkpt lat="45.52608" lon="6.10499">
        <ele>284</ele>
        <time>2023-05-31T13:39:23.000Z</time>
      </trkpt>
      <trkpt lat="45.52662" lon="6.10496">
        <ele>283.60000610352</ele>
        <time>2023-05-31T13:39:30.000Z</time>
      </trkpt>
      <trkpt lat="45.52711" lon="6.10493">
        <ele>283.60000610352</ele>
        <time>2023-05-31T13:39:37.000Z</time>
      </trkpt>
      <trkpt lat="45.52766" lon="6.10489">
        <ele>283.60000610352</ele>
        <time>2023-05-31T13:39:45.000Z</time>
      </trkpt>
      <trkpt lat="45.52773" lon="6.10489">
        <ele>283.60000610352</ele>
        <time>2023-05-31T13:39:46.000Z</time>
      </trkpt>
      <trkpt lat="45.5282" lon="6.10486">
        <ele>284.20001220703</ele>
        <time>2023-05-31T13:39:53.000Z</time>
      </trkpt>
      <trkpt lat="45.52834" lon="6.10486">
        <ele>284</ele>
        <time>2023-05-31T13:39:55.000Z</time>
      </trkpt>
      <trkpt lat="45.52854" lon="6.10488">
        <ele>284.39999389648</ele>
        <time>2023-05-31T13:39:58.000Z</time>
      </trkpt>
      <trkpt lat="45.5286" lon="6.1049">
        <ele>284.20001220703</ele>
        <time>2023-05-31T13:39:59.000Z</time>
      </trkpt>
      <trkpt lat="45.5291" lon="6.10511">
        <ele>284.20001220703</ele>
        <time>2023-05-31T13:40:07.000Z</time>
      </trkpt>
      <trkpt lat="45.52934" lon="6.10526">
        <ele>284.39999389648</ele>
        <time>2023-05-31T13:40:11.000Z</time>
      </trkpt>
      <trkpt lat="45.52981" lon="6.10561">
        <ele>285</ele>
        <time>2023-05-31T13:40:19.000Z</time>
      </trkpt>
      <trkpt lat="45.52992" lon="6.1057">
        <ele>285</ele>
        <time>2023-05-31T13:40:21.000Z</time>
      </trkpt>
      <trkpt lat="45.53015" lon="6.10587">
        <ele>285.20001220703</ele>
        <time>2023-05-31T13:40:25.000Z</time>
      </trkpt>
      <trkpt lat="45.5302" lon="6.10592">
        <ele>285.20001220703</ele>
        <time>2023-05-31T13:40:26.000Z</time>
      </trkpt>
      <trkpt lat="45.53052" lon="6.10618">
        <ele>285.20001220703</ele>
        <time>2023-05-31T13:40:32.000Z</time>
      </trkpt>
      <trkpt lat="45.53091" lon="6.10647">
        <ele>285.20001220703</ele>
        <time>2023-05-31T13:40:39.000Z</time>
      </trkpt>
      <trkpt lat="45.53096" lon="6.10651">
        <ele>285.39999389648</ele>
        <time>2023-05-31T13:40:40.000Z</time>
      </trkpt>
      <trkpt lat="45.53114" lon="6.10664">
        <ele>285.39999389648</ele>
        <time>2023-05-31T13:40:43.000Z</time>
      </trkpt>
      <trkpt lat="45.53144" lon="6.10689">
        <ele>285.39999389648</ele>
        <time>2023-05-31T13:40:48.000Z</time>
      </trkpt>
      <trkpt lat="45.5315" lon="6.10694">
        <ele>285.39999389648</ele>
        <time>2023-05-31T13:40:49.000Z</time>
      </trkpt>
      <trkpt lat="45.53192" lon="6.10732">
        <ele>285.39999389648</ele>
        <time>2023-05-31T13:40:56.000Z</time>
      </trkpt>
      <trkpt lat="45.53244" lon="6.10775">
        <ele>285</ele>
        <time>2023-05-31T13:41:05.000Z</time>
      </trkpt>
      <trkpt lat="45.53268" lon="6.10794">
        <ele>284.79998779297</ele>
        <time>2023-05-31T13:41:09.000Z</time>
      </trkpt>
      <trkpt lat="45.5332" lon="6.10836">
        <ele>284.60000610352</ele>
        <time>2023-05-31T13:41:18.000Z</time>
      </trkpt>
      <trkpt lat="45.53332" lon="6.10846">
        <ele>284.60000610352</ele>
        <time>2023-05-31T13:41:20.000Z</time>
      </trkpt>
      <trkpt lat="45.53373" lon="6.1088">
        <ele>284.60000610352</ele>
        <time>2023-05-31T13:41:27.000Z</time>
      </trkpt>
      <trkpt lat="45.53421" lon="6.10919">
        <ele>284.79998779297</ele>
        <time>2023-05-31T13:41:35.000Z</time>
      </trkpt>
      <trkpt lat="45.53428" lon="6.10925">
        <ele>285</ele>
        <time>2023-05-31T13:41:36.000Z</time>
      </trkpt>
      <trkpt lat="45.53479" lon="6.10967">
        <ele>285.20001220703</ele>
        <time>2023-05-31T13:41:45.000Z</time>
      </trkpt>
      <trkpt lat="45.53485" lon="6.10972">
        <ele>285.20001220703</ele>
        <time>2023-05-31T13:41:46.000Z</time>
      </trkpt>
      <trkpt lat="45.5352" lon="6.10996">
        <ele>284.79998779297</ele>
        <time>2023-05-31T13:41:52.000Z</time>
      </trkpt>
      <trkpt lat="45.53524" lon="6.10998">
        <ele>284.79998779297</ele>
        <time>2023-05-31T13:41:53.000Z</time>
      </trkpt>
      <trkpt lat="45.53534" lon="6.11008">
        <ele>284.79998779297</ele>
        <time>2023-05-31T13:41:56.000Z</time>
      </trkpt>
      <trkpt lat="45.53542" lon="6.11018">
        <ele>285</ele>
        <time>2023-05-31T13:41:59.000Z</time>
      </trkpt>
      <trkpt lat="45.53553" lon="6.11026">
        <ele>285.20001220703</ele>
        <time>2023-05-31T13:42:01.000Z</time>
      </trkpt>
      <trkpt lat="45.53582" lon="6.11051">
        <ele>285.20001220703</ele>
        <time>2023-05-31T13:42:07.000Z</time>
      </trkpt>
      <trkpt lat="45.53617" lon="6.11081">
        <ele>285</ele>
        <time>2023-05-31T13:42:14.000Z</time>
      </trkpt>
      <trkpt lat="45.53656" lon="6.11119">
        <ele>284.60000610352</ele>
        <time>2023-05-31T13:42:21.000Z</time>
      </trkpt>
      <trkpt lat="45.53703" lon="6.11161">
        <ele>284.20001220703</ele>
        <time>2023-05-31T13:42:29.000Z</time>
      </trkpt>
      <trkpt lat="45.53719" lon="6.11175">
        <ele>284.20001220703</ele>
        <time>2023-05-31T13:42:32.000Z</time>
      </trkpt>
      <trkpt lat="45.53758" lon="6.11214">
        <ele>284.20001220703</ele>
        <time>2023-05-31T13:42:39.000Z</time>
      </trkpt>
      <trkpt lat="45.53795" lon="6.11262">
        <ele>284.20001220703</ele>
        <time>2023-05-31T13:42:47.000Z</time>
      </trkpt>
      <trkpt lat="45.538" lon="6.1127">
        <ele>284.20001220703</ele>
        <time>2023-05-31T13:42:48.000Z</time>
      </trkpt>
      <trkpt lat="45.53826" lon="6.11309">
        <ele>284.39999389648</ele>
        <time>2023-05-31T13:42:54.000Z</time>
      </trkpt>
      <trkpt lat="45.53867" lon="6.11366">
        <ele>285</ele>
        <time>2023-05-31T13:43:03.000Z</time>
      </trkpt>
      <trkpt lat="45.53876" lon="6.11378">
        <ele>285</ele>
        <time>2023-05-31T13:43:05.000Z</time>
      </trkpt>
      <trkpt lat="45.53889" lon="6.11395">
        <ele>285</ele>
        <time>2023-05-31T13:43:08.000Z</time>
      </trkpt>
      <trkpt lat="45.53893" lon="6.11401">
        <ele>285</ele>
        <time>2023-05-31T13:43:09.000Z</time>
      </trkpt>
      <trkpt lat="45.53897" lon="6.11406">
        <ele>285.20001220703</ele>
        <time>2023-05-31T13:43:10.000Z</time>
      </trkpt>
      <trkpt lat="45.53912" lon="6.11425">
        <ele>285.20001220703</ele>
        <time>2023-05-31T13:43:13.000Z</time>
      </trkpt>
      <trkpt lat="45.53943" lon="6.11469">
        <ele>285.39999389648</ele>
        <time>2023-05-31T13:43:20.000Z</time>
      </trkpt>
      <trkpt lat="45.53983" lon="6.11527">
        <ele>285.79998779297</ele>
        <time>2023-05-31T13:43:29.000Z</time>
      </trkpt>
      <trkpt lat="45.53987" lon="6.11531">
        <ele>285.79998779297</ele>
        <time>2023-05-31T13:43:30.000Z</time>
      </trkpt>
      <trkpt lat="45.54002" lon="6.11547">
        <ele>286</ele>
        <time>2023-05-31T13:43:33.000Z</time>
      </trkpt>
      <trkpt lat="45.54036" lon="6.11583">
        <ele>286.39999389648</ele>
        <time>2023-05-31T13:43:40.000Z</time>
      </trkpt>
      <trkpt lat="45.5407" lon="6.11621">
        <ele>286.39999389648</ele>
        <time>2023-05-31T13:43:47.000Z</time>
      </trkpt>
      <trkpt lat="45.54105" lon="6.11661">
        <ele>287</ele>
        <time>2023-05-31T13:43:55.000Z</time>
      </trkpt>
      <trkpt lat="45.54139" lon="6.11696">
        <ele>287</ele>
        <time>2023-05-31T13:44:02.000Z</time>
      </trkpt>
      <trkpt lat="45.54166" lon="6.11725">
        <ele>287</ele>
        <time>2023-05-31T13:44:08.000Z</time>
      </trkpt>
      <trkpt lat="45.54191" lon="6.11752">
        <ele>287.20001220703</ele>
        <time>2023-05-31T13:44:13.000Z</time>
      </trkpt>
      <trkpt lat="45.54211" lon="6.11771">
        <ele>287.20001220703</ele>
        <time>2023-05-31T13:44:17.000Z</time>
      </trkpt>
      <trkpt lat="45.54255" lon="6.11821">
        <ele>287.20001220703</ele>
        <time>2023-05-31T13:44:26.000Z</time>
      </trkpt>
      <trkpt lat="45.54259" lon="6.11825">
        <ele>287.20001220703</ele>
        <time>2023-05-31T13:44:27.000Z</time>
      </trkpt>
      <trkpt lat="45.54296" lon="6.1187">
        <ele>287.39999389648</ele>
        <time>2023-05-31T13:44:35.000Z</time>
      </trkpt>
      <trkpt lat="45.54333" lon="6.11912">
        <ele>287.39999389648</ele>
        <time>2023-05-31T13:44:43.000Z</time>
      </trkpt>
      <trkpt lat="45.54377" lon="6.11962">
        <ele>287.39999389648</ele>
        <time>2023-05-31T13:44:52.000Z</time>
      </trkpt>
      <trkpt lat="45.54383" lon="6.11969">
        <ele>287.39999389648</ele>
        <time>2023-05-31T13:44:53.000Z</time>
      </trkpt>
      <trkpt lat="45.54422" lon="6.12027">
        <ele>287.20001220703</ele>
        <time>2023-05-31T13:45:02.000Z</time>
      </trkpt>
      <trkpt lat="45.54426" lon="6.12034">
        <ele>287.20001220703</ele>
        <time>2023-05-31T13:45:03.000Z</time>
      </trkpt>
      <trkpt lat="45.54462" lon="6.121">
        <ele>287.39999389648</ele>
        <time>2023-05-31T13:45:12.000Z</time>
      </trkpt>
      <trkpt lat="45.54493" lon="6.12163">
        <ele>287.20001220703</ele>
        <time>2023-05-31T13:45:20.000Z</time>
      </trkpt>
      <trkpt lat="45.54496" lon="6.12171">
        <ele>287.20001220703</ele>
        <time>2023-05-31T13:45:21.000Z</time>
      </trkpt>
      <trkpt lat="45.54523" lon="6.12243">
        <ele>287.60000610352</ele>
        <time>2023-05-31T13:45:30.000Z</time>
      </trkpt>
      <trkpt lat="45.54552" lon="6.1231">
        <ele>287.79998779297</ele>
        <time>2023-05-31T13:45:39.000Z</time>
      </trkpt>
      <trkpt lat="45.54583" lon="6.12379">
        <ele>288</ele>
        <time>2023-05-31T13:45:48.000Z</time>
      </trkpt>
      <trkpt lat="45.54613" lon="6.12441">
        <ele>288.20001220703</ele>
        <time>2023-05-31T13:45:57.000Z</time>
      </trkpt>
      <trkpt lat="45.5462" lon="6.12454">
        <ele>288.39999389648</ele>
        <time>2023-05-31T13:45:59.000Z</time>
      </trkpt>
      <trkpt lat="45.54641" lon="6.12491">
        <ele>288.79998779297</ele>
        <time>2023-05-31T13:46:05.000Z</time>
      </trkpt>
      <trkpt lat="45.54676" lon="6.12549">
        <ele>289</ele>
        <time>2023-05-31T13:46:14.000Z</time>
      </trkpt>
      <trkpt lat="45.54713" lon="6.12606">
        <ele>288.79998779297</ele>
        <time>2023-05-31T13:46:23.000Z</time>
      </trkpt>
      <trkpt lat="45.54751" lon="6.12664">
        <ele>288.39999389648</ele>
        <time>2023-05-31T13:46:32.000Z</time>
      </trkpt>
      <trkpt lat="45.54755" lon="6.12669">
        <ele>288.39999389648</ele>
        <time>2023-05-31T13:46:33.000Z</time>
      </trkpt>
      <trkpt lat="45.54794" lon="6.12731">
        <ele>288.20001220703</ele>
        <time>2023-05-31T13:46:42.000Z</time>
      </trkpt>
      <trkpt lat="45.54797" lon="6.12737">
        <ele>288.20001220703</ele>
        <time>2023-05-31T13:46:43.000Z</time>
      </trkpt>
      <trkpt lat="45.54837" lon="6.128">
        <ele>288</ele>
        <time>2023-05-31T13:46:52.000Z</time>
      </trkpt>
      <trkpt lat="45.54871" lon="6.12853">
        <ele>288.20001220703</ele>
        <time>2023-05-31T13:47:00.000Z</time>
      </trkpt>
      <trkpt lat="45.54879" lon="6.12865">
        <ele>288.39999389648</ele>
        <time>2023-05-31T13:47:02.000Z</time>
      </trkpt>
      <trkpt lat="45.54882" lon="6.12876">
        <ele>288.39999389648</ele>
        <time>2023-05-31T13:47:04.000Z</time>
      </trkpt>
      <trkpt lat="45.54876" lon="6.1289">
        <ele>289</ele>
        <time>2023-05-31T13:47:07.000Z</time>
      </trkpt>
      <trkpt lat="45.54872" lon="6.12893">
        <ele>289.60000610352</ele>
        <time>2023-05-31T13:47:08.000Z</time>
      </trkpt>
      <trkpt lat="45.54856" lon="6.129">
        <ele>290.39999389648</ele>
        <time>2023-05-31T13:47:11.000Z</time>
      </trkpt>
      <trkpt lat="45.54846" lon="6.12904">
        <ele>290.60000610352</ele>
        <time>2023-05-31T13:47:13.000Z</time>
      </trkpt>
      <trkpt lat="45.5484" lon="6.12907">
        <ele>290.60000610352</ele>
        <time>2023-05-31T13:47:14.000Z</time>
      </trkpt>
      <trkpt lat="45.54836" lon="6.12911">
        <ele>290.60000610352</ele>
        <time>2023-05-31T13:47:15.000Z</time>
      </trkpt>
      <trkpt lat="45.54833" lon="6.12918">
        <ele>290.60000610352</ele>
        <time>2023-05-31T13:47:16.000Z</time>
      </trkpt>
      <trkpt lat="45.54832" lon="6.12936">
        <ele>290.60000610352</ele>
        <time>2023-05-31T13:47:18.000Z</time>
      </trkpt>
      <trkpt lat="45.54846" lon="6.12992">
        <ele>289.79998779297</ele>
        <time>2023-05-31T13:47:24.000Z</time>
      </trkpt>
      <trkpt lat="45.54851" lon="6.13008">
        <ele>289.60000610352</ele>
        <time>2023-05-31T13:47:26.000Z</time>
      </trkpt>
      <trkpt lat="45.54868" lon="6.13066">
        <ele>289.39999389648</ele>
        <time>2023-05-31T13:47:33.000Z</time>
      </trkpt>
      <trkpt lat="45.54889" lon="6.13141">
        <ele>289.39999389648</ele>
        <time>2023-05-31T13:47:42.000Z</time>
      </trkpt>
      <trkpt lat="45.54901" lon="6.13191">
        <ele>289.39999389648</ele>
        <time>2023-05-31T13:47:48.000Z</time>
      </trkpt>
      <trkpt lat="45.54914" lon="6.13238">
        <ele>289.39999389648</ele>
        <time>2023-05-31T13:47:54.000Z</time>
      </trkpt>
      <trkpt lat="45.54928" lon="6.13285">
        <ele>289.60000610352</ele>
        <time>2023-05-31T13:48:00.000Z</time>
      </trkpt>
      <trkpt lat="45.54943" lon="6.13344">
        <ele>289.39999389648</ele>
        <time>2023-05-31T13:48:07.000Z</time>
      </trkpt>
      <trkpt lat="45.54948" lon="6.1336">
        <ele>289.39999389648</ele>
        <time>2023-05-31T13:48:09.000Z</time>
      </trkpt>
      <trkpt lat="45.54957" lon="6.13394">
        <ele>289.39999389648</ele>
        <time>2023-05-31T13:48:13.000Z</time>
      </trkpt>
      <trkpt lat="45.54974" lon="6.13458">
        <ele>289.20001220703</ele>
        <time>2023-05-31T13:48:21.000Z</time>
      </trkpt>
      <trkpt lat="45.54992" lon="6.13523">
        <ele>289.20001220703</ele>
        <time>2023-05-31T13:48:29.000Z</time>
      </trkpt>
      <trkpt lat="45.54996" lon="6.13537">
        <ele>289.20001220703</ele>
        <time>2023-05-31T13:48:31.000Z</time>
      </trkpt>
      <trkpt lat="45.55003" lon="6.13569">
        <ele>289.39999389648</ele>
        <time>2023-05-31T13:48:35.000Z</time>
      </trkpt>
      <trkpt lat="45.55021" lon="6.13643">
        <ele>289.39999389648</ele>
        <time>2023-05-31T13:48:44.000Z</time>
      </trkpt>
      <trkpt lat="45.5504" lon="6.13719">
        <ele>289.60000610352</ele>
        <time>2023-05-31T13:48:53.000Z</time>
      </trkpt>
      <trkpt lat="45.55046" lon="6.13742">
        <ele>289.79998779297</ele>
        <time>2023-05-31T13:48:56.000Z</time>
      </trkpt>
      <trkpt lat="45.55048" lon="6.13766">
        <ele>289.79998779297</ele>
        <time>2023-05-31T13:48:59.000Z</time>
      </trkpt>
      <trkpt lat="45.5506" lon="6.13826">
        <ele>290</ele>
        <time>2023-05-31T13:49:06.000Z</time>
      </trkpt>
      <trkpt lat="45.55081" lon="6.13899">
        <ele>289.79998779297</ele>
        <time>2023-05-31T13:49:15.000Z</time>
      </trkpt>
      <trkpt lat="45.55084" lon="6.13907">
        <ele>289.79998779297</ele>
        <time>2023-05-31T13:49:16.000Z</time>
      </trkpt>
      <trkpt lat="45.55086" lon="6.13924">
        <ele>289.79998779297</ele>
        <time>2023-05-31T13:49:18.000Z</time>
      </trkpt>
      <trkpt lat="45.55088" lon="6.13942">
        <ele>289.79998779297</ele>
        <time>2023-05-31T13:49:20.000Z</time>
      </trkpt>
      <trkpt lat="45.55094" lon="6.1397">
        <ele>289.79998779297</ele>
        <time>2023-05-31T13:49:23.000Z</time>
      </trkpt>
      <trkpt lat="45.5511" lon="6.14033">
        <ele>289.79998779297</ele>
        <time>2023-05-31T13:49:30.000Z</time>
      </trkpt>
      <trkpt lat="45.55123" lon="6.14081">
        <ele>290</ele>
        <time>2023-05-31T13:49:36.000Z</time>
      </trkpt>
      <trkpt lat="45.55132" lon="6.14108">
        <ele>290</ele>
        <time>2023-05-31T13:49:40.000Z</time>
      </trkpt>
      <trkpt lat="45.5513" lon="6.14113">
        <ele>290</ele>
        <time>2023-05-31T13:49:41.000Z</time>
      </trkpt>
      <trkpt lat="45.5512" lon="6.1412">
        <ele>290.20001220703</ele>
        <time>2023-05-31T13:49:44.000Z</time>
      </trkpt>
      <trkpt lat="45.55115" lon="6.14121">
        <ele>290.20001220703</ele>
        <time>2023-05-31T13:49:45.000Z</time>
      </trkpt>
      <trkpt lat="45.55094" lon="6.14129">
        <ele>290.20001220703</ele>
        <time>2023-05-31T13:49:49.000Z</time>
      </trkpt>
      <trkpt lat="45.55053" lon="6.14143">
        <ele>290</ele>
        <time>2023-05-31T13:49:56.000Z</time>
      </trkpt>
      <trkpt lat="45.55007" lon="6.14166">
        <ele>289.79998779297</ele>
        <time>2023-05-31T13:50:04.000Z</time>
      </trkpt>
      <trkpt lat="45.54965" lon="6.14205">
        <ele>289.79998779297</ele>
        <time>2023-05-31T13:50:12.000Z</time>
      </trkpt>
      <trkpt lat="45.54926" lon="6.14234">
        <ele>289.60000610352</ele>
        <time>2023-05-31T13:50:19.000Z</time>
      </trkpt>
      <trkpt lat="45.54896" lon="6.14249">
        <ele>289.60000610352</ele>
        <time>2023-05-31T13:50:24.000Z</time>
      </trkpt>
      <trkpt lat="45.54884" lon="6.14253">
        <ele>289.79998779297</ele>
        <time>2023-05-31T13:50:26.000Z</time>
      </trkpt>
      <trkpt lat="45.54863" lon="6.1426">
        <ele>289.79998779297</ele>
        <time>2023-05-31T13:50:30.000Z</time>
      </trkpt>
      <trkpt lat="45.54832" lon="6.14276">
        <ele>290</ele>
        <time>2023-05-31T13:50:35.000Z</time>
      </trkpt>
      <trkpt lat="45.54795" lon="6.14294">
        <ele>290.39999389648</ele>
        <time>2023-05-31T13:50:41.000Z</time>
      </trkpt>
      <trkpt lat="45.54768" lon="6.14305">
        <ele>290.39999389648</ele>
        <time>2023-05-31T13:50:45.000Z</time>
      </trkpt>
      <trkpt lat="45.5472" lon="6.14331">
        <ele>290.39999389648</ele>
        <time>2023-05-31T13:50:52.000Z</time>
      </trkpt>
      <trkpt lat="45.54677" lon="6.14354">
        <ele>289.79998779297</ele>
        <time>2023-05-31T13:50:59.000Z</time>
      </trkpt>
      <trkpt lat="45.54637" lon="6.14371">
        <ele>290</ele>
        <time>2023-05-31T13:51:06.000Z</time>
      </trkpt>
      <trkpt lat="45.54629" lon="6.14376">
        <ele>290.20001220703</ele>
        <time>2023-05-31T13:51:08.000Z</time>
      </trkpt>
      <trkpt lat="45.54627" lon="6.14384">
        <ele>290.39999389648</ele>
        <time>2023-05-31T13:51:10.000Z</time>
      </trkpt>
      <trkpt lat="45.54631" lon="6.14395">
        <ele>290.60000610352</ele>
        <time>2023-05-31T13:51:12.000Z</time>
      </trkpt>
      <trkpt lat="45.54635" lon="6.14402">
        <ele>290.79998779297</ele>
        <time>2023-05-31T13:51:13.000Z</time>
      </trkpt>
      <trkpt lat="45.54638" lon="6.14408">
        <ele>290.79998779297</ele>
        <time>2023-05-31T13:51:14.000Z</time>
      </trkpt>
      <trkpt lat="45.54654" lon="6.14432">
        <ele>291</ele>
        <time>2023-05-31T13:51:18.000Z</time>
      </trkpt>
      <trkpt lat="45.54658" lon="6.14441">
        <ele>291</ele>
        <time>2023-05-31T13:51:19.000Z</time>
      </trkpt>
      <trkpt lat="45.5467" lon="6.1447">
        <ele>291</ele>
        <time>2023-05-31T13:51:23.000Z</time>
      </trkpt>
      <trkpt lat="45.54687" lon="6.14517">
        <ele>291</ele>
        <time>2023-05-31T13:51:29.000Z</time>
      </trkpt>
      <trkpt lat="45.54706" lon="6.14558">
        <ele>291.20001220703</ele>
        <time>2023-05-31T13:51:35.000Z</time>
      </trkpt>
      <trkpt lat="45.54719" lon="6.14586">
        <ele>291.60000610352</ele>
        <time>2023-05-31T13:51:39.000Z</time>
      </trkpt>
      <trkpt lat="45.5473" lon="6.14607">
        <ele>291.60000610352</ele>
        <time>2023-05-31T13:51:42.000Z</time>
      </trkpt>
      <trkpt lat="45.54754" lon="6.14654">
        <ele>291.79998779297</ele>
        <time>2023-05-31T13:51:49.000Z</time>
      </trkpt>
      <trkpt lat="45.54778" lon="6.14703">
        <ele>291.79998779297</ele>
        <time>2023-05-31T13:51:56.000Z</time>
      </trkpt>
      <trkpt lat="45.54809" lon="6.1477">
        <ele>291.79998779297</ele>
        <time>2023-05-31T13:52:05.000Z</time>
      </trkpt>
      <trkpt lat="45.54812" lon="6.14777">
        <ele>291.79998779297</ele>
        <time>2023-05-31T13:52:06.000Z</time>
      </trkpt>
      <trkpt lat="45.54834" lon="6.14829">
        <ele>291.79998779297</ele>
        <time>2023-05-31T13:52:13.000Z</time>
      </trkpt>
      <trkpt lat="45.54848" lon="6.1486">
        <ele>291.60000610352</ele>
        <time>2023-05-31T13:52:17.000Z</time>
      </trkpt>
      <trkpt lat="45.54857" lon="6.14881">
        <ele>291.60000610352</ele>
        <time>2023-05-31T13:52:20.000Z</time>
      </trkpt>
      <trkpt lat="45.54886" lon="6.14943">
        <ele>291.79998779297</ele>
        <time>2023-05-31T13:52:28.000Z</time>
      </trkpt>
      <trkpt lat="45.54898" lon="6.14973">
        <ele>292</ele>
        <time>2023-05-31T13:52:32.000Z</time>
      </trkpt>
      <trkpt lat="45.54917" lon="6.1502">
        <ele>292.20001220703</ele>
        <time>2023-05-31T13:52:38.000Z</time>
      </trkpt>
      <trkpt lat="45.54945" lon="6.15086">
        <ele>292.39999389648</ele>
        <time>2023-05-31T13:52:47.000Z</time>
      </trkpt>
      <trkpt lat="45.54962" lon="6.1512">
        <ele>292.60000610352</ele>
        <time>2023-05-31T13:52:52.000Z</time>
      </trkpt>
      <trkpt lat="45.54973" lon="6.15144">
        <ele>292.60000610352</ele>
        <time>2023-05-31T13:52:55.000Z</time>
      </trkpt>
      <trkpt lat="45.5498" lon="6.15158">
        <ele>292.79998779297</ele>
        <time>2023-05-31T13:52:57.000Z</time>
      </trkpt>
      <trkpt lat="45.54996" lon="6.15197">
        <ele>292.79998779297</ele>
        <time>2023-05-31T13:53:02.000Z</time>
      </trkpt>
      <trkpt lat="45.55025" lon="6.15263">
        <ele>292.79998779297</ele>
        <time>2023-05-31T13:53:11.000Z</time>
      </trkpt>
      <trkpt lat="45.55055" lon="6.1533">
        <ele>292.79998779297</ele>
        <time>2023-05-31T13:53:20.000Z</time>
      </trkpt>
      <trkpt lat="45.55081" lon="6.15386">
        <ele>293</ele>
        <time>2023-05-31T13:53:28.000Z</time>
      </trkpt>
      <trkpt lat="45.55097" lon="6.15419">
        <ele>293</ele>
        <time>2023-05-31T13:53:33.000Z</time>
      </trkpt>
      <trkpt lat="45.55117" lon="6.15459">
        <ele>292.79998779297</ele>
        <time>2023-05-31T13:53:39.000Z</time>
      </trkpt>
      <trkpt lat="45.55142" lon="6.15518">
        <ele>292.79998779297</ele>
        <time>2023-05-31T13:53:46.000Z</time>
      </trkpt>
      <trkpt lat="45.55163" lon="6.15569">
        <ele>293</ele>
        <time>2023-05-31T13:53:52.000Z</time>
      </trkpt>
      <trkpt lat="45.55178" lon="6.15603">
        <ele>293</ele>
        <time>2023-05-31T13:53:56.000Z</time>
      </trkpt>
      <trkpt lat="45.55195" lon="6.15641">
        <ele>293</ele>
        <time>2023-05-31T13:54:01.000Z</time>
      </trkpt>
      <trkpt lat="45.55225" lon="6.15709">
        <ele>292.79998779297</ele>
        <time>2023-05-31T13:54:10.000Z</time>
      </trkpt>
      <trkpt lat="45.55228" lon="6.15716">
        <ele>292.79998779297</ele>
        <time>2023-05-31T13:54:11.000Z</time>
      </trkpt>
      <trkpt lat="45.55242" lon="6.15746">
        <ele>292.79998779297</ele>
        <time>2023-05-31T13:54:15.000Z</time>
      </trkpt>
      <trkpt lat="45.55248" lon="6.15761">
        <ele>292.79998779297</ele>
        <time>2023-05-31T13:54:17.000Z</time>
      </trkpt>
      <trkpt lat="45.55273" lon="6.15812">
        <ele>293</ele>
        <time>2023-05-31T13:54:24.000Z</time>
      </trkpt>
      <trkpt lat="45.55293" lon="6.15856">
        <ele>293.39999389648</ele>
        <time>2023-05-31T13:54:30.000Z</time>
      </trkpt>
      <trkpt lat="45.55298" lon="6.15862">
        <ele>293.39999389648</ele>
        <time>2023-05-31T13:54:31.000Z</time>
      </trkpt>
      <trkpt lat="45.55303" lon="6.15866">
        <ele>293.20001220703</ele>
        <time>2023-05-31T13:54:32.000Z</time>
      </trkpt>
      <trkpt lat="45.55315" lon="6.15871">
        <ele>293.20001220703</ele>
        <time>2023-05-31T13:54:34.000Z</time>
      </trkpt>
      <trkpt lat="45.55321" lon="6.15874">
        <ele>293.20001220703</ele>
        <time>2023-05-31T13:54:35.000Z</time>
      </trkpt>
      <trkpt lat="45.55339" lon="6.15887">
        <ele>293.39999389648</ele>
        <time>2023-05-31T13:54:38.000Z</time>
      </trkpt>
      <trkpt lat="45.55349" lon="6.15888">
        <ele>293.60000610352</ele>
        <time>2023-05-31T13:54:40.000Z</time>
      </trkpt>
      <trkpt lat="45.55355" lon="6.15886">
        <ele>293.79998779297</ele>
        <time>2023-05-31T13:54:41.000Z</time>
      </trkpt>
      <trkpt lat="45.5539" lon="6.15863">
        <ele>293.20001220703</ele>
        <time>2023-05-31T13:54:47.000Z</time>
      </trkpt>
      <trkpt lat="45.55427" lon="6.15845">
        <ele>292.39999389648</ele>
        <time>2023-05-31T13:54:54.000Z</time>
      </trkpt>
      <trkpt lat="45.55437" lon="6.15847">
        <ele>292</ele>
        <time>2023-05-31T13:54:57.000Z</time>
      </trkpt>
      <trkpt lat="45.55443" lon="6.15864">
        <ele>292.39999389648</ele>
        <time>2023-05-31T13:55:01.000Z</time>
      </trkpt>
      <trkpt lat="45.55448" lon="6.15894">
        <ele>292.60000610352</ele>
        <time>2023-05-31T13:55:05.000Z</time>
      </trkpt>
      <trkpt lat="45.55454" lon="6.15944">
        <ele>292.79998779297</ele>
        <time>2023-05-31T13:55:11.000Z</time>
      </trkpt>
      <trkpt lat="45.55463" lon="6.16013">
        <ele>292.79998779297</ele>
        <time>2023-05-31T13:55:19.000Z</time>
      </trkpt>
      <trkpt lat="45.55473" lon="6.16092">
        <ele>292.79998779297</ele>
        <time>2023-05-31T13:55:28.000Z</time>
      </trkpt>
      <trkpt lat="45.55484" lon="6.16173">
        <ele>293.20001220703</ele>
        <time>2023-05-31T13:55:38.000Z</time>
      </trkpt>
      <trkpt lat="45.55492" lon="6.16249">
        <ele>293.39999389648</ele>
        <time>2023-05-31T13:55:47.000Z</time>
      </trkpt>
      <trkpt lat="45.55492" lon="6.16258">
        <ele>293.60000610352</ele>
        <time>2023-05-31T13:55:48.000Z</time>
      </trkpt>
      <trkpt lat="45.55491" lon="6.1628">
        <ele>293.60000610352</ele>
        <time>2023-05-31T13:55:51.000Z</time>
      </trkpt>
      <trkpt lat="45.55493" lon="6.16297">
        <ele>293.60000610352</ele>
        <time>2023-05-31T13:55:53.000Z</time>
      </trkpt>
      <trkpt lat="45.55497" lon="6.16314">
        <ele>293.79998779297</ele>
        <time>2023-05-31T13:55:55.000Z</time>
      </trkpt>
      <trkpt lat="45.55506" lon="6.16338">
        <ele>294</ele>
        <time>2023-05-31T13:55:58.000Z</time>
      </trkpt>
      <trkpt lat="45.55517" lon="6.1636">
        <ele>294.20001220703</ele>
        <time>2023-05-31T13:56:01.000Z</time>
      </trkpt>
      <trkpt lat="45.55545" lon="6.16418">
        <ele>294.20001220703</ele>
        <time>2023-05-31T13:56:09.000Z</time>
      </trkpt>
      <trkpt lat="45.55576" lon="6.16489">
        <ele>294.60000610352</ele>
        <time>2023-05-31T13:56:19.000Z</time>
      </trkpt>
      <trkpt lat="45.5558" lon="6.16496">
        <ele>294.60000610352</ele>
        <time>2023-05-31T13:56:20.000Z</time>
      </trkpt>
      <trkpt lat="45.55604" lon="6.16554">
        <ele>294.60000610352</ele>
        <time>2023-05-31T13:56:28.000Z</time>
      </trkpt>
      <trkpt lat="45.55608" lon="6.1656">
        <ele>294.39999389648</ele>
        <time>2023-05-31T13:56:29.000Z</time>
      </trkpt>
      <trkpt lat="45.55617" lon="6.16569">
        <ele>294.20001220703</ele>
        <time>2023-05-31T13:56:31.000Z</time>
      </trkpt>
      <trkpt lat="45.55631" lon="6.16571">
        <ele>294</ele>
        <time>2023-05-31T13:56:34.000Z</time>
      </trkpt>
      <trkpt lat="45.55635" lon="6.16571">
        <ele>294</ele>
        <time>2023-05-31T13:56:35.000Z</time>
      </trkpt>
      <trkpt lat="45.55642" lon="6.16573">
        <ele>294</ele>
        <time>2023-05-31T13:56:37.000Z</time>
      </trkpt>
      <trkpt lat="45.55647" lon="6.16578">
        <ele>293.79998779297</ele>
        <time>2023-05-31T13:56:39.000Z</time>
      </trkpt>
      <trkpt lat="45.55657" lon="6.16589">
        <ele>293.79998779297</ele>
        <time>2023-05-31T13:56:43.000Z</time>
      </trkpt>
      <trkpt lat="45.55661" lon="6.16588">
        <ele>293.79998779297</ele>
        <time>2023-05-31T13:56:44.000Z</time>
      </trkpt>
      <trkpt lat="45.55664" lon="6.16585">
        <ele>293.79998779297</ele>
        <time>2023-05-31T13:56:45.000Z</time>
      </trkpt>
      <trkpt lat="45.55671" lon="6.16571">
        <ele>293.60000610352</ele>
        <time>2023-05-31T13:56:48.000Z</time>
      </trkpt>
      <trkpt lat="45.55688" lon="6.16543">
        <ele>293.20001220703</ele>
        <time>2023-05-31T13:56:53.000Z</time>
      </trkpt>
      <trkpt lat="45.55691" lon="6.16537">
        <ele>293.20001220703</ele>
        <time>2023-05-31T13:56:54.000Z</time>
      </trkpt>
      <trkpt lat="45.55706" lon="6.16513">
        <ele>293</ele>
        <time>2023-05-31T13:56:58.000Z</time>
      </trkpt>
      <trkpt lat="45.55711" lon="6.16507">
        <ele>293</ele>
        <time>2023-05-31T13:56:59.000Z</time>
      </trkpt>
      <trkpt lat="45.55719" lon="6.16496">
        <ele>293</ele>
        <time>2023-05-31T13:57:01.000Z</time>
      </trkpt>
      <trkpt lat="45.55728" lon="6.16488">
        <ele>293.20001220703</ele>
        <time>2023-05-31T13:57:03.000Z</time>
      </trkpt>
      <trkpt lat="45.55744" lon="6.16479">
        <ele>293.39999389648</ele>
        <time>2023-05-31T13:57:06.000Z</time>
      </trkpt>
      <trkpt lat="45.55755" lon="6.1648">
        <ele>293.39999389648</ele>
        <time>2023-05-31T13:57:08.000Z</time>
      </trkpt>
      <trkpt lat="45.55778" lon="6.16493">
        <ele>293.20001220703</ele>
        <time>2023-05-31T13:57:12.000Z</time>
      </trkpt>
      <trkpt lat="45.55815" lon="6.16509">
        <ele>293</ele>
        <time>2023-05-31T13:57:18.000Z</time>
      </trkpt>
      <trkpt lat="45.55832" lon="6.16517">
        <ele>293</ele>
        <time>2023-05-31T13:57:21.000Z</time>
      </trkpt>
      <trkpt lat="45.55842" lon="6.16526">
        <ele>293</ele>
        <time>2023-05-31T13:57:23.000Z</time>
      </trkpt>
      <trkpt lat="45.55851" lon="6.16538">
        <ele>293</ele>
        <time>2023-05-31T13:57:25.000Z</time>
      </trkpt>
      <trkpt lat="45.55856" lon="6.16552">
        <ele>293.20001220703</ele>
        <time>2023-05-31T13:57:27.000Z</time>
      </trkpt>
      <trkpt lat="45.55859" lon="6.16569">
        <ele>293.39999389648</ele>
        <time>2023-05-31T13:57:29.000Z</time>
      </trkpt>
      <trkpt lat="45.5586" lon="6.16586">
        <ele>293.60000610352</ele>
        <time>2023-05-31T13:57:31.000Z</time>
      </trkpt>
      <trkpt lat="45.55861" lon="6.16638">
        <ele>293.79998779297</ele>
        <time>2023-05-31T13:57:37.000Z</time>
      </trkpt>
      <trkpt lat="45.55865" lon="6.1671">
        <ele>294</ele>
        <time>2023-05-31T13:57:45.000Z</time>
      </trkpt>
      <trkpt lat="45.55866" lon="6.16719">
        <ele>294</ele>
        <time>2023-05-31T13:57:46.000Z</time>
      </trkpt>
      <trkpt lat="45.55867" lon="6.16727">
        <ele>294</ele>
        <time>2023-05-31T13:57:47.000Z</time>
      </trkpt>
      <trkpt lat="45.5587" lon="6.16744">
        <ele>294</ele>
        <time>2023-05-31T13:57:49.000Z</time>
      </trkpt>
      <trkpt lat="45.55872" lon="6.1676">
        <ele>294.20001220703</ele>
        <time>2023-05-31T13:57:51.000Z</time>
      </trkpt>
      <trkpt lat="45.55889" lon="6.16836">
        <ele>294.39999389648</ele>
        <time>2023-05-31T13:58:00.000Z</time>
      </trkpt>
      <trkpt lat="45.55891" lon="6.16844">
        <ele>294.39999389648</ele>
        <time>2023-05-31T13:58:01.000Z</time>
      </trkpt>
      <trkpt lat="45.55897" lon="6.16901">
        <ele>294.39999389648</ele>
        <time>2023-05-31T13:58:08.000Z</time>
      </trkpt>
      <trkpt lat="45.55899" lon="6.16911">
        <ele>294.39999389648</ele>
        <time>2023-05-31T13:58:09.000Z</time>
      </trkpt>
      <trkpt lat="45.55906" lon="6.1693">
        <ele>294.60000610352</ele>
        <time>2023-05-31T13:58:12.000Z</time>
      </trkpt>
      <trkpt lat="45.55929" lon="6.16979">
        <ele>295</ele>
        <time>2023-05-31T13:58:19.000Z</time>
      </trkpt>
      <trkpt lat="45.55936" lon="6.16993">
        <ele>295</ele>
        <time>2023-05-31T13:58:21.000Z</time>
      </trkpt>
      <trkpt lat="45.55955" lon="6.17024">
        <ele>295.39999389648</ele>
        <time>2023-05-31T13:58:26.000Z</time>
      </trkpt>
      <trkpt lat="45.55963" lon="6.17037">
        <ele>295.39999389648</ele>
        <time>2023-05-31T13:58:28.000Z</time>
      </trkpt>
      <trkpt lat="45.55963" lon="6.17042">
        <ele>295.39999389648</ele>
        <time>2023-05-31T13:58:29.000Z</time>
      </trkpt>
      <trkpt lat="45.55956" lon="6.17058">
        <ele>295.39999389648</ele>
        <time>2023-05-31T13:58:32.000Z</time>
      </trkpt>
      <trkpt lat="45.55952" lon="6.17061">
        <ele>295.39999389648</ele>
        <time>2023-05-31T13:58:33.000Z</time>
      </trkpt>
      <trkpt lat="45.5593" lon="6.17084">
        <ele>295.39999389648</ele>
        <time>2023-05-31T13:58:38.000Z</time>
      </trkpt>
      <trkpt lat="45.55928" lon="6.17096">
        <ele>295.39999389648</ele>
        <time>2023-05-31T13:58:40.000Z</time>
      </trkpt>
      <trkpt lat="45.55931" lon="6.17104">
        <ele>295.60000610352</ele>
        <time>2023-05-31T13:58:41.000Z</time>
      </trkpt>
      <trkpt lat="45.55962" lon="6.17158">
        <ele>295.60000610352</ele>
        <time>2023-05-31T13:58:50.000Z</time>
      </trkpt>
      <trkpt lat="45.55996" lon="6.17225">
        <ele>295.20001220703</ele>
        <time>2023-05-31T13:58:59.000Z</time>
      </trkpt>
      <trkpt lat="45.56001" lon="6.17234">
        <ele>295</ele>
        <time>2023-05-31T13:59:00.000Z</time>
      </trkpt>
      <trkpt lat="45.56031" lon="6.17289">
        <ele>295</ele>
        <time>2023-05-31T13:59:08.000Z</time>
      </trkpt>
      <trkpt lat="45.56061" lon="6.17348">
        <ele>295.20001220703</ele>
        <time>2023-05-31T13:59:16.000Z</time>
      </trkpt>
      <trkpt lat="45.56086" lon="6.17396">
        <ele>295.20001220703</ele>
        <time>2023-05-31T13:59:23.000Z</time>
      </trkpt>
      <trkpt lat="45.56101" lon="6.17421">
        <ele>295.39999389648</ele>
        <time>2023-05-31T13:59:27.000Z</time>
      </trkpt>
      <trkpt lat="45.56109" lon="6.17429">
        <ele>295.39999389648</ele>
        <time>2023-05-31T13:59:29.000Z</time>
      </trkpt>
      <trkpt lat="45.56114" lon="6.17439">
        <ele>295.60000610352</ele>
        <time>2023-05-31T13:59:31.000Z</time>
      </trkpt>
      <trkpt lat="45.56116" lon="6.17447">
        <ele>295.39999389648</ele>
        <time>2023-05-31T13:59:32.000Z</time>
      </trkpt>
      <trkpt lat="45.56133" lon="6.17481">
        <ele>295.79998779297</ele>
        <time>2023-05-31T13:59:37.000Z</time>
      </trkpt>
      <trkpt lat="45.56158" lon="6.1753">
        <ele>295.79998779297</ele>
        <time>2023-05-31T13:59:44.000Z</time>
      </trkpt>
      <trkpt lat="45.56192" lon="6.17595">
        <ele>296.20001220703</ele>
        <time>2023-05-31T13:59:54.000Z</time>
      </trkpt>
      <trkpt lat="45.56225" lon="6.17657">
        <ele>296</ele>
        <time>2023-05-31T14:00:03.000Z</time>
      </trkpt>
      <trkpt lat="45.56236" lon="6.17678">
        <ele>296.20001220703</ele>
        <time>2023-05-31T14:00:06.000Z</time>
      </trkpt>
      <trkpt lat="45.5627" lon="6.1774">
        <ele>296.39999389648</ele>
        <time>2023-05-31T14:00:15.000Z</time>
      </trkpt>
      <trkpt lat="45.56281" lon="6.1776">
        <ele>296.39999389648</ele>
        <time>2023-05-31T14:00:18.000Z</time>
      </trkpt>
      <trkpt lat="45.56312" lon="6.17816">
        <ele>296.20001220703</ele>
        <time>2023-05-31T14:00:26.000Z</time>
      </trkpt>
      <trkpt lat="45.56336" lon="6.17859">
        <ele>296.60000610352</ele>
        <time>2023-05-31T14:00:33.000Z</time>
      </trkpt>
      <trkpt lat="45.56351" lon="6.17882">
        <ele>296.79998779297</ele>
        <time>2023-05-31T14:00:37.000Z</time>
      </trkpt>
      <trkpt lat="45.5636" lon="6.17895">
        <ele>296.79998779297</ele>
        <time>2023-05-31T14:00:39.000Z</time>
      </trkpt>
      <trkpt lat="45.56363" lon="6.1791">
        <ele>296.79998779297</ele>
        <time>2023-05-31T14:00:41.000Z</time>
      </trkpt>
      <trkpt lat="45.56369" lon="6.17922">
        <ele>296.79998779297</ele>
        <time>2023-05-31T14:00:43.000Z</time>
      </trkpt>
      <trkpt lat="45.56379" lon="6.17928">
        <ele>296.60000610352</ele>
        <time>2023-05-31T14:00:45.000Z</time>
      </trkpt>
      <trkpt lat="45.56386" lon="6.17929">
        <ele>296.39999389648</ele>
        <time>2023-05-31T14:00:46.000Z</time>
      </trkpt>
      <trkpt lat="45.56429" lon="6.1793">
        <ele>296</ele>
        <time>2023-05-31T14:00:54.000Z</time>
      </trkpt>
      <trkpt lat="45.56447" lon="6.17933">
        <ele>296</ele>
        <time>2023-05-31T14:00:57.000Z</time>
      </trkpt>
      <trkpt lat="45.56455" lon="6.17937">
        <ele>296</ele>
        <time>2023-05-31T14:00:59.000Z</time>
      </trkpt>
      <trkpt lat="45.56476" lon="6.17945">
        <ele>296.20001220703</ele>
        <time>2023-05-31T14:01:03.000Z</time>
      </trkpt>
      <trkpt lat="45.56526" lon="6.17964">
        <ele>296.39999389648</ele>
        <time>2023-05-31T14:01:11.000Z</time>
      </trkpt>
      <trkpt lat="45.56574" lon="6.17982">
        <ele>296.39999389648</ele>
        <time>2023-05-31T14:01:19.000Z</time>
      </trkpt>
      <trkpt lat="45.56626" lon="6.18005">
        <ele>296</ele>
        <time>2023-05-31T14:01:28.000Z</time>
      </trkpt>
      <trkpt lat="45.56648" lon="6.18015">
        <ele>296</ele>
        <time>2023-05-31T14:01:32.000Z</time>
      </trkpt>
      <trkpt lat="45.56661" lon="6.18013">
        <ele>296</ele>
        <time>2023-05-31T14:01:34.000Z</time>
      </trkpt>
      <trkpt lat="45.56674" lon="6.17999">
        <ele>296</ele>
        <time>2023-05-31T14:01:37.000Z</time>
      </trkpt>
      <trkpt lat="45.5668" lon="6.17994">
        <ele>296</ele>
        <time>2023-05-31T14:01:38.000Z</time>
      </trkpt>
      <trkpt lat="45.56687" lon="6.1799">
        <ele>296</ele>
        <time>2023-05-31T14:01:39.000Z</time>
      </trkpt>
      <trkpt lat="45.56715" lon="6.17979">
        <ele>296</ele>
        <time>2023-05-31T14:01:44.000Z</time>
      </trkpt>
      <trkpt lat="45.56762" lon="6.1796">
        <ele>296.20001220703</ele>
        <time>2023-05-31T14:01:52.000Z</time>
      </trkpt>
      <trkpt lat="45.56803" lon="6.17944">
        <ele>296.79998779297</ele>
        <time>2023-05-31T14:01:59.000Z</time>
      </trkpt>
      <trkpt lat="45.56809" lon="6.17943">
        <ele>297</ele>
        <time>2023-05-31T14:02:00.000Z</time>
      </trkpt>
      <trkpt lat="45.56825" lon="6.17944">
        <ele>297</ele>
        <time>2023-05-31T14:02:03.000Z</time>
      </trkpt>
      <trkpt lat="45.56837" lon="6.17948">
        <ele>297.20001220703</ele>
        <time>2023-05-31T14:02:05.000Z</time>
      </trkpt>
      <trkpt lat="45.56852" lon="6.1796">
        <ele>297.20001220703</ele>
        <time>2023-05-31T14:02:08.000Z</time>
      </trkpt>
      <trkpt lat="45.5686" lon="6.17971">
        <ele>297.39999389648</ele>
        <time>2023-05-31T14:02:10.000Z</time>
      </trkpt>
      <trkpt lat="45.56883" lon="6.18021">
        <ele>297.39999389648</ele>
        <time>2023-05-31T14:02:17.000Z</time>
      </trkpt>
      <trkpt lat="45.56915" lon="6.18095">
        <ele>297.39999389648</ele>
        <time>2023-05-31T14:02:27.000Z</time>
      </trkpt>
      <trkpt lat="45.56918" lon="6.18102">
        <ele>297.39999389648</ele>
        <time>2023-05-31T14:02:28.000Z</time>
      </trkpt>
      <trkpt lat="45.56943" lon="6.18161">
        <ele>297.39999389648</ele>
        <time>2023-05-31T14:02:36.000Z</time>
      </trkpt>
      <trkpt lat="45.56969" lon="6.18222">
        <ele>297.39999389648</ele>
        <time>2023-05-31T14:02:44.000Z</time>
      </trkpt>
      <trkpt lat="45.56997" lon="6.18288">
        <ele>297.60000610352</ele>
        <time>2023-05-31T14:02:53.000Z</time>
      </trkpt>
      <trkpt lat="45.57003" lon="6.18302">
        <ele>297.60000610352</ele>
        <time>2023-05-31T14:02:55.000Z</time>
      </trkpt>
      <trkpt lat="45.57018" lon="6.18337">
        <ele>298</ele>
        <time>2023-05-31T14:03:00.000Z</time>
      </trkpt>
      <trkpt lat="45.57023" lon="6.1835">
        <ele>298</ele>
        <time>2023-05-31T14:03:02.000Z</time>
      </trkpt>
      <trkpt lat="45.57046" lon="6.18401">
        <ele>298.20001220703</ele>
        <time>2023-05-31T14:03:09.000Z</time>
      </trkpt>
      <trkpt lat="45.57076" lon="6.18472">
        <ele>298.20001220703</ele>
        <time>2023-05-31T14:03:19.000Z</time>
      </trkpt>
      <trkpt lat="45.57107" lon="6.18544">
        <ele>298.39999389648</ele>
        <time>2023-05-31T14:03:29.000Z</time>
      </trkpt>
      <trkpt lat="45.5711" lon="6.18551">
        <ele>298.20001220703</ele>
        <time>2023-05-31T14:03:30.000Z</time>
      </trkpt>
      <trkpt lat="45.57133" lon="6.18604">
        <ele>298.60000610352</ele>
        <time>2023-05-31T14:03:37.000Z</time>
      </trkpt>
      <trkpt lat="45.57165" lon="6.18678">
        <ele>298.79998779297</ele>
        <time>2023-05-31T14:03:47.000Z</time>
      </trkpt>
      <trkpt lat="45.57198" lon="6.18751">
        <ele>298.79998779297</ele>
        <time>2023-05-31T14:03:57.000Z</time>
      </trkpt>
      <trkpt lat="45.57201" lon="6.18758">
        <ele>298.79998779297</ele>
        <time>2023-05-31T14:03:58.000Z</time>
      </trkpt>
      <trkpt lat="45.57213" lon="6.18785">
        <ele>298.79998779297</ele>
        <time>2023-05-31T14:04:02.000Z</time>
      </trkpt>
      <trkpt lat="45.57219" lon="6.18799">
        <ele>299</ele>
        <time>2023-05-31T14:04:04.000Z</time>
      </trkpt>
      <trkpt lat="45.57222" lon="6.18806">
        <ele>299</ele>
        <time>2023-05-31T14:04:05.000Z</time>
      </trkpt>
      <trkpt lat="45.57235" lon="6.18839">
        <ele>299.20001220703</ele>
        <time>2023-05-31T14:04:10.000Z</time>
      </trkpt>
      <trkpt lat="45.57244" lon="6.1886">
        <ele>299.20001220703</ele>
        <time>2023-05-31T14:04:13.000Z</time>
      </trkpt>
      <trkpt lat="45.57267" lon="6.18926">
        <ele>299.20001220703</ele>
        <time>2023-05-31T14:04:22.000Z</time>
      </trkpt>
      <trkpt lat="45.57281" lon="6.18965">
        <ele>299.20001220703</ele>
        <time>2023-05-31T14:04:28.000Z</time>
      </trkpt>
      <trkpt lat="45.57282" lon="6.18971">
        <ele>299.20001220703</ele>
        <time>2023-05-31T14:04:29.000Z</time>
      </trkpt>
      <trkpt lat="45.57278" lon="6.18981">
        <ele>299.20001220703</ele>
        <time>2023-05-31T14:04:31.000Z</time>
      </trkpt>
      <trkpt lat="45.57272" lon="6.18986">
        <ele>299.20001220703</ele>
        <time>2023-05-31T14:04:33.000Z</time>
      </trkpt>
      <trkpt lat="45.57266" lon="6.18996">
        <ele>299</ele>
        <time>2023-05-31T14:04:35.000Z</time>
      </trkpt>
      <trkpt lat="45.57271" lon="6.19012">
        <ele>299</ele>
        <time>2023-05-31T14:04:38.000Z</time>
      </trkpt>
      <trkpt lat="45.57289" lon="6.19059">
        <ele>298.39999389648</ele>
        <time>2023-05-31T14:04:45.000Z</time>
      </trkpt>
      <trkpt lat="45.57309" lon="6.19104">
        <ele>298.60000610352</ele>
        <time>2023-05-31T14:04:52.000Z</time>
      </trkpt>
      <trkpt lat="45.57311" lon="6.19109">
        <ele>298.60000610352</ele>
        <time>2023-05-31T14:04:53.000Z</time>
      </trkpt>
      <trkpt lat="45.57313" lon="6.19113">
        <ele>298.60000610352</ele>
        <time>2023-05-31T14:04:54.000Z</time>
      </trkpt>
      <trkpt lat="45.57322" lon="6.19133">
        <ele>298.60000610352</ele>
        <time>2023-05-31T14:04:58.000Z</time>
      </trkpt>
      <trkpt lat="45.57325" lon="6.19142">
        <ele>298.60000610352</ele>
        <time>2023-05-31T14:05:02.000Z</time>
      </trkpt>
      <trkpt lat="45.57325" lon="6.19142">
        <ele>298.60000610352</ele>
        <time>2023-05-31T14:05:04.000Z</time>
      </trkpt>
      <trkpt lat="45.57329" lon="6.19151">
        <ele>298.20001220703</ele>
        <time>2023-05-31T14:08:04.000Z</time>
      </trkpt>
      <trkpt lat="45.5733" lon="6.19154">
        <ele>298.20001220703</ele>
        <time>2023-05-31T14:08:05.000Z</time>
      </trkpt>
      <trkpt lat="45.57336" lon="6.19175">
        <ele>298.20001220703</ele>
        <time>2023-05-31T14:08:10.000Z</time>
      </trkpt>
      <trkpt lat="45.57343" lon="6.192">
        <ele>298.39999389648</ele>
        <time>2023-05-31T14:08:14.000Z</time>
      </trkpt>
      <trkpt lat="45.57347" lon="6.19213">
        <ele>298.39999389648</ele>
        <time>2023-05-31T14:08:16.000Z</time>
      </trkpt>
      <trkpt lat="45.57364" lon="6.1925">
        <ele>299</ele>
        <time>2023-05-31T14:08:22.000Z</time>
      </trkpt>
      <trkpt lat="45.57371" lon="6.19265">
        <ele>299.20001220703</ele>
        <time>2023-05-31T14:08:24.000Z</time>
      </trkpt>
      <trkpt lat="45.57392" lon="6.1931">
        <ele>299.39999389648</ele>
        <time>2023-05-31T14:08:31.000Z</time>
      </trkpt>
      <trkpt lat="45.57422" lon="6.19361">
        <ele>299.79998779297</ele>
        <time>2023-05-31T14:08:39.000Z</time>
      </trkpt>
      <trkpt lat="45.57424" lon="6.19366">
        <ele>300</ele>
        <time>2023-05-31T14:08:40.000Z</time>
      </trkpt>
      <trkpt lat="45.57434" lon="6.194">
        <ele>300.39999389648</ele>
        <time>2023-05-31T14:08:44.000Z</time>
      </trkpt>
      <trkpt lat="45.57436" lon="6.19409">
        <ele>300.39999389648</ele>
        <time>2023-05-31T14:08:45.000Z</time>
      </trkpt>
      <trkpt lat="45.57451" lon="6.1947">
        <ele>300.39999389648</ele>
        <time>2023-05-31T14:08:53.000Z</time>
      </trkpt>
      <trkpt lat="45.57457" lon="6.19512">
        <ele>300.60000610352</ele>
        <time>2023-05-31T14:08:58.000Z</time>
      </trkpt>
      <trkpt lat="45.57457" lon="6.19568">
        <ele>300.20001220703</ele>
        <time>2023-05-31T14:09:04.000Z</time>
      </trkpt>
      <trkpt lat="45.57462" lon="6.19592">
        <ele>300.20001220703</ele>
        <time>2023-05-31T14:09:07.000Z</time>
      </trkpt>
      <trkpt lat="45.57464" lon="6.19598">
        <ele>300.20001220703</ele>
        <time>2023-05-31T14:09:08.000Z</time>
      </trkpt>
      <trkpt lat="45.57486" lon="6.1966">
        <ele>300.39999389648</ele>
        <time>2023-05-31T14:09:16.000Z</time>
      </trkpt>
      <trkpt lat="45.57499" lon="6.19696">
        <ele>300.60000610352</ele>
        <time>2023-05-31T14:09:21.000Z</time>
      </trkpt>
      <trkpt lat="45.57505" lon="6.19708">
        <ele>300.60000610352</ele>
        <time>2023-05-31T14:09:23.000Z</time>
      </trkpt>
      <trkpt lat="45.57512" lon="6.19721">
        <ele>300.60000610352</ele>
        <time>2023-05-31T14:09:25.000Z</time>
      </trkpt>
      <trkpt lat="45.57523" lon="6.19741">
        <ele>300.60000610352</ele>
        <time>2023-05-31T14:09:28.000Z</time>
      </trkpt>
      <trkpt lat="45.57537" lon="6.19767">
        <ele>300.60000610352</ele>
        <time>2023-05-31T14:09:32.000Z</time>
      </trkpt>
      <trkpt lat="45.57545" lon="6.19781">
        <ele>300.60000610352</ele>
        <time>2023-05-31T14:09:34.000Z</time>
      </trkpt>
      <trkpt lat="45.57549" lon="6.19787">
        <ele>300.60000610352</ele>
        <time>2023-05-31T14:09:35.000Z</time>
      </trkpt>
      <trkpt lat="45.57572" lon="6.19825">
        <ele>300.60000610352</ele>
        <time>2023-05-31T14:09:41.000Z</time>
      </trkpt>
      <trkpt lat="45.57603" lon="6.19873">
        <ele>300.39999389648</ele>
        <time>2023-05-31T14:09:49.000Z</time>
      </trkpt>
      <trkpt lat="45.57607" lon="6.1989">
        <ele>300.39999389648</ele>
        <time>2023-05-31T14:09:51.000Z</time>
      </trkpt>
      <trkpt lat="45.57606" lon="6.19899">
        <ele>300.39999389648</ele>
        <time>2023-05-31T14:09:52.000Z</time>
      </trkpt>
      <trkpt lat="45.57605" lon="6.19916">
        <ele>300.20001220703</ele>
        <time>2023-05-31T14:09:54.000Z</time>
      </trkpt>
      <trkpt lat="45.57608" lon="6.19931">
        <ele>300.20001220703</ele>
        <time>2023-05-31T14:09:56.000Z</time>
      </trkpt>
      <trkpt lat="45.57619" lon="6.1996">
        <ele>300</ele>
        <time>2023-05-31T14:10:00.000Z</time>
      </trkpt>
      <trkpt lat="45.57626" lon="6.19981">
        <ele>300</ele>
        <time>2023-05-31T14:10:03.000Z</time>
      </trkpt>
      <trkpt lat="45.57641" lon="6.20019">
        <ele>300</ele>
        <time>2023-05-31T14:10:08.000Z</time>
      </trkpt>
      <trkpt lat="45.57649" lon="6.20032">
        <ele>299.79998779297</ele>
        <time>2023-05-31T14:10:10.000Z</time>
      </trkpt>
      <trkpt lat="45.5766" lon="6.2004">
        <ele>299.79998779297</ele>
        <time>2023-05-31T14:10:12.000Z</time>
      </trkpt>
      <trkpt lat="45.57668" lon="6.20045">
        <ele>299.79998779297</ele>
        <time>2023-05-31T14:10:14.000Z</time>
      </trkpt>
      <trkpt lat="45.57677" lon="6.20059">
        <ele>300</ele>
        <time>2023-05-31T14:10:18.000Z</time>
      </trkpt>
      <trkpt lat="45.57674" lon="6.2007">
        <ele>300.39999389648</ele>
        <time>2023-05-31T14:10:20.000Z</time>
      </trkpt>
      <trkpt lat="45.57671" lon="6.20076">
        <ele>300.39999389648</ele>
        <time>2023-05-31T14:10:21.000Z</time>
      </trkpt>
      <trkpt lat="45.57671" lon="6.20082">
        <ele>300.39999389648</ele>
        <time>2023-05-31T14:10:22.000Z</time>
      </trkpt>
      <trkpt lat="45.57675" lon="6.20096">
        <ele>300.39999389648</ele>
        <time>2023-05-31T14:10:24.000Z</time>
      </trkpt>
      <trkpt lat="45.57694" lon="6.2012">
        <ele>300.39999389648</ele>
        <time>2023-05-31T14:10:28.000Z</time>
      </trkpt>
      <trkpt lat="45.5772" lon="6.20154">
        <ele>300</ele>
        <time>2023-05-31T14:10:34.000Z</time>
      </trkpt>
      <trkpt lat="45.57727" lon="6.20164">
        <ele>300</ele>
        <time>2023-05-31T14:10:36.000Z</time>
      </trkpt>
      <trkpt lat="45.57763" lon="6.20213">
        <ele>300</ele>
        <time>2023-05-31T14:10:44.000Z</time>
      </trkpt>
      <trkpt lat="45.57802" lon="6.20278">
        <ele>299.79998779297</ele>
        <time>2023-05-31T14:10:54.000Z</time>
      </trkpt>
      <trkpt lat="45.57835" lon="6.20345">
        <ele>300.20001220703</ele>
        <time>2023-05-31T14:11:04.000Z</time>
      </trkpt>
      <trkpt lat="45.57841" lon="6.20356">
        <ele>300.20001220703</ele>
        <time>2023-05-31T14:11:06.000Z</time>
      </trkpt>
      <trkpt lat="45.57874" lon="6.20423">
        <ele>300.60000610352</ele>
        <time>2023-05-31T14:11:16.000Z</time>
      </trkpt>
      <trkpt lat="45.57902" lon="6.20477">
        <ele>300.60000610352</ele>
        <time>2023-05-31T14:11:24.000Z</time>
      </trkpt>
      <trkpt lat="45.57905" lon="6.20483">
        <ele>300.60000610352</ele>
        <time>2023-05-31T14:11:25.000Z</time>
      </trkpt>
      <trkpt lat="45.57927" lon="6.20528">
        <ele>300.60000610352</ele>
        <time>2023-05-31T14:11:32.000Z</time>
      </trkpt>
      <trkpt lat="45.57934" lon="6.20539">
        <ele>300.60000610352</ele>
        <time>2023-05-31T14:11:34.000Z</time>
      </trkpt>
      <trkpt lat="45.57939" lon="6.20543">
        <ele>300.60000610352</ele>
        <time>2023-05-31T14:11:35.000Z</time>
      </trkpt>
      <trkpt lat="45.57944" lon="6.20542">
        <ele>300.60000610352</ele>
        <time>2023-05-31T14:11:36.000Z</time>
      </trkpt>
      <trkpt lat="45.57954" lon="6.20535">
        <ele>300.60000610352</ele>
        <time>2023-05-31T14:11:38.000Z</time>
      </trkpt>
      <trkpt lat="45.57983" lon="6.20511">
        <ele>300.20001220703</ele>
        <time>2023-05-31T14:11:44.000Z</time>
      </trkpt>
      <trkpt lat="45.57987" lon="6.2051">
        <ele>300.20001220703</ele>
        <time>2023-05-31T14:11:45.000Z</time>
      </trkpt>
      <trkpt lat="45.57994" lon="6.20511">
        <ele>300.20001220703</ele>
        <time>2023-05-31T14:11:46.000Z</time>
      </trkpt>
      <trkpt lat="45.58003" lon="6.20519">
        <ele>300.20001220703</ele>
        <time>2023-05-31T14:11:48.000Z</time>
      </trkpt>
      <trkpt lat="45.58035" lon="6.20561">
        <ele>300.79998779297</ele>
        <time>2023-05-31T14:11:56.000Z</time>
      </trkpt>
      <trkpt lat="45.58062" lon="6.20604">
        <ele>301.20001220703</ele>
        <time>2023-05-31T14:12:03.000Z</time>
      </trkpt>
      <trkpt lat="45.58064" lon="6.20611">
        <ele>301.20001220703</ele>
        <time>2023-05-31T14:12:04.000Z</time>
      </trkpt>
      <trkpt lat="45.58067" lon="6.2062">
        <ele>301.20001220703</ele>
        <time>2023-05-31T14:12:05.000Z</time>
      </trkpt>
      <trkpt lat="45.58071" lon="6.20653">
        <ele>301.20001220703</ele>
        <time>2023-05-31T14:12:09.000Z</time>
      </trkpt>
      <trkpt lat="45.58076" lon="6.20694">
        <ele>301.39999389648</ele>
        <time>2023-05-31T14:12:14.000Z</time>
      </trkpt>
      <trkpt lat="45.58082" lon="6.20733">
        <ele>301.39999389648</ele>
        <time>2023-05-31T14:12:19.000Z</time>
      </trkpt>
      <trkpt lat="45.58091" lon="6.20801">
        <ele>301.39999389648</ele>
        <time>2023-05-31T14:12:27.000Z</time>
      </trkpt>
      <trkpt lat="45.58093" lon="6.20857">
        <ele>301.39999389648</ele>
        <time>2023-05-31T14:12:34.000Z</time>
      </trkpt>
      <trkpt lat="45.58095" lon="6.20922">
        <ele>301.60000610352</ele>
        <time>2023-05-31T14:12:42.000Z</time>
      </trkpt>
      <trkpt lat="45.58098" lon="6.2098">
        <ele>301.79998779297</ele>
        <time>2023-05-31T14:12:49.000Z</time>
      </trkpt>
      <trkpt lat="45.58098" lon="6.20988">
        <ele>301.79998779297</ele>
        <time>2023-05-31T14:12:50.000Z</time>
      </trkpt>
      <trkpt lat="45.58096" lon="6.21038">
        <ele>301.60000610352</ele>
        <time>2023-05-31T14:12:56.000Z</time>
      </trkpt>
      <trkpt lat="45.58097" lon="6.21086">
        <ele>301.39999389648</ele>
        <time>2023-05-31T14:13:02.000Z</time>
      </trkpt>
      <trkpt lat="45.58098" lon="6.21127">
        <ele>301.60000610352</ele>
        <time>2023-05-31T14:13:07.000Z</time>
      </trkpt>
      <trkpt lat="45.58099" lon="6.21144">
        <ele>301.60000610352</ele>
        <time>2023-05-31T14:13:09.000Z</time>
      </trkpt>
      <trkpt lat="45.58098" lon="6.2117">
        <ele>301.60000610352</ele>
        <time>2023-05-31T14:13:12.000Z</time>
      </trkpt>
      <trkpt lat="45.58099" lon="6.21201">
        <ele>301.39999389648</ele>
        <time>2023-05-31T14:13:15.000Z</time>
      </trkpt>
      <trkpt lat="45.58103" lon="6.21217">
        <ele>301.39999389648</ele>
        <time>2023-05-31T14:13:17.000Z</time>
      </trkpt>
      <trkpt lat="45.58106" lon="6.21224">
        <ele>301.39999389648</ele>
        <time>2023-05-31T14:13:18.000Z</time>
      </trkpt>
      <trkpt lat="45.58121" lon="6.21249">
        <ele>301.39999389648</ele>
        <time>2023-05-31T14:13:22.000Z</time>
      </trkpt>
      <trkpt lat="45.58142" lon="6.21287">
        <ele>301.39999389648</ele>
        <time>2023-05-31T14:13:28.000Z</time>
      </trkpt>
      <trkpt lat="45.58145" lon="6.21293">
        <ele>301.39999389648</ele>
        <time>2023-05-31T14:13:29.000Z</time>
      </trkpt>
      <trkpt lat="45.58157" lon="6.21317">
        <ele>301.39999389648</ele>
        <time>2023-05-31T14:13:33.000Z</time>
      </trkpt>
      <trkpt lat="45.58165" lon="6.21332">
        <ele>301.60000610352</ele>
        <time>2023-05-31T14:13:37.000Z</time>
      </trkpt>
      <trkpt lat="45.58168" lon="6.21335">
        <ele>301.79998779297</ele>
        <time>2023-05-31T14:13:39.000Z</time>
      </trkpt>
      <trkpt lat="45.58174" lon="6.21332">
        <ele>302.39999389648</ele>
        <time>2023-05-31T14:13:42.000Z</time>
      </trkpt>
      <trkpt lat="45.58189" lon="6.21321">
        <ele>302.79998779297</ele>
        <time>2023-05-31T14:13:46.000Z</time>
      </trkpt>
      <trkpt lat="45.58218" lon="6.213">
        <ele>302.60000610352</ele>
        <time>2023-05-31T14:13:52.000Z</time>
      </trkpt>
      <trkpt lat="45.58262" lon="6.21268">
        <ele>302.20001220703</ele>
        <time>2023-05-31T14:14:01.000Z</time>
      </trkpt>
      <trkpt lat="45.58271" lon="6.2127">
        <ele>302.20001220703</ele>
        <time>2023-05-31T14:14:03.000Z</time>
      </trkpt>
      <trkpt lat="45.58273" lon="6.21276">
        <ele>302.20001220703</ele>
        <time>2023-05-31T14:14:04.000Z</time>
      </trkpt>
      <trkpt lat="45.58274" lon="6.21283">
        <ele>302.20001220703</ele>
        <time>2023-05-31T14:14:05.000Z</time>
      </trkpt>
      <trkpt lat="45.58273" lon="6.21291">
        <ele>302.20001220703</ele>
        <time>2023-05-31T14:14:06.000Z</time>
      </trkpt>
      <trkpt lat="45.58271" lon="6.21324">
        <ele>302.39999389648</ele>
        <time>2023-05-31T14:14:10.000Z</time>
      </trkpt>
      <trkpt lat="45.58272" lon="6.21386">
        <ele>302.60000610352</ele>
        <time>2023-05-31T14:14:17.000Z</time>
      </trkpt>
      <trkpt lat="45.58274" lon="6.21464">
        <ele>302.39999389648</ele>
        <time>2023-05-31T14:14:26.000Z</time>
      </trkpt>
      <trkpt lat="45.58271" lon="6.21538">
        <ele>302.39999389648</ele>
        <time>2023-05-31T14:14:35.000Z</time>
      </trkpt>
      <trkpt lat="45.58261" lon="6.21578">
        <ele>302.39999389648</ele>
        <time>2023-05-31T14:14:40.000Z</time>
      </trkpt>
      <trkpt lat="45.58251" lon="6.21608">
        <ele>302.60000610352</ele>
        <time>2023-05-31T14:14:44.000Z</time>
      </trkpt>
      <trkpt lat="45.5825" lon="6.21626">
        <ele>302.60000610352</ele>
        <time>2023-05-31T14:14:46.000Z</time>
      </trkpt>
      <trkpt lat="45.58252" lon="6.21641">
        <ele>302.60000610352</ele>
        <time>2023-05-31T14:14:48.000Z</time>
      </trkpt>
      <trkpt lat="45.5826" lon="6.21666">
        <ele>302.60000610352</ele>
        <time>2023-05-31T14:14:51.000Z</time>
      </trkpt>
      <trkpt lat="45.58287" lon="6.21734">
        <ele>302.60000610352</ele>
        <time>2023-05-31T14:15:00.000Z</time>
      </trkpt>
      <trkpt lat="45.58317" lon="6.218">
        <ele>302.60000610352</ele>
        <time>2023-05-31T14:15:09.000Z</time>
      </trkpt>
      <trkpt lat="45.58346" lon="6.21852">
        <ele>302.79998779297</ele>
        <time>2023-05-31T14:15:17.000Z</time>
      </trkpt>
      <trkpt lat="45.58369" lon="6.21887">
        <ele>302.79998779297</ele>
        <time>2023-05-31T14:15:23.000Z</time>
      </trkpt>
      <trkpt lat="45.58399" lon="6.21941">
        <ele>303</ele>
        <time>2023-05-31T14:15:31.000Z</time>
      </trkpt>
      <trkpt lat="45.58402" lon="6.21946">
        <ele>303</ele>
        <time>2023-05-31T14:15:32.000Z</time>
      </trkpt>
      <trkpt lat="45.58418" lon="6.2196">
        <ele>303</ele>
        <time>2023-05-31T14:15:35.000Z</time>
      </trkpt>
      <trkpt lat="45.58423" lon="6.21965">
        <ele>303</ele>
        <time>2023-05-31T14:15:36.000Z</time>
      </trkpt>
      <trkpt lat="45.5844" lon="6.21989">
        <ele>303</ele>
        <time>2023-05-31T14:15:40.000Z</time>
      </trkpt>
      <trkpt lat="45.58475" lon="6.22036">
        <ele>303.20001220703</ele>
        <time>2023-05-31T14:15:48.000Z</time>
      </trkpt>
      <trkpt lat="45.5848" lon="6.2204">
        <ele>303.20001220703</ele>
        <time>2023-05-31T14:15:49.000Z</time>
      </trkpt>
      <trkpt lat="45.58517" lon="6.2207">
        <ele>303.20001220703</ele>
        <time>2023-05-31T14:15:56.000Z</time>
      </trkpt>
      <trkpt lat="45.58546" lon="6.22112">
        <ele>303.39999389648</ele>
        <time>2023-05-31T14:16:03.000Z</time>
      </trkpt>
      <trkpt lat="45.58555" lon="6.22123">
        <ele>303.60000610352</ele>
        <time>2023-05-31T14:16:05.000Z</time>
      </trkpt>
      <trkpt lat="45.5856" lon="6.22126">
        <ele>303.60000610352</ele>
        <time>2023-05-31T14:16:06.000Z</time>
      </trkpt>
      <trkpt lat="45.5858" lon="6.22145">
        <ele>304.60000610352</ele>
        <time>2023-05-31T14:16:11.000Z</time>
      </trkpt>
      <trkpt lat="45.58611" lon="6.22165">
        <ele>304</ele>
        <time>2023-05-31T14:16:17.000Z</time>
      </trkpt>
      <trkpt lat="45.58616" lon="6.22166">
        <ele>303.60000610352</ele>
        <time>2023-05-31T14:16:18.000Z</time>
      </trkpt>
      <trkpt lat="45.58621" lon="6.22165">
        <ele>303.39999389648</ele>
        <time>2023-05-31T14:16:19.000Z</time>
      </trkpt>
      <trkpt lat="45.58628" lon="6.22156">
        <ele>303.20001220703</ele>
        <time>2023-05-31T14:16:21.000Z</time>
      </trkpt>
      <trkpt lat="45.58637" lon="6.2214">
        <ele>303.20001220703</ele>
        <time>2023-05-31T14:16:24.000Z</time>
      </trkpt>
      <trkpt lat="45.58641" lon="6.22136">
        <ele>303</ele>
        <time>2023-05-31T14:16:25.000Z</time>
      </trkpt>
      <trkpt lat="45.58646" lon="6.22135">
        <ele>303</ele>
        <time>2023-05-31T14:16:26.000Z</time>
      </trkpt>
      <trkpt lat="45.58657" lon="6.22137">
        <ele>303.39999389648</ele>
        <time>2023-05-31T14:16:28.000Z</time>
      </trkpt>
      <trkpt lat="45.58695" lon="6.22159">
        <ele>303.60000610352</ele>
        <time>2023-05-31T14:16:35.000Z</time>
      </trkpt>
      <trkpt lat="45.58725" lon="6.22179">
        <ele>303.60000610352</ele>
        <time>2023-05-31T14:16:41.000Z</time>
      </trkpt>
      <trkpt lat="45.58734" lon="6.22189">
        <ele>303.60000610352</ele>
        <time>2023-05-31T14:16:43.000Z</time>
      </trkpt>
      <trkpt lat="45.58738" lon="6.22195">
        <ele>303.60000610352</ele>
        <time>2023-05-31T14:16:44.000Z</time>
      </trkpt>
      <trkpt lat="45.58753" lon="6.22219">
        <ele>303.79998779297</ele>
        <time>2023-05-31T14:16:48.000Z</time>
      </trkpt>
      <trkpt lat="45.58767" lon="6.22239">
        <ele>303.79998779297</ele>
        <time>2023-05-31T14:16:52.000Z</time>
      </trkpt>
      <trkpt lat="45.58772" lon="6.2224">
        <ele>303.60000610352</ele>
        <time>2023-05-31T14:16:53.000Z</time>
      </trkpt>
      <trkpt lat="45.58776" lon="6.22238">
        <ele>303.60000610352</ele>
        <time>2023-05-31T14:16:54.000Z</time>
      </trkpt>
      <trkpt lat="45.58788" lon="6.22233">
        <ele>303.60000610352</ele>
        <time>2023-05-31T14:16:57.000Z</time>
      </trkpt>
      <trkpt lat="45.58796" lon="6.22239">
        <ele>303.60000610352</ele>
        <time>2023-05-31T14:16:59.000Z</time>
      </trkpt>
      <trkpt lat="45.58799" lon="6.22244">
        <ele>303.60000610352</ele>
        <time>2023-05-31T14:17:00.000Z</time>
      </trkpt>
      <trkpt lat="45.58806" lon="6.22256">
        <ele>304</ele>
        <time>2023-05-31T14:17:02.000Z</time>
      </trkpt>
      <trkpt lat="45.58811" lon="6.22269">
        <ele>304</ele>
        <time>2023-05-31T14:17:04.000Z</time>
      </trkpt>
      <trkpt lat="45.58814" lon="6.22274">
        <ele>304.20001220703</ele>
        <time>2023-05-31T14:17:05.000Z</time>
      </trkpt>
      <trkpt lat="45.58821" lon="6.22285">
        <ele>304.60000610352</ele>
        <time>2023-05-31T14:17:07.000Z</time>
      </trkpt>
      <trkpt lat="45.58825" lon="6.22289">
        <ele>304.79998779297</ele>
        <time>2023-05-31T14:17:08.000Z</time>
      </trkpt>
      <trkpt lat="45.58833" lon="6.22295">
        <ele>305.20001220703</ele>
        <time>2023-05-31T14:17:10.000Z</time>
      </trkpt>
      <trkpt lat="45.58871" lon="6.22313">
        <ele>305.79998779297</ele>
        <time>2023-05-31T14:17:18.000Z</time>
      </trkpt>
      <trkpt lat="45.58875" lon="6.22315">
        <ele>306</ele>
        <time>2023-05-31T14:17:19.000Z</time>
      </trkpt>
      <trkpt lat="45.58892" lon="6.22323">
        <ele>306.60000610352</ele>
        <time>2023-05-31T14:17:23.000Z</time>
      </trkpt>
      <trkpt lat="45.58899" lon="6.2233">
        <ele>307</ele>
        <time>2023-05-31T14:17:25.000Z</time>
      </trkpt>
      <trkpt lat="45.58904" lon="6.22342">
        <ele>307.39999389648</ele>
        <time>2023-05-31T14:17:27.000Z</time>
      </trkpt>
      <trkpt lat="45.58907" lon="6.22354">
        <ele>307.79998779297</ele>
        <time>2023-05-31T14:17:29.000Z</time>
      </trkpt>
      <trkpt lat="45.58909" lon="6.22361">
        <ele>308.20001220703</ele>
        <time>2023-05-31T14:17:30.000Z</time>
      </trkpt>
      <trkpt lat="45.58916" lon="6.22394">
        <ele>309.20001220703</ele>
        <time>2023-05-31T14:17:35.000Z</time>
      </trkpt>
      <trkpt lat="45.5892" lon="6.22413">
        <ele>309.60000610352</ele>
        <time>2023-05-31T14:17:38.000Z</time>
      </trkpt>
      <trkpt lat="45.58927" lon="6.22462">
        <ele>310.20001220703</ele>
        <time>2023-05-31T14:17:45.000Z</time>
      </trkpt>
      <trkpt lat="45.58928" lon="6.22469">
        <ele>310.39999389648</ele>
        <time>2023-05-31T14:17:46.000Z</time>
      </trkpt>
      <trkpt lat="45.58938" lon="6.2251">
        <ele>311.39999389648</ele>
        <time>2023-05-31T14:17:52.000Z</time>
      </trkpt>
      <trkpt lat="45.58941" lon="6.22522">
        <ele>311.60000610352</ele>
        <time>2023-05-31T14:17:54.000Z</time>
      </trkpt>
      <trkpt lat="45.58948" lon="6.22554">
        <ele>312.60000610352</ele>
        <time>2023-05-31T14:17:59.000Z</time>
      </trkpt>
      <trkpt lat="45.58951" lon="6.22568">
        <ele>313</ele>
        <time>2023-05-31T14:18:01.000Z</time>
      </trkpt>
      <trkpt lat="45.58967" lon="6.22612">
        <ele>313.60000610352</ele>
        <time>2023-05-31T14:18:08.000Z</time>
      </trkpt>
      <trkpt lat="45.5897" lon="6.22619">
        <ele>313.60000610352</ele>
        <time>2023-05-31T14:18:09.000Z</time>
      </trkpt>
      <trkpt lat="45.58988" lon="6.22646">
        <ele>314</ele>
        <time>2023-05-31T14:18:14.000Z</time>
      </trkpt>
      <trkpt lat="45.5901" lon="6.22686">
        <ele>314.39999389648</ele>
        <time>2023-05-31T14:18:21.000Z</time>
      </trkpt>
      <trkpt lat="45.59018" lon="6.22703">
        <ele>314.79998779297</ele>
        <time>2023-05-31T14:18:24.000Z</time>
      </trkpt>
      <trkpt lat="45.5903" lon="6.22732">
        <ele>315.79998779297</ele>
        <time>2023-05-31T14:18:29.000Z</time>
      </trkpt>
      <trkpt lat="45.59046" lon="6.2277">
        <ele>317</ele>
        <time>2023-05-31T14:18:36.000Z</time>
      </trkpt>
      <trkpt lat="45.59056" lon="6.22794">
        <ele>317.60000610352</ele>
        <time>2023-05-31T14:18:40.000Z</time>
      </trkpt>
      <trkpt lat="45.59068" lon="6.22822">
        <ele>318</ele>
        <time>2023-05-31T14:18:45.000Z</time>
      </trkpt>
      <trkpt lat="45.59078" lon="6.22844">
        <ele>318.39999389648</ele>
        <time>2023-05-31T14:18:49.000Z</time>
      </trkpt>
      <trkpt lat="45.5908" lon="6.22849">
        <ele>318.60000610352</ele>
        <time>2023-05-31T14:18:50.000Z</time>
      </trkpt>
      <trkpt lat="45.59084" lon="6.22859">
        <ele>319</ele>
        <time>2023-05-31T14:18:52.000Z</time>
      </trkpt>
      <trkpt lat="45.59093" lon="6.22877">
        <ele>320</ele>
        <time>2023-05-31T14:18:56.000Z</time>
      </trkpt>
      <trkpt lat="45.59105" lon="6.22901">
        <ele>321.20001220703</ele>
        <time>2023-05-31T14:19:01.000Z</time>
      </trkpt>
      <trkpt lat="45.59112" lon="6.22915">
        <ele>321.79998779297</ele>
        <time>2023-05-31T14:19:04.000Z</time>
      </trkpt>
      <trkpt lat="45.5912" lon="6.2293">
        <ele>322.39999389648</ele>
        <time>2023-05-31T14:19:07.000Z</time>
      </trkpt>
      <trkpt lat="45.59133" lon="6.22958">
        <ele>323.39999389648</ele>
        <time>2023-05-31T14:19:13.000Z</time>
      </trkpt>
      <trkpt lat="45.59135" lon="6.22963">
        <ele>323.39999389648</ele>
        <time>2023-05-31T14:19:14.000Z</time>
      </trkpt>
      <trkpt lat="45.59152" lon="6.23006">
        <ele>324.79998779297</ele>
        <time>2023-05-31T14:19:22.000Z</time>
      </trkpt>
      <trkpt lat="45.59154" lon="6.23011">
        <ele>325</ele>
        <time>2023-05-31T14:19:23.000Z</time>
      </trkpt>
      <trkpt lat="45.59164" lon="6.23037">
        <ele>326</ele>
        <time>2023-05-31T14:19:28.000Z</time>
      </trkpt>
      <trkpt lat="45.59166" lon="6.23042">
        <ele>326</ele>
        <time>2023-05-31T14:19:29.000Z</time>
      </trkpt>
      <trkpt lat="45.59178" lon="6.23073">
        <ele>327</ele>
        <time>2023-05-31T14:19:35.000Z</time>
      </trkpt>
      <trkpt lat="45.59185" lon="6.23087">
        <ele>327.60000610352</ele>
        <time>2023-05-31T14:19:38.000Z</time>
      </trkpt>
      <trkpt lat="45.59191" lon="6.23103">
        <ele>328.20001220703</ele>
        <time>2023-05-31T14:19:41.000Z</time>
      </trkpt>
      <trkpt lat="45.5921" lon="6.2315">
        <ele>329</ele>
        <time>2023-05-31T14:19:49.000Z</time>
      </trkpt>
      <trkpt lat="45.59232" lon="6.23202">
        <ele>329</ele>
        <time>2023-05-31T14:19:57.000Z</time>
      </trkpt>
      <trkpt lat="45.59257" lon="6.23263">
        <ele>329</ele>
        <time>2023-05-31T14:20:06.000Z</time>
      </trkpt>
      <trkpt lat="45.5927" lon="6.23294">
        <ele>329.20001220703</ele>
        <time>2023-05-31T14:20:11.000Z</time>
      </trkpt>
      <trkpt lat="45.59279" lon="6.23317">
        <ele>329.60000610352</ele>
        <time>2023-05-31T14:20:15.000Z</time>
      </trkpt>
      <trkpt lat="45.59285" lon="6.23334">
        <ele>330.20001220703</ele>
        <time>2023-05-31T14:20:18.000Z</time>
      </trkpt>
      <trkpt lat="45.59296" lon="6.23362">
        <ele>331</ele>
        <time>2023-05-31T14:20:23.000Z</time>
      </trkpt>
      <trkpt lat="45.59313" lon="6.23403">
        <ele>330.79998779297</ele>
        <time>2023-05-31T14:20:29.000Z</time>
      </trkpt>
      <trkpt lat="45.59338" lon="6.23457">
        <ele>329.20001220703</ele>
        <time>2023-05-31T14:20:36.000Z</time>
      </trkpt>
      <trkpt lat="45.59341" lon="6.23464">
        <ele>328.79998779297</ele>
        <time>2023-05-31T14:20:37.000Z</time>
      </trkpt>
      <trkpt lat="45.59365" lon="6.23514">
        <ele>328.20001220703</ele>
        <time>2023-05-31T14:20:44.000Z</time>
      </trkpt>
      <trkpt lat="45.5938" lon="6.23543">
        <ele>327.79998779297</ele>
        <time>2023-05-31T14:20:48.000Z</time>
      </trkpt>
      <trkpt lat="45.59397" lon="6.2358">
        <ele>327</ele>
        <time>2023-05-31T14:20:53.000Z</time>
      </trkpt>
      <trkpt lat="45.59401" lon="6.23588">
        <ele>326.79998779297</ele>
        <time>2023-05-31T14:20:54.000Z</time>
      </trkpt>
      <trkpt lat="45.59425" lon="6.23651">
        <ele>325.79998779297</ele>
        <time>2023-05-31T14:21:02.000Z</time>
      </trkpt>
      <trkpt lat="45.59456" lon="6.23724">
        <ele>324.60000610352</ele>
        <time>2023-05-31T14:21:11.000Z</time>
      </trkpt>
      <trkpt lat="45.59478" lon="6.23774">
        <ele>323.39999389648</ele>
        <time>2023-05-31T14:21:17.000Z</time>
      </trkpt>
      <trkpt lat="45.59489" lon="6.23799">
        <ele>323</ele>
        <time>2023-05-31T14:21:20.000Z</time>
      </trkpt>
      <trkpt lat="45.5952" lon="6.23867">
        <ele>322.79998779297</ele>
        <time>2023-05-31T14:21:29.000Z</time>
      </trkpt>
      <trkpt lat="45.59541" lon="6.23913">
        <ele>323.20001220703</ele>
        <time>2023-05-31T14:21:36.000Z</time>
      </trkpt>
      <trkpt lat="45.59558" lon="6.23942">
        <ele>324</ele>
        <time>2023-05-31T14:21:41.000Z</time>
      </trkpt>
      <trkpt lat="45.59571" lon="6.23964">
        <ele>324.60000610352</ele>
        <time>2023-05-31T14:21:45.000Z</time>
      </trkpt>
      <trkpt lat="45.59574" lon="6.2397">
        <ele>324.79998779297</ele>
        <time>2023-05-31T14:21:46.000Z</time>
      </trkpt>
      <trkpt lat="45.59576" lon="6.23977">
        <ele>325</ele>
        <time>2023-05-31T14:21:47.000Z</time>
      </trkpt>
      <trkpt lat="45.59583" lon="6.24002">
        <ele>325.60000610352</ele>
        <time>2023-05-31T14:21:51.000Z</time>
      </trkpt>
      <trkpt lat="45.59586" lon="6.24008">
        <ele>325.79998779297</ele>
        <time>2023-05-31T14:21:52.000Z</time>
      </trkpt>
      <trkpt lat="45.5959" lon="6.2402">
        <ele>326.39999389648</ele>
        <time>2023-05-31T14:21:54.000Z</time>
      </trkpt>
      <trkpt lat="45.59594" lon="6.24032">
        <ele>327</ele>
        <time>2023-05-31T14:21:56.000Z</time>
      </trkpt>
      <trkpt lat="45.59598" lon="6.24043">
        <ele>327.39999389648</ele>
        <time>2023-05-31T14:21:58.000Z</time>
      </trkpt>
      <trkpt lat="45.59601" lon="6.24055">
        <ele>327.60000610352</ele>
        <time>2023-05-31T14:22:00.000Z</time>
      </trkpt>
      <trkpt lat="45.59603" lon="6.2406">
        <ele>327.60000610352</ele>
        <time>2023-05-31T14:22:01.000Z</time>
      </trkpt>
      <trkpt lat="45.59608" lon="6.24077">
        <ele>328</ele>
        <time>2023-05-31T14:22:04.000Z</time>
      </trkpt>
      <trkpt lat="45.59616" lon="6.24105">
        <ele>328.60000610352</ele>
        <time>2023-05-31T14:22:09.000Z</time>
      </trkpt>
      <trkpt lat="45.59624" lon="6.24132">
        <ele>329.20001220703</ele>
        <time>2023-05-31T14:22:14.000Z</time>
      </trkpt>
      <trkpt lat="45.5963" lon="6.24154">
        <ele>329.79998779297</ele>
        <time>2023-05-31T14:22:18.000Z</time>
      </trkpt>
      <trkpt lat="45.59634" lon="6.24169">
        <ele>330.39999389648</ele>
        <time>2023-05-31T14:22:21.000Z</time>
      </trkpt>
      <trkpt lat="45.59639" lon="6.24189">
        <ele>331.20001220703</ele>
        <time>2023-05-31T14:22:25.000Z</time>
      </trkpt>
      <trkpt lat="45.59643" lon="6.24203">
        <ele>331.60000610352</ele>
        <time>2023-05-31T14:22:28.000Z</time>
      </trkpt>
      <trkpt lat="45.59647" lon="6.24218">
        <ele>332.20001220703</ele>
        <time>2023-05-31T14:22:31.000Z</time>
      </trkpt>
      <trkpt lat="45.59652" lon="6.24234">
        <ele>332.79998779297</ele>
        <time>2023-05-31T14:22:34.000Z</time>
      </trkpt>
      <trkpt lat="45.5966" lon="6.24259">
        <ele>333.79998779297</ele>
        <time>2023-05-31T14:22:39.000Z</time>
      </trkpt>
      <trkpt lat="45.59667" lon="6.24284">
        <ele>334.79998779297</ele>
        <time>2023-05-31T14:22:44.000Z</time>
      </trkpt>
      <trkpt lat="45.59671" lon="6.24299">
        <ele>335.39999389648</ele>
        <time>2023-05-31T14:22:47.000Z</time>
      </trkpt>
      <trkpt lat="45.59674" lon="6.24308">
        <ele>335.79998779297</ele>
        <time>2023-05-31T14:22:49.000Z</time>
      </trkpt>
      <trkpt lat="45.59677" lon="6.24316">
        <ele>336</ele>
        <time>2023-05-31T14:22:51.000Z</time>
      </trkpt>
      <trkpt lat="45.59678" lon="6.2432">
        <ele>336.39999389648</ele>
        <time>2023-05-31T14:22:52.000Z</time>
      </trkpt>
      <trkpt lat="45.5968" lon="6.24326">
        <ele>337</ele>
        <time>2023-05-31T14:22:54.000Z</time>
      </trkpt>
      <trkpt lat="45.59685" lon="6.24343">
        <ele>338.20001220703</ele>
        <time>2023-05-31T14:22:58.000Z</time>
      </trkpt>
      <trkpt lat="45.59693" lon="6.24358">
        <ele>339.20001220703</ele>
        <time>2023-05-31T14:23:02.000Z</time>
      </trkpt>
      <trkpt lat="45.59699" lon="6.24368">
        <ele>339.39999389648</ele>
        <time>2023-05-31T14:23:04.000Z</time>
      </trkpt>
      <trkpt lat="45.59711" lon="6.24392">
        <ele>340</ele>
        <time>2023-05-31T14:23:09.000Z</time>
      </trkpt>
      <trkpt lat="45.59721" lon="6.24408">
        <ele>340.20001220703</ele>
        <time>2023-05-31T14:23:12.000Z</time>
      </trkpt>
      <trkpt lat="45.59729" lon="6.24419">
        <ele>340.39999389648</ele>
        <time>2023-05-31T14:23:14.000Z</time>
      </trkpt>
      <trkpt lat="45.59759" lon="6.24457">
        <ele>340.79998779297</ele>
        <time>2023-05-31T14:23:22.000Z</time>
      </trkpt>
      <trkpt lat="45.59769" lon="6.24472">
        <ele>341</ele>
        <time>2023-05-31T14:23:25.000Z</time>
      </trkpt>
      <trkpt lat="45.59781" lon="6.24489">
        <ele>341.39999389648</ele>
        <time>2023-05-31T14:23:29.000Z</time>
      </trkpt>
      <trkpt lat="45.598" lon="6.24521">
        <ele>342.39999389648</ele>
        <time>2023-05-31T14:23:36.000Z</time>
      </trkpt>
      <trkpt lat="45.59813" lon="6.24552">
        <ele>343.60000610352</ele>
        <time>2023-05-31T14:23:42.000Z</time>
      </trkpt>
      <trkpt lat="45.59817" lon="6.24563">
        <ele>344.20001220703</ele>
        <time>2023-05-31T14:23:44.000Z</time>
      </trkpt>
      <trkpt lat="45.59821" lon="6.24574">
        <ele>344.79998779297</ele>
        <time>2023-05-31T14:23:46.000Z</time>
      </trkpt>
      <trkpt lat="45.59834" lon="6.24612">
        <ele>346</ele>
        <time>2023-05-31T14:23:53.000Z</time>
      </trkpt>
      <trkpt lat="45.59836" lon="6.24617">
        <ele>346.20001220703</ele>
        <time>2023-05-31T14:23:54.000Z</time>
      </trkpt>
      <trkpt lat="45.59846" lon="6.24642">
        <ele>347.20001220703</ele>
        <time>2023-05-31T14:23:59.000Z</time>
      </trkpt>
      <trkpt lat="45.5985" lon="6.24653">
        <ele>347.60000610352</ele>
        <time>2023-05-31T14:24:01.000Z</time>
      </trkpt>
      <trkpt lat="45.59854" lon="6.24663">
        <ele>348.20001220703</ele>
        <time>2023-05-31T14:24:03.000Z</time>
      </trkpt>
      <trkpt lat="45.59866" lon="6.24686">
        <ele>349.20001220703</ele>
        <time>2023-05-31T14:24:08.000Z</time>
      </trkpt>
      <trkpt lat="45.59871" lon="6.24695">
        <ele>349.39999389648</ele>
        <time>2023-05-31T14:24:10.000Z</time>
      </trkpt>
      <trkpt lat="45.59886" lon="6.24716">
        <ele>350.20001220703</ele>
        <time>2023-05-31T14:24:15.000Z</time>
      </trkpt>
      <trkpt lat="45.59897" lon="6.24736">
        <ele>350.60000610352</ele>
        <time>2023-05-31T14:24:19.000Z</time>
      </trkpt>
      <trkpt lat="45.59916" lon="6.24773">
        <ele>351.39999389648</ele>
        <time>2023-05-31T14:24:26.000Z</time>
      </trkpt>
      <trkpt lat="45.59922" lon="6.24784">
        <ele>351.39999389648</ele>
        <time>2023-05-31T14:24:28.000Z</time>
      </trkpt>
      <trkpt lat="45.59947" lon="6.24843">
        <ele>351.79998779297</ele>
        <time>2023-05-31T14:24:38.000Z</time>
      </trkpt>
      <trkpt lat="45.59972" lon="6.24904">
        <ele>352.39999389648</ele>
        <time>2023-05-31T14:24:47.000Z</time>
      </trkpt>
      <trkpt lat="45.59977" lon="6.24917">
        <ele>352.39999389648</ele>
        <time>2023-05-31T14:24:49.000Z</time>
      </trkpt>
      <trkpt lat="45.59986" lon="6.24942">
        <ele>352.60000610352</ele>
        <time>2023-05-31T14:24:53.000Z</time>
      </trkpt>
      <trkpt lat="45.5999" lon="6.24956">
        <ele>352.60000610352</ele>
        <time>2023-05-31T14:24:56.000Z</time>
      </trkpt>
      <trkpt lat="45.59995" lon="6.24969">
        <ele>352.79998779297</ele>
        <time>2023-05-31T14:24:57.000Z</time>
      </trkpt>
      <trkpt lat="45.60003" lon="6.24988">
        <ele>353</ele>
        <time>2023-05-31T14:25:01.000Z</time>
      </trkpt>
      <trkpt lat="45.60022" lon="6.25039">
        <ele>353</ele>
        <time>2023-05-31T14:25:08.000Z</time>
      </trkpt>
      <trkpt lat="45.60027" lon="6.25059">
        <ele>353</ele>
        <time>2023-05-31T14:25:11.000Z</time>
      </trkpt>
      <trkpt lat="45.60031" lon="6.2508">
        <ele>353</ele>
        <time>2023-05-31T14:25:14.000Z</time>
      </trkpt>
      <trkpt lat="45.60036" lon="6.25101">
        <ele>353</ele>
        <time>2023-05-31T14:25:17.000Z</time>
      </trkpt>
      <trkpt lat="45.60042" lon="6.25125">
        <ele>353.20001220703</ele>
        <time>2023-05-31T14:25:21.000Z</time>
      </trkpt>
      <trkpt lat="45.60046" lon="6.25137">
        <ele>353.39999389648</ele>
        <time>2023-05-31T14:25:23.000Z</time>
      </trkpt>
      <trkpt lat="45.60051" lon="6.25154">
        <ele>353.79998779297</ele>
        <time>2023-05-31T14:25:27.000Z</time>
      </trkpt>
      <trkpt lat="45.60054" lon="6.25165">
        <ele>353.79998779297</ele>
        <time>2023-05-31T14:25:28.000Z</time>
      </trkpt>
      <trkpt lat="45.60054" lon="6.25171">
        <ele>354</ele>
        <time>2023-05-31T14:25:29.000Z</time>
      </trkpt>
      <trkpt lat="45.60055" lon="6.25183">
        <ele>354.60000610352</ele>
        <time>2023-05-31T14:25:31.000Z</time>
      </trkpt>
      <trkpt lat="45.60055" lon="6.25194">
        <ele>355</ele>
        <time>2023-05-31T14:25:33.000Z</time>
      </trkpt>
      <trkpt lat="45.60056" lon="6.25211">
        <ele>355.60000610352</ele>
        <time>2023-05-31T14:25:36.000Z</time>
      </trkpt>
      <trkpt lat="45.60056" lon="6.25217">
        <ele>355.79998779297</ele>
        <time>2023-05-31T14:25:37.000Z</time>
      </trkpt>
      <trkpt lat="45.6006" lon="6.25236">
        <ele>356.39999389648</ele>
        <time>2023-05-31T14:25:41.000Z</time>
      </trkpt>
      <trkpt lat="45.60063" lon="6.25253">
        <ele>356.79998779297</ele>
        <time>2023-05-31T14:25:43.000Z</time>
      </trkpt>
      <trkpt lat="45.60064" lon="6.25258">
        <ele>357</ele>
        <time>2023-05-31T14:25:44.000Z</time>
      </trkpt>
      <trkpt lat="45.60068" lon="6.25274">
        <ele>357.39999389648</ele>
        <time>2023-05-31T14:25:47.000Z</time>
      </trkpt>
      <trkpt lat="45.6007" lon="6.25283">
        <ele>358.20001220703</ele>
        <time>2023-05-31T14:25:50.000Z</time>
      </trkpt>
      <trkpt lat="45.60072" lon="6.25291">
        <ele>358.39999389648</ele>
        <time>2023-05-31T14:25:51.000Z</time>
      </trkpt>
      <trkpt lat="45.60081" lon="6.25311">
        <ele>359.20001220703</ele>
        <time>2023-05-31T14:25:56.000Z</time>
      </trkpt>
      <trkpt lat="45.60084" lon="6.25314">
        <ele>359.20001220703</ele>
        <time>2023-05-31T14:25:57.000Z</time>
      </trkpt>
      <trkpt lat="45.60101" lon="6.25331">
        <ele>360</ele>
        <time>2023-05-31T14:26:04.000Z</time>
      </trkpt>
      <trkpt lat="45.60103" lon="6.25334">
        <ele>360.20001220703</ele>
        <time>2023-05-31T14:26:05.000Z</time>
      </trkpt>
      <trkpt lat="45.60108" lon="6.2534">
        <ele>361</ele>
        <time>2023-05-31T14:26:09.000Z</time>
      </trkpt>
      <trkpt lat="45.60116" lon="6.25352">
        <ele>361.39999389648</ele>
        <time>2023-05-31T14:26:12.000Z</time>
      </trkpt>
      <trkpt lat="45.60118" lon="6.2536">
        <ele>361.79998779297</ele>
        <time>2023-05-31T14:26:14.000Z</time>
      </trkpt>
      <trkpt lat="45.60121" lon="6.25371">
        <ele>362.60000610352</ele>
        <time>2023-05-31T14:26:18.000Z</time>
      </trkpt>
      <trkpt lat="45.60125" lon="6.25374">
        <ele>362.79998779297</ele>
        <time>2023-05-31T14:26:19.000Z</time>
      </trkpt>
      <trkpt lat="45.60135" lon="6.25379">
        <ele>363.60000610352</ele>
        <time>2023-05-31T14:26:23.000Z</time>
      </trkpt>
      <trkpt lat="45.60141" lon="6.25381">
        <ele>364.20001220703</ele>
        <time>2023-05-31T14:26:26.000Z</time>
      </trkpt>
      <trkpt lat="45.60148" lon="6.25387">
        <ele>364.60000610352</ele>
        <time>2023-05-31T14:26:28.000Z</time>
      </trkpt>
      <trkpt lat="45.60163" lon="6.25398">
        <ele>366</ele>
        <time>2023-05-31T14:26:34.000Z</time>
      </trkpt>
      <trkpt lat="45.60173" lon="6.25406">
        <ele>366.39999389648</ele>
        <time>2023-05-31T14:26:37.000Z</time>
      </trkpt>
      <trkpt lat="45.60183" lon="6.25416">
        <ele>367</ele>
        <time>2023-05-31T14:26:41.000Z</time>
      </trkpt>
      <trkpt lat="45.60191" lon="6.25432">
        <ele>368</ele>
        <time>2023-05-31T14:26:47.000Z</time>
      </trkpt>
      <trkpt lat="45.60195" lon="6.25437">
        <ele>368.39999389648</ele>
        <time>2023-05-31T14:26:48.000Z</time>
      </trkpt>
      <trkpt lat="45.60203" lon="6.25444">
        <ele>369.39999389648</ele>
        <time>2023-05-31T14:26:51.000Z</time>
      </trkpt>
      <trkpt lat="45.60212" lon="6.25455">
        <ele>370</ele>
        <time>2023-05-31T14:26:54.000Z</time>
      </trkpt>
      <trkpt lat="45.60216" lon="6.25463">
        <ele>370.39999389648</ele>
        <time>2023-05-31T14:26:56.000Z</time>
      </trkpt>
      <trkpt lat="45.60218" lon="6.25465">
        <ele>370.60000610352</ele>
        <time>2023-05-31T14:26:58.000Z</time>
      </trkpt>
      <trkpt lat="45.60232" lon="6.25481">
        <ele>371.60000610352</ele>
        <time>2023-05-31T14:27:03.000Z</time>
      </trkpt>
      <trkpt lat="45.60237" lon="6.25484">
        <ele>371.79998779297</ele>
        <time>2023-05-31T14:27:04.000Z</time>
      </trkpt>
      <trkpt lat="45.60246" lon="6.25495">
        <ele>372.79998779297</ele>
        <time>2023-05-31T14:27:10.000Z</time>
      </trkpt>
      <trkpt lat="45.60259" lon="6.25499">
        <ele>374</ele>
        <time>2023-05-31T14:27:16.000Z</time>
      </trkpt>
      <trkpt lat="45.60262" lon="6.255">
        <ele>375</ele>
        <time>2023-05-31T14:27:19.000Z</time>
      </trkpt>
      <trkpt lat="45.60266" lon="6.25501">
        <ele>375.20001220703</ele>
        <time>2023-05-31T14:27:20.000Z</time>
      </trkpt>
      <trkpt lat="45.60275" lon="6.25509">
        <ele>375.60000610352</ele>
        <time>2023-05-31T14:27:23.000Z</time>
      </trkpt>
      <trkpt lat="45.60281" lon="6.25515">
        <ele>376</ele>
        <time>2023-05-31T14:27:25.000Z</time>
      </trkpt>
      <trkpt lat="45.60284" lon="6.25521">
        <ele>376.79998779297</ele>
        <time>2023-05-31T14:27:28.000Z</time>
      </trkpt>
      <trkpt lat="45.6029" lon="6.2553">
        <ele>377.39999389648</ele>
        <time>2023-05-31T14:27:31.000Z</time>
      </trkpt>
      <trkpt lat="45.60294" lon="6.2554">
        <ele>377.79998779297</ele>
        <time>2023-05-31T14:27:33.000Z</time>
      </trkpt>
      <trkpt lat="45.60299" lon="6.25552">
        <ele>378.60000610352</ele>
        <time>2023-05-31T14:27:37.000Z</time>
      </trkpt>
      <trkpt lat="45.60303" lon="6.25561">
        <ele>379.79998779297</ele>
        <time>2023-05-31T14:27:40.000Z</time>
      </trkpt>
      <trkpt lat="45.60313" lon="6.25577">
        <ele>380.79998779297</ele>
        <time>2023-05-31T14:27:45.000Z</time>
      </trkpt>
      <trkpt lat="45.60317" lon="6.25592">
        <ele>381.79998779297</ele>
        <time>2023-05-31T14:27:49.000Z</time>
      </trkpt>
      <trkpt lat="45.6032" lon="6.256">
        <ele>382.20001220703</ele>
        <time>2023-05-31T14:27:51.000Z</time>
      </trkpt>
      <trkpt lat="45.60319" lon="6.2561">
        <ele>383.20001220703</ele>
        <time>2023-05-31T14:27:54.000Z</time>
      </trkpt>
      <trkpt lat="45.6032" lon="6.25617">
        <ele>383.79998779297</ele>
        <time>2023-05-31T14:27:56.000Z</time>
      </trkpt>
      <trkpt lat="45.60321" lon="6.25627">
        <ele>384.39999389648</ele>
        <time>2023-05-31T14:28:00.000Z</time>
      </trkpt>
      <trkpt lat="45.60327" lon="6.25644">
        <ele>385.20001220703</ele>
        <time>2023-05-31T14:28:04.000Z</time>
      </trkpt>
      <trkpt lat="45.60326" lon="6.25647">
        <ele>385.39999389648</ele>
        <time>2023-05-31T14:28:05.000Z</time>
      </trkpt>
      <trkpt lat="45.60323" lon="6.25665">
        <ele>386.60000610352</ele>
        <time>2023-05-31T14:28:10.000Z</time>
      </trkpt>
      <trkpt lat="45.60322" lon="6.25669">
        <ele>386.60000610352</ele>
        <time>2023-05-31T14:28:11.000Z</time>
      </trkpt>
      <trkpt lat="45.60322" lon="6.25689">
        <ele>387.60000610352</ele>
        <time>2023-05-31T14:28:17.000Z</time>
      </trkpt>
      <trkpt lat="45.60331" lon="6.25705">
        <ele>388.60000610352</ele>
        <time>2023-05-31T14:28:22.000Z</time>
      </trkpt>
      <trkpt lat="45.60339" lon="6.25714">
        <ele>388.79998779297</ele>
        <time>2023-05-31T14:28:24.000Z</time>
      </trkpt>
      <trkpt lat="45.60352" lon="6.25731">
        <ele>389.79998779297</ele>
        <time>2023-05-31T14:28:31.000Z</time>
      </trkpt>
      <trkpt lat="45.60366" lon="6.25742">
        <ele>390.79998779297</ele>
        <time>2023-05-31T14:28:37.000Z</time>
      </trkpt>
      <trkpt lat="45.60375" lon="6.25748">
        <ele>391.39999389648</ele>
        <time>2023-05-31T14:28:41.000Z</time>
      </trkpt>
      <trkpt lat="45.60381" lon="6.25753">
        <ele>391.79998779297</ele>
        <time>2023-05-31T14:28:44.000Z</time>
      </trkpt>
      <trkpt lat="45.60394" lon="6.25761">
        <ele>392.79998779297</ele>
        <time>2023-05-31T14:28:49.000Z</time>
      </trkpt>
      <trkpt lat="45.60407" lon="6.25765">
        <ele>394</ele>
        <time>2023-05-31T14:28:54.000Z</time>
      </trkpt>
      <trkpt lat="45.60415" lon="6.25769">
        <ele>394.60000610352</ele>
        <time>2023-05-31T14:28:57.000Z</time>
      </trkpt>
      <trkpt lat="45.60425" lon="6.25772">
        <ele>395.39999389648</ele>
        <time>2023-05-31T14:29:01.000Z</time>
      </trkpt>
      <trkpt lat="45.60435" lon="6.25778">
        <ele>396.39999389648</ele>
        <time>2023-05-31T14:29:05.000Z</time>
      </trkpt>
      <trkpt lat="45.60437" lon="6.2578">
        <ele>396.60000610352</ele>
        <time>2023-05-31T14:29:06.000Z</time>
      </trkpt>
      <trkpt lat="45.60445" lon="6.25789">
        <ele>397.39999389648</ele>
        <time>2023-05-31T14:29:10.000Z</time>
      </trkpt>
      <trkpt lat="45.60449" lon="6.25794">
        <ele>398.39999389648</ele>
        <time>2023-05-31T14:29:13.000Z</time>
      </trkpt>
      <trkpt lat="45.60454" lon="6.25802">
        <ele>399.20001220703</ele>
        <time>2023-05-31T14:29:15.000Z</time>
      </trkpt>
      <trkpt lat="45.60454" lon="6.25802">
        <ele>399.39999389648</ele>
        <time>2023-05-31T14:29:16.000Z</time>
      </trkpt>
      <trkpt lat="45.60463" lon="6.25814">
        <ele>400.60000610352</ele>
        <time>2023-05-31T14:29:20.000Z</time>
      </trkpt>
      <trkpt lat="45.60469" lon="6.25829">
        <ele>401.60000610352</ele>
        <time>2023-05-31T14:29:25.000Z</time>
      </trkpt>
      <trkpt lat="45.60471" lon="6.25842">
        <ele>402.60000610352</ele>
        <time>2023-05-31T14:29:29.000Z</time>
      </trkpt>
      <trkpt lat="45.60473" lon="6.25852">
        <ele>403.20001220703</ele>
        <time>2023-05-31T14:29:32.000Z</time>
      </trkpt>
      <trkpt lat="45.60476" lon="6.25859">
        <ele>403.60000610352</ele>
        <time>2023-05-31T14:29:34.000Z</time>
      </trkpt>
      <trkpt lat="45.60482" lon="6.25873">
        <ele>404.79998779297</ele>
        <time>2023-05-31T14:29:38.000Z</time>
      </trkpt>
      <trkpt lat="45.60482" lon="6.25873">
        <ele>405.20001220703</ele>
        <time>2023-05-31T14:29:39.000Z</time>
      </trkpt>
      <trkpt lat="45.60486" lon="6.2588">
        <ele>405.20001220703</ele>
        <time>2023-05-31T14:29:40.000Z</time>
      </trkpt>
      <trkpt lat="45.60491" lon="6.25888">
        <ele>405.79998779297</ele>
        <time>2023-05-31T14:29:43.000Z</time>
      </trkpt>
      <trkpt lat="45.605" lon="6.25904">
        <ele>406.79998779297</ele>
        <time>2023-05-31T14:29:48.000Z</time>
      </trkpt>
      <trkpt lat="45.60501" lon="6.25907">
        <ele>407</ele>
        <time>2023-05-31T14:29:49.000Z</time>
      </trkpt>
      <trkpt lat="45.60502" lon="6.25932">
        <ele>407.79998779297</ele>
        <time>2023-05-31T14:29:55.000Z</time>
      </trkpt>
      <trkpt lat="45.60501" lon="6.25935">
        <ele>408</ele>
        <time>2023-05-31T14:29:56.000Z</time>
      </trkpt>
      <trkpt lat="45.60498" lon="6.25951">
        <ele>409.20001220703</ele>
        <time>2023-05-31T14:30:00.000Z</time>
      </trkpt>
      <trkpt lat="45.60497" lon="6.25955">
        <ele>409.39999389648</ele>
        <time>2023-05-31T14:30:02.000Z</time>
      </trkpt>
      <trkpt lat="45.60502" lon="6.25979">
        <ele>410</ele>
        <time>2023-05-31T14:30:07.000Z</time>
      </trkpt>
      <trkpt lat="45.60505" lon="6.25986">
        <ele>410.39999389648</ele>
        <time>2023-05-31T14:30:09.000Z</time>
      </trkpt>
      <trkpt lat="45.60516" lon="6.2601">
        <ele>411.79998779297</ele>
        <time>2023-05-31T14:30:16.000Z</time>
      </trkpt>
      <trkpt lat="45.60518" lon="6.26013">
        <ele>411.79998779297</ele>
        <time>2023-05-31T14:30:17.000Z</time>
      </trkpt>
      <trkpt lat="45.60526" lon="6.26029">
        <ele>413</ele>
        <time>2023-05-31T14:30:22.000Z</time>
      </trkpt>
      <trkpt lat="45.60532" lon="6.2604">
        <ele>413.79998779297</ele>
        <time>2023-05-31T14:30:26.000Z</time>
      </trkpt>
      <trkpt lat="45.60533" lon="6.26043">
        <ele>414.20001220703</ele>
        <time>2023-05-31T14:30:27.000Z</time>
      </trkpt>
      <trkpt lat="45.60544" lon="6.2606">
        <ele>415.39999389648</ele>
        <time>2023-05-31T14:30:33.000Z</time>
      </trkpt>
      <trkpt lat="45.60548" lon="6.26065">
        <ele>415.79998779297</ele>
        <time>2023-05-31T14:30:35.000Z</time>
      </trkpt>
      <trkpt lat="45.60555" lon="6.26075">
        <ele>416.60000610352</ele>
        <time>2023-05-31T14:30:39.000Z</time>
      </trkpt>
      <trkpt lat="45.60565" lon="6.2609">
        <ele>417.39999389648</ele>
        <time>2023-05-31T14:30:44.000Z</time>
      </trkpt>
      <trkpt lat="45.60569" lon="6.26096">
        <ele>417.79998779297</ele>
        <time>2023-05-31T14:30:46.000Z</time>
      </trkpt>
      <trkpt lat="45.60578" lon="6.2611">
        <ele>419</ele>
        <time>2023-05-31T14:30:51.000Z</time>
      </trkpt>
      <trkpt lat="45.60586" lon="6.26125">
        <ele>420</ele>
        <time>2023-05-31T14:30:56.000Z</time>
      </trkpt>
      <trkpt lat="45.60587" lon="6.26127">
        <ele>420.39999389648</ele>
        <time>2023-05-31T14:30:57.000Z</time>
      </trkpt>
      <trkpt lat="45.60593" lon="6.26139">
        <ele>420.79998779297</ele>
        <time>2023-05-31T14:31:01.000Z</time>
      </trkpt>
      <trkpt lat="45.60595" lon="6.26142">
        <ele>421.20001220703</ele>
        <time>2023-05-31T14:31:02.000Z</time>
      </trkpt>
      <trkpt lat="45.606" lon="6.26152">
        <ele>421.79998779297</ele>
        <time>2023-05-31T14:31:05.000Z</time>
      </trkpt>
      <trkpt lat="45.60605" lon="6.26162">
        <ele>422.39999389648</ele>
        <time>2023-05-31T14:31:08.000Z</time>
      </trkpt>
      <trkpt lat="45.6061" lon="6.26171">
        <ele>423</ele>
        <time>2023-05-31T14:31:11.000Z</time>
      </trkpt>
      <trkpt lat="45.60616" lon="6.26184">
        <ele>424</ele>
        <time>2023-05-31T14:31:15.000Z</time>
      </trkpt>
      <trkpt lat="45.60618" lon="6.26187">
        <ele>424.20001220703</ele>
        <time>2023-05-31T14:31:16.000Z</time>
      </trkpt>
      <trkpt lat="45.60625" lon="6.26203">
        <ele>425</ele>
        <time>2023-05-31T14:31:21.000Z</time>
      </trkpt>
      <trkpt lat="45.60627" lon="6.26206">
        <ele>425.20001220703</ele>
        <time>2023-05-31T14:31:22.000Z</time>
      </trkpt>
      <trkpt lat="45.60634" lon="6.2622">
        <ele>426.20001220703</ele>
        <time>2023-05-31T14:31:26.000Z</time>
      </trkpt>
      <trkpt lat="45.60637" lon="6.2623">
        <ele>426.60000610352</ele>
        <time>2023-05-31T14:31:29.000Z</time>
      </trkpt>
      <trkpt lat="45.60641" lon="6.26239">
        <ele>427.60000610352</ele>
        <time>2023-05-31T14:31:32.000Z</time>
      </trkpt>
      <trkpt lat="45.60648" lon="6.26257">
        <ele>428.60000610352</ele>
        <time>2023-05-31T14:31:37.000Z</time>
      </trkpt>
      <trkpt lat="45.60655" lon="6.26282">
        <ele>430</ele>
        <time>2023-05-31T14:31:44.000Z</time>
      </trkpt>
      <trkpt lat="45.60664" lon="6.26303">
        <ele>431</ele>
        <time>2023-05-31T14:31:50.000Z</time>
      </trkpt>
      <trkpt lat="45.60669" lon="6.26314">
        <ele>431.39999389648</ele>
        <time>2023-05-31T14:31:53.000Z</time>
      </trkpt>
      <trkpt lat="45.60674" lon="6.26328">
        <ele>432.20001220703</ele>
        <time>2023-05-31T14:31:58.000Z</time>
      </trkpt>
      <trkpt lat="45.60682" lon="6.2635">
        <ele>433.20001220703</ele>
        <time>2023-05-31T14:32:03.000Z</time>
      </trkpt>
      <trkpt lat="45.60684" lon="6.26354">
        <ele>433.39999389648</ele>
        <time>2023-05-31T14:32:04.000Z</time>
      </trkpt>
      <trkpt lat="45.60695" lon="6.26378">
        <ele>434.20001220703</ele>
        <time>2023-05-31T14:32:11.000Z</time>
      </trkpt>
      <trkpt lat="45.60698" lon="6.26385">
        <ele>434.60000610352</ele>
        <time>2023-05-31T14:32:13.000Z</time>
      </trkpt>
      <trkpt lat="45.60715" lon="6.26412">
        <ele>435.39999389648</ele>
        <time>2023-05-31T14:32:21.000Z</time>
      </trkpt>
      <trkpt lat="45.60717" lon="6.26415">
        <ele>435.60000610352</ele>
        <time>2023-05-31T14:32:22.000Z</time>
      </trkpt>
      <trkpt lat="45.60734" lon="6.26442">
        <ele>436.39999389648</ele>
        <time>2023-05-31T14:32:30.000Z</time>
      </trkpt>
      <trkpt lat="45.60739" lon="6.26447">
        <ele>436.60000610352</ele>
        <time>2023-05-31T14:32:32.000Z</time>
      </trkpt>
      <trkpt lat="45.60747" lon="6.26459">
        <ele>436.79998779297</ele>
        <time>2023-05-31T14:32:36.000Z</time>
      </trkpt>
      <trkpt lat="45.60759" lon="6.26472">
        <ele>437.20001220703</ele>
        <time>2023-05-31T14:32:42.000Z</time>
      </trkpt>
      <trkpt lat="45.60759" lon="6.26474">
        <ele>437</ele>
        <time>2023-05-31T14:32:46.000Z</time>
      </trkpt>
      <trkpt lat="45.60759" lon="6.26474">
        <ele>436.60000610352</ele>
        <time>2023-05-31T14:32:49.000Z</time>
      </trkpt>
      <trkpt lat="45.60759" lon="6.26477">
        <ele>436.60000610352</ele>
        <time>2023-05-31T14:33:31.000Z</time>
      </trkpt>
      <trkpt lat="45.60759" lon="6.26481">
        <ele>436.60000610352</ele>
        <time>2023-05-31T14:33:32.000Z</time>
      </trkpt>
      <trkpt lat="45.60768" lon="6.26497">
        <ele>436.60000610352</ele>
        <time>2023-05-31T14:33:36.000Z</time>
      </trkpt>
      <trkpt lat="45.60777" lon="6.26513">
        <ele>436.39999389648</ele>
        <time>2023-05-31T14:33:39.000Z</time>
      </trkpt>
      <trkpt lat="45.60784" lon="6.26526">
        <ele>436.20001220703</ele>
        <time>2023-05-31T14:33:41.000Z</time>
      </trkpt>
      <trkpt lat="45.608" lon="6.26558">
        <ele>435.20001220703</ele>
        <time>2023-05-31T14:33:45.000Z</time>
      </trkpt>
      <trkpt lat="45.60804" lon="6.26567">
        <ele>435</ele>
        <time>2023-05-31T14:33:46.000Z</time>
      </trkpt>
      <trkpt lat="45.60817" lon="6.26597">
        <ele>433.79998779297</ele>
        <time>2023-05-31T14:33:49.000Z</time>
      </trkpt>
      <trkpt lat="45.60829" lon="6.26629">
        <ele>432.20001220703</ele>
        <time>2023-05-31T14:33:52.000Z</time>
      </trkpt>
      <trkpt lat="45.60847" lon="6.26672">
        <ele>431</ele>
        <time>2023-05-31T14:33:56.000Z</time>
      </trkpt>
      <trkpt lat="45.60867" lon="6.26713">
        <ele>430</ele>
        <time>2023-05-31T14:34:00.000Z</time>
      </trkpt>
      <trkpt lat="45.60872" lon="6.26724">
        <ele>429.39999389648</ele>
        <time>2023-05-31T14:34:01.000Z</time>
      </trkpt>
      <trkpt lat="45.60888" lon="6.26754">
        <ele>428.20001220703</ele>
        <time>2023-05-31T14:34:04.000Z</time>
      </trkpt>
      <trkpt lat="45.60911" lon="6.26795">
        <ele>427.20001220703</ele>
        <time>2023-05-31T14:34:08.000Z</time>
      </trkpt>
      <trkpt lat="45.60916" lon="6.26805">
        <ele>427</ele>
        <time>2023-05-31T14:34:09.000Z</time>
      </trkpt>
      <trkpt lat="45.60927" lon="6.26826">
        <ele>425.79998779297</ele>
        <time>2023-05-31T14:34:11.000Z</time>
      </trkpt>
      <trkpt lat="45.60947" lon="6.26871">
        <ele>424.60000610352</ele>
        <time>2023-05-31T14:34:15.000Z</time>
      </trkpt>
      <trkpt lat="45.60959" lon="6.26906">
        <ele>423.20001220703</ele>
        <time>2023-05-31T14:34:18.000Z</time>
      </trkpt>
      <trkpt lat="45.60973" lon="6.2695">
        <ele>422</ele>
        <time>2023-05-31T14:34:22.000Z</time>
      </trkpt>
      <trkpt lat="45.6098" lon="6.2697">
        <ele>421.60000610352</ele>
        <time>2023-05-31T14:34:24.000Z</time>
      </trkpt>
      <trkpt lat="45.60992" lon="6.26998">
        <ele>421</ele>
        <time>2023-05-31T14:34:27.000Z</time>
      </trkpt>
      <trkpt lat="45.61" lon="6.27015">
        <ele>420.60000610352</ele>
        <time>2023-05-31T14:34:29.000Z</time>
      </trkpt>
      <trkpt lat="45.6102" lon="6.27055">
        <ele>419.79998779297</ele>
        <time>2023-05-31T14:34:34.000Z</time>
      </trkpt>
      <trkpt lat="45.61023" lon="6.27063">
        <ele>419.79998779297</ele>
        <time>2023-05-31T14:34:35.000Z</time>
      </trkpt>
      <trkpt lat="45.61036" lon="6.27101">
        <ele>420</ele>
        <time>2023-05-31T14:34:40.000Z</time>
      </trkpt>
      <trkpt lat="45.61052" lon="6.27149">
        <ele>419.79998779297</ele>
        <time>2023-05-31T14:34:45.000Z</time>
      </trkpt>
      <trkpt lat="45.61071" lon="6.27204">
        <ele>418.60000610352</ele>
        <time>2023-05-31T14:34:50.000Z</time>
      </trkpt>
      <trkpt lat="45.61075" lon="6.27215">
        <ele>418.39999389648</ele>
        <time>2023-05-31T14:34:51.000Z</time>
      </trkpt>
      <trkpt lat="45.61086" lon="6.27249">
        <ele>417.39999389648</ele>
        <time>2023-05-31T14:34:54.000Z</time>
      </trkpt>
      <trkpt lat="45.61094" lon="6.27271">
        <ele>416.39999389648</ele>
        <time>2023-05-31T14:34:56.000Z</time>
      </trkpt>
      <trkpt lat="45.61102" lon="6.27293">
        <ele>415.39999389648</ele>
        <time>2023-05-31T14:34:58.000Z</time>
      </trkpt>
      <trkpt lat="45.61105" lon="6.27303">
        <ele>415</ele>
        <time>2023-05-31T14:34:59.000Z</time>
      </trkpt>
      <trkpt lat="45.61121" lon="6.27343">
        <ele>414.20001220703</ele>
        <time>2023-05-31T14:35:03.000Z</time>
      </trkpt>
      <trkpt lat="45.61126" lon="6.27351">
        <ele>414</ele>
        <time>2023-05-31T14:35:04.000Z</time>
      </trkpt>
      <trkpt lat="45.61132" lon="6.2736">
        <ele>414</ele>
        <time>2023-05-31T14:35:05.000Z</time>
      </trkpt>
      <trkpt lat="45.61175" lon="6.27419">
        <ele>412.79998779297</ele>
        <time>2023-05-31T14:35:12.000Z</time>
      </trkpt>
      <trkpt lat="45.61202" lon="6.27452">
        <ele>411.60000610352</ele>
        <time>2023-05-31T14:35:16.000Z</time>
      </trkpt>
      <trkpt lat="45.61209" lon="6.27459">
        <ele>411.39999389648</ele>
        <time>2023-05-31T14:35:17.000Z</time>
      </trkpt>
      <trkpt lat="45.61225" lon="6.27471">
        <ele>410.60000610352</ele>
        <time>2023-05-31T14:35:19.000Z</time>
      </trkpt>
      <trkpt lat="45.61255" lon="6.27497">
        <ele>409.20001220703</ele>
        <time>2023-05-31T14:35:23.000Z</time>
      </trkpt>
      <trkpt lat="45.61262" lon="6.27504">
        <ele>409</ele>
        <time>2023-05-31T14:35:24.000Z</time>
      </trkpt>
      <trkpt lat="45.61293" lon="6.27543">
        <ele>408.20001220703</ele>
        <time>2023-05-31T14:35:29.000Z</time>
      </trkpt>
      <trkpt lat="45.61304" lon="6.27557">
        <ele>408</ele>
        <time>2023-05-31T14:35:31.000Z</time>
      </trkpt>
      <trkpt lat="45.61316" lon="6.27567">
        <ele>407.79998779297</ele>
        <time>2023-05-31T14:35:33.000Z</time>
      </trkpt>
      <trkpt lat="45.61354" lon="6.27598">
        <ele>408.39999389648</ele>
        <time>2023-05-31T14:35:40.000Z</time>
      </trkpt>
      <trkpt lat="45.61368" lon="6.27607">
        <ele>408.79998779297</ele>
        <time>2023-05-31T14:35:43.000Z</time>
      </trkpt>
      <trkpt lat="45.61377" lon="6.27613">
        <ele>409.39999389648</ele>
        <time>2023-05-31T14:35:45.000Z</time>
      </trkpt>
      <trkpt lat="45.61381" lon="6.27615">
        <ele>409.60000610352</ele>
        <time>2023-05-31T14:35:46.000Z</time>
      </trkpt>
      <trkpt lat="45.61391" lon="6.2762">
        <ele>410.39999389648</ele>
        <time>2023-05-31T14:35:49.000Z</time>
      </trkpt>
      <trkpt lat="45.61401" lon="6.27628">
        <ele>411</ele>
        <time>2023-05-31T14:35:52.000Z</time>
      </trkpt>
      <trkpt lat="45.61404" lon="6.2763">
        <ele>411.39999389648</ele>
        <time>2023-05-31T14:35:53.000Z</time>
      </trkpt>
      <trkpt lat="45.6141" lon="6.27636">
        <ele>412</ele>
        <time>2023-05-31T14:35:56.000Z</time>
      </trkpt>
      <trkpt lat="45.61412" lon="6.27636">
        <ele>412</ele>
        <time>2023-05-31T14:35:57.000Z</time>
      </trkpt>
      <trkpt lat="45.61418" lon="6.2764">
        <ele>412.60000610352</ele>
        <time>2023-05-31T14:35:59.000Z</time>
      </trkpt>
      <trkpt lat="45.61428" lon="6.27646">
        <ele>413.20001220703</ele>
        <time>2023-05-31T14:36:02.000Z</time>
      </trkpt>
      <trkpt lat="45.61438" lon="6.27654">
        <ele>413.60000610352</ele>
        <time>2023-05-31T14:36:05.000Z</time>
      </trkpt>
      <trkpt lat="45.61453" lon="6.27664">
        <ele>414.20001220703</ele>
        <time>2023-05-31T14:36:09.000Z</time>
      </trkpt>
      <trkpt lat="45.61464" lon="6.27672">
        <ele>414.60000610352</ele>
        <time>2023-05-31T14:36:12.000Z</time>
      </trkpt>
      <trkpt lat="45.61485" lon="6.27687">
        <ele>415.39999389648</ele>
        <time>2023-05-31T14:36:18.000Z</time>
      </trkpt>
      <trkpt lat="45.61489" lon="6.27689">
        <ele>415.79998779297</ele>
        <time>2023-05-31T14:36:19.000Z</time>
      </trkpt>
      <trkpt lat="45.61507" lon="6.277">
        <ele>416.39999389648</ele>
        <time>2023-05-31T14:36:25.000Z</time>
      </trkpt>
      <trkpt lat="45.61512" lon="6.27704">
        <ele>416.79998779297</ele>
        <time>2023-05-31T14:36:27.000Z</time>
      </trkpt>
      <trkpt lat="45.61526" lon="6.27715">
        <ele>417.60000610352</ele>
        <time>2023-05-31T14:36:32.000Z</time>
      </trkpt>
      <trkpt lat="45.61529" lon="6.27716">
        <ele>417.79998779297</ele>
        <time>2023-05-31T14:36:33.000Z</time>
      </trkpt>
      <trkpt lat="45.61541" lon="6.27726">
        <ele>418.39999389648</ele>
        <time>2023-05-31T14:36:37.000Z</time>
      </trkpt>
      <trkpt lat="45.61551" lon="6.27733">
        <ele>419</ele>
        <time>2023-05-31T14:36:40.000Z</time>
      </trkpt>
      <trkpt lat="45.61573" lon="6.27743">
        <ele>420</ele>
        <time>2023-05-31T14:36:46.000Z</time>
      </trkpt>
      <trkpt lat="45.61577" lon="6.27746">
        <ele>420.39999389648</ele>
        <time>2023-05-31T14:36:47.000Z</time>
      </trkpt>
      <trkpt lat="45.61593" lon="6.27759">
        <ele>421</ele>
        <time>2023-05-31T14:36:52.000Z</time>
      </trkpt>
      <trkpt lat="45.61599" lon="6.27763">
        <ele>421.39999389648</ele>
        <time>2023-05-31T14:36:54.000Z</time>
      </trkpt>
      <trkpt lat="45.61613" lon="6.27773">
        <ele>422.20001220703</ele>
        <time>2023-05-31T14:36:59.000Z</time>
      </trkpt>
      <trkpt lat="45.61623" lon="6.27781">
        <ele>422.60000610352</ele>
        <time>2023-05-31T14:37:02.000Z</time>
      </trkpt>
      <trkpt lat="45.61633" lon="6.27786">
        <ele>423.20001220703</ele>
        <time>2023-05-31T14:37:05.000Z</time>
      </trkpt>
      <trkpt lat="45.61639" lon="6.27789">
        <ele>423.60000610352</ele>
        <time>2023-05-31T14:37:07.000Z</time>
      </trkpt>
      <trkpt lat="45.61652" lon="6.27796">
        <ele>424.60000610352</ele>
        <time>2023-05-31T14:37:11.000Z</time>
      </trkpt>
      <trkpt lat="45.61662" lon="6.27805">
        <ele>425.20001220703</ele>
        <time>2023-05-31T14:37:14.000Z</time>
      </trkpt>
      <trkpt lat="45.6167" lon="6.27816">
        <ele>425.79998779297</ele>
        <time>2023-05-31T14:37:17.000Z</time>
      </trkpt>
      <trkpt lat="45.61673" lon="6.27825">
        <ele>426.39999389648</ele>
        <time>2023-05-31T14:37:19.000Z</time>
      </trkpt>
      <trkpt lat="45.61674" lon="6.27835">
        <ele>427</ele>
        <time>2023-05-31T14:37:21.000Z</time>
      </trkpt>
      <trkpt lat="45.61676" lon="6.27856">
        <ele>428</ele>
        <time>2023-05-31T14:37:25.000Z</time>
      </trkpt>
      <trkpt lat="45.61676" lon="6.2786">
        <ele>428.20001220703</ele>
        <time>2023-05-31T14:37:26.000Z</time>
      </trkpt>
      <trkpt lat="45.61677" lon="6.27868">
        <ele>428.60000610352</ele>
        <time>2023-05-31T14:37:28.000Z</time>
      </trkpt>
      <trkpt lat="45.61682" lon="6.27871">
        <ele>429</ele>
        <time>2023-05-31T14:37:30.000Z</time>
      </trkpt>
      <trkpt lat="45.61696" lon="6.27865">
        <ele>429.39999389648</ele>
        <time>2023-05-31T14:37:34.000Z</time>
      </trkpt>
      <trkpt lat="45.61715" lon="6.27855">
        <ele>429.39999389648</ele>
        <time>2023-05-31T14:37:39.000Z</time>
      </trkpt>
      <trkpt lat="45.61726" lon="6.27848">
        <ele>429.39999389648</ele>
        <time>2023-05-31T14:37:42.000Z</time>
      </trkpt>
      <trkpt lat="45.61733" lon="6.27841">
        <ele>429.60000610352</ele>
        <time>2023-05-31T14:37:44.000Z</time>
      </trkpt>
      <trkpt lat="45.61736" lon="6.27836">
        <ele>429.79998779297</ele>
        <time>2023-05-31T14:37:45.000Z</time>
      </trkpt>
      <trkpt lat="45.61739" lon="6.27832">
        <ele>429.79998779297</ele>
        <time>2023-05-31T14:37:46.000Z</time>
      </trkpt>
      <trkpt lat="45.61741" lon="6.27827">
        <ele>430</ele>
        <time>2023-05-31T14:37:47.000Z</time>
      </trkpt>
      <trkpt lat="45.61745" lon="6.27817">
        <ele>430.20001220703</ele>
        <time>2023-05-31T14:37:49.000Z</time>
      </trkpt>
      <trkpt lat="45.61749" lon="6.27807">
        <ele>430.20001220703</ele>
        <time>2023-05-31T14:37:51.000Z</time>
      </trkpt>
      <trkpt lat="45.61755" lon="6.27805">
        <ele>430.20001220703</ele>
        <time>2023-05-31T14:37:53.000Z</time>
      </trkpt>
      <trkpt lat="45.61757" lon="6.27806">
        <ele>430.39999389648</ele>
        <time>2023-05-31T14:37:54.000Z</time>
      </trkpt>
      <trkpt lat="45.6176" lon="6.27808">
        <ele>430.39999389648</ele>
        <time>2023-05-31T14:37:56.000Z</time>
      </trkpt>
      <trkpt lat="45.61761" lon="6.27807">
        <ele>430.39999389648</ele>
        <time>2023-05-31T14:37:57.000Z</time>
      </trkpt>
      <trkpt lat="45.61761" lon="6.27807">
        <ele>430.39999389648</ele>
        <time>2023-05-31T14:37:59.000Z</time>
      </trkpt>
      <trkpt lat="45.61756" lon="6.27806">
        <ele>429.39999389648</ele>
        <time>2023-05-31T14:41:13.000Z</time>
      </trkpt>
      <trkpt lat="45.61755" lon="6.27805">
        <ele>429.39999389648</ele>
        <time>2023-05-31T14:41:14.000Z</time>
      </trkpt>
      <trkpt lat="45.61751" lon="6.27799">
        <ele>429.39999389648</ele>
        <time>2023-05-31T14:41:17.000Z</time>
      </trkpt>
      <trkpt lat="45.61751" lon="6.27795">
        <ele>429.60000610352</ele>
        <time>2023-05-31T14:41:18.000Z</time>
      </trkpt>
      <trkpt lat="45.61757" lon="6.27775">
        <ele>429.79998779297</ele>
        <time>2023-05-31T14:41:23.000Z</time>
      </trkpt>
      <trkpt lat="45.61763" lon="6.27759">
        <ele>430.79998779297</ele>
        <time>2023-05-31T14:41:27.000Z</time>
      </trkpt>
      <trkpt lat="45.61767" lon="6.27752">
        <ele>431.39999389648</ele>
        <time>2023-05-31T14:41:29.000Z</time>
      </trkpt>
      <trkpt lat="45.61768" lon="6.27744">
        <ele>432</ele>
        <time>2023-05-31T14:41:31.000Z</time>
      </trkpt>
      <trkpt lat="45.61771" lon="6.27731">
        <ele>433.20001220703</ele>
        <time>2023-05-31T14:41:34.000Z</time>
      </trkpt>
      <trkpt lat="45.61775" lon="6.27721">
        <ele>434</ele>
        <time>2023-05-31T14:41:37.000Z</time>
      </trkpt>
      <trkpt lat="45.61777" lon="6.27717">
        <ele>434.79998779297</ele>
        <time>2023-05-31T14:41:38.000Z</time>
      </trkpt>
      <trkpt lat="45.61784" lon="6.27709">
        <ele>436</ele>
        <time>2023-05-31T14:41:41.000Z</time>
      </trkpt>
      <trkpt lat="45.61786" lon="6.27707">
        <ele>436.20001220703</ele>
        <time>2023-05-31T14:41:42.000Z</time>
      </trkpt>
      <trkpt lat="45.61794" lon="6.27704">
        <ele>437.20001220703</ele>
        <time>2023-05-31T14:41:45.000Z</time>
      </trkpt>
      <trkpt lat="45.61802" lon="6.27702">
        <ele>438.39999389648</ele>
        <time>2023-05-31T14:41:48.000Z</time>
      </trkpt>
      <trkpt lat="45.61805" lon="6.27701">
        <ele>438.60000610352</ele>
        <time>2023-05-31T14:41:49.000Z</time>
      </trkpt>
      <trkpt lat="45.61815" lon="6.27699">
        <ele>439.60000610352</ele>
        <time>2023-05-31T14:41:52.000Z</time>
      </trkpt>
      <trkpt lat="45.6183" lon="6.27694">
        <ele>440.79998779297</ele>
        <time>2023-05-31T14:41:57.000Z</time>
      </trkpt>
      <trkpt lat="45.61841" lon="6.27688">
        <ele>441.79998779297</ele>
        <time>2023-05-31T14:42:01.000Z</time>
      </trkpt>
      <trkpt lat="45.61845" lon="6.27687">
        <ele>442.39999389648</ele>
        <time>2023-05-31T14:42:03.000Z</time>
      </trkpt>
      <trkpt lat="45.61852" lon="6.27688">
        <ele>443.39999389648</ele>
        <time>2023-05-31T14:42:06.000Z</time>
      </trkpt>
      <trkpt lat="45.61859" lon="6.27689">
        <ele>443.79998779297</ele>
        <time>2023-05-31T14:42:09.000Z</time>
      </trkpt>
      <trkpt lat="45.61862" lon="6.27691">
        <ele>443.79998779297</ele>
        <time>2023-05-31T14:42:10.000Z</time>
      </trkpt>
      <trkpt lat="45.61862" lon="6.27696">
        <ele>443.79998779297</ele>
        <time>2023-05-31T14:42:12.000Z</time>
      </trkpt>
      <trkpt lat="45.61861" lon="6.27699">
        <ele>443.60000610352</ele>
        <time>2023-05-31T14:42:16.000Z</time>
      </trkpt>
      <trkpt lat="45.61861" lon="6.27699">
        <ele>443.39999389648</ele>
        <time>2023-05-31T14:42:17.000Z</time>
      </trkpt>
    </trkseg>
  </trk>
</gpx>